<?xml version='1.0' encoding='UTF-8'?><gpx version="1.1" creator="JPX - https://github.com/jenetics/jpx" xmlns="http://www.topografix.com/GPX/1/1"><trk><trkseg><trkpt lat="44.7729478" lon="9.3876979"><ele>264.0</ele><time>2026-04-19T08:15:12.787Z</time></trkpt><trkpt lat="44.7729918" lon="9.3877702"><ele>264.0</ele><time>2026-04-19T08:16:51.787Z</time></trkpt><trkpt lat="44.7730467" lon="9.3876883"><ele>264.0</ele><time>2026-04-19T08:17:36.822Z</time></trkpt><trkpt lat="44.7730442" lon="9.387575"><ele>264.0</ele><time>2026-04-19T08:17:38.836Z</time></trkpt><trkpt lat="44.7729715" lon="9.3875257"><ele>264.0</ele><time>2026-04-19T08:17:40.804Z</time></trkpt><trkpt lat="44.7728529" lon="9.3875033"><ele>264.0</ele><time>2026-04-19T08:17:42.908Z</time></trkpt><trkpt lat="44.7727422" lon="9.3874859"><ele>264.8</ele><time>2026-04-19T08:17:44.8Z</time></trkpt><trkpt lat="44.7726173" lon="9.3874533"><ele>265.59999999999997</ele><time>2026-04-19T08:17:46.81Z</time></trkpt><trkpt lat="44.7725544" lon="9.3874407"><ele>266.4</ele><time>2026-04-19T08:17:47.807Z</time></trkpt><trkpt lat="44.7724903" lon="9.3874267"><ele>267.2</ele><time>2026-04-19T08:17:48.782Z</time></trkpt><trkpt lat="44.7724069" lon="9.3874149"><ele>268.0</ele><time>2026-04-19T08:17:49.954Z</time></trkpt><trkpt lat="44.7722809" lon="9.3873882"><ele>268.0</ele><time>2026-04-19T08:17:51.796Z</time></trkpt><trkpt lat="44.7722193" lon="9.3873632"><ele>268.0</ele><time>2026-04-19T08:17:52.76Z</time></trkpt><trkpt lat="44.7721545" lon="9.3873476"><ele>268.0</ele><time>2026-04-19T08:17:53.812Z</time></trkpt><trkpt lat="44.7720325" lon="9.3873247"><ele>268.0</ele><time>2026-04-19T08:17:55.813Z</time></trkpt><trkpt lat="44.771913" lon="9.3872937"><ele>268.0</ele><time>2026-04-19T08:17:57.812Z</time></trkpt><trkpt lat="44.7718475" lon="9.3872819"><ele>268.0</ele><time>2026-04-19T08:17:58.816Z</time></trkpt><trkpt lat="44.7717799" lon="9.3872769"><ele>268.16666666666663</ele><time>2026-04-19T08:17:59.818Z</time></trkpt><trkpt lat="44.7717007" lon="9.3872664"><ele>268.3333333333333</ele><time>2026-04-19T08:18:00.865Z</time></trkpt><trkpt lat="44.7716221" lon="9.3872447"><ele>268.5</ele><time>2026-04-19T08:18:01.841Z</time></trkpt><trkpt lat="44.7715375" lon="9.387227"><ele>268.6666666666667</ele><time>2026-04-19T08:18:02.879Z</time></trkpt><trkpt lat="44.7714582" lon="9.3872187"><ele>268.83333333333337</ele><time>2026-04-19T08:18:03.805Z</time></trkpt><trkpt lat="44.7713773" lon="9.3872001"><ele>269.0</ele><time>2026-04-19T08:18:04.789Z</time></trkpt><trkpt lat="44.7712928" lon="9.387174"><ele>269.6666666666667</ele><time>2026-04-19T08:18:05.86Z</time></trkpt><trkpt lat="44.7712185" lon="9.3871597"><ele>270.33333333333337</ele><time>2026-04-19T08:18:06.896Z</time></trkpt><trkpt lat="44.7710904" lon="9.3871334"><ele>271.0</ele><time>2026-04-19T08:18:08.778Z</time></trkpt><trkpt lat="44.7710278" lon="9.387124"><ele>271.6666666666667</ele><time>2026-04-19T08:18:09.832Z</time></trkpt><trkpt lat="44.7709632" lon="9.3871147"><ele>272.3333333333333</ele><time>2026-04-19T08:18:10.829Z</time></trkpt><trkpt lat="44.7708898" lon="9.3870933"><ele>273.0</ele><time>2026-04-19T08:18:12.002Z</time></trkpt><trkpt lat="44.7707666" lon="9.3870626"><ele>274.0</ele><time>2026-04-19T08:18:13.785Z</time></trkpt><trkpt lat="44.7706794" lon="9.3870306"><ele>275.0</ele><time>2026-04-19T08:18:15.036Z</time></trkpt><trkpt lat="44.770568" lon="9.3869623"><ele>276.0</ele><time>2026-04-19T08:18:16.797Z</time></trkpt><trkpt lat="44.7704999" lon="9.3869187"><ele>277.0</ele><time>2026-04-19T08:18:17.801Z</time></trkpt><trkpt lat="44.7704354" lon="9.386875"><ele>278.0</ele><time>2026-04-19T08:18:18.77Z</time></trkpt><trkpt lat="44.7703642" lon="9.3868356"><ele>279.0</ele><time>2026-04-19T08:18:19.798Z</time></trkpt><trkpt lat="44.7702993" lon="9.3867848"><ele>279.0</ele><time>2026-04-19T08:18:20.791Z</time></trkpt><trkpt lat="44.7702297" lon="9.3867215"><ele>279.0</ele><time>2026-04-19T08:18:21.768Z</time></trkpt><trkpt lat="44.7701329" lon="9.3866505"><ele>279.0</ele><time>2026-04-19T08:18:22.897Z</time></trkpt><trkpt lat="44.7699402" lon="9.386603"><ele>279.0</ele><time>2026-04-19T08:18:24.774Z</time></trkpt><trkpt lat="44.7698407" lon="9.386569"><ele>279.0</ele><time>2026-04-19T08:18:25.808Z</time></trkpt><trkpt lat="44.769762" lon="9.3865413"><ele>279.0</ele><time>2026-04-19T08:18:26.806Z</time></trkpt><trkpt lat="44.7696639" lon="9.3865143"><ele>279.0</ele><time>2026-04-19T08:18:28.765Z</time></trkpt><trkpt lat="44.7696025" lon="9.3864915"><ele>279.0</ele><time>2026-04-19T08:18:33.809Z</time></trkpt><trkpt lat="44.769501" lon="9.3864823"><ele>279.0</ele><time>2026-04-19T08:18:38.785Z</time></trkpt><trkpt lat="44.7694332" lon="9.3864551"><ele>279.0</ele><time>2026-04-19T08:18:43.825Z</time></trkpt><trkpt lat="44.7693364" lon="9.3864732"><ele>279.3333333333333</ele><time>2026-04-19T08:18:45.819Z</time></trkpt><trkpt lat="44.7692871" lon="9.3865372"><ele>279.6666666666667</ele><time>2026-04-19T08:18:46.764Z</time></trkpt><trkpt lat="44.7692467" lon="9.3866367"><ele>280.0</ele><time>2026-04-19T08:18:47.812Z</time></trkpt><trkpt lat="44.7692228" lon="9.3867494"><ele>280.33333333333337</ele><time>2026-04-19T08:18:48.821Z</time></trkpt><trkpt lat="44.7691908" lon="9.386861"><ele>280.6666666666667</ele><time>2026-04-19T08:18:49.78Z</time></trkpt><trkpt lat="44.7691536" lon="9.3869757"><ele>281.0</ele><time>2026-04-19T08:18:50.831Z</time></trkpt><trkpt lat="44.7691174" lon="9.3870784"><ele>279.83333333333337</ele><time>2026-04-19T08:18:51.756Z</time></trkpt><trkpt lat="44.7690859" lon="9.387181"><ele>278.6666666666667</ele><time>2026-04-19T08:18:52.806Z</time></trkpt><trkpt lat="44.7690563" lon="9.3872665"><ele>277.5</ele><time>2026-04-19T08:18:53.77Z</time></trkpt><trkpt lat="44.76903" lon="9.3873639"><ele>276.3333333333333</ele><time>2026-04-19T08:18:54.799Z</time></trkpt><trkpt lat="44.7689386" lon="9.3874623"><ele>275.16666666666663</ele><time>2026-04-19T08:18:56.77Z</time></trkpt><trkpt lat="44.7688731" lon="9.3874919"><ele>274.0</ele><time>2026-04-19T08:18:57.857Z</time></trkpt><trkpt lat="44.76875" lon="9.3874629"><ele>274.0</ele><time>2026-04-19T08:18:59.782Z</time></trkpt><trkpt lat="44.7686775" lon="9.3874535"><ele>274.0</ele><time>2026-04-19T08:19:00.792Z</time></trkpt><trkpt lat="44.7686053" lon="9.3874504"><ele>274.0</ele><time>2026-04-19T08:19:01.769Z</time></trkpt><trkpt lat="44.7685252" lon="9.3874612"><ele>274.0</ele><time>2026-04-19T08:19:02.77Z</time></trkpt><trkpt lat="44.768447" lon="9.387476"><ele>274.0</ele><time>2026-04-19T08:19:03.868Z</time></trkpt><trkpt lat="44.7683766" lon="9.387495"><ele>274.0</ele><time>2026-04-19T08:19:04.787Z</time></trkpt><trkpt lat="44.7683028" lon="9.3875121"><ele>274.16666666666663</ele><time>2026-04-19T08:19:05.816Z</time></trkpt><trkpt lat="44.7682274" lon="9.3875326"><ele>274.3333333333333</ele><time>2026-04-19T08:19:06.823Z</time></trkpt><trkpt lat="44.7681523" lon="9.387558"><ele>274.5</ele><time>2026-04-19T08:19:07.799Z</time></trkpt><trkpt lat="44.7680729" lon="9.3875946"><ele>274.6666666666667</ele><time>2026-04-19T08:19:08.885Z</time></trkpt><trkpt lat="44.7680013" lon="9.3876391"><ele>274.83333333333337</ele><time>2026-04-19T08:19:09.856Z</time></trkpt><trkpt lat="44.7679342" lon="9.3876776"><ele>275.0</ele><time>2026-04-19T08:19:10.838Z</time></trkpt><trkpt lat="44.7678716" lon="9.3877195"><ele>275.0</ele><time>2026-04-19T08:19:11.888Z</time></trkpt><trkpt lat="44.7677547" lon="9.3878141"><ele>275.0</ele><time>2026-04-19T08:19:13.814Z</time></trkpt><trkpt lat="44.7676976" lon="9.387894"><ele>275.0</ele><time>2026-04-19T08:19:14.838Z</time></trkpt><trkpt lat="44.7676537" lon="9.3879718"><ele>275.0</ele><time>2026-04-19T08:19:15.831Z</time></trkpt><trkpt lat="44.767603" lon="9.3880589"><ele>275.0</ele><time>2026-04-19T08:19:16.823Z</time></trkpt><trkpt lat="44.7675549" lon="9.3881465"><ele>275.0</ele><time>2026-04-19T08:19:17.773Z</time></trkpt><trkpt lat="44.7675008" lon="9.3882375"><ele>274.1666666666667</ele><time>2026-04-19T08:19:18.784Z</time></trkpt><trkpt lat="44.7674437" lon="9.3883252"><ele>273.33333333333337</ele><time>2026-04-19T08:19:19.784Z</time></trkpt><trkpt lat="44.7673779" lon="9.3884282"><ele>272.5</ele><time>2026-04-19T08:19:20.895Z</time></trkpt><trkpt lat="44.7673187" lon="9.3885128"><ele>271.6666666666667</ele><time>2026-04-19T08:19:21.795Z</time></trkpt><trkpt lat="44.7672409" lon="9.3885806"><ele>270.8333333333333</ele><time>2026-04-19T08:19:22.839Z</time></trkpt><trkpt lat="44.7671602" lon="9.3886011"><ele>270.0</ele><time>2026-04-19T08:19:23.796Z</time></trkpt><trkpt lat="44.7670696" lon="9.3885817"><ele>270.0</ele><time>2026-04-19T08:19:24.8Z</time></trkpt><trkpt lat="44.7669799" lon="9.3885353"><ele>270.0</ele><time>2026-04-19T08:19:25.81Z</time></trkpt><trkpt lat="44.7668848" lon="9.3884756"><ele>270.0</ele><time>2026-04-19T08:19:26.818Z</time></trkpt><trkpt lat="44.7667903" lon="9.3884303"><ele>270.0</ele><time>2026-04-19T08:19:27.761Z</time></trkpt><trkpt lat="44.76668" lon="9.3883792"><ele>270.0</ele><time>2026-04-19T08:19:28.8Z</time></trkpt><trkpt lat="44.7665769" lon="9.3883406"><ele>270.1666666666667</ele><time>2026-04-19T08:19:29.795Z</time></trkpt><trkpt lat="44.7664758" lon="9.3883013"><ele>270.3333333333333</ele><time>2026-04-19T08:19:30.812Z</time></trkpt><trkpt lat="44.7663834" lon="9.3882647"><ele>270.5</ele><time>2026-04-19T08:19:31.794Z</time></trkpt><trkpt lat="44.7663136" lon="9.3882148"><ele>270.66666666666663</ele><time>2026-04-19T08:19:32.763Z</time></trkpt><trkpt lat="44.7662533" lon="9.3881508"><ele>270.8333333333333</ele><time>2026-04-19T08:19:33.78Z</time></trkpt><trkpt lat="44.7662065" lon="9.3880614"><ele>271.0</ele><time>2026-04-19T08:19:34.796Z</time></trkpt><trkpt lat="44.7661826" lon="9.3879393"><ele>272.8</ele><time>2026-04-19T08:19:35.768Z</time></trkpt><trkpt lat="44.7661646" lon="9.3878106"><ele>274.6</ele><time>2026-04-19T08:19:36.762Z</time></trkpt><trkpt lat="44.7661496" lon="9.3876716"><ele>276.4</ele><time>2026-04-19T08:19:37.84Z</time></trkpt><trkpt lat="44.7661425" lon="9.387551"><ele>278.2</ele><time>2026-04-19T08:19:38.81Z</time></trkpt><trkpt lat="44.7661401" lon="9.3874216"><ele>280.0</ele><time>2026-04-19T08:19:39.791Z</time></trkpt><trkpt lat="44.7661394" lon="9.3873034"><ele>280.3333333333333</ele><time>2026-04-19T08:19:40.765Z</time></trkpt><trkpt lat="44.7661365" lon="9.387175"><ele>280.66666666666663</ele><time>2026-04-19T08:19:41.763Z</time></trkpt><trkpt lat="44.7661298" lon="9.3870482"><ele>281.0</ele><time>2026-04-19T08:19:42.821Z</time></trkpt><trkpt lat="44.7661199" lon="9.386939"><ele>281.3333333333333</ele><time>2026-04-19T08:19:43.79Z</time></trkpt><trkpt lat="44.7661075" lon="9.3868357"><ele>281.6666666666667</ele><time>2026-04-19T08:19:44.827Z</time></trkpt><trkpt lat="44.7660803" lon="9.3867388"><ele>282.0</ele><time>2026-04-19T08:19:45.795Z</time></trkpt><trkpt lat="44.7660298" lon="9.3866493"><ele>279.6</ele><time>2026-04-19T08:19:46.844Z</time></trkpt><trkpt lat="44.7659675" lon="9.3865793"><ele>277.2</ele><time>2026-04-19T08:19:47.754Z</time></trkpt><trkpt lat="44.7658895" lon="9.3865145"><ele>274.8</ele><time>2026-04-19T08:19:48.764Z</time></trkpt><trkpt lat="44.765792" lon="9.3864648"><ele>272.4</ele><time>2026-04-19T08:19:49.848Z</time></trkpt><trkpt lat="44.7656953" lon="9.3864269"><ele>270.0</ele><time>2026-04-19T08:19:50.827Z</time></trkpt><trkpt lat="44.7656092" lon="9.3863976"><ele>270.0</ele><time>2026-04-19T08:19:51.76Z</time></trkpt><trkpt lat="44.765508" lon="9.3863668"><ele>270.0</ele><time>2026-04-19T08:19:52.797Z</time></trkpt><trkpt lat="44.7654136" lon="9.386332"><ele>270.0</ele><time>2026-04-19T08:19:53.789Z</time></trkpt><trkpt lat="44.76532" lon="9.386295"><ele>270.0</ele><time>2026-04-19T08:19:54.808Z</time></trkpt><trkpt lat="44.7652266" lon="9.3862641"><ele>270.0</ele><time>2026-04-19T08:19:55.823Z</time></trkpt><trkpt lat="44.7651315" lon="9.3862325"><ele>269.8333333333333</ele><time>2026-04-19T08:19:56.802Z</time></trkpt><trkpt lat="44.7650323" lon="9.3862032"><ele>269.6666666666667</ele><time>2026-04-19T08:19:57.812Z</time></trkpt><trkpt lat="44.7649411" lon="9.3861703"><ele>269.5</ele><time>2026-04-19T08:19:58.777Z</time></trkpt><trkpt lat="44.7648499" lon="9.3861347"><ele>269.33333333333337</ele><time>2026-04-19T08:19:59.846Z</time></trkpt><trkpt lat="44.7647745" lon="9.3861073"><ele>269.1666666666667</ele><time>2026-04-19T08:20:00.827Z</time></trkpt><trkpt lat="44.7647019" lon="9.3860844"><ele>269.0</ele><time>2026-04-19T08:20:01.789Z</time></trkpt><trkpt lat="44.7645816" lon="9.3860384"><ele>269.0</ele><time>2026-04-19T08:20:03.931Z</time></trkpt><trkpt lat="44.7644309" lon="9.385978"><ele>269.0</ele><time>2026-04-19T08:20:05.813Z</time></trkpt><trkpt lat="44.764341" lon="9.3859334"><ele>269.0</ele><time>2026-04-19T08:20:06.778Z</time></trkpt><trkpt lat="44.7642497" lon="9.385868"><ele>269.0</ele><time>2026-04-19T08:20:07.806Z</time></trkpt><trkpt lat="44.7641822" lon="9.385785"><ele>269.0</ele><time>2026-04-19T08:20:08.781Z</time></trkpt><trkpt lat="44.7641174" lon="9.3856937"><ele>268.5</ele><time>2026-04-19T08:20:09.762Z</time></trkpt><trkpt lat="44.7640559" lon="9.3855987"><ele>268.0</ele><time>2026-04-19T08:20:10.773Z</time></trkpt><trkpt lat="44.7640028" lon="9.3855053"><ele>267.5</ele><time>2026-04-19T08:20:11.776Z</time></trkpt><trkpt lat="44.763951" lon="9.3854078"><ele>267.0</ele><time>2026-04-19T08:20:12.803Z</time></trkpt><trkpt lat="44.7639023" lon="9.3853054"><ele>266.5</ele><time>2026-04-19T08:20:13.784Z</time></trkpt><trkpt lat="44.7638489" lon="9.3852024"><ele>266.0</ele><time>2026-04-19T08:20:14.762Z</time></trkpt><trkpt lat="44.7637925" lon="9.3850943"><ele>266.40000000000003</ele><time>2026-04-19T08:20:15.76Z</time></trkpt><trkpt lat="44.763735" lon="9.3849819"><ele>266.8</ele><time>2026-04-19T08:20:16.759Z</time></trkpt><trkpt lat="44.7636729" lon="9.3848583"><ele>267.20000000000005</ele><time>2026-04-19T08:20:17.807Z</time></trkpt><trkpt lat="44.7636117" lon="9.3847378"><ele>267.6</ele><time>2026-04-19T08:20:18.787Z</time></trkpt><trkpt lat="44.7635565" lon="9.3846224"><ele>268.0</ele><time>2026-04-19T08:20:19.774Z</time></trkpt><trkpt lat="44.7634977" lon="9.384498"><ele>268.0</ele><time>2026-04-19T08:20:20.808Z</time></trkpt><trkpt lat="44.7634438" lon="9.3843913"><ele>268.0</ele><time>2026-04-19T08:20:21.805Z</time></trkpt><trkpt lat="44.763393" lon="9.3842876"><ele>268.0</ele><time>2026-04-19T08:20:22.773Z</time></trkpt><trkpt lat="44.7633349" lon="9.384172"><ele>268.0</ele><time>2026-04-19T08:20:23.82Z</time></trkpt><trkpt lat="44.7632738" lon="9.3840542"><ele>268.0</ele><time>2026-04-19T08:20:24.823Z</time></trkpt><trkpt lat="44.7632155" lon="9.3839488"><ele>269.6</ele><time>2026-04-19T08:20:25.757Z</time></trkpt><trkpt lat="44.7631384" lon="9.3838348"><ele>271.20000000000005</ele><time>2026-04-19T08:20:26.792Z</time></trkpt><trkpt lat="44.7630486" lon="9.383722"><ele>272.8</ele><time>2026-04-19T08:20:27.9Z</time></trkpt><trkpt lat="44.762975" lon="9.3836311"><ele>274.40000000000003</ele><time>2026-04-19T08:20:28.817Z</time></trkpt><trkpt lat="44.7628874" lon="9.3835188"><ele>276.0</ele><time>2026-04-19T08:20:29.864Z</time></trkpt><trkpt lat="44.7627952" lon="9.3834194"><ele>272.75</ele><time>2026-04-19T08:20:30.847Z</time></trkpt><trkpt lat="44.7626974" lon="9.3833343"><ele>269.5</ele><time>2026-04-19T08:20:31.798Z</time></trkpt><trkpt lat="44.7625824" lon="9.3832474"><ele>266.25</ele><time>2026-04-19T08:20:32.878Z</time></trkpt><trkpt lat="44.7624786" lon="9.3831751"><ele>263.0</ele><time>2026-04-19T08:20:33.824Z</time></trkpt><trkpt lat="44.7623701" lon="9.3830992"><ele>263.0</ele><time>2026-04-19T08:20:34.819Z</time></trkpt><trkpt lat="44.7622663" lon="9.3830267"><ele>263.0</ele><time>2026-04-19T08:20:35.796Z</time></trkpt><trkpt lat="44.7621621" lon="9.3829533"><ele>263.0</ele><time>2026-04-19T08:20:36.802Z</time></trkpt><trkpt lat="44.7620618" lon="9.3828796"><ele>263.0</ele><time>2026-04-19T08:20:37.795Z</time></trkpt><trkpt lat="44.7619578" lon="9.382805"><ele>263.0</ele><time>2026-04-19T08:20:38.825Z</time></trkpt><trkpt lat="44.76187" lon="9.3827413"><ele>263.0</ele><time>2026-04-19T08:20:39.755Z</time></trkpt><trkpt lat="44.7617647" lon="9.3826711"><ele>263.0</ele><time>2026-04-19T08:20:40.882Z</time></trkpt><trkpt lat="44.7616787" lon="9.3826134"><ele>263.0</ele><time>2026-04-19T08:20:41.786Z</time></trkpt><trkpt lat="44.7615834" lon="9.3825484"><ele>263.0</ele><time>2026-04-19T08:20:42.789Z</time></trkpt><trkpt lat="44.7614945" lon="9.3824811"><ele>263.0</ele><time>2026-04-19T08:20:43.806Z</time></trkpt><trkpt lat="44.7613985" lon="9.3824156"><ele>263.0</ele><time>2026-04-19T08:20:44.818Z</time></trkpt><trkpt lat="44.7613078" lon="9.3823571"><ele>263.0</ele><time>2026-04-19T08:20:45.764Z</time></trkpt><trkpt lat="44.7612049" lon="9.3822891"><ele>263.0</ele><time>2026-04-19T08:20:46.817Z</time></trkpt><trkpt lat="44.7611062" lon="9.3822271"><ele>263.0</ele><time>2026-04-19T08:20:47.776Z</time></trkpt><trkpt lat="44.7609985" lon="9.3821511"><ele>264.25</ele><time>2026-04-19T08:20:48.777Z</time></trkpt><trkpt lat="44.7608862" lon="9.3820773"><ele>265.5</ele><time>2026-04-19T08:20:49.777Z</time></trkpt><trkpt lat="44.7607616" lon="9.3819866"><ele>266.75</ele><time>2026-04-19T08:20:50.775Z</time></trkpt><trkpt lat="44.7606324" lon="9.3818985"><ele>268.0</ele><time>2026-04-19T08:20:51.775Z</time></trkpt><trkpt lat="44.7605067" lon="9.3818213"><ele>268.0</ele><time>2026-04-19T08:20:52.801Z</time></trkpt><trkpt lat="44.760396" lon="9.3817599"><ele>268.0</ele><time>2026-04-19T08:20:53.79Z</time></trkpt><trkpt lat="44.7603005" lon="9.3817076"><ele>268.0</ele><time>2026-04-19T08:20:54.739Z</time></trkpt><trkpt lat="44.7601994" lon="9.3816343"><ele>268.0</ele><time>2026-04-19T08:20:55.909Z</time></trkpt><trkpt lat="44.7600077" lon="9.3815253"><ele>267.5</ele><time>2026-04-19T08:20:57.819Z</time></trkpt><trkpt lat="44.7598874" lon="9.3814806"><ele>267.0</ele><time>2026-04-19T08:20:58.833Z</time></trkpt><trkpt lat="44.759769" lon="9.3814465"><ele>266.5</ele><time>2026-04-19T08:20:59.813Z</time></trkpt><trkpt lat="44.7596547" lon="9.3814211"><ele>266.0</ele><time>2026-04-19T08:21:00.802Z</time></trkpt><trkpt lat="44.7595437" lon="9.3813856"><ele>266.0</ele><time>2026-04-19T08:21:01.824Z</time></trkpt><trkpt lat="44.7594418" lon="9.3813533"><ele>266.0</ele><time>2026-04-19T08:21:02.777Z</time></trkpt><trkpt lat="44.7593412" lon="9.3813254"><ele>266.0</ele><time>2026-04-19T08:21:03.79Z</time></trkpt><trkpt lat="44.7592433" lon="9.3812974"><ele>266.0</ele><time>2026-04-19T08:21:04.811Z</time></trkpt><trkpt lat="44.7591549" lon="9.3812715"><ele>266.0</ele><time>2026-04-19T08:21:05.768Z</time></trkpt><trkpt lat="44.7590487" lon="9.3812425"><ele>270.33333333333337</ele><time>2026-04-19T08:21:06.912Z</time></trkpt><trkpt lat="44.7588721" lon="9.3811842"><ele>274.6666666666667</ele><time>2026-04-19T08:21:08.802Z</time></trkpt><trkpt lat="44.7587701" lon="9.3811466"><ele>279.0</ele><time>2026-04-19T08:21:09.925Z</time></trkpt><trkpt lat="44.7585907" lon="9.3810885"><ele>278.75</ele><time>2026-04-19T08:21:11.784Z</time></trkpt><trkpt lat="44.7584931" lon="9.3810736"><ele>278.5</ele><time>2026-04-19T08:21:12.785Z</time></trkpt><trkpt lat="44.7583812" lon="9.3810578"><ele>278.25</ele><time>2026-04-19T08:21:13.895Z</time></trkpt><trkpt lat="44.7582121" lon="9.3810026"><ele>278.0</ele><time>2026-04-19T08:21:15.795Z</time></trkpt><trkpt lat="44.7581298" lon="9.3809516"><ele>278.0</ele><time>2026-04-19T08:21:16.85Z</time></trkpt><trkpt lat="44.758059" lon="9.3809117"><ele>278.0</ele><time>2026-04-19T08:21:17.756Z</time></trkpt><trkpt lat="44.757972" lon="9.3808878"><ele>278.0</ele><time>2026-04-19T08:21:18.757Z</time></trkpt><trkpt lat="44.7578765" lon="9.3808689"><ele>278.0</ele><time>2026-04-19T08:21:19.802Z</time></trkpt><trkpt lat="44.7577809" lon="9.3808424"><ele>278.0</ele><time>2026-04-19T08:21:20.791Z</time></trkpt><trkpt lat="44.7576721" lon="9.3808054"><ele>278.2</ele><time>2026-04-19T08:21:21.798Z</time></trkpt><trkpt lat="44.7575548" lon="9.3807505"><ele>278.4</ele><time>2026-04-19T08:21:22.864Z</time></trkpt><trkpt lat="44.7574621" lon="9.3806891"><ele>278.59999999999997</ele><time>2026-04-19T08:21:23.815Z</time></trkpt><trkpt lat="44.7573681" lon="9.3806171"><ele>278.8</ele><time>2026-04-19T08:21:24.866Z</time></trkpt><trkpt lat="44.7572908" lon="9.380558"><ele>279.0</ele><time>2026-04-19T08:21:25.812Z</time></trkpt><trkpt lat="44.7572034" lon="9.3804924"><ele>280.25</ele><time>2026-04-19T08:21:26.803Z</time></trkpt><trkpt lat="44.757119" lon="9.3804331"><ele>281.5</ele><time>2026-04-19T08:21:27.788Z</time></trkpt><trkpt lat="44.7570312" lon="9.3803686"><ele>282.75</ele><time>2026-04-19T08:21:28.774Z</time></trkpt><trkpt lat="44.7569193" lon="9.3802886"><ele>284.0</ele><time>2026-04-19T08:21:29.79Z</time></trkpt><trkpt lat="44.7568041" lon="9.3801997"><ele>284.0</ele><time>2026-04-19T08:21:30.777Z</time></trkpt><trkpt lat="44.7566773" lon="9.3801253"><ele>284.0</ele><time>2026-04-19T08:21:31.79Z</time></trkpt><trkpt lat="44.7565486" lon="9.3800526"><ele>284.0</ele><time>2026-04-19T08:21:32.781Z</time></trkpt><trkpt lat="44.756424" lon="9.3799821"><ele>284.0</ele><time>2026-04-19T08:21:33.776Z</time></trkpt><trkpt lat="44.756307" lon="9.3799048"><ele>284.0</ele><time>2026-04-19T08:21:34.788Z</time></trkpt><trkpt lat="44.7561897" lon="9.3798186"><ele>284.0</ele><time>2026-04-19T08:21:35.819Z</time></trkpt><trkpt lat="44.7560857" lon="9.3797272"><ele>284.0</ele><time>2026-04-19T08:21:36.79Z</time></trkpt><trkpt lat="44.7559797" lon="9.3796026"><ele>284.0</ele><time>2026-04-19T08:21:37.908Z</time></trkpt><trkpt lat="44.7558013" lon="9.3793248"><ele>284.0</ele><time>2026-04-19T08:21:39.856Z</time></trkpt><trkpt lat="44.7557089" lon="9.3792083"><ele>284.0</ele><time>2026-04-19T08:21:40.904Z</time></trkpt><trkpt lat="44.7556073" lon="9.3789812"><ele>284.0</ele><time>2026-04-19T08:21:42.797Z</time></trkpt><trkpt lat="44.7555841" lon="9.378827"><ele>284.0</ele><time>2026-04-19T08:21:43.803Z</time></trkpt><trkpt lat="44.755584" lon="9.3786546"><ele>284.5</ele><time>2026-04-19T08:21:44.85Z</time></trkpt><trkpt lat="44.755582" lon="9.3784914"><ele>285.0</ele><time>2026-04-19T08:21:45.79Z</time></trkpt><trkpt lat="44.7555693" lon="9.37832"><ele>285.5</ele><time>2026-04-19T08:21:46.797Z</time></trkpt><trkpt lat="44.7555348" lon="9.3781496"><ele>286.0</ele><time>2026-04-19T08:21:47.814Z</time></trkpt><trkpt lat="44.7554863" lon="9.3779991"><ele>287.0</ele><time>2026-04-19T08:21:48.766Z</time></trkpt><trkpt lat="44.7554239" lon="9.3778319"><ele>288.0</ele><time>2026-04-19T08:21:49.81Z</time></trkpt><trkpt lat="44.7553797" lon="9.3776753"><ele>289.0</ele><time>2026-04-19T08:21:50.794Z</time></trkpt><trkpt lat="44.7553418" lon="9.3775136"><ele>290.0</ele><time>2026-04-19T08:21:51.779Z</time></trkpt><trkpt lat="44.7553242" lon="9.3773072"><ele>291.4</ele><time>2026-04-19T08:21:52.957Z</time></trkpt><trkpt lat="44.7553257" lon="9.3770498"><ele>292.8</ele><time>2026-04-19T08:21:54.772Z</time></trkpt><trkpt lat="44.7553353" lon="9.3769229"><ele>294.2</ele><time>2026-04-19T08:21:55.799Z</time></trkpt><trkpt lat="44.7553471" lon="9.3768029"><ele>295.6</ele><time>2026-04-19T08:21:56.785Z</time></trkpt><trkpt lat="44.7553561" lon="9.3767003"><ele>297.0</ele><time>2026-04-19T08:21:57.803Z</time></trkpt><trkpt lat="44.7553346" lon="9.3766014"><ele>297.0</ele><time>2026-04-19T08:21:58.857Z</time></trkpt><trkpt lat="44.7552845" lon="9.3764906"><ele>297.0</ele><time>2026-04-19T08:21:59.903Z</time></trkpt><trkpt lat="44.7552101" lon="9.376422"><ele>297.0</ele><time>2026-04-19T08:22:00.821Z</time></trkpt><trkpt lat="44.7551278" lon="9.3763529"><ele>297.0</ele><time>2026-04-19T08:22:01.782Z</time></trkpt><trkpt lat="44.7550509" lon="9.3762689"><ele>297.0</ele><time>2026-04-19T08:22:02.804Z</time></trkpt><trkpt lat="44.7549883" lon="9.3762006"><ele>297.14285714285717</ele><time>2026-04-19T08:22:03.828Z</time></trkpt><trkpt lat="44.7549338" lon="9.3761559"><ele>297.28571428571433</ele><time>2026-04-19T08:22:04.764Z</time></trkpt><trkpt lat="44.7548688" lon="9.3761072"><ele>297.42857142857144</ele><time>2026-04-19T08:22:05.907Z</time></trkpt><trkpt lat="44.7548131" lon="9.3760622"><ele>297.57142857142856</ele><time>2026-04-19T08:22:06.822Z</time></trkpt><trkpt lat="44.7547471" lon="9.3760158"><ele>297.71428571428567</ele><time>2026-04-19T08:22:07.843Z</time></trkpt><trkpt lat="44.7546853" lon="9.3759758"><ele>297.85714285714283</ele><time>2026-04-19T08:22:08.796Z</time></trkpt><trkpt lat="44.7546248" lon="9.3759194"><ele>298.0</ele><time>2026-04-19T08:22:09.788Z</time></trkpt><trkpt lat="44.7545599" lon="9.3758617"><ele>298.0</ele><time>2026-04-19T08:22:10.852Z</time></trkpt><trkpt lat="44.7545068" lon="9.3758061"><ele>298.0</ele><time>2026-04-19T08:22:11.798Z</time></trkpt><trkpt lat="44.7544508" lon="9.3757453"><ele>298.0</ele><time>2026-04-19T08:22:12.801Z</time></trkpt><trkpt lat="44.7543604" lon="9.375633"><ele>298.0</ele><time>2026-04-19T08:22:14.803Z</time></trkpt><trkpt lat="44.7543083" lon="9.3755717"><ele>298.0</ele><time>2026-04-19T08:22:15.8Z</time></trkpt><trkpt lat="44.7542564" lon="9.3755102"><ele>298.0</ele><time>2026-04-19T08:22:16.825Z</time></trkpt><trkpt lat="44.7542087" lon="9.3754503"><ele>298.16666666666663</ele><time>2026-04-19T08:22:17.807Z</time></trkpt><trkpt lat="44.7541581" lon="9.3753917"><ele>298.3333333333333</ele><time>2026-04-19T08:22:18.79Z</time></trkpt><trkpt lat="44.7541021" lon="9.3753296"><ele>298.5</ele><time>2026-04-19T08:22:19.823Z</time></trkpt><trkpt lat="44.75405" lon="9.375272"><ele>298.6666666666667</ele><time>2026-04-19T08:22:20.812Z</time></trkpt><trkpt lat="44.753994" lon="9.3752168"><ele>298.83333333333337</ele><time>2026-04-19T08:22:21.778Z</time></trkpt><trkpt lat="44.7539301" lon="9.3751588"><ele>299.0</ele><time>2026-04-19T08:22:22.875Z</time></trkpt><trkpt lat="44.7538421" lon="9.3750712"><ele>299.0</ele><time>2026-04-19T08:22:24.813Z</time></trkpt><trkpt lat="44.7537835" lon="9.3750231"><ele>299.0</ele><time>2026-04-19T08:22:25.827Z</time></trkpt><trkpt lat="44.7537081" lon="9.3749671"><ele>299.0</ele><time>2026-04-19T08:22:26.789Z</time></trkpt><trkpt lat="44.7536185" lon="9.374891"><ele>299.0</ele><time>2026-04-19T08:22:27.81Z</time></trkpt><trkpt lat="44.7535255" lon="9.3748043"><ele>299.0</ele><time>2026-04-19T08:22:28.811Z</time></trkpt><trkpt lat="44.7534273" lon="9.3747095"><ele>299.5</ele><time>2026-04-19T08:22:29.784Z</time></trkpt><trkpt lat="44.7533202" lon="9.3745872"><ele>300.0</ele><time>2026-04-19T08:22:30.891Z</time></trkpt><trkpt lat="44.7532314" lon="9.3744782"><ele>300.5</ele><time>2026-04-19T08:22:31.8Z</time></trkpt><trkpt lat="44.7531384" lon="9.3743507"><ele>301.0</ele><time>2026-04-19T08:22:32.827Z</time></trkpt><trkpt lat="44.7530525" lon="9.374222"><ele>301.0</ele><time>2026-04-19T08:22:33.82Z</time></trkpt><trkpt lat="44.7529708" lon="9.3740948"><ele>301.0</ele><time>2026-04-19T08:22:34.82Z</time></trkpt><trkpt lat="44.7529011" lon="9.3739709"><ele>301.0</ele><time>2026-04-19T08:22:35.777Z</time></trkpt><trkpt lat="44.7528304" lon="9.3738384"><ele>301.0</ele><time>2026-04-19T08:22:36.803Z</time></trkpt><trkpt lat="44.7527569" lon="9.3737138"><ele>301.5</ele><time>2026-04-19T08:22:37.83Z</time></trkpt><trkpt lat="44.752671" lon="9.3736006"><ele>302.0</ele><time>2026-04-19T08:22:38.852Z</time></trkpt><trkpt lat="44.7525788" lon="9.3735071"><ele>302.5</ele><time>2026-04-19T08:22:39.816Z</time></trkpt><trkpt lat="44.752471" lon="9.3734279"><ele>303.0</ele><time>2026-04-19T08:22:40.821Z</time></trkpt><trkpt lat="44.7523618" lon="9.3733396"><ele>303.0</ele><time>2026-04-19T08:22:41.793Z</time></trkpt><trkpt lat="44.7522514" lon="9.3732329"><ele>303.0</ele><time>2026-04-19T08:22:42.781Z</time></trkpt><trkpt lat="44.752142" lon="9.3731216"><ele>303.0</ele><time>2026-04-19T08:22:43.848Z</time></trkpt><trkpt lat="44.7520531" lon="9.3730233"><ele>303.0</ele><time>2026-04-19T08:22:44.814Z</time></trkpt><trkpt lat="44.7519604" lon="9.3729104"><ele>301.0</ele><time>2026-04-19T08:22:45.772Z</time></trkpt><trkpt lat="44.751857" lon="9.3727687"><ele>299.0</ele><time>2026-04-19T08:22:46.781Z</time></trkpt><trkpt lat="44.7517641" lon="9.3726192"><ele>297.0</ele><time>2026-04-19T08:22:47.753Z</time></trkpt><trkpt lat="44.7516717" lon="9.3724601"><ele>295.0</ele><time>2026-04-19T08:22:48.8Z</time></trkpt><trkpt lat="44.7516112" lon="9.3723291"><ele>295.0</ele><time>2026-04-19T08:22:49.805Z</time></trkpt><trkpt lat="44.7515863" lon="9.3722214"><ele>295.0</ele><time>2026-04-19T08:22:50.799Z</time></trkpt><trkpt lat="44.7515917" lon="9.3721063"><ele>295.0</ele><time>2026-04-19T08:22:51.79Z</time></trkpt><trkpt lat="44.7516046" lon="9.3719493"><ele>295.0</ele><time>2026-04-19T08:22:52.836Z</time></trkpt><trkpt lat="44.7515966" lon="9.3718042"><ele>295.0</ele><time>2026-04-19T08:22:53.813Z</time></trkpt><trkpt lat="44.7515547" lon="9.3716624"><ele>297.4</ele><time>2026-04-19T08:22:54.816Z</time></trkpt><trkpt lat="44.7515036" lon="9.3715426"><ele>299.8</ele><time>2026-04-19T08:22:55.773Z</time></trkpt><trkpt lat="44.7514555" lon="9.3714455"><ele>302.2</ele><time>2026-04-19T08:22:56.77Z</time></trkpt><trkpt lat="44.7513902" lon="9.3713782"><ele>304.6</ele><time>2026-04-19T08:22:57.786Z</time></trkpt><trkpt lat="44.7512932" lon="9.37133"><ele>307.0</ele><time>2026-04-19T08:22:58.825Z</time></trkpt><trkpt lat="44.7511944" lon="9.3712762"><ele>306.8</ele><time>2026-04-19T08:22:59.774Z</time></trkpt><trkpt lat="44.7510858" lon="9.3711865"><ele>306.6</ele><time>2026-04-19T08:23:00.814Z</time></trkpt><trkpt lat="44.7510097" lon="9.3710787"><ele>306.40000000000003</ele><time>2026-04-19T08:23:01.823Z</time></trkpt><trkpt lat="44.7509488" lon="9.3709645"><ele>306.2</ele><time>2026-04-19T08:23:02.782Z</time></trkpt><trkpt lat="44.7508881" lon="9.3708931"><ele>306.0</ele><time>2026-04-19T08:23:03.854Z</time></trkpt><trkpt lat="44.7507598" lon="9.3709233"><ele>306.0</ele><time>2026-04-19T08:23:05.857Z</time></trkpt><trkpt lat="44.7506927" lon="9.3710051"><ele>306.0</ele><time>2026-04-19T08:23:06.789Z</time></trkpt><trkpt lat="44.7506448" lon="9.3711368"><ele>306.0</ele><time>2026-04-19T08:23:07.771Z</time></trkpt><trkpt lat="44.7506133" lon="9.3712546"><ele>306.0</ele><time>2026-04-19T08:23:08.749Z</time></trkpt><trkpt lat="44.7505959" lon="9.3713893"><ele>306.0</ele><time>2026-04-19T08:23:09.794Z</time></trkpt><trkpt lat="44.7505754" lon="9.3715202"><ele>305.2</ele><time>2026-04-19T08:23:10.83Z</time></trkpt><trkpt lat="44.7505606" lon="9.3716361"><ele>304.40000000000003</ele><time>2026-04-19T08:23:11.787Z</time></trkpt><trkpt lat="44.7505402" lon="9.3717538"><ele>303.6</ele><time>2026-04-19T08:23:12.808Z</time></trkpt><trkpt lat="44.7505242" lon="9.3718581"><ele>302.8</ele><time>2026-04-19T08:23:13.733Z</time></trkpt><trkpt lat="44.7505075" lon="9.3719846"><ele>302.0</ele><time>2026-04-19T08:23:14.891Z</time></trkpt><trkpt lat="44.7504737" lon="9.3722395"><ele>301.6</ele><time>2026-04-19T08:23:16.782Z</time></trkpt><trkpt lat="44.7504595" lon="9.3723945"><ele>301.2</ele><time>2026-04-19T08:23:17.804Z</time></trkpt><trkpt lat="44.7504516" lon="9.3725378"><ele>300.8</ele><time>2026-04-19T08:23:18.763Z</time></trkpt><trkpt lat="44.7504446" lon="9.3726588"><ele>300.4</ele><time>2026-04-19T08:23:19.785Z</time></trkpt><trkpt lat="44.750422" lon="9.3727737"><ele>300.0</ele><time>2026-04-19T08:23:20.822Z</time></trkpt><trkpt lat="44.7503926" lon="9.3728725"><ele>300.0</ele><time>2026-04-19T08:23:21.756Z</time></trkpt><trkpt lat="44.7503336" lon="9.3729611"><ele>300.0</ele><time>2026-04-19T08:23:22.775Z</time></trkpt><trkpt lat="44.7502448" lon="9.3730369"><ele>300.0</ele><time>2026-04-19T08:23:23.807Z</time></trkpt><trkpt lat="44.75017" lon="9.3730992"><ele>300.0</ele><time>2026-04-19T08:23:24.789Z</time></trkpt><trkpt lat="44.7501126" lon="9.3731364"><ele>300.0</ele><time>2026-04-19T08:23:25.773Z</time></trkpt><trkpt lat="44.7500197" lon="9.3730992"><ele>300.0</ele><time>2026-04-19T08:23:27.775Z</time></trkpt><trkpt lat="44.7500225" lon="9.372943"><ele>308.4</ele><time>2026-04-19T08:23:29.804Z</time></trkpt><trkpt lat="44.750039" lon="9.372809"><ele>316.8</ele><time>2026-04-19T08:23:30.796Z</time></trkpt><trkpt lat="44.7500438" lon="9.3726647"><ele>325.20000000000005</ele><time>2026-04-19T08:23:31.755Z</time></trkpt><trkpt lat="44.7500539" lon="9.372512"><ele>333.6</ele><time>2026-04-19T08:23:32.806Z</time></trkpt><trkpt lat="44.750061" lon="9.3723638"><ele>342.0</ele><time>2026-04-19T08:23:33.775Z</time></trkpt><trkpt lat="44.7500553" lon="9.3722314"><ele>343.6</ele><time>2026-04-19T08:23:34.778Z</time></trkpt><trkpt lat="44.750059" lon="9.3721208"><ele>345.20000000000005</ele><time>2026-04-19T08:23:35.767Z</time></trkpt><trkpt lat="44.7500741" lon="9.372007"><ele>346.8</ele><time>2026-04-19T08:23:36.771Z</time></trkpt><trkpt lat="44.7500908" lon="9.3718809"><ele>348.4</ele><time>2026-04-19T08:23:37.799Z</time></trkpt><trkpt lat="44.7500917" lon="9.3717364"><ele>350.0</ele><time>2026-04-19T08:23:38.849Z</time></trkpt><trkpt lat="44.7500863" lon="9.3715876"><ele>350.0</ele><time>2026-04-19T08:23:39.763Z</time></trkpt><trkpt lat="44.7500802" lon="9.3714003"><ele>350.0</ele><time>2026-04-19T08:23:40.778Z</time></trkpt><trkpt lat="44.7500709" lon="9.3712409"><ele>350.0</ele><time>2026-04-19T08:23:41.731Z</time></trkpt><trkpt lat="44.750049" lon="9.3710769"><ele>350.0</ele><time>2026-04-19T08:23:42.761Z</time></trkpt><trkpt lat="44.7500259" lon="9.3709234"><ele>350.0</ele><time>2026-04-19T08:23:43.786Z</time></trkpt><trkpt lat="44.75001" lon="9.3707813"><ele>350.0</ele><time>2026-04-19T08:23:44.78Z</time></trkpt><trkpt lat="44.7499875" lon="9.3706402"><ele>350.0</ele><time>2026-04-19T08:23:45.759Z</time></trkpt><trkpt lat="44.7499565" lon="9.3704878"><ele>350.0</ele><time>2026-04-19T08:23:46.79Z</time></trkpt><trkpt lat="44.7499241" lon="9.370345"><ele>350.0</ele><time>2026-04-19T08:23:47.869Z</time></trkpt><trkpt lat="44.7499033" lon="9.3702298"><ele>348.6</ele><time>2026-04-19T08:23:48.775Z</time></trkpt><trkpt lat="44.7498691" lon="9.3701003"><ele>347.2</ele><time>2026-04-19T08:23:49.766Z</time></trkpt><trkpt lat="44.7498123" lon="9.3699534"><ele>345.79999999999995</ele><time>2026-04-19T08:23:50.82Z</time></trkpt><trkpt lat="44.7497525" lon="9.3698191"><ele>344.4</ele><time>2026-04-19T08:23:51.787Z</time></trkpt><trkpt lat="44.7497065" lon="9.3696973"><ele>343.0</ele><time>2026-04-19T08:23:52.772Z</time></trkpt><trkpt lat="44.7496792" lon="9.3696011"><ele>343.0</ele><time>2026-04-19T08:23:53.788Z</time></trkpt><trkpt lat="44.7496397" lon="9.3694714"><ele>343.0</ele><time>2026-04-19T08:23:55.774Z</time></trkpt><trkpt lat="44.7495605" lon="9.3694615"><ele>343.0</ele><time>2026-04-19T08:23:57.823Z</time></trkpt><trkpt lat="44.7495205" lon="9.3696206"><ele>343.0</ele><time>2026-04-19T08:23:59.913Z</time></trkpt><trkpt lat="44.7495956" lon="9.3699133"><ele>343.0</ele><time>2026-04-19T08:24:01.788Z</time></trkpt><trkpt lat="44.7496215" lon="9.3700926"><ele>343.0</ele><time>2026-04-19T08:24:02.766Z</time></trkpt><trkpt lat="44.7496362" lon="9.3702904"><ele>343.0</ele><time>2026-04-19T08:24:03.754Z</time></trkpt><trkpt lat="44.7496418" lon="9.3704674"><ele>343.0</ele><time>2026-04-19T08:24:04.775Z</time></trkpt><trkpt lat="44.7496498" lon="9.3706293"><ele>344.75</ele><time>2026-04-19T08:24:05.8Z</time></trkpt><trkpt lat="44.7496545" lon="9.3707627"><ele>346.5</ele><time>2026-04-19T08:24:06.768Z</time></trkpt><trkpt lat="44.7496558" lon="9.3709101"><ele>348.25</ele><time>2026-04-19T08:24:07.885Z</time></trkpt><trkpt lat="44.7496411" lon="9.3711597"><ele>350.0</ele><time>2026-04-19T08:24:09.748Z</time></trkpt><trkpt lat="44.7496343" lon="9.3713005"><ele>350.0</ele><time>2026-04-19T08:24:10.748Z</time></trkpt><trkpt lat="44.7496169" lon="9.3714472"><ele>350.0</ele><time>2026-04-19T08:24:11.764Z</time></trkpt><trkpt lat="44.7495874" lon="9.3715768"><ele>350.0</ele><time>2026-04-19T08:24:12.806Z</time></trkpt><trkpt lat="44.7495546" lon="9.3716907"><ele>350.0</ele><time>2026-04-19T08:24:13.771Z</time></trkpt><trkpt lat="44.7495047" lon="9.3718175"><ele>350.0</ele><time>2026-04-19T08:24:14.827Z</time></trkpt><trkpt lat="44.7494592" lon="9.3719316"><ele>350.0</ele><time>2026-04-19T08:24:15.773Z</time></trkpt><trkpt lat="44.7494021" lon="9.3720508"><ele>350.0</ele><time>2026-04-19T08:24:16.792Z</time></trkpt><trkpt lat="44.7493463" lon="9.372167"><ele>350.0</ele><time>2026-04-19T08:24:17.83Z</time></trkpt><trkpt lat="44.7492977" lon="9.3722798"><ele>350.0</ele><time>2026-04-19T08:24:18.798Z</time></trkpt><trkpt lat="44.7492481" lon="9.3724104"><ele>350.0</ele><time>2026-04-19T08:24:19.817Z</time></trkpt><trkpt lat="44.7492167" lon="9.3725361"><ele>356.0</ele><time>2026-04-19T08:24:20.745Z</time></trkpt><trkpt lat="44.7491805" lon="9.3726702"><ele>362.0</ele><time>2026-04-19T08:24:21.759Z</time></trkpt><trkpt lat="44.7491368" lon="9.3728157"><ele>368.0</ele><time>2026-04-19T08:24:22.779Z</time></trkpt><trkpt lat="44.7490862" lon="9.3729631"><ele>374.0</ele><time>2026-04-19T08:24:23.813Z</time></trkpt><trkpt lat="44.7490341" lon="9.3731027"><ele>380.0</ele><time>2026-04-19T08:24:24.821Z</time></trkpt><trkpt lat="44.7489912" lon="9.3732277"><ele>380.0</ele><time>2026-04-19T08:24:25.76Z</time></trkpt><trkpt lat="44.7489406" lon="9.3733531"><ele>380.0</ele><time>2026-04-19T08:24:26.804Z</time></trkpt><trkpt lat="44.748904" lon="9.3734534"><ele>380.0</ele><time>2026-04-19T08:24:27.796Z</time></trkpt><trkpt lat="44.7488513" lon="9.3735391"><ele>380.0</ele><time>2026-04-19T08:24:28.774Z</time></trkpt><trkpt lat="44.7487766" lon="9.3736148"><ele>380.0</ele><time>2026-04-19T08:24:29.796Z</time></trkpt><trkpt lat="44.7486759" lon="9.3736766"><ele>380.0</ele><time>2026-04-19T08:24:30.812Z</time></trkpt><trkpt lat="44.7485847" lon="9.3737331"><ele>380.0</ele><time>2026-04-19T08:24:31.753Z</time></trkpt><trkpt lat="44.7484878" lon="9.3737823"><ele>380.0</ele><time>2026-04-19T08:24:32.775Z</time></trkpt><trkpt lat="44.7483835" lon="9.3738058"><ele>380.0</ele><time>2026-04-19T08:24:33.791Z</time></trkpt><trkpt lat="44.7482842" lon="9.3738015"><ele>380.0</ele><time>2026-04-19T08:24:34.781Z</time></trkpt><trkpt lat="44.7481794" lon="9.3737908"><ele>381.1666666666667</ele><time>2026-04-19T08:24:35.884Z</time></trkpt><trkpt lat="44.7481096" lon="9.3737779"><ele>382.33333333333337</ele><time>2026-04-19T08:24:36.806Z</time></trkpt><trkpt lat="44.7480382" lon="9.3738055"><ele>383.5</ele><time>2026-04-19T08:24:38.762Z</time></trkpt><trkpt lat="44.7479779" lon="9.3738401"><ele>384.6666666666667</ele><time>2026-04-19T08:24:41.748Z</time></trkpt><trkpt lat="44.7479159" lon="9.3739059"><ele>385.8333333333333</ele><time>2026-04-19T08:24:44.874Z</time></trkpt><trkpt lat="44.7478249" lon="9.3739568"><ele>387.0</ele><time>2026-04-19T08:24:46.969Z</time></trkpt><trkpt lat="44.7476881" lon="9.3739555"><ele>390.20000000000005</ele><time>2026-04-19T08:24:48.888Z</time></trkpt><trkpt lat="44.7475961" lon="9.3739043"><ele>393.4</ele><time>2026-04-19T08:24:49.884Z</time></trkpt><trkpt lat="44.7475157" lon="9.373856"><ele>396.6</ele><time>2026-04-19T08:24:50.793Z</time></trkpt><trkpt lat="44.7474231" lon="9.3738169"><ele>399.79999999999995</ele><time>2026-04-19T08:24:51.791Z</time></trkpt><trkpt lat="44.7473405" lon="9.3737959"><ele>403.0</ele><time>2026-04-19T08:24:52.799Z</time></trkpt><trkpt lat="44.7472512" lon="9.3737956"><ele>409.59999999999997</ele><time>2026-04-19T08:24:53.806Z</time></trkpt><trkpt lat="44.7471678" lon="9.3737803"><ele>416.2</ele><time>2026-04-19T08:24:54.806Z</time></trkpt><trkpt lat="44.7470894" lon="9.3737386"><ele>422.8</ele><time>2026-04-19T08:24:55.786Z</time></trkpt><trkpt lat="44.747019" lon="9.3736383"><ele>429.4</ele><time>2026-04-19T08:24:56.84Z</time></trkpt><trkpt lat="44.7469587" lon="9.3735307"><ele>436.0</ele><time>2026-04-19T08:24:57.911Z</time></trkpt><trkpt lat="44.7468416" lon="9.3734606"><ele>436.20000000000005</ele><time>2026-04-19T08:24:59.84Z</time></trkpt><trkpt lat="44.7467435" lon="9.3735071"><ele>436.40000000000003</ele><time>2026-04-19T08:25:00.76Z</time></trkpt><trkpt lat="44.746635" lon="9.3735279"><ele>436.6</ele><time>2026-04-19T08:25:01.77Z</time></trkpt><trkpt lat="44.7465309" lon="9.3735335"><ele>436.8</ele><time>2026-04-19T08:25:02.783Z</time></trkpt><trkpt lat="44.7464268" lon="9.3735137"><ele>437.0</ele><time>2026-04-19T08:25:03.823Z</time></trkpt><trkpt lat="44.7463235" lon="9.3734832"><ele>437.0</ele><time>2026-04-19T08:25:04.831Z</time></trkpt><trkpt lat="44.7462254" lon="9.3734529"><ele>437.00000000000006</ele><time>2026-04-19T08:25:05.858Z</time></trkpt><trkpt lat="44.7461433" lon="9.3734153"><ele>437.00000000000006</ele><time>2026-04-19T08:25:06.801Z</time></trkpt><trkpt lat="44.7460517" lon="9.3733783"><ele>437.0</ele><time>2026-04-19T08:25:07.812Z</time></trkpt><trkpt lat="44.7459643" lon="9.373359"><ele>437.0</ele><time>2026-04-19T08:25:08.797Z</time></trkpt><trkpt lat="44.7458759" lon="9.3733627"><ele>438.49999999999994</ele><time>2026-04-19T08:25:09.783Z</time></trkpt><trkpt lat="44.7457902" lon="9.3733772"><ele>440.0</ele><time>2026-04-19T08:25:10.768Z</time></trkpt><trkpt lat="44.745701" lon="9.3733922"><ele>441.5</ele><time>2026-04-19T08:25:11.785Z</time></trkpt><trkpt lat="44.7456162" lon="9.3734032"><ele>443.0</ele><time>2026-04-19T08:25:12.785Z</time></trkpt><trkpt lat="44.7455289" lon="9.3734001"><ele>444.49999999999994</ele><time>2026-04-19T08:25:13.823Z</time></trkpt><trkpt lat="44.7454444" lon="9.3733776"><ele>446.0</ele><time>2026-04-19T08:25:14.789Z</time></trkpt><trkpt lat="44.7453651" lon="9.3733393"><ele>445.99999999999994</ele><time>2026-04-19T08:25:15.773Z</time></trkpt><trkpt lat="44.7452646" lon="9.3732936"><ele>446.0</ele><time>2026-04-19T08:25:16.791Z</time></trkpt><trkpt lat="44.7451749" lon="9.3732673"><ele>446.0</ele><time>2026-04-19T08:25:17.774Z</time></trkpt><trkpt lat="44.745084" lon="9.3732561"><ele>446.0</ele><time>2026-04-19T08:25:18.894Z</time></trkpt><trkpt lat="44.7450242" lon="9.3732266"><ele>445.99999999999994</ele><time>2026-04-19T08:25:19.795Z</time></trkpt><trkpt lat="44.7449766" lon="9.3731601"><ele>446.0</ele><time>2026-04-19T08:25:20.753Z</time></trkpt><trkpt lat="44.7449329" lon="9.3730584"><ele>452.75</ele><time>2026-04-19T08:25:21.752Z</time></trkpt><trkpt lat="44.7448845" lon="9.3729123"><ele>459.5</ele><time>2026-04-19T08:25:22.899Z</time></trkpt><trkpt lat="44.7448171" lon="9.3726365"><ele>466.25</ele><time>2026-04-19T08:25:24.82Z</time></trkpt><trkpt lat="44.7447771" lon="9.3725263"><ele>473.0</ele><time>2026-04-19T08:25:25.773Z</time></trkpt><trkpt lat="44.744701" lon="9.3724419"><ele>473.0</ele><time>2026-04-19T08:25:26.793Z</time></trkpt><trkpt lat="44.7446021" lon="9.3723701"><ele>473.0</ele><time>2026-04-19T08:25:27.794Z</time></trkpt><trkpt lat="44.7444988" lon="9.3723134"><ele>473.0</ele><time>2026-04-19T08:25:28.761Z</time></trkpt><trkpt lat="44.7443854" lon="9.3722548"><ele>473.0</ele><time>2026-04-19T08:25:29.913Z</time></trkpt><trkpt lat="44.7442115" lon="9.3722287"><ele>474.75</ele><time>2026-04-19T08:25:31.747Z</time></trkpt><trkpt lat="44.7441399" lon="9.3722735"><ele>476.5</ele><time>2026-04-19T08:25:32.818Z</time></trkpt><trkpt lat="44.7440507" lon="9.3724294"><ele>478.25</ele><time>2026-04-19T08:25:33.784Z</time></trkpt><trkpt lat="44.7439996" lon="9.3726028"><ele>480.0</ele><time>2026-04-19T08:25:34.782Z</time></trkpt><trkpt lat="44.7439569" lon="9.3727842"><ele>480.0</ele><time>2026-04-19T08:25:35.8Z</time></trkpt><trkpt lat="44.7439282" lon="9.3729463"><ele>480.0</ele><time>2026-04-19T08:25:36.746Z</time></trkpt><trkpt lat="44.7439076" lon="9.3730788"><ele>480.0</ele><time>2026-04-19T08:25:37.723Z</time></trkpt><trkpt lat="44.7438896" lon="9.3731887"><ele>480.0</ele><time>2026-04-19T08:25:38.763Z</time></trkpt><trkpt lat="44.7438036" lon="9.3732967"><ele>480.0</ele><time>2026-04-19T08:25:40.813Z</time></trkpt><trkpt lat="44.7436979" lon="9.373314"><ele>479.75</ele><time>2026-04-19T08:25:41.804Z</time></trkpt><trkpt lat="44.7435838" lon="9.3733097"><ele>479.5</ele><time>2026-04-19T08:25:42.756Z</time></trkpt><trkpt lat="44.7434512" lon="9.3732725"><ele>479.25</ele><time>2026-04-19T08:25:43.801Z</time></trkpt><trkpt lat="44.7433482" lon="9.3732474"><ele>479.0</ele><time>2026-04-19T08:25:44.787Z</time></trkpt><trkpt lat="44.743243" lon="9.373238"><ele>479.0</ele><time>2026-04-19T08:25:45.8Z</time></trkpt><trkpt lat="44.743112" lon="9.3732254"><ele>479.0</ele><time>2026-04-19T08:25:47.067Z</time></trkpt><trkpt lat="44.7430234" lon="9.3732494"><ele>479.0</ele><time>2026-04-19T08:25:47.799Z</time></trkpt><trkpt lat="44.7429024" lon="9.3732773"><ele>479.0</ele><time>2026-04-19T08:25:48.827Z</time></trkpt><trkpt lat="44.7427886" lon="9.3732811"><ele>480.3333333333333</ele><time>2026-04-19T08:25:49.813Z</time></trkpt><trkpt lat="44.7426844" lon="9.3732549"><ele>481.66666666666663</ele><time>2026-04-19T08:25:50.793Z</time></trkpt><trkpt lat="44.7425864" lon="9.3732309"><ele>483.0</ele><time>2026-04-19T08:25:51.802Z</time></trkpt><trkpt lat="44.7425197" lon="9.3732267"><ele>484.33333333333337</ele><time>2026-04-19T08:25:52.804Z</time></trkpt><trkpt lat="44.7424183" lon="9.3732658"><ele>485.6666666666667</ele><time>2026-04-19T08:25:54.895Z</time></trkpt><trkpt lat="44.7423889" lon="9.3731862"><ele>487.0</ele><time>2026-04-19T08:25:56.79Z</time></trkpt><trkpt lat="44.7424732" lon="9.373096"><ele>487.0</ele><time>2026-04-19T08:25:58.785Z</time></trkpt><trkpt lat="44.7425698" lon="9.3730858"><ele>487.00000000000006</ele><time>2026-04-19T08:25:59.791Z</time></trkpt><trkpt lat="44.742684" lon="9.3730924"><ele>487.00000000000006</ele><time>2026-04-19T08:26:00.829Z</time></trkpt><trkpt lat="44.7427736" lon="9.3730807"><ele>487.0</ele><time>2026-04-19T08:26:01.767Z</time></trkpt><trkpt lat="44.7428579" lon="9.3730533"><ele>487.0</ele><time>2026-04-19T08:26:02.746Z</time></trkpt><trkpt lat="44.742931" lon="9.3729963"><ele>490.6666666666667</ele><time>2026-04-19T08:26:03.764Z</time></trkpt><trkpt lat="44.7430005" lon="9.3729152"><ele>494.33333333333337</ele><time>2026-04-19T08:26:04.756Z</time></trkpt><trkpt lat="44.7430723" lon="9.37283"><ele>498.0</ele><time>2026-04-19T08:26:05.814Z</time></trkpt><trkpt lat="44.7431372" lon="9.3727614"><ele>501.66666666666663</ele><time>2026-04-19T08:26:06.791Z</time></trkpt><trkpt lat="44.7432032" lon="9.3727101"><ele>505.3333333333333</ele><time>2026-04-19T08:26:07.813Z</time></trkpt><trkpt lat="44.7432707" lon="9.3726592"><ele>509.0</ele><time>2026-04-19T08:26:08.8Z</time></trkpt><trkpt lat="44.7433283" lon="9.3725781"><ele>509.0</ele><time>2026-04-19T08:26:09.799Z</time></trkpt><trkpt lat="44.7433626" lon="9.3724656"><ele>509.0</ele><time>2026-04-19T08:26:10.875Z</time></trkpt><trkpt lat="44.7433887" lon="9.3722083"><ele>509.0</ele><time>2026-04-19T08:26:12.795Z</time></trkpt><trkpt lat="44.7434325" lon="9.3720851"><ele>509.0</ele><time>2026-04-19T08:26:13.769Z</time></trkpt><trkpt lat="44.7434941" lon="9.3719686"><ele>509.75</ele><time>2026-04-19T08:26:14.758Z</time></trkpt><trkpt lat="44.7435759" lon="9.371846"><ele>510.5</ele><time>2026-04-19T08:26:15.82Z</time></trkpt><trkpt lat="44.7436526" lon="9.3717344"><ele>511.25</ele><time>2026-04-19T08:26:16.782Z</time></trkpt><trkpt lat="44.7437465" lon="9.3716236"><ele>512.0</ele><time>2026-04-19T08:26:17.911Z</time></trkpt><trkpt lat="44.7439098" lon="9.3714723"><ele>512.0</ele><time>2026-04-19T08:26:19.809Z</time></trkpt><trkpt lat="44.7439945" lon="9.3713934"><ele>512.0</ele><time>2026-04-19T08:26:20.812Z</time></trkpt><trkpt lat="44.744076" lon="9.3713051"><ele>512.0</ele><time>2026-04-19T08:26:21.803Z</time></trkpt><trkpt lat="44.7441495" lon="9.3712039"><ele>512.0</ele><time>2026-04-19T08:26:22.781Z</time></trkpt><trkpt lat="44.7442255" lon="9.3711197"><ele>512.0</ele><time>2026-04-19T08:26:23.77Z</time></trkpt><trkpt lat="44.7443216" lon="9.3710551"><ele>516.6</ele><time>2026-04-19T08:26:24.803Z</time></trkpt><trkpt lat="44.7444224" lon="9.3710366"><ele>521.2</ele><time>2026-04-19T08:26:25.79Z</time></trkpt><trkpt lat="44.7445315" lon="9.3710504"><ele>525.8</ele><time>2026-04-19T08:26:26.806Z</time></trkpt><trkpt lat="44.7446417" lon="9.3710636"><ele>530.4</ele><time>2026-04-19T08:26:27.879Z</time></trkpt><trkpt lat="44.7447264" lon="9.37106"><ele>535.0</ele><time>2026-04-19T08:26:28.897Z</time></trkpt><trkpt lat="44.7448326" lon="9.3709943"><ele>535.0</ele><time>2026-04-19T08:26:30.771Z</time></trkpt><trkpt lat="44.7448391" lon="9.3708178"><ele>535.0</ele><time>2026-04-19T08:26:32.782Z</time></trkpt><trkpt lat="44.7448042" lon="9.3706933"><ele>535.0</ele><time>2026-04-19T08:26:33.823Z</time></trkpt><trkpt lat="44.7447744" lon="9.3705784"><ele>535.0</ele><time>2026-04-19T08:26:34.774Z</time></trkpt><trkpt lat="44.7447179" lon="9.3704931"><ele>535.0</ele><time>2026-04-19T08:26:35.787Z</time></trkpt><trkpt lat="44.7446637" lon="9.3704423"><ele>535.0</ele><time>2026-04-19T08:26:36.783Z</time></trkpt><trkpt lat="44.744581" lon="9.3704367"><ele>535.0</ele><time>2026-04-19T08:26:37.764Z</time></trkpt><trkpt lat="44.7444849" lon="9.3704498"><ele>535.0</ele><time>2026-04-19T08:26:38.873Z</time></trkpt><trkpt lat="44.7443966" lon="9.3704992"><ele>535.0</ele><time>2026-04-19T08:26:39.802Z</time></trkpt><trkpt lat="44.7442904" lon="9.3705593"><ele>535.0</ele><time>2026-04-19T08:26:40.8Z</time></trkpt><trkpt lat="44.7441697" lon="9.3706229"><ele>535.0</ele><time>2026-04-19T08:26:41.839Z</time></trkpt><trkpt lat="44.744061" lon="9.3706707"><ele>535.0</ele><time>2026-04-19T08:26:42.79Z</time></trkpt><trkpt lat="44.7439447" lon="9.3707181"><ele>535.0</ele><time>2026-04-19T08:26:43.897Z</time></trkpt><trkpt lat="44.7437333" lon="9.3707893"><ele>535.0</ele><time>2026-04-19T08:26:45.792Z</time></trkpt><trkpt lat="44.7436306" lon="9.370828"><ele>535.0</ele><time>2026-04-19T08:26:46.797Z</time></trkpt><trkpt lat="44.7435279" lon="9.3708707"><ele>535.0</ele><time>2026-04-19T08:26:47.828Z</time></trkpt><trkpt lat="44.7434376" lon="9.3709107"><ele>535.0</ele><time>2026-04-19T08:26:48.804Z</time></trkpt><trkpt lat="44.743346" lon="9.3709541"><ele>535.0</ele><time>2026-04-19T08:26:49.802Z</time></trkpt><trkpt lat="44.7432546" lon="9.3709975"><ele>536.1666666666667</ele><time>2026-04-19T08:26:50.813Z</time></trkpt><trkpt lat="44.743166" lon="9.3710469"><ele>537.3333333333334</ele><time>2026-04-19T08:26:51.772Z</time></trkpt><trkpt lat="44.7430815" lon="9.3710903"><ele>538.5</ele><time>2026-04-19T08:26:52.805Z</time></trkpt><trkpt lat="44.7430104" lon="9.3711139"><ele>539.6666666666666</ele><time>2026-04-19T08:26:53.793Z</time></trkpt><trkpt lat="44.7429457" lon="9.3710981"><ele>540.8333333333333</ele><time>2026-04-19T08:26:54.791Z</time></trkpt><trkpt lat="44.7428871" lon="9.3710526"><ele>542.0</ele><time>2026-04-19T08:26:55.819Z</time></trkpt><trkpt lat="44.7428446" lon="9.3709722"><ele>542.0</ele><time>2026-04-19T08:26:56.807Z</time></trkpt><trkpt lat="44.7428127" lon="9.3708733"><ele>542.0</ele><time>2026-04-19T08:26:57.785Z</time></trkpt><trkpt lat="44.742772" lon="9.3707432"><ele>542.0</ele><time>2026-04-19T08:26:59.011Z</time></trkpt><trkpt lat="44.7426672" lon="9.3705986"><ele>542.0</ele><time>2026-04-19T08:27:00.805Z</time></trkpt><trkpt lat="44.7425985" lon="9.3705278"><ele>542.0</ele><time>2026-04-19T08:27:01.795Z</time></trkpt><trkpt lat="44.7425267" lon="9.3704462"><ele>541.6</ele><time>2026-04-19T08:27:02.836Z</time></trkpt><trkpt lat="44.7424576" lon="9.3703899"><ele>541.2</ele><time>2026-04-19T08:27:03.817Z</time></trkpt><trkpt lat="44.7423768" lon="9.3703635"><ele>540.8</ele><time>2026-04-19T08:27:04.844Z</time></trkpt><trkpt lat="44.7422901" lon="9.3703778"><ele>540.4</ele><time>2026-04-19T08:27:05.791Z</time></trkpt><trkpt lat="44.7421661" lon="9.3704259"><ele>540.0</ele><time>2026-04-19T08:27:06.859Z</time></trkpt><trkpt lat="44.7420431" lon="9.3704801"><ele>543.5</ele><time>2026-04-19T08:27:07.831Z</time></trkpt><trkpt lat="44.7419161" lon="9.3705314"><ele>547.0</ele><time>2026-04-19T08:27:08.825Z</time></trkpt><trkpt lat="44.7418023" lon="9.3705757"><ele>550.5</ele><time>2026-04-19T08:27:09.822Z</time></trkpt><trkpt lat="44.7416953" lon="9.3706108"><ele>554.0</ele><time>2026-04-19T08:27:10.796Z</time></trkpt><trkpt lat="44.7415717" lon="9.3706445"><ele>554.0</ele><time>2026-04-19T08:27:11.919Z</time></trkpt><trkpt lat="44.7413705" lon="9.3706866"><ele>554.0</ele><time>2026-04-19T08:27:13.777Z</time></trkpt><trkpt lat="44.7412605" lon="9.370697"><ele>554.0</ele><time>2026-04-19T08:27:14.819Z</time></trkpt><trkpt lat="44.7411516" lon="9.3707038"><ele>554.0</ele><time>2026-04-19T08:27:15.83Z</time></trkpt><trkpt lat="44.7410499" lon="9.3707087"><ele>554.2</ele><time>2026-04-19T08:27:16.81Z</time></trkpt><trkpt lat="44.7409463" lon="9.3707054"><ele>554.4</ele><time>2026-04-19T08:27:17.832Z</time></trkpt><trkpt lat="44.7408474" lon="9.3707038"><ele>554.6</ele><time>2026-04-19T08:27:18.813Z</time></trkpt><trkpt lat="44.74074" lon="9.3707149"><ele>554.8</ele><time>2026-04-19T08:27:19.817Z</time></trkpt><trkpt lat="44.7406244" lon="9.3707407"><ele>555.0</ele><time>2026-04-19T08:27:20.884Z</time></trkpt><trkpt lat="44.7405167" lon="9.3707838"><ele>555.0</ele><time>2026-04-19T08:27:21.827Z</time></trkpt><trkpt lat="44.7404093" lon="9.3708285"><ele>555.0</ele><time>2026-04-19T08:27:22.841Z</time></trkpt><trkpt lat="44.740313" lon="9.3708489"><ele>555.0</ele><time>2026-04-19T08:27:23.83Z</time></trkpt><trkpt lat="44.7402263" lon="9.3708506"><ele>555.0</ele><time>2026-04-19T08:27:24.879Z</time></trkpt><trkpt lat="44.7401498" lon="9.3708214"><ele>555.0</ele><time>2026-04-19T08:27:25.793Z</time></trkpt><trkpt lat="44.7400651" lon="9.3707599"><ele>557.2</ele><time>2026-04-19T08:27:26.785Z</time></trkpt><trkpt lat="44.7399927" lon="9.370674"><ele>559.4</ele><time>2026-04-19T08:27:27.776Z</time></trkpt><trkpt lat="44.7399155" lon="9.3705926"><ele>561.6</ele><time>2026-04-19T08:27:28.776Z</time></trkpt><trkpt lat="44.7398366" lon="9.3705191"><ele>563.8</ele><time>2026-04-19T08:27:29.803Z</time></trkpt><trkpt lat="44.7397667" lon="9.3704384"><ele>566.0</ele><time>2026-04-19T08:27:30.79Z</time></trkpt><trkpt lat="44.7397143" lon="9.3703446"><ele>566.2</ele><time>2026-04-19T08:27:31.785Z</time></trkpt><trkpt lat="44.7396768" lon="9.3702478"><ele>566.4000000000001</ele><time>2026-04-19T08:27:32.815Z</time></trkpt><trkpt lat="44.7396401" lon="9.3701029"><ele>566.6</ele><time>2026-04-19T08:27:34.772Z</time></trkpt><trkpt lat="44.7395503" lon="9.3701145"><ele>566.8000000000001</ele><time>2026-04-19T08:27:36.826Z</time></trkpt><trkpt lat="44.7394612" lon="9.3702021"><ele>567.0</ele><time>2026-04-19T08:27:37.813Z</time></trkpt><trkpt lat="44.7393651" lon="9.3702867"><ele>571.4</ele><time>2026-04-19T08:27:38.792Z</time></trkpt><trkpt lat="44.7392572" lon="9.370363"><ele>575.8000000000001</ele><time>2026-04-19T08:27:39.777Z</time></trkpt><trkpt lat="44.7391639" lon="9.3704441"><ele>580.2</ele><time>2026-04-19T08:27:40.772Z</time></trkpt><trkpt lat="44.7390883" lon="9.3705269"><ele>584.6</ele><time>2026-04-19T08:27:41.767Z</time></trkpt><trkpt lat="44.7390253" lon="9.3706271"><ele>589.0</ele><time>2026-04-19T08:27:42.798Z</time></trkpt><trkpt lat="44.7389737" lon="9.3707671"><ele>589.0</ele><time>2026-04-19T08:27:43.903Z</time></trkpt><trkpt lat="44.7389936" lon="9.3710571"><ele>589.0</ele><time>2026-04-19T08:27:45.807Z</time></trkpt><trkpt lat="44.7390265" lon="9.3712042"><ele>589.0</ele><time>2026-04-19T08:27:46.804Z</time></trkpt><trkpt lat="44.7390588" lon="9.3713505"><ele>589.0</ele><time>2026-04-19T08:27:47.797Z</time></trkpt><trkpt lat="44.7390777" lon="9.3714759"><ele>588.2</ele><time>2026-04-19T08:27:48.771Z</time></trkpt><trkpt lat="44.7390855" lon="9.3716037"><ele>587.4</ele><time>2026-04-19T08:27:49.775Z</time></trkpt><trkpt lat="44.7390682" lon="9.3716935"><ele>586.6</ele><time>2026-04-19T08:27:50.72Z</time></trkpt><trkpt lat="44.7389875" lon="9.3717967"><ele>585.8</ele><time>2026-04-19T08:27:52.757Z</time></trkpt><trkpt lat="44.7388979" lon="9.3718137"><ele>585.0</ele><time>2026-04-19T08:27:53.915Z</time></trkpt><trkpt lat="44.73872" lon="9.3717892"><ele>585.0</ele><time>2026-04-19T08:27:55.781Z</time></trkpt><trkpt lat="44.7386152" lon="9.3717977"><ele>585.0</ele><time>2026-04-19T08:27:56.762Z</time></trkpt><trkpt lat="44.7385108" lon="9.371833"><ele>585.0</ele><time>2026-04-19T08:27:57.787Z</time></trkpt><trkpt lat="44.7384167" lon="9.371871"><ele>585.0</ele><time>2026-04-19T08:27:58.755Z</time></trkpt><trkpt lat="44.7383296" lon="9.371943"><ele>585.0</ele><time>2026-04-19T08:27:59.78Z</time></trkpt><trkpt lat="44.7382457" lon="9.3720084"><ele>584.0</ele><time>2026-04-19T08:28:00.777Z</time></trkpt><trkpt lat="44.7381608" lon="9.3720433"><ele>583.0</ele><time>2026-04-19T08:28:01.753Z</time></trkpt><trkpt lat="44.7380697" lon="9.3720395"><ele>582.0</ele><time>2026-04-19T08:28:02.764Z</time></trkpt><trkpt lat="44.7379669" lon="9.3720467"><ele>581.0</ele><time>2026-04-19T08:28:03.781Z</time></trkpt><trkpt lat="44.737883" lon="9.372097"><ele>580.0</ele><time>2026-04-19T08:28:04.795Z</time></trkpt><trkpt lat="44.737796" lon="9.3721962"><ele>580.0</ele><time>2026-04-19T08:28:05.808Z</time></trkpt><trkpt lat="44.7377246" lon="9.3723034"><ele>580.0</ele><time>2026-04-19T08:28:06.753Z</time></trkpt><trkpt lat="44.7376518" lon="9.3724"><ele>580.0</ele><time>2026-04-19T08:28:07.791Z</time></trkpt><trkpt lat="44.7375673" lon="9.3724596"><ele>580.0</ele><time>2026-04-19T08:28:08.792Z</time></trkpt><trkpt lat="44.7374687" lon="9.3724604"><ele>580.0</ele><time>2026-04-19T08:28:09.777Z</time></trkpt><trkpt lat="44.73737" lon="9.3724274"><ele>585.3333333333334</ele><time>2026-04-19T08:28:10.829Z</time></trkpt><trkpt lat="44.7372889" lon="9.3723996"><ele>590.6666666666667</ele><time>2026-04-19T08:28:11.767Z</time></trkpt><trkpt lat="44.7372133" lon="9.3723963"><ele>596.0</ele><time>2026-04-19T08:28:12.788Z</time></trkpt><trkpt lat="44.7371551" lon="9.3724431"><ele>601.3333333333334</ele><time>2026-04-19T08:28:13.758Z</time></trkpt><trkpt lat="44.73712" lon="9.3725667"><ele>606.6666666666666</ele><time>2026-04-19T08:28:14.763Z</time></trkpt><trkpt lat="44.7371028" lon="9.3726923"><ele>612.0</ele><time>2026-04-19T08:28:15.767Z</time></trkpt><trkpt lat="44.7371145" lon="9.3728183"><ele>612.0</ele><time>2026-04-19T08:28:16.714Z</time></trkpt><trkpt lat="44.7371301" lon="9.3729788"><ele>612.0</ele><time>2026-04-19T08:28:17.902Z</time></trkpt><trkpt lat="44.7370973" lon="9.3732736"><ele>612.0</ele><time>2026-04-19T08:28:19.852Z</time></trkpt><trkpt lat="44.7370737" lon="9.3734251"><ele>612.0</ele><time>2026-04-19T08:28:20.841Z</time></trkpt><trkpt lat="44.7370618" lon="9.3735673"><ele>612.4</ele><time>2026-04-19T08:28:21.785Z</time></trkpt><trkpt lat="44.7370408" lon="9.3736965"><ele>612.8000000000001</ele><time>2026-04-19T08:28:22.774Z</time></trkpt><trkpt lat="44.7370014" lon="9.3738136"><ele>613.2</ele><time>2026-04-19T08:28:23.884Z</time></trkpt><trkpt lat="44.736924" lon="9.373946"><ele>613.6</ele><time>2026-04-19T08:28:25.794Z</time></trkpt><trkpt lat="44.7368513" lon="9.3739941"><ele>614.0</ele><time>2026-04-19T08:28:26.767Z</time></trkpt><trkpt lat="44.7367554" lon="9.3740457"><ele>614.0</ele><time>2026-04-19T08:28:27.82Z</time></trkpt><trkpt lat="44.7366341" lon="9.3740736"><ele>614.0</ele><time>2026-04-19T08:28:28.84Z</time></trkpt><trkpt lat="44.7365616" lon="9.3741149"><ele>614.0</ele><time>2026-04-19T08:28:29.841Z</time></trkpt><trkpt lat="44.7364791" lon="9.374146"><ele>614.0</ele><time>2026-04-19T08:28:30.758Z</time></trkpt><trkpt lat="44.7363871" lon="9.3741765"><ele>614.0</ele><time>2026-04-19T08:28:31.783Z</time></trkpt><trkpt lat="44.7362974" lon="9.3741786"><ele>614.0</ele><time>2026-04-19T08:28:32.765Z</time></trkpt><trkpt lat="44.736206" lon="9.3741473"><ele>614.0</ele><time>2026-04-19T08:28:33.78Z</time></trkpt><trkpt lat="44.7361198" lon="9.3740758"><ele>614.0</ele><time>2026-04-19T08:28:34.817Z</time></trkpt><trkpt lat="44.7360363" lon="9.3739936"><ele>614.0</ele><time>2026-04-19T08:28:35.832Z</time></trkpt><trkpt lat="44.7359779" lon="9.3738971"><ele>614.0</ele><time>2026-04-19T08:28:36.762Z</time></trkpt><trkpt lat="44.7359185" lon="9.3737856"><ele>621.6</ele><time>2026-04-19T08:28:37.788Z</time></trkpt><trkpt lat="44.7358534" lon="9.3736896"><ele>629.2</ele><time>2026-04-19T08:28:38.836Z</time></trkpt><trkpt lat="44.7357752" lon="9.3736422"><ele>636.8000000000001</ele><time>2026-04-19T08:28:39.782Z</time></trkpt><trkpt lat="44.7356643" lon="9.37366"><ele>644.4</ele><time>2026-04-19T08:28:40.877Z</time></trkpt><trkpt lat="44.7355602" lon="9.3736575"><ele>652.0</ele><time>2026-04-19T08:28:41.8Z</time></trkpt><trkpt lat="44.7354553" lon="9.3736379"><ele>652.0</ele><time>2026-04-19T08:28:42.758Z</time></trkpt><trkpt lat="44.7353417" lon="9.3736408"><ele>652.0</ele><time>2026-04-19T08:28:43.754Z</time></trkpt><trkpt lat="44.7352302" lon="9.3736864"><ele>652.0</ele><time>2026-04-19T08:28:44.779Z</time></trkpt><trkpt lat="44.7351274" lon="9.3737536"><ele>652.0</ele><time>2026-04-19T08:28:45.744Z</time></trkpt><trkpt lat="44.7350437" lon="9.3738513"><ele>648.0</ele><time>2026-04-19T08:28:46.799Z</time></trkpt><trkpt lat="44.7349944" lon="9.3739563"><ele>644.0</ele><time>2026-04-19T08:28:47.79Z</time></trkpt><trkpt lat="44.734943" lon="9.3740377"><ele>640.0</ele><time>2026-04-19T08:28:48.811Z</time></trkpt><trkpt lat="44.7347923" lon="9.3740729"><ele>636.0</ele><time>2026-04-19T08:28:50.812Z</time></trkpt><trkpt lat="44.7347173" lon="9.3741038"><ele>632.0</ele><time>2026-04-19T08:28:51.754Z</time></trkpt><trkpt lat="44.7346654" lon="9.3741958"><ele>632.0</ele><time>2026-04-19T08:28:52.831Z</time></trkpt><trkpt lat="44.7346329" lon="9.3743309"><ele>632.0</ele><time>2026-04-19T08:28:53.778Z</time></trkpt><trkpt lat="44.7346116" lon="9.3744855"><ele>632.0</ele><time>2026-04-19T08:28:54.757Z</time></trkpt><trkpt lat="44.7346012" lon="9.3746254"><ele>632.0</ele><time>2026-04-19T08:28:55.76Z</time></trkpt><trkpt lat="44.7345862" lon="9.3747656"><ele>632.0</ele><time>2026-04-19T08:28:56.758Z</time></trkpt><trkpt lat="44.7345713" lon="9.3749055"><ele>634.1666666666666</ele><time>2026-04-19T08:28:57.795Z</time></trkpt><trkpt lat="44.7345553" lon="9.3750358"><ele>636.3333333333333</ele><time>2026-04-19T08:28:58.795Z</time></trkpt><trkpt lat="44.7345236" lon="9.3751625"><ele>638.5</ele><time>2026-04-19T08:28:59.794Z</time></trkpt><trkpt lat="44.7344799" lon="9.3752673"><ele>640.6666666666666</ele><time>2026-04-19T08:29:00.801Z</time></trkpt><trkpt lat="44.7344259" lon="9.3753437"><ele>642.8333333333334</ele><time>2026-04-19T08:29:01.776Z</time></trkpt><trkpt lat="44.7343533" lon="9.3754242"><ele>645.0</ele><time>2026-04-19T08:29:02.796Z</time></trkpt><trkpt lat="44.7342801" lon="9.3754885"><ele>645.0</ele><time>2026-04-19T08:29:03.833Z</time></trkpt><trkpt lat="44.7342203" lon="9.375517"><ele>645.0</ele><time>2026-04-19T08:29:04.821Z</time></trkpt><trkpt lat="44.7341545" lon="9.375492"><ele>645.0</ele><time>2026-04-19T08:29:06.778Z</time></trkpt><trkpt lat="44.7341512" lon="9.3756083"><ele>645.0</ele><time>2026-04-19T08:33:40.869Z</time></trkpt><trkpt lat="44.7342287" lon="9.3757541"><ele>645.0</ele><time>2026-04-19T08:33:43.813Z</time></trkpt><trkpt lat="44.7342612" lon="9.3758538"><ele>645.0</ele><time>2026-04-19T08:33:45.781Z</time></trkpt><trkpt lat="44.734326" lon="9.3759174"><ele>643.6666666666666</ele><time>2026-04-19T08:33:47.818Z</time></trkpt><trkpt lat="44.7344021" lon="9.3759737"><ele>642.3333333333334</ele><time>2026-04-19T08:33:50.85Z</time></trkpt><trkpt lat="44.7344196" lon="9.3761061"><ele>641.0</ele><time>2026-04-19T08:33:53.786Z</time></trkpt><trkpt lat="44.7343889" lon="9.3761935"><ele>639.6666666666667</ele><time>2026-04-19T08:33:55.826Z</time></trkpt><trkpt lat="44.7343304" lon="9.3762724"><ele>638.3333333333334</ele><time>2026-04-19T08:33:57.799Z</time></trkpt><trkpt lat="44.734234" lon="9.3763413"><ele>637.0</ele><time>2026-04-19T08:33:59.898Z</time></trkpt><trkpt lat="44.7341507" lon="9.3763736"><ele>637.0</ele><time>2026-04-19T08:34:01.828Z</time></trkpt><trkpt lat="44.7340506" lon="9.3763632"><ele>637.0</ele><time>2026-04-19T08:34:03.797Z</time></trkpt><trkpt lat="44.733952" lon="9.3763225"><ele>637.0</ele><time>2026-04-19T08:34:05.812Z</time></trkpt><trkpt lat="44.7338746" lon="9.3762411"><ele>637.0</ele><time>2026-04-19T08:34:07.769Z</time></trkpt><trkpt lat="44.7338089" lon="9.3761865"><ele>637.0</ele><time>2026-04-19T08:34:09.769Z</time></trkpt><trkpt lat="44.7336978" lon="9.3760993"><ele>637.0</ele><time>2026-04-19T08:34:12.781Z</time></trkpt><trkpt lat="44.7336327" lon="9.3760322"><ele>637.0</ele><time>2026-04-19T08:34:14.756Z</time></trkpt><trkpt lat="44.7335478" lon="9.3759488"><ele>637.0</ele><time>2026-04-19T08:34:16.778Z</time></trkpt><trkpt lat="44.733464" lon="9.3758617"><ele>637.0</ele><time>2026-04-19T08:34:18.8Z</time></trkpt><trkpt lat="44.7333943" lon="9.3757675"><ele>637.0</ele><time>2026-04-19T08:34:20.812Z</time></trkpt><trkpt lat="44.7333148" lon="9.3756926"><ele>635.8333333333334</ele><time>2026-04-19T08:34:22.781Z</time></trkpt><trkpt lat="44.7332325" lon="9.3756474"><ele>634.6666666666667</ele><time>2026-04-19T08:34:24.854Z</time></trkpt><trkpt lat="44.7331479" lon="9.3755969"><ele>633.5</ele><time>2026-04-19T08:34:26.793Z</time></trkpt><trkpt lat="44.7331003" lon="9.3755248"><ele>632.3333333333334</ele><time>2026-04-19T08:34:28.832Z</time></trkpt><trkpt lat="44.7330351" lon="9.3754162"><ele>631.1666666666666</ele><time>2026-04-19T08:34:30.849Z</time></trkpt><trkpt lat="44.732948" lon="9.3753703"><ele>630.0</ele><time>2026-04-19T08:34:32.787Z</time></trkpt><trkpt lat="44.7328554" lon="9.3753422"><ele>630.0</ele><time>2026-04-19T08:34:34.769Z</time></trkpt><trkpt lat="44.7327656" lon="9.3753096"><ele>630.0</ele><time>2026-04-19T08:34:36.797Z</time></trkpt><trkpt lat="44.7326909" lon="9.3752832"><ele>630.0</ele><time>2026-04-19T08:34:38.805Z</time></trkpt><trkpt lat="44.7325925" lon="9.3752737"><ele>630.0</ele><time>2026-04-19T08:34:40.865Z</time></trkpt><trkpt lat="44.7324988" lon="9.3752588"><ele>630.0</ele><time>2026-04-19T08:34:43.82Z</time></trkpt><trkpt lat="44.7324264" lon="9.375253"><ele>630.0</ele><time>2026-04-19T08:34:45.773Z</time></trkpt><trkpt lat="44.7323681" lon="9.3752868"><ele>628.1666666666666</ele><time>2026-04-19T08:34:47.855Z</time></trkpt><trkpt lat="44.7323113" lon="9.3753407"><ele>626.3333333333334</ele><time>2026-04-19T08:34:49.782Z</time></trkpt><trkpt lat="44.7322341" lon="9.375383"><ele>624.5</ele><time>2026-04-19T08:34:52.778Z</time></trkpt><trkpt lat="44.7321677" lon="9.3754178"><ele>622.6666666666667</ele><time>2026-04-19T08:34:54.768Z</time></trkpt><trkpt lat="44.7321053" lon="9.3754729"><ele>620.8333333333334</ele><time>2026-04-19T08:34:56.775Z</time></trkpt><trkpt lat="44.7320493" lon="9.3755551"><ele>619.0</ele><time>2026-04-19T08:34:58.777Z</time></trkpt><trkpt lat="44.7319834" lon="9.3756011"><ele>619.0</ele><time>2026-04-19T08:35:01.762Z</time></trkpt><trkpt lat="44.7318969" lon="9.3755464"><ele>619.0</ele><time>2026-04-19T08:35:08.843Z</time></trkpt><trkpt lat="44.7318489" lon="9.3754788"><ele>619.0</ele><time>2026-04-19T08:35:10.764Z</time></trkpt><trkpt lat="44.7318165" lon="9.3754018"><ele>619.0</ele><time>2026-04-19T08:35:13.79Z</time></trkpt><trkpt lat="44.7317878" lon="9.3752955"><ele>619.0</ele><time>2026-04-19T08:35:16.759Z</time></trkpt><trkpt lat="44.7317314" lon="9.3752226"><ele>619.0</ele><time>2026-04-19T08:35:18.806Z</time></trkpt><trkpt lat="44.7316586" lon="9.3751446"><ele>613.8333333333334</ele><time>2026-04-19T08:35:20.871Z</time></trkpt><trkpt lat="44.7316321" lon="9.3750402"><ele>608.6666666666667</ele><time>2026-04-19T08:35:23.755Z</time></trkpt><trkpt lat="44.7316153" lon="9.3749438"><ele>603.5</ele><time>2026-04-19T08:35:25.777Z</time></trkpt><trkpt lat="44.7315932" lon="9.3748476"><ele>598.3333333333334</ele><time>2026-04-19T08:35:27.724Z</time></trkpt><trkpt lat="44.731595" lon="9.3746996"><ele>593.1666666666666</ele><time>2026-04-19T08:35:29.866Z</time></trkpt><trkpt lat="44.7315993" lon="9.3745856"><ele>588.0</ele><time>2026-04-19T08:35:31.784Z</time></trkpt><trkpt lat="44.7315763" lon="9.3744768"><ele>588.0</ele><time>2026-04-19T08:35:33.762Z</time></trkpt><trkpt lat="44.7315371" lon="9.3743903"><ele>588.0</ele><time>2026-04-19T08:35:35.811Z</time></trkpt><trkpt lat="44.7314832" lon="9.3743115"><ele>588.0</ele><time>2026-04-19T08:35:37.765Z</time></trkpt><trkpt lat="44.7313888" lon="9.374275"><ele>588.0</ele><time>2026-04-19T08:35:39.798Z</time></trkpt><trkpt lat="44.7312756" lon="9.3742518"><ele>588.0</ele><time>2026-04-19T08:35:41.757Z</time></trkpt><trkpt lat="44.7311719" lon="9.3742012"><ele>588.0</ele><time>2026-04-19T08:35:43.769Z</time></trkpt><trkpt lat="44.7311079" lon="9.3740943"><ele>588.0</ele><time>2026-04-19T08:35:45.792Z</time></trkpt><trkpt lat="44.731078" lon="9.3739657"><ele>588.0</ele><time>2026-04-19T08:35:47.782Z</time></trkpt><trkpt lat="44.7310301" lon="9.3738647"><ele>588.0</ele><time>2026-04-19T08:35:49.799Z</time></trkpt><trkpt lat="44.7309443" lon="9.3738092"><ele>588.0</ele><time>2026-04-19T08:35:51.776Z</time></trkpt><trkpt lat="44.7308489" lon="9.3737658"><ele>586.3333333333334</ele><time>2026-04-19T08:35:53.857Z</time></trkpt><trkpt lat="44.7307736" lon="9.3737039"><ele>584.6666666666666</ele><time>2026-04-19T08:35:55.801Z</time></trkpt><trkpt lat="44.730722" lon="9.3736386"><ele>583.0</ele><time>2026-04-19T08:35:57.82Z</time></trkpt><trkpt lat="44.7306548" lon="9.3735676"><ele>581.3333333333333</ele><time>2026-04-19T08:37:27.79Z</time></trkpt><trkpt lat="44.730586" lon="9.3734964"><ele>579.6666666666666</ele><time>2026-04-19T08:37:29.788Z</time></trkpt><trkpt lat="44.730513" lon="9.373431"><ele>578.0</ele><time>2026-04-19T08:37:31.814Z</time></trkpt><trkpt lat="44.7304217" lon="9.3733511"><ele>578.0</ele><time>2026-04-19T08:37:33.785Z</time></trkpt><trkpt lat="44.7303229" lon="9.3732823"><ele>578.0</ele><time>2026-04-19T08:37:35.751Z</time></trkpt><trkpt lat="44.7302389" lon="9.3732272"><ele>578.0</ele><time>2026-04-19T08:37:37.812Z</time></trkpt><trkpt lat="44.7301697" lon="9.373155"><ele>578.0</ele><time>2026-04-19T08:37:39.815Z</time></trkpt><trkpt lat="44.7300897" lon="9.3730298"><ele>578.0</ele><time>2026-04-19T08:37:41.778Z</time></trkpt><trkpt lat="44.7300438" lon="9.372959"><ele>577.1666666666666</ele><time>2026-04-19T08:37:42.76Z</time></trkpt><trkpt lat="44.7299898" lon="9.3728944"><ele>576.3333333333333</ele><time>2026-04-19T08:37:43.77Z</time></trkpt><trkpt lat="44.7299443" lon="9.3728247"><ele>575.5</ele><time>2026-04-19T08:37:44.813Z</time></trkpt><trkpt lat="44.7299031" lon="9.3727515"><ele>574.6666666666666</ele><time>2026-04-19T08:37:45.733Z</time></trkpt><trkpt lat="44.7298557" lon="9.3726628"><ele>573.8333333333334</ele><time>2026-04-19T08:37:46.902Z</time></trkpt><trkpt lat="44.7297635" lon="9.3725105"><ele>573.0</ele><time>2026-04-19T08:37:48.866Z</time></trkpt><trkpt lat="44.7297221" lon="9.3723474"><ele>574.0</ele><time>2026-04-19T08:37:50.774Z</time></trkpt><trkpt lat="44.7296923" lon="9.3721806"><ele>575.0</ele><time>2026-04-19T08:37:52.811Z</time></trkpt><trkpt lat="44.7296123" lon="9.3720932"><ele>576.0</ele><time>2026-04-19T08:37:54.808Z</time></trkpt><trkpt lat="44.7294898" lon="9.3721163"><ele>577.0</ele><time>2026-04-19T08:37:56.82Z</time></trkpt><trkpt lat="44.729418" lon="9.3721394"><ele>578.0</ele><time>2026-04-19T08:37:57.779Z</time></trkpt><trkpt lat="44.7293443" lon="9.3721706"><ele>575.0</ele><time>2026-04-19T08:37:58.788Z</time></trkpt><trkpt lat="44.7292679" lon="9.3721991"><ele>572.0</ele><time>2026-04-19T08:37:59.778Z</time></trkpt><trkpt lat="44.729203" lon="9.372225"><ele>569.0</ele><time>2026-04-19T08:38:00.843Z</time></trkpt><trkpt lat="44.7290822" lon="9.3722852"><ele>566.0</ele><time>2026-04-19T08:38:02.847Z</time></trkpt><trkpt lat="44.728974" lon="9.372339"><ele>563.0</ele><time>2026-04-19T08:38:04.831Z</time></trkpt><trkpt lat="44.7288501" lon="9.3723585"><ele>563.0</ele><time>2026-04-19T08:38:06.787Z</time></trkpt><trkpt lat="44.7287391" lon="9.3723242"><ele>563.0</ele><time>2026-04-19T08:38:09.057Z</time></trkpt><trkpt lat="44.7286454" lon="9.3722247"><ele>563.0</ele><time>2026-04-19T08:38:10.825Z</time></trkpt><trkpt lat="44.7285336" lon="9.3721672"><ele>563.0</ele><time>2026-04-19T08:38:12.817Z</time></trkpt><trkpt lat="44.7284274" lon="9.3721316"><ele>561.8</ele><time>2026-04-19T08:38:14.833Z</time></trkpt><trkpt lat="44.728342" lon="9.3720604"><ele>560.5999999999999</ele><time>2026-04-19T08:38:16.811Z</time></trkpt><trkpt lat="44.7282643" lon="9.3719794"><ele>559.4000000000001</ele><time>2026-04-19T08:38:18.779Z</time></trkpt><trkpt lat="44.728204" lon="9.3718749"><ele>558.2</ele><time>2026-04-19T08:38:20.888Z</time></trkpt><trkpt lat="44.7281763" lon="9.3717377"><ele>557.0</ele><time>2026-04-19T08:38:22.891Z</time></trkpt><trkpt lat="44.7281788" lon="9.3716052"><ele>557.0</ele><time>2026-04-19T08:38:24.774Z</time></trkpt><trkpt lat="44.7282003" lon="9.3714294"><ele>557.0</ele><time>2026-04-19T08:38:26.796Z</time></trkpt><trkpt lat="44.7282074" lon="9.371324"><ele>557.0</ele><time>2026-04-19T08:38:27.8Z</time></trkpt><trkpt lat="44.7282039" lon="9.3712217"><ele>557.0</ele><time>2026-04-19T08:38:28.763Z</time></trkpt><trkpt lat="44.7281868" lon="9.3711318"><ele>557.0</ele><time>2026-04-19T08:38:29.784Z</time></trkpt><trkpt lat="44.7281184" lon="9.3710179"><ele>557.0</ele><time>2026-04-19T08:38:31.795Z</time></trkpt><trkpt lat="44.7280543" lon="9.3709776"><ele>558.2</ele><time>2026-04-19T08:38:32.792Z</time></trkpt><trkpt lat="44.7279741" lon="9.3709758"><ele>559.4000000000001</ele><time>2026-04-19T08:38:33.762Z</time></trkpt><trkpt lat="44.7278931" lon="9.3709656"><ele>560.5999999999999</ele><time>2026-04-19T08:38:34.781Z</time></trkpt><trkpt lat="44.7278185" lon="9.3709632"><ele>561.8</ele><time>2026-04-19T08:38:35.757Z</time></trkpt><trkpt lat="44.7277351" lon="9.3709579"><ele>563.0</ele><time>2026-04-19T08:38:36.878Z</time></trkpt><trkpt lat="44.7275939" lon="9.3709375"><ele>560.4</ele><time>2026-04-19T08:38:38.991Z</time></trkpt><trkpt lat="44.7274791" lon="9.3709273"><ele>557.8</ele><time>2026-04-19T08:38:40.774Z</time></trkpt><trkpt lat="44.7273783" lon="9.3709262"><ele>555.2</ele><time>2026-04-19T08:38:42.756Z</time></trkpt><trkpt lat="44.7272782" lon="9.3709703"><ele>552.6</ele><time>2026-04-19T08:38:44.777Z</time></trkpt><trkpt lat="44.7271938" lon="9.3710121"><ele>550.0</ele><time>2026-04-19T08:38:46.795Z</time></trkpt><trkpt lat="44.7271182" lon="9.371051"><ele>550.0</ele><time>2026-04-19T08:38:49.786Z</time></trkpt><trkpt lat="44.7270182" lon="9.3711232"><ele>550.0</ele><time>2026-04-19T08:39:25.766Z</time></trkpt><trkpt lat="44.7269593" lon="9.3711753"><ele>550.0</ele><time>2026-04-19T08:39:27.789Z</time></trkpt><trkpt lat="44.7269078" lon="9.371232"><ele>550.0</ele><time>2026-04-19T08:39:28.863Z</time></trkpt><trkpt lat="44.7268208" lon="9.3713066"><ele>550.0</ele><time>2026-04-19T08:39:30.767Z</time></trkpt><trkpt lat="44.7266675" lon="9.3713687"><ele>546.5</ele><time>2026-04-19T08:39:33.819Z</time></trkpt><trkpt lat="44.7265492" lon="9.3714033"><ele>543.0</ele><time>2026-04-19T08:39:35.79Z</time></trkpt><trkpt lat="44.7264249" lon="9.3713959"><ele>539.5</ele><time>2026-04-19T08:39:37.808Z</time></trkpt><trkpt lat="44.7263019" lon="9.3713855"><ele>536.0</ele><time>2026-04-19T08:39:39.803Z</time></trkpt><trkpt lat="44.7262023" lon="9.3714667"><ele>536.0</ele><time>2026-04-19T08:39:41.86Z</time></trkpt><trkpt lat="44.7261167" lon="9.3715836"><ele>536.0</ele><time>2026-04-19T08:39:43.82Z</time></trkpt><trkpt lat="44.7260469" lon="9.3717448"><ele>536.0</ele><time>2026-04-19T08:39:45.799Z</time></trkpt><trkpt lat="44.7260207" lon="9.3718514"><ele>536.0</ele><time>2026-04-19T08:39:46.965Z</time></trkpt><trkpt lat="44.7260054" lon="9.3719805"><ele>536.0</ele><time>2026-04-19T08:39:48.774Z</time></trkpt><trkpt lat="44.7260163" lon="9.3721411"><ele>538.0</ele><time>2026-04-19T08:39:50.795Z</time></trkpt><trkpt lat="44.7260156" lon="9.3723025"><ele>540.0</ele><time>2026-04-19T08:39:52.82Z</time></trkpt><trkpt lat="44.7259806" lon="9.3724275"><ele>542.0</ele><time>2026-04-19T08:39:54.765Z</time></trkpt><trkpt lat="44.7259085" lon="9.3725554"><ele>544.0</ele><time>2026-04-19T08:39:56.974Z</time></trkpt><trkpt lat="44.7258494" lon="9.3726695"><ele>546.0</ele><time>2026-04-19T08:39:58.917Z</time></trkpt><trkpt lat="44.7257851" lon="9.3728191"><ele>546.0</ele><time>2026-04-19T08:40:00.771Z</time></trkpt><trkpt lat="44.7257363" lon="9.3729643"><ele>546.0</ele><time>2026-04-19T08:40:02.764Z</time></trkpt><trkpt lat="44.7256876" lon="9.3730925"><ele>546.0</ele><time>2026-04-19T08:40:04.75Z</time></trkpt><trkpt lat="44.7256243" lon="9.3732377"><ele>546.0</ele><time>2026-04-19T08:40:06.74Z</time></trkpt><trkpt lat="44.7255762" lon="9.3733136"><ele>546.0</ele><time>2026-04-19T08:40:07.856Z</time></trkpt><trkpt lat="44.7254878" lon="9.3734148"><ele>544.0</ele><time>2026-04-19T08:40:09.779Z</time></trkpt><trkpt lat="44.7254022" lon="9.3735308"><ele>542.0</ele><time>2026-04-19T08:40:11.76Z</time></trkpt><trkpt lat="44.7253675" lon="9.3736051"><ele>540.0</ele><time>2026-04-19T08:40:12.795Z</time></trkpt><trkpt lat="44.72532" lon="9.3737498"><ele>538.0</ele><time>2026-04-19T08:40:14.775Z</time></trkpt><trkpt lat="44.7252871" lon="9.3738884"><ele>536.0</ele><time>2026-04-19T08:40:16.781Z</time></trkpt><trkpt lat="44.7252715" lon="9.374021"><ele>535.4</ele><time>2026-04-19T08:40:18.775Z</time></trkpt><trkpt lat="44.7252698" lon="9.3741716"><ele>534.8</ele><time>2026-04-19T08:40:20.786Z</time></trkpt><trkpt lat="44.7253035" lon="9.3743093"><ele>534.1999999999999</ele><time>2026-04-19T08:40:22.752Z</time></trkpt><trkpt lat="44.7253478" lon="9.3744742"><ele>533.6</ele><time>2026-04-19T08:40:24.783Z</time></trkpt><trkpt lat="44.7253684" lon="9.3745646"><ele>533.0</ele><time>2026-04-19T08:40:25.744Z</time></trkpt><trkpt lat="44.7253898" lon="9.3746649"><ele>532.6666666666666</ele><time>2026-04-19T08:40:26.733Z</time></trkpt><trkpt lat="44.725413" lon="9.3747631"><ele>532.3333333333333</ele><time>2026-04-19T08:40:27.776Z</time></trkpt><trkpt lat="44.7254491" lon="9.3749239"><ele>532.0</ele><time>2026-04-19T08:40:29.789Z</time></trkpt><trkpt lat="44.7254676" lon="9.375009"><ele>531.6666666666666</ele><time>2026-04-19T08:40:30.757Z</time></trkpt><trkpt lat="44.7254842" lon="9.3750994"><ele>531.3333333333334</ele><time>2026-04-19T08:40:31.815Z</time></trkpt><trkpt lat="44.7254864" lon="9.3751915"><ele>531.0</ele><time>2026-04-19T08:40:32.819Z</time></trkpt><trkpt lat="44.7254924" lon="9.3753441"><ele>531.0</ele><time>2026-04-19T08:40:34.746Z</time></trkpt><trkpt lat="44.7254776" lon="9.3754903"><ele>531.0</ele><time>2026-04-19T08:40:36.904Z</time></trkpt><trkpt lat="44.7254079" lon="9.3756284"><ele>531.0</ele><time>2026-04-19T08:40:38.756Z</time></trkpt><trkpt lat="44.7253562" lon="9.3757088"><ele>531.0</ele><time>2026-04-19T08:40:39.771Z</time></trkpt><trkpt lat="44.7253045" lon="9.3757764"><ele>531.0</ele><time>2026-04-19T08:40:40.778Z</time></trkpt><trkpt lat="44.7252534" lon="9.3758417"><ele>531.0</ele><time>2026-04-19T08:40:41.827Z</time></trkpt><trkpt lat="44.7251412" lon="9.3759585"><ele>531.0</ele><time>2026-04-19T08:40:43.858Z</time></trkpt><trkpt lat="44.7250492" lon="9.3760499"><ele>531.0</ele><time>2026-04-19T08:40:45.789Z</time></trkpt><trkpt lat="44.7249957" lon="9.3761161"><ele>531.0</ele><time>2026-04-19T08:40:52.792Z</time></trkpt><trkpt lat="44.7249532" lon="9.376195"><ele>531.0</ele><time>2026-04-19T08:40:55.812Z</time></trkpt><trkpt lat="44.7249085" lon="9.3762652"><ele>531.0</ele><time>2026-04-19T08:41:02.804Z</time></trkpt><trkpt lat="44.7248729" lon="9.3763513"><ele>531.0</ele><time>2026-04-19T08:49:24.803Z</time></trkpt><trkpt lat="44.7247956" lon="9.3764491"><ele>531.0</ele><time>2026-04-19T08:49:27.796Z</time></trkpt><trkpt lat="44.7247196" lon="9.3765173"><ele>531.0</ele><time>2026-04-19T08:49:29.783Z</time></trkpt><trkpt lat="44.724637" lon="9.3765875"><ele>531.0</ele><time>2026-04-19T08:49:31.825Z</time></trkpt><trkpt lat="44.7245648" lon="9.3766767"><ele>531.0</ele><time>2026-04-19T08:49:33.791Z</time></trkpt><trkpt lat="44.7245194" lon="9.3767896"><ele>531.0</ele><time>2026-04-19T08:49:35.819Z</time></trkpt><trkpt lat="44.7244883" lon="9.3768984"><ele>531.0</ele><time>2026-04-19T08:49:37.888Z</time></trkpt><trkpt lat="44.7244593" lon="9.3770606"><ele>531.0</ele><time>2026-04-19T08:49:40.825Z</time></trkpt><trkpt lat="44.7244408" lon="9.3771912"><ele>531.0</ele><time>2026-04-19T08:49:42.783Z</time></trkpt><trkpt lat="44.7244134" lon="9.3773124"><ele>531.0</ele><time>2026-04-19T08:49:44.927Z</time></trkpt><trkpt lat="44.7243898" lon="9.3774384"><ele>531.0</ele><time>2026-04-19T08:49:46.91Z</time></trkpt><trkpt lat="44.7243386" lon="9.3775585"><ele>529.3333333333334</ele><time>2026-04-19T08:49:48.9Z</time></trkpt><trkpt lat="44.7242856" lon="9.3776743"><ele>527.6666666666666</ele><time>2026-04-19T08:49:50.791Z</time></trkpt><trkpt lat="44.7242606" lon="9.3777907"><ele>526.0</ele><time>2026-04-19T08:49:52.814Z</time></trkpt><trkpt lat="44.7242608" lon="9.3779219"><ele>524.3333333333333</ele><time>2026-04-19T08:49:54.857Z</time></trkpt><trkpt lat="44.7242218" lon="9.3779956"><ele>522.6666666666666</ele><time>2026-04-19T08:49:56.835Z</time></trkpt><trkpt lat="44.724154" lon="9.3780627"><ele>521.0</ele><time>2026-04-19T08:49:58.852Z</time></trkpt><trkpt lat="44.7240559" lon="9.3781015"><ele>517.2</ele><time>2026-04-19T08:50:00.785Z</time></trkpt><trkpt lat="44.723946" lon="9.378115"><ele>513.4000000000001</ele><time>2026-04-19T08:50:02.808Z</time></trkpt><trkpt lat="44.7237983" lon="9.3780753"><ele>509.6</ele><time>2026-04-19T08:50:05.755Z</time></trkpt><trkpt lat="44.7237019" lon="9.3780446"><ele>505.8</ele><time>2026-04-19T08:50:07.822Z</time></trkpt><trkpt lat="44.7236299" lon="9.3780737"><ele>502.0</ele><time>2026-04-19T08:50:09.928Z</time></trkpt><trkpt lat="44.7235795" lon="9.3782167"><ele>505.8</ele><time>2026-04-19T08:50:12.777Z</time></trkpt><trkpt lat="44.7234881" lon="9.3782896"><ele>509.6</ele><time>2026-04-19T08:50:14.791Z</time></trkpt><trkpt lat="44.7233787" lon="9.3783325"><ele>513.4000000000001</ele><time>2026-04-19T08:50:16.9Z</time></trkpt><trkpt lat="44.7232967" lon="9.3784053"><ele>517.2</ele><time>2026-04-19T08:50:18.797Z</time></trkpt><trkpt lat="44.7232135" lon="9.3785346"><ele>521.0</ele><time>2026-04-19T08:50:20.852Z</time></trkpt><trkpt lat="44.723159" lon="9.3786757"><ele>521.0</ele><time>2026-04-19T08:50:22.808Z</time></trkpt><trkpt lat="44.723144" lon="9.3787692"><ele>521.0</ele><time>2026-04-19T08:50:23.806Z</time></trkpt><trkpt lat="44.7231249" lon="9.3788566"><ele>521.0</ele><time>2026-04-19T08:50:24.758Z</time></trkpt><trkpt lat="44.7231153" lon="9.3789502"><ele>521.0</ele><time>2026-04-19T08:50:25.771Z</time></trkpt><trkpt lat="44.7231073" lon="9.3790443"><ele>521.0</ele><time>2026-04-19T08:50:26.831Z</time></trkpt><trkpt lat="44.7230639" lon="9.3791889"><ele>521.0</ele><time>2026-04-19T08:50:28.826Z</time></trkpt><trkpt lat="44.7229991" lon="9.3793315"><ele>519.0</ele><time>2026-04-19T08:50:30.899Z</time></trkpt><trkpt lat="44.7228919" lon="9.3794271"><ele>517.0</ele><time>2026-04-19T08:50:32.847Z</time></trkpt><trkpt lat="44.7228319" lon="9.3794614"><ele>515.0</ele><time>2026-04-19T08:50:33.797Z</time></trkpt><trkpt lat="44.7227521" lon="9.3795167"><ele>513.0</ele><time>2026-04-19T08:50:34.941Z</time></trkpt><trkpt lat="44.7226214" lon="9.3796245"><ele>511.0</ele><time>2026-04-19T08:50:36.925Z</time></trkpt><trkpt lat="44.7225237" lon="9.3797171"><ele>507.8</ele><time>2026-04-19T08:50:38.902Z</time></trkpt><trkpt lat="44.7224379" lon="9.3797904"><ele>504.6</ele><time>2026-04-19T08:50:40.853Z</time></trkpt><trkpt lat="44.7223645" lon="9.3798906"><ele>501.4</ele><time>2026-04-19T08:50:42.85Z</time></trkpt><trkpt lat="44.7222915" lon="9.3800202"><ele>498.2</ele><time>2026-04-19T08:50:44.889Z</time></trkpt><trkpt lat="44.7222313" lon="9.3801451"><ele>495.0</ele><time>2026-04-19T08:50:46.871Z</time></trkpt><trkpt lat="44.7221728" lon="9.3802797"><ele>495.0</ele><time>2026-04-19T08:50:48.825Z</time></trkpt><trkpt lat="44.722104" lon="9.380437"><ele>495.0</ele><time>2026-04-19T08:50:50.896Z</time></trkpt><trkpt lat="44.7220666" lon="9.3805772"><ele>495.0</ele><time>2026-04-19T08:50:52.827Z</time></trkpt><trkpt lat="44.7220254" lon="9.3807375"><ele>495.0</ele><time>2026-04-19T08:50:54.81Z</time></trkpt><trkpt lat="44.7219683" lon="9.3808629"><ele>493.2</ele><time>2026-04-19T08:50:56.819Z</time></trkpt><trkpt lat="44.721928" lon="9.3809959"><ele>491.4</ele><time>2026-04-19T08:50:58.834Z</time></trkpt><trkpt lat="44.7218758" lon="9.3811463"><ele>489.6</ele><time>2026-04-19T08:51:00.966Z</time></trkpt><trkpt lat="44.7218102" lon="9.3813011"><ele>487.8</ele><time>2026-04-19T08:51:02.814Z</time></trkpt><trkpt lat="44.7217679" lon="9.3813803"><ele>486.0</ele><time>2026-04-19T08:51:03.828Z</time></trkpt><trkpt lat="44.721722" lon="9.3814508"><ele>484.1666666666667</ele><time>2026-04-19T08:51:04.793Z</time></trkpt><trkpt lat="44.7216787" lon="9.3815321"><ele>482.33333333333337</ele><time>2026-04-19T08:51:05.857Z</time></trkpt><trkpt lat="44.7216436" lon="9.3816142"><ele>480.5</ele><time>2026-04-19T08:51:06.826Z</time></trkpt><trkpt lat="44.7216054" lon="9.3816927"><ele>478.6666666666667</ele><time>2026-04-19T08:51:07.828Z</time></trkpt><trkpt lat="44.7215706" lon="9.381771"><ele>476.83333333333337</ele><time>2026-04-19T08:51:08.812Z</time></trkpt><trkpt lat="44.7215098" lon="9.3819157"><ele>475.0</ele><time>2026-04-19T08:51:10.878Z</time></trkpt><trkpt lat="44.7214461" lon="9.3819969"><ele>475.0</ele><time>2026-04-19T08:51:12.918Z</time></trkpt><trkpt lat="44.7213428" lon="9.3820639"><ele>475.0</ele><time>2026-04-19T08:51:14.862Z</time></trkpt><trkpt lat="44.7212527" lon="9.3821348"><ele>475.0</ele><time>2026-04-19T08:51:16.881Z</time></trkpt><trkpt lat="44.7211697" lon="9.3822646"><ele>475.0</ele><time>2026-04-19T08:51:18.801Z</time></trkpt><trkpt lat="44.7211045" lon="9.3823848"><ele>475.0</ele><time>2026-04-19T08:51:20.838Z</time></trkpt><trkpt lat="44.7210478" lon="9.3824847"><ele>473.0</ele><time>2026-04-19T08:51:22.802Z</time></trkpt><trkpt lat="44.7209458" lon="9.3826343"><ele>471.0</ele><time>2026-04-19T08:51:25.891Z</time></trkpt><trkpt lat="44.7208438" lon="9.3828364"><ele>469.0</ele><time>2026-04-19T08:51:28.957Z</time></trkpt><trkpt lat="44.7208556" lon="9.3829626"><ele>467.0</ele><time>2026-04-19T08:51:30.815Z</time></trkpt><trkpt lat="44.7208828" lon="9.3830876"><ele>466.0</ele><time>2026-04-19T08:51:32.873Z</time></trkpt><trkpt lat="44.7209325" lon="9.3832705"><ele>465.00000000000006</ele><time>2026-04-19T08:51:35.882Z</time></trkpt><trkpt lat="44.7209508" lon="9.3833832"><ele>464.00000000000006</ele><time>2026-04-19T08:51:37.926Z</time></trkpt><trkpt lat="44.7209791" lon="9.3834666"><ele>463.0</ele><time>2026-04-19T08:51:39.808Z</time></trkpt><trkpt lat="44.7210296" lon="9.3835626"><ele>462.0</ele><time>2026-04-19T08:51:41.813Z</time></trkpt><trkpt lat="44.7210932" lon="9.3836456"><ele>460.1666666666667</ele><time>2026-04-19T08:51:43.823Z</time></trkpt><trkpt lat="44.7211471" lon="9.3837083"><ele>458.33333333333337</ele><time>2026-04-19T08:51:45.838Z</time></trkpt><trkpt lat="44.7212154" lon="9.3837885"><ele>456.5</ele><time>2026-04-19T08:51:47.867Z</time></trkpt><trkpt lat="44.7212692" lon="9.3838743"><ele>454.6666666666667</ele><time>2026-04-19T08:51:49.776Z</time></trkpt><trkpt lat="44.7212963" lon="9.383964"><ele>452.83333333333337</ele><time>2026-04-19T08:51:51.76Z</time></trkpt><trkpt lat="44.7213321" lon="9.3840573"><ele>451.0</ele><time>2026-04-19T08:51:53.769Z</time></trkpt><trkpt lat="44.7213816" lon="9.3841494"><ele>449.1666666666667</ele><time>2026-04-19T08:51:55.804Z</time></trkpt><trkpt lat="44.7214445" lon="9.384239"><ele>447.33333333333337</ele><time>2026-04-19T08:51:57.765Z</time></trkpt><trkpt lat="44.7214867" lon="9.3843145"><ele>445.5</ele><time>2026-04-19T08:51:58.885Z</time></trkpt><trkpt lat="44.7215501" lon="9.3844245"><ele>443.66666666666663</ele><time>2026-04-19T08:52:00.886Z</time></trkpt><trkpt lat="44.7215954" lon="9.3845539"><ele>441.8333333333333</ele><time>2026-04-19T08:52:02.807Z</time></trkpt><trkpt lat="44.7216316" lon="9.3846654"><ele>440.0</ele><time>2026-04-19T08:52:04.815Z</time></trkpt><trkpt lat="44.721599" lon="9.3847664"><ele>439.6</ele><time>2026-04-19T09:01:30.817Z</time></trkpt><trkpt lat="44.7215641" lon="9.3848868"><ele>439.2</ele><time>2026-04-19T09:01:33.835Z</time></trkpt><trkpt lat="44.7215137" lon="9.3849645"><ele>438.79999999999995</ele><time>2026-04-19T09:01:36.832Z</time></trkpt><trkpt lat="44.7214254" lon="9.384922"><ele>438.4</ele><time>2026-04-19T09:01:39.811Z</time></trkpt><trkpt lat="44.7213681" lon="9.3848119"><ele>438.0</ele><time>2026-04-19T09:01:41.915Z</time></trkpt><trkpt lat="44.721314" lon="9.384695"><ele>438.3333333333333</ele><time>2026-04-19T09:01:43.836Z</time></trkpt><trkpt lat="44.7212421" lon="9.3845646"><ele>438.66666666666663</ele><time>2026-04-19T09:01:45.766Z</time></trkpt><trkpt lat="44.7211964" lon="9.3844959"><ele>439.0</ele><time>2026-04-19T09:01:46.858Z</time></trkpt><trkpt lat="44.7211524" lon="9.3844299"><ele>439.3333333333333</ele><time>2026-04-19T09:01:47.821Z</time></trkpt><trkpt lat="44.7211074" lon="9.3843533"><ele>439.66666666666663</ele><time>2026-04-19T09:01:48.815Z</time></trkpt><trkpt lat="44.7210652" lon="9.3842767"><ele>440.0</ele><time>2026-04-19T09:01:49.796Z</time></trkpt><trkpt lat="44.7210231" lon="9.3841995"><ele>442.16666666666663</ele><time>2026-04-19T09:01:50.867Z</time></trkpt><trkpt lat="44.7209548" lon="9.3840626"><ele>444.3333333333333</ele><time>2026-04-19T09:01:52.825Z</time></trkpt><trkpt lat="44.7209258" lon="9.3839699"><ele>446.5</ele><time>2026-04-19T09:01:53.849Z</time></trkpt><trkpt lat="44.7209009" lon="9.3838616"><ele>448.66666666666663</ele><time>2026-04-19T09:01:54.83Z</time></trkpt><trkpt lat="44.720874" lon="9.3837446"><ele>450.8333333333333</ele><time>2026-04-19T09:01:55.826Z</time></trkpt><trkpt lat="44.7208402" lon="9.3836363"><ele>453.0</ele><time>2026-04-19T09:01:56.816Z</time></trkpt><trkpt lat="44.7207966" lon="9.3835382"><ele>454.79999999999995</ele><time>2026-04-19T09:01:57.787Z</time></trkpt><trkpt lat="44.7207426" lon="9.3834504"><ele>456.59999999999997</ele><time>2026-04-19T09:01:58.779Z</time></trkpt><trkpt lat="44.7206751" lon="9.3833701"><ele>458.40000000000003</ele><time>2026-04-19T09:01:59.788Z</time></trkpt><trkpt lat="44.7205844" lon="9.3832822"><ele>460.20000000000005</ele><time>2026-04-19T09:02:00.858Z</time></trkpt><trkpt lat="44.7205065" lon="9.3831969"><ele>462.0</ele><time>2026-04-19T09:02:01.872Z</time></trkpt><trkpt lat="44.7204474" lon="9.3831207"><ele>462.0</ele><time>2026-04-19T09:02:02.847Z</time></trkpt><trkpt lat="44.7204108" lon="9.3830437"><ele>462.0</ele><time>2026-04-19T09:02:03.782Z</time></trkpt><trkpt lat="44.7203996" lon="9.3829496"><ele>462.0</ele><time>2026-04-19T09:02:04.812Z</time></trkpt><trkpt lat="44.7204128" lon="9.3828336"><ele>462.0</ele><time>2026-04-19T09:02:05.797Z</time></trkpt><trkpt lat="44.7204134" lon="9.3827167"><ele>462.0</ele><time>2026-04-19T09:02:06.782Z</time></trkpt><trkpt lat="44.7203906" lon="9.3825869"><ele>462.0</ele><time>2026-04-19T09:02:07.814Z</time></trkpt><trkpt lat="44.7203552" lon="9.3824566"><ele>463.0</ele><time>2026-04-19T09:02:08.783Z</time></trkpt><trkpt lat="44.720298" lon="9.3823293"><ele>464.00000000000006</ele><time>2026-04-19T09:02:09.861Z</time></trkpt><trkpt lat="44.7202474" lon="9.382239"><ele>465.00000000000006</ele><time>2026-04-19T09:02:10.776Z</time></trkpt><trkpt lat="44.7201961" lon="9.3821551"><ele>466.0</ele><time>2026-04-19T09:02:11.818Z</time></trkpt><trkpt lat="44.7201502" lon="9.3820767"><ele>467.0</ele><time>2026-04-19T09:02:12.821Z</time></trkpt><trkpt lat="44.7201114" lon="9.3819253"><ele>465.20000000000005</ele><time>2026-04-19T09:02:14.757Z</time></trkpt><trkpt lat="44.7201211" lon="9.3818112"><ele>463.40000000000003</ele><time>2026-04-19T09:02:15.797Z</time></trkpt><trkpt lat="44.7201774" lon="9.3817229"><ele>461.59999999999997</ele><time>2026-04-19T09:02:16.805Z</time></trkpt><trkpt lat="44.7202481" lon="9.3816313"><ele>459.79999999999995</ele><time>2026-04-19T09:02:17.783Z</time></trkpt><trkpt lat="44.7203238" lon="9.3815299"><ele>458.0</ele><time>2026-04-19T09:02:18.78Z</time></trkpt><trkpt lat="44.7203956" lon="9.3814032"><ele>456.5</ele><time>2026-04-19T09:02:19.823Z</time></trkpt><trkpt lat="44.7204465" lon="9.3812684"><ele>455.0</ele><time>2026-04-19T09:02:20.822Z</time></trkpt><trkpt lat="44.7205029" lon="9.3811334"><ele>453.5</ele><time>2026-04-19T09:02:21.948Z</time></trkpt><trkpt lat="44.7205506" lon="9.3808841"><ele>452.0</ele><time>2026-04-19T09:02:23.851Z</time></trkpt><trkpt lat="44.7205503" lon="9.3807844"><ele>451.99999999999994</ele><time>2026-04-19T09:02:24.811Z</time></trkpt><trkpt lat="44.7205647" lon="9.3806934"><ele>452.0</ele><time>2026-04-19T09:02:25.829Z</time></trkpt><trkpt lat="44.7205966" lon="9.3806047"><ele>452.0</ele><time>2026-04-19T09:02:26.812Z</time></trkpt><trkpt lat="44.7206655" lon="9.380579"><ele>452.0</ele><time>2026-04-19T09:02:27.8Z</time></trkpt><trkpt lat="44.7207385" lon="9.3805122"><ele>451.99999999999994</ele><time>2026-04-19T09:02:28.782Z</time></trkpt><trkpt lat="44.7208013" lon="9.3804212"><ele>452.0</ele><time>2026-04-19T09:02:29.806Z</time></trkpt><trkpt lat="44.7208443" lon="9.3802884"><ele>450.40000000000003</ele><time>2026-04-19T09:02:30.785Z</time></trkpt><trkpt lat="44.720869" lon="9.3801338"><ele>448.80000000000007</ele><time>2026-04-19T09:02:31.802Z</time></trkpt><trkpt lat="44.7208778" lon="9.3799885"><ele>447.2</ele><time>2026-04-19T09:02:32.766Z</time></trkpt><trkpt lat="44.7208834" lon="9.3798439"><ele>445.6</ele><time>2026-04-19T09:02:33.803Z</time></trkpt><trkpt lat="44.7208702" lon="9.3797412"><ele>444.0</ele><time>2026-04-19T09:02:34.796Z</time></trkpt><trkpt lat="44.7208298" lon="9.3796723"><ele>444.0</ele><time>2026-04-19T09:02:35.756Z</time></trkpt><trkpt lat="44.7207481" lon="9.37956"><ele>444.0</ele><time>2026-04-19T09:02:36.803Z</time></trkpt><trkpt lat="44.7206879" lon="9.3794925"><ele>444.0</ele><time>2026-04-19T09:02:37.83Z</time></trkpt><trkpt lat="44.7206233" lon="9.37947"><ele>444.0</ele><time>2026-04-19T09:02:38.805Z</time></trkpt><trkpt lat="44.7205515" lon="9.3794527"><ele>444.0</ele><time>2026-04-19T09:02:39.822Z</time></trkpt><trkpt lat="44.7204809" lon="9.3794433"><ele>444.0</ele><time>2026-04-19T09:02:40.79Z</time></trkpt><trkpt lat="44.7204045" lon="9.3794386"><ele>444.0</ele><time>2026-04-19T09:02:41.78Z</time></trkpt><trkpt lat="44.72036" lon="9.3792816"><ele>444.0</ele><time>2026-04-19T09:02:43.771Z</time></trkpt><trkpt lat="44.7203634" lon="9.3791262"><ele>444.0</ele><time>2026-04-19T09:02:44.764Z</time></trkpt><trkpt lat="44.7203898" lon="9.3789539"><ele>444.0</ele><time>2026-04-19T09:02:45.821Z</time></trkpt><trkpt lat="44.7204278" lon="9.3788025"><ele>443.5</ele><time>2026-04-19T09:02:46.83Z</time></trkpt><trkpt lat="44.720458" lon="9.3787046"><ele>443.0</ele><time>2026-04-19T09:02:47.84Z</time></trkpt><trkpt lat="44.7204772" lon="9.378613"><ele>442.5</ele><time>2026-04-19T09:02:48.79Z</time></trkpt><trkpt lat="44.7204423" lon="9.3784978"><ele>442.0</ele><time>2026-04-19T09:02:50.801Z</time></trkpt><trkpt lat="44.7203579" lon="9.378481"><ele>441.5</ele><time>2026-04-19T09:02:51.793Z</time></trkpt><trkpt lat="44.7202553" lon="9.3784745"><ele>441.0</ele><time>2026-04-19T09:02:52.923Z</time></trkpt><trkpt lat="44.7200748" lon="9.3785021"><ele>437.0</ele><time>2026-04-19T09:02:54.775Z</time></trkpt><trkpt lat="44.7200042" lon="9.3784867"><ele>433.0</ele><time>2026-04-19T09:02:56.804Z</time></trkpt><trkpt lat="44.719946" lon="9.3784294"><ele>429.0</ele><time>2026-04-19T09:02:58.835Z</time></trkpt><trkpt lat="44.719906" lon="9.3783005"><ele>425.0</ele><time>2026-04-19T09:03:00.815Z</time></trkpt><trkpt lat="44.7198776" lon="9.3781788"><ele>421.0</ele><time>2026-04-19T09:03:01.794Z</time></trkpt><trkpt lat="44.7198703" lon="9.3780405"><ele>417.0</ele><time>2026-04-19T09:03:02.772Z</time></trkpt><trkpt lat="44.7198751" lon="9.3778814"><ele>415.75</ele><time>2026-04-19T09:03:03.832Z</time></trkpt><trkpt lat="44.7199045" lon="9.37776"><ele>414.5</ele><time>2026-04-19T09:03:04.764Z</time></trkpt><trkpt lat="44.7199445" lon="9.3775971"><ele>413.25</ele><time>2026-04-19T09:03:05.871Z</time></trkpt><trkpt lat="44.7199905" lon="9.3774432"><ele>412.0</ele><time>2026-04-19T09:03:06.78Z</time></trkpt><trkpt lat="44.7200263" lon="9.3772779"><ele>414.20000000000005</ele><time>2026-04-19T09:03:07.793Z</time></trkpt><trkpt lat="44.7200296" lon="9.3771465"><ele>416.4</ele><time>2026-04-19T09:03:08.806Z</time></trkpt><trkpt lat="44.7199453" lon="9.3769423"><ele>418.6</ele><time>2026-04-19T09:03:11.764Z</time></trkpt><trkpt lat="44.7198666" lon="9.3769018"><ele>420.79999999999995</ele><time>2026-04-19T09:03:12.806Z</time></trkpt><trkpt lat="44.7197908" lon="9.3768643"><ele>423.0</ele><time>2026-04-19T09:03:13.799Z</time></trkpt><trkpt lat="44.7197176" lon="9.3768329"><ele>423.0</ele><time>2026-04-19T09:03:14.755Z</time></trkpt><trkpt lat="44.7196054" lon="9.3768552"><ele>423.0</ele><time>2026-04-19T09:03:16.754Z</time></trkpt><trkpt lat="44.7195415" lon="9.3769683"><ele>423.0</ele><time>2026-04-19T09:03:18.78Z</time></trkpt><trkpt lat="44.7195448" lon="9.3771266"><ele>423.0</ele><time>2026-04-19T09:03:20.786Z</time></trkpt><trkpt lat="44.7195511" lon="9.3772757"><ele>423.0</ele><time>2026-04-19T09:03:21.787Z</time></trkpt><trkpt lat="44.7195365" lon="9.3773966"><ele>421.1666666666667</ele><time>2026-04-19T09:03:22.808Z</time></trkpt><trkpt lat="44.719519" lon="9.3774947"><ele>419.33333333333337</ele><time>2026-04-19T09:03:23.783Z</time></trkpt><trkpt lat="44.7194962" lon="9.3775874"><ele>417.5</ele><time>2026-04-19T09:03:24.778Z</time></trkpt><trkpt lat="44.7194432" lon="9.3776797"><ele>415.6666666666667</ele><time>2026-04-19T09:03:25.859Z</time></trkpt><trkpt lat="44.7193951" lon="9.3777387"><ele>413.83333333333337</ele><time>2026-04-19T09:03:26.767Z</time></trkpt><trkpt lat="44.7192919" lon="9.3777729"><ele>412.0</ele><time>2026-04-19T09:03:27.906Z</time></trkpt><trkpt lat="44.719073" lon="9.3776801"><ele>406.8</ele><time>2026-04-19T09:03:29.767Z</time></trkpt><trkpt lat="44.7190137" lon="9.3775436"><ele>401.6</ele><time>2026-04-19T09:03:30.816Z</time></trkpt><trkpt lat="44.7189703" lon="9.3773979"><ele>396.40000000000003</ele><time>2026-04-19T09:03:31.802Z</time></trkpt><trkpt lat="44.7189204" lon="9.377288"><ele>391.20000000000005</ele><time>2026-04-19T09:03:32.767Z</time></trkpt><trkpt lat="44.7188545" lon="9.3772248"><ele>386.0</ele><time>2026-04-19T09:03:33.738Z</time></trkpt><trkpt lat="44.7187758" lon="9.3772014"><ele>386.0</ele><time>2026-04-19T09:03:34.767Z</time></trkpt><trkpt lat="44.7186832" lon="9.3772117"><ele>386.0</ele><time>2026-04-19T09:03:35.792Z</time></trkpt><trkpt lat="44.7185791" lon="9.3772426"><ele>386.0</ele><time>2026-04-19T09:03:36.773Z</time></trkpt><trkpt lat="44.7184623" lon="9.3772805"><ele>386.0</ele><time>2026-04-19T09:03:37.786Z</time></trkpt><trkpt lat="44.7183614" lon="9.3773148"><ele>386.0</ele><time>2026-04-19T09:03:38.735Z</time></trkpt><trkpt lat="44.7182677" lon="9.3773395"><ele>385.8</ele><time>2026-04-19T09:03:39.717Z</time></trkpt><trkpt lat="44.7181443" lon="9.3773076"><ele>385.6</ele><time>2026-04-19T09:03:41.799Z</time></trkpt><trkpt lat="44.7180949" lon="9.3772483"><ele>385.4</ele><time>2026-04-19T09:03:42.856Z</time></trkpt><trkpt lat="44.7180798" lon="9.377143"><ele>385.2</ele><time>2026-04-19T09:03:43.808Z</time></trkpt><trkpt lat="44.7180735" lon="9.3770135"><ele>385.0</ele><time>2026-04-19T09:03:44.807Z</time></trkpt><trkpt lat="44.7180652" lon="9.3768665"><ele>385.0</ele><time>2026-04-19T09:03:45.832Z</time></trkpt><trkpt lat="44.7180389" lon="9.3767173"><ele>385.0</ele><time>2026-04-19T09:03:46.773Z</time></trkpt><trkpt lat="44.7179832" lon="9.3765714"><ele>385.0</ele><time>2026-04-19T09:03:47.768Z</time></trkpt><trkpt lat="44.7179052" lon="9.3764494"><ele>385.0</ele><time>2026-04-19T09:03:48.761Z</time></trkpt><trkpt lat="44.7178431" lon="9.3763273"><ele>388.5</ele><time>2026-04-19T09:03:49.817Z</time></trkpt><trkpt lat="44.7177952" lon="9.3761921"><ele>392.0</ele><time>2026-04-19T09:03:50.801Z</time></trkpt><trkpt lat="44.7177581" lon="9.3760393"><ele>395.5</ele><time>2026-04-19T09:03:51.786Z</time></trkpt><trkpt lat="44.7177115" lon="9.375887"><ele>399.0</ele><time>2026-04-19T09:03:52.883Z</time></trkpt><trkpt lat="44.7176211" lon="9.3757228"><ele>391.0</ele><time>2026-04-19T09:03:54.754Z</time></trkpt><trkpt lat="44.7175645" lon="9.3756611"><ele>383.0</ele><time>2026-04-19T09:03:55.808Z</time></trkpt><trkpt lat="44.7174973" lon="9.3756775"><ele>375.0</ele><time>2026-04-19T09:03:56.832Z</time></trkpt><trkpt lat="44.7174501" lon="9.3757589"><ele>367.0</ele><time>2026-04-19T09:03:57.778Z</time></trkpt><trkpt lat="44.7174267" lon="9.3758923"><ele>359.0</ele><time>2026-04-19T09:03:58.922Z</time></trkpt><trkpt lat="44.717496" lon="9.3761599"><ele>359.0</ele><time>2026-04-19T09:04:00.77Z</time></trkpt><trkpt lat="44.7175472" lon="9.3763511"><ele>359.0</ele><time>2026-04-19T09:04:01.78Z</time></trkpt><trkpt lat="44.7175813" lon="9.3765508"><ele>359.0</ele><time>2026-04-19T09:04:02.793Z</time></trkpt><trkpt lat="44.7175979" lon="9.376718"><ele>359.0</ele><time>2026-04-19T09:04:03.757Z</time></trkpt><trkpt lat="44.7176002" lon="9.3768665"><ele>358.0</ele><time>2026-04-19T09:04:04.794Z</time></trkpt><trkpt lat="44.7175799" lon="9.3770072"><ele>357.0</ele><time>2026-04-19T09:04:05.737Z</time></trkpt><trkpt lat="44.7175451" lon="9.3771353"><ele>356.0</ele><time>2026-04-19T09:04:06.775Z</time></trkpt><trkpt lat="44.7174951" lon="9.3772405"><ele>355.0</ele><time>2026-04-19T09:04:07.752Z</time></trkpt><trkpt lat="44.7174274" lon="9.3772988"><ele>354.0</ele><time>2026-04-19T09:04:08.798Z</time></trkpt><trkpt lat="44.7173631" lon="9.3773396"><ele>353.0</ele><time>2026-04-19T09:04:09.785Z</time></trkpt><trkpt lat="44.7172997" lon="9.3773697"><ele>353.0</ele><time>2026-04-19T09:04:10.78Z</time></trkpt><trkpt lat="44.7172249" lon="9.3774179"><ele>353.0</ele><time>2026-04-19T09:04:11.747Z</time></trkpt><trkpt lat="44.7171392" lon="9.3774852"><ele>353.0</ele><time>2026-04-19T09:04:12.764Z</time></trkpt><trkpt lat="44.7170606" lon="9.3775578"><ele>353.0</ele><time>2026-04-19T09:04:13.747Z</time></trkpt><trkpt lat="44.7169675" lon="9.37766"><ele>353.0</ele><time>2026-04-19T09:04:14.782Z</time></trkpt><trkpt lat="44.716855" lon="9.3777923"><ele>353.0</ele><time>2026-04-19T09:04:15.853Z</time></trkpt><trkpt lat="44.7166636" lon="9.3779749"><ele>353.0</ele><time>2026-04-19T09:04:17.833Z</time></trkpt><trkpt lat="44.7165752" lon="9.3780217"><ele>353.0</ele><time>2026-04-19T09:04:18.777Z</time></trkpt><trkpt lat="44.716473" lon="9.3780456"><ele>353.0</ele><time>2026-04-19T09:04:19.772Z</time></trkpt><trkpt lat="44.7163553" lon="9.3780518"><ele>353.0</ele><time>2026-04-19T09:04:20.783Z</time></trkpt><trkpt lat="44.7162276" lon="9.378037"><ele>353.0</ele><time>2026-04-19T09:04:21.765Z</time></trkpt><trkpt lat="44.7161024" lon="9.3780055"><ele>353.0</ele><time>2026-04-19T09:04:22.767Z</time></trkpt><trkpt lat="44.7159908" lon="9.3779605"><ele>353.0</ele><time>2026-04-19T09:04:23.8Z</time></trkpt><trkpt lat="44.7159083" lon="9.3778832"><ele>352.75</ele><time>2026-04-19T09:04:24.771Z</time></trkpt><trkpt lat="44.7158212" lon="9.3777603"><ele>352.5</ele><time>2026-04-19T09:04:25.82Z</time></trkpt><trkpt lat="44.7157354" lon="9.3776718"><ele>352.25</ele><time>2026-04-19T09:04:26.755Z</time></trkpt><trkpt lat="44.715623" lon="9.3775988"><ele>352.0</ele><time>2026-04-19T09:04:27.779Z</time></trkpt><trkpt lat="44.7155032" lon="9.3775498"><ele>352.0</ele><time>2026-04-19T09:04:28.773Z</time></trkpt><trkpt lat="44.7153733" lon="9.3775035"><ele>352.0</ele><time>2026-04-19T09:04:29.916Z</time></trkpt><trkpt lat="44.7151674" lon="9.3774065"><ele>352.0</ele><time>2026-04-19T09:04:31.824Z</time></trkpt><trkpt lat="44.7150825" lon="9.3773543"><ele>352.0</ele><time>2026-04-19T09:04:32.762Z</time></trkpt><trkpt lat="44.7149952" lon="9.3773068"><ele>348.5</ele><time>2026-04-19T09:04:33.789Z</time></trkpt><trkpt lat="44.7149108" lon="9.377286"><ele>345.0</ele><time>2026-04-19T09:04:34.79Z</time></trkpt><trkpt lat="44.7148217" lon="9.3772978"><ele>341.5</ele><time>2026-04-19T09:04:35.76Z</time></trkpt><trkpt lat="44.7147404" lon="9.3773102"><ele>338.0</ele><time>2026-04-19T09:04:36.758Z</time></trkpt><trkpt lat="44.7146687" lon="9.3773076"><ele>334.5</ele><time>2026-04-19T09:04:37.753Z</time></trkpt><trkpt lat="44.7145656" lon="9.3772606"><ele>331.0</ele><time>2026-04-19T09:04:39.775Z</time></trkpt><trkpt lat="44.7145113" lon="9.3771104"><ele>335.16666666666663</ele><time>2026-04-19T09:04:41.79Z</time></trkpt><trkpt lat="44.7144854" lon="9.377019"><ele>339.3333333333333</ele><time>2026-04-19T09:04:42.803Z</time></trkpt><trkpt lat="44.7144415" lon="9.3769554"><ele>343.5</ele><time>2026-04-19T09:04:43.732Z</time></trkpt><trkpt lat="44.7143779" lon="9.3769188"><ele>347.6666666666667</ele><time>2026-04-19T09:04:44.81Z</time></trkpt><trkpt lat="44.7142483" lon="9.3769078"><ele>351.83333333333337</ele><time>2026-04-19T09:04:46.767Z</time></trkpt><trkpt lat="44.7141799" lon="9.3769039"><ele>356.0</ele><time>2026-04-19T09:04:47.753Z</time></trkpt><trkpt lat="44.7141054" lon="9.3768975"><ele>355.99999999999994</ele><time>2026-04-19T09:04:48.783Z</time></trkpt><trkpt lat="44.714039" lon="9.3768962"><ele>356.0</ele><time>2026-04-19T09:04:49.759Z</time></trkpt><trkpt lat="44.7139622" lon="9.3769095"><ele>356.0</ele><time>2026-04-19T09:04:50.827Z</time></trkpt><trkpt lat="44.7138947" lon="9.3769277"><ele>356.0</ele><time>2026-04-19T09:04:51.753Z</time></trkpt><trkpt lat="44.7138193" lon="9.3769273"><ele>356.0</ele><time>2026-04-19T09:04:52.767Z</time></trkpt><trkpt lat="44.7137482" lon="9.3769117"><ele>355.99999999999994</ele><time>2026-04-19T09:04:53.741Z</time></trkpt><trkpt lat="44.7136831" lon="9.3768689"><ele>356.0</ele><time>2026-04-19T09:04:54.771Z</time></trkpt><trkpt lat="44.7136249" lon="9.3768089"><ele>353.1666666666667</ele><time>2026-04-19T09:04:55.776Z</time></trkpt><trkpt lat="44.7135707" lon="9.3767382"><ele>350.33333333333337</ele><time>2026-04-19T09:04:56.766Z</time></trkpt><trkpt lat="44.7135134" lon="9.376682"><ele>347.5</ele><time>2026-04-19T09:04:57.757Z</time></trkpt><trkpt lat="44.7134506" lon="9.3766437"><ele>344.6666666666667</ele><time>2026-04-19T09:04:58.775Z</time></trkpt><trkpt lat="44.7133854" lon="9.3766249"><ele>341.8333333333333</ele><time>2026-04-19T09:04:59.773Z</time></trkpt><trkpt lat="44.7132539" lon="9.3766113"><ele>339.0</ele><time>2026-04-19T09:05:01.775Z</time></trkpt><trkpt lat="44.713184" lon="9.3766093"><ele>339.0</ele><time>2026-04-19T09:05:02.77Z</time></trkpt><trkpt lat="44.7131185" lon="9.3766212"><ele>339.0</ele><time>2026-04-19T09:05:03.771Z</time></trkpt><trkpt lat="44.7129995" lon="9.3766801"><ele>339.0</ele><time>2026-04-19T09:05:05.761Z</time></trkpt><trkpt lat="44.712929" lon="9.3767003"><ele>339.0</ele><time>2026-04-19T09:05:06.781Z</time></trkpt><trkpt lat="44.7128565" lon="9.3767141"><ele>339.0</ele><time>2026-04-19T09:05:07.768Z</time></trkpt><trkpt lat="44.7127821" lon="9.3767144"><ele>339.0</ele><time>2026-04-19T09:05:08.84Z</time></trkpt><trkpt lat="44.7126502" lon="9.3767084"><ele>338.6</ele><time>2026-04-19T09:05:10.764Z</time></trkpt><trkpt lat="44.71258" lon="9.3767112"><ele>338.2</ele><time>2026-04-19T09:05:11.767Z</time></trkpt><trkpt lat="44.7125066" lon="9.3767137"><ele>337.8</ele><time>2026-04-19T09:05:12.804Z</time></trkpt><trkpt lat="44.7123799" lon="9.3767013"><ele>337.40000000000003</ele><time>2026-04-19T09:05:14.756Z</time></trkpt><trkpt lat="44.7122592" lon="9.3766935"><ele>337.0</ele><time>2026-04-19T09:05:16.769Z</time></trkpt><trkpt lat="44.7121444" lon="9.3766831"><ele>337.0</ele><time>2026-04-19T09:05:18.748Z</time></trkpt><trkpt lat="44.7120316" lon="9.3766719"><ele>337.0</ele><time>2026-04-19T09:05:20.723Z</time></trkpt><trkpt lat="44.7119141" lon="9.3767144"><ele>337.0</ele><time>2026-04-19T09:05:22.785Z</time></trkpt><trkpt lat="44.7118137" lon="9.3768147"><ele>337.0</ele><time>2026-04-19T09:05:24.769Z</time></trkpt><trkpt lat="44.7117678" lon="9.3768808"><ele>337.0</ele><time>2026-04-19T09:05:25.78Z</time></trkpt><trkpt lat="44.7117206" lon="9.3769439"><ele>337.14285714285717</ele><time>2026-04-19T09:05:26.804Z</time></trkpt><trkpt lat="44.7116726" lon="9.3770041"><ele>337.2857142857143</ele><time>2026-04-19T09:05:27.76Z</time></trkpt><trkpt lat="44.7116192" lon="9.3770632"><ele>337.42857142857144</ele><time>2026-04-19T09:05:28.751Z</time></trkpt><trkpt lat="44.7115547" lon="9.3771143"><ele>337.57142857142856</ele><time>2026-04-19T09:05:29.756Z</time></trkpt><trkpt lat="44.7114771" lon="9.3771387"><ele>337.7142857142857</ele><time>2026-04-19T09:05:30.833Z</time></trkpt><trkpt lat="44.711406" lon="9.3771276"><ele>337.8571428571429</ele><time>2026-04-19T09:05:31.778Z</time></trkpt><trkpt lat="44.711317" lon="9.3771151"><ele>338.0</ele><time>2026-04-19T09:05:32.764Z</time></trkpt><trkpt lat="44.7112317" lon="9.3771306"><ele>338.0</ele><time>2026-04-19T09:05:33.752Z</time></trkpt><trkpt lat="44.7111559" lon="9.3771728"><ele>338.0</ele><time>2026-04-19T09:05:34.772Z</time></trkpt><trkpt lat="44.7110907" lon="9.3772078"><ele>338.0</ele><time>2026-04-19T09:05:35.747Z</time></trkpt><trkpt lat="44.7110223" lon="9.3772508"><ele>338.0</ele><time>2026-04-19T09:05:36.785Z</time></trkpt><trkpt lat="44.7109001" lon="9.3773026"><ele>338.0</ele><time>2026-04-19T09:05:38.736Z</time></trkpt><trkpt lat="44.7108341" lon="9.3773218"><ele>338.0</ele><time>2026-04-19T09:05:39.773Z</time></trkpt><trkpt lat="44.7107673" lon="9.3773389"><ele>335.2</ele><time>2026-04-19T09:05:40.761Z</time></trkpt><trkpt lat="44.7106971" lon="9.3773615"><ele>332.4</ele><time>2026-04-19T09:05:41.91Z</time></trkpt><trkpt lat="44.7106467" lon="9.3774394"><ele>329.59999999999997</ele><time>2026-04-19T09:05:43.771Z</time></trkpt><trkpt lat="44.7106589" lon="9.3775849"><ele>326.79999999999995</ele><time>2026-04-19T09:05:45.792Z</time></trkpt><trkpt lat="44.7107137" lon="9.3777094"><ele>324.0</ele><time>2026-04-19T09:05:47.783Z</time></trkpt><trkpt lat="44.7107684" lon="9.3778337"><ele>324.0</ele><time>2026-04-19T09:05:49.786Z</time></trkpt><trkpt lat="44.7108056" lon="9.3779374"><ele>324.0</ele><time>2026-04-19T09:05:51.779Z</time></trkpt><trkpt lat="44.7108272" lon="9.3780262"><ele>324.0</ele><time>2026-04-19T09:05:53.84Z</time></trkpt><trkpt lat="44.7108341" lon="9.3781199"><ele>324.0</ele><time>2026-04-19T09:07:17.808Z</time></trkpt><trkpt lat="44.7108614" lon="9.3782862"><ele>324.0</ele><time>2026-04-19T09:07:24.015Z</time></trkpt><trkpt lat="44.7109324" lon="9.3784752"><ele>322.6666666666667</ele><time>2026-04-19T09:07:25.857Z</time></trkpt><trkpt lat="44.7109764" lon="9.3785638"><ele>321.3333333333333</ele><time>2026-04-19T09:07:26.824Z</time></trkpt><trkpt lat="44.7110124" lon="9.3786491"><ele>320.0</ele><time>2026-04-19T09:07:27.814Z</time></trkpt><trkpt lat="44.7110575" lon="9.3787441"><ele>318.66666666666663</ele><time>2026-04-19T09:07:28.829Z</time></trkpt><trkpt lat="44.7111109" lon="9.3788535"><ele>317.3333333333333</ele><time>2026-04-19T09:07:29.853Z</time></trkpt><trkpt lat="44.711161" lon="9.3789636"><ele>316.0</ele><time>2026-04-19T09:07:30.837Z</time></trkpt><trkpt lat="44.7112158" lon="9.3790785"><ele>315.40000000000003</ele><time>2026-04-19T09:07:31.862Z</time></trkpt><trkpt lat="44.7112653" lon="9.3791819"><ele>314.8</ele><time>2026-04-19T09:07:32.821Z</time></trkpt><trkpt lat="44.7113237" lon="9.3793043"><ele>314.20000000000005</ele><time>2026-04-19T09:07:33.813Z</time></trkpt><trkpt lat="44.7113824" lon="9.3794246"><ele>313.6</ele><time>2026-04-19T09:07:34.825Z</time></trkpt><trkpt lat="44.7114411" lon="9.3795486"><ele>313.0</ele><time>2026-04-19T09:07:35.831Z</time></trkpt><trkpt lat="44.7114927" lon="9.3796579"><ele>314.0</ele><time>2026-04-19T09:07:36.832Z</time></trkpt><trkpt lat="44.7115459" lon="9.3797563"><ele>315.0</ele><time>2026-04-19T09:07:37.839Z</time></trkpt><trkpt lat="44.7116209" lon="9.3798532"><ele>316.0</ele><time>2026-04-19T09:07:38.938Z</time></trkpt><trkpt lat="44.7116945" lon="9.379912"><ele>317.0</ele><time>2026-04-19T09:07:39.841Z</time></trkpt><trkpt lat="44.7117889" lon="9.3799642"><ele>318.0</ele><time>2026-04-19T09:07:40.863Z</time></trkpt><trkpt lat="44.7118776" lon="9.3799967"><ele>318.6666666666667</ele><time>2026-04-19T09:07:41.867Z</time></trkpt><trkpt lat="44.7119563" lon="9.3800053"><ele>319.3333333333333</ele><time>2026-04-19T09:07:42.801Z</time></trkpt><trkpt lat="44.7120355" lon="9.3800108"><ele>320.0</ele><time>2026-04-19T09:07:43.828Z</time></trkpt><trkpt lat="44.7121191" lon="9.3800271"><ele>320.66666666666663</ele><time>2026-04-19T09:07:44.822Z</time></trkpt><trkpt lat="44.7122076" lon="9.3800386"><ele>321.3333333333333</ele><time>2026-04-19T09:07:45.915Z</time></trkpt><trkpt lat="44.712289" lon="9.3800459"><ele>322.0</ele><time>2026-04-19T09:07:46.917Z</time></trkpt><trkpt lat="44.7124606" lon="9.3800641"><ele>322.0</ele><time>2026-04-19T09:07:48.82Z</time></trkpt><trkpt lat="44.7125444" lon="9.3800742"><ele>322.0</ele><time>2026-04-19T09:07:49.858Z</time></trkpt><trkpt lat="44.7126637" lon="9.3800885"><ele>322.0</ele><time>2026-04-19T09:07:51.878Z</time></trkpt><trkpt lat="44.7127712" lon="9.3801061"><ele>322.0</ele><time>2026-04-19T09:07:53.985Z</time></trkpt><trkpt lat="44.7128961" lon="9.3801372"><ele>322.0</ele><time>2026-04-19T09:07:55.807Z</time></trkpt><trkpt lat="44.7129646" lon="9.380161"><ele>321.40000000000003</ele><time>2026-04-19T09:07:56.834Z</time></trkpt><trkpt lat="44.7130448" lon="9.380188"><ele>320.8</ele><time>2026-04-19T09:07:57.854Z</time></trkpt><trkpt lat="44.7131278" lon="9.3802269"><ele>320.2</ele><time>2026-04-19T09:07:58.853Z</time></trkpt><trkpt lat="44.7132019" lon="9.3802689"><ele>319.6</ele><time>2026-04-19T09:07:59.821Z</time></trkpt><trkpt lat="44.7132767" lon="9.3803228"><ele>319.0</ele><time>2026-04-19T09:08:00.813Z</time></trkpt><trkpt lat="44.7133693" lon="9.3804549"><ele>319.79999999999995</ele><time>2026-04-19T09:08:02.813Z</time></trkpt><trkpt lat="44.7134469" lon="9.3805658"><ele>320.59999999999997</ele><time>2026-04-19T09:08:04.769Z</time></trkpt><trkpt lat="44.7134861" lon="9.380643"><ele>321.4</ele><time>2026-04-19T09:08:06.806Z</time></trkpt><trkpt lat="44.7134717" lon="9.3807515"><ele>322.2</ele><time>2026-04-19T09:08:08.96Z</time></trkpt><trkpt lat="44.7134008" lon="9.3808492"><ele>323.0</ele><time>2026-04-19T09:08:10.871Z</time></trkpt><trkpt lat="44.7133199" lon="9.3809811"><ele>323.0</ele><time>2026-04-19T09:08:12.804Z</time></trkpt><trkpt lat="44.7132713" lon="9.3810812"><ele>323.0</ele><time>2026-04-19T09:08:13.805Z</time></trkpt><trkpt lat="44.7132173" lon="9.3811876"><ele>323.0</ele><time>2026-04-19T09:08:14.779Z</time></trkpt><trkpt lat="44.713139" lon="9.381306"><ele>323.0</ele><time>2026-04-19T09:08:15.97Z</time></trkpt><trkpt lat="44.7130374" lon="9.3814671"><ele>323.0</ele><time>2026-04-19T09:08:17.838Z</time></trkpt><trkpt lat="44.71298" lon="9.3815654"><ele>323.5</ele><time>2026-04-19T09:08:18.89Z</time></trkpt><trkpt lat="44.7129227" lon="9.3816571"><ele>324.0</ele><time>2026-04-19T09:08:19.806Z</time></trkpt><trkpt lat="44.7128601" lon="9.381747"><ele>324.5</ele><time>2026-04-19T09:08:20.785Z</time></trkpt><trkpt lat="44.7128027" lon="9.3818361"><ele>325.0</ele><time>2026-04-19T09:08:21.804Z</time></trkpt><trkpt lat="44.7127511" lon="9.3819346"><ele>325.5</ele><time>2026-04-19T09:08:22.776Z</time></trkpt><trkpt lat="44.7127008" lon="9.3820492"><ele>326.0</ele><time>2026-04-19T09:08:23.862Z</time></trkpt><trkpt lat="44.7126626" lon="9.3821682"><ele>328.20000000000005</ele><time>2026-04-19T09:08:24.831Z</time></trkpt><trkpt lat="44.71263" lon="9.3823088"><ele>330.40000000000003</ele><time>2026-04-19T09:08:25.899Z</time></trkpt><trkpt lat="44.7125976" lon="9.3824324"><ele>332.6</ele><time>2026-04-19T09:08:26.809Z</time></trkpt><trkpt lat="44.712565" lon="9.3825592"><ele>334.8</ele><time>2026-04-19T09:08:27.755Z</time></trkpt><trkpt lat="44.7125224" lon="9.3827144"><ele>337.0</ele><time>2026-04-19T09:08:28.799Z</time></trkpt><trkpt lat="44.7124843" lon="9.382857"><ele>337.0</ele><time>2026-04-19T09:08:29.856Z</time></trkpt><trkpt lat="44.7124534" lon="9.382955"><ele>337.0</ele><time>2026-04-19T09:08:30.826Z</time></trkpt><trkpt lat="44.7124464" lon="9.3830516"><ele>337.0</ele><time>2026-04-19T09:08:32.823Z</time></trkpt><trkpt lat="44.7124301" lon="9.383151"><ele>337.0</ele><time>2026-04-19T09:08:33.823Z</time></trkpt><trkpt lat="44.7124081" lon="9.3832766"><ele>337.0</ele><time>2026-04-19T09:08:34.813Z</time></trkpt><trkpt lat="44.7123902" lon="9.3834354"><ele>337.0</ele><time>2026-04-19T09:08:35.849Z</time></trkpt><trkpt lat="44.7123837" lon="9.3835834"><ele>338.40000000000003</ele><time>2026-04-19T09:08:36.787Z</time></trkpt><trkpt lat="44.7123737" lon="9.3837386"><ele>339.8</ele><time>2026-04-19T09:08:37.97Z</time></trkpt><trkpt lat="44.71236" lon="9.3839488"><ele>341.2</ele><time>2026-04-19T09:08:39.803Z</time></trkpt><trkpt lat="44.712343" lon="9.3840568"><ele>342.6</ele><time>2026-04-19T09:08:40.797Z</time></trkpt><trkpt lat="44.7123052" lon="9.3841627"><ele>344.0</ele><time>2026-04-19T09:08:41.842Z</time></trkpt><trkpt lat="44.7122439" lon="9.3842441"><ele>344.6</ele><time>2026-04-19T09:08:42.813Z</time></trkpt><trkpt lat="44.7121691" lon="9.3843146"><ele>345.2</ele><time>2026-04-19T09:08:43.823Z</time></trkpt><trkpt lat="44.7120829" lon="9.3843872"><ele>345.8</ele><time>2026-04-19T09:08:44.851Z</time></trkpt><trkpt lat="44.7119928" lon="9.3844617"><ele>346.40000000000003</ele><time>2026-04-19T09:08:45.882Z</time></trkpt><trkpt lat="44.7118971" lon="9.3845412"><ele>347.0</ele><time>2026-04-19T09:08:46.924Z</time></trkpt><trkpt lat="44.7117178" lon="9.3846856"><ele>348.25</ele><time>2026-04-19T09:08:48.834Z</time></trkpt><trkpt lat="44.7116254" lon="9.3847683"><ele>349.5</ele><time>2026-04-19T09:08:49.818Z</time></trkpt><trkpt lat="44.711528" lon="9.3848483"><ele>350.75</ele><time>2026-04-19T09:08:50.812Z</time></trkpt><trkpt lat="44.7114063" lon="9.3849271"><ele>352.0</ele><time>2026-04-19T09:08:51.943Z</time></trkpt><trkpt lat="44.7112978" lon="9.3849913"><ele>352.0</ele><time>2026-04-19T09:08:52.926Z</time></trkpt><trkpt lat="44.7111842" lon="9.3850442"><ele>352.0</ele><time>2026-04-19T09:08:53.907Z</time></trkpt><trkpt lat="44.711091" lon="9.3850878"><ele>352.0</ele><time>2026-04-19T09:08:54.826Z</time></trkpt><trkpt lat="44.7109806" lon="9.3851489"><ele>352.0</ele><time>2026-04-19T09:08:55.906Z</time></trkpt><trkpt lat="44.710879" lon="9.3851951"><ele>352.0</ele><time>2026-04-19T09:08:56.849Z</time></trkpt><trkpt lat="44.7107792" lon="9.3852429"><ele>353.0</ele><time>2026-04-19T09:08:57.83Z</time></trkpt><trkpt lat="44.7106639" lon="9.3852993"><ele>354.0</ele><time>2026-04-19T09:08:58.911Z</time></trkpt><trkpt lat="44.7105469" lon="9.3853623"><ele>355.0</ele><time>2026-04-19T09:08:59.968Z</time></trkpt><trkpt lat="44.7104403" lon="9.385411"><ele>356.0</ele><time>2026-04-19T09:09:00.908Z</time></trkpt><trkpt lat="44.7103175" lon="9.3854354"><ele>356.33333333333337</ele><time>2026-04-19T09:09:01.93Z</time></trkpt><trkpt lat="44.7100828" lon="9.3854192"><ele>356.6666666666667</ele><time>2026-04-19T09:09:03.834Z</time></trkpt><trkpt lat="44.7099727" lon="9.3854296"><ele>357.0</ele><time>2026-04-19T09:09:04.821Z</time></trkpt><trkpt lat="44.7098607" lon="9.3854857"><ele>358.20000000000005</ele><time>2026-04-19T09:09:05.856Z</time></trkpt><trkpt lat="44.7097721" lon="9.385567"><ele>359.4</ele><time>2026-04-19T09:09:06.802Z</time></trkpt><trkpt lat="44.7096966" lon="9.3856794"><ele>360.6</ele><time>2026-04-19T09:09:07.795Z</time></trkpt><trkpt lat="44.7096228" lon="9.3858002"><ele>361.79999999999995</ele><time>2026-04-19T09:09:08.795Z</time></trkpt><trkpt lat="44.7095401" lon="9.3859216"><ele>363.0</ele><time>2026-04-19T09:09:09.855Z</time></trkpt><trkpt lat="44.7094688" lon="9.3860342"><ele>364.1666666666667</ele><time>2026-04-19T09:09:10.842Z</time></trkpt><trkpt lat="44.7093883" lon="9.3861387"><ele>365.3333333333333</ele><time>2026-04-19T09:09:11.831Z</time></trkpt><trkpt lat="44.7093114" lon="9.3862154"><ele>366.5</ele><time>2026-04-19T09:09:12.811Z</time></trkpt><trkpt lat="44.7092335" lon="9.386248"><ele>367.66666666666663</ele><time>2026-04-19T09:09:13.824Z</time></trkpt><trkpt lat="44.7091679" lon="9.3862151"><ele>368.8333333333333</ele><time>2026-04-19T09:09:14.852Z</time></trkpt><trkpt lat="44.7091168" lon="9.3861336"><ele>370.0</ele><time>2026-04-19T09:09:15.802Z</time></trkpt><trkpt lat="44.7091134" lon="9.3860242"><ele>370.0</ele><time>2026-04-19T09:09:16.854Z</time></trkpt><trkpt lat="44.7091625" lon="9.3858938"><ele>370.0</ele><time>2026-04-19T09:09:17.819Z</time></trkpt><trkpt lat="44.7092179" lon="9.3857374"><ele>370.0</ele><time>2026-04-19T09:09:19.088Z</time></trkpt><trkpt lat="44.7092014" lon="9.3855878"><ele>370.0</ele><time>2026-04-19T09:09:20.812Z</time></trkpt><trkpt lat="44.7091528" lon="9.3855311"><ele>370.0</ele><time>2026-04-19T09:09:21.808Z</time></trkpt><trkpt lat="44.7090789" lon="9.3855351"><ele>370.0</ele><time>2026-04-19T09:09:22.791Z</time></trkpt><trkpt lat="44.7090068" lon="9.3856008"><ele>370.0</ele><time>2026-04-19T09:09:23.81Z</time></trkpt><trkpt lat="44.7089296" lon="9.3857159"><ele>370.0</ele><time>2026-04-19T09:09:24.832Z</time></trkpt><trkpt lat="44.708857" lon="9.3857893"><ele>370.0</ele><time>2026-04-19T09:09:25.897Z</time></trkpt><trkpt lat="44.7087273" lon="9.3857559"><ele>370.0</ele><time>2026-04-19T09:09:27.854Z</time></trkpt><trkpt lat="44.7086607" lon="9.3856543"><ele>370.0</ele><time>2026-04-19T09:09:28.779Z</time></trkpt><trkpt lat="44.7086053" lon="9.3855293"><ele>370.0</ele><time>2026-04-19T09:09:29.826Z</time></trkpt><trkpt lat="44.7085377" lon="9.3854087"><ele>370.0</ele><time>2026-04-19T09:09:30.851Z</time></trkpt><trkpt lat="44.7084652" lon="9.3853267"><ele>370.0</ele><time>2026-04-19T09:09:31.766Z</time></trkpt><trkpt lat="44.7083801" lon="9.3852921"><ele>370.0</ele><time>2026-04-19T09:09:32.838Z</time></trkpt><trkpt lat="44.7083158" lon="9.3853343"><ele>371.0</ele><time>2026-04-19T09:09:33.858Z</time></trkpt><trkpt lat="44.7082896" lon="9.3854883"><ele>372.0</ele><time>2026-04-19T09:09:35.83Z</time></trkpt><trkpt lat="44.7083328" lon="9.3855902"><ele>373.0</ele><time>2026-04-19T09:09:36.805Z</time></trkpt><trkpt lat="44.7083899" lon="9.3856933"><ele>374.0</ele><time>2026-04-19T09:09:37.809Z</time></trkpt><trkpt lat="44.7084344" lon="9.385825"><ele>375.0</ele><time>2026-04-19T09:09:38.829Z</time></trkpt><trkpt lat="44.7084712" lon="9.3859799"><ele>374.0</ele><time>2026-04-19T09:09:39.863Z</time></trkpt><trkpt lat="44.708527" lon="9.3861035"><ele>373.0</ele><time>2026-04-19T09:09:40.81Z</time></trkpt><trkpt lat="44.7086053" lon="9.3862014"><ele>372.0</ele><time>2026-04-19T09:09:41.852Z</time></trkpt><trkpt lat="44.7086502" lon="9.3862761"><ele>371.0</ele><time>2026-04-19T09:09:42.804Z</time></trkpt><trkpt lat="44.7086418" lon="9.3864207"><ele>370.0</ele><time>2026-04-19T09:09:44.772Z</time></trkpt><trkpt lat="44.7085254" lon="9.3864233"><ele>374.25</ele><time>2026-04-19T09:09:46.802Z</time></trkpt><trkpt lat="44.7084437" lon="9.3863374"><ele>378.5</ele><time>2026-04-19T09:09:47.78Z</time></trkpt><trkpt lat="44.7083492" lon="9.3862249"><ele>382.75</ele><time>2026-04-19T09:09:48.793Z</time></trkpt><trkpt lat="44.7082564" lon="9.3860969"><ele>387.0</ele><time>2026-04-19T09:09:49.805Z</time></trkpt><trkpt lat="44.7081652" lon="9.3859585"><ele>387.0</ele><time>2026-04-19T09:09:50.819Z</time></trkpt><trkpt lat="44.7080686" lon="9.3858242"><ele>387.0</ele><time>2026-04-19T09:09:51.833Z</time></trkpt><trkpt lat="44.7079726" lon="9.385703"><ele>387.0</ele><time>2026-04-19T09:09:52.853Z</time></trkpt><trkpt lat="44.70787" lon="9.385586"><ele>387.0</ele><time>2026-04-19T09:09:53.861Z</time></trkpt><trkpt lat="44.707778" lon="9.3854715"><ele>389.5</ele><time>2026-04-19T09:09:54.878Z</time></trkpt><trkpt lat="44.7076093" lon="9.3852516"><ele>392.0</ele><time>2026-04-19T09:09:56.872Z</time></trkpt><trkpt lat="44.7075552" lon="9.3851523"><ele>394.5</ele><time>2026-04-19T09:09:57.781Z</time></trkpt><trkpt lat="44.7075092" lon="9.3850566"><ele>397.0</ele><time>2026-04-19T09:09:58.769Z</time></trkpt><trkpt lat="44.70746" lon="9.3849681"><ele>397.0</ele><time>2026-04-19T09:09:59.785Z</time></trkpt><trkpt lat="44.7073947" lon="9.3848758"><ele>397.0</ele><time>2026-04-19T09:10:00.82Z</time></trkpt><trkpt lat="44.7073261" lon="9.3848244"><ele>397.0</ele><time>2026-04-19T09:10:01.789Z</time></trkpt><trkpt lat="44.7072441" lon="9.3848104"><ele>397.0</ele><time>2026-04-19T09:10:02.808Z</time></trkpt><trkpt lat="44.7071504" lon="9.3848413"><ele>397.0</ele><time>2026-04-19T09:10:03.797Z</time></trkpt><trkpt lat="44.7070588" lon="9.3849082"><ele>397.0</ele><time>2026-04-19T09:10:04.803Z</time></trkpt><trkpt lat="44.7069554" lon="9.384983"><ele>397.0</ele><time>2026-04-19T09:10:05.815Z</time></trkpt><trkpt lat="44.7068638" lon="9.3850478"><ele>397.0</ele><time>2026-04-19T09:10:06.809Z</time></trkpt><trkpt lat="44.7067741" lon="9.3851346"><ele>397.0</ele><time>2026-04-19T09:10:07.928Z</time></trkpt><trkpt lat="44.7066635" lon="9.3853185"><ele>397.25</ele><time>2026-04-19T09:10:09.826Z</time></trkpt><trkpt lat="44.7066389" lon="9.3854525"><ele>397.5</ele><time>2026-04-19T09:10:10.814Z</time></trkpt><trkpt lat="44.706629" lon="9.385608"><ele>397.75</ele><time>2026-04-19T09:10:11.964Z</time></trkpt><trkpt lat="44.706576" lon="9.3858364"><ele>398.0</ele><time>2026-04-19T09:10:13.823Z</time></trkpt><trkpt lat="44.7065088" lon="9.3859102"><ele>400.2</ele><time>2026-04-19T09:10:14.798Z</time></trkpt><trkpt lat="44.7064216" lon="9.3859567"><ele>402.4</ele><time>2026-04-19T09:10:15.828Z</time></trkpt><trkpt lat="44.7063288" lon="9.3859723"><ele>404.59999999999997</ele><time>2026-04-19T09:10:16.826Z</time></trkpt><trkpt lat="44.7062324" lon="9.3859614"><ele>406.79999999999995</ele><time>2026-04-19T09:10:17.827Z</time></trkpt><trkpt lat="44.7061333" lon="9.3859209"><ele>409.0</ele><time>2026-04-19T09:10:18.808Z</time></trkpt><trkpt lat="44.7060339" lon="9.3858532"><ele>409.0</ele><time>2026-04-19T09:10:19.804Z</time></trkpt><trkpt lat="44.7059283" lon="9.3857656"><ele>409.0</ele><time>2026-04-19T09:10:20.842Z</time></trkpt><trkpt lat="44.7058338" lon="9.3856848"><ele>409.0</ele><time>2026-04-19T09:10:21.817Z</time></trkpt><trkpt lat="44.7057388" lon="9.3856208"><ele>409.0</ele><time>2026-04-19T09:10:22.841Z</time></trkpt><trkpt lat="44.705643" lon="9.3855901"><ele>409.0</ele><time>2026-04-19T09:10:23.837Z</time></trkpt><trkpt lat="44.7055383" lon="9.3855871"><ele>409.0</ele><time>2026-04-19T09:10:24.844Z</time></trkpt><trkpt lat="44.7054291" lon="9.3855927"><ele>409.0</ele><time>2026-04-19T09:10:25.855Z</time></trkpt><trkpt lat="44.7053108" lon="9.3856192"><ele>409.0</ele><time>2026-04-19T09:10:26.964Z</time></trkpt><trkpt lat="44.7051317" lon="9.385758"><ele>409.0</ele><time>2026-04-19T09:10:28.956Z</time></trkpt><trkpt lat="44.7050819" lon="9.3858513"><ele>409.83333333333337</ele><time>2026-04-19T09:10:29.875Z</time></trkpt><trkpt lat="44.7050472" lon="9.3859586"><ele>410.6666666666667</ele><time>2026-04-19T09:10:30.821Z</time></trkpt><trkpt lat="44.7050264" lon="9.3860908"><ele>411.5</ele><time>2026-04-19T09:10:31.907Z</time></trkpt><trkpt lat="44.7050266" lon="9.3862161"><ele>412.33333333333337</ele><time>2026-04-19T09:10:32.875Z</time></trkpt><trkpt lat="44.7050464" lon="9.3863451"><ele>413.1666666666667</ele><time>2026-04-19T09:10:33.884Z</time></trkpt><trkpt lat="44.7050825" lon="9.3864472"><ele>414.0</ele><time>2026-04-19T09:10:34.857Z</time></trkpt><trkpt lat="44.7051411" lon="9.386528"><ele>416.0</ele><time>2026-04-19T09:10:35.819Z</time></trkpt><trkpt lat="44.7052284" lon="9.3865768"><ele>418.0</ele><time>2026-04-19T09:10:36.834Z</time></trkpt><trkpt lat="44.7053444" lon="9.3865859"><ele>420.0</ele><time>2026-04-19T09:10:37.906Z</time></trkpt><trkpt lat="44.7054506" lon="9.3865558"><ele>422.0</ele><time>2026-04-19T09:10:38.873Z</time></trkpt><trkpt lat="44.7055366" lon="9.3865104"><ele>424.0</ele><time>2026-04-19T09:10:39.88Z</time></trkpt><trkpt lat="44.7056102" lon="9.3864986"><ele>424.0</ele><time>2026-04-19T09:10:40.969Z</time></trkpt><trkpt lat="44.7056754" lon="9.3865521"><ele>424.0</ele><time>2026-04-19T09:10:42.038Z</time></trkpt><trkpt lat="44.7056536" lon="9.3867229"><ele>424.0</ele><time>2026-04-19T09:10:43.85Z</time></trkpt><trkpt lat="44.7055773" lon="9.3868255"><ele>424.0</ele><time>2026-04-19T09:10:44.866Z</time></trkpt><trkpt lat="44.7054944" lon="9.3869258"><ele>424.0</ele><time>2026-04-19T09:10:45.824Z</time></trkpt><trkpt lat="44.7053774" lon="9.3869863"><ele>424.25</ele><time>2026-04-19T09:10:46.962Z</time></trkpt><trkpt lat="44.7051949" lon="9.3869702"><ele>424.5</ele><time>2026-04-19T09:10:48.795Z</time></trkpt><trkpt lat="44.705112" lon="9.3869869"><ele>424.75</ele><time>2026-04-19T09:10:49.895Z</time></trkpt><trkpt lat="44.7050404" lon="9.3870397"><ele>425.0</ele><time>2026-04-19T09:10:50.843Z</time></trkpt><trkpt lat="44.704949" lon="9.3871351"><ele>426.75</ele><time>2026-04-19T09:10:51.913Z</time></trkpt><trkpt lat="44.7048604" lon="9.3871921"><ele>428.5</ele><time>2026-04-19T09:10:52.831Z</time></trkpt><trkpt lat="44.7047186" lon="9.3872435"><ele>430.25</ele><time>2026-04-19T09:10:53.794Z</time></trkpt><trkpt lat="44.7045488" lon="9.3872605"><ele>432.0</ele><time>2026-04-19T09:10:54.818Z</time></trkpt><trkpt lat="44.7044062" lon="9.3872548"><ele>432.0</ele><time>2026-04-19T09:10:55.813Z</time></trkpt><trkpt lat="44.7042828" lon="9.3872208"><ele>432.0</ele><time>2026-04-19T09:10:56.813Z</time></trkpt><trkpt lat="44.7041573" lon="9.3871723"><ele>432.0</ele><time>2026-04-19T09:10:57.876Z</time></trkpt><trkpt lat="44.7040579" lon="9.3871334"><ele>432.0</ele><time>2026-04-19T09:10:58.785Z</time></trkpt><trkpt lat="44.703962" lon="9.387116"><ele>432.0</ele><time>2026-04-19T09:10:59.766Z</time></trkpt><trkpt lat="44.7038854" lon="9.3871248"><ele>432.0</ele><time>2026-04-19T09:11:00.83Z</time></trkpt><trkpt lat="44.7038003" lon="9.3873626"><ele>432.0</ele><time>2026-04-19T09:11:02.933Z</time></trkpt><trkpt lat="44.7037664" lon="9.3875165"><ele>432.0</ele><time>2026-04-19T09:11:03.845Z</time></trkpt><trkpt lat="44.7037242" lon="9.3876814"><ele>432.0</ele><time>2026-04-19T09:11:04.81Z</time></trkpt><trkpt lat="44.7036748" lon="9.3878463"><ele>432.0</ele><time>2026-04-19T09:11:05.836Z</time></trkpt><trkpt lat="44.7036274" lon="9.3879947"><ele>432.0</ele><time>2026-04-19T09:11:06.787Z</time></trkpt><trkpt lat="44.7035738" lon="9.3881679"><ele>432.0</ele><time>2026-04-19T09:11:07.953Z</time></trkpt><trkpt lat="44.7034836" lon="9.3884374"><ele>433.40000000000003</ele><time>2026-04-19T09:11:09.781Z</time></trkpt><trkpt lat="44.7034268" lon="9.3885774"><ele>434.80000000000007</ele><time>2026-04-19T09:11:10.795Z</time></trkpt><trkpt lat="44.7033708" lon="9.3887112"><ele>436.2</ele><time>2026-04-19T09:11:11.779Z</time></trkpt><trkpt lat="44.7033047" lon="9.388831"><ele>437.6</ele><time>2026-04-19T09:11:12.782Z</time></trkpt><trkpt lat="44.7032427" lon="9.3889319"><ele>439.0</ele><time>2026-04-19T09:11:13.797Z</time></trkpt><trkpt lat="44.7031915" lon="9.3890112"><ele>440.50000000000006</ele><time>2026-04-19T09:11:14.8Z</time></trkpt><trkpt lat="44.7031467" lon="9.3890896"><ele>442.0</ele><time>2026-04-19T09:11:15.793Z</time></trkpt><trkpt lat="44.7031324" lon="9.3892596"><ele>443.5</ele><time>2026-04-19T09:11:17.818Z</time></trkpt><trkpt lat="44.7031849" lon="9.3893252"><ele>445.0</ele><time>2026-04-19T09:11:18.841Z</time></trkpt><trkpt lat="44.703258" lon="9.3893629"><ele>446.50000000000006</ele><time>2026-04-19T09:11:19.806Z</time></trkpt><trkpt lat="44.7033595" lon="9.3893808"><ele>448.0</ele><time>2026-04-19T09:11:20.808Z</time></trkpt><trkpt lat="44.7034795" lon="9.3894097"><ele>447.33333333333337</ele><time>2026-04-19T09:11:21.848Z</time></trkpt><trkpt lat="44.7037179" lon="9.3895877"><ele>446.66666666666663</ele><time>2026-04-19T09:11:23.813Z</time></trkpt><trkpt lat="44.7038305" lon="9.3896893"><ele>446.0</ele><time>2026-04-19T09:11:24.804Z</time></trkpt><trkpt lat="44.7039388" lon="9.3897564"><ele>446.25</ele><time>2026-04-19T09:11:25.799Z</time></trkpt><trkpt lat="44.7040501" lon="9.3897704"><ele>446.5</ele><time>2026-04-19T09:11:26.814Z</time></trkpt><trkpt lat="44.7041739" lon="9.3897401"><ele>446.75</ele><time>2026-04-19T09:11:27.83Z</time></trkpt><trkpt lat="44.7043009" lon="9.3896949"><ele>447.0</ele><time>2026-04-19T09:11:28.874Z</time></trkpt><trkpt lat="44.7044162" lon="9.3896648"><ele>447.0</ele><time>2026-04-19T09:11:29.839Z</time></trkpt><trkpt lat="44.704528" lon="9.3896671"><ele>447.0</ele><time>2026-04-19T09:11:30.79Z</time></trkpt><trkpt lat="44.7046519" lon="9.3897182"><ele>447.0</ele><time>2026-04-19T09:11:31.798Z</time></trkpt><trkpt lat="44.7047798" lon="9.3898082"><ele>447.0</ele><time>2026-04-19T09:11:32.818Z</time></trkpt><trkpt lat="44.7049033" lon="9.3898967"><ele>453.0</ele><time>2026-04-19T09:11:33.767Z</time></trkpt><trkpt lat="44.7050403" lon="9.3899931"><ele>459.0</ele><time>2026-04-19T09:11:34.847Z</time></trkpt><trkpt lat="44.7051505" lon="9.3900607"><ele>465.0</ele><time>2026-04-19T09:11:35.78Z</time></trkpt><trkpt lat="44.7052684" lon="9.3901177"><ele>471.0</ele><time>2026-04-19T09:11:36.762Z</time></trkpt><trkpt lat="44.7053943" lon="9.3901361"><ele>472.5</ele><time>2026-04-19T09:11:37.826Z</time></trkpt><trkpt lat="44.7055041" lon="9.3900927"><ele>474.0</ele><time>2026-04-19T09:11:38.786Z</time></trkpt><trkpt lat="44.7056087" lon="9.3899958"><ele>475.5</ele><time>2026-04-19T09:11:39.838Z</time></trkpt><trkpt lat="44.7057059" lon="9.389869"><ele>477.0</ele><time>2026-04-19T09:11:40.811Z</time></trkpt><trkpt lat="44.7058239" lon="9.3896818"><ele>474.5</ele><time>2026-04-19T09:11:42.071Z</time></trkpt><trkpt lat="44.7059824" lon="9.3894427"><ele>472.0</ele><time>2026-04-19T09:11:43.803Z</time></trkpt><trkpt lat="44.70607" lon="9.3893461"><ele>469.5</ele><time>2026-04-19T09:11:44.821Z</time></trkpt><trkpt lat="44.7061637" lon="9.3892836"><ele>467.0</ele><time>2026-04-19T09:11:45.831Z</time></trkpt><trkpt lat="44.7062565" lon="9.3893029"><ele>467.0</ele><time>2026-04-19T09:11:46.769Z</time></trkpt><trkpt lat="44.7063514" lon="9.3893911"><ele>467.0</ele><time>2026-04-19T09:11:47.758Z</time></trkpt><trkpt lat="44.7064536" lon="9.3895072"><ele>467.0</ele><time>2026-04-19T09:11:48.841Z</time></trkpt><trkpt lat="44.7065415" lon="9.3896082"><ele>467.0</ele><time>2026-04-19T09:11:49.767Z</time></trkpt><trkpt lat="44.706639" lon="9.3897156"><ele>469.0</ele><time>2026-04-19T09:11:50.794Z</time></trkpt><trkpt lat="44.7067326" lon="9.3898305"><ele>471.0</ele><time>2026-04-19T09:11:51.78Z</time></trkpt><trkpt lat="44.7068297" lon="9.3899739"><ele>473.0</ele><time>2026-04-19T09:11:52.841Z</time></trkpt><trkpt lat="44.7069149" lon="9.3901189"><ele>475.0</ele><time>2026-04-19T09:11:53.821Z</time></trkpt><trkpt lat="44.7070004" lon="9.3902707"><ele>475.0</ele><time>2026-04-19T09:11:54.858Z</time></trkpt><trkpt lat="44.7070662" lon="9.3903907"><ele>475.0</ele><time>2026-04-19T09:11:55.81Z</time></trkpt><trkpt lat="44.7071206" lon="9.3904915"><ele>475.0</ele><time>2026-04-19T09:11:56.807Z</time></trkpt><trkpt lat="44.7071575" lon="9.3906142"><ele>475.0</ele><time>2026-04-19T09:11:57.816Z</time></trkpt><trkpt lat="44.7071591" lon="9.3907483"><ele>475.0</ele><time>2026-04-19T09:11:58.832Z</time></trkpt><trkpt lat="44.707116" lon="9.3908769"><ele>474.25</ele><time>2026-04-19T09:11:59.812Z</time></trkpt><trkpt lat="44.7070367" lon="9.3910189"><ele>473.5</ele><time>2026-04-19T09:12:00.871Z</time></trkpt><trkpt lat="44.7069525" lon="9.3911507"><ele>472.75</ele><time>2026-04-19T09:12:01.85Z</time></trkpt><trkpt lat="44.7068594" lon="9.3912826"><ele>472.0</ele><time>2026-04-19T09:12:02.83Z</time></trkpt><trkpt lat="44.706757" lon="9.3914126"><ele>475.0</ele><time>2026-04-19T09:12:03.819Z</time></trkpt><trkpt lat="44.706635" lon="9.3915205"><ele>478.0</ele><time>2026-04-19T09:12:04.854Z</time></trkpt><trkpt lat="44.7065226" lon="9.3916053"><ele>481.0</ele><time>2026-04-19T09:12:05.829Z</time></trkpt><trkpt lat="44.7064132" lon="9.3916947"><ele>484.0</ele><time>2026-04-19T09:12:06.83Z</time></trkpt><trkpt lat="44.7063064" lon="9.3917788"><ele>484.0</ele><time>2026-04-19T09:12:07.853Z</time></trkpt><trkpt lat="44.7062142" lon="9.3918542"><ele>484.0</ele><time>2026-04-19T09:12:08.81Z</time></trkpt><trkpt lat="44.7061169" lon="9.3919296"><ele>484.0</ele><time>2026-04-19T09:12:09.848Z</time></trkpt><trkpt lat="44.7060375" lon="9.3919835"><ele>484.0</ele><time>2026-04-19T09:12:10.799Z</time></trkpt><trkpt lat="44.7059727" lon="9.3920323"><ele>484.0</ele><time>2026-04-19T09:12:11.806Z</time></trkpt><trkpt lat="44.7059115" lon="9.392084"><ele>487.2</ele><time>2026-04-19T09:12:12.831Z</time></trkpt><trkpt lat="44.7058502" lon="9.3921472"><ele>490.4</ele><time>2026-04-19T09:12:13.859Z</time></trkpt><trkpt lat="44.7057861" lon="9.3922266"><ele>493.6</ele><time>2026-04-19T09:12:14.816Z</time></trkpt><trkpt lat="44.7057278" lon="9.3923277"><ele>496.8</ele><time>2026-04-19T09:12:15.858Z</time></trkpt><trkpt lat="44.7056843" lon="9.3924347"><ele>500.0</ele><time>2026-04-19T09:12:16.795Z</time></trkpt><trkpt lat="44.705637" lon="9.3925727"><ele>500.0</ele><time>2026-04-19T09:12:17.806Z</time></trkpt><trkpt lat="44.7055928" lon="9.3927079"><ele>500.0</ele><time>2026-04-19T09:12:18.816Z</time></trkpt><trkpt lat="44.7055392" lon="9.3928422"><ele>500.0</ele><time>2026-04-19T09:12:19.796Z</time></trkpt><trkpt lat="44.7054743" lon="9.3929801"><ele>500.0</ele><time>2026-04-19T09:12:20.789Z</time></trkpt><trkpt lat="44.7053947" lon="9.3931251"><ele>498.0</ele><time>2026-04-19T09:12:21.797Z</time></trkpt><trkpt lat="44.7053171" lon="9.3932712"><ele>496.0</ele><time>2026-04-19T09:12:22.793Z</time></trkpt><trkpt lat="44.7052362" lon="9.3934073"><ele>494.0</ele><time>2026-04-19T09:12:23.776Z</time></trkpt><trkpt lat="44.7051547" lon="9.3935528"><ele>492.0</ele><time>2026-04-19T09:12:24.804Z</time></trkpt><trkpt lat="44.7050788" lon="9.3936976"><ele>497.66666666666663</ele><time>2026-04-19T09:12:25.831Z</time></trkpt><trkpt lat="44.7050111" lon="9.393834"><ele>503.3333333333333</ele><time>2026-04-19T09:12:26.777Z</time></trkpt><trkpt lat="44.704919" lon="9.3939908"><ele>509.0</ele><time>2026-04-19T09:12:27.917Z</time></trkpt><trkpt lat="44.7047513" lon="9.39419"><ele>509.0</ele><time>2026-04-19T09:12:29.802Z</time></trkpt><trkpt lat="44.7046385" lon="9.3942486"><ele>509.0</ele><time>2026-04-19T09:12:30.792Z</time></trkpt><trkpt lat="44.7044985" lon="9.3942691"><ele>509.0</ele><time>2026-04-19T09:12:31.866Z</time></trkpt><trkpt lat="44.7043625" lon="9.394301"><ele>509.0</ele><time>2026-04-19T09:12:32.796Z</time></trkpt><trkpt lat="44.704221" lon="9.3943554"><ele>515.0</ele><time>2026-04-19T09:12:33.792Z</time></trkpt><trkpt lat="44.7040749" lon="9.3944329"><ele>521.0</ele><time>2026-04-19T09:12:34.825Z</time></trkpt><trkpt lat="44.7039478" lon="9.3945005"><ele>527.0</ele><time>2026-04-19T09:12:35.801Z</time></trkpt><trkpt lat="44.7038184" lon="9.3945668"><ele>533.0</ele><time>2026-04-19T09:12:36.807Z</time></trkpt><trkpt lat="44.7036887" lon="9.3946094"><ele>532.75</ele><time>2026-04-19T09:12:37.803Z</time></trkpt><trkpt lat="44.7035662" lon="9.3946457"><ele>532.5</ele><time>2026-04-19T09:12:38.795Z</time></trkpt><trkpt lat="44.7034452" lon="9.3946734"><ele>532.25</ele><time>2026-04-19T09:12:39.79Z</time></trkpt><trkpt lat="44.7033179" lon="9.3947242"><ele>532.0</ele><time>2026-04-19T09:12:40.802Z</time></trkpt><trkpt lat="44.7032037" lon="9.3948029"><ele>532.0</ele><time>2026-04-19T09:12:41.799Z</time></trkpt><trkpt lat="44.7030896" lon="9.3949221"><ele>532.0</ele><time>2026-04-19T09:12:42.88Z</time></trkpt><trkpt lat="44.7030019" lon="9.3950424"><ele>532.0</ele><time>2026-04-19T09:12:43.786Z</time></trkpt><trkpt lat="44.7029013" lon="9.395152"><ele>532.0</ele><time>2026-04-19T09:12:44.759Z</time></trkpt><trkpt lat="44.7027831" lon="9.3952533"><ele>538.0</ele><time>2026-04-19T09:12:45.814Z</time></trkpt><trkpt lat="44.7026399" lon="9.3953065"><ele>544.0</ele><time>2026-04-19T09:12:46.829Z</time></trkpt><trkpt lat="44.7025053" lon="9.3953546"><ele>550.0</ele><time>2026-04-19T09:12:47.769Z</time></trkpt><trkpt lat="44.702365" lon="9.3954005"><ele>556.0</ele><time>2026-04-19T09:12:48.766Z</time></trkpt><trkpt lat="44.7022262" lon="9.3954487"><ele>556.0</ele><time>2026-04-19T09:12:49.782Z</time></trkpt><trkpt lat="44.702093" lon="9.3955031"><ele>556.0</ele><time>2026-04-19T09:12:50.755Z</time></trkpt><trkpt lat="44.7019626" lon="9.3955676"><ele>556.0</ele><time>2026-04-19T09:12:51.78Z</time></trkpt><trkpt lat="44.7018451" lon="9.3956458"><ele>556.0</ele><time>2026-04-19T09:12:52.764Z</time></trkpt><trkpt lat="44.7017342" lon="9.3957423"><ele>555.25</ele><time>2026-04-19T09:12:53.759Z</time></trkpt><trkpt lat="44.7016391" lon="9.3958769"><ele>554.5</ele><time>2026-04-19T09:12:54.793Z</time></trkpt><trkpt lat="44.7015451" lon="9.3960456"><ele>553.75</ele><time>2026-04-19T09:12:55.905Z</time></trkpt><trkpt lat="44.7014741" lon="9.3961698"><ele>553.0</ele><time>2026-04-19T09:12:56.818Z</time></trkpt><trkpt lat="44.7013902" lon="9.3962994"><ele>554.75</ele><time>2026-04-19T09:12:57.833Z</time></trkpt><trkpt lat="44.7012931" lon="9.396396"><ele>556.5</ele><time>2026-04-19T09:12:58.801Z</time></trkpt><trkpt lat="44.7011803" lon="9.3964874"><ele>558.25</ele><time>2026-04-19T09:12:59.787Z</time></trkpt><trkpt lat="44.7010565" lon="9.3965738"><ele>560.0</ele><time>2026-04-19T09:13:00.804Z</time></trkpt><trkpt lat="44.7009316" lon="9.3966621"><ele>560.0</ele><time>2026-04-19T09:13:01.816Z</time></trkpt><trkpt lat="44.7008161" lon="9.3967438"><ele>560.0</ele><time>2026-04-19T09:13:02.773Z</time></trkpt><trkpt lat="44.7007057" lon="9.3968268"><ele>560.0</ele><time>2026-04-19T09:13:03.813Z</time></trkpt><trkpt lat="44.7006207" lon="9.3968927"><ele>560.0</ele><time>2026-04-19T09:13:04.768Z</time></trkpt><trkpt lat="44.7005364" lon="9.3969386"><ele>560.0</ele><time>2026-04-19T09:13:05.788Z</time></trkpt><trkpt lat="44.7004639" lon="9.396953"><ele>560.0</ele><time>2026-04-19T09:13:06.769Z</time></trkpt><trkpt lat="44.7003777" lon="9.3969157"><ele>560.0</ele><time>2026-04-19T09:13:07.79Z</time></trkpt><trkpt lat="44.7003308" lon="9.3968189"><ele>560.0</ele><time>2026-04-19T09:13:08.77Z</time></trkpt><trkpt lat="44.7003135" lon="9.3966858"><ele>560.0</ele><time>2026-04-19T09:13:09.757Z</time></trkpt><trkpt lat="44.7003544" lon="9.3965483"><ele>560.0</ele><time>2026-04-19T09:13:10.771Z</time></trkpt><trkpt lat="44.7004666" lon="9.3964654"><ele>560.0</ele><time>2026-04-19T09:13:11.738Z</time></trkpt><trkpt lat="44.700581" lon="9.396386"><ele>560.0</ele><time>2026-04-19T09:13:12.823Z</time></trkpt><trkpt lat="44.7007152" lon="9.3963324"><ele>560.0</ele><time>2026-04-19T09:13:13.793Z</time></trkpt><trkpt lat="44.7008488" lon="9.3962615"><ele>560.0</ele><time>2026-04-19T09:13:14.735Z</time></trkpt><trkpt lat="44.7009847" lon="9.3961474"><ele>557.6666666666666</ele><time>2026-04-19T09:13:15.773Z</time></trkpt><trkpt lat="44.7011042" lon="9.3959906"><ele>555.3333333333334</ele><time>2026-04-19T09:13:16.792Z</time></trkpt><trkpt lat="44.7011984" lon="9.3958042"><ele>553.0</ele><time>2026-04-19T09:13:17.774Z</time></trkpt><trkpt lat="44.7013005" lon="9.3956112"><ele>558.75</ele><time>2026-04-19T09:13:18.81Z</time></trkpt><trkpt lat="44.7013901" lon="9.3954538"><ele>564.5</ele><time>2026-04-19T09:13:19.738Z</time></trkpt><trkpt lat="44.7014911" lon="9.3952824"><ele>570.25</ele><time>2026-04-19T09:13:20.819Z</time></trkpt><trkpt lat="44.7015793" lon="9.3951463"><ele>576.0</ele><time>2026-04-19T09:13:21.763Z</time></trkpt><trkpt lat="44.7016697" lon="9.3950185"><ele>576.0</ele><time>2026-04-19T09:13:22.761Z</time></trkpt><trkpt lat="44.7017693" lon="9.3949315"><ele>576.0</ele><time>2026-04-19T09:13:23.75Z</time></trkpt><trkpt lat="44.7018808" lon="9.394863"><ele>576.0</ele><time>2026-04-19T09:13:24.785Z</time></trkpt><trkpt lat="44.7019895" lon="9.3947791"><ele>576.0</ele><time>2026-04-19T09:13:25.776Z</time></trkpt><trkpt lat="44.7020864" lon="9.3946836"><ele>576.0</ele><time>2026-04-19T09:13:26.773Z</time></trkpt><trkpt lat="44.7021868" lon="9.3945782"><ele>576.0</ele><time>2026-04-19T09:13:27.788Z</time></trkpt><trkpt lat="44.7022703" lon="9.3944945"><ele>576.0</ele><time>2026-04-19T09:13:28.779Z</time></trkpt><trkpt lat="44.7023474" lon="9.3943962"><ele>576.0</ele><time>2026-04-19T09:13:29.806Z</time></trkpt><trkpt lat="44.7024033" lon="9.3942798"><ele>576.0</ele><time>2026-04-19T09:13:30.786Z</time></trkpt><trkpt lat="44.7024241" lon="9.3941526"><ele>576.0</ele><time>2026-04-19T09:13:31.779Z</time></trkpt><trkpt lat="44.7024115" lon="9.3940343"><ele>576.0</ele><time>2026-04-19T09:13:32.814Z</time></trkpt><trkpt lat="44.7023471" lon="9.3939357"><ele>576.0</ele><time>2026-04-19T09:13:33.827Z</time></trkpt><trkpt lat="44.7022643" lon="9.3938892"><ele>576.0</ele><time>2026-04-19T09:13:34.819Z</time></trkpt><trkpt lat="44.702152" lon="9.3939142"><ele>576.0</ele><time>2026-04-19T09:13:35.891Z</time></trkpt><trkpt lat="44.7020353" lon="9.3939616"><ele>578.3333333333334</ele><time>2026-04-19T09:13:36.827Z</time></trkpt><trkpt lat="44.7019093" lon="9.3940423"><ele>580.6666666666667</ele><time>2026-04-19T09:13:37.823Z</time></trkpt><trkpt lat="44.7017818" lon="9.3941586"><ele>583.0</ele><time>2026-04-19T09:13:38.928Z</time></trkpt><trkpt lat="44.7015836" lon="9.3943715"><ele>583.0</ele><time>2026-04-19T09:13:40.87Z</time></trkpt><trkpt lat="44.7014736" lon="9.3944508"><ele>583.0</ele><time>2026-04-19T09:13:41.845Z</time></trkpt><trkpt lat="44.7013537" lon="9.3944877"><ele>583.0</ele><time>2026-04-19T09:13:42.851Z</time></trkpt><trkpt lat="44.7012365" lon="9.3944936"><ele>583.0</ele><time>2026-04-19T09:13:43.803Z</time></trkpt><trkpt lat="44.7011149" lon="9.394521"><ele>583.0</ele><time>2026-04-19T09:13:44.832Z</time></trkpt><trkpt lat="44.7009966" lon="9.3945812"><ele>583.0</ele><time>2026-04-19T09:13:45.832Z</time></trkpt><trkpt lat="44.700882" lon="9.3946544"><ele>583.0</ele><time>2026-04-19T09:13:46.802Z</time></trkpt><trkpt lat="44.7007615" lon="9.3947302"><ele>583.0</ele><time>2026-04-19T09:13:47.836Z</time></trkpt><trkpt lat="44.7006442" lon="9.3947993"><ele>586.25</ele><time>2026-04-19T09:13:48.836Z</time></trkpt><trkpt lat="44.7005318" lon="9.3948609"><ele>589.5</ele><time>2026-04-19T09:13:49.803Z</time></trkpt><trkpt lat="44.7004071" lon="9.3949257"><ele>592.75</ele><time>2026-04-19T09:13:50.829Z</time></trkpt><trkpt lat="44.7002851" lon="9.3949451"><ele>596.0</ele><time>2026-04-19T09:13:51.835Z</time></trkpt><trkpt lat="44.7001808" lon="9.3949087"><ele>597.5</ele><time>2026-04-19T09:13:52.815Z</time></trkpt><trkpt lat="44.7000864" lon="9.3948104"><ele>599.0</ele><time>2026-04-19T09:13:53.869Z</time></trkpt><trkpt lat="44.7000059" lon="9.3946828"><ele>600.5</ele><time>2026-04-19T09:13:54.865Z</time></trkpt><trkpt lat="44.6999304" lon="9.3945378"><ele>602.0</ele><time>2026-04-19T09:13:55.815Z</time></trkpt><trkpt lat="44.6998523" lon="9.3943866"><ele>602.0</ele><time>2026-04-19T09:13:56.81Z</time></trkpt><trkpt lat="44.6997817" lon="9.3942406"><ele>602.0</ele><time>2026-04-19T09:13:57.793Z</time></trkpt><trkpt lat="44.6997095" lon="9.3940799"><ele>602.0</ele><time>2026-04-19T09:13:58.817Z</time></trkpt><trkpt lat="44.6996441" lon="9.393932"><ele>602.0</ele><time>2026-04-19T09:13:59.758Z</time></trkpt><trkpt lat="44.6995735" lon="9.3937579"><ele>599.75</ele><time>2026-04-19T09:14:00.78Z</time></trkpt><trkpt lat="44.6994965" lon="9.3936133"><ele>597.5</ele><time>2026-04-19T09:14:01.749Z</time></trkpt><trkpt lat="44.6994058" lon="9.3934604"><ele>595.25</ele><time>2026-04-19T09:14:02.789Z</time></trkpt><trkpt lat="44.6993115" lon="9.3933371"><ele>593.0</ele><time>2026-04-19T09:14:03.739Z</time></trkpt><trkpt lat="44.6992204" lon="9.3932054"><ele>601.0</ele><time>2026-04-19T09:14:04.76Z</time></trkpt><trkpt lat="44.6991635" lon="9.3930742"><ele>609.0</ele><time>2026-04-19T09:14:05.791Z</time></trkpt><trkpt lat="44.6991546" lon="9.3929209"><ele>617.0</ele><time>2026-04-19T09:14:06.805Z</time></trkpt><trkpt lat="44.6991843" lon="9.3927637"><ele>625.0</ele><time>2026-04-19T09:14:07.798Z</time></trkpt><trkpt lat="44.6992499" lon="9.3926141"><ele>625.0</ele><time>2026-04-19T09:14:08.766Z</time></trkpt><trkpt lat="44.6993153" lon="9.3924491"><ele>625.0</ele><time>2026-04-19T09:14:09.792Z</time></trkpt><trkpt lat="44.6993796" lon="9.3922897"><ele>625.0</ele><time>2026-04-19T09:14:10.79Z</time></trkpt><trkpt lat="44.6994298" lon="9.392147"><ele>625.0</ele><time>2026-04-19T09:14:11.764Z</time></trkpt><trkpt lat="44.699461" lon="9.3920117"><ele>623.2</ele><time>2026-04-19T09:14:12.805Z</time></trkpt><trkpt lat="44.6994571" lon="9.3918836"><ele>621.4</ele><time>2026-04-19T09:14:13.78Z</time></trkpt><trkpt lat="44.6994228" lon="9.3917522"><ele>619.6</ele><time>2026-04-19T09:14:14.875Z</time></trkpt><trkpt lat="44.6993463" lon="9.3916618"><ele>617.8</ele><time>2026-04-19T09:14:15.808Z</time></trkpt><trkpt lat="44.6992487" lon="9.3916032"><ele>616.0</ele><time>2026-04-19T09:14:16.793Z</time></trkpt><trkpt lat="44.6991405" lon="9.3915909"><ele>616.0</ele><time>2026-04-19T09:14:17.83Z</time></trkpt><trkpt lat="44.6990364" lon="9.3916334"><ele>616.0</ele><time>2026-04-19T09:14:18.85Z</time></trkpt><trkpt lat="44.6989553" lon="9.3917308"><ele>616.0</ele><time>2026-04-19T09:14:19.819Z</time></trkpt><trkpt lat="44.6989033" lon="9.3918843"><ele>616.0</ele><time>2026-04-19T09:14:20.806Z</time></trkpt><trkpt lat="44.6988569" lon="9.3920828"><ele>618.25</ele><time>2026-04-19T09:14:21.874Z</time></trkpt><trkpt lat="44.6988049" lon="9.3922596"><ele>620.5</ele><time>2026-04-19T09:14:22.875Z</time></trkpt><trkpt lat="44.6987299" lon="9.3924148"><ele>622.75</ele><time>2026-04-19T09:14:23.897Z</time></trkpt><trkpt lat="44.6986334" lon="9.3925221"><ele>625.0</ele><time>2026-04-19T09:14:24.842Z</time></trkpt><trkpt lat="44.6985034" lon="9.3925839"><ele>629.6666666666667</ele><time>2026-04-19T09:14:25.824Z</time></trkpt><trkpt lat="44.6983354" lon="9.3926234"><ele>634.3333333333334</ele><time>2026-04-19T09:14:26.882Z</time></trkpt><trkpt lat="44.6981644" lon="9.3926271"><ele>639.0</ele><time>2026-04-19T09:14:27.882Z</time></trkpt><trkpt lat="44.698012" lon="9.3926171"><ele>639.0</ele><time>2026-04-19T09:14:28.838Z</time></trkpt><trkpt lat="44.697871" lon="9.3925993"><ele>639.0</ele><time>2026-04-19T09:14:29.834Z</time></trkpt><trkpt lat="44.6977312" lon="9.3926125"><ele>639.0</ele><time>2026-04-19T09:14:30.894Z</time></trkpt><trkpt lat="44.6975917" lon="9.3926905"><ele>639.0</ele><time>2026-04-19T09:14:31.993Z</time></trkpt><trkpt lat="44.6974655" lon="9.3927489"><ele>640.25</ele><time>2026-04-19T09:14:32.96Z</time></trkpt><trkpt lat="44.6973521" lon="9.3927624"><ele>641.5</ele><time>2026-04-19T09:14:33.864Z</time></trkpt><trkpt lat="44.6972386" lon="9.3927424"><ele>642.75</ele><time>2026-04-19T09:14:34.837Z</time></trkpt><trkpt lat="44.6971242" lon="9.3926716"><ele>644.0</ele><time>2026-04-19T09:14:35.821Z</time></trkpt><trkpt lat="44.6970019" lon="9.3925887"><ele>645.75</ele><time>2026-04-19T09:14:36.874Z</time></trkpt><trkpt lat="44.6968807" lon="9.3925519"><ele>647.5</ele><time>2026-04-19T09:14:37.796Z</time></trkpt><trkpt lat="44.6967379" lon="9.3925529"><ele>649.25</ele><time>2026-04-19T09:14:38.833Z</time></trkpt><trkpt lat="44.6966145" lon="9.3925554"><ele>651.0</ele><time>2026-04-19T09:14:39.841Z</time></trkpt><trkpt lat="44.6965054" lon="9.3925326"><ele>651.0</ele><time>2026-04-19T09:14:40.844Z</time></trkpt><trkpt lat="44.6964106" lon="9.3924571"><ele>651.0</ele><time>2026-04-19T09:14:41.845Z</time></trkpt><trkpt lat="44.6963454" lon="9.3923172"><ele>651.0</ele><time>2026-04-19T09:14:42.899Z</time></trkpt><trkpt lat="44.6963101" lon="9.3921581"><ele>651.0</ele><time>2026-04-19T09:14:43.804Z</time></trkpt><trkpt lat="44.6962712" lon="9.3919479"><ele>650.25</ele><time>2026-04-19T09:14:44.891Z</time></trkpt><trkpt lat="44.6962309" lon="9.3917581"><ele>649.5</ele><time>2026-04-19T09:14:45.826Z</time></trkpt><trkpt lat="44.6961927" lon="9.3915761"><ele>648.75</ele><time>2026-04-19T09:14:46.797Z</time></trkpt><trkpt lat="44.6961667" lon="9.3913939"><ele>648.0</ele><time>2026-04-19T09:14:47.824Z</time></trkpt><trkpt lat="44.6961671" lon="9.3912331"><ele>647.25</ele><time>2026-04-19T09:14:48.812Z</time></trkpt><trkpt lat="44.6961975" lon="9.3910614"><ele>646.5</ele><time>2026-04-19T09:14:49.846Z</time></trkpt><trkpt lat="44.696261" lon="9.3909166"><ele>645.75</ele><time>2026-04-19T09:14:50.83Z</time></trkpt><trkpt lat="44.6963347" lon="9.3907847"><ele>645.0</ele><time>2026-04-19T09:14:51.852Z</time></trkpt><trkpt lat="44.6963813" lon="9.3906551"><ele>645.0</ele><time>2026-04-19T09:14:52.78Z</time></trkpt><trkpt lat="44.6963915" lon="9.390518"><ele>645.0</ele><time>2026-04-19T09:14:53.813Z</time></trkpt><trkpt lat="44.6963739" lon="9.3904129"><ele>645.0</ele><time>2026-04-19T09:14:54.792Z</time></trkpt><trkpt lat="44.6963368" lon="9.3903123"><ele>645.0</ele><time>2026-04-19T09:14:55.869Z</time></trkpt><trkpt lat="44.6962853" lon="9.3902307"><ele>645.0</ele><time>2026-04-19T09:14:56.799Z</time></trkpt><trkpt lat="44.6962075" lon="9.3901647"><ele>645.0</ele><time>2026-04-19T09:14:57.884Z</time></trkpt><trkpt lat="44.6961334" lon="9.3901426"><ele>647.5</ele><time>2026-04-19T09:14:58.821Z</time></trkpt><trkpt lat="44.696052" lon="9.390171"><ele>650.0</ele><time>2026-04-19T09:14:59.82Z</time></trkpt><trkpt lat="44.6959955" lon="9.3902452"><ele>652.5</ele><time>2026-04-19T09:15:00.856Z</time></trkpt><trkpt lat="44.6959637" lon="9.3903402"><ele>655.0</ele><time>2026-04-19T09:15:01.836Z</time></trkpt><trkpt lat="44.6959602" lon="9.3904595"><ele>657.5</ele><time>2026-04-19T09:15:02.852Z</time></trkpt><trkpt lat="44.6959731" lon="9.3906025"><ele>660.0</ele><time>2026-04-19T09:15:03.823Z</time></trkpt><trkpt lat="44.6959713" lon="9.3907806"><ele>661.75</ele><time>2026-04-19T09:15:04.834Z</time></trkpt><trkpt lat="44.6959403" lon="9.3909391"><ele>663.5</ele><time>2026-04-19T09:15:05.814Z</time></trkpt><trkpt lat="44.6958813" lon="9.3911166"><ele>665.25</ele><time>2026-04-19T09:15:06.861Z</time></trkpt><trkpt lat="44.6958209" lon="9.3912813"><ele>667.0</ele><time>2026-04-19T09:15:07.846Z</time></trkpt><trkpt lat="44.6957722" lon="9.3914458"><ele>667.75</ele><time>2026-04-19T09:15:08.833Z</time></trkpt><trkpt lat="44.6957448" lon="9.3916089"><ele>668.5</ele><time>2026-04-19T09:15:09.843Z</time></trkpt><trkpt lat="44.6957107" lon="9.3917795"><ele>669.25</ele><time>2026-04-19T09:15:10.828Z</time></trkpt><trkpt lat="44.6956655" lon="9.3919665"><ele>670.0</ele><time>2026-04-19T09:15:11.929Z</time></trkpt><trkpt lat="44.6956329" lon="9.3921346"><ele>670.75</ele><time>2026-04-19T09:15:12.873Z</time></trkpt><trkpt lat="44.6956189" lon="9.392313"><ele>671.5</ele><time>2026-04-19T09:15:13.808Z</time></trkpt><trkpt lat="44.695616" lon="9.3925094"><ele>672.25</ele><time>2026-04-19T09:15:14.827Z</time></trkpt><trkpt lat="44.6956088" lon="9.3927064"><ele>673.0</ele><time>2026-04-19T09:15:15.856Z</time></trkpt><trkpt lat="44.6955937" lon="9.3929039"><ele>674.0</ele><time>2026-04-19T09:15:16.887Z</time></trkpt><trkpt lat="44.6955898" lon="9.3930736"><ele>675.0</ele><time>2026-04-19T09:15:17.828Z</time></trkpt><trkpt lat="44.6956189" lon="9.3932817"><ele>676.0</ele><time>2026-04-19T09:15:18.982Z</time></trkpt><trkpt lat="44.6957542" lon="9.393591"><ele>676.0</ele><time>2026-04-19T09:15:20.859Z</time></trkpt><trkpt lat="44.6958031" lon="9.3937588"><ele>676.0</ele><time>2026-04-19T09:15:21.858Z</time></trkpt><trkpt lat="44.6958474" lon="9.3939475"><ele>676.0</ele><time>2026-04-19T09:15:22.971Z</time></trkpt><trkpt lat="44.6959647" lon="9.3942262"><ele>675.75</ele><time>2026-04-19T09:15:24.829Z</time></trkpt><trkpt lat="44.6960392" lon="9.3943851"><ele>675.5</ele><time>2026-04-19T09:15:25.909Z</time></trkpt><trkpt lat="44.696097" lon="9.3945209"><ele>675.25</ele><time>2026-04-19T09:15:26.83Z</time></trkpt><trkpt lat="44.6961478" lon="9.3946884"><ele>675.0</ele><time>2026-04-19T09:15:27.883Z</time></trkpt><trkpt lat="44.6961804" lon="9.3948595"><ele>680.25</ele><time>2026-04-19T09:15:28.964Z</time></trkpt><trkpt lat="44.696238" lon="9.3951418"><ele>685.5</ele><time>2026-04-19T09:15:30.822Z</time></trkpt><trkpt lat="44.6962857" lon="9.3952842"><ele>690.75</ele><time>2026-04-19T09:15:31.849Z</time></trkpt><trkpt lat="44.696326" lon="9.3954121"><ele>696.0</ele><time>2026-04-19T09:15:32.816Z</time></trkpt><trkpt lat="44.6963452" lon="9.3955526"><ele>699.25</ele><time>2026-04-19T09:15:33.829Z</time></trkpt><trkpt lat="44.6963267" lon="9.3957023"><ele>702.5</ele><time>2026-04-19T09:15:34.855Z</time></trkpt><trkpt lat="44.6962714" lon="9.3958605"><ele>705.75</ele><time>2026-04-19T09:15:35.855Z</time></trkpt><trkpt lat="44.6962188" lon="9.3960062"><ele>709.0</ele><time>2026-04-19T09:15:36.856Z</time></trkpt><trkpt lat="44.6961681" lon="9.3961518"><ele>709.0</ele><time>2026-04-19T09:15:37.855Z</time></trkpt><trkpt lat="44.6961137" lon="9.3963032"><ele>709.0</ele><time>2026-04-19T09:15:38.899Z</time></trkpt><trkpt lat="44.6960633" lon="9.3964157"><ele>709.0</ele><time>2026-04-19T09:15:39.83Z</time></trkpt><trkpt lat="44.6959952" lon="9.3965404"><ele>709.0</ele><time>2026-04-19T09:15:41.05Z</time></trkpt><trkpt lat="44.6958364" lon="9.3966652"><ele>710.0</ele><time>2026-04-19T09:15:42.837Z</time></trkpt><trkpt lat="44.6957273" lon="9.3966774"><ele>711.0</ele><time>2026-04-19T09:15:43.81Z</time></trkpt><trkpt lat="44.6956195" lon="9.3966589"><ele>712.0</ele><time>2026-04-19T09:15:44.825Z</time></trkpt><trkpt lat="44.6955126" lon="9.3966067"><ele>713.0</ele><time>2026-04-19T09:15:45.975Z</time></trkpt><trkpt lat="44.6953478" lon="9.3964305"><ele>712.5</ele><time>2026-04-19T09:15:47.794Z</time></trkpt><trkpt lat="44.6952509" lon="9.3962965"><ele>712.0</ele><time>2026-04-19T09:15:48.866Z</time></trkpt><trkpt lat="44.6951489" lon="9.3962043"><ele>711.5</ele><time>2026-04-19T09:15:49.835Z</time></trkpt><trkpt lat="44.6950159" lon="9.3961447"><ele>711.0</ele><time>2026-04-19T09:15:50.861Z</time></trkpt><trkpt lat="44.6948927" lon="9.3960703"><ele>711.0</ele><time>2026-04-19T09:15:51.823Z</time></trkpt><trkpt lat="44.6947719" lon="9.3959832"><ele>711.0</ele><time>2026-04-19T09:15:52.849Z</time></trkpt><trkpt lat="44.6946677" lon="9.395882"><ele>711.0</ele><time>2026-04-19T09:15:53.826Z</time></trkpt><trkpt lat="44.694574" lon="9.3957618"><ele>711.0</ele><time>2026-04-19T09:15:54.831Z</time></trkpt><trkpt lat="44.6944808" lon="9.3956325"><ele>712.5</ele><time>2026-04-19T09:15:55.922Z</time></trkpt><trkpt lat="44.6943038" lon="9.3954913"><ele>714.0</ele><time>2026-04-19T09:15:57.792Z</time></trkpt><trkpt lat="44.6941868" lon="9.3954445"><ele>715.5</ele><time>2026-04-19T09:15:58.861Z</time></trkpt><trkpt lat="44.6940845" lon="9.3954132"><ele>717.0</ele><time>2026-04-19T09:15:59.831Z</time></trkpt><trkpt lat="44.6939687" lon="9.3953804"><ele>717.0</ele><time>2026-04-19T09:16:00.828Z</time></trkpt><trkpt lat="44.6938547" lon="9.3953366"><ele>717.0</ele><time>2026-04-19T09:16:01.843Z</time></trkpt><trkpt lat="44.6937506" lon="9.3952952"><ele>717.0</ele><time>2026-04-19T09:16:02.803Z</time></trkpt><trkpt lat="44.6936468" lon="9.3952634"><ele>717.0</ele><time>2026-04-19T09:16:03.959Z</time></trkpt><trkpt lat="44.6935082" lon="9.3952898"><ele>718.8</ele><time>2026-04-19T09:16:05.785Z</time></trkpt><trkpt lat="44.6934288" lon="9.3953462"><ele>720.6</ele><time>2026-04-19T09:16:06.809Z</time></trkpt><trkpt lat="44.6933527" lon="9.3954303"><ele>722.4</ele><time>2026-04-19T09:16:07.832Z</time></trkpt><trkpt lat="44.6932865" lon="9.3955274"><ele>724.1999999999999</ele><time>2026-04-19T09:16:08.783Z</time></trkpt><trkpt lat="44.6932055" lon="9.3956623"><ele>726.0</ele><time>2026-04-19T09:16:09.941Z</time></trkpt><trkpt lat="44.6930742" lon="9.3958828"><ele>728.4</ele><time>2026-04-19T09:16:11.859Z</time></trkpt><trkpt lat="44.6930283" lon="9.3960011"><ele>730.8</ele><time>2026-04-19T09:16:12.838Z</time></trkpt><trkpt lat="44.6930041" lon="9.3961352"><ele>733.1999999999999</ele><time>2026-04-19T09:16:13.85Z</time></trkpt><trkpt lat="44.693009" lon="9.3962728"><ele>735.5999999999999</ele><time>2026-04-19T09:16:14.87Z</time></trkpt><trkpt lat="44.6930392" lon="9.396416"><ele>738.0</ele><time>2026-04-19T09:16:15.848Z</time></trkpt><trkpt lat="44.6930754" lon="9.3965656"><ele>739.4</ele><time>2026-04-19T09:16:16.85Z</time></trkpt><trkpt lat="44.6931082" lon="9.3967212"><ele>740.8</ele><time>2026-04-19T09:16:17.857Z</time></trkpt><trkpt lat="44.6931272" lon="9.3968731"><ele>742.2</ele><time>2026-04-19T09:16:18.825Z</time></trkpt><trkpt lat="44.6931265" lon="9.3970105"><ele>743.6</ele><time>2026-04-19T09:16:19.822Z</time></trkpt><trkpt lat="44.6931075" lon="9.3971429"><ele>745.0</ele><time>2026-04-19T09:16:20.822Z</time></trkpt><trkpt lat="44.6930876" lon="9.397271"><ele>745.6</ele><time>2026-04-19T09:16:21.989Z</time></trkpt><trkpt lat="44.6931423" lon="9.3974498"><ele>746.2</ele><time>2026-04-19T09:16:23.816Z</time></trkpt><trkpt lat="44.6932167" lon="9.3975144"><ele>746.8</ele><time>2026-04-19T09:16:24.809Z</time></trkpt><trkpt lat="44.6932932" lon="9.3975784"><ele>747.4</ele><time>2026-04-19T09:16:25.809Z</time></trkpt><trkpt lat="44.6933558" lon="9.397668"><ele>748.0</ele><time>2026-04-19T09:16:26.81Z</time></trkpt><trkpt lat="44.693407" lon="9.3977826"><ele>748.0</ele><time>2026-04-19T09:16:27.781Z</time></trkpt><trkpt lat="44.6934552" lon="9.3979163"><ele>748.0</ele><time>2026-04-19T09:16:28.816Z</time></trkpt><trkpt lat="44.6935006" lon="9.3980553"><ele>748.0</ele><time>2026-04-19T09:16:29.79Z</time></trkpt><trkpt lat="44.6935506" lon="9.3982042"><ele>748.0</ele><time>2026-04-19T09:16:30.794Z</time></trkpt><trkpt lat="44.6936053" lon="9.3983642"><ele>750.0</ele><time>2026-04-19T09:16:31.846Z</time></trkpt><trkpt lat="44.6936619" lon="9.3985375"><ele>752.0</ele><time>2026-04-19T09:16:32.922Z</time></trkpt><trkpt lat="44.6937857" lon="9.3988347"><ele>754.0</ele><time>2026-04-19T09:16:34.811Z</time></trkpt><trkpt lat="44.6938725" lon="9.3989725"><ele>754.0</ele><time>2026-04-19T09:16:35.802Z</time></trkpt><trkpt lat="44.6939687" lon="9.3990996"><ele>754.0</ele><time>2026-04-19T09:16:36.836Z</time></trkpt><trkpt lat="44.6940659" lon="9.3991997"><ele>754.0</ele><time>2026-04-19T09:16:37.835Z</time></trkpt><trkpt lat="44.6941699" lon="9.3992852"><ele>754.0</ele><time>2026-04-19T09:16:38.839Z</time></trkpt><trkpt lat="44.6942624" lon="9.3993523"><ele>754.0</ele><time>2026-04-19T09:16:39.778Z</time></trkpt><trkpt lat="44.6943625" lon="9.3994353"><ele>754.0</ele><time>2026-04-19T09:16:40.823Z</time></trkpt><trkpt lat="44.6944443" lon="9.3995409"><ele>754.0</ele><time>2026-04-19T09:16:41.89Z</time></trkpt><trkpt lat="44.6944936" lon="9.3996701"><ele>754.0</ele><time>2026-04-19T09:16:42.868Z</time></trkpt><trkpt lat="44.6945158" lon="9.3998133"><ele>754.0</ele><time>2026-04-19T09:16:43.812Z</time></trkpt><trkpt lat="44.6945264" lon="9.3999744"><ele>754.25</ele><time>2026-04-19T09:16:44.818Z</time></trkpt><trkpt lat="44.6945427" lon="9.400141"><ele>754.5</ele><time>2026-04-19T09:16:45.813Z</time></trkpt><trkpt lat="44.6945688" lon="9.4003238"><ele>754.75</ele><time>2026-04-19T09:16:46.924Z</time></trkpt><trkpt lat="44.6946043" lon="9.4004592"><ele>755.0</ele><time>2026-04-19T09:16:47.829Z</time></trkpt><trkpt lat="44.6946637" lon="9.4006137"><ele>758.25</ele><time>2026-04-19T09:16:48.865Z</time></trkpt><trkpt lat="44.6947381" lon="9.4007256"><ele>761.5</ele><time>2026-04-19T09:16:49.831Z</time></trkpt><trkpt lat="44.694833" lon="9.4008256"><ele>764.75</ele><time>2026-04-19T09:16:50.821Z</time></trkpt><trkpt lat="44.6949517" lon="9.4009445"><ele>768.0</ele><time>2026-04-19T09:16:51.979Z</time></trkpt><trkpt lat="44.6951358" lon="9.4011552"><ele>768.0</ele><time>2026-04-19T09:16:53.876Z</time></trkpt><trkpt lat="44.6952058" lon="9.4012556"><ele>768.0</ele><time>2026-04-19T09:16:54.832Z</time></trkpt><trkpt lat="44.695245" lon="9.4013517"><ele>768.0</ele><time>2026-04-19T09:16:55.814Z</time></trkpt><trkpt lat="44.6952605" lon="9.4014665"><ele>768.0</ele><time>2026-04-19T09:16:56.797Z</time></trkpt><trkpt lat="44.6952366" lon="9.4016131"><ele>768.0</ele><time>2026-04-19T09:16:57.883Z</time></trkpt><trkpt lat="44.6951844" lon="9.4017565"><ele>770.0</ele><time>2026-04-19T09:16:58.84Z</time></trkpt><trkpt lat="44.6951369" lon="9.4019223"><ele>772.0</ele><time>2026-04-19T09:16:59.851Z</time></trkpt><trkpt lat="44.6950912" lon="9.4020837"><ele>774.0</ele><time>2026-04-19T09:17:00.757Z</time></trkpt><trkpt lat="44.695039" lon="9.4022644"><ele>776.0</ele><time>2026-04-19T09:17:01.775Z</time></trkpt><trkpt lat="44.6949863" lon="9.4024562"><ele>776.0</ele><time>2026-04-19T09:17:02.832Z</time></trkpt><trkpt lat="44.6949383" lon="9.4026327"><ele>776.0</ele><time>2026-04-19T09:17:03.816Z</time></trkpt><trkpt lat="44.6949008" lon="9.402808"><ele>776.0</ele><time>2026-04-19T09:17:04.809Z</time></trkpt><trkpt lat="44.6948749" lon="9.4029877"><ele>776.0</ele><time>2026-04-19T09:17:05.814Z</time></trkpt><trkpt lat="44.694859" lon="9.4031471"><ele>776.8</ele><time>2026-04-19T09:17:06.8Z</time></trkpt><trkpt lat="44.6948629" lon="9.4032885"><ele>777.5999999999999</ele><time>2026-04-19T09:17:07.806Z</time></trkpt><trkpt lat="44.6948911" lon="9.4034038"><ele>778.4</ele><time>2026-04-19T09:17:08.776Z</time></trkpt><trkpt lat="44.6949518" lon="9.4035478"><ele>779.2</ele><time>2026-04-19T09:17:09.865Z</time></trkpt><trkpt lat="44.6950344" lon="9.4036709"><ele>780.0</ele><time>2026-04-19T09:17:10.832Z</time></trkpt><trkpt lat="44.6951062" lon="9.4037888"><ele>780.0</ele><time>2026-04-19T09:17:11.789Z</time></trkpt><trkpt lat="44.6951551" lon="9.4039246"><ele>780.0</ele><time>2026-04-19T09:17:12.837Z</time></trkpt><trkpt lat="44.6951729" lon="9.4040599"><ele>780.0</ele><time>2026-04-19T09:17:13.813Z</time></trkpt><trkpt lat="44.6951407" lon="9.4042082"><ele>780.0</ele><time>2026-04-19T09:17:14.854Z</time></trkpt><trkpt lat="44.6950519" lon="9.4043536"><ele>780.0</ele><time>2026-04-19T09:17:15.973Z</time></trkpt><trkpt lat="44.6948258" lon="9.4045056"><ele>780.0</ele><time>2026-04-19T09:17:17.876Z</time></trkpt><trkpt lat="44.6947055" lon="9.4045686"><ele>780.0</ele><time>2026-04-19T09:17:18.804Z</time></trkpt><trkpt lat="44.6945896" lon="9.404647"><ele>777.8</ele><time>2026-04-19T09:17:19.832Z</time></trkpt><trkpt lat="44.6945017" lon="9.4047543"><ele>775.6</ele><time>2026-04-19T09:17:20.882Z</time></trkpt><trkpt lat="44.694453" lon="9.4048893"><ele>773.4000000000001</ele><time>2026-04-19T09:17:21.832Z</time></trkpt><trkpt lat="44.6944301" lon="9.405057"><ele>771.2</ele><time>2026-04-19T09:17:22.88Z</time></trkpt><trkpt lat="44.6943985" lon="9.4051813"><ele>769.0</ele><time>2026-04-19T09:17:23.865Z</time></trkpt><trkpt lat="44.694363" lon="9.4052709"><ele>773.2</ele><time>2026-04-19T09:17:24.84Z</time></trkpt><trkpt lat="44.6942933" lon="9.405301"><ele>777.4000000000001</ele><time>2026-04-19T09:17:25.855Z</time></trkpt><trkpt lat="44.6941882" lon="9.4053317"><ele>781.6</ele><time>2026-04-19T09:17:26.826Z</time></trkpt><trkpt lat="44.6940993" lon="9.4054026"><ele>785.8</ele><time>2026-04-19T09:17:27.838Z</time></trkpt><trkpt lat="44.6940174" lon="9.4055084"><ele>790.0</ele><time>2026-04-19T09:17:28.828Z</time></trkpt><trkpt lat="44.6939662" lon="9.4056582"><ele>790.0</ele><time>2026-04-19T09:17:29.793Z</time></trkpt><trkpt lat="44.6939206" lon="9.4058297"><ele>790.0</ele><time>2026-04-19T09:17:30.804Z</time></trkpt><trkpt lat="44.6938571" lon="9.4060017"><ele>790.0</ele><time>2026-04-19T09:17:31.879Z</time></trkpt><trkpt lat="44.6938001" lon="9.406143"><ele>790.0</ele><time>2026-04-19T09:17:32.795Z</time></trkpt><trkpt lat="44.6937477" lon="9.4063061"><ele>789.5</ele><time>2026-04-19T09:17:33.869Z</time></trkpt><trkpt lat="44.6937277" lon="9.4064542"><ele>789.0</ele><time>2026-04-19T09:17:34.821Z</time></trkpt><trkpt lat="44.6937447" lon="9.4066286"><ele>788.5</ele><time>2026-04-19T09:17:35.825Z</time></trkpt><trkpt lat="44.6937902" lon="9.4067872"><ele>788.0</ele><time>2026-04-19T09:17:36.811Z</time></trkpt><trkpt lat="44.6938887" lon="9.4069639"><ele>788.0</ele><time>2026-04-19T09:17:37.843Z</time></trkpt><trkpt lat="44.6939804" lon="9.4071109"><ele>788.0</ele><time>2026-04-19T09:17:38.776Z</time></trkpt><trkpt lat="44.6940624" lon="9.4072642"><ele>788.0</ele><time>2026-04-19T09:17:39.854Z</time></trkpt><trkpt lat="44.6940753" lon="9.4075364"><ele>788.75</ele><time>2026-04-19T09:17:41.819Z</time></trkpt><trkpt lat="44.6940313" lon="9.4076627"><ele>789.5</ele><time>2026-04-19T09:17:42.821Z</time></trkpt><trkpt lat="44.6939246" lon="9.4077255"><ele>790.25</ele><time>2026-04-19T09:17:43.798Z</time></trkpt><trkpt lat="44.693815" lon="9.4078037"><ele>791.0</ele><time>2026-04-19T09:17:44.808Z</time></trkpt><trkpt lat="44.693707" lon="9.4078678"><ele>791.0</ele><time>2026-04-19T09:17:45.802Z</time></trkpt><trkpt lat="44.6936106" lon="9.4079402"><ele>791.0</ele><time>2026-04-19T09:17:46.956Z</time></trkpt><trkpt lat="44.6934563" lon="9.4081404"><ele>791.0</ele><time>2026-04-19T09:17:48.752Z</time></trkpt><trkpt lat="44.6934145" lon="9.4082961"><ele>791.0</ele><time>2026-04-19T09:17:49.814Z</time></trkpt><trkpt lat="44.6934177" lon="9.4085031"><ele>796.0</ele><time>2026-04-19T09:17:50.934Z</time></trkpt><trkpt lat="44.6934191" lon="9.4088119"><ele>801.0</ele><time>2026-04-19T09:17:52.779Z</time></trkpt><trkpt lat="44.6934158" lon="9.4089695"><ele>806.0</ele><time>2026-04-19T09:17:53.781Z</time></trkpt><trkpt lat="44.6934023" lon="9.4091263"><ele>811.0</ele><time>2026-04-19T09:17:54.8Z</time></trkpt><trkpt lat="44.6933704" lon="9.4092692"><ele>811.0</ele><time>2026-04-19T09:17:55.789Z</time></trkpt><trkpt lat="44.693325" lon="9.4094209"><ele>811.0</ele><time>2026-04-19T09:17:56.803Z</time></trkpt><trkpt lat="44.6932693" lon="9.4095583"><ele>811.0</ele><time>2026-04-19T09:17:57.823Z</time></trkpt><trkpt lat="44.693192" lon="9.4096682"><ele>811.0</ele><time>2026-04-19T09:17:58.8Z</time></trkpt><trkpt lat="44.6931085" lon="9.4097579"><ele>811.0</ele><time>2026-04-19T09:17:59.799Z</time></trkpt><trkpt lat="44.6930188" lon="9.409829"><ele>808.25</ele><time>2026-04-19T09:18:00.753Z</time></trkpt><trkpt lat="44.6929154" lon="9.4098906"><ele>805.5</ele><time>2026-04-19T09:18:01.799Z</time></trkpt><trkpt lat="44.6928082" lon="9.4099545"><ele>802.75</ele><time>2026-04-19T09:18:02.791Z</time></trkpt><trkpt lat="44.6927108" lon="9.4100129"><ele>800.0</ele><time>2026-04-19T09:18:03.753Z</time></trkpt><trkpt lat="44.6925927" lon="9.4100927"><ele>808.6666666666667</ele><time>2026-04-19T09:18:04.895Z</time></trkpt><trkpt lat="44.692398" lon="9.4102225"><ele>817.3333333333333</ele><time>2026-04-19T09:18:06.782Z</time></trkpt><trkpt lat="44.6922897" lon="9.4102937"><ele>826.0</ele><time>2026-04-19T09:18:07.819Z</time></trkpt><trkpt lat="44.6921886" lon="9.4103776"><ele>823.0</ele><time>2026-04-19T09:18:08.757Z</time></trkpt><trkpt lat="44.6921046" lon="9.4104938"><ele>820.0</ele><time>2026-04-19T09:18:09.735Z</time></trkpt><trkpt lat="44.6920261" lon="9.4106393"><ele>817.0</ele><time>2026-04-19T09:18:10.851Z</time></trkpt><trkpt lat="44.6920045" lon="9.410788"><ele>814.0</ele><time>2026-04-19T09:18:11.806Z</time></trkpt><trkpt lat="44.6919968" lon="9.4109504"><ele>814.0</ele><time>2026-04-19T09:18:12.776Z</time></trkpt><trkpt lat="44.6920013" lon="9.4111223"><ele>814.0</ele><time>2026-04-19T09:18:13.749Z</time></trkpt><trkpt lat="44.691996" lon="9.4112936"><ele>814.0</ele><time>2026-04-19T09:18:14.754Z</time></trkpt><trkpt lat="44.6919712" lon="9.4114334"><ele>814.0</ele><time>2026-04-19T09:18:15.759Z</time></trkpt><trkpt lat="44.6919238" lon="9.4115618"><ele>814.0</ele><time>2026-04-19T09:18:16.753Z</time></trkpt><trkpt lat="44.6918446" lon="9.4116625"><ele>820.2</ele><time>2026-04-19T09:18:17.792Z</time></trkpt><trkpt lat="44.6917644" lon="9.4117443"><ele>826.4000000000001</ele><time>2026-04-19T09:18:18.776Z</time></trkpt><trkpt lat="44.6917083" lon="9.41183"><ele>832.6</ele><time>2026-04-19T09:18:19.79Z</time></trkpt><trkpt lat="44.6916919" lon="9.4119365"><ele>838.8</ele><time>2026-04-19T09:18:20.729Z</time></trkpt><trkpt lat="44.6917233" lon="9.4120947"><ele>845.0</ele><time>2026-04-19T09:18:21.78Z</time></trkpt><trkpt lat="44.6917664" lon="9.4122537"><ele>845.75</ele><time>2026-04-19T09:18:22.762Z</time></trkpt><trkpt lat="44.6918185" lon="9.4124023"><ele>846.5</ele><time>2026-04-19T09:18:23.772Z</time></trkpt><trkpt lat="44.6918851" lon="9.4125412"><ele>847.25</ele><time>2026-04-19T09:18:24.783Z</time></trkpt><trkpt lat="44.6919492" lon="9.4126802"><ele>848.0</ele><time>2026-04-19T09:18:25.846Z</time></trkpt><trkpt lat="44.6919919" lon="9.4128138"><ele>848.4</ele><time>2026-04-19T09:18:26.821Z</time></trkpt><trkpt lat="44.6920176" lon="9.4129546"><ele>848.8</ele><time>2026-04-19T09:18:27.82Z</time></trkpt><trkpt lat="44.6920089" lon="9.413096"><ele>849.2</ele><time>2026-04-19T09:18:28.783Z</time></trkpt><trkpt lat="44.6919646" lon="9.4132409"><ele>849.6</ele><time>2026-04-19T09:18:29.815Z</time></trkpt><trkpt lat="44.6919145" lon="9.4133874"><ele>850.0</ele><time>2026-04-19T09:18:30.83Z</time></trkpt><trkpt lat="44.6918623" lon="9.4135281"><ele>850.0</ele><time>2026-04-19T09:18:31.869Z</time></trkpt><trkpt lat="44.6918111" lon="9.4136479"><ele>850.0</ele><time>2026-04-19T09:18:32.805Z</time></trkpt><trkpt lat="44.6917413" lon="9.4137622"><ele>850.0</ele><time>2026-04-19T09:18:33.84Z</time></trkpt><trkpt lat="44.6916535" lon="9.4138509"><ele>850.0</ele><time>2026-04-19T09:18:34.937Z</time></trkpt><trkpt lat="44.6914384" lon="9.4138702"><ele>848.0</ele><time>2026-04-19T09:18:36.844Z</time></trkpt><trkpt lat="44.6913107" lon="9.4138454"><ele>846.0</ele><time>2026-04-19T09:18:37.801Z</time></trkpt><trkpt lat="44.6911748" lon="9.4138222"><ele>844.0</ele><time>2026-04-19T09:18:38.818Z</time></trkpt><trkpt lat="44.6910259" lon="9.4138033"><ele>842.0</ele><time>2026-04-19T09:18:39.851Z</time></trkpt><trkpt lat="44.6908959" lon="9.4137885"><ele>846.0</ele><time>2026-04-19T09:18:40.775Z</time></trkpt><trkpt lat="44.6907484" lon="9.4137849"><ele>850.0</ele><time>2026-04-19T09:18:41.827Z</time></trkpt><trkpt lat="44.6905967" lon="9.4137995"><ele>854.0</ele><time>2026-04-19T09:18:42.93Z</time></trkpt><trkpt lat="44.6903424" lon="9.4139089"><ele>854.75</ele><time>2026-04-19T09:18:44.792Z</time></trkpt><trkpt lat="44.6902141" lon="9.4139737"><ele>855.5</ele><time>2026-04-19T09:18:45.786Z</time></trkpt><trkpt lat="44.6900868" lon="9.4140405"><ele>856.25</ele><time>2026-04-19T09:18:46.782Z</time></trkpt><trkpt lat="44.6899577" lon="9.4141091"><ele>857.0</ele><time>2026-04-19T09:18:47.782Z</time></trkpt><trkpt lat="44.6898329" lon="9.4141731"><ele>857.0</ele><time>2026-04-19T09:18:48.799Z</time></trkpt><trkpt lat="44.68972" lon="9.4142316"><ele>857.0</ele><time>2026-04-19T09:18:49.737Z</time></trkpt><trkpt lat="44.689627" lon="9.4142862"><ele>857.0</ele><time>2026-04-19T09:18:50.797Z</time></trkpt><trkpt lat="44.689549" lon="9.4143553"><ele>857.0</ele><time>2026-04-19T09:18:51.802Z</time></trkpt><trkpt lat="44.6894828" lon="9.4144324"><ele>857.0</ele><time>2026-04-19T09:18:52.799Z</time></trkpt><trkpt lat="44.6894497" lon="9.4145346"><ele>857.0000000000001</ele><time>2026-04-19T09:18:53.839Z</time></trkpt><trkpt lat="44.689448" lon="9.4146357"><ele>857.0</ele><time>2026-04-19T09:18:54.805Z</time></trkpt><trkpt lat="44.689472" lon="9.4147393"><ele>857.0</ele><time>2026-04-19T09:18:55.769Z</time></trkpt><trkpt lat="44.6895258" lon="9.4148356"><ele>857.0</ele><time>2026-04-19T09:18:56.84Z</time></trkpt><trkpt lat="44.6895983" lon="9.4148964"><ele>857.0000000000001</ele><time>2026-04-19T09:18:57.845Z</time></trkpt><trkpt lat="44.6896946" lon="9.4149311"><ele>857.0</ele><time>2026-04-19T09:18:58.868Z</time></trkpt><trkpt lat="44.6897965" lon="9.4149329"><ele>858.0</ele><time>2026-04-19T09:18:59.831Z</time></trkpt><trkpt lat="44.6899313" lon="9.414905"><ele>859.0</ele><time>2026-04-19T09:19:00.997Z</time></trkpt><trkpt lat="44.690161" lon="9.4148509"><ele>860.0</ele><time>2026-04-19T09:19:02.819Z</time></trkpt><trkpt lat="44.6902917" lon="9.41483"><ele>860.0</ele><time>2026-04-19T09:19:03.819Z</time></trkpt><trkpt lat="44.6904088" lon="9.414812"><ele>860.0</ele><time>2026-04-19T09:19:04.793Z</time></trkpt><trkpt lat="44.690496" lon="9.414799"><ele>860.0</ele><time>2026-04-19T09:19:05.806Z</time></trkpt><trkpt lat="44.6906239" lon="9.4147717"><ele>860.0</ele><time>2026-04-19T09:19:07.836Z</time></trkpt><trkpt lat="44.6906988" lon="9.4147539"><ele>860.0</ele><time>2026-04-19T09:19:08.818Z</time></trkpt><trkpt lat="44.6907838" lon="9.4147479"><ele>860.0</ele><time>2026-04-19T09:19:09.808Z</time></trkpt><trkpt lat="44.6908745" lon="9.4147484"><ele>860.0</ele><time>2026-04-19T09:19:10.818Z</time></trkpt><trkpt lat="44.6909552" lon="9.414779"><ele>860.0</ele><time>2026-04-19T09:19:11.805Z</time></trkpt><trkpt lat="44.6910306" lon="9.4148517"><ele>860.0</ele><time>2026-04-19T09:19:12.822Z</time></trkpt><trkpt lat="44.691096" lon="9.4149631"><ele>860.0</ele><time>2026-04-19T09:19:13.866Z</time></trkpt><trkpt lat="44.6911379" lon="9.4151144"><ele>860.0</ele><time>2026-04-19T09:19:14.872Z</time></trkpt><trkpt lat="44.6911833" lon="9.4152654"><ele>860.0</ele><time>2026-04-19T09:19:15.793Z</time></trkpt><trkpt lat="44.691237" lon="9.415434"><ele>860.0</ele><time>2026-04-19T09:19:16.86Z</time></trkpt><trkpt lat="44.6912892" lon="9.4155921"><ele>860.0</ele><time>2026-04-19T09:19:17.815Z</time></trkpt><trkpt lat="44.6913447" lon="9.4157621"><ele>860.0</ele><time>2026-04-19T09:19:18.841Z</time></trkpt><trkpt lat="44.6913975" lon="9.4159288"><ele>860.0</ele><time>2026-04-19T09:19:19.834Z</time></trkpt><trkpt lat="44.6914472" lon="9.4160979"><ele>860.0</ele><time>2026-04-19T09:19:20.841Z</time></trkpt><trkpt lat="44.6914926" lon="9.4162606"><ele>860.0</ele><time>2026-04-19T09:19:21.806Z</time></trkpt><trkpt lat="44.6915388" lon="9.4164174"><ele>863.0</ele><time>2026-04-19T09:19:22.763Z</time></trkpt><trkpt lat="44.6915973" lon="9.4165804"><ele>866.0</ele><time>2026-04-19T09:19:23.825Z</time></trkpt><trkpt lat="44.6916519" lon="9.4167229"><ele>869.0</ele><time>2026-04-19T09:19:24.778Z</time></trkpt><trkpt lat="44.6917024" lon="9.4168691"><ele>872.0</ele><time>2026-04-19T09:19:25.807Z</time></trkpt><trkpt lat="44.6917456" lon="9.4169914"><ele>872.0000000000001</ele><time>2026-04-19T09:19:26.821Z</time></trkpt><trkpt lat="44.6917838" lon="9.4170965"><ele>872.0</ele><time>2026-04-19T09:19:27.889Z</time></trkpt><trkpt lat="44.6918449" lon="9.4172416"><ele>872.0</ele><time>2026-04-19T09:19:29.783Z</time></trkpt><trkpt lat="44.6918783" lon="9.4173195"><ele>872.0</ele><time>2026-04-19T09:19:30.789Z</time></trkpt><trkpt lat="44.6919245" lon="9.417391"><ele>872.0000000000001</ele><time>2026-04-19T09:19:31.813Z</time></trkpt><trkpt lat="44.6919865" lon="9.4174702"><ele>872.0</ele><time>2026-04-19T09:19:32.888Z</time></trkpt><trkpt lat="44.6920418" lon="9.4175466"><ele>871.5000000000001</ele><time>2026-04-19T09:19:33.807Z</time></trkpt><trkpt lat="44.6920921" lon="9.417631"><ele>871.0</ele><time>2026-04-19T09:19:34.795Z</time></trkpt><trkpt lat="44.6921284" lon="9.4177181"><ele>870.5</ele><time>2026-04-19T09:19:35.738Z</time></trkpt><trkpt lat="44.6921723" lon="9.4178333"><ele>870.0</ele><time>2026-04-19T09:19:36.843Z</time></trkpt><trkpt lat="44.6922092" lon="9.417945"><ele>869.5000000000001</ele><time>2026-04-19T09:19:37.834Z</time></trkpt><trkpt lat="44.6922582" lon="9.4180491"><ele>869.0</ele><time>2026-04-19T09:19:38.775Z</time></trkpt><trkpt lat="44.6923208" lon="9.4181668"><ele>870.6</ele><time>2026-04-19T09:19:39.859Z</time></trkpt><trkpt lat="44.692363" lon="9.4182594"><ele>872.2</ele><time>2026-04-19T09:19:40.795Z</time></trkpt><trkpt lat="44.6924117" lon="9.418366"><ele>873.8000000000001</ele><time>2026-04-19T09:19:41.862Z</time></trkpt><trkpt lat="44.6924646" lon="9.4185214"><ele>875.4000000000001</ele><time>2026-04-19T09:19:43.758Z</time></trkpt><trkpt lat="44.6925448" lon="9.4186659"><ele>877.0</ele><time>2026-04-19T09:19:45.741Z</time></trkpt><trkpt lat="44.6925886" lon="9.4187417"><ele>876.9999999999999</ele><time>2026-04-19T09:19:46.809Z</time></trkpt><trkpt lat="44.6926258" lon="9.418814"><ele>877.0</ele><time>2026-04-19T09:19:47.792Z</time></trkpt><trkpt lat="44.6926362" lon="9.4189865"><ele>877.0</ele><time>2026-04-19T09:19:49.759Z</time></trkpt><trkpt lat="44.6926092" lon="9.4190869"><ele>877.0</ele><time>2026-04-19T09:19:50.795Z</time></trkpt><trkpt lat="44.692589" lon="9.4191781"><ele>876.9999999999999</ele><time>2026-04-19T09:19:51.773Z</time></trkpt><trkpt lat="44.692585" lon="9.4192825"><ele>877.0</ele><time>2026-04-19T09:19:52.859Z</time></trkpt><trkpt lat="44.6925915" lon="9.4193851"><ele>879.6</ele><time>2026-04-19T09:19:53.845Z</time></trkpt><trkpt lat="44.6925998" lon="9.4194881"><ele>882.2</ele><time>2026-04-19T09:19:54.788Z</time></trkpt><trkpt lat="44.6925971" lon="9.4195962"><ele>884.8</ele><time>2026-04-19T09:19:55.806Z</time></trkpt><trkpt lat="44.6925946" lon="9.4197033"><ele>887.4</ele><time>2026-04-19T09:19:56.777Z</time></trkpt><trkpt lat="44.6925868" lon="9.419825"><ele>890.0</ele><time>2026-04-19T09:19:57.886Z</time></trkpt><trkpt lat="44.6925669" lon="9.4200296"><ele>891.1666666666667</ele><time>2026-04-19T09:19:59.778Z</time></trkpt><trkpt lat="44.6925555" lon="9.4201349"><ele>892.3333333333334</ele><time>2026-04-19T09:20:00.785Z</time></trkpt><trkpt lat="44.6925638" lon="9.4202288"><ele>893.5</ele><time>2026-04-19T09:20:01.795Z</time></trkpt><trkpt lat="44.6925839" lon="9.4203219"><ele>894.6666666666667</ele><time>2026-04-19T09:20:02.92Z</time></trkpt><trkpt lat="44.6926279" lon="9.4204533"><ele>895.8333333333334</ele><time>2026-04-19T09:20:04.791Z</time></trkpt><trkpt lat="44.6927252" lon="9.4205288"><ele>897.0</ele><time>2026-04-19T09:20:06.81Z</time></trkpt><trkpt lat="44.6928243" lon="9.4204893"><ele>897.0</ele><time>2026-04-19T09:20:08.787Z</time></trkpt><trkpt lat="44.6928716" lon="9.4204072"><ele>897.0</ele><time>2026-04-19T09:20:10.799Z</time></trkpt><trkpt lat="44.6929397" lon="9.4203341"><ele>897.0</ele><time>2026-04-19T09:20:13.747Z</time></trkpt><trkpt lat="44.6930032" lon="9.4203453"><ele>897.0</ele><time>2026-04-19T09:20:16.818Z</time></trkpt><trkpt lat="44.6930967" lon="9.4203792"><ele>897.0</ele><time>2026-04-19T09:20:26.801Z</time></trkpt><trkpt lat="44.6931691" lon="9.4204615"><ele>897.0</ele><time>2026-04-19T09:20:28.755Z</time></trkpt><trkpt lat="44.693204" lon="9.4205748"><ele>897.0</ele><time>2026-04-19T09:20:30.783Z</time></trkpt><trkpt lat="44.6932072" lon="9.4206917"><ele>897.0</ele><time>2026-04-19T09:20:32.813Z</time></trkpt><trkpt lat="44.6932011" lon="9.4208583"><ele>897.0</ele><time>2026-04-19T09:20:34.811Z</time></trkpt><trkpt lat="44.6931699" lon="9.4210324"><ele>897.0</ele><time>2026-04-19T09:20:36.915Z</time></trkpt><trkpt lat="44.6931568" lon="9.4211592"><ele>897.0</ele><time>2026-04-19T09:20:38.81Z</time></trkpt><trkpt lat="44.6931952" lon="9.4212742"><ele>897.0</ele><time>2026-04-19T09:20:40.819Z</time></trkpt><trkpt lat="44.6932865" lon="9.4213448"><ele>897.0</ele><time>2026-04-19T09:20:42.806Z</time></trkpt><trkpt lat="44.6934052" lon="9.4213241"><ele>897.0</ele><time>2026-04-19T09:20:44.87Z</time></trkpt><trkpt lat="44.6935217" lon="9.4212313"><ele>897.0</ele><time>2026-04-19T09:20:46.818Z</time></trkpt><trkpt lat="44.6936437" lon="9.4212015"><ele>898.1666666666666</ele><time>2026-04-19T09:20:48.822Z</time></trkpt><trkpt lat="44.6937089" lon="9.421196"><ele>899.3333333333333</ele><time>2026-04-19T09:20:49.821Z</time></trkpt><trkpt lat="44.6937866" lon="9.4211973"><ele>900.5</ele><time>2026-04-19T09:20:50.825Z</time></trkpt><trkpt lat="44.6938578" lon="9.4211989"><ele>901.6666666666666</ele><time>2026-04-19T09:20:51.799Z</time></trkpt><trkpt lat="44.6939191" lon="9.4212217"><ele>902.8333333333333</ele><time>2026-04-19T09:20:52.843Z</time></trkpt><trkpt lat="44.6940282" lon="9.4212869"><ele>904.0</ele><time>2026-04-19T09:20:54.797Z</time></trkpt><trkpt lat="44.6940918" lon="9.4212907"><ele>904.0</ele><time>2026-04-19T09:20:55.813Z</time></trkpt><trkpt lat="44.6942245" lon="9.421222"><ele>904.0</ele><time>2026-04-19T09:20:58.871Z</time></trkpt><trkpt lat="44.6943154" lon="9.4212257"><ele>904.0</ele><time>2026-04-19T09:21:00.822Z</time></trkpt><trkpt lat="44.6943476" lon="9.4213804"><ele>904.0</ele><time>2026-04-19T09:21:02.827Z</time></trkpt><trkpt lat="44.6943088" lon="9.4216209"><ele>907.0</ele><time>2026-04-19T09:21:05.813Z</time></trkpt><trkpt lat="44.6942922" lon="9.4217466"><ele>910.0000000000001</ele><time>2026-04-19T09:21:07.827Z</time></trkpt><trkpt lat="44.6942768" lon="9.4218493"><ele>913.0000000000001</ele><time>2026-04-19T09:21:09.844Z</time></trkpt><trkpt lat="44.6942403" lon="9.4219999"><ele>916.0</ele><time>2026-04-19T09:21:11.866Z</time></trkpt><trkpt lat="44.6942038" lon="9.4221673"><ele>919.0</ele><time>2026-04-19T09:21:13.847Z</time></trkpt><trkpt lat="44.6941876" lon="9.422255"><ele>919.9999999999999</ele><time>2026-04-19T09:21:14.909Z</time></trkpt><trkpt lat="44.6941385" lon="9.422422"><ele>921.0</ele><time>2026-04-19T09:21:16.89Z</time></trkpt><trkpt lat="44.6941076" lon="9.4225137"><ele>922.0</ele><time>2026-04-19T09:21:17.825Z</time></trkpt><trkpt lat="44.6940722" lon="9.4226163"><ele>923.0</ele><time>2026-04-19T09:21:18.837Z</time></trkpt><trkpt lat="44.6940498" lon="9.4227261"><ele>923.9999999999999</ele><time>2026-04-19T09:21:19.831Z</time></trkpt><trkpt lat="44.6940341" lon="9.4228259"><ele>925.0</ele><time>2026-04-19T09:21:20.835Z</time></trkpt><trkpt lat="44.6940014" lon="9.4229947"><ele>927.2</ele><time>2026-04-19T09:21:22.823Z</time></trkpt><trkpt lat="44.6939483" lon="9.4231559"><ele>929.4</ele><time>2026-04-19T09:21:24.812Z</time></trkpt><trkpt lat="44.6938927" lon="9.4232987"><ele>931.5999999999999</ele><time>2026-04-19T09:21:26.806Z</time></trkpt><trkpt lat="44.6938436" lon="9.4233763"><ele>933.8</ele><time>2026-04-19T09:21:27.884Z</time></trkpt><trkpt lat="44.6937971" lon="9.4234466"><ele>936.0</ele><time>2026-04-19T09:21:28.934Z</time></trkpt><trkpt lat="44.6937157" lon="9.4235626"><ele>936.0</ele><time>2026-04-19T09:21:30.799Z</time></trkpt><trkpt lat="44.6936115" lon="9.4236614"><ele>936.0</ele><time>2026-04-19T09:21:32.799Z</time></trkpt><trkpt lat="44.6935478" lon="9.4236979"><ele>936.0</ele><time>2026-04-19T09:21:33.831Z</time></trkpt><trkpt lat="44.6934715" lon="9.4237099"><ele>936.0</ele><time>2026-04-19T09:21:34.864Z</time></trkpt><trkpt lat="44.693404" lon="9.4237128"><ele>936.0</ele><time>2026-04-19T09:21:35.827Z</time></trkpt><trkpt lat="44.69334" lon="9.4237355"><ele>936.0</ele><time>2026-04-19T09:21:36.86Z</time></trkpt><trkpt lat="44.6932779" lon="9.4237737"><ele>937.5999999999999</ele><time>2026-04-19T09:21:37.81Z</time></trkpt><trkpt lat="44.693221" lon="9.4238153"><ele>939.1999999999999</ele><time>2026-04-19T09:21:38.832Z</time></trkpt><trkpt lat="44.6931204" lon="9.4239306"><ele>940.8000000000001</ele><time>2026-04-19T09:21:40.825Z</time></trkpt><trkpt lat="44.693062" lon="9.4240947"><ele>942.4000000000001</ele><time>2026-04-19T09:21:42.972Z</time></trkpt><trkpt lat="44.6930372" lon="9.4242635"><ele>944.0</ele><time>2026-04-19T09:21:44.738Z</time></trkpt><trkpt lat="44.6930297" lon="9.4243676"><ele>944.0000000000001</ele><time>2026-04-19T09:21:45.786Z</time></trkpt><trkpt lat="44.6930271" lon="9.4244639"><ele>944.0</ele><time>2026-04-19T09:21:46.771Z</time></trkpt><trkpt lat="44.693054" lon="9.4245934"><ele>944.0</ele><time>2026-04-19T09:21:48.842Z</time></trkpt><trkpt lat="44.6931243" lon="9.4246687"><ele>944.0</ele><time>2026-04-19T09:21:50.771Z</time></trkpt><trkpt lat="44.6932383" lon="9.4246112"><ele>944.0000000000001</ele><time>2026-04-19T09:21:52.83Z</time></trkpt><trkpt lat="44.6933021" lon="9.4245747"><ele>944.0</ele><time>2026-04-19T09:21:53.846Z</time></trkpt><trkpt lat="44.6934104" lon="9.4244839"><ele>944.0</ele><time>2026-04-19T09:21:55.828Z</time></trkpt><trkpt lat="44.6934734" lon="9.4244179"><ele>944.0000000000001</ele><time>2026-04-19T09:21:56.829Z</time></trkpt><trkpt lat="44.6935401" lon="9.4243311"><ele>944.0000000000001</ele><time>2026-04-19T09:21:57.817Z</time></trkpt><trkpt lat="44.6936035" lon="9.4241995"><ele>944.0</ele><time>2026-04-19T09:21:59.838Z</time></trkpt><trkpt lat="44.6936782" lon="9.4241058"><ele>944.0</ele><time>2026-04-19T09:22:01.832Z</time></trkpt><trkpt lat="44.6937924" lon="9.4240967"><ele>947.0</ele><time>2026-04-19T09:22:03.883Z</time></trkpt><trkpt lat="44.6939017" lon="9.424167"><ele>950.0</ele><time>2026-04-19T09:22:05.845Z</time></trkpt><trkpt lat="44.6940115" lon="9.4241965"><ele>953.0</ele><time>2026-04-19T09:22:07.831Z</time></trkpt><trkpt lat="44.6941272" lon="9.4241572"><ele>956.0</ele><time>2026-04-19T09:22:09.869Z</time></trkpt><trkpt lat="44.6942273" lon="9.424084"><ele>956.0</ele><time>2026-04-19T09:22:11.817Z</time></trkpt><trkpt lat="44.6943347" lon="9.4240247"><ele>955.9999999999999</ele><time>2026-04-19T09:22:13.815Z</time></trkpt><trkpt lat="44.6944543" lon="9.4239995"><ele>955.9999999999999</ele><time>2026-04-19T09:22:15.825Z</time></trkpt><trkpt lat="44.6945288" lon="9.4239959"><ele>956.0</ele><time>2026-04-19T09:22:16.827Z</time></trkpt><trkpt lat="44.6946476" lon="9.424018"><ele>956.0</ele><time>2026-04-19T09:22:18.808Z</time></trkpt><trkpt lat="44.6947405" lon="9.4240764"><ele>957.1999999999999</ele><time>2026-04-19T09:22:20.839Z</time></trkpt><trkpt lat="44.6948145" lon="9.4241779"><ele>958.3999999999999</ele><time>2026-04-19T09:22:22.819Z</time></trkpt><trkpt lat="44.6948683" lon="9.4243166"><ele>959.6</ele><time>2026-04-19T09:22:24.868Z</time></trkpt><trkpt lat="44.694888" lon="9.4244553"><ele>960.8</ele><time>2026-04-19T09:22:26.849Z</time></trkpt><trkpt lat="44.6948419" lon="9.4245859"><ele>962.0</ele><time>2026-04-19T09:22:28.869Z</time></trkpt><trkpt lat="44.6947387" lon="9.4246659"><ele>965.5</ele><time>2026-04-19T09:22:30.947Z</time></trkpt><trkpt lat="44.6946557" lon="9.4247615"><ele>969.0</ele><time>2026-04-19T09:22:32.829Z</time></trkpt><trkpt lat="44.6945833" lon="9.4248832"><ele>972.5</ele><time>2026-04-19T09:22:34.854Z</time></trkpt><trkpt lat="44.6945339" lon="9.4250205"><ele>976.0</ele><time>2026-04-19T09:22:36.804Z</time></trkpt><trkpt lat="44.6944882" lon="9.4251817"><ele>976.0</ele><time>2026-04-19T09:22:38.82Z</time></trkpt><trkpt lat="44.6944682" lon="9.4252679"><ele>975.9999999999999</ele><time>2026-04-19T09:22:39.838Z</time></trkpt><trkpt lat="44.6944447" lon="9.425444"><ele>975.9999999999999</ele><time>2026-04-19T09:22:41.865Z</time></trkpt><trkpt lat="44.6944355" lon="9.4255468"><ele>976.0</ele><time>2026-04-19T09:22:42.851Z</time></trkpt><trkpt lat="44.6944292" lon="9.4256528"><ele>976.0</ele><time>2026-04-19T09:22:43.981Z</time></trkpt><trkpt lat="44.6944361" lon="9.4258309"><ele>978.1666666666666</ele><time>2026-04-19T09:22:45.822Z</time></trkpt><trkpt lat="44.6944523" lon="9.4259181"><ele>980.3333333333333</ele><time>2026-04-19T09:22:46.859Z</time></trkpt><trkpt lat="44.6944651" lon="9.4260066"><ele>982.5</ele><time>2026-04-19T09:22:47.825Z</time></trkpt><trkpt lat="44.694476" lon="9.4261273"><ele>984.6666666666667</ele><time>2026-04-19T09:22:48.83Z</time></trkpt><trkpt lat="44.6944583" lon="9.4262408"><ele>986.8333333333334</ele><time>2026-04-19T09:22:50.025Z</time></trkpt><trkpt lat="44.6943689" lon="9.4263522"><ele>989.0</ele><time>2026-04-19T09:22:51.893Z</time></trkpt><trkpt lat="44.6942848" lon="9.426421"><ele>989.0</ele><time>2026-04-19T09:22:52.969Z</time></trkpt><trkpt lat="44.6941826" lon="9.4265223"><ele>989.0</ele><time>2026-04-19T09:22:54.842Z</time></trkpt><trkpt lat="44.6941169" lon="9.4266442"><ele>989.0</ele><time>2026-04-19T09:22:56.899Z</time></trkpt><trkpt lat="44.6940402" lon="9.42677"><ele>989.0</ele><time>2026-04-19T09:22:58.828Z</time></trkpt><trkpt lat="44.6939261" lon="9.4267943"><ele>989.0</ele><time>2026-04-19T09:23:00.817Z</time></trkpt><trkpt lat="44.6938219" lon="9.4268277"><ele>989.0000000000001</ele><time>2026-04-19T09:23:02.82Z</time></trkpt><trkpt lat="44.693723" lon="9.4269593"><ele>989.0000000000001</ele><time>2026-04-19T09:23:04.841Z</time></trkpt><trkpt lat="44.6936831" lon="9.427037"><ele>989.0</ele><time>2026-04-19T09:23:05.835Z</time></trkpt><trkpt lat="44.6936254" lon="9.4271988"><ele>989.0</ele><time>2026-04-19T09:23:07.888Z</time></trkpt><trkpt lat="44.6936094" lon="9.4272866"><ele>989.6</ele><time>2026-04-19T09:23:08.841Z</time></trkpt><trkpt lat="44.6936063" lon="9.4273873"><ele>990.2</ele><time>2026-04-19T09:23:09.816Z</time></trkpt><trkpt lat="44.6935913" lon="9.427545"><ele>990.8000000000001</ele><time>2026-04-19T09:23:11.861Z</time></trkpt><trkpt lat="44.6935393" lon="9.4276671"><ele>991.4000000000001</ele><time>2026-04-19T09:23:13.817Z</time></trkpt><trkpt lat="44.6934876" lon="9.4277737"><ele>992.0</ele><time>2026-04-19T09:23:15.831Z</time></trkpt><trkpt lat="44.6934377" lon="9.4278611"><ele>992.0000000000001</ele><time>2026-04-19T09:23:17.851Z</time></trkpt><trkpt lat="44.693412" lon="9.4279544"><ele>992.0</ele><time>2026-04-19T09:23:19.903Z</time></trkpt><trkpt lat="44.6934055" lon="9.4280746"><ele>992.0</ele><time>2026-04-19T09:23:21.865Z</time></trkpt><trkpt lat="44.693402" lon="9.4281987"><ele>992.0</ele><time>2026-04-19T09:23:23.839Z</time></trkpt><trkpt lat="44.6933895" lon="9.4283101"><ele>992.0000000000001</ele><time>2026-04-19T09:23:25.857Z</time></trkpt><trkpt lat="44.6933335" lon="9.4284105"><ele>992.0</ele><time>2026-04-19T09:23:27.83Z</time></trkpt><trkpt lat="44.6932442" lon="9.4285439"><ele>994.1666666666667</ele><time>2026-04-19T09:23:29.824Z</time></trkpt><trkpt lat="44.6931887" lon="9.428621"><ele>996.3333333333334</ele><time>2026-04-19T09:23:31.908Z</time></trkpt><trkpt lat="44.6931241" lon="9.428622"><ele>998.5</ele><time>2026-04-19T09:24:50.751Z</time></trkpt><trkpt lat="44.6930528" lon="9.4286121"><ele>1000.6666666666667</ele><time>2026-04-19T09:25:32.777Z</time></trkpt><trkpt lat="44.6929528" lon="9.4285749"><ele>1002.8333333333334</ele><time>2026-04-19T09:25:35.938Z</time></trkpt><trkpt lat="44.6928856" lon="9.4285591"><ele>1005.0</ele><time>2026-04-19T09:25:36.859Z</time></trkpt><trkpt lat="44.6927974" lon="9.4285763"><ele>1005.6</ele><time>2026-04-19T09:25:37.91Z</time></trkpt><trkpt lat="44.6927252" lon="9.4286248"><ele>1006.2</ele><time>2026-04-19T09:25:38.81Z</time></trkpt><trkpt lat="44.6926311" lon="9.4286984"><ele>1006.8</ele><time>2026-04-19T09:25:39.832Z</time></trkpt><trkpt lat="44.6925375" lon="9.4287962"><ele>1007.4</ele><time>2026-04-19T09:25:40.901Z</time></trkpt><trkpt lat="44.6924666" lon="9.4288734"><ele>1008.0</ele><time>2026-04-19T09:25:41.821Z</time></trkpt><trkpt lat="44.6923836" lon="9.4289553"><ele>1008.0</ele><time>2026-04-19T09:25:42.902Z</time></trkpt><trkpt lat="44.6923048" lon="9.4289972"><ele>1008.0</ele><time>2026-04-19T09:25:43.875Z</time></trkpt><trkpt lat="44.6922144" lon="9.4290109"><ele>1008.0</ele><time>2026-04-19T09:25:44.889Z</time></trkpt><trkpt lat="44.6921284" lon="9.428991"><ele>1008.0</ele><time>2026-04-19T09:25:45.862Z</time></trkpt><trkpt lat="44.6920434" lon="9.4289597"><ele>1008.0</ele><time>2026-04-19T09:25:46.797Z</time></trkpt><trkpt lat="44.6919477" lon="9.4289417"><ele>1008.0</ele><time>2026-04-19T09:25:47.83Z</time></trkpt><trkpt lat="44.6918741" lon="9.4289668"><ele>1006.4</ele><time>2026-04-19T09:25:48.785Z</time></trkpt><trkpt lat="44.6917824" lon="9.4290204"><ele>1004.8</ele><time>2026-04-19T09:25:49.834Z</time></trkpt><trkpt lat="44.6917048" lon="9.4290735"><ele>1003.2</ele><time>2026-04-19T09:25:50.804Z</time></trkpt><trkpt lat="44.6916204" lon="9.4291411"><ele>1001.6</ele><time>2026-04-19T09:25:51.816Z</time></trkpt><trkpt lat="44.691527" lon="9.4292016"><ele>1000.0</ele><time>2026-04-19T09:25:52.911Z</time></trkpt><trkpt lat="44.6914428" lon="9.4292448"><ele>999.9999999999999</ele><time>2026-04-19T09:25:53.882Z</time></trkpt><trkpt lat="44.6913732" lon="9.4292709"><ele>1000.0</ele><time>2026-04-19T09:25:54.826Z</time></trkpt><trkpt lat="44.6912959" lon="9.4292709"><ele>1000.0</ele><time>2026-04-19T09:25:55.837Z</time></trkpt><trkpt lat="44.6912368" lon="9.4292371"><ele>1000.0</ele><time>2026-04-19T09:25:56.832Z</time></trkpt><trkpt lat="44.6911839" lon="9.4291576"><ele>999.9999999999999</ele><time>2026-04-19T09:25:57.834Z</time></trkpt><trkpt lat="44.691123" lon="9.4290595"><ele>1000.0</ele><time>2026-04-19T09:25:58.823Z</time></trkpt><trkpt lat="44.6910593" lon="9.4289667"><ele>1000.4999999999999</ele><time>2026-04-19T09:25:59.768Z</time></trkpt><trkpt lat="44.6909855" lon="9.428862"><ele>1001.0</ele><time>2026-04-19T09:26:00.809Z</time></trkpt><trkpt lat="44.6909143" lon="9.4287477"><ele>1001.5</ele><time>2026-04-19T09:26:01.869Z</time></trkpt><trkpt lat="44.6908613" lon="9.4286566"><ele>1002.0</ele><time>2026-04-19T09:26:02.791Z</time></trkpt><trkpt lat="44.6908214" lon="9.428554"><ele>1002.4999999999999</ele><time>2026-04-19T09:26:03.817Z</time></trkpt><trkpt lat="44.6907879" lon="9.4284784"><ele>1003.0</ele><time>2026-04-19T09:26:04.786Z</time></trkpt><trkpt lat="44.6907493" lon="9.4283521"><ele>1001.3333333333333</ele><time>2026-04-19T09:26:06.797Z</time></trkpt><trkpt lat="44.690689" lon="9.428309"><ele>999.6666666666666</ele><time>2026-04-19T09:26:08.847Z</time></trkpt><trkpt lat="44.6906139" lon="9.4283568"><ele>998.0</ele><time>2026-04-19T09:26:10.82Z</time></trkpt><trkpt lat="44.6905709" lon="9.4285004"><ele>996.3333333333333</ele><time>2026-04-19T09:26:12.842Z</time></trkpt><trkpt lat="44.6905386" lon="9.428586"><ele>994.6666666666666</ele><time>2026-04-19T09:26:13.814Z</time></trkpt><trkpt lat="44.6904936" lon="9.4286719"><ele>993.0</ele><time>2026-04-19T09:26:14.825Z</time></trkpt><trkpt lat="44.690456" lon="9.428756"><ele>994.6666666666666</ele><time>2026-04-19T09:26:15.8Z</time></trkpt><trkpt lat="44.690424" lon="9.4288448"><ele>996.3333333333333</ele><time>2026-04-19T09:26:16.827Z</time></trkpt><trkpt lat="44.6904017" lon="9.4289447"><ele>998.0</ele><time>2026-04-19T09:26:17.811Z</time></trkpt><trkpt lat="44.6903783" lon="9.4290521"><ele>999.6666666666666</ele><time>2026-04-19T09:26:18.815Z</time></trkpt><trkpt lat="44.6903603" lon="9.4291569"><ele>1001.3333333333333</ele><time>2026-04-19T09:26:19.836Z</time></trkpt><trkpt lat="44.6903288" lon="9.4292819"><ele>1003.0</ele><time>2026-04-19T09:26:21.008Z</time></trkpt><trkpt lat="44.6902634" lon="9.429465"><ele>1002.8333333333333</ele><time>2026-04-19T09:26:22.839Z</time></trkpt><trkpt lat="44.6902295" lon="9.4295494"><ele>1002.6666666666666</ele><time>2026-04-19T09:26:23.867Z</time></trkpt><trkpt lat="44.6901974" lon="9.4296434"><ele>1002.5</ele><time>2026-04-19T09:26:24.826Z</time></trkpt><trkpt lat="44.6901606" lon="9.4297328"><ele>1002.3333333333333</ele><time>2026-04-19T09:26:25.792Z</time></trkpt><trkpt lat="44.690121" lon="9.4298287"><ele>1002.1666666666666</ele><time>2026-04-19T09:26:26.873Z</time></trkpt><trkpt lat="44.6900465" lon="9.4299688"><ele>1002.0</ele><time>2026-04-19T09:26:28.811Z</time></trkpt><trkpt lat="44.690002" lon="9.4300316"><ele>1003.5</ele><time>2026-04-19T09:26:29.79Z</time></trkpt><trkpt lat="44.6898799" lon="9.4301067"><ele>1005.0</ele><time>2026-04-19T09:26:31.881Z</time></trkpt><trkpt lat="44.6898166" lon="9.4301062"><ele>1006.5</ele><time>2026-04-19T09:26:32.804Z</time></trkpt><trkpt lat="44.6897325" lon="9.4300888"><ele>1008.0</ele><time>2026-04-19T09:26:33.893Z</time></trkpt><trkpt lat="44.6896678" lon="9.4300614"><ele>1009.5</ele><time>2026-04-19T09:26:34.809Z</time></trkpt><trkpt lat="44.6895968" lon="9.4300343"><ele>1011.0</ele><time>2026-04-19T09:26:35.876Z</time></trkpt><trkpt lat="44.6895217" lon="9.4299934"><ele>1010.9999999999999</ele><time>2026-04-19T09:26:36.92Z</time></trkpt><trkpt lat="44.6894578" lon="9.4299627"><ele>1011.0</ele><time>2026-04-19T09:26:37.837Z</time></trkpt><trkpt lat="44.6893889" lon="9.4299257"><ele>1010.9999999999999</ele><time>2026-04-19T09:26:38.843Z</time></trkpt><trkpt lat="44.6893225" lon="9.429889"><ele>1010.9999999999999</ele><time>2026-04-19T09:26:39.798Z</time></trkpt><trkpt lat="44.6892551" lon="9.4298436"><ele>1011.0</ele><time>2026-04-19T09:26:40.848Z</time></trkpt><trkpt lat="44.689196" lon="9.4297916"><ele>1010.9999999999999</ele><time>2026-04-19T09:26:41.803Z</time></trkpt><trkpt lat="44.6891295" lon="9.4297219"><ele>1010.9999999999999</ele><time>2026-04-19T09:26:42.788Z</time></trkpt><trkpt lat="44.6890701" lon="9.429642"><ele>1010.8333333333334</ele><time>2026-04-19T09:26:43.798Z</time></trkpt><trkpt lat="44.6890118" lon="9.4295548"><ele>1010.6666666666667</ele><time>2026-04-19T09:26:44.8Z</time></trkpt><trkpt lat="44.688948" lon="9.429476"><ele>1010.5</ele><time>2026-04-19T09:26:45.852Z</time></trkpt><trkpt lat="44.6888922" lon="9.4294097"><ele>1010.3333333333334</ele><time>2026-04-19T09:26:46.792Z</time></trkpt><trkpt lat="44.6888446" lon="9.4293166"><ele>1010.1666666666667</ele><time>2026-04-19T09:26:47.767Z</time></trkpt><trkpt lat="44.6888009" lon="9.4292288"><ele>1010.0</ele><time>2026-04-19T09:26:48.818Z</time></trkpt><trkpt lat="44.6887245" lon="9.4291492"><ele>1010.0</ele><time>2026-04-19T09:26:49.842Z</time></trkpt><trkpt lat="44.6886504" lon="9.4290718"><ele>1010.0</ele><time>2026-04-19T09:26:50.825Z</time></trkpt><trkpt lat="44.6885902" lon="9.4289786"><ele>1010.0</ele><time>2026-04-19T09:26:51.784Z</time></trkpt><trkpt lat="44.6885297" lon="9.4288739"><ele>1010.0</ele><time>2026-04-19T09:26:52.787Z</time></trkpt><trkpt lat="44.6884704" lon="9.4287711"><ele>1010.0</ele><time>2026-04-19T09:26:53.813Z</time></trkpt><trkpt lat="44.6884181" lon="9.4286867"><ele>1015.5</ele><time>2026-04-19T09:26:54.772Z</time></trkpt><trkpt lat="44.6883765" lon="9.4286078"><ele>1021.0</ele><time>2026-04-19T09:26:55.904Z</time></trkpt><trkpt lat="44.6883114" lon="9.428446"><ele>1026.5</ele><time>2026-04-19T09:26:57.772Z</time></trkpt><trkpt lat="44.6882846" lon="9.4283235"><ele>1032.0</ele><time>2026-04-19T09:26:58.942Z</time></trkpt><trkpt lat="44.6882949" lon="9.4280992"><ele>1032.0</ele><time>2026-04-19T09:27:01.808Z</time></trkpt><trkpt lat="44.688228" lon="9.4281866"><ele>1032.0</ele><time>2026-04-19T09:27:04.788Z</time></trkpt><trkpt lat="44.6881919" lon="9.428349"><ele>1032.0</ele><time>2026-04-19T09:27:06.795Z</time></trkpt><trkpt lat="44.6881716" lon="9.4285313"><ele>1032.0</ele><time>2026-04-19T09:27:08.818Z</time></trkpt><trkpt lat="44.6881735" lon="9.428635"><ele>1032.0</ele><time>2026-04-19T09:27:09.806Z</time></trkpt><trkpt lat="44.6881813" lon="9.4287433"><ele>1033.5</ele><time>2026-04-19T09:27:10.806Z</time></trkpt><trkpt lat="44.6881897" lon="9.428859"><ele>1035.0</ele><time>2026-04-19T09:27:11.795Z</time></trkpt><trkpt lat="44.6881959" lon="9.4289548"><ele>1036.5</ele><time>2026-04-19T09:27:12.791Z</time></trkpt><trkpt lat="44.6881949" lon="9.4291305"><ele>1038.0</ele><time>2026-04-19T09:27:14.842Z</time></trkpt><trkpt lat="44.6881897" lon="9.4292316"><ele>1039.5</ele><time>2026-04-19T09:27:15.903Z</time></trkpt><trkpt lat="44.6881781" lon="9.4293328"><ele>1041.0</ele><time>2026-04-19T09:27:16.852Z</time></trkpt><trkpt lat="44.688164" lon="9.4294402"><ele>1041.0</ele><time>2026-04-19T09:27:18.008Z</time></trkpt><trkpt lat="44.6881405" lon="9.4295884"><ele>1041.0</ele><time>2026-04-19T09:27:19.827Z</time></trkpt><trkpt lat="44.6881033" lon="9.4297407"><ele>1041.0</ele><time>2026-04-19T09:27:21.823Z</time></trkpt><trkpt lat="44.6880741" lon="9.4298206"><ele>1041.0</ele><time>2026-04-19T09:27:22.829Z</time></trkpt><trkpt lat="44.6879779" lon="9.4298888"><ele>1041.0</ele><time>2026-04-19T09:27:24.826Z</time></trkpt><trkpt lat="44.6878789" lon="9.4299676"><ele>1041.8</ele><time>2026-04-19T09:27:26.825Z</time></trkpt><trkpt lat="44.6878167" lon="9.4300737"><ele>1042.6</ele><time>2026-04-19T09:27:28.799Z</time></trkpt><trkpt lat="44.6878174" lon="9.4302659"><ele>1043.4</ele><time>2026-04-19T09:27:30.8Z</time></trkpt><trkpt lat="44.6878337" lon="9.4303969"><ele>1044.2</ele><time>2026-04-19T09:27:31.897Z</time></trkpt><trkpt lat="44.6878461" lon="9.4305022"><ele>1045.0</ele><time>2026-04-19T09:27:32.871Z</time></trkpt><trkpt lat="44.68786" lon="9.4305974"><ele>1046.5</ele><time>2026-04-19T09:27:33.856Z</time></trkpt><trkpt lat="44.6878681" lon="9.4306926"><ele>1048.0</ele><time>2026-04-19T09:27:34.853Z</time></trkpt><trkpt lat="44.6878747" lon="9.4307837"><ele>1049.5</ele><time>2026-04-19T09:27:35.924Z</time></trkpt><trkpt lat="44.6878987" lon="9.4309446"><ele>1051.0</ele><time>2026-04-19T09:27:37.869Z</time></trkpt><trkpt lat="44.6879266" lon="9.4310251"><ele>1052.5</ele><time>2026-04-19T09:27:38.849Z</time></trkpt><trkpt lat="44.6879665" lon="9.4311138"><ele>1054.0</ele><time>2026-04-19T09:27:39.828Z</time></trkpt><trkpt lat="44.688007" lon="9.4312007"><ele>1054.0</ele><time>2026-04-19T09:27:40.808Z</time></trkpt><trkpt lat="44.6880505" lon="9.431303"><ele>1054.0</ele><time>2026-04-19T09:27:41.837Z</time></trkpt><trkpt lat="44.6880937" lon="9.4313982"><ele>1054.0</ele><time>2026-04-19T09:27:42.854Z</time></trkpt><trkpt lat="44.6881353" lon="9.431488"><ele>1054.0</ele><time>2026-04-19T09:27:43.808Z</time></trkpt><trkpt lat="44.6881762" lon="9.4315701"><ele>1054.0</ele><time>2026-04-19T09:27:44.831Z</time></trkpt><trkpt lat="44.6882101" lon="9.4316628"><ele>1054.0</ele><time>2026-04-19T09:27:45.822Z</time></trkpt><trkpt lat="44.688233" lon="9.4317624"><ele>1055.0</ele><time>2026-04-19T09:27:46.839Z</time></trkpt><trkpt lat="44.6882446" lon="9.431867"><ele>1056.0</ele><time>2026-04-19T09:27:47.844Z</time></trkpt><trkpt lat="44.6882498" lon="9.4319778"><ele>1057.0</ele><time>2026-04-19T09:27:48.824Z</time></trkpt><trkpt lat="44.6882608" lon="9.4320941"><ele>1058.0</ele><time>2026-04-19T09:27:49.888Z</time></trkpt><trkpt lat="44.6882704" lon="9.4321968"><ele>1059.0</ele><time>2026-04-19T09:27:50.855Z</time></trkpt><trkpt lat="44.6882817" lon="9.4323052"><ele>1060.0</ele><time>2026-04-19T09:27:51.911Z</time></trkpt><trkpt lat="44.6883146" lon="9.432484"><ele>1062.25</ele><time>2026-04-19T09:27:53.894Z</time></trkpt><trkpt lat="44.6883433" lon="9.4326565"><ele>1064.5</ele><time>2026-04-19T09:27:55.869Z</time></trkpt><trkpt lat="44.6883751" lon="9.4328135"><ele>1066.75</ele><time>2026-04-19T09:27:57.837Z</time></trkpt><trkpt lat="44.6883936" lon="9.4329872"><ele>1069.0</ele><time>2026-04-19T09:27:59.905Z</time></trkpt><trkpt lat="44.6883412" lon="9.4331975"><ele>1072.0</ele><time>2026-04-19T09:28:02.799Z</time></trkpt><trkpt lat="44.6882538" lon="9.4332993"><ele>1075.0</ele><time>2026-04-19T09:28:04.873Z</time></trkpt><trkpt lat="44.6881707" lon="9.4333761"><ele>1078.0</ele><time>2026-04-19T09:28:06.793Z</time></trkpt><trkpt lat="44.6880478" lon="9.4333489"><ele>1081.0</ele><time>2026-04-19T09:28:08.822Z</time></trkpt><trkpt lat="44.6879694" lon="9.4333223"><ele>1084.0</ele><time>2026-04-19T09:28:09.862Z</time></trkpt><trkpt lat="44.6879082" lon="9.4332935"><ele>1084.0</ele><time>2026-04-19T09:28:10.806Z</time></trkpt><trkpt lat="44.6878232" lon="9.4332763"><ele>1084.0</ele><time>2026-04-19T09:28:12.848Z</time></trkpt><trkpt lat="44.6877629" lon="9.4333288"><ele>1084.0</ele><time>2026-04-19T09:28:14.831Z</time></trkpt><trkpt lat="44.6876876" lon="9.4334576"><ele>1084.0</ele><time>2026-04-19T09:28:16.855Z</time></trkpt><trkpt lat="44.6876034" lon="9.4335534"><ele>1084.0</ele><time>2026-04-19T09:28:18.781Z</time></trkpt><trkpt lat="44.6875386" lon="9.4335915"><ele>1084.4285714285713</ele><time>2026-04-19T09:28:19.818Z</time></trkpt><trkpt lat="44.6874689" lon="9.4336067"><ele>1084.857142857143</ele><time>2026-04-19T09:28:20.848Z</time></trkpt><trkpt lat="44.6874041" lon="9.4335987"><ele>1085.2857142857142</ele><time>2026-04-19T09:28:21.817Z</time></trkpt><trkpt lat="44.6873346" lon="9.4335609"><ele>1085.7142857142858</ele><time>2026-04-19T09:28:22.848Z</time></trkpt><trkpt lat="44.6872705" lon="9.433521"><ele>1086.142857142857</ele><time>2026-04-19T09:28:23.856Z</time></trkpt><trkpt lat="44.6872064" lon="9.4334939"><ele>1086.5714285714284</ele><time>2026-04-19T09:28:24.811Z</time></trkpt><trkpt lat="44.6871393" lon="9.4334808"><ele>1087.0</ele><time>2026-04-19T09:28:25.831Z</time></trkpt><trkpt lat="44.6870263" lon="9.4334968"><ele>1087.0</ele><time>2026-04-19T09:28:27.817Z</time></trkpt><trkpt lat="44.686963" lon="9.4335137"><ele>1087.0</ele><time>2026-04-19T09:28:58.715Z</time></trkpt><trkpt lat="44.6868932" lon="9.433549"><ele>1087.0</ele><time>2026-04-19T09:30:00.841Z</time></trkpt><trkpt lat="44.6868483" lon="9.4336157"><ele>1087.0</ele><time>2026-04-19T09:30:03.789Z</time></trkpt><trkpt lat="44.686827" lon="9.4337211"><ele>1087.0</ele><time>2026-04-19T09:30:06.801Z</time></trkpt><trkpt lat="44.6868491" lon="9.4338274"><ele>1087.0</ele><time>2026-04-19T09:30:09.9Z</time></trkpt><trkpt lat="44.686926" lon="9.4338997"><ele>1089.6666666666665</ele><time>2026-04-19T09:30:12.855Z</time></trkpt><trkpt lat="44.6869818" lon="9.4339521"><ele>1092.3333333333333</ele><time>2026-04-19T09:30:14.864Z</time></trkpt><trkpt lat="44.6870261" lon="9.4340292"><ele>1095.0</ele><time>2026-04-19T09:30:16.874Z</time></trkpt><trkpt lat="44.6870691" lon="9.4341079"><ele>1097.6666666666667</ele><time>2026-04-19T09:30:18.937Z</time></trkpt><trkpt lat="44.6871083" lon="9.4342134"><ele>1100.3333333333335</ele><time>2026-04-19T09:30:21.842Z</time></trkpt><trkpt lat="44.68713" lon="9.4343095"><ele>1103.0</ele><time>2026-04-19T09:30:23.843Z</time></trkpt><trkpt lat="44.6871096" lon="9.4344423"><ele>1103.0</ele><time>2026-04-19T09:30:26.859Z</time></trkpt><trkpt lat="44.6870458" lon="9.4345213"><ele>1103.0</ele><time>2026-04-19T09:30:28.973Z</time></trkpt><trkpt lat="44.6869824" lon="9.4345825"><ele>1103.0</ele><time>2026-04-19T09:30:30.787Z</time></trkpt><trkpt lat="44.6868938" lon="9.434639"><ele>1103.0</ele><time>2026-04-19T09:30:32.925Z</time></trkpt><trkpt lat="44.6868278" lon="9.4346901"><ele>1103.0</ele><time>2026-04-19T09:30:34.896Z</time></trkpt><trkpt lat="44.6867765" lon="9.4347525"><ele>1103.0</ele><time>2026-04-19T09:30:36.802Z</time></trkpt><trkpt lat="44.6867483" lon="9.4348391"><ele>1102.6666666666667</ele><time>2026-04-19T09:30:38.826Z</time></trkpt><trkpt lat="44.6867517" lon="9.4349415"><ele>1102.3333333333335</ele><time>2026-04-19T09:30:40.858Z</time></trkpt><trkpt lat="44.6867581" lon="9.4350406"><ele>1102.0</ele><time>2026-04-19T09:30:42.821Z</time></trkpt><trkpt lat="44.6867504" lon="9.4351446"><ele>1101.6666666666667</ele><time>2026-04-19T09:30:44.834Z</time></trkpt><trkpt lat="44.6867536" lon="9.4352626"><ele>1101.3333333333333</ele><time>2026-04-19T09:30:46.796Z</time></trkpt><trkpt lat="44.6867584" lon="9.4353829"><ele>1101.0</ele><time>2026-04-19T09:30:48.881Z</time></trkpt><trkpt lat="44.6867627" lon="9.435503"><ele>1101.0</ele><time>2026-04-19T09:30:50.903Z</time></trkpt><trkpt lat="44.6867719" lon="9.4356083"><ele>1101.0</ele><time>2026-04-19T09:30:52.804Z</time></trkpt><trkpt lat="44.6867887" lon="9.4357096"><ele>1101.0</ele><time>2026-04-19T09:30:54.836Z</time></trkpt><trkpt lat="44.6868102" lon="9.4358175"><ele>1101.0</ele><time>2026-04-19T09:30:56.848Z</time></trkpt><trkpt lat="44.6868062" lon="9.4359367"><ele>1101.0</ele><time>2026-04-19T09:30:58.839Z</time></trkpt><trkpt lat="44.6868016" lon="9.436049"><ele>1101.0</ele><time>2026-04-19T09:31:00.807Z</time></trkpt><trkpt lat="44.6868029" lon="9.4361815"><ele>1102.3999999999999</ele><time>2026-04-19T09:31:02.829Z</time></trkpt><trkpt lat="44.6868093" lon="9.4363074"><ele>1103.8</ele><time>2026-04-19T09:31:04.807Z</time></trkpt><trkpt lat="44.686826" lon="9.436428"><ele>1105.1999999999998</ele><time>2026-04-19T09:31:06.89Z</time></trkpt><trkpt lat="44.6868474" lon="9.4365719"><ele>1106.6</ele><time>2026-04-19T09:31:09.853Z</time></trkpt><trkpt lat="44.6868647" lon="9.436687"><ele>1108.0</ele><time>2026-04-19T09:31:11.807Z</time></trkpt><trkpt lat="44.6868635" lon="9.4368141"><ele>1108.0</ele><time>2026-04-19T09:31:13.882Z</time></trkpt><trkpt lat="44.6868569" lon="9.4369412"><ele>1108.0</ele><time>2026-04-19T09:31:15.827Z</time></trkpt><trkpt lat="44.6868696" lon="9.437077"><ele>1108.0</ele><time>2026-04-19T09:31:17.889Z</time></trkpt><trkpt lat="44.6868922" lon="9.4371863"><ele>1108.0</ele><time>2026-04-19T09:31:19.82Z</time></trkpt><trkpt lat="44.686932" lon="9.4372977"><ele>1108.0</ele><time>2026-04-19T09:31:21.874Z</time></trkpt><trkpt lat="44.6869637" lon="9.4373989"><ele>1108.0</ele><time>2026-04-19T09:31:23.865Z</time></trkpt><trkpt lat="44.6869809" lon="9.4375042"><ele>1116.2</ele><time>2026-04-19T09:31:25.789Z</time></trkpt><trkpt lat="44.6869829" lon="9.4376396"><ele>1124.4</ele><time>2026-04-19T09:31:27.793Z</time></trkpt><trkpt lat="44.686967" lon="9.4377745"><ele>1132.6000000000001</ele><time>2026-04-19T09:31:29.834Z</time></trkpt><trkpt lat="44.6869576" lon="9.4378992"><ele>1140.8</ele><time>2026-04-19T09:31:31.817Z</time></trkpt><trkpt lat="44.6869669" lon="9.4380234"><ele>1149.0</ele><time>2026-04-19T09:31:33.835Z</time></trkpt><trkpt lat="44.6870003" lon="9.4381373"><ele>1149.1666666666667</ele><time>2026-04-19T09:31:35.805Z</time></trkpt><trkpt lat="44.6870388" lon="9.4382413"><ele>1149.3333333333333</ele><time>2026-04-19T09:31:37.838Z</time></trkpt><trkpt lat="44.6870795" lon="9.438337"><ele>1149.5</ele><time>2026-04-19T09:31:39.819Z</time></trkpt><trkpt lat="44.6871463" lon="9.4384872"><ele>1149.6666666666665</ele><time>2026-04-19T09:31:42.826Z</time></trkpt><trkpt lat="44.6871691" lon="9.4385986"><ele>1149.8333333333333</ele><time>2026-04-19T09:31:44.79Z</time></trkpt><trkpt lat="44.6871928" lon="9.4386848"><ele>1150.0</ele><time>2026-04-19T09:31:45.993Z</time></trkpt><trkpt lat="44.6872282" lon="9.4388014"><ele>1150.3333333333333</ele><time>2026-04-19T09:31:47.837Z</time></trkpt><trkpt lat="44.6872443" lon="9.4389157"><ele>1150.6666666666665</ele><time>2026-04-19T09:31:49.838Z</time></trkpt><trkpt lat="44.6872175" lon="9.4390136"><ele>1151.0</ele><time>2026-04-19T09:31:51.812Z</time></trkpt><trkpt lat="44.6871528" lon="9.4390741"><ele>1151.3333333333333</ele><time>2026-04-19T09:31:53.831Z</time></trkpt><trkpt lat="44.6870404" lon="9.439095"><ele>1151.6666666666667</ele><time>2026-04-19T09:31:55.833Z</time></trkpt><trkpt lat="44.6869434" lon="9.4391029"><ele>1152.0</ele><time>2026-04-19T09:31:57.877Z</time></trkpt><trkpt lat="44.6868726" lon="9.4391427"><ele>1148.8</ele><time>2026-04-19T09:31:59.868Z</time></trkpt><trkpt lat="44.6868398" lon="9.4392723"><ele>1145.6</ele><time>2026-04-19T09:32:01.835Z</time></trkpt><trkpt lat="44.6868246" lon="9.4394079"><ele>1142.3999999999999</ele><time>2026-04-19T09:32:03.907Z</time></trkpt><trkpt lat="44.6868096" lon="9.4395309"><ele>1139.2</ele><time>2026-04-19T09:32:05.885Z</time></trkpt><trkpt lat="44.6868035" lon="9.4396553"><ele>1136.0</ele><time>2026-04-19T09:32:07.846Z</time></trkpt><trkpt lat="44.6868057" lon="9.4397838"><ele>1136.0</ele><time>2026-04-19T09:32:09.807Z</time></trkpt><trkpt lat="44.6868134" lon="9.439912"><ele>1136.0</ele><time>2026-04-19T09:32:11.861Z</time></trkpt><trkpt lat="44.6868204" lon="9.4400634"><ele>1136.0</ele><time>2026-04-19T09:32:13.83Z</time></trkpt><trkpt lat="44.6868178" lon="9.4402063"><ele>1136.0</ele><time>2026-04-19T09:32:15.824Z</time></trkpt><trkpt lat="44.6868092" lon="9.4403562"><ele>1136.0</ele><time>2026-04-19T09:32:17.873Z</time></trkpt><trkpt lat="44.6867956" lon="9.4405021"><ele>1136.5</ele><time>2026-04-19T09:32:19.817Z</time></trkpt><trkpt lat="44.6867899" lon="9.4406461"><ele>1137.0</ele><time>2026-04-19T09:32:21.844Z</time></trkpt><trkpt lat="44.6868144" lon="9.4407944"><ele>1137.5</ele><time>2026-04-19T09:32:23.83Z</time></trkpt><trkpt lat="44.6868609" lon="9.440953"><ele>1138.0</ele><time>2026-04-19T09:32:25.97Z</time></trkpt><trkpt lat="44.6868773" lon="9.4411346"><ele>1138.0</ele><time>2026-04-19T09:32:28.86Z</time></trkpt><trkpt lat="44.6868591" lon="9.4412523"><ele>1138.0</ele><time>2026-04-19T09:32:30.872Z</time></trkpt><trkpt lat="44.6868555" lon="9.4413924"><ele>1138.0</ele><time>2026-04-19T09:32:32.89Z</time></trkpt><trkpt lat="44.6868816" lon="9.4416089"><ele>1138.0</ele><time>2026-04-19T09:32:35.81Z</time></trkpt><trkpt lat="44.6869149" lon="9.441744"><ele>1138.0</ele><time>2026-04-19T09:32:37.881Z</time></trkpt><trkpt lat="44.6869748" lon="9.441921"><ele>1143.1666666666665</ele><time>2026-04-19T09:32:40.814Z</time></trkpt><trkpt lat="44.6870113" lon="9.4420303"><ele>1148.3333333333333</ele><time>2026-04-19T09:32:42.84Z</time></trkpt><trkpt lat="44.6870538" lon="9.4421512"><ele>1153.5</ele><time>2026-04-19T09:32:52.866Z</time></trkpt><trkpt lat="44.6870822" lon="9.4422412"><ele>1158.6666666666667</ele><time>2026-04-19T09:32:54.857Z</time></trkpt><trkpt lat="44.6870795" lon="9.4423413"><ele>1163.8333333333335</ele><time>2026-04-19T09:32:57.905Z</time></trkpt><trkpt lat="44.6870229" lon="9.4424537"><ele>1169.0</ele><time>2026-04-19T09:33:00.857Z</time></trkpt><trkpt lat="44.6869631" lon="9.4425064"><ele>1164.8333333333335</ele><time>2026-04-19T09:33:02.82Z</time></trkpt><trkpt lat="44.6869018" lon="9.4425566"><ele>1160.6666666666667</ele><time>2026-04-19T09:33:04.862Z</time></trkpt><trkpt lat="44.6868464" lon="9.4426369"><ele>1156.5</ele><time>2026-04-19T09:33:06.826Z</time></trkpt><trkpt lat="44.6868223" lon="9.4427434"><ele>1152.3333333333333</ele><time>2026-04-19T09:33:08.811Z</time></trkpt><trkpt lat="44.6868493" lon="9.4428436"><ele>1148.1666666666665</ele><time>2026-04-19T09:33:10.925Z</time></trkpt><trkpt lat="44.6868912" lon="9.4429441"><ele>1144.0</ele><time>2026-04-19T09:33:12.89Z</time></trkpt><trkpt lat="44.6869163" lon="9.4430641"><ele>1144.0</ele><time>2026-04-19T09:33:14.878Z</time></trkpt><trkpt lat="44.6869153" lon="9.4431911"><ele>1144.0</ele><time>2026-04-19T09:33:16.978Z</time></trkpt><trkpt lat="44.6869275" lon="9.443305"><ele>1144.0</ele><time>2026-04-19T09:33:18.905Z</time></trkpt><trkpt lat="44.6869554" lon="9.4434059"><ele>1144.0</ele><time>2026-04-19T09:33:20.875Z</time></trkpt><trkpt lat="44.6870142" lon="9.44349"><ele>1144.0</ele><time>2026-04-19T09:33:22.905Z</time></trkpt><trkpt lat="44.687087" lon="9.44353"><ele>1144.0</ele><time>2026-04-19T09:33:24.875Z</time></trkpt><trkpt lat="44.6871647" lon="9.4435652"><ele>1148.2</ele><time>2026-04-19T09:33:26.855Z</time></trkpt><trkpt lat="44.6872314" lon="9.4436464"><ele>1152.4</ele><time>2026-04-19T09:33:28.865Z</time></trkpt><trkpt lat="44.687256" lon="9.4437837"><ele>1156.6</ele><time>2026-04-19T09:33:30.839Z</time></trkpt><trkpt lat="44.6872621" lon="9.4439328"><ele>1160.8</ele><time>2026-04-19T09:33:32.854Z</time></trkpt><trkpt lat="44.6872609" lon="9.4440799"><ele>1165.0</ele><time>2026-04-19T09:33:34.848Z</time></trkpt><trkpt lat="44.6872511" lon="9.4442244"><ele>1165.0</ele><time>2026-04-19T09:33:36.828Z</time></trkpt><trkpt lat="44.6872622" lon="9.4443858"><ele>1165.0</ele><time>2026-04-19T09:33:38.823Z</time></trkpt><trkpt lat="44.687276" lon="9.4444761"><ele>1165.0</ele><time>2026-04-19T09:33:39.861Z</time></trkpt><trkpt lat="44.6873148" lon="9.4446322"><ele>1165.0</ele><time>2026-04-19T09:33:41.835Z</time></trkpt><trkpt lat="44.6873411" lon="9.4447784"><ele>1165.0</ele><time>2026-04-19T09:33:43.837Z</time></trkpt><trkpt lat="44.6873192" lon="9.445011"><ele>1165.0</ele><time>2026-04-19T09:33:46.894Z</time></trkpt><trkpt lat="44.6873" lon="9.4451534"><ele>1165.0</ele><time>2026-04-19T09:33:48.854Z</time></trkpt><trkpt lat="44.6872592" lon="9.4452756"><ele>1165.0</ele><time>2026-04-19T09:33:50.795Z</time></trkpt><trkpt lat="44.6872268" lon="9.445407"><ele>1165.0</ele><time>2026-04-19T09:33:52.954Z</time></trkpt><trkpt lat="44.6872173" lon="9.4455269"><ele>1165.0</ele><time>2026-04-19T09:33:54.979Z</time></trkpt><trkpt lat="44.6872162" lon="9.4456327"><ele>1166.5</ele><time>2026-04-19T09:33:56.838Z</time></trkpt><trkpt lat="44.6871994" lon="9.445746"><ele>1168.0</ele><time>2026-04-19T09:33:58.855Z</time></trkpt><trkpt lat="44.6871895" lon="9.4458729"><ele>1169.5</ele><time>2026-04-19T09:34:00.834Z</time></trkpt><trkpt lat="44.6871855" lon="9.4459996"><ele>1171.0</ele><time>2026-04-19T09:34:02.871Z</time></trkpt><trkpt lat="44.6871883" lon="9.4461086"><ele>1172.5</ele><time>2026-04-19T09:34:04.827Z</time></trkpt><trkpt lat="44.6872164" lon="9.4462263"><ele>1174.0</ele><time>2026-04-19T09:34:06.856Z</time></trkpt><trkpt lat="44.6872476" lon="9.4463434"><ele>1174.4</ele><time>2026-04-19T09:34:08.811Z</time></trkpt><trkpt lat="44.6872907" lon="9.4465117"><ele>1174.8000000000002</ele><time>2026-04-19T09:34:11.831Z</time></trkpt><trkpt lat="44.6873247" lon="9.4466307"><ele>1175.1999999999998</ele><time>2026-04-19T09:34:13.835Z</time></trkpt><trkpt lat="44.6873508" lon="9.4467573"><ele>1175.6</ele><time>2026-04-19T09:34:15.864Z</time></trkpt><trkpt lat="44.6873773" lon="9.4468677"><ele>1176.0</ele><time>2026-04-19T09:34:17.959Z</time></trkpt><trkpt lat="44.6873732" lon="9.4469893"><ele>1176.0</ele><time>2026-04-19T09:34:19.871Z</time></trkpt><trkpt lat="44.6873272" lon="9.4470993"><ele>1176.0</ele><time>2026-04-19T09:34:21.882Z</time></trkpt><trkpt lat="44.6872491" lon="9.4471523"><ele>1176.0</ele><time>2026-04-19T09:34:23.79Z</time></trkpt><trkpt lat="44.6871842" lon="9.4471805"><ele>1176.0</ele><time>2026-04-19T09:34:25.028Z</time></trkpt><trkpt lat="44.6870993" lon="9.4472148"><ele>1176.0</ele><time>2026-04-19T09:34:26.787Z</time></trkpt><trkpt lat="44.6870157" lon="9.4472828"><ele>1176.0</ele><time>2026-04-19T09:34:28.8Z</time></trkpt><trkpt lat="44.6869089" lon="9.4473578"><ele>1175.0</ele><time>2026-04-19T09:34:30.979Z</time></trkpt><trkpt lat="44.6868451" lon="9.4474157"><ele>1174.0</ele><time>2026-04-19T09:34:32.879Z</time></trkpt><trkpt lat="44.686791" lon="9.4474999"><ele>1173.0</ele><time>2026-04-19T09:34:35.867Z</time></trkpt><trkpt lat="44.6867302" lon="9.4476032"><ele>1172.0</ele><time>2026-04-19T09:36:37.001Z</time></trkpt><trkpt lat="44.6867029" lon="9.4476889"><ele>1171.0</ele><time>2026-04-19T09:36:38.868Z</time></trkpt><trkpt lat="44.68667" lon="9.4477746"><ele>1170.0</ele><time>2026-04-19T09:36:40.888Z</time></trkpt><trkpt lat="44.6866356" lon="9.4478721"><ele>1171.6</ele><time>2026-04-19T09:36:42.873Z</time></trkpt><trkpt lat="44.6865924" lon="9.4479818"><ele>1173.2</ele><time>2026-04-19T09:36:44.822Z</time></trkpt><trkpt lat="44.6865695" lon="9.4481004"><ele>1174.8</ele><time>2026-04-19T09:36:46.852Z</time></trkpt><trkpt lat="44.6865738" lon="9.4482443"><ele>1176.4</ele><time>2026-04-19T09:36:48.828Z</time></trkpt><trkpt lat="44.6866126" lon="9.4484322"><ele>1178.0</ele><time>2026-04-19T09:36:51.82Z</time></trkpt><trkpt lat="44.6866164" lon="9.448538"><ele>1178.0</ele><time>2026-04-19T09:36:53.825Z</time></trkpt><trkpt lat="44.6865583" lon="9.4486156"><ele>1178.0</ele><time>2026-04-19T09:36:55.863Z</time></trkpt><trkpt lat="44.6864665" lon="9.4486201"><ele>1178.0</ele><time>2026-04-19T09:36:57.81Z</time></trkpt><trkpt lat="44.6863715" lon="9.4486304"><ele>1178.0</ele><time>2026-04-19T09:36:59.818Z</time></trkpt><trkpt lat="44.6862809" lon="9.4486363"><ele>1178.0</ele><time>2026-04-19T09:37:01.797Z</time></trkpt><trkpt lat="44.6862223" lon="9.4486862"><ele>1178.0</ele><time>2026-04-19T09:37:03.861Z</time></trkpt><trkpt lat="44.68612" lon="9.4488686"><ele>1178.2</ele><time>2026-04-19T09:37:06.939Z</time></trkpt><trkpt lat="44.6860592" lon="9.4490029"><ele>1178.4</ele><time>2026-04-19T09:37:08.849Z</time></trkpt><trkpt lat="44.6860078" lon="9.449124"><ele>1178.6000000000001</ele><time>2026-04-19T09:37:10.808Z</time></trkpt><trkpt lat="44.6859559" lon="9.4492289"><ele>1178.8</ele><time>2026-04-19T09:37:12.87Z</time></trkpt><trkpt lat="44.6858997" lon="9.4493384"><ele>1179.0</ele><time>2026-04-19T09:37:14.828Z</time></trkpt><trkpt lat="44.6858306" lon="9.4494418"><ele>1179.0</ele><time>2026-04-19T09:37:16.768Z</time></trkpt><trkpt lat="44.6857562" lon="9.4495467"><ele>1179.0</ele><time>2026-04-19T09:37:18.846Z</time></trkpt><trkpt lat="44.6856799" lon="9.4496515"><ele>1179.0</ele><time>2026-04-19T09:37:21.837Z</time></trkpt><trkpt lat="44.6856091" lon="9.4497116"><ele>1179.0</ele><time>2026-04-19T09:37:24.791Z</time></trkpt><trkpt lat="44.6855298" lon="9.4497488"><ele>1179.0</ele><time>2026-04-19T09:37:25.825Z</time></trkpt><trkpt lat="44.6854243" lon="9.4497814"><ele>1179.6666666666667</ele><time>2026-04-19T09:37:27.834Z</time></trkpt><trkpt lat="44.685306" lon="9.4498363"><ele>1180.3333333333333</ele><time>2026-04-19T09:37:29.842Z</time></trkpt><trkpt lat="44.6852163" lon="9.4498909"><ele>1181.0</ele><time>2026-04-19T09:37:31.907Z</time></trkpt><trkpt lat="44.6851574" lon="9.4499307"><ele>1181.6666666666665</ele><time>2026-04-19T09:37:33.927Z</time></trkpt><trkpt lat="44.6850889" lon="9.449963"><ele>1182.3333333333333</ele><time>2026-04-19T09:57:37.854Z</time></trkpt><trkpt lat="44.6850186" lon="9.4499531"><ele>1183.0</ele><time>2026-04-19T09:57:46.866Z</time></trkpt><trkpt lat="44.6849336" lon="9.4499181"><ele>1183.1666666666665</ele><time>2026-04-19T09:57:49.859Z</time></trkpt><trkpt lat="44.6848592" lon="9.4498767"><ele>1183.3333333333333</ele><time>2026-04-19T09:57:51.831Z</time></trkpt><trkpt lat="44.6847825" lon="9.4498086"><ele>1183.5</ele><time>2026-04-19T09:57:53.823Z</time></trkpt><trkpt lat="44.6847229" lon="9.4497553"><ele>1183.6666666666667</ele><time>2026-04-19T09:57:55.84Z</time></trkpt><trkpt lat="44.6846428" lon="9.4497248"><ele>1183.8333333333335</ele><time>2026-04-19T09:57:58.811Z</time></trkpt><trkpt lat="44.6845674" lon="9.4496838"><ele>1184.0</ele><time>2026-04-19T09:58:12.832Z</time></trkpt><trkpt lat="44.6845002" lon="9.4496437"><ele>1184.5</ele><time>2026-04-19T09:58:15.952Z</time></trkpt><trkpt lat="44.6844173" lon="9.4496274"><ele>1185.0</ele><time>2026-04-19T09:58:18.837Z</time></trkpt><trkpt lat="44.6843598" lon="9.4495892"><ele>1185.5</ele><time>2026-04-19T09:58:20.812Z</time></trkpt><trkpt lat="44.6842783" lon="9.4495435"><ele>1186.0</ele><time>2026-04-19T09:58:37.8Z</time></trkpt><trkpt lat="44.6841866" lon="9.449529"><ele>1186.5</ele><time>2026-04-19T09:58:40.853Z</time></trkpt><trkpt lat="44.6841074" lon="9.4495067"><ele>1187.0</ele><time>2026-04-19T09:58:43.867Z</time></trkpt><trkpt lat="44.6840211" lon="9.4494845"><ele>1186.3333333333335</ele><time>2026-04-19T09:58:46.861Z</time></trkpt><trkpt lat="44.6839492" lon="9.4494324"><ele>1185.6666666666667</ele><time>2026-04-19T09:58:49.885Z</time></trkpt><trkpt lat="44.6838805" lon="9.4493683"><ele>1185.0</ele><time>2026-04-19T09:58:52.88Z</time></trkpt><trkpt lat="44.683814" lon="9.4493001"><ele>1184.3333333333333</ele><time>2026-04-19T09:58:55.854Z</time></trkpt><trkpt lat="44.6837265" lon="9.4492395"><ele>1183.6666666666665</ele><time>2026-04-19T09:58:59.874Z</time></trkpt><trkpt lat="44.6836714" lon="9.4491802"><ele>1183.0</ele><time>2026-04-19T09:59:24.896Z</time></trkpt><trkpt lat="44.6835798" lon="9.4491532"><ele>1183.0</ele><time>2026-04-19T09:59:27.536Z</time></trkpt><trkpt lat="44.6834942" lon="9.4491303"><ele>1183.0</ele><time>2026-04-19T09:59:31.826Z</time></trkpt><trkpt lat="44.6834402" lon="9.4490819"><ele>1183.0</ele><time>2026-04-19T09:59:38.814Z</time></trkpt><trkpt lat="44.6833792" lon="9.4490561"><ele>1183.0</ele><time>2026-04-19T09:59:41.811Z</time></trkpt><trkpt lat="44.6833112" lon="9.4490295"><ele>1183.0</ele><time>2026-04-19T10:00:59.942Z</time></trkpt><trkpt lat="44.683251" lon="9.4490025"><ele>1183.0</ele><time>2026-04-19T10:01:31.765Z</time></trkpt><trkpt lat="44.6831827" lon="9.44899"><ele>1183.0</ele><time>2026-04-19T10:01:34.773Z</time></trkpt><trkpt lat="44.6831044" lon="9.4489597"><ele>1183.0</ele><time>2026-04-19T10:01:37.81Z</time></trkpt><trkpt lat="44.6830312" lon="9.4488998"><ele>1183.0</ele><time>2026-04-19T10:01:49.902Z</time></trkpt><trkpt lat="44.6829637" lon="9.4488441"><ele>1183.0</ele><time>2026-04-19T10:01:52.787Z</time></trkpt><trkpt lat="44.682893" lon="9.4487802"><ele>1183.0</ele><time>2026-04-19T10:01:55.789Z</time></trkpt><trkpt lat="44.6828139" lon="9.4487249"><ele>1183.0</ele><time>2026-04-19T10:01:58.827Z</time></trkpt><trkpt lat="44.6827545" lon="9.4486714"><ele>1183.0</ele><time>2026-04-19T10:02:01.77Z</time></trkpt><trkpt lat="44.6826958" lon="9.4486204"><ele>1181.3333333333333</ele><time>2026-04-19T10:02:04.796Z</time></trkpt><trkpt lat="44.6826163" lon="9.4485573"><ele>1179.6666666666665</ele><time>2026-04-19T10:02:13.814Z</time></trkpt><trkpt lat="44.6825697" lon="9.4484825"><ele>1178.0</ele><time>2026-04-19T10:02:17.779Z</time></trkpt><trkpt lat="44.6825262" lon="9.4483891"><ele>1176.3333333333333</ele><time>2026-04-19T10:02:20.821Z</time></trkpt><trkpt lat="44.6824857" lon="9.4483004"><ele>1174.6666666666667</ele><time>2026-04-19T10:02:23.804Z</time></trkpt><trkpt lat="44.6824419" lon="9.4482055"><ele>1173.0</ele><time>2026-04-19T10:02:26.797Z</time></trkpt><trkpt lat="44.6824122" lon="9.4481255"><ele>1173.0</ele><time>2026-04-19T10:02:28.824Z</time></trkpt><trkpt lat="44.682363" lon="9.4480395"><ele>1173.0</ele><time>2026-04-19T10:02:30.877Z</time></trkpt><trkpt lat="44.6823172" lon="9.4479156"><ele>1173.0</ele><time>2026-04-19T10:02:33.801Z</time></trkpt><trkpt lat="44.6822649" lon="9.4478223"><ele>1173.0</ele><time>2026-04-19T10:02:36.794Z</time></trkpt><trkpt lat="44.68222" lon="9.4477304"><ele>1173.0</ele><time>2026-04-19T10:02:38.791Z</time></trkpt><trkpt lat="44.6821806" lon="9.4476485"><ele>1173.0</ele><time>2026-04-19T10:02:40.777Z</time></trkpt><trkpt lat="44.6821373" lon="9.4475708"><ele>1171.8333333333333</ele><time>2026-04-19T10:02:42.794Z</time></trkpt><trkpt lat="44.6820869" lon="9.4474732"><ele>1170.6666666666667</ele><time>2026-04-19T10:02:45.77Z</time></trkpt><trkpt lat="44.6820508" lon="9.4473676"><ele>1169.5</ele><time>2026-04-19T10:02:48.782Z</time></trkpt><trkpt lat="44.6820077" lon="9.4472852"><ele>1168.3333333333335</ele><time>2026-04-19T10:02:50.792Z</time></trkpt><trkpt lat="44.6819393" lon="9.4471833"><ele>1167.1666666666667</ele><time>2026-04-19T10:02:53.827Z</time></trkpt><trkpt lat="44.6819016" lon="9.4470922"><ele>1166.0</ele><time>2026-04-19T10:02:55.838Z</time></trkpt><trkpt lat="44.6818683" lon="9.4470086"><ele>1166.0</ele><time>2026-04-19T10:02:57.831Z</time></trkpt><trkpt lat="44.6818201" lon="9.4468807"><ele>1166.0</ele><time>2026-04-19T10:03:00.806Z</time></trkpt><trkpt lat="44.6817882" lon="9.4467291"><ele>1166.0</ele><time>2026-04-19T10:03:03.926Z</time></trkpt><trkpt lat="44.6817572" lon="9.4466386"><ele>1166.0</ele><time>2026-04-19T10:03:05.816Z</time></trkpt><trkpt lat="44.6816922" lon="9.4465634"><ele>1166.0</ele><time>2026-04-19T10:03:07.845Z</time></trkpt><trkpt lat="44.6816432" lon="9.4464724"><ele>1166.0</ele><time>2026-04-19T10:03:09.809Z</time></trkpt><trkpt lat="44.6815998" lon="9.4463524"><ele>1166.0</ele><time>2026-04-19T10:03:11.794Z</time></trkpt><trkpt lat="44.6815458" lon="9.4462469"><ele>1166.0</ele><time>2026-04-19T10:03:13.781Z</time></trkpt><trkpt lat="44.6814853" lon="9.4461829"><ele>1166.0</ele><time>2026-04-19T10:03:15.8Z</time></trkpt><trkpt lat="44.6814313" lon="9.4461129"><ele>1166.0</ele><time>2026-04-19T10:03:17.796Z</time></trkpt><trkpt lat="44.6813887" lon="9.4460214"><ele>1166.0</ele><time>2026-04-19T10:03:19.852Z</time></trkpt><trkpt lat="44.6813234" lon="9.4458961"><ele>1165.6666666666667</ele><time>2026-04-19T10:03:22.854Z</time></trkpt><trkpt lat="44.6812715" lon="9.4458074"><ele>1165.3333333333335</ele><time>2026-04-19T10:03:24.887Z</time></trkpt><trkpt lat="44.6812176" lon="9.4457381"><ele>1165.0</ele><time>2026-04-19T10:03:26.837Z</time></trkpt><trkpt lat="44.6811734" lon="9.4456466"><ele>1164.6666666666667</ele><time>2026-04-19T10:03:28.811Z</time></trkpt><trkpt lat="44.6811432" lon="9.4455074"><ele>1164.3333333333333</ele><time>2026-04-19T10:03:30.804Z</time></trkpt><trkpt lat="44.6811166" lon="9.4453753"><ele>1164.0</ele><time>2026-04-19T10:03:32.79Z</time></trkpt><trkpt lat="44.6810836" lon="9.4452966"><ele>1164.0</ele><time>2026-04-19T10:03:34.822Z</time></trkpt><trkpt lat="44.6810371" lon="9.445225"><ele>1164.0</ele><time>2026-04-19T10:03:36.779Z</time></trkpt><trkpt lat="44.6809776" lon="9.4451474"><ele>1164.0</ele><time>2026-04-19T10:03:38.777Z</time></trkpt><trkpt lat="44.6808871" lon="9.4450236"><ele>1164.0</ele><time>2026-04-19T10:03:40.784Z</time></trkpt><trkpt lat="44.6808114" lon="9.4448947"><ele>1164.0</ele><time>2026-04-19T10:03:42.788Z</time></trkpt><trkpt lat="44.6807239" lon="9.4447634"><ele>1164.0</ele><time>2026-04-19T10:03:44.765Z</time></trkpt><trkpt lat="44.6806926" lon="9.4446823"><ele>1164.0</ele><time>2026-04-19T10:03:45.851Z</time></trkpt><trkpt lat="44.6806253" lon="9.444536"><ele>1164.0</ele><time>2026-04-19T10:03:47.781Z</time></trkpt><trkpt lat="44.6805563" lon="9.4444216"><ele>1164.0</ele><time>2026-04-19T10:03:49.799Z</time></trkpt><trkpt lat="44.6804837" lon="9.4443356"><ele>1164.0</ele><time>2026-04-19T10:03:51.804Z</time></trkpt><trkpt lat="44.6803941" lon="9.4442608"><ele>1163.2</ele><time>2026-04-19T10:03:53.783Z</time></trkpt><trkpt lat="44.6803188" lon="9.4442159"><ele>1162.4</ele><time>2026-04-19T10:03:55.785Z</time></trkpt><trkpt lat="44.6802433" lon="9.4441731"><ele>1161.6</ele><time>2026-04-19T10:03:57.791Z</time></trkpt><trkpt lat="44.6801423" lon="9.4441281"><ele>1160.8</ele><time>2026-04-19T10:03:59.803Z</time></trkpt><trkpt lat="44.6799902" lon="9.4440852"><ele>1160.0</ele><time>2026-04-19T10:04:02.812Z</time></trkpt><trkpt lat="44.6799152" lon="9.4440531"><ele>1159.6666666666667</ele><time>2026-04-19T10:04:04.772Z</time></trkpt><trkpt lat="44.6798354" lon="9.4440091"><ele>1159.3333333333335</ele><time>2026-04-19T10:04:06.791Z</time></trkpt><trkpt lat="44.6797408" lon="9.4439687"><ele>1159.0</ele><time>2026-04-19T10:04:17.801Z</time></trkpt><trkpt lat="44.6796843" lon="9.4439046"><ele>1158.6666666666667</ele><time>2026-04-19T10:04:20.801Z</time></trkpt><trkpt lat="44.6796108" lon="9.4438314"><ele>1158.3333333333333</ele><time>2026-04-19T10:04:22.815Z</time></trkpt><trkpt lat="44.6795552" lon="9.4437454"><ele>1158.0</ele><time>2026-04-19T10:04:24.825Z</time></trkpt><trkpt lat="44.6795097" lon="9.4436841"><ele>1159.8</ele><time>2026-04-19T10:04:26.785Z</time></trkpt><trkpt lat="44.6794293" lon="9.4436052"><ele>1161.6</ele><time>2026-04-19T10:04:28.806Z</time></trkpt><trkpt lat="44.6793439" lon="9.4435163"><ele>1163.4</ele><time>2026-04-19T10:04:30.787Z</time></trkpt><trkpt lat="44.6792475" lon="9.4434452"><ele>1165.2</ele><time>2026-04-19T10:04:32.813Z</time></trkpt><trkpt lat="44.6791528" lon="9.4434442"><ele>1167.0</ele><time>2026-04-19T10:04:34.833Z</time></trkpt><trkpt lat="44.6790612" lon="9.4434151"><ele>1167.0</ele><time>2026-04-19T10:04:36.806Z</time></trkpt><trkpt lat="44.6790012" lon="9.4433794"><ele>1167.0</ele><time>2026-04-19T10:04:37.923Z</time></trkpt><trkpt lat="44.6789168" lon="9.4433029"><ele>1167.0</ele><time>2026-04-19T10:04:39.838Z</time></trkpt><trkpt lat="44.6788608" lon="9.4432125"><ele>1167.0</ele><time>2026-04-19T10:04:41.822Z</time></trkpt><trkpt lat="44.678818" lon="9.4430984"><ele>1167.0</ele><time>2026-04-19T10:04:43.843Z</time></trkpt><trkpt lat="44.6787832" lon="9.4430162"><ele>1167.0</ele><time>2026-04-19T10:04:45.787Z</time></trkpt><trkpt lat="44.6787363" lon="9.4429297"><ele>1168.2</ele><time>2026-04-19T10:09:46.804Z</time></trkpt><trkpt lat="44.6786648" lon="9.4428978"><ele>1169.4</ele><time>2026-04-19T10:09:48.84Z</time></trkpt><trkpt lat="44.6786007" lon="9.4428567"><ele>1170.6</ele><time>2026-04-19T10:09:50.834Z</time></trkpt><trkpt lat="44.6785153" lon="9.4427538"><ele>1171.8</ele><time>2026-04-19T10:09:52.907Z</time></trkpt><trkpt lat="44.6784567" lon="9.4426208"><ele>1173.0</ele><time>2026-04-19T10:09:54.898Z</time></trkpt><trkpt lat="44.6784194" lon="9.4424978"><ele>1173.0</ele><time>2026-04-19T10:09:56.895Z</time></trkpt><trkpt lat="44.6784378" lon="9.442328"><ele>1173.0</ele><time>2026-04-19T10:09:58.79Z</time></trkpt><trkpt lat="44.6784592" lon="9.4422351"><ele>1173.0</ele><time>2026-04-19T10:09:59.79Z</time></trkpt><trkpt lat="44.6784778" lon="9.4421394"><ele>1173.0</ele><time>2026-04-19T10:10:00.809Z</time></trkpt><trkpt lat="44.6784992" lon="9.4420401"><ele>1173.0</ele><time>2026-04-19T10:10:01.86Z</time></trkpt><trkpt lat="44.6785284" lon="9.44188"><ele>1172.8333333333333</ele><time>2026-04-19T10:10:03.847Z</time></trkpt><trkpt lat="44.6785452" lon="9.4417798"><ele>1172.6666666666667</ele><time>2026-04-19T10:10:04.796Z</time></trkpt><trkpt lat="44.6785654" lon="9.4416337"><ele>1172.5</ele><time>2026-04-19T10:10:06.852Z</time></trkpt><trkpt lat="44.678593" lon="9.4414831"><ele>1172.3333333333335</ele><time>2026-04-19T10:10:08.797Z</time></trkpt><trkpt lat="44.6786051" lon="9.441389"><ele>1172.1666666666667</ele><time>2026-04-19T10:10:09.828Z</time></trkpt><trkpt lat="44.6786123" lon="9.4412961"><ele>1172.0</ele><time>2026-04-19T10:10:10.81Z</time></trkpt><trkpt lat="44.6786248" lon="9.4411271"><ele>1172.0</ele><time>2026-04-19T10:10:12.833Z</time></trkpt><trkpt lat="44.6786298" lon="9.4409564"><ele>1172.0</ele><time>2026-04-19T10:10:14.848Z</time></trkpt><trkpt lat="44.6786204" lon="9.4408226"><ele>1172.0</ele><time>2026-04-19T10:10:16.106Z</time></trkpt><trkpt lat="44.6786007" lon="9.4406528"><ele>1172.0</ele><time>2026-04-19T10:10:17.855Z</time></trkpt><trkpt lat="44.6785906" lon="9.4405611"><ele>1172.0</ele><time>2026-04-19T10:10:18.803Z</time></trkpt><trkpt lat="44.6785623" lon="9.4403623"><ele>1171.0</ele><time>2026-04-19T10:10:21.876Z</time></trkpt><trkpt lat="44.6785307" lon="9.4402041"><ele>1170.0</ele><time>2026-04-19T10:10:23.877Z</time></trkpt><trkpt lat="44.678496" lon="9.4401055"><ele>1169.0</ele><time>2026-04-19T10:10:25.802Z</time></trkpt><trkpt lat="44.6784398" lon="9.4399892"><ele>1168.0</ele><time>2026-04-19T10:10:27.979Z</time></trkpt><trkpt lat="44.6784033" lon="9.4398941"><ele>1167.0</ele><time>2026-04-19T10:10:29.836Z</time></trkpt><trkpt lat="44.6783711" lon="9.4397798"><ele>1165.8333333333333</ele><time>2026-04-19T10:10:31.785Z</time></trkpt><trkpt lat="44.6783137" lon="9.4396"><ele>1164.6666666666667</ele><time>2026-04-19T10:10:33.815Z</time></trkpt><trkpt lat="44.6782902" lon="9.439516"><ele>1163.5</ele><time>2026-04-19T10:10:34.837Z</time></trkpt><trkpt lat="44.6782599" lon="9.4394255"><ele>1162.3333333333335</ele><time>2026-04-19T10:10:35.833Z</time></trkpt><trkpt lat="44.6782214" lon="9.439326"><ele>1161.1666666666667</ele><time>2026-04-19T10:10:36.834Z</time></trkpt><trkpt lat="44.6781797" lon="9.439228"><ele>1160.0</ele><time>2026-04-19T10:10:37.851Z</time></trkpt><trkpt lat="44.6781392" lon="9.4391406"><ele>1160.0</ele><time>2026-04-19T10:10:38.845Z</time></trkpt><trkpt lat="44.678088" lon="9.4390631"><ele>1160.0</ele><time>2026-04-19T10:10:39.864Z</time></trkpt><trkpt lat="44.6780409" lon="9.438999"><ele>1160.0</ele><time>2026-04-19T10:10:40.843Z</time></trkpt><trkpt lat="44.677994" lon="9.4389328"><ele>1160.0</ele><time>2026-04-19T10:10:42.045Z</time></trkpt><trkpt lat="44.6779496" lon="9.4388154"><ele>1160.0</ele><time>2026-04-19T10:10:44.864Z</time></trkpt><trkpt lat="44.6779551" lon="9.4386565"><ele>1160.0</ele><time>2026-04-19T10:10:46.845Z</time></trkpt><trkpt lat="44.677957" lon="9.4385101"><ele>1161.2</ele><time>2026-04-19T10:10:48.842Z</time></trkpt><trkpt lat="44.677939" lon="9.4383648"><ele>1162.4</ele><time>2026-04-19T10:10:50.984Z</time></trkpt><trkpt lat="44.6778778" lon="9.4382676"><ele>1163.6</ele><time>2026-04-19T10:10:52.819Z</time></trkpt><trkpt lat="44.6777996" lon="9.4381857"><ele>1164.8</ele><time>2026-04-19T10:10:54.876Z</time></trkpt><trkpt lat="44.6777433" lon="9.4380598"><ele>1166.0</ele><time>2026-04-19T10:10:56.84Z</time></trkpt><trkpt lat="44.677704" lon="9.4379214"><ele>1162.5</ele><time>2026-04-19T10:10:58.879Z</time></trkpt><trkpt lat="44.6776548" lon="9.4378236"><ele>1159.0</ele><time>2026-04-19T10:11:00.818Z</time></trkpt><trkpt lat="44.6775181" lon="9.4377314"><ele>1155.5</ele><time>2026-04-19T10:11:03.82Z</time></trkpt><trkpt lat="44.6774116" lon="9.4377172"><ele>1152.0</ele><time>2026-04-19T10:11:05.842Z</time></trkpt><trkpt lat="44.6773039" lon="9.4377067"><ele>1152.0</ele><time>2026-04-19T10:11:07.898Z</time></trkpt><trkpt lat="44.6771979" lon="9.4377044"><ele>1152.0</ele><time>2026-04-19T10:11:09.87Z</time></trkpt><trkpt lat="44.677102" lon="9.437713"><ele>1152.0</ele><time>2026-04-19T10:11:11.837Z</time></trkpt><trkpt lat="44.6770214" lon="9.4377294"><ele>1152.0</ele><time>2026-04-19T10:11:13.844Z</time></trkpt><trkpt lat="44.6769376" lon="9.4377967"><ele>1152.0</ele><time>2026-04-19T10:11:15.899Z</time></trkpt><trkpt lat="44.6768631" lon="9.4378947"><ele>1153.6</ele><time>2026-04-19T10:11:17.88Z</time></trkpt><trkpt lat="44.6768119" lon="9.4379747"><ele>1155.2</ele><time>2026-04-19T10:11:19.866Z</time></trkpt><trkpt lat="44.6767279" lon="9.438086"><ele>1156.8</ele><time>2026-04-19T10:11:22.009Z</time></trkpt><trkpt lat="44.676657" lon="9.4381787"><ele>1158.4</ele><time>2026-04-19T10:11:23.808Z</time></trkpt><trkpt lat="44.6765813" lon="9.4382879"><ele>1160.0</ele><time>2026-04-19T10:11:25.815Z</time></trkpt><trkpt lat="44.6765191" lon="9.4384008"><ele>1160.0</ele><time>2026-04-19T10:11:27.823Z</time></trkpt><trkpt lat="44.6764664" lon="9.4384923"><ele>1160.0</ele><time>2026-04-19T10:11:29.806Z</time></trkpt><trkpt lat="44.676386" lon="9.4385076"><ele>1160.0</ele><time>2026-04-19T10:11:31.891Z</time></trkpt><trkpt lat="44.6763263" lon="9.4384787"><ele>1160.0</ele><time>2026-04-19T10:11:32.804Z</time></trkpt><trkpt lat="44.6762134" lon="9.4384465"><ele>1160.0</ele><time>2026-04-19T10:11:34.822Z</time></trkpt><trkpt lat="44.6760936" lon="9.4384113"><ele>1158.8333333333335</ele><time>2026-04-19T10:11:36.859Z</time></trkpt><trkpt lat="44.6760306" lon="9.4383751"><ele>1157.6666666666667</ele><time>2026-04-19T10:11:37.846Z</time></trkpt><trkpt lat="44.6759588" lon="9.4382994"><ele>1156.5</ele><time>2026-04-19T10:11:39.863Z</time></trkpt><trkpt lat="44.6758981" lon="9.4382589"><ele>1155.3333333333333</ele><time>2026-04-19T10:11:41.837Z</time></trkpt><trkpt lat="44.6758276" lon="9.438243"><ele>1154.1666666666665</ele><time>2026-04-19T10:11:43.831Z</time></trkpt><trkpt lat="44.675746" lon="9.4382641"><ele>1153.0</ele><time>2026-04-19T10:11:45.77Z</time></trkpt><trkpt lat="44.6756453" lon="9.4382903"><ele>1153.0</ele><time>2026-04-19T10:11:47.799Z</time></trkpt><trkpt lat="44.6755693" lon="9.4383163"><ele>1153.0</ele><time>2026-04-19T10:11:49.779Z</time></trkpt><trkpt lat="44.6754647" lon="9.4383072"><ele>1153.0</ele><time>2026-04-19T10:11:52.017Z</time></trkpt><trkpt lat="44.6753869" lon="9.4382536"><ele>1153.0</ele><time>2026-04-19T10:11:53.903Z</time></trkpt><trkpt lat="44.6753511" lon="9.4381397"><ele>1153.0</ele><time>2026-04-19T10:11:55.813Z</time></trkpt><trkpt lat="44.6753954" lon="9.4379658"><ele>1150.5</ele><time>2026-04-19T10:11:57.81Z</time></trkpt><trkpt lat="44.6754299" lon="9.4378541"><ele>1148.0</ele><time>2026-04-19T10:11:58.81Z</time></trkpt><trkpt lat="44.6754632" lon="9.4377513"><ele>1145.5</ele><time>2026-04-19T10:11:59.826Z</time></trkpt><trkpt lat="44.6754872" lon="9.437664"><ele>1143.0</ele><time>2026-04-19T10:12:00.782Z</time></trkpt><trkpt lat="44.6754998" lon="9.4375741"><ele>1140.5</ele><time>2026-04-19T10:12:01.888Z</time></trkpt><trkpt lat="44.6754607" lon="9.4374348"><ele>1138.0</ele><time>2026-04-19T10:12:03.802Z</time></trkpt><trkpt lat="44.6753816" lon="9.4373234"><ele>1138.0</ele><time>2026-04-19T10:12:05.831Z</time></trkpt><trkpt lat="44.6752712" lon="9.437266"><ele>1138.0</ele><time>2026-04-19T10:12:07.832Z</time></trkpt><trkpt lat="44.6752112" lon="9.4372357"><ele>1138.0</ele><time>2026-04-19T10:12:09.012Z</time></trkpt><trkpt lat="44.6751193" lon="9.4371637"><ele>1138.0</ele><time>2026-04-19T10:12:10.899Z</time></trkpt><trkpt lat="44.6750445" lon="9.4370519"><ele>1138.0</ele><time>2026-04-19T10:12:12.833Z</time></trkpt><trkpt lat="44.6749686" lon="9.4369531"><ele>1137.6</ele><time>2026-04-19T10:12:14.832Z</time></trkpt><trkpt lat="44.6748849" lon="9.4368651"><ele>1137.1999999999998</ele><time>2026-04-19T10:12:16.796Z</time></trkpt><trkpt lat="44.674794" lon="9.4368114"><ele>1136.8</ele><time>2026-04-19T10:12:18.808Z</time></trkpt><trkpt lat="44.6747098" lon="9.436761"><ele>1136.3999999999999</ele><time>2026-04-19T10:12:20.892Z</time></trkpt><trkpt lat="44.6746527" lon="9.4366434"><ele>1136.0</ele><time>2026-04-19T10:12:22.904Z</time></trkpt><trkpt lat="44.6746169" lon="9.4364895"><ele>1136.0</ele><time>2026-04-19T10:12:24.86Z</time></trkpt><trkpt lat="44.6745868" lon="9.4363736"><ele>1136.0</ele><time>2026-04-19T10:12:26.824Z</time></trkpt><trkpt lat="44.6745536" lon="9.4362158"><ele>1136.0</ele><time>2026-04-19T10:12:28.817Z</time></trkpt><trkpt lat="44.674532" lon="9.4360758"><ele>1136.0</ele><time>2026-04-19T10:12:30.811Z</time></trkpt><trkpt lat="44.6745194" lon="9.4359263"><ele>1136.0</ele><time>2026-04-19T10:12:32.808Z</time></trkpt><trkpt lat="44.6745089" lon="9.4357661"><ele>1133.6</ele><time>2026-04-19T10:12:35.035Z</time></trkpt><trkpt lat="44.6745042" lon="9.4356542"><ele>1131.1999999999998</ele><time>2026-04-19T10:12:36.813Z</time></trkpt><trkpt lat="44.6744617" lon="9.4355087"><ele>1128.8000000000002</ele><time>2026-04-19T10:12:38.802Z</time></trkpt><trkpt lat="44.6743987" lon="9.4354011"><ele>1126.4</ele><time>2026-04-19T10:12:40.829Z</time></trkpt><trkpt lat="44.6743225" lon="9.4353291"><ele>1124.0</ele><time>2026-04-19T10:12:42.817Z</time></trkpt><trkpt lat="44.674225" lon="9.4352752"><ele>1124.0</ele><time>2026-04-19T10:12:44.833Z</time></trkpt><trkpt lat="44.6741319" lon="9.4352456"><ele>1124.0</ele><time>2026-04-19T10:12:46.833Z</time></trkpt><trkpt lat="44.6740431" lon="9.4352188"><ele>1124.0</ele><time>2026-04-19T10:12:48.852Z</time></trkpt><trkpt lat="44.6739598" lon="9.4351639"><ele>1124.0</ele><time>2026-04-19T10:12:50.867Z</time></trkpt><trkpt lat="44.673884" lon="9.4350951"><ele>1124.0</ele><time>2026-04-19T10:12:52.831Z</time></trkpt><trkpt lat="44.6737887" lon="9.4350383"><ele>1124.0</ele><time>2026-04-19T10:12:54.775Z</time></trkpt><trkpt lat="44.6736858" lon="9.4349834"><ele>1124.0</ele><time>2026-04-19T10:12:56.826Z</time></trkpt><trkpt lat="44.673608" lon="9.4348959"><ele>1124.0</ele><time>2026-04-19T10:12:58.803Z</time></trkpt><trkpt lat="44.6735539" lon="9.4348177"><ele>1124.0</ele><time>2026-04-19T10:13:00.754Z</time></trkpt><trkpt lat="44.673499" lon="9.434725"><ele>1124.0</ele><time>2026-04-19T10:13:02.812Z</time></trkpt><trkpt lat="44.6734357" lon="9.4346465"><ele>1120.8</ele><time>2026-04-19T10:13:04.77Z</time></trkpt><trkpt lat="44.6733612" lon="9.4345626"><ele>1117.6000000000001</ele><time>2026-04-19T10:13:06.804Z</time></trkpt><trkpt lat="44.6732345" lon="9.4344586"><ele>1114.4</ele><time>2026-04-19T10:13:09.867Z</time></trkpt><trkpt lat="44.6731494" lon="9.4343926"><ele>1111.2</ele><time>2026-04-19T10:13:11.812Z</time></trkpt><trkpt lat="44.6730633" lon="9.434332"><ele>1108.0</ele><time>2026-04-19T10:13:13.805Z</time></trkpt><trkpt lat="44.6729672" lon="9.4343234"><ele>1108.0</ele><time>2026-04-19T10:13:15.889Z</time></trkpt><trkpt lat="44.6728815" lon="9.4343524"><ele>1108.0</ele><time>2026-04-19T10:13:17.843Z</time></trkpt><trkpt lat="44.6728119" lon="9.4343347"><ele>1108.0</ele><time>2026-04-19T10:13:19.854Z</time></trkpt><trkpt lat="44.6727777" lon="9.4341696"><ele>1108.0</ele><time>2026-04-19T10:13:22.866Z</time></trkpt><trkpt lat="44.6728148" lon="9.4340764"><ele>1108.0</ele><time>2026-04-19T10:13:24.877Z</time></trkpt><trkpt lat="44.672886" lon="9.4340435"><ele>1108.0</ele><time>2026-04-19T10:13:26.808Z</time></trkpt><trkpt lat="44.6729807" lon="9.4340307"><ele>1108.0</ele><time>2026-04-19T10:13:28.848Z</time></trkpt><trkpt lat="44.6730901" lon="9.4340441"><ele>1108.0</ele><time>2026-04-19T10:13:30.813Z</time></trkpt><trkpt lat="44.6731896" lon="9.4340589"><ele>1108.0</ele><time>2026-04-19T10:13:32.829Z</time></trkpt><trkpt lat="44.6733082" lon="9.4340616"><ele>1108.0</ele><time>2026-04-19T10:13:34.859Z</time></trkpt><trkpt lat="44.6734229" lon="9.4340607"><ele>1108.0</ele><time>2026-04-19T10:13:36.887Z</time></trkpt><trkpt lat="44.6735193" lon="9.4340724"><ele>1107.8</ele><time>2026-04-19T10:13:38.829Z</time></trkpt><trkpt lat="44.6736189" lon="9.4340766"><ele>1107.6</ele><time>2026-04-19T10:13:40.837Z</time></trkpt><trkpt lat="44.6737158" lon="9.4340461"><ele>1107.4</ele><time>2026-04-19T10:13:42.828Z</time></trkpt><trkpt lat="44.6738119" lon="9.4339727"><ele>1107.2</ele><time>2026-04-19T10:13:44.883Z</time></trkpt><trkpt lat="44.6738892" lon="9.4338637"><ele>1107.0</ele><time>2026-04-19T10:13:46.868Z</time></trkpt><trkpt lat="44.6739523" lon="9.4337388"><ele>1104.4</ele><time>2026-04-19T10:13:48.879Z</time></trkpt><trkpt lat="44.6739883" lon="9.4336114"><ele>1101.8000000000002</ele><time>2026-04-19T10:13:50.841Z</time></trkpt><trkpt lat="44.6740065" lon="9.4334909"><ele>1099.2</ele><time>2026-04-19T10:13:52.817Z</time></trkpt><trkpt lat="44.6740272" lon="9.4333584"><ele>1096.6000000000001</ele><time>2026-04-19T10:13:54.842Z</time></trkpt><trkpt lat="44.6740482" lon="9.4332276"><ele>1094.0</ele><time>2026-04-19T10:13:56.912Z</time></trkpt><trkpt lat="44.6740963" lon="9.4331122"><ele>1094.0</ele><time>2026-04-19T10:13:58.872Z</time></trkpt><trkpt lat="44.674186" lon="9.4330458"><ele>1094.0</ele><time>2026-04-19T10:14:00.875Z</time></trkpt><trkpt lat="44.674324" lon="9.4330343"><ele>1094.0</ele><time>2026-04-19T10:14:03.911Z</time></trkpt><trkpt lat="44.6744157" lon="9.433085"><ele>1094.0</ele><time>2026-04-19T10:14:05.848Z</time></trkpt><trkpt lat="44.6745092" lon="9.4331442"><ele>1094.0</ele><time>2026-04-19T10:14:07.828Z</time></trkpt><trkpt lat="44.6746018" lon="9.4331991"><ele>1091.8</ele><time>2026-04-19T10:14:09.827Z</time></trkpt><trkpt lat="44.6746875" lon="9.4332894"><ele>1089.6000000000001</ele><time>2026-04-19T10:14:11.833Z</time></trkpt><trkpt lat="44.6747666" lon="9.4334072"><ele>1087.4</ele><time>2026-04-19T10:14:13.815Z</time></trkpt><trkpt lat="44.6748453" lon="9.4334931"><ele>1085.2</ele><time>2026-04-19T10:14:15.853Z</time></trkpt><trkpt lat="44.6749443" lon="9.433533"><ele>1083.0</ele><time>2026-04-19T10:14:17.905Z</time></trkpt><trkpt lat="44.6750448" lon="9.4335963"><ele>1083.0</ele><time>2026-04-19T10:14:19.845Z</time></trkpt><trkpt lat="44.6751181" lon="9.4337141"><ele>1083.0</ele><time>2026-04-19T10:14:21.815Z</time></trkpt><trkpt lat="44.6751553" lon="9.4338603"><ele>1083.0</ele><time>2026-04-19T10:14:23.808Z</time></trkpt><trkpt lat="44.6752078" lon="9.4340066"><ele>1083.0</ele><time>2026-04-19T10:14:25.791Z</time></trkpt><trkpt lat="44.6752848" lon="9.4341387"><ele>1082.0</ele><time>2026-04-19T10:14:27.816Z</time></trkpt><trkpt lat="44.6753296" lon="9.4342026"><ele>1081.0</ele><time>2026-04-19T10:14:28.826Z</time></trkpt><trkpt lat="44.6754205" lon="9.4343187"><ele>1080.0</ele><time>2026-04-19T10:14:30.789Z</time></trkpt><trkpt lat="44.6754713" lon="9.4343777"><ele>1079.0</ele><time>2026-04-19T10:14:31.809Z</time></trkpt><trkpt lat="44.6755213" lon="9.434436"><ele>1078.0</ele><time>2026-04-19T10:14:32.801Z</time></trkpt><trkpt lat="44.6755718" lon="9.4344996"><ele>1077.0</ele><time>2026-04-19T10:14:33.806Z</time></trkpt><trkpt lat="44.6756218" lon="9.4345598"><ele>1077.0</ele><time>2026-04-19T10:14:34.771Z</time></trkpt><trkpt lat="44.6756698" lon="9.4346186"><ele>1077.0</ele><time>2026-04-19T10:14:35.815Z</time></trkpt><trkpt lat="44.6757404" lon="9.4347031"><ele>1077.0</ele><time>2026-04-19T10:14:37.793Z</time></trkpt><trkpt lat="44.6758157" lon="9.4347674"><ele>1077.0</ele><time>2026-04-19T10:14:39.808Z</time></trkpt><trkpt lat="44.6758843" lon="9.4348039"><ele>1077.0</ele><time>2026-04-19T10:14:41.822Z</time></trkpt><trkpt lat="44.6759403" lon="9.4347623"><ele>1077.0</ele><time>2026-04-19T10:14:43.794Z</time></trkpt><trkpt lat="44.6759886" lon="9.4346481"><ele>1077.0</ele><time>2026-04-19T10:14:45.808Z</time></trkpt><trkpt lat="44.6759847" lon="9.434501"><ele>1077.0</ele><time>2026-04-19T10:14:47.8Z</time></trkpt><trkpt lat="44.6759635" lon="9.4344123"><ele>1077.0</ele><time>2026-04-19T10:14:49.012Z</time></trkpt><trkpt lat="44.6759173" lon="9.4342785"><ele>1077.0</ele><time>2026-04-19T10:14:50.88Z</time></trkpt><trkpt lat="44.6758834" lon="9.4341385"><ele>1077.0</ele><time>2026-04-19T10:14:52.822Z</time></trkpt><trkpt lat="44.6758321" lon="9.434035"><ele>1077.0</ele><time>2026-04-19T10:14:54.884Z</time></trkpt><trkpt lat="44.6757442" lon="9.4339441"><ele>1077.0</ele><time>2026-04-19T10:14:56.854Z</time></trkpt><trkpt lat="44.6756437" lon="9.4338791"><ele>1077.0</ele><time>2026-04-19T10:14:58.798Z</time></trkpt><trkpt lat="44.6755452" lon="9.4338096"><ele>1077.0</ele><time>2026-04-19T10:15:00.817Z</time></trkpt><trkpt lat="44.6754904" lon="9.4336917"><ele>1077.0</ele><time>2026-04-19T10:15:02.804Z</time></trkpt><trkpt lat="44.6754657" lon="9.4336025"><ele>1074.4</ele><time>2026-04-19T10:15:03.794Z</time></trkpt><trkpt lat="44.675451" lon="9.4335154"><ele>1071.8000000000002</ele><time>2026-04-19T10:15:04.83Z</time></trkpt><trkpt lat="44.6754514" lon="9.4333443"><ele>1069.2</ele><time>2026-04-19T10:15:06.821Z</time></trkpt><trkpt lat="44.6754672" lon="9.4332032"><ele>1066.6000000000001</ele><time>2026-04-19T10:15:08.828Z</time></trkpt><trkpt lat="44.6754549" lon="9.433082"><ele>1064.0</ele><time>2026-04-19T10:15:10.818Z</time></trkpt><trkpt lat="44.6753818" lon="9.4329755"><ele>1064.8</ele><time>2026-04-19T10:15:12.914Z</time></trkpt><trkpt lat="44.6752905" lon="9.4329134"><ele>1065.6000000000001</ele><time>2026-04-19T10:15:14.848Z</time></trkpt><trkpt lat="44.6751966" lon="9.4328251"><ele>1066.4</ele><time>2026-04-19T10:15:16.844Z</time></trkpt><trkpt lat="44.6751652" lon="9.4326697"><ele>1067.2</ele><time>2026-04-19T10:15:18.824Z</time></trkpt><trkpt lat="44.6751454" lon="9.432583"><ele>1068.0</ele><time>2026-04-19T10:15:19.789Z</time></trkpt><trkpt lat="44.6751196" lon="9.4324971"><ele>1068.0</ele><time>2026-04-19T10:15:20.827Z</time></trkpt><trkpt lat="44.6750859" lon="9.432418"><ele>1068.0</ele><time>2026-04-19T10:15:21.79Z</time></trkpt><trkpt lat="44.675054" lon="9.4323335"><ele>1068.0</ele><time>2026-04-19T10:15:22.782Z</time></trkpt><trkpt lat="44.6750241" lon="9.4322515"><ele>1068.0</ele><time>2026-04-19T10:15:23.803Z</time></trkpt><trkpt lat="44.6749907" lon="9.4321714"><ele>1068.0</ele><time>2026-04-19T10:15:24.858Z</time></trkpt><trkpt lat="44.6749253" lon="9.4320339"><ele>1068.0</ele><time>2026-04-19T10:15:26.828Z</time></trkpt><trkpt lat="44.6748714" lon="9.4318697"><ele>1065.5</ele><time>2026-04-19T10:15:28.858Z</time></trkpt><trkpt lat="44.6748492" lon="9.4316875"><ele>1063.0</ele><time>2026-04-19T10:15:30.85Z</time></trkpt><trkpt lat="44.6748376" lon="9.4315995"><ele>1060.5</ele><time>2026-04-19T10:15:31.808Z</time></trkpt><trkpt lat="44.6748195" lon="9.4315052"><ele>1058.0</ele><time>2026-04-19T10:15:32.855Z</time></trkpt><trkpt lat="44.674797" lon="9.4313621"><ele>1055.5</ele><time>2026-04-19T10:15:34.799Z</time></trkpt><trkpt lat="44.6747969" lon="9.4312723"><ele>1053.0</ele><time>2026-04-19T10:15:35.785Z</time></trkpt><trkpt lat="44.6747976" lon="9.4311749"><ele>1051.0</ele><time>2026-04-19T10:15:36.83Z</time></trkpt><trkpt lat="44.6748073" lon="9.4310663"><ele>1049.0</ele><time>2026-04-19T10:15:37.782Z</time></trkpt><trkpt lat="44.6748222" lon="9.4309592"><ele>1047.0</ele><time>2026-04-19T10:15:38.795Z</time></trkpt><trkpt lat="44.6748404" lon="9.4308519"><ele>1045.0</ele><time>2026-04-19T10:15:39.824Z</time></trkpt><trkpt lat="44.6748559" lon="9.4307576"><ele>1043.0</ele><time>2026-04-19T10:15:40.783Z</time></trkpt><trkpt lat="44.6748695" lon="9.4306576"><ele>1041.0</ele><time>2026-04-19T10:15:41.849Z</time></trkpt><trkpt lat="44.6748871" lon="9.4304588"><ele>1039.25</ele><time>2026-04-19T10:15:44.009Z</time></trkpt><trkpt lat="44.6748856" lon="9.4302844"><ele>1037.5</ele><time>2026-04-19T10:15:45.817Z</time></trkpt><trkpt lat="44.6748939" lon="9.4301204"><ele>1035.75</ele><time>2026-04-19T10:15:47.89Z</time></trkpt><trkpt lat="44.6749079" lon="9.4299514"><ele>1034.0</ele><time>2026-04-19T10:15:49.821Z</time></trkpt><trkpt lat="44.6749115" lon="9.4297794"><ele>1032.8</ele><time>2026-04-19T10:15:51.8Z</time></trkpt><trkpt lat="44.6748821" lon="9.4296076"><ele>1031.6000000000001</ele><time>2026-04-19T10:15:53.833Z</time></trkpt><trkpt lat="44.6748555" lon="9.4295168"><ele>1030.4</ele><time>2026-04-19T10:15:54.786Z</time></trkpt><trkpt lat="44.6748198" lon="9.4294232"><ele>1029.2</ele><time>2026-04-19T10:15:55.869Z</time></trkpt><trkpt lat="44.6747714" lon="9.4292745"><ele>1028.0</ele><time>2026-04-19T10:15:57.836Z</time></trkpt><trkpt lat="44.6747472" lon="9.4291805"><ele>1028.0</ele><time>2026-04-19T10:15:58.965Z</time></trkpt><trkpt lat="44.6746911" lon="9.4290013"><ele>1028.0</ele><time>2026-04-19T10:16:00.912Z</time></trkpt><trkpt lat="44.6746333" lon="9.4288219"><ele>1028.0</ele><time>2026-04-19T10:16:02.825Z</time></trkpt><trkpt lat="44.6746086" lon="9.4287196"><ele>1028.0</ele><time>2026-04-19T10:16:03.802Z</time></trkpt><trkpt lat="44.6745927" lon="9.4286237"><ele>1028.0</ele><time>2026-04-19T10:16:04.816Z</time></trkpt><trkpt lat="44.6745772" lon="9.4285309"><ele>1026.5</ele><time>2026-04-19T10:16:05.835Z</time></trkpt><trkpt lat="44.6745685" lon="9.4283585"><ele>1025.0</ele><time>2026-04-19T10:16:07.944Z</time></trkpt><trkpt lat="44.6745609" lon="9.4282671"><ele>1023.5</ele><time>2026-04-19T10:16:08.905Z</time></trkpt><trkpt lat="44.674558" lon="9.4281702"><ele>1022.0</ele><time>2026-04-19T10:16:09.851Z</time></trkpt><trkpt lat="44.6745534" lon="9.4280752"><ele>1020.5000000000001</ele><time>2026-04-19T10:16:10.86Z</time></trkpt><trkpt lat="44.6745367" lon="9.4279097"><ele>1019.0</ele><time>2026-04-19T10:16:12.879Z</time></trkpt><trkpt lat="44.6744769" lon="9.4277546"><ele>1018.4000000000001</ele><time>2026-04-19T10:16:14.807Z</time></trkpt><trkpt lat="44.6744248" lon="9.4276589"><ele>1017.8000000000001</ele><time>2026-04-19T10:16:15.904Z</time></trkpt><trkpt lat="44.6743043" lon="9.4275243"><ele>1017.1999999999999</ele><time>2026-04-19T10:16:17.834Z</time></trkpt><trkpt lat="44.6742284" lon="9.4274654"><ele>1016.5999999999999</ele><time>2026-04-19T10:16:18.942Z</time></trkpt><trkpt lat="44.6741687" lon="9.4274292"><ele>1016.0</ele><time>2026-04-19T10:16:19.844Z</time></trkpt><trkpt lat="44.6741007" lon="9.4273841"><ele>1016.0</ele><time>2026-04-19T10:16:20.967Z</time></trkpt><trkpt lat="44.6740052" lon="9.427301"><ele>1015.9999999999999</ele><time>2026-04-19T10:16:22.843Z</time></trkpt><trkpt lat="44.6738881" lon="9.4272069"><ele>1015.9999999999999</ele><time>2026-04-19T10:16:24.955Z</time></trkpt><trkpt lat="44.6738264" lon="9.4271822"><ele>1016.0</ele><time>2026-04-19T10:16:25.973Z</time></trkpt><trkpt lat="44.6736952" lon="9.4271971"><ele>1016.0</ele><time>2026-04-19T10:16:27.923Z</time></trkpt><trkpt lat="44.673641" lon="9.4272473"><ele>1015.0000000000001</ele><time>2026-04-19T10:16:28.831Z</time></trkpt><trkpt lat="44.6735889" lon="9.4273183"><ele>1014.0</ele><time>2026-04-19T10:16:29.841Z</time></trkpt><trkpt lat="44.6735524" lon="9.4274122"><ele>1013.0</ele><time>2026-04-19T10:16:30.819Z</time></trkpt><trkpt lat="44.673515" lon="9.4275152"><ele>1012.0</ele><time>2026-04-19T10:16:31.917Z</time></trkpt><trkpt lat="44.6734646" lon="9.4277084"><ele>1011.0000000000001</ele><time>2026-04-19T10:16:33.807Z</time></trkpt><trkpt lat="44.6734416" lon="9.4277978"><ele>1010.0</ele><time>2026-04-19T10:16:34.798Z</time></trkpt><trkpt lat="44.6734144" lon="9.4278859"><ele>1010.0000000000001</ele><time>2026-04-19T10:16:35.793Z</time></trkpt><trkpt lat="44.6733828" lon="9.4279739"><ele>1010.0</ele><time>2026-04-19T10:16:36.785Z</time></trkpt><trkpt lat="44.6733388" lon="9.4280568"><ele>1010.0</ele><time>2026-04-19T10:16:37.768Z</time></trkpt><trkpt lat="44.6732807" lon="9.4281365"><ele>1010.0</ele><time>2026-04-19T10:16:38.807Z</time></trkpt><trkpt lat="44.6732112" lon="9.4282112"><ele>1010.0000000000001</ele><time>2026-04-19T10:16:39.799Z</time></trkpt><trkpt lat="44.6731174" lon="9.428292"><ele>1010.0</ele><time>2026-04-19T10:16:40.824Z</time></trkpt><trkpt lat="44.6730096" lon="9.4283725"><ele>1012.0</ele><time>2026-04-19T10:16:41.816Z</time></trkpt><trkpt lat="44.6729032" lon="9.4284505"><ele>1014.0</ele><time>2026-04-19T10:16:42.956Z</time></trkpt><trkpt lat="44.6727327" lon="9.4285611"><ele>1016.0</ele><time>2026-04-19T10:16:44.941Z</time></trkpt><trkpt lat="44.6725711" lon="9.4286957"><ele>1015.75</ele><time>2026-04-19T10:16:47.046Z</time></trkpt><trkpt lat="44.6724479" lon="9.4288649"><ele>1015.5</ele><time>2026-04-19T10:16:48.838Z</time></trkpt><trkpt lat="44.6723881" lon="9.4289758"><ele>1015.25</ele><time>2026-04-19T10:16:49.79Z</time></trkpt><trkpt lat="44.672329" lon="9.4290989"><ele>1015.0</ele><time>2026-04-19T10:16:50.836Z</time></trkpt><trkpt lat="44.6722771" lon="9.4292106"><ele>1014.9999999999999</ele><time>2026-04-19T10:16:51.818Z</time></trkpt><trkpt lat="44.6722215" lon="9.42931"><ele>1015.0</ele><time>2026-04-19T10:16:52.782Z</time></trkpt><trkpt lat="44.6721714" lon="9.4294076"><ele>1015.0</ele><time>2026-04-19T10:16:53.868Z</time></trkpt><trkpt lat="44.6721259" lon="9.4294886"><ele>1015.0</ele><time>2026-04-19T10:16:54.847Z</time></trkpt><trkpt lat="44.672081" lon="9.4295538"><ele>1014.9999999999999</ele><time>2026-04-19T10:16:55.8Z</time></trkpt><trkpt lat="44.6720322" lon="9.429614"><ele>1015.0</ele><time>2026-04-19T10:16:56.846Z</time></trkpt><trkpt lat="44.6719175" lon="9.4296564"><ele>1011.2</ele><time>2026-04-19T10:16:58.872Z</time></trkpt><trkpt lat="44.6717637" lon="9.4296179"><ele>1007.4</ele><time>2026-04-19T10:17:00.841Z</time></trkpt><trkpt lat="44.6716871" lon="9.4295769"><ele>1003.5999999999999</ele><time>2026-04-19T10:17:01.807Z</time></trkpt><trkpt lat="44.6716066" lon="9.4295454"><ele>999.8</ele><time>2026-04-19T10:17:02.817Z</time></trkpt><trkpt lat="44.6715294" lon="9.4295401"><ele>996.0</ele><time>2026-04-19T10:17:03.821Z</time></trkpt><trkpt lat="44.6714566" lon="9.4295593"><ele>996.0</ele><time>2026-04-19T10:17:04.802Z</time></trkpt><trkpt lat="44.6713962" lon="9.4296043"><ele>996.0</ele><time>2026-04-19T10:17:05.866Z</time></trkpt><trkpt lat="44.6713461" lon="9.4296794"><ele>996.0</ele><time>2026-04-19T10:17:06.806Z</time></trkpt><trkpt lat="44.6712856" lon="9.4297755"><ele>996.0</ele><time>2026-04-19T10:17:07.822Z</time></trkpt><trkpt lat="44.6712245" lon="9.4298599"><ele>996.0</ele><time>2026-04-19T10:17:08.872Z</time></trkpt><trkpt lat="44.6711538" lon="9.4299074"><ele>996.0</ele><time>2026-04-19T10:17:09.837Z</time></trkpt><trkpt lat="44.6710547" lon="9.4299533"><ele>996.4</ele><time>2026-04-19T10:17:10.86Z</time></trkpt><trkpt lat="44.6709692" lon="9.4299826"><ele>996.8</ele><time>2026-04-19T10:17:11.798Z</time></trkpt><trkpt lat="44.6708684" lon="9.4300252"><ele>997.1999999999999</ele><time>2026-04-19T10:17:12.788Z</time></trkpt><trkpt lat="44.6707755" lon="9.4300774"><ele>997.5999999999999</ele><time>2026-04-19T10:17:13.797Z</time></trkpt><trkpt lat="44.6706835" lon="9.430121"><ele>998.0</ele><time>2026-04-19T10:17:14.797Z</time></trkpt><trkpt lat="44.670597" lon="9.4301518"><ele>998.0000000000001</ele><time>2026-04-19T10:17:15.761Z</time></trkpt><trkpt lat="44.6705034" lon="9.4301821"><ele>998.0</ele><time>2026-04-19T10:17:16.898Z</time></trkpt><trkpt lat="44.6704374" lon="9.4302045"><ele>998.0</ele><time>2026-04-19T10:17:17.814Z</time></trkpt><trkpt lat="44.6703285" lon="9.4302332"><ele>998.0</ele><time>2026-04-19T10:17:19.808Z</time></trkpt><trkpt lat="44.6702584" lon="9.4302492"><ele>998.0000000000001</ele><time>2026-04-19T10:17:20.78Z</time></trkpt><trkpt lat="44.670176" lon="9.430287"><ele>998.0</ele><time>2026-04-19T10:17:21.805Z</time></trkpt><trkpt lat="44.6701236" lon="9.4303529"><ele>997.6666666666667</ele><time>2026-04-19T10:17:22.842Z</time></trkpt><trkpt lat="44.6700782" lon="9.4304195"><ele>997.3333333333334</ele><time>2026-04-19T10:17:23.822Z</time></trkpt><trkpt lat="44.6700292" lon="9.4304835"><ele>997.0</ele><time>2026-04-19T10:17:24.839Z</time></trkpt><trkpt lat="44.6699376" lon="9.4305443"><ele>996.6666666666667</ele><time>2026-04-19T10:17:26.797Z</time></trkpt><trkpt lat="44.6698489" lon="9.4305284"><ele>996.3333333333334</ele><time>2026-04-19T10:17:28.815Z</time></trkpt><trkpt lat="44.6697906" lon="9.4304499"><ele>996.0</ele><time>2026-04-19T10:17:30.827Z</time></trkpt><trkpt lat="44.6697784" lon="9.4303195"><ele>992.5999999999999</ele><time>2026-04-19T10:17:32.851Z</time></trkpt><trkpt lat="44.6698215" lon="9.4301846"><ele>989.1999999999999</ele><time>2026-04-19T10:17:34.846Z</time></trkpt><trkpt lat="44.6699233" lon="9.4301109"><ele>985.8000000000001</ele><time>2026-04-19T10:17:36.833Z</time></trkpt><trkpt lat="44.6700452" lon="9.4300696"><ele>982.4000000000001</ele><time>2026-04-19T10:17:38.843Z</time></trkpt><trkpt lat="44.6701087" lon="9.4300408"><ele>979.0</ele><time>2026-04-19T10:17:39.85Z</time></trkpt><trkpt lat="44.6701871" lon="9.4300047"><ele>978.9999999999999</ele><time>2026-04-19T10:17:40.98Z</time></trkpt><trkpt lat="44.6703044" lon="9.4299318"><ele>979.0</ele><time>2026-04-19T10:17:42.805Z</time></trkpt><trkpt lat="44.6703696" lon="9.4298735"><ele>979.0</ele><time>2026-04-19T10:17:43.822Z</time></trkpt><trkpt lat="44.6704316" lon="9.4298053"><ele>979.0</ele><time>2026-04-19T10:17:44.821Z</time></trkpt><trkpt lat="44.6704948" lon="9.4297301"><ele>978.9999999999999</ele><time>2026-04-19T10:17:45.841Z</time></trkpt><trkpt lat="44.6705571" lon="9.4296556"><ele>979.0</ele><time>2026-04-19T10:17:46.815Z</time></trkpt><trkpt lat="44.6706248" lon="9.4295774"><ele>979.0</ele><time>2026-04-19T10:17:47.834Z</time></trkpt><trkpt lat="44.6706887" lon="9.4295026"><ele>979.0000000000001</ele><time>2026-04-19T10:17:48.86Z</time></trkpt><trkpt lat="44.6707427" lon="9.4294411"><ele>979.0000000000001</ele><time>2026-04-19T10:17:49.776Z</time></trkpt><trkpt lat="44.6708024" lon="9.4293838"><ele>979.0</ele><time>2026-04-19T10:17:50.843Z</time></trkpt><trkpt lat="44.6708995" lon="9.4292873"><ele>979.0</ele><time>2026-04-19T10:17:52.832Z</time></trkpt><trkpt lat="44.6709754" lon="9.4291391"><ele>979.0</ele><time>2026-04-19T10:17:54.947Z</time></trkpt><trkpt lat="44.6709887" lon="9.4290097"><ele>979.0000000000001</ele><time>2026-04-19T10:17:56.834Z</time></trkpt><trkpt lat="44.6709156" lon="9.4288304"><ele>979.0000000000001</ele><time>2026-04-19T10:17:59.857Z</time></trkpt><trkpt lat="44.6708263" lon="9.428831"><ele>979.0</ele><time>2026-04-19T10:18:01.825Z</time></trkpt><trkpt lat="44.6707552" lon="9.4288582"><ele>979.0</ele><time>2026-04-19T10:18:02.867Z</time></trkpt><trkpt lat="44.6706224" lon="9.4289128"><ele>979.0</ele><time>2026-04-19T10:18:04.902Z</time></trkpt><trkpt lat="44.6705573" lon="9.4289288"><ele>979.0000000000001</ele><time>2026-04-19T10:18:05.821Z</time></trkpt><trkpt lat="44.6704454" lon="9.4289518"><ele>979.0000000000001</ele><time>2026-04-19T10:18:07.82Z</time></trkpt><trkpt lat="44.6703491" lon="9.4290065"><ele>979.0</ele><time>2026-04-19T10:18:09.973Z</time></trkpt><trkpt lat="44.6702656" lon="9.4291172"><ele>979.0</ele><time>2026-04-19T10:18:11.811Z</time></trkpt><trkpt lat="44.6702283" lon="9.4291955"><ele>975.6</ele><time>2026-04-19T10:18:12.835Z</time></trkpt><trkpt lat="44.6701675" lon="9.4293175"><ele>972.2</ele><time>2026-04-19T10:18:14.85Z</time></trkpt><trkpt lat="44.6700862" lon="9.4293983"><ele>968.8000000000001</ele><time>2026-04-19T10:18:16.837Z</time></trkpt><trkpt lat="44.6699461" lon="9.4294472"><ele>965.4000000000001</ele><time>2026-04-19T10:18:18.783Z</time></trkpt><trkpt lat="44.6698595" lon="9.4294707"><ele>962.0</ele><time>2026-04-19T10:18:19.832Z</time></trkpt><trkpt lat="44.6697806" lon="9.4294991"><ele>962.0000000000001</ele><time>2026-04-19T10:18:20.815Z</time></trkpt><trkpt lat="44.6697033" lon="9.4295351"><ele>962.0</ele><time>2026-04-19T10:18:21.817Z</time></trkpt><trkpt lat="44.6696238" lon="9.4295778"><ele>962.0</ele><time>2026-04-19T10:18:22.797Z</time></trkpt><trkpt lat="44.6695478" lon="9.4296168"><ele>962.0</ele><time>2026-04-19T10:18:23.821Z</time></trkpt><trkpt lat="44.6694728" lon="9.4296509"><ele>962.0000000000001</ele><time>2026-04-19T10:18:24.804Z</time></trkpt><trkpt lat="44.669401" lon="9.4296635"><ele>962.0</ele><time>2026-04-19T10:18:25.812Z</time></trkpt><trkpt lat="44.6693323" lon="9.4296831"><ele>961.8</ele><time>2026-04-19T10:18:26.83Z</time></trkpt><trkpt lat="44.6692067" lon="9.429733"><ele>961.6</ele><time>2026-04-19T10:18:28.833Z</time></trkpt><trkpt lat="44.6691437" lon="9.4297919"><ele>961.3999999999999</ele><time>2026-04-19T10:18:29.932Z</time></trkpt><trkpt lat="44.6690469" lon="9.4299465"><ele>961.1999999999999</ele><time>2026-04-19T10:18:31.803Z</time></trkpt><trkpt lat="44.6690019" lon="9.4300411"><ele>961.0</ele><time>2026-04-19T10:18:32.81Z</time></trkpt><trkpt lat="44.6689665" lon="9.4301283"><ele>960.9999999999999</ele><time>2026-04-19T10:18:33.805Z</time></trkpt><trkpt lat="44.6689317" lon="9.4302152"><ele>961.0</ele><time>2026-04-19T10:18:34.778Z</time></trkpt><trkpt lat="44.6688898" lon="9.4303001"><ele>961.0</ele><time>2026-04-19T10:18:35.813Z</time></trkpt><trkpt lat="44.6688411" lon="9.4303742"><ele>961.0</ele><time>2026-04-19T10:18:36.804Z</time></trkpt><trkpt lat="44.6687843" lon="9.4304354"><ele>960.9999999999999</ele><time>2026-04-19T10:18:37.785Z</time></trkpt><trkpt lat="44.668711" lon="9.4304832"><ele>961.0</ele><time>2026-04-19T10:18:38.84Z</time></trkpt><trkpt lat="44.6685773" lon="9.430509"><ele>960.6666666666666</ele><time>2026-04-19T10:18:40.809Z</time></trkpt><trkpt lat="44.6684874" lon="9.4304932"><ele>960.3333333333333</ele><time>2026-04-19T10:18:41.786Z</time></trkpt><trkpt lat="44.6684104" lon="9.4304698"><ele>960.0</ele><time>2026-04-19T10:18:42.792Z</time></trkpt><trkpt lat="44.6683373" lon="9.4304418"><ele>959.6666666666667</ele><time>2026-04-19T10:18:43.803Z</time></trkpt><trkpt lat="44.6682612" lon="9.4304175"><ele>959.3333333333334</ele><time>2026-04-19T10:18:44.784Z</time></trkpt><trkpt lat="44.6681779" lon="9.430398"><ele>959.0</ele><time>2026-04-19T10:18:45.814Z</time></trkpt><trkpt lat="44.6680953" lon="9.4303909"><ele>956.2</ele><time>2026-04-19T10:18:46.814Z</time></trkpt><trkpt lat="44.6680052" lon="9.4304059"><ele>953.4000000000001</ele><time>2026-04-19T10:18:47.803Z</time></trkpt><trkpt lat="44.6678765" lon="9.430446"><ele>950.6</ele><time>2026-04-19T10:18:48.835Z</time></trkpt><trkpt lat="44.6677757" lon="9.4304787"><ele>947.8</ele><time>2026-04-19T10:18:49.788Z</time></trkpt><trkpt lat="44.6676727" lon="9.4305134"><ele>945.0</ele><time>2026-04-19T10:18:50.802Z</time></trkpt><trkpt lat="44.6675792" lon="9.4305524"><ele>944.8</ele><time>2026-04-19T10:18:51.812Z</time></trkpt><trkpt lat="44.6674951" lon="9.4305873"><ele>944.6</ele><time>2026-04-19T10:18:52.817Z</time></trkpt><trkpt lat="44.6673978" lon="9.4306151"><ele>944.4000000000001</ele><time>2026-04-19T10:18:53.832Z</time></trkpt><trkpt lat="44.6673011" lon="9.4306357"><ele>944.2</ele><time>2026-04-19T10:18:54.83Z</time></trkpt><trkpt lat="44.6672115" lon="9.4306501"><ele>944.0</ele><time>2026-04-19T10:18:55.821Z</time></trkpt><trkpt lat="44.6671175" lon="9.4306716"><ele>944.0000000000001</ele><time>2026-04-19T10:18:56.815Z</time></trkpt><trkpt lat="44.6670308" lon="9.4306947"><ele>944.0</ele><time>2026-04-19T10:18:57.825Z</time></trkpt><trkpt lat="44.666946" lon="9.4307266"><ele>944.0</ele><time>2026-04-19T10:18:58.788Z</time></trkpt><trkpt lat="44.6668576" lon="9.43077"><ele>944.0</ele><time>2026-04-19T10:18:59.84Z</time></trkpt><trkpt lat="44.6667851" lon="9.4308125"><ele>944.0000000000001</ele><time>2026-04-19T10:19:00.815Z</time></trkpt><trkpt lat="44.666707" lon="9.4308618"><ele>944.0</ele><time>2026-04-19T10:19:01.936Z</time></trkpt><trkpt lat="44.6666333" lon="9.4309233"><ele>945.4000000000001</ele><time>2026-04-19T10:19:03.815Z</time></trkpt><trkpt lat="44.6665869" lon="9.4309902"><ele>946.8000000000001</ele><time>2026-04-19T10:19:07.8Z</time></trkpt><trkpt lat="44.6666009" lon="9.431109"><ele>948.1999999999999</ele><time>2026-04-19T10:19:32.832Z</time></trkpt><trkpt lat="44.6665591" lon="9.431268"><ele>949.5999999999999</ele><time>2026-04-19T10:19:34.919Z</time></trkpt><trkpt lat="44.6664549" lon="9.4314215"><ele>951.0</ele><time>2026-04-19T10:19:36.79Z</time></trkpt><trkpt lat="44.6663402" lon="9.4315139"><ele>951.0</ele><time>2026-04-19T10:19:37.878Z</time></trkpt><trkpt lat="44.6662239" lon="9.4315608"><ele>951.0</ele><time>2026-04-19T10:19:38.804Z</time></trkpt><trkpt lat="44.6661215" lon="9.4316309"><ele>951.0</ele><time>2026-04-19T10:19:39.81Z</time></trkpt><trkpt lat="44.666024" lon="9.4316986"><ele>951.0</ele><time>2026-04-19T10:19:40.788Z</time></trkpt><trkpt lat="44.6659228" lon="9.4317543"><ele>950.1999999999999</ele><time>2026-04-19T10:19:41.837Z</time></trkpt><trkpt lat="44.6658338" lon="9.4317919"><ele>949.3999999999999</ele><time>2026-04-19T10:19:42.836Z</time></trkpt><trkpt lat="44.6657373" lon="9.4318229"><ele>948.6</ele><time>2026-04-19T10:19:43.838Z</time></trkpt><trkpt lat="44.6656336" lon="9.431839"><ele>947.8</ele><time>2026-04-19T10:19:44.834Z</time></trkpt><trkpt lat="44.6655256" lon="9.4318376"><ele>947.0</ele><time>2026-04-19T10:19:45.775Z</time></trkpt><trkpt lat="44.6653895" lon="9.4318486"><ele>945.0</ele><time>2026-04-19T10:19:46.789Z</time></trkpt><trkpt lat="44.6652305" lon="9.4319158"><ele>943.0</ele><time>2026-04-19T10:19:47.913Z</time></trkpt><trkpt lat="44.6649648" lon="9.4321076"><ele>949.0</ele><time>2026-04-19T10:19:49.833Z</time></trkpt><trkpt lat="44.6648275" lon="9.4321647"><ele>955.0</ele><time>2026-04-19T10:19:50.768Z</time></trkpt><trkpt lat="44.664679" lon="9.4322243"><ele>961.0</ele><time>2026-04-19T10:19:51.825Z</time></trkpt><trkpt lat="44.6645716" lon="9.4323019"><ele>967.0</ele><time>2026-04-19T10:19:52.804Z</time></trkpt><trkpt lat="44.6644821" lon="9.4324347"><ele>964.6666666666666</ele><time>2026-04-19T10:19:53.807Z</time></trkpt><trkpt lat="44.6644322" lon="9.4326156"><ele>962.3333333333333</ele><time>2026-04-19T10:19:54.804Z</time></trkpt><trkpt lat="44.6643976" lon="9.4328363"><ele>960.0</ele><time>2026-04-19T10:19:55.81Z</time></trkpt><trkpt lat="44.6643572" lon="9.4330622"><ele>960.0</ele><time>2026-04-19T10:19:56.824Z</time></trkpt><trkpt lat="44.6643151" lon="9.433255"><ele>960.0</ele><time>2026-04-19T10:19:57.816Z</time></trkpt><trkpt lat="44.6642762" lon="9.4333799"><ele>960.0</ele><time>2026-04-19T10:19:58.803Z</time></trkpt><trkpt lat="44.6641549" lon="9.4335009"><ele>960.0</ele><time>2026-04-19T10:19:59.824Z</time></trkpt><trkpt lat="44.6640561" lon="9.4336147"><ele>960.0</ele><time>2026-04-19T10:20:00.782Z</time></trkpt><trkpt lat="44.6639738" lon="9.4337718"><ele>960.0</ele><time>2026-04-19T10:20:01.811Z</time></trkpt><trkpt lat="44.6639205" lon="9.4339717"><ele>960.0</ele><time>2026-04-19T10:20:02.779Z</time></trkpt><trkpt lat="44.6638941" lon="9.4342123"><ele>963.3333333333333</ele><time>2026-04-19T10:20:03.789Z</time></trkpt><trkpt lat="44.6638677" lon="9.4344377"><ele>966.6666666666666</ele><time>2026-04-19T10:20:04.78Z</time></trkpt><trkpt lat="44.6638286" lon="9.4346739"><ele>970.0</ele><time>2026-04-19T10:20:05.819Z</time></trkpt><trkpt lat="44.6637697" lon="9.4349021"><ele>971.0</ele><time>2026-04-19T10:20:06.799Z</time></trkpt><trkpt lat="44.6637027" lon="9.435127"><ele>972.0</ele><time>2026-04-19T10:20:07.811Z</time></trkpt><trkpt lat="44.663633" lon="9.4353429"><ele>973.0</ele><time>2026-04-19T10:20:08.836Z</time></trkpt><trkpt lat="44.6635722" lon="9.435536"><ele>973.0</ele><time>2026-04-19T10:20:09.799Z</time></trkpt><trkpt lat="44.6635022" lon="9.4357459"><ele>973.0</ele><time>2026-04-19T10:20:10.929Z</time></trkpt><trkpt lat="44.6633885" lon="9.4361025"><ele>973.0</ele><time>2026-04-19T10:20:12.832Z</time></trkpt><trkpt lat="44.6633281" lon="9.4362904"><ele>975.5</ele><time>2026-04-19T10:20:13.823Z</time></trkpt><trkpt lat="44.6632694" lon="9.4364731"><ele>978.0</ele><time>2026-04-19T10:20:14.782Z</time></trkpt><trkpt lat="44.6632025" lon="9.4366785"><ele>980.5</ele><time>2026-04-19T10:20:15.844Z</time></trkpt><trkpt lat="44.663159" lon="9.436842"><ele>983.0</ele><time>2026-04-19T10:20:16.765Z</time></trkpt><trkpt lat="44.6631245" lon="9.4370688"><ele>983.6666666666667</ele><time>2026-04-19T10:20:17.851Z</time></trkpt><trkpt lat="44.6631142" lon="9.4373006"><ele>984.3333333333333</ele><time>2026-04-19T10:20:18.805Z</time></trkpt><trkpt lat="44.6631133" lon="9.4375293"><ele>985.0</ele><time>2026-04-19T10:20:19.768Z</time></trkpt><trkpt lat="44.6631269" lon="9.4377557"><ele>985.25</ele><time>2026-04-19T10:20:20.801Z</time></trkpt><trkpt lat="44.66315" lon="9.4379687"><ele>985.5</ele><time>2026-04-19T10:20:21.862Z</time></trkpt><trkpt lat="44.6631693" lon="9.4381507"><ele>985.75</ele><time>2026-04-19T10:20:22.912Z</time></trkpt><trkpt lat="44.6631841" lon="9.4382897"><ele>986.0</ele><time>2026-04-19T10:20:23.829Z</time></trkpt><trkpt lat="44.6632125" lon="9.4384292"><ele>986.0</ele><time>2026-04-19T10:20:24.853Z</time></trkpt><trkpt lat="44.6632733" lon="9.438541"><ele>986.0</ele><time>2026-04-19T10:20:25.884Z</time></trkpt><trkpt lat="44.6633683" lon="9.4386215"><ele>986.0</ele><time>2026-04-19T10:20:26.814Z</time></trkpt><trkpt lat="44.6635038" lon="9.4386679"><ele>986.0</ele><time>2026-04-19T10:20:27.823Z</time></trkpt><trkpt lat="44.6636515" lon="9.438712"><ele>989.4</ele><time>2026-04-19T10:20:28.824Z</time></trkpt><trkpt lat="44.6637728" lon="9.4387443"><ele>992.8</ele><time>2026-04-19T10:20:29.803Z</time></trkpt><trkpt lat="44.6638841" lon="9.4388034"><ele>996.1999999999999</ele><time>2026-04-19T10:20:30.904Z</time></trkpt><trkpt lat="44.6639561" lon="9.438882"><ele>999.5999999999999</ele><time>2026-04-19T10:20:31.819Z</time></trkpt><trkpt lat="44.663985" lon="9.4390037"><ele>1003.0</ele><time>2026-04-19T10:20:32.772Z</time></trkpt><trkpt lat="44.6639724" lon="9.43916"><ele>1003.0</ele><time>2026-04-19T10:20:33.8Z</time></trkpt><trkpt lat="44.6639156" lon="9.4393246"><ele>1003.0</ele><time>2026-04-19T10:20:34.783Z</time></trkpt><trkpt lat="44.6638124" lon="9.4395031"><ele>1003.0</ele><time>2026-04-19T10:20:35.791Z</time></trkpt><trkpt lat="44.6636785" lon="9.4396936"><ele>999.75</ele><time>2026-04-19T10:20:36.818Z</time></trkpt><trkpt lat="44.6635602" lon="9.4398619"><ele>996.5</ele><time>2026-04-19T10:20:37.786Z</time></trkpt><trkpt lat="44.663464" lon="9.4400071"><ele>993.25</ele><time>2026-04-19T10:20:38.851Z</time></trkpt><trkpt lat="44.6634184" lon="9.4401577"><ele>990.0</ele><time>2026-04-19T10:20:39.89Z</time></trkpt><trkpt lat="44.6634035" lon="9.4403219"><ele>994.0</ele><time>2026-04-19T10:20:40.837Z</time></trkpt><trkpt lat="44.6633984" lon="9.4405348"><ele>998.0</ele><time>2026-04-19T10:20:41.855Z</time></trkpt><trkpt lat="44.6633781" lon="9.4407348"><ele>1002.0</ele><time>2026-04-19T10:20:42.807Z</time></trkpt><trkpt lat="44.6633337" lon="9.4409569"><ele>1002.0</ele><time>2026-04-19T10:20:43.849Z</time></trkpt><trkpt lat="44.6632592" lon="9.4411305"><ele>1002.0</ele><time>2026-04-19T10:20:44.818Z</time></trkpt><trkpt lat="44.6631805" lon="9.4412706"><ele>1002.0</ele><time>2026-04-19T10:20:45.803Z</time></trkpt><trkpt lat="44.6630875" lon="9.441371"><ele>1002.0</ele><time>2026-04-19T10:20:46.804Z</time></trkpt><trkpt lat="44.6629781" lon="9.4413811"><ele>1000.4000000000001</ele><time>2026-04-19T10:20:47.795Z</time></trkpt><trkpt lat="44.6628405" lon="9.4413346"><ele>998.8000000000001</ele><time>2026-04-19T10:20:48.826Z</time></trkpt><trkpt lat="44.6627454" lon="9.4412754"><ele>997.2</ele><time>2026-04-19T10:20:49.801Z</time></trkpt><trkpt lat="44.6626669" lon="9.4412277"><ele>995.6</ele><time>2026-04-19T10:20:50.823Z</time></trkpt><trkpt lat="44.6625923" lon="9.4412272"><ele>994.0</ele><time>2026-04-19T10:20:51.816Z</time></trkpt><trkpt lat="44.6625192" lon="9.4412688"><ele>995.5</ele><time>2026-04-19T10:20:52.8Z</time></trkpt><trkpt lat="44.6624712" lon="9.4413746"><ele>997.0</ele><time>2026-04-19T10:20:53.816Z</time></trkpt><trkpt lat="44.6624329" lon="9.4415375"><ele>998.5</ele><time>2026-04-19T10:20:54.776Z</time></trkpt><trkpt lat="44.6624001" lon="9.4417646"><ele>1000.0</ele><time>2026-04-19T10:20:55.779Z</time></trkpt><trkpt lat="44.6623559" lon="9.4420043"><ele>1004.0</ele><time>2026-04-19T10:20:56.807Z</time></trkpt><trkpt lat="44.6623148" lon="9.4422047"><ele>1008.0</ele><time>2026-04-19T10:20:57.784Z</time></trkpt><trkpt lat="44.6622747" lon="9.4424177"><ele>1012.0</ele><time>2026-04-19T10:20:58.863Z</time></trkpt><trkpt lat="44.6622297" lon="9.4426529"><ele>1014.0</ele><time>2026-04-19T10:20:59.951Z</time></trkpt><trkpt lat="44.6621566" lon="9.4430603"><ele>1016.0</ele><time>2026-04-19T10:21:01.812Z</time></trkpt><trkpt lat="44.6621454" lon="9.443288"><ele>1016.0</ele><time>2026-04-19T10:21:02.79Z</time></trkpt><trkpt lat="44.6621612" lon="9.4435453"><ele>1016.0</ele><time>2026-04-19T10:21:03.845Z</time></trkpt><trkpt lat="44.6621853" lon="9.443755"><ele>1016.0</ele><time>2026-04-19T10:21:04.814Z</time></trkpt><trkpt lat="44.6621916" lon="9.443931"><ele>1016.5</ele><time>2026-04-19T10:21:05.862Z</time></trkpt><trkpt lat="44.6621645" lon="9.444069"><ele>1017.0</ele><time>2026-04-19T10:21:06.834Z</time></trkpt><trkpt lat="44.6620918" lon="9.4441995"><ele>1017.5</ele><time>2026-04-19T10:21:07.843Z</time></trkpt><trkpt lat="44.6619953" lon="9.4442944"><ele>1018.0</ele><time>2026-04-19T10:21:08.873Z</time></trkpt><trkpt lat="44.6618788" lon="9.4443004"><ele>1015.6666666666666</ele><time>2026-04-19T10:21:09.848Z</time></trkpt><trkpt lat="44.6617469" lon="9.4442542"><ele>1013.3333333333333</ele><time>2026-04-19T10:21:10.914Z</time></trkpt><trkpt lat="44.6615899" lon="9.4440315"><ele>1011.0</ele><time>2026-04-19T10:21:12.789Z</time></trkpt><trkpt lat="44.6615268" lon="9.4438734"><ele>1008.0</ele><time>2026-04-19T10:21:13.837Z</time></trkpt><trkpt lat="44.6614566" lon="9.4437689"><ele>1005.0</ele><time>2026-04-19T10:21:14.794Z</time></trkpt><trkpt lat="44.6613613" lon="9.4436965"><ele>1002.0</ele><time>2026-04-19T10:21:15.824Z</time></trkpt><trkpt lat="44.6612395" lon="9.4436667"><ele>999.0</ele><time>2026-04-19T10:21:16.814Z</time></trkpt><trkpt lat="44.6610778" lon="9.4436714"><ele>998.3333333333333</ele><time>2026-04-19T10:21:17.834Z</time></trkpt><trkpt lat="44.6608942" lon="9.4437049"><ele>997.6666666666666</ele><time>2026-04-19T10:21:18.838Z</time></trkpt><trkpt lat="44.6607077" lon="9.4437237"><ele>997.0</ele><time>2026-04-19T10:21:19.858Z</time></trkpt><trkpt lat="44.6605304" lon="9.443745"><ele>997.0</ele><time>2026-04-19T10:21:20.83Z</time></trkpt><trkpt lat="44.6603635" lon="9.443771"><ele>997.0</ele><time>2026-04-19T10:21:21.843Z</time></trkpt><trkpt lat="44.6602208" lon="9.4438148"><ele>997.0</ele><time>2026-04-19T10:21:22.827Z</time></trkpt><trkpt lat="44.6600662" lon="9.4438813"><ele>1002.6666666666666</ele><time>2026-04-19T10:21:23.79Z</time></trkpt><trkpt lat="44.6599373" lon="9.4440552"><ele>1008.3333333333333</ele><time>2026-04-19T10:21:24.864Z</time></trkpt><trkpt lat="44.6598202" lon="9.44422"><ele>1014.0</ele><time>2026-04-19T10:21:25.823Z</time></trkpt><trkpt lat="44.6596936" lon="9.4443864"><ele>1014.0</ele><time>2026-04-19T10:21:26.834Z</time></trkpt><trkpt lat="44.659565" lon="9.4445497"><ele>1014.0</ele><time>2026-04-19T10:21:27.888Z</time></trkpt><trkpt lat="44.6594528" lon="9.4446881"><ele>1014.0</ele><time>2026-04-19T10:21:28.848Z</time></trkpt><trkpt lat="44.659328" lon="9.4448386"><ele>1014.3333333333333</ele><time>2026-04-19T10:21:29.943Z</time></trkpt><trkpt lat="44.6591168" lon="9.4450846"><ele>1014.6666666666666</ele><time>2026-04-19T10:21:31.846Z</time></trkpt><trkpt lat="44.6589959" lon="9.4451956"><ele>1015.0</ele><time>2026-04-19T10:21:32.868Z</time></trkpt><trkpt lat="44.6588639" lon="9.4452699"><ele>1015.0</ele><time>2026-04-19T10:21:33.848Z</time></trkpt><trkpt lat="44.6587136" lon="9.4453144"><ele>1015.0</ele><time>2026-04-19T10:21:34.841Z</time></trkpt><trkpt lat="44.6585689" lon="9.4453321"><ele>1015.0</ele><time>2026-04-19T10:21:35.817Z</time></trkpt><trkpt lat="44.6584054" lon="9.4453419"><ele>1016.3333333333333</ele><time>2026-04-19T10:21:36.835Z</time></trkpt><trkpt lat="44.6582545" lon="9.4453491"><ele>1017.6666666666667</ele><time>2026-04-19T10:21:37.79Z</time></trkpt><trkpt lat="44.6580921" lon="9.4453286"><ele>1019.0</ele><time>2026-04-19T10:21:38.826Z</time></trkpt><trkpt lat="44.6578248" lon="9.4452162"><ele>1020.6666666666667</ele><time>2026-04-19T10:21:40.543Z</time></trkpt><trkpt lat="44.6576715" lon="9.4452104"><ele>1022.3333333333333</ele><time>2026-04-19T10:21:41.544Z</time></trkpt><trkpt lat="44.6575156" lon="9.4452397"><ele>1024.0</ele><time>2026-04-19T10:21:42.543Z</time></trkpt><trkpt lat="44.6573601" lon="9.4452869"><ele>1024.0</ele><time>2026-04-19T10:21:43.543Z</time></trkpt><trkpt lat="44.6571924" lon="9.4453357"><ele>1024.0</ele><time>2026-04-19T10:21:44.865Z</time></trkpt><trkpt lat="44.6570294" lon="9.4453833"><ele>1024.0</ele><time>2026-04-19T10:21:45.942Z</time></trkpt><trkpt lat="44.6567699" lon="9.4455704"><ele>1027.25</ele><time>2026-04-19T10:21:47.84Z</time></trkpt><trkpt lat="44.6566682" lon="9.445702"><ele>1030.5</ele><time>2026-04-19T10:21:48.81Z</time></trkpt><trkpt lat="44.6565779" lon="9.4458131"><ele>1033.75</ele><time>2026-04-19T10:21:49.794Z</time></trkpt><trkpt lat="44.6564738" lon="9.4458807"><ele>1037.0</ele><time>2026-04-19T10:21:50.785Z</time></trkpt><trkpt lat="44.6563586" lon="9.4458898"><ele>1037.0</ele><time>2026-04-19T10:21:51.78Z</time></trkpt><trkpt lat="44.656211" lon="9.4458771"><ele>1037.0</ele><time>2026-04-19T10:21:52.81Z</time></trkpt><trkpt lat="44.6560695" lon="9.4458978"><ele>1037.0</ele><time>2026-04-19T10:21:53.832Z</time></trkpt><trkpt lat="44.6559476" lon="9.4459646"><ele>1037.0</ele><time>2026-04-19T10:21:54.762Z</time></trkpt><trkpt lat="44.655809" lon="9.4460941"><ele>1035.75</ele><time>2026-04-19T10:21:55.855Z</time></trkpt><trkpt lat="44.6557117" lon="9.4462169"><ele>1034.5</ele><time>2026-04-19T10:21:56.787Z</time></trkpt><trkpt lat="44.6556336" lon="9.446374"><ele>1033.25</ele><time>2026-04-19T10:21:57.787Z</time></trkpt><trkpt lat="44.6555873" lon="9.44658"><ele>1032.0</ele><time>2026-04-19T10:21:58.848Z</time></trkpt><trkpt lat="44.6555859" lon="9.4468103"><ele>1036.0</ele><time>2026-04-19T10:21:59.817Z</time></trkpt><trkpt lat="44.6556287" lon="9.4470915"><ele>1040.0</ele><time>2026-04-19T10:22:00.821Z</time></trkpt><trkpt lat="44.6556583" lon="9.4473563"><ele>1044.0</ele><time>2026-04-19T10:22:01.823Z</time></trkpt><trkpt lat="44.655677" lon="9.4475463"><ele>1045.0</ele><time>2026-04-19T10:22:02.816Z</time></trkpt><trkpt lat="44.6556721" lon="9.4476945"><ele>1046.0</ele><time>2026-04-19T10:22:03.808Z</time></trkpt><trkpt lat="44.6556408" lon="9.4478359"><ele>1047.0</ele><time>2026-04-19T10:22:04.797Z</time></trkpt><trkpt lat="44.6555429" lon="9.4479106"><ele>1048.0</ele><time>2026-04-19T10:22:05.796Z</time></trkpt><trkpt lat="44.6554192" lon="9.4479447"><ele>1049.0</ele><time>2026-04-19T10:22:06.783Z</time></trkpt><trkpt lat="44.655256" lon="9.4479774"><ele>1050.3333333333335</ele><time>2026-04-19T10:22:07.817Z</time></trkpt><trkpt lat="44.6550624" lon="9.4480198"><ele>1051.6666666666667</ele><time>2026-04-19T10:22:08.842Z</time></trkpt><trkpt lat="44.65489" lon="9.4480601"><ele>1053.0</ele><time>2026-04-19T10:22:09.766Z</time></trkpt><trkpt lat="44.6547052" lon="9.4481443"><ele>1053.0</ele><time>2026-04-19T10:22:10.909Z</time></trkpt><trkpt lat="44.6545966" lon="9.448215"><ele>1053.0</ele><time>2026-04-19T10:22:11.781Z</time></trkpt><trkpt lat="44.6545022" lon="9.4483058"><ele>1053.0</ele><time>2026-04-19T10:22:12.769Z</time></trkpt><trkpt lat="44.6544112" lon="9.448458"><ele>1053.0</ele><time>2026-04-19T10:22:13.838Z</time></trkpt><trkpt lat="44.6543376" lon="9.4486546"><ele>1053.0</ele><time>2026-04-19T10:22:14.809Z</time></trkpt><trkpt lat="44.6542718" lon="9.4489024"><ele>1053.0</ele><time>2026-04-19T10:22:15.842Z</time></trkpt><trkpt lat="44.6542094" lon="9.4491264"><ele>1053.0</ele><time>2026-04-19T10:22:16.777Z</time></trkpt><trkpt lat="44.6541483" lon="9.4493535"><ele>1053.0</ele><time>2026-04-19T10:22:17.794Z</time></trkpt><trkpt lat="44.6540927" lon="9.4495765"><ele>1053.0</ele><time>2026-04-19T10:22:18.805Z</time></trkpt><trkpt lat="44.6540506" lon="9.4497773"><ele>1053.0</ele><time>2026-04-19T10:22:19.753Z</time></trkpt><trkpt lat="44.6540115" lon="9.4499968"><ele>1055.0</ele><time>2026-04-19T10:22:20.817Z</time></trkpt><trkpt lat="44.6539865" lon="9.4501931"><ele>1057.0</ele><time>2026-04-19T10:22:21.776Z</time></trkpt><trkpt lat="44.6539627" lon="9.4503982"><ele>1059.0</ele><time>2026-04-19T10:22:22.838Z</time></trkpt><trkpt lat="44.6539437" lon="9.4505809"><ele>1061.0</ele><time>2026-04-19T10:22:23.838Z</time></trkpt><trkpt lat="44.6539433" lon="9.450756"><ele>1061.0</ele><time>2026-04-19T10:22:24.848Z</time></trkpt><trkpt lat="44.6539719" lon="9.450938"><ele>1061.0</ele><time>2026-04-19T10:22:25.935Z</time></trkpt><trkpt lat="44.6540253" lon="9.4510892"><ele>1061.0</ele><time>2026-04-19T10:22:26.894Z</time></trkpt><trkpt lat="44.6541069" lon="9.4512269"><ele>1061.0</ele><time>2026-04-19T10:22:27.873Z</time></trkpt><trkpt lat="44.6542129" lon="9.4513271"><ele>1059.3333333333335</ele><time>2026-04-19T10:22:28.843Z</time></trkpt><trkpt lat="44.654368" lon="9.4513826"><ele>1057.6666666666667</ele><time>2026-04-19T10:22:29.849Z</time></trkpt><trkpt lat="44.6545538" lon="9.4514007"><ele>1056.0</ele><time>2026-04-19T10:22:30.878Z</time></trkpt><trkpt lat="44.6547215" lon="9.4514423"><ele>1056.0</ele><time>2026-04-19T10:22:31.874Z</time></trkpt><trkpt lat="44.6548809" lon="9.4515196"><ele>1056.0</ele><time>2026-04-19T10:22:32.884Z</time></trkpt><trkpt lat="44.6550379" lon="9.4516559"><ele>1056.0</ele><time>2026-04-19T10:22:33.886Z</time></trkpt><trkpt lat="44.6551912" lon="9.4518149"><ele>1056.6666666666667</ele><time>2026-04-19T10:22:34.881Z</time></trkpt><trkpt lat="44.6553364" lon="9.4519681"><ele>1057.3333333333335</ele><time>2026-04-19T10:22:35.868Z</time></trkpt><trkpt lat="44.6554548" lon="9.4521167"><ele>1058.0</ele><time>2026-04-19T10:22:36.796Z</time></trkpt><trkpt lat="44.6555811" lon="9.4523064"><ele>1058.0</ele><time>2026-04-19T10:22:37.886Z</time></trkpt><trkpt lat="44.655659" lon="9.4525271"><ele>1058.0</ele><time>2026-04-19T10:22:38.865Z</time></trkpt><trkpt lat="44.6557122" lon="9.4527928"><ele>1058.0</ele><time>2026-04-19T10:22:39.815Z</time></trkpt><trkpt lat="44.6557796" lon="9.4530531"><ele>1054.5</ele><time>2026-04-19T10:22:40.926Z</time></trkpt><trkpt lat="44.65589" lon="9.4534664"><ele>1051.0</ele><time>2026-04-19T10:22:42.847Z</time></trkpt><trkpt lat="44.6559413" lon="9.4536602"><ele>1050.6</ele><time>2026-04-19T10:22:43.831Z</time></trkpt><trkpt lat="44.6559801" lon="9.4538156"><ele>1050.1999999999998</ele><time>2026-04-19T10:22:44.814Z</time></trkpt><trkpt lat="44.6560119" lon="9.4539489"><ele>1049.8000000000002</ele><time>2026-04-19T10:22:45.842Z</time></trkpt><trkpt lat="44.6560417" lon="9.4540623"><ele>1049.4</ele><time>2026-04-19T10:22:46.823Z</time></trkpt><trkpt lat="44.6560708" lon="9.454169"><ele>1049.0</ele><time>2026-04-19T10:22:47.861Z</time></trkpt><trkpt lat="44.6560996" lon="9.454266"><ele>1048.1666666666667</ele><time>2026-04-19T10:22:48.866Z</time></trkpt><trkpt lat="44.6561305" lon="9.4543481"><ele>1047.3333333333335</ele><time>2026-04-19T10:22:49.83Z</time></trkpt><trkpt lat="44.6561725" lon="9.4544311"><ele>1046.5</ele><time>2026-04-19T10:22:50.828Z</time></trkpt><trkpt lat="44.6562204" lon="9.4545077"><ele>1045.6666666666667</ele><time>2026-04-19T10:22:51.802Z</time></trkpt><trkpt lat="44.656286" lon="9.4546053"><ele>1044.8333333333333</ele><time>2026-04-19T10:22:52.833Z</time></trkpt><trkpt lat="44.6563628" lon="9.4547043"><ele>1044.0</ele><time>2026-04-19T10:22:53.784Z</time></trkpt><trkpt lat="44.6564648" lon="9.4548033"><ele>1044.0</ele><time>2026-04-19T10:22:54.859Z</time></trkpt><trkpt lat="44.6566028" lon="9.4548861"><ele>1044.0</ele><time>2026-04-19T10:22:56.069Z</time></trkpt><trkpt lat="44.6568544" lon="9.4549403"><ele>1044.0</ele><time>2026-04-19T10:22:57.957Z</time></trkpt><trkpt lat="44.6569602" lon="9.4549621"><ele>1045.6000000000001</ele><time>2026-04-19T10:22:58.876Z</time></trkpt><trkpt lat="44.6570638" lon="9.4549902"><ele>1047.2</ele><time>2026-04-19T10:22:59.837Z</time></trkpt><trkpt lat="44.6571514" lon="9.4550466"><ele>1048.8000000000002</ele><time>2026-04-19T10:23:00.825Z</time></trkpt><trkpt lat="44.6571975" lon="9.4551505"><ele>1050.4</ele><time>2026-04-19T10:23:01.809Z</time></trkpt><trkpt lat="44.6572033" lon="9.455286"><ele>1052.0</ele><time>2026-04-19T10:23:02.805Z</time></trkpt><trkpt lat="44.6571917" lon="9.4554363"><ele>1050.5</ele><time>2026-04-19T10:23:03.857Z</time></trkpt><trkpt lat="44.6571955" lon="9.4555748"><ele>1049.0</ele><time>2026-04-19T10:23:04.876Z</time></trkpt><trkpt lat="44.6572164" lon="9.4557252"><ele>1047.5</ele><time>2026-04-19T10:23:05.903Z</time></trkpt><trkpt lat="44.6572651" lon="9.4559474"><ele>1046.0</ele><time>2026-04-19T10:23:06.834Z</time></trkpt><trkpt lat="44.6573271" lon="9.4562012"><ele>1043.25</ele><time>2026-04-19T10:23:07.896Z</time></trkpt><trkpt lat="44.6573808" lon="9.4563588"><ele>1040.5</ele><time>2026-04-19T10:23:08.819Z</time></trkpt><trkpt lat="44.6574635" lon="9.4564876"><ele>1037.75</ele><time>2026-04-19T10:23:09.843Z</time></trkpt><trkpt lat="44.6575676" lon="9.4565776"><ele>1035.0</ele><time>2026-04-19T10:23:10.862Z</time></trkpt><trkpt lat="44.657673" lon="9.4565903"><ele>1034.6666666666667</ele><time>2026-04-19T10:23:11.835Z</time></trkpt><trkpt lat="44.6578374" lon="9.4565455"><ele>1034.3333333333335</ele><time>2026-04-19T10:23:12.838Z</time></trkpt><trkpt lat="44.6580078" lon="9.4564799"><ele>1034.0</ele><time>2026-04-19T10:23:13.822Z</time></trkpt><trkpt lat="44.6582029" lon="9.456418"><ele>1034.0</ele><time>2026-04-19T10:23:14.829Z</time></trkpt><trkpt lat="44.6583854" lon="9.456376"><ele>1034.0</ele><time>2026-04-19T10:23:15.88Z</time></trkpt><trkpt lat="44.6585506" lon="9.4563689"><ele>1034.0</ele><time>2026-04-19T10:23:16.86Z</time></trkpt><trkpt lat="44.6587195" lon="9.4563834"><ele>1034.0</ele><time>2026-04-19T10:23:17.869Z</time></trkpt><trkpt lat="44.6588686" lon="9.4564167"><ele>1034.0</ele><time>2026-04-19T10:23:18.819Z</time></trkpt><trkpt lat="44.6590371" lon="9.4564612"><ele>1034.0</ele><time>2026-04-19T10:23:19.875Z</time></trkpt><trkpt lat="44.6591973" lon="9.456506"><ele>1034.0</ele><time>2026-04-19T10:23:20.859Z</time></trkpt><trkpt lat="44.6593611" lon="9.4565583"><ele>1034.0</ele><time>2026-04-19T10:23:21.871Z</time></trkpt><trkpt lat="44.6595616" lon="9.4566297"><ele>1034.0</ele><time>2026-04-19T10:23:23.087Z</time></trkpt><trkpt lat="44.6598587" lon="9.4567479"><ele>1033.5</ele><time>2026-04-19T10:23:24.847Z</time></trkpt><trkpt lat="44.6600117" lon="9.4568064"><ele>1033.0</ele><time>2026-04-19T10:23:25.838Z</time></trkpt><trkpt lat="44.6601479" lon="9.4568699"><ele>1032.5</ele><time>2026-04-19T10:23:26.795Z</time></trkpt><trkpt lat="44.6602767" lon="9.4569703"><ele>1032.0</ele><time>2026-04-19T10:23:27.823Z</time></trkpt><trkpt lat="44.6603863" lon="9.4571066"><ele>1028.5</ele><time>2026-04-19T10:23:28.809Z</time></trkpt><trkpt lat="44.6604866" lon="9.4572529"><ele>1025.0</ele><time>2026-04-19T10:23:29.886Z</time></trkpt><trkpt lat="44.660564" lon="9.457334"><ele>1021.5</ele><time>2026-04-19T10:23:30.84Z</time></trkpt><trkpt lat="44.6606533" lon="9.4573662"><ele>1018.0</ele><time>2026-04-19T10:23:31.79Z</time></trkpt><trkpt lat="44.6607748" lon="9.457327"><ele>1018.0</ele><time>2026-04-19T10:23:32.832Z</time></trkpt><trkpt lat="44.6608942" lon="9.457189"><ele>1018.0</ele><time>2026-04-19T10:23:33.866Z</time></trkpt><trkpt lat="44.660998" lon="9.457023"><ele>1018.0</ele><time>2026-04-19T10:23:34.83Z</time></trkpt><trkpt lat="44.6611182" lon="9.4568726"><ele>1020.0</ele><time>2026-04-19T10:23:35.8Z</time></trkpt><trkpt lat="44.6612639" lon="9.4567662"><ele>1022.0</ele><time>2026-04-19T10:23:36.803Z</time></trkpt><trkpt lat="44.6614575" lon="9.4567102"><ele>1024.0</ele><time>2026-04-19T10:23:37.872Z</time></trkpt><trkpt lat="44.661682" lon="9.4567065"><ele>1024.0</ele><time>2026-04-19T10:23:38.894Z</time></trkpt><trkpt lat="44.6618819" lon="9.4567064"><ele>1024.0</ele><time>2026-04-19T10:23:39.877Z</time></trkpt><trkpt lat="44.6620378" lon="9.4567139"><ele>1024.0</ele><time>2026-04-19T10:23:40.805Z</time></trkpt><trkpt lat="44.6621719" lon="9.4567464"><ele>1023.0</ele><time>2026-04-19T10:23:41.832Z</time></trkpt><trkpt lat="44.6622761" lon="9.4568221"><ele>1022.0</ele><time>2026-04-19T10:23:42.818Z</time></trkpt><trkpt lat="44.6623744" lon="9.4569876"><ele>1021.0</ele><time>2026-04-19T10:23:43.973Z</time></trkpt><trkpt lat="44.6623899" lon="9.4574669"><ele>1019.3333333333333</ele><time>2026-04-19T10:23:45.922Z</time></trkpt><trkpt lat="44.6624014" lon="9.4577463"><ele>1017.6666666666667</ele><time>2026-04-19T10:23:46.846Z</time></trkpt><trkpt lat="44.6624166" lon="9.4580523"><ele>1016.0</ele><time>2026-04-19T10:23:47.849Z</time></trkpt><trkpt lat="44.6624291" lon="9.4583302"><ele>1016.0</ele><time>2026-04-19T10:23:48.827Z</time></trkpt><trkpt lat="44.6624148" lon="9.4586186"><ele>1016.0</ele><time>2026-04-19T10:23:49.901Z</time></trkpt><trkpt lat="44.6623814" lon="9.4588735"><ele>1016.0</ele><time>2026-04-19T10:23:50.927Z</time></trkpt><trkpt lat="44.6623543" lon="9.4590901"><ele>1014.0</ele><time>2026-04-19T10:23:51.831Z</time></trkpt><trkpt lat="44.6623248" lon="9.4593401"><ele>1012.0</ele><time>2026-04-19T10:23:52.884Z</time></trkpt><trkpt lat="44.6623006" lon="9.4595629"><ele>1010.0</ele><time>2026-04-19T10:23:53.86Z</time></trkpt><trkpt lat="44.662275" lon="9.4597969"><ele>1009.3333333333334</ele><time>2026-04-19T10:23:54.889Z</time></trkpt><trkpt lat="44.6622504" lon="9.460021"><ele>1008.6666666666667</ele><time>2026-04-19T10:23:55.89Z</time></trkpt><trkpt lat="44.662224" lon="9.4602279"><ele>1008.0</ele><time>2026-04-19T10:23:56.871Z</time></trkpt><trkpt lat="44.6621983" lon="9.4604351"><ele>1007.0</ele><time>2026-04-19T10:23:57.898Z</time></trkpt><trkpt lat="44.6621739" lon="9.4606207"><ele>1006.0</ele><time>2026-04-19T10:23:58.839Z</time></trkpt><trkpt lat="44.662146" lon="9.4608145"><ele>1005.0</ele><time>2026-04-19T10:23:59.884Z</time></trkpt><trkpt lat="44.6621313" lon="9.4609578"><ele>1004.0</ele><time>2026-04-19T10:24:00.836Z</time></trkpt><trkpt lat="44.6621229" lon="9.4610883"><ele>1004.0</ele><time>2026-04-19T10:24:01.845Z</time></trkpt><trkpt lat="44.6621389" lon="9.4612112"><ele>1004.0000000000001</ele><time>2026-04-19T10:24:02.835Z</time></trkpt><trkpt lat="44.6621857" lon="9.461346"><ele>1004.0000000000001</ele><time>2026-04-19T10:24:03.913Z</time></trkpt><trkpt lat="44.6622685" lon="9.461456"><ele>1004.0</ele><time>2026-04-19T10:24:04.85Z</time></trkpt><trkpt lat="44.6623722" lon="9.4615656"><ele>1004.0</ele><time>2026-04-19T10:24:05.866Z</time></trkpt><trkpt lat="44.6624819" lon="9.4616603"><ele>1004.25</ele><time>2026-04-19T10:24:06.882Z</time></trkpt><trkpt lat="44.6625764" lon="9.4617499"><ele>1004.5</ele><time>2026-04-19T10:24:07.849Z</time></trkpt><trkpt lat="44.6626715" lon="9.4618398"><ele>1004.75</ele><time>2026-04-19T10:24:08.832Z</time></trkpt><trkpt lat="44.6627694" lon="9.4619285"><ele>1005.0</ele><time>2026-04-19T10:24:09.834Z</time></trkpt><trkpt lat="44.6628647" lon="9.4620113"><ele>1005.0</ele><time>2026-04-19T10:24:10.836Z</time></trkpt><trkpt lat="44.6629609" lon="9.462102"><ele>1005.0</ele><time>2026-04-19T10:24:11.849Z</time></trkpt><trkpt lat="44.6630505" lon="9.4621983"><ele>1005.0</ele><time>2026-04-19T10:24:12.843Z</time></trkpt><trkpt lat="44.6631407" lon="9.4623126"><ele>1005.0</ele><time>2026-04-19T10:24:13.94Z</time></trkpt><trkpt lat="44.6632007" lon="9.4624298"><ele>1002.25</ele><time>2026-04-19T10:24:14.845Z</time></trkpt><trkpt lat="44.6632472" lon="9.4625848"><ele>999.5</ele><time>2026-04-19T10:24:15.883Z</time></trkpt><trkpt lat="44.6632595" lon="9.4627516"><ele>996.75</ele><time>2026-04-19T10:24:16.897Z</time></trkpt><trkpt lat="44.6632683" lon="9.4629094"><ele>994.0</ele><time>2026-04-19T10:24:17.84Z</time></trkpt><trkpt lat="44.6632965" lon="9.4630804"><ele>993.75</ele><time>2026-04-19T10:24:18.87Z</time></trkpt><trkpt lat="44.6633561" lon="9.4632303"><ele>993.5</ele><time>2026-04-19T10:24:19.831Z</time></trkpt><trkpt lat="44.6634447" lon="9.4633766"><ele>993.25</ele><time>2026-04-19T10:24:20.817Z</time></trkpt><trkpt lat="44.6635616" lon="9.4635373"><ele>993.0</ele><time>2026-04-19T10:24:21.899Z</time></trkpt><trkpt lat="44.6636855" lon="9.4636962"><ele>990.3333333333333</ele><time>2026-04-19T10:24:22.912Z</time></trkpt><trkpt lat="44.6638128" lon="9.4638563"><ele>987.6666666666666</ele><time>2026-04-19T10:24:23.907Z</time></trkpt><trkpt lat="44.6639312" lon="9.4640139"><ele>985.0</ele><time>2026-04-19T10:24:24.841Z</time></trkpt><trkpt lat="44.6640518" lon="9.4641743"><ele>985.0</ele><time>2026-04-19T10:24:25.838Z</time></trkpt><trkpt lat="44.6641641" lon="9.4643193"><ele>985.0</ele><time>2026-04-19T10:24:26.8Z</time></trkpt><trkpt lat="44.6642769" lon="9.4644534"><ele>985.0</ele><time>2026-04-19T10:24:27.879Z</time></trkpt><trkpt lat="44.6643851" lon="9.4645484"><ele>985.0</ele><time>2026-04-19T10:24:28.884Z</time></trkpt><trkpt lat="44.664496" lon="9.4646008"><ele>985.25</ele><time>2026-04-19T10:24:29.875Z</time></trkpt><trkpt lat="44.6646139" lon="9.4646056"><ele>985.5</ele><time>2026-04-19T10:24:30.809Z</time></trkpt><trkpt lat="44.6647633" lon="9.4645771"><ele>985.75</ele><time>2026-04-19T10:24:31.846Z</time></trkpt><trkpt lat="44.6649136" lon="9.4645545"><ele>986.0</ele><time>2026-04-19T10:24:32.879Z</time></trkpt><trkpt lat="44.6650436" lon="9.4645854"><ele>985.25</ele><time>2026-04-19T10:24:33.87Z</time></trkpt><trkpt lat="44.6651677" lon="9.4646659"><ele>984.5</ele><time>2026-04-19T10:24:34.827Z</time></trkpt><trkpt lat="44.6652973" lon="9.4647753"><ele>983.75</ele><time>2026-04-19T10:24:35.869Z</time></trkpt><trkpt lat="44.6654136" lon="9.4648943"><ele>983.0</ele><time>2026-04-19T10:24:36.889Z</time></trkpt><trkpt lat="44.6655079" lon="9.4650166"><ele>983.0</ele><time>2026-04-19T10:24:37.84Z</time></trkpt><trkpt lat="44.6656039" lon="9.4651514"><ele>983.0</ele><time>2026-04-19T10:24:38.893Z</time></trkpt><trkpt lat="44.6656909" lon="9.4652731"><ele>983.0</ele><time>2026-04-19T10:24:39.898Z</time></trkpt><trkpt lat="44.6657721" lon="9.4653972"><ele>983.0</ele><time>2026-04-19T10:24:40.921Z</time></trkpt><trkpt lat="44.6658451" lon="9.4654997"><ele>984.5</ele><time>2026-04-19T10:24:41.842Z</time></trkpt><trkpt lat="44.6659331" lon="9.4656243"><ele>986.0</ele><time>2026-04-19T10:24:42.981Z</time></trkpt><trkpt lat="44.666065" lon="9.4658388"><ele>987.5</ele><time>2026-04-19T10:24:44.87Z</time></trkpt><trkpt lat="44.666109" lon="9.4659794"><ele>989.0</ele><time>2026-04-19T10:24:45.862Z</time></trkpt><trkpt lat="44.6661262" lon="9.466162"><ele>987.25</ele><time>2026-04-19T10:24:46.961Z</time></trkpt><trkpt lat="44.6661164" lon="9.4663354"><ele>985.5</ele><time>2026-04-19T10:24:47.861Z</time></trkpt><trkpt lat="44.6660901" lon="9.4665338"><ele>983.75</ele><time>2026-04-19T10:24:48.834Z</time></trkpt><trkpt lat="44.6660547" lon="9.4667574"><ele>982.0</ele><time>2026-04-19T10:24:49.886Z</time></trkpt><trkpt lat="44.6660213" lon="9.4670018"><ele>977.0</ele><time>2026-04-19T10:24:50.878Z</time></trkpt><trkpt lat="44.6659903" lon="9.4672523"><ele>972.0</ele><time>2026-04-19T10:24:51.878Z</time></trkpt><trkpt lat="44.6659489" lon="9.4675082"><ele>967.0</ele><time>2026-04-19T10:24:52.878Z</time></trkpt><trkpt lat="44.6659027" lon="9.4677367"><ele>965.3333333333333</ele><time>2026-04-19T10:24:53.84Z</time></trkpt><trkpt lat="44.6658489" lon="9.4679609"><ele>963.6666666666667</ele><time>2026-04-19T10:24:54.84Z</time></trkpt><trkpt lat="44.6657857" lon="9.4681791"><ele>962.0</ele><time>2026-04-19T10:24:55.85Z</time></trkpt><trkpt lat="44.6656983" lon="9.4683604"><ele>962.0</ele><time>2026-04-19T10:24:56.847Z</time></trkpt><trkpt lat="44.665584" lon="9.4684882"><ele>962.0</ele><time>2026-04-19T10:24:57.87Z</time></trkpt><trkpt lat="44.6654634" lon="9.4685242"><ele>962.0</ele><time>2026-04-19T10:24:58.834Z</time></trkpt><trkpt lat="44.6653397" lon="9.4684978"><ele>962.0</ele><time>2026-04-19T10:24:59.835Z</time></trkpt><trkpt lat="44.6652068" lon="9.4684226"><ele>960.0</ele><time>2026-04-19T10:25:00.833Z</time></trkpt><trkpt lat="44.6650587" lon="9.4683119"><ele>958.0</ele><time>2026-04-19T10:25:01.835Z</time></trkpt><trkpt lat="44.6649121" lon="9.4682091"><ele>956.0</ele><time>2026-04-19T10:25:02.881Z</time></trkpt><trkpt lat="44.664779" lon="9.4681172"><ele>956.0</ele><time>2026-04-19T10:25:03.884Z</time></trkpt><trkpt lat="44.6646576" lon="9.4680315"><ele>956.0</ele><time>2026-04-19T10:25:04.824Z</time></trkpt><trkpt lat="44.6645305" lon="9.4679418"><ele>956.0</ele><time>2026-04-19T10:25:05.869Z</time></trkpt><trkpt lat="44.6644017" lon="9.4678584"><ele>956.0</ele><time>2026-04-19T10:25:06.856Z</time></trkpt><trkpt lat="44.6642674" lon="9.4677716"><ele>955.6666666666667</ele><time>2026-04-19T10:25:07.827Z</time></trkpt><trkpt lat="44.6641014" lon="9.4676755"><ele>955.3333333333333</ele><time>2026-04-19T10:25:08.944Z</time></trkpt><trkpt lat="44.6639519" lon="9.4675915"><ele>955.0</ele><time>2026-04-19T10:25:09.888Z</time></trkpt><trkpt lat="44.663813" lon="9.4675096"><ele>955.0</ele><time>2026-04-19T10:25:10.832Z</time></trkpt><trkpt lat="44.6636673" lon="9.4674247"><ele>955.0</ele><time>2026-04-19T10:25:11.873Z</time></trkpt><trkpt lat="44.6635164" lon="9.4673276"><ele>955.0</ele><time>2026-04-19T10:25:13.003Z</time></trkpt><trkpt lat="44.6633261" lon="9.4672314"><ele>953.8</ele><time>2026-04-19T10:25:14.877Z</time></trkpt><trkpt lat="44.6632351" lon="9.4672448"><ele>952.6</ele><time>2026-04-19T10:25:15.842Z</time></trkpt><trkpt lat="44.663157" lon="9.4673176"><ele>951.4000000000001</ele><time>2026-04-19T10:25:16.854Z</time></trkpt><trkpt lat="44.6631103" lon="9.4674381"><ele>950.2</ele><time>2026-04-19T10:25:17.842Z</time></trkpt><trkpt lat="44.6631015" lon="9.4675926"><ele>949.0</ele><time>2026-04-19T10:25:18.855Z</time></trkpt><trkpt lat="44.6631594" lon="9.4677594"><ele>945.6666666666666</ele><time>2026-04-19T10:25:19.86Z</time></trkpt><trkpt lat="44.6632545" lon="9.4679726"><ele>942.3333333333333</ele><time>2026-04-19T10:25:20.868Z</time></trkpt><trkpt lat="44.6633579" lon="9.4682336"><ele>939.0</ele><time>2026-04-19T10:25:21.883Z</time></trkpt><trkpt lat="44.6634407" lon="9.4684736"><ele>939.0</ele><time>2026-04-19T10:25:22.903Z</time></trkpt><trkpt lat="44.6635276" lon="9.4687238"><ele>939.0</ele><time>2026-04-19T10:25:23.997Z</time></trkpt><trkpt lat="44.6636626" lon="9.4691055"><ele>938.3333333333333</ele><time>2026-04-19T10:25:25.857Z</time></trkpt><trkpt lat="44.6637354" lon="9.4692975"><ele>937.6666666666666</ele><time>2026-04-19T10:25:26.865Z</time></trkpt><trkpt lat="44.6638119" lon="9.4694795"><ele>937.0</ele><time>2026-04-19T10:25:27.886Z</time></trkpt><trkpt lat="44.6639154" lon="9.4696902"><ele>933.6666666666666</ele><time>2026-04-19T10:25:29.069Z</time></trkpt><trkpt lat="44.6640929" lon="9.4699868"><ele>930.3333333333333</ele><time>2026-04-19T10:25:30.852Z</time></trkpt><trkpt lat="44.6641997" lon="9.4701414"><ele>927.0</ele><time>2026-04-19T10:25:31.843Z</time></trkpt><trkpt lat="44.6643159" lon="9.4702989"><ele>926.0</ele><time>2026-04-19T10:25:32.873Z</time></trkpt><trkpt lat="44.6644253" lon="9.4704526"><ele>925.0</ele><time>2026-04-19T10:25:33.854Z</time></trkpt><trkpt lat="44.6645235" lon="9.4706026"><ele>924.0</ele><time>2026-04-19T10:25:34.865Z</time></trkpt><trkpt lat="44.6646105" lon="9.4707309"><ele>923.0</ele><time>2026-04-19T10:25:35.86Z</time></trkpt><trkpt lat="44.6646728" lon="9.4708333"><ele>923.0</ele><time>2026-04-19T10:25:36.86Z</time></trkpt><trkpt lat="44.6647062" lon="9.470947"><ele>923.0</ele><time>2026-04-19T10:25:37.842Z</time></trkpt><trkpt lat="44.664701" lon="9.4710826"><ele>923.0</ele><time>2026-04-19T10:25:38.92Z</time></trkpt><trkpt lat="44.6646602" lon="9.4711919"><ele>923.0</ele><time>2026-04-19T10:25:39.86Z</time></trkpt><trkpt lat="44.6645795" lon="9.4712494"><ele>923.0</ele><time>2026-04-19T10:25:40.846Z</time></trkpt><trkpt lat="44.6644597" lon="9.4712369"><ele>921.5</ele><time>2026-04-19T10:25:41.982Z</time></trkpt><trkpt lat="44.6641772" lon="9.4710916"><ele>920.0</ele><time>2026-04-19T10:25:43.843Z</time></trkpt><trkpt lat="44.663998" lon="9.4710027"><ele>920.0</ele><time>2026-04-19T10:25:44.86Z</time></trkpt><trkpt lat="44.663822" lon="9.4709179"><ele>920.0</ele><time>2026-04-19T10:25:45.845Z</time></trkpt><trkpt lat="44.6636511" lon="9.4708399"><ele>920.0</ele><time>2026-04-19T10:25:46.874Z</time></trkpt><trkpt lat="44.6634967" lon="9.4707647"><ele>919.0</ele><time>2026-04-19T10:25:47.874Z</time></trkpt><trkpt lat="44.663342" lon="9.4706577"><ele>918.0</ele><time>2026-04-19T10:25:48.985Z</time></trkpt><trkpt lat="44.6632319" lon="9.4705281"><ele>917.0</ele><time>2026-04-19T10:25:49.947Z</time></trkpt><trkpt lat="44.6629916" lon="9.4702555"><ele>917.0</ele><time>2026-04-19T10:25:51.895Z</time></trkpt><trkpt lat="44.6628686" lon="9.4701162"><ele>917.0</ele><time>2026-04-19T10:25:53.006Z</time></trkpt><trkpt lat="44.6627101" lon="9.4700028"><ele>917.0</ele><time>2026-04-19T10:25:54.945Z</time></trkpt><trkpt lat="44.6626449" lon="9.4699956"><ele>917.0</ele><time>2026-04-19T10:25:55.857Z</time></trkpt><trkpt lat="44.6625814" lon="9.4700287"><ele>915.2</ele><time>2026-04-19T10:25:56.828Z</time></trkpt><trkpt lat="44.6625392" lon="9.4701061"><ele>913.4000000000001</ele><time>2026-04-19T10:25:57.843Z</time></trkpt><trkpt lat="44.6625354" lon="9.4702182"><ele>911.5999999999999</ele><time>2026-04-19T10:25:58.844Z</time></trkpt><trkpt lat="44.6625753" lon="9.4703245"><ele>909.8</ele><time>2026-04-19T10:25:59.831Z</time></trkpt><trkpt lat="44.6626622" lon="9.4704495"><ele>908.0</ele><time>2026-04-19T10:26:00.859Z</time></trkpt><trkpt lat="44.6628115" lon="9.4705653"><ele>907.6666666666667</ele><time>2026-04-19T10:26:01.921Z</time></trkpt><trkpt lat="44.6629245" lon="9.4706954"><ele>907.3333333333333</ele><time>2026-04-19T10:26:02.844Z</time></trkpt><trkpt lat="44.6630198" lon="9.4708912"><ele>907.0</ele><time>2026-04-19T10:26:03.856Z</time></trkpt><trkpt lat="44.6630587" lon="9.4711056"><ele>904.0</ele><time>2026-04-19T10:26:04.858Z</time></trkpt><trkpt lat="44.663119" lon="9.4712799"><ele>901.0</ele><time>2026-04-19T10:26:05.811Z</time></trkpt><trkpt lat="44.6632115" lon="9.4714303"><ele>898.0</ele><time>2026-04-19T10:26:06.828Z</time></trkpt><trkpt lat="44.6633461" lon="9.4715565"><ele>895.0</ele><time>2026-04-19T10:26:07.85Z</time></trkpt><trkpt lat="44.6634845" lon="9.4716557"><ele>895.0</ele><time>2026-04-19T10:26:08.837Z</time></trkpt><trkpt lat="44.6635949" lon="9.4717697"><ele>895.0</ele><time>2026-04-19T10:26:09.91Z</time></trkpt><trkpt lat="44.6636674" lon="9.4718763"><ele>895.0</ele><time>2026-04-19T10:26:10.86Z</time></trkpt><trkpt lat="44.6637012" lon="9.472055"><ele>895.0</ele><time>2026-04-19T10:26:11.988Z</time></trkpt><trkpt lat="44.663637" lon="9.4724456"><ele>893.6666666666666</ele><time>2026-04-19T10:26:13.819Z</time></trkpt><trkpt lat="44.6635821" lon="9.4726902"><ele>892.3333333333333</ele><time>2026-04-19T10:26:14.831Z</time></trkpt><trkpt lat="44.6635255" lon="9.4729453"><ele>891.0</ele><time>2026-04-19T10:26:15.935Z</time></trkpt><trkpt lat="44.6634926" lon="9.4731531"><ele>889.0</ele><time>2026-04-19T10:26:16.899Z</time></trkpt><trkpt lat="44.6634785" lon="9.4734032"><ele>887.0</ele><time>2026-04-19T10:26:18.003Z</time></trkpt><trkpt lat="44.6634912" lon="9.4738265"><ele>886.25</ele><time>2026-04-19T10:26:19.852Z</time></trkpt><trkpt lat="44.6635106" lon="9.4740273"><ele>885.5</ele><time>2026-04-19T10:26:20.808Z</time></trkpt><trkpt lat="44.663554" lon="9.4742213"><ele>884.75</ele><time>2026-04-19T10:26:21.871Z</time></trkpt><trkpt lat="44.6636024" lon="9.4743599"><ele>884.0</ele><time>2026-04-19T10:26:22.878Z</time></trkpt><trkpt lat="44.6636478" lon="9.4744662"><ele>884.0000000000001</ele><time>2026-04-19T10:26:23.9Z</time></trkpt><trkpt lat="44.6636698" lon="9.4745809"><ele>884.0</ele><time>2026-04-19T10:26:24.903Z</time></trkpt><trkpt lat="44.6636505" lon="9.47469"><ele>884.0</ele><time>2026-04-19T10:26:25.862Z</time></trkpt><trkpt lat="44.663593" lon="9.4747659"><ele>884.0</ele><time>2026-04-19T10:26:26.886Z</time></trkpt><trkpt lat="44.6635169" lon="9.4747933"><ele>884.0000000000001</ele><time>2026-04-19T10:26:27.903Z</time></trkpt><trkpt lat="44.6634454" lon="9.4747514"><ele>884.0</ele><time>2026-04-19T10:26:28.838Z</time></trkpt><trkpt lat="44.6633688" lon="9.4746419"><ele>883.25</ele><time>2026-04-19T10:26:29.893Z</time></trkpt><trkpt lat="44.663313" lon="9.4744649"><ele>882.5</ele><time>2026-04-19T10:26:30.877Z</time></trkpt><trkpt lat="44.6632541" lon="9.4742558"><ele>881.75</ele><time>2026-04-19T10:26:31.866Z</time></trkpt><trkpt lat="44.6631997" lon="9.4740656"><ele>881.0</ele><time>2026-04-19T10:26:32.896Z</time></trkpt><trkpt lat="44.663156" lon="9.4739148"><ele>881.0</ele><time>2026-04-19T10:26:33.867Z</time></trkpt><trkpt lat="44.6630995" lon="9.4737902"><ele>880.9999999999999</ele><time>2026-04-19T10:26:34.953Z</time></trkpt><trkpt lat="44.6629728" lon="9.4737053"><ele>880.9999999999999</ele><time>2026-04-19T10:26:36.884Z</time></trkpt><trkpt lat="44.6629111" lon="9.4737312"><ele>881.0</ele><time>2026-04-19T10:26:37.845Z</time></trkpt><trkpt lat="44.6628543" lon="9.4738106"><ele>881.0</ele><time>2026-04-19T10:26:38.878Z</time></trkpt><trkpt lat="44.6628295" lon="9.4739061"><ele>881.0</ele><time>2026-04-19T10:26:39.828Z</time></trkpt><trkpt lat="44.662851" lon="9.4740421"><ele>881.0</ele><time>2026-04-19T10:26:40.839Z</time></trkpt><trkpt lat="44.6629206" lon="9.4742225"><ele>881.0</ele><time>2026-04-19T10:26:41.863Z</time></trkpt><trkpt lat="44.6630085" lon="9.4744408"><ele>881.0</ele><time>2026-04-19T10:26:42.855Z</time></trkpt><trkpt lat="44.6630952" lon="9.474711"><ele>878.0</ele><time>2026-04-19T10:26:43.954Z</time></trkpt><trkpt lat="44.6631738" lon="9.4751313"><ele>875.0</ele><time>2026-04-19T10:26:45.835Z</time></trkpt><trkpt lat="44.663206" lon="9.4753518"><ele>872.6666666666667</ele><time>2026-04-19T10:26:46.87Z</time></trkpt><trkpt lat="44.6632237" lon="9.4755453"><ele>870.3333333333333</ele><time>2026-04-19T10:26:47.82Z</time></trkpt><trkpt lat="44.6632345" lon="9.4757555"><ele>868.0</ele><time>2026-04-19T10:26:48.943Z</time></trkpt><trkpt lat="44.663243" lon="9.4760309"><ele>868.0</ele><time>2026-04-19T10:26:50.816Z</time></trkpt><trkpt lat="44.6632885" lon="9.4761375"><ele>868.0</ele><time>2026-04-19T10:26:51.826Z</time></trkpt><trkpt lat="44.6633595" lon="9.4762128"><ele>868.0</ele><time>2026-04-19T10:26:52.862Z</time></trkpt><trkpt lat="44.6634656" lon="9.4762377"><ele>868.0</ele><time>2026-04-19T10:26:53.908Z</time></trkpt><trkpt lat="44.6635959" lon="9.4762449"><ele>868.0</ele><time>2026-04-19T10:26:54.984Z</time></trkpt><trkpt lat="44.6637549" lon="9.4763743"><ele>870.5</ele><time>2026-04-19T10:26:56.836Z</time></trkpt><trkpt lat="44.6637982" lon="9.4765116"><ele>873.0</ele><time>2026-04-19T10:26:57.848Z</time></trkpt><trkpt lat="44.6638275" lon="9.4766826"><ele>875.5</ele><time>2026-04-19T10:26:58.849Z</time></trkpt><trkpt lat="44.6638281" lon="9.4768801"><ele>878.0</ele><time>2026-04-19T10:26:59.904Z</time></trkpt><trkpt lat="44.6637534" lon="9.4772903"><ele>879.5</ele><time>2026-04-19T10:27:01.877Z</time></trkpt><trkpt lat="44.6637114" lon="9.4774812"><ele>881.0</ele><time>2026-04-19T10:27:02.815Z</time></trkpt><trkpt lat="44.6636818" lon="9.477673"><ele>882.5</ele><time>2026-04-19T10:27:03.829Z</time></trkpt><trkpt lat="44.6636601" lon="9.4778728"><ele>884.0</ele><time>2026-04-19T10:27:04.927Z</time></trkpt><trkpt lat="44.6636536" lon="9.4780251"><ele>884.0</ele><time>2026-04-19T10:27:05.833Z</time></trkpt><trkpt lat="44.6636491" lon="9.47818"><ele>884.0000000000001</ele><time>2026-04-19T10:27:06.887Z</time></trkpt><trkpt lat="44.6636519" lon="9.4783201"><ele>884.0000000000001</ele><time>2026-04-19T10:27:07.838Z</time></trkpt><trkpt lat="44.6636584" lon="9.4784676"><ele>884.0</ele><time>2026-04-19T10:27:08.835Z</time></trkpt><trkpt lat="44.6636732" lon="9.4786258"><ele>884.0</ele><time>2026-04-19T10:27:09.977Z</time></trkpt><trkpt lat="44.6636909" lon="9.4788505"><ele>883.1666666666667</ele><time>2026-04-19T10:27:11.889Z</time></trkpt><trkpt lat="44.6636916" lon="9.4789648"><ele>882.3333333333334</ele><time>2026-04-19T10:27:12.861Z</time></trkpt><trkpt lat="44.6637014" lon="9.4790804"><ele>881.5</ele><time>2026-04-19T10:27:13.803Z</time></trkpt><trkpt lat="44.6637173" lon="9.4792156"><ele>880.6666666666667</ele><time>2026-04-19T10:27:14.85Z</time></trkpt><trkpt lat="44.6637258" lon="9.4793661"><ele>879.8333333333334</ele><time>2026-04-19T10:27:15.89Z</time></trkpt><trkpt lat="44.663726" lon="9.479472"><ele>879.0</ele><time>2026-04-19T10:27:16.818Z</time></trkpt><trkpt lat="44.6637542" lon="9.4795764"><ele>875.6666666666667</ele><time>2026-04-19T10:27:18.005Z</time></trkpt><trkpt lat="44.6639035" lon="9.4796896"><ele>872.3333333333334</ele><time>2026-04-19T10:27:19.863Z</time></trkpt><trkpt lat="44.6640277" lon="9.4797122"><ele>869.0</ele><time>2026-04-19T10:27:20.823Z</time></trkpt><trkpt lat="44.6641871" lon="9.4796922"><ele>869.0</ele><time>2026-04-19T10:27:21.953Z</time></trkpt><trkpt lat="44.6644429" lon="9.479659"><ele>869.0</ele><time>2026-04-19T10:27:23.839Z</time></trkpt><trkpt lat="44.6645739" lon="9.479687"><ele>869.0</ele><time>2026-04-19T10:27:24.876Z</time></trkpt><trkpt lat="44.6646908" lon="9.4797582"><ele>871.6</ele><time>2026-04-19T10:27:25.887Z</time></trkpt><trkpt lat="44.6647988" lon="9.4798448"><ele>874.2</ele><time>2026-04-19T10:27:26.935Z</time></trkpt><trkpt lat="44.6648854" lon="9.4798931"><ele>876.8000000000001</ele><time>2026-04-19T10:27:27.854Z</time></trkpt><trkpt lat="44.6649729" lon="9.47991"><ele>879.4000000000001</ele><time>2026-04-19T10:27:28.847Z</time></trkpt><trkpt lat="44.6650549" lon="9.4798866"><ele>882.0</ele><time>2026-04-19T10:27:29.855Z</time></trkpt><trkpt lat="44.6651259" lon="9.479831"><ele>882.0</ele><time>2026-04-19T10:27:30.825Z</time></trkpt><trkpt lat="44.6651665" lon="9.4797326"><ele>882.0</ele><time>2026-04-19T10:27:31.84Z</time></trkpt><trkpt lat="44.6651634" lon="9.479605"><ele>882.0</ele><time>2026-04-19T10:27:32.837Z</time></trkpt><trkpt lat="44.6651166" lon="9.4794572"><ele>882.0</ele><time>2026-04-19T10:27:33.926Z</time></trkpt><trkpt lat="44.6650406" lon="9.4793302"><ele>882.0</ele><time>2026-04-19T10:27:34.838Z</time></trkpt><trkpt lat="44.6649393" lon="9.479184"><ele>884.0</ele><time>2026-04-19T10:27:35.845Z</time></trkpt><trkpt lat="44.6648356" lon="9.4790214"><ele>886.0</ele><time>2026-04-19T10:27:36.855Z</time></trkpt><trkpt lat="44.664746" lon="9.4788684"><ele>888.0</ele><time>2026-04-19T10:27:37.833Z</time></trkpt><trkpt lat="44.6646768" lon="9.4787074"><ele>890.0</ele><time>2026-04-19T10:27:38.802Z</time></trkpt><trkpt lat="44.6646263" lon="9.4785178"><ele>891.25</ele><time>2026-04-19T10:27:39.903Z</time></trkpt><trkpt lat="44.6646115" lon="9.4783553"><ele>892.5</ele><time>2026-04-19T10:27:40.891Z</time></trkpt><trkpt lat="44.6646337" lon="9.4781895"><ele>893.75</ele><time>2026-04-19T10:27:41.943Z</time></trkpt><trkpt lat="44.6646821" lon="9.4780157"><ele>895.0</ele><time>2026-04-19T10:27:42.865Z</time></trkpt><trkpt lat="44.6647435" lon="9.4778333"><ele>895.25</ele><time>2026-04-19T10:27:43.866Z</time></trkpt><trkpt lat="44.66482" lon="9.4776784"><ele>895.5</ele><time>2026-04-19T10:27:44.84Z</time></trkpt><trkpt lat="44.664918" lon="9.4775402"><ele>895.75</ele><time>2026-04-19T10:27:45.864Z</time></trkpt><trkpt lat="44.6650472" lon="9.4774165"><ele>896.0</ele><time>2026-04-19T10:27:46.873Z</time></trkpt><trkpt lat="44.6652013" lon="9.4773205"><ele>899.25</ele><time>2026-04-19T10:27:47.889Z</time></trkpt><trkpt lat="44.6653245" lon="9.477269"><ele>902.5</ele><time>2026-04-19T10:27:48.84Z</time></trkpt><trkpt lat="44.665447" lon="9.4772425"><ele>905.75</ele><time>2026-04-19T10:27:49.849Z</time></trkpt><trkpt lat="44.6655719" lon="9.4772247"><ele>909.0</ele><time>2026-04-19T10:27:50.871Z</time></trkpt><trkpt lat="44.6656989" lon="9.4771881"><ele>908.6666666666667</ele><time>2026-04-19T10:27:51.979Z</time></trkpt><trkpt lat="44.665901" lon="9.4770184"><ele>908.3333333333334</ele><time>2026-04-19T10:27:53.849Z</time></trkpt><trkpt lat="44.666002" lon="9.476846"><ele>908.0</ele><time>2026-04-19T10:27:54.817Z</time></trkpt><trkpt lat="44.6660993" lon="9.4766415"><ele>909.25</ele><time>2026-04-19T10:27:55.828Z</time></trkpt><trkpt lat="44.6661954" lon="9.4764644"><ele>910.5</ele><time>2026-04-19T10:27:56.87Z</time></trkpt><trkpt lat="44.6662897" lon="9.476349"><ele>911.75</ele><time>2026-04-19T10:27:57.832Z</time></trkpt><trkpt lat="44.6664256" lon="9.47625"><ele>913.0</ele><time>2026-04-19T10:27:58.832Z</time></trkpt><trkpt lat="44.6665828" lon="9.4761494"><ele>913.0</ele><time>2026-04-19T10:27:59.935Z</time></trkpt><trkpt lat="44.6667127" lon="9.4760655"><ele>913.0</ele><time>2026-04-19T10:28:00.837Z</time></trkpt><trkpt lat="44.6668666" lon="9.4759634"><ele>913.0</ele><time>2026-04-19T10:28:01.942Z</time></trkpt><trkpt lat="44.6669759" lon="9.4758765"><ele>913.0</ele><time>2026-04-19T10:28:02.861Z</time></trkpt><trkpt lat="44.6670708" lon="9.4757607"><ele>917.0</ele><time>2026-04-19T10:28:03.832Z</time></trkpt><trkpt lat="44.6671584" lon="9.4756085"><ele>921.0</ele><time>2026-04-19T10:28:04.837Z</time></trkpt><trkpt lat="44.6672259" lon="9.4754215"><ele>925.0</ele><time>2026-04-19T10:28:05.848Z</time></trkpt><trkpt lat="44.667281" lon="9.4751695"><ele>925.0</ele><time>2026-04-19T10:28:06.823Z</time></trkpt><trkpt lat="44.6673404" lon="9.4748776"><ele>925.0</ele><time>2026-04-19T10:28:07.949Z</time></trkpt><trkpt lat="44.6673745" lon="9.4746945"><ele>925.0</ele><time>2026-04-19T10:28:08.861Z</time></trkpt><trkpt lat="44.6674057" lon="9.4745605"><ele>924.9999999999999</ele><time>2026-04-19T10:28:09.816Z</time></trkpt><trkpt lat="44.667439" lon="9.4744669"><ele>925.0</ele><time>2026-04-19T10:28:10.805Z</time></trkpt><trkpt lat="44.6675073" lon="9.4744121"><ele>925.0</ele><time>2026-04-19T10:28:11.795Z</time></trkpt><trkpt lat="44.6676023" lon="9.4744093"><ele>925.0</ele><time>2026-04-19T10:28:12.818Z</time></trkpt><trkpt lat="44.6676742" lon="9.4744573"><ele>924.9999999999999</ele><time>2026-04-19T10:28:13.819Z</time></trkpt><trkpt lat="44.6677145" lon="9.4745442"><ele>925.0</ele><time>2026-04-19T10:28:14.848Z</time></trkpt><trkpt lat="44.6677345" lon="9.4746869"><ele>925.0</ele><time>2026-04-19T10:28:15.798Z</time></trkpt><trkpt lat="44.6677374" lon="9.4748848"><ele>925.0</ele><time>2026-04-19T10:28:16.776Z</time></trkpt><trkpt lat="44.6677234" lon="9.4751464"><ele>925.0</ele><time>2026-04-19T10:28:17.917Z</time></trkpt><trkpt lat="44.6676906" lon="9.4753803"><ele>928.3333333333333</ele><time>2026-04-19T10:28:18.828Z</time></trkpt><trkpt lat="44.6676398" lon="9.4756282"><ele>931.6666666666667</ele><time>2026-04-19T10:28:19.839Z</time></trkpt><trkpt lat="44.6675623" lon="9.4758603"><ele>935.0</ele><time>2026-04-19T10:28:20.85Z</time></trkpt><trkpt lat="44.6674819" lon="9.4760437"><ele>935.0</ele><time>2026-04-19T10:28:21.826Z</time></trkpt><trkpt lat="44.6674053" lon="9.4762659"><ele>935.0</ele><time>2026-04-19T10:28:22.946Z</time></trkpt><trkpt lat="44.6672839" lon="9.4766589"><ele>938.25</ele><time>2026-04-19T10:28:24.837Z</time></trkpt><trkpt lat="44.6672167" lon="9.476873"><ele>941.5</ele><time>2026-04-19T10:28:25.888Z</time></trkpt><trkpt lat="44.6671575" lon="9.4770371"><ele>944.75</ele><time>2026-04-19T10:28:26.798Z</time></trkpt><trkpt lat="44.667076" lon="9.4771972"><ele>948.0</ele><time>2026-04-19T10:28:27.843Z</time></trkpt><trkpt lat="44.667004" lon="9.4773197"><ele>946.4</ele><time>2026-04-19T10:28:28.811Z</time></trkpt><trkpt lat="44.6669321" lon="9.4774307"><ele>944.8</ele><time>2026-04-19T10:28:29.821Z</time></trkpt><trkpt lat="44.6668684" lon="9.4775483"><ele>943.2</ele><time>2026-04-19T10:28:30.819Z</time></trkpt><trkpt lat="44.6668296" lon="9.4776786"><ele>941.6</ele><time>2026-04-19T10:28:31.816Z</time></trkpt><trkpt lat="44.6668157" lon="9.4778465"><ele>940.0</ele><time>2026-04-19T10:28:32.869Z</time></trkpt><trkpt lat="44.6668239" lon="9.4779864"><ele>939.9999999999999</ele><time>2026-04-19T10:28:33.82Z</time></trkpt><trkpt lat="44.6668442" lon="9.4780863"><ele>940.0</ele><time>2026-04-19T10:28:34.809Z</time></trkpt><trkpt lat="44.666884" lon="9.4781719"><ele>940.0</ele><time>2026-04-19T10:28:35.86Z</time></trkpt><trkpt lat="44.6670064" lon="9.4781422"><ele>940.0</ele><time>2026-04-19T10:28:37.817Z</time></trkpt><trkpt lat="44.6670509" lon="9.4780569"><ele>939.9999999999999</ele><time>2026-04-19T10:28:38.842Z</time></trkpt><trkpt lat="44.667053" lon="9.4779406"><ele>940.0</ele><time>2026-04-19T10:28:39.848Z</time></trkpt><trkpt lat="44.6670563" lon="9.4777714"><ele>942.6666666666666</ele><time>2026-04-19T10:28:41Z</time></trkpt><trkpt lat="44.6671609" lon="9.4774721"><ele>945.3333333333333</ele><time>2026-04-19T10:28:42.806Z</time></trkpt><trkpt lat="44.6672673" lon="9.477291"><ele>948.0</ele><time>2026-04-19T10:28:43.773Z</time></trkpt><trkpt lat="44.6673929" lon="9.4771014"><ele>948.0</ele><time>2026-04-19T10:28:44.817Z</time></trkpt><trkpt lat="44.6675243" lon="9.476942"><ele>948.0</ele><time>2026-04-19T10:28:45.812Z</time></trkpt><trkpt lat="44.6676603" lon="9.4767884"><ele>948.0</ele><time>2026-04-19T10:28:46.833Z</time></trkpt><trkpt lat="44.667798" lon="9.476683"><ele>950.75</ele><time>2026-04-19T10:28:47.808Z</time></trkpt><trkpt lat="44.6679491" lon="9.4765691"><ele>953.5</ele><time>2026-04-19T10:28:48.888Z</time></trkpt><trkpt lat="44.6680632" lon="9.4764762"><ele>956.25</ele><time>2026-04-19T10:28:49.813Z</time></trkpt><trkpt lat="44.668172" lon="9.4763525"><ele>959.0</ele><time>2026-04-19T10:28:50.8Z</time></trkpt><trkpt lat="44.6682731" lon="9.476186"><ele>959.0</ele><time>2026-04-19T10:28:51.846Z</time></trkpt><trkpt lat="44.6683683" lon="9.4760324"><ele>959.0</ele><time>2026-04-19T10:28:52.817Z</time></trkpt><trkpt lat="44.6684819" lon="9.4758946"><ele>959.0</ele><time>2026-04-19T10:28:53.861Z</time></trkpt><trkpt lat="44.6686101" lon="9.475777"><ele>959.0</ele><time>2026-04-19T10:28:54.871Z</time></trkpt><trkpt lat="44.6687252" lon="9.4756531"><ele>960.75</ele><time>2026-04-19T10:28:55.848Z</time></trkpt><trkpt lat="44.6688296" lon="9.4755429"><ele>962.5</ele><time>2026-04-19T10:28:56.832Z</time></trkpt><trkpt lat="44.6689482" lon="9.4754781"><ele>964.25</ele><time>2026-04-19T10:28:57.803Z</time></trkpt><trkpt lat="44.6691038" lon="9.4754513"><ele>966.0</ele><time>2026-04-19T10:28:58.839Z</time></trkpt><trkpt lat="44.6692597" lon="9.475432"><ele>966.0</ele><time>2026-04-19T10:28:59.866Z</time></trkpt><trkpt lat="44.6693838" lon="9.4754087"><ele>966.0</ele><time>2026-04-19T10:29:00.829Z</time></trkpt><trkpt lat="44.6695112" lon="9.4753785"><ele>966.0</ele><time>2026-04-19T10:29:01.798Z</time></trkpt><trkpt lat="44.6696366" lon="9.4753332"><ele>966.0</ele><time>2026-04-19T10:29:02.842Z</time></trkpt><trkpt lat="44.6697455" lon="9.475275"><ele>969.4</ele><time>2026-04-19T10:29:03.828Z</time></trkpt><trkpt lat="44.669858" lon="9.4752053"><ele>972.8</ele><time>2026-04-19T10:29:04.833Z</time></trkpt><trkpt lat="44.6699647" lon="9.4751427"><ele>976.1999999999999</ele><time>2026-04-19T10:29:05.798Z</time></trkpt><trkpt lat="44.6700631" lon="9.4750841"><ele>979.5999999999999</ele><time>2026-04-19T10:29:06.834Z</time></trkpt><trkpt lat="44.6701447" lon="9.475012"><ele>983.0</ele><time>2026-04-19T10:29:07.812Z</time></trkpt><trkpt lat="44.6702" lon="9.4749112"><ele>983.0</ele><time>2026-04-19T10:29:08.846Z</time></trkpt><trkpt lat="44.6702334" lon="9.4747702"><ele>983.0</ele><time>2026-04-19T10:29:09.86Z</time></trkpt><trkpt lat="44.670234" lon="9.4746192"><ele>983.0</ele><time>2026-04-19T10:29:10.806Z</time></trkpt><trkpt lat="44.6702272" lon="9.4744378"><ele>983.0</ele><time>2026-04-19T10:29:11.847Z</time></trkpt><trkpt lat="44.6702478" lon="9.4742808"><ele>984.75</ele><time>2026-04-19T10:29:12.833Z</time></trkpt><trkpt lat="44.6703012" lon="9.4741286"><ele>986.5</ele><time>2026-04-19T10:29:13.848Z</time></trkpt><trkpt lat="44.6703908" lon="9.4740224"><ele>988.25</ele><time>2026-04-19T10:29:14.855Z</time></trkpt><trkpt lat="44.6705012" lon="9.4739451"><ele>990.0</ele><time>2026-04-19T10:29:15.807Z</time></trkpt><trkpt lat="44.6706755" lon="9.4738858"><ele>990.0</ele><time>2026-04-19T10:29:16.983Z</time></trkpt><trkpt lat="44.6709556" lon="9.4738244"><ele>990.0</ele><time>2026-04-19T10:29:18.772Z</time></trkpt><trkpt lat="44.6711055" lon="9.4738228"><ele>990.0</ele><time>2026-04-19T10:29:19.844Z</time></trkpt><trkpt lat="44.6712483" lon="9.4738542"><ele>993.3333333333333</ele><time>2026-04-19T10:29:20.836Z</time></trkpt><trkpt lat="44.6714077" lon="9.4738978"><ele>996.6666666666666</ele><time>2026-04-19T10:29:21.962Z</time></trkpt><trkpt lat="44.6716753" lon="9.4739785"><ele>1000.0</ele><time>2026-04-19T10:29:23.881Z</time></trkpt><trkpt lat="44.6718001" lon="9.4740201"><ele>1000.0</ele><time>2026-04-19T10:29:24.85Z</time></trkpt><trkpt lat="44.6719153" lon="9.474026"><ele>1000.0</ele><time>2026-04-19T10:29:25.832Z</time></trkpt><trkpt lat="44.6720093" lon="9.4739953"><ele>1000.0</ele><time>2026-04-19T10:29:26.84Z</time></trkpt><trkpt lat="44.6721119" lon="9.4739131"><ele>1000.0</ele><time>2026-04-19T10:29:27.862Z</time></trkpt><trkpt lat="44.672199" lon="9.4737871"><ele>998.8</ele><time>2026-04-19T10:29:28.817Z</time></trkpt><trkpt lat="44.6722833" lon="9.4736593"><ele>997.6</ele><time>2026-04-19T10:29:29.837Z</time></trkpt><trkpt lat="44.6723575" lon="9.4735736"><ele>996.4000000000001</ele><time>2026-04-19T10:29:30.809Z</time></trkpt><trkpt lat="44.6724452" lon="9.4735165"><ele>995.2</ele><time>2026-04-19T10:29:31.846Z</time></trkpt><trkpt lat="44.6725443" lon="9.4735207"><ele>994.0</ele><time>2026-04-19T10:29:32.807Z</time></trkpt><trkpt lat="44.6726453" lon="9.4735673"><ele>994.0</ele><time>2026-04-19T10:29:33.819Z</time></trkpt><trkpt lat="44.6727221" lon="9.4736639"><ele>994.0000000000001</ele><time>2026-04-19T10:29:34.842Z</time></trkpt><trkpt lat="44.672747" lon="9.4737914"><ele>994.0000000000001</ele><time>2026-04-19T10:29:35.874Z</time></trkpt><trkpt lat="44.6727457" lon="9.4739444"><ele>994.0</ele><time>2026-04-19T10:29:36.868Z</time></trkpt><trkpt lat="44.6727453" lon="9.4741159"><ele>994.0</ele><time>2026-04-19T10:29:37.878Z</time></trkpt><trkpt lat="44.6727406" lon="9.4742728"><ele>996.2</ele><time>2026-04-19T10:29:38.871Z</time></trkpt><trkpt lat="44.672707" lon="9.4744039"><ele>998.4000000000001</ele><time>2026-04-19T10:29:39.841Z</time></trkpt><trkpt lat="44.6726392" lon="9.474511"><ele>1000.6</ele><time>2026-04-19T10:29:40.85Z</time></trkpt><trkpt lat="44.6725512" lon="9.4745682"><ele>1002.8</ele><time>2026-04-19T10:29:41.841Z</time></trkpt><trkpt lat="44.6724402" lon="9.4745975"><ele>1005.0</ele><time>2026-04-19T10:29:42.827Z</time></trkpt><trkpt lat="44.6723212" lon="9.474624"><ele>1007.5</ele><time>2026-04-19T10:29:43.834Z</time></trkpt><trkpt lat="44.6721982" lon="9.4746629"><ele>1010.0</ele><time>2026-04-19T10:29:44.849Z</time></trkpt><trkpt lat="44.6720771" lon="9.4747137"><ele>1012.5</ele><time>2026-04-19T10:29:45.84Z</time></trkpt><trkpt lat="44.6719565" lon="9.4747779"><ele>1015.0</ele><time>2026-04-19T10:29:46.82Z</time></trkpt><trkpt lat="44.6718447" lon="9.4748648"><ele>1015.0</ele><time>2026-04-19T10:29:47.796Z</time></trkpt><trkpt lat="44.6717324" lon="9.474973"><ele>1015.0</ele><time>2026-04-19T10:29:48.818Z</time></trkpt><trkpt lat="44.6716311" lon="9.4750683"><ele>1015.0</ele><time>2026-04-19T10:29:49.829Z</time></trkpt><trkpt lat="44.6715276" lon="9.4751342"><ele>1015.0</ele><time>2026-04-19T10:29:50.84Z</time></trkpt><trkpt lat="44.6714308" lon="9.4751836"><ele>1015.0</ele><time>2026-04-19T10:29:51.818Z</time></trkpt><trkpt lat="44.6713394" lon="9.4752474"><ele>1015.0</ele><time>2026-04-19T10:29:52.843Z</time></trkpt><trkpt lat="44.6712765" lon="9.4753482"><ele>1015.0</ele><time>2026-04-19T10:29:53.821Z</time></trkpt><trkpt lat="44.6712115" lon="9.4754794"><ele>1015.0</ele><time>2026-04-19T10:29:54.841Z</time></trkpt><trkpt lat="44.6711446" lon="9.4756203"><ele>1015.0</ele><time>2026-04-19T10:29:55.844Z</time></trkpt><trkpt lat="44.6710814" lon="9.4757536"><ele>1014.8</ele><time>2026-04-19T10:29:56.805Z</time></trkpt><trkpt lat="44.671014" lon="9.475876"><ele>1014.6</ele><time>2026-04-19T10:29:57.84Z</time></trkpt><trkpt lat="44.6709557" lon="9.4759788"><ele>1014.4000000000001</ele><time>2026-04-19T10:29:58.804Z</time></trkpt><trkpt lat="44.6709123" lon="9.4760912"><ele>1014.2</ele><time>2026-04-19T10:29:59.806Z</time></trkpt><trkpt lat="44.6709018" lon="9.4762281"><ele>1014.0</ele><time>2026-04-19T10:30:00.977Z</time></trkpt><trkpt lat="44.6709422" lon="9.4765141"><ele>1016.2</ele><time>2026-04-19T10:30:02.817Z</time></trkpt><trkpt lat="44.670965" lon="9.4766789"><ele>1018.4000000000001</ele><time>2026-04-19T10:30:03.995Z</time></trkpt><trkpt lat="44.6710095" lon="9.4768659"><ele>1020.6</ele><time>2026-04-19T10:30:05.829Z</time></trkpt><trkpt lat="44.6710706" lon="9.4769364"><ele>1022.8</ele><time>2026-04-19T10:30:06.828Z</time></trkpt><trkpt lat="44.6711529" lon="9.4769757"><ele>1025.0</ele><time>2026-04-19T10:30:07.802Z</time></trkpt><trkpt lat="44.6712209" lon="9.4770254"><ele>1025.8333333333335</ele><time>2026-04-19T10:30:08.85Z</time></trkpt><trkpt lat="44.6712212" lon="9.4771297"><ele>1026.6666666666667</ele><time>2026-04-19T10:30:11.855Z</time></trkpt><trkpt lat="44.671142" lon="9.4771858"><ele>1027.5</ele><time>2026-04-19T10:30:13.838Z</time></trkpt><trkpt lat="44.6710924" lon="9.4772489"><ele>1028.3333333333333</ele><time>2026-04-19T10:30:14.838Z</time></trkpt><trkpt lat="44.6710406" lon="9.477348"><ele>1029.1666666666665</ele><time>2026-04-19T10:30:15.819Z</time></trkpt><trkpt lat="44.6709916" lon="9.4774519"><ele>1030.0</ele><time>2026-04-19T10:30:16.832Z</time></trkpt><trkpt lat="44.6709361" lon="9.477521"><ele>1030.0</ele><time>2026-04-19T10:30:17.809Z</time></trkpt><trkpt lat="44.6708588" lon="9.4775772"><ele>1030.0</ele><time>2026-04-19T10:30:18.883Z</time></trkpt><trkpt lat="44.6707688" lon="9.4776215"><ele>1030.0</ele><time>2026-04-19T10:30:19.883Z</time></trkpt><trkpt lat="44.6706938" lon="9.4776765"><ele>1030.0</ele><time>2026-04-19T10:30:20.82Z</time></trkpt><trkpt lat="44.6706346" lon="9.477759"><ele>1030.0</ele><time>2026-04-19T10:30:21.813Z</time></trkpt><trkpt lat="44.6705938" lon="9.4778673"><ele>1030.0</ele><time>2026-04-19T10:30:22.864Z</time></trkpt><trkpt lat="44.6705577" lon="9.4779931"><ele>1031.0</ele><time>2026-04-19T10:30:23.892Z</time></trkpt><trkpt lat="44.6705383" lon="9.4781114"><ele>1032.0</ele><time>2026-04-19T10:30:24.837Z</time></trkpt><trkpt lat="44.6705005" lon="9.4782753"><ele>1033.0</ele><time>2026-04-19T10:30:25.977Z</time></trkpt><trkpt lat="44.6704668" lon="9.4785692"><ele>1034.0</ele><time>2026-04-19T10:30:27.877Z</time></trkpt><trkpt lat="44.6704672" lon="9.4787396"><ele>1035.4</ele><time>2026-04-19T10:30:28.848Z</time></trkpt><trkpt lat="44.6704727" lon="9.4788969"><ele>1036.8000000000002</ele><time>2026-04-19T10:30:29.835Z</time></trkpt><trkpt lat="44.6704729" lon="9.4790205"><ele>1038.1999999999998</ele><time>2026-04-19T10:30:30.805Z</time></trkpt><trkpt lat="44.6704701" lon="9.4791235"><ele>1039.6</ele><time>2026-04-19T10:30:31.83Z</time></trkpt><trkpt lat="44.6704941" lon="9.4792104"><ele>1041.0</ele><time>2026-04-19T10:30:32.864Z</time></trkpt><trkpt lat="44.6705916" lon="9.4793316"><ele>1041.0</ele><time>2026-04-19T10:30:34.834Z</time></trkpt><trkpt lat="44.6706854" lon="9.4793739"><ele>1041.0</ele><time>2026-04-19T10:30:35.946Z</time></trkpt><trkpt lat="44.6707655" lon="9.4794251"><ele>1041.0</ele><time>2026-04-19T10:30:36.854Z</time></trkpt><trkpt lat="44.6708255" lon="9.4794915"><ele>1041.0</ele><time>2026-04-19T10:30:37.842Z</time></trkpt><trkpt lat="44.6708695" lon="9.4795776"><ele>1041.0</ele><time>2026-04-19T10:30:38.88Z</time></trkpt><trkpt lat="44.6709006" lon="9.4797546"><ele>1042.0</ele><time>2026-04-19T10:30:40.884Z</time></trkpt><trkpt lat="44.670912" lon="9.4798478"><ele>1043.0</ele><time>2026-04-19T10:30:41.87Z</time></trkpt><trkpt lat="44.6709289" lon="9.4799477"><ele>1044.0</ele><time>2026-04-19T10:30:42.895Z</time></trkpt><trkpt lat="44.6709415" lon="9.4800381"><ele>1045.0</ele><time>2026-04-19T10:30:43.869Z</time></trkpt><trkpt lat="44.6709577" lon="9.4802008"><ele>1046.0</ele><time>2026-04-19T10:30:45.793Z</time></trkpt><trkpt lat="44.6709689" lon="9.4802883"><ele>1047.0</ele><time>2026-04-19T10:30:46.84Z</time></trkpt><trkpt lat="44.6710173" lon="9.4804484"><ele>1047.0</ele><time>2026-04-19T10:30:48.872Z</time></trkpt><trkpt lat="44.6710614" lon="9.480522"><ele>1047.0</ele><time>2026-04-19T10:30:49.844Z</time></trkpt><trkpt lat="44.6711144" lon="9.4805983"><ele>1047.0</ele><time>2026-04-19T10:30:50.872Z</time></trkpt><trkpt lat="44.6711675" lon="9.4806748"><ele>1047.0</ele><time>2026-04-19T10:30:51.868Z</time></trkpt><trkpt lat="44.6712323" lon="9.4807458"><ele>1047.0</ele><time>2026-04-19T10:30:52.886Z</time></trkpt><trkpt lat="44.6713041" lon="9.4807862"><ele>1047.0</ele><time>2026-04-19T10:30:53.827Z</time></trkpt><trkpt lat="44.6713913" lon="9.4808144"><ele>1047.75</ele><time>2026-04-19T10:30:54.85Z</time></trkpt><trkpt lat="44.6714869" lon="9.4808551"><ele>1048.5</ele><time>2026-04-19T10:30:55.87Z</time></trkpt><trkpt lat="44.6715836" lon="9.4809433"><ele>1049.25</ele><time>2026-04-19T10:30:57.033Z</time></trkpt><trkpt lat="44.6717118" lon="9.4811816"><ele>1050.0</ele><time>2026-04-19T10:30:58.885Z</time></trkpt><trkpt lat="44.6718145" lon="9.4812998"><ele>1055.75</ele><time>2026-04-19T10:30:59.826Z</time></trkpt><trkpt lat="44.6719408" lon="9.4814134"><ele>1061.5</ele><time>2026-04-19T10:31:00.875Z</time></trkpt><trkpt lat="44.6720674" lon="9.4815189"><ele>1067.25</ele><time>2026-04-19T10:31:01.904Z</time></trkpt><trkpt lat="44.6721728" lon="9.4816191"><ele>1073.0</ele><time>2026-04-19T10:31:02.813Z</time></trkpt><trkpt lat="44.6722722" lon="9.4817379"><ele>1073.0</ele><time>2026-04-19T10:31:03.811Z</time></trkpt><trkpt lat="44.6723643" lon="9.4818882"><ele>1073.0</ele><time>2026-04-19T10:31:04.871Z</time></trkpt><trkpt lat="44.672436" lon="9.4820277"><ele>1073.0</ele><time>2026-04-19T10:31:05.841Z</time></trkpt><trkpt lat="44.6725077" lon="9.4821567"><ele>1073.0</ele><time>2026-04-19T10:31:06.831Z</time></trkpt><trkpt lat="44.6726" lon="9.4822707"><ele>1075.25</ele><time>2026-04-19T10:31:07.872Z</time></trkpt><trkpt lat="44.6727074" lon="9.4823472"><ele>1077.5</ele><time>2026-04-19T10:31:08.852Z</time></trkpt><trkpt lat="44.6728388" lon="9.4824227"><ele>1079.75</ele><time>2026-04-19T10:31:09.84Z</time></trkpt><trkpt lat="44.6729867" lon="9.4824917"><ele>1082.0</ele><time>2026-04-19T10:31:10.832Z</time></trkpt><trkpt lat="44.6731318" lon="9.4825371"><ele>1082.0</ele><time>2026-04-19T10:31:11.814Z</time></trkpt><trkpt lat="44.6732536" lon="9.4825753"><ele>1082.0</ele><time>2026-04-19T10:31:12.82Z</time></trkpt><trkpt lat="44.6733385" lon="9.4826305"><ele>1082.0</ele><time>2026-04-19T10:31:13.775Z</time></trkpt><trkpt lat="44.673418" lon="9.4827364"><ele>1082.0</ele><time>2026-04-19T10:31:14.841Z</time></trkpt><trkpt lat="44.6735057" lon="9.4828148"><ele>1082.0</ele><time>2026-04-19T10:31:15.785Z</time></trkpt><trkpt lat="44.6736137" lon="9.4828673"><ele>1086.25</ele><time>2026-04-19T10:31:16.849Z</time></trkpt><trkpt lat="44.6737225" lon="9.4829267"><ele>1090.5</ele><time>2026-04-19T10:31:17.888Z</time></trkpt><trkpt lat="44.6738316" lon="9.4829878"><ele>1094.75</ele><time>2026-04-19T10:31:18.865Z</time></trkpt><trkpt lat="44.6739551" lon="9.4830172"><ele>1099.0</ele><time>2026-04-19T10:31:19.834Z</time></trkpt><trkpt lat="44.6740859" lon="9.4829963"><ele>1099.5</ele><time>2026-04-19T10:31:20.792Z</time></trkpt><trkpt lat="44.6742438" lon="9.4829774"><ele>1100.0</ele><time>2026-04-19T10:31:21.822Z</time></trkpt><trkpt lat="44.6743897" lon="9.482974"><ele>1100.5</ele><time>2026-04-19T10:31:22.805Z</time></trkpt><trkpt lat="44.6745271" lon="9.4829846"><ele>1101.0</ele><time>2026-04-19T10:31:23.826Z</time></trkpt><trkpt lat="44.6746569" lon="9.4829846"><ele>1102.75</ele><time>2026-04-19T10:31:24.848Z</time></trkpt><trkpt lat="44.6747682" lon="9.4829479"><ele>1104.5</ele><time>2026-04-19T10:31:25.796Z</time></trkpt><trkpt lat="44.6748944" lon="9.4828735"><ele>1106.25</ele><time>2026-04-19T10:31:26.928Z</time></trkpt><trkpt lat="44.6749907" lon="9.482821"><ele>1108.0</ele><time>2026-04-19T10:31:27.842Z</time></trkpt><trkpt lat="44.6751026" lon="9.4828034"><ele>1108.0</ele><time>2026-04-19T10:31:28.869Z</time></trkpt><trkpt lat="44.6751927" lon="9.4828235"><ele>1108.0</ele><time>2026-04-19T10:31:29.797Z</time></trkpt><trkpt lat="44.6753082" lon="9.482877"><ele>1108.0</ele><time>2026-04-19T10:31:30.805Z</time></trkpt><trkpt lat="44.6754375" lon="9.4829623"><ele>1108.0</ele><time>2026-04-19T10:31:31.783Z</time></trkpt><trkpt lat="44.6755919" lon="9.4830336"><ele>1110.3333333333333</ele><time>2026-04-19T10:31:32.873Z</time></trkpt><trkpt lat="44.6757467" lon="9.4830779"><ele>1112.6666666666667</ele><time>2026-04-19T10:31:33.841Z</time></trkpt><trkpt lat="44.6759079" lon="9.4831142"><ele>1115.0</ele><time>2026-04-19T10:31:34.834Z</time></trkpt><trkpt lat="44.6760709" lon="9.4831604"><ele>1117.0</ele><time>2026-04-19T10:31:35.831Z</time></trkpt><trkpt lat="44.6762445" lon="9.4832043"><ele>1119.0</ele><time>2026-04-19T10:31:36.835Z</time></trkpt><trkpt lat="44.6764206" lon="9.4832413"><ele>1121.0</ele><time>2026-04-19T10:31:37.877Z</time></trkpt><trkpt lat="44.6765712" lon="9.4832719"><ele>1121.0</ele><time>2026-04-19T10:31:38.793Z</time></trkpt><trkpt lat="44.6767156" lon="9.4832822"><ele>1121.0</ele><time>2026-04-19T10:31:39.83Z</time></trkpt><trkpt lat="44.6768552" lon="9.483293"><ele>1121.0</ele><time>2026-04-19T10:31:40.876Z</time></trkpt><trkpt lat="44.676989" lon="9.4833198"><ele>1121.0</ele><time>2026-04-19T10:31:41.819Z</time></trkpt><trkpt lat="44.6771364" lon="9.4833725"><ele>1124.0</ele><time>2026-04-19T10:31:42.819Z</time></trkpt><trkpt lat="44.6772879" lon="9.4834328"><ele>1127.0</ele><time>2026-04-19T10:31:43.811Z</time></trkpt><trkpt lat="44.677431" lon="9.4834594"><ele>1130.0</ele><time>2026-04-19T10:31:44.798Z</time></trkpt><trkpt lat="44.677601" lon="9.483491"><ele>1130.0</ele><time>2026-04-19T10:31:45.893Z</time></trkpt><trkpt lat="44.6777367" lon="9.4835428"><ele>1130.0</ele><time>2026-04-19T10:31:46.815Z</time></trkpt><trkpt lat="44.677875" lon="9.4836375"><ele>1130.0</ele><time>2026-04-19T10:31:47.866Z</time></trkpt><trkpt lat="44.6779881" lon="9.4837657"><ele>1130.0</ele><time>2026-04-19T10:31:48.854Z</time></trkpt><trkpt lat="44.6780968" lon="9.4839217"><ele>1131.5</ele><time>2026-04-19T10:31:49.814Z</time></trkpt><trkpt lat="44.6781971" lon="9.4840848"><ele>1133.0</ele><time>2026-04-19T10:31:50.834Z</time></trkpt><trkpt lat="44.6782809" lon="9.4842188"><ele>1134.5</ele><time>2026-04-19T10:31:51.835Z</time></trkpt><trkpt lat="44.6783833" lon="9.4843287"><ele>1136.0</ele><time>2026-04-19T10:31:52.907Z</time></trkpt><trkpt lat="44.6784935" lon="9.4843912"><ele>1136.25</ele><time>2026-04-19T10:31:53.809Z</time></trkpt><trkpt lat="44.6786441" lon="9.4844498"><ele>1136.5</ele><time>2026-04-19T10:31:54.876Z</time></trkpt><trkpt lat="44.6787782" lon="9.4844923"><ele>1136.75</ele><time>2026-04-19T10:31:55.821Z</time></trkpt><trkpt lat="44.678909" lon="9.4845622"><ele>1137.0</ele><time>2026-04-19T10:31:56.87Z</time></trkpt><trkpt lat="44.6790125" lon="9.4846621"><ele>1139.6666666666667</ele><time>2026-04-19T10:31:57.794Z</time></trkpt><trkpt lat="44.6791184" lon="9.4848185"><ele>1142.3333333333335</ele><time>2026-04-19T10:31:58.826Z</time></trkpt><trkpt lat="44.6792253" lon="9.4849951"><ele>1145.0</ele><time>2026-04-19T10:31:59.829Z</time></trkpt><trkpt lat="44.6793226" lon="9.4851933"><ele>1145.0</ele><time>2026-04-19T10:32:00.849Z</time></trkpt><trkpt lat="44.6794192" lon="9.4854019"><ele>1145.0</ele><time>2026-04-19T10:32:01.832Z</time></trkpt><trkpt lat="44.6795202" lon="9.4856177"><ele>1145.0</ele><time>2026-04-19T10:32:02.838Z</time></trkpt><trkpt lat="44.6796234" lon="9.4858297"><ele>1149.6666666666667</ele><time>2026-04-19T10:32:03.841Z</time></trkpt><trkpt lat="44.6797098" lon="9.4860129"><ele>1154.3333333333333</ele><time>2026-04-19T10:32:04.82Z</time></trkpt><trkpt lat="44.6797985" lon="9.4862086"><ele>1159.0</ele><time>2026-04-19T10:32:05.87Z</time></trkpt><trkpt lat="44.6798719" lon="9.4863776"><ele>1160.5</ele><time>2026-04-19T10:32:06.854Z</time></trkpt><trkpt lat="44.679945" lon="9.4865331"><ele>1162.0</ele><time>2026-04-19T10:32:07.825Z</time></trkpt><trkpt lat="44.6800343" lon="9.4866943"><ele>1163.5</ele><time>2026-04-19T10:32:08.875Z</time></trkpt><trkpt lat="44.6801352" lon="9.4868538"><ele>1165.0</ele><time>2026-04-19T10:32:09.892Z</time></trkpt><trkpt lat="44.6802375" lon="9.4869967"><ele>1170.0</ele><time>2026-04-19T10:32:10.863Z</time></trkpt><trkpt lat="44.6803405" lon="9.4871476"><ele>1175.0</ele><time>2026-04-19T10:32:11.876Z</time></trkpt><trkpt lat="44.680426" lon="9.4872943"><ele>1180.0</ele><time>2026-04-19T10:32:12.809Z</time></trkpt><trkpt lat="44.6805103" lon="9.4874811"><ele>1185.0</ele><time>2026-04-19T10:32:13.865Z</time></trkpt><trkpt lat="44.6805744" lon="9.4876395"><ele>1185.0</ele><time>2026-04-19T10:32:14.854Z</time></trkpt><trkpt lat="44.68062" lon="9.4878105"><ele>1185.0</ele><time>2026-04-19T10:32:15.901Z</time></trkpt><trkpt lat="44.6806335" lon="9.487977"><ele>1185.0</ele><time>2026-04-19T10:32:16.859Z</time></trkpt><trkpt lat="44.6806065" lon="9.488149"><ele>1185.0</ele><time>2026-04-19T10:32:17.986Z</time></trkpt><trkpt lat="44.6805358" lon="9.488351"><ele>1186.3333333333333</ele><time>2026-04-19T10:32:19.896Z</time></trkpt><trkpt lat="44.6805387" lon="9.4884556"><ele>1187.6666666666667</ele><time>2026-04-19T10:32:20.867Z</time></trkpt><trkpt lat="44.6805758" lon="9.4885577"><ele>1189.0</ele><time>2026-04-19T10:32:21.888Z</time></trkpt><trkpt lat="44.6806368" lon="9.4886316"><ele>1190.3333333333335</ele><time>2026-04-19T10:32:22.854Z</time></trkpt><trkpt lat="44.6807263" lon="9.4886901"><ele>1191.6666666666667</ele><time>2026-04-19T10:32:23.834Z</time></trkpt><trkpt lat="44.6808239" lon="9.4887289"><ele>1193.0</ele><time>2026-04-19T10:32:24.872Z</time></trkpt><trkpt lat="44.6808966" lon="9.4887995"><ele>1193.5</ele><time>2026-04-19T10:32:25.889Z</time></trkpt><trkpt lat="44.6809357" lon="9.4888904"><ele>1194.0</ele><time>2026-04-19T10:32:26.845Z</time></trkpt><trkpt lat="44.6809777" lon="9.4889869"><ele>1194.5</ele><time>2026-04-19T10:32:27.851Z</time></trkpt><trkpt lat="44.6810307" lon="9.4890662"><ele>1195.0</ele><time>2026-04-19T10:32:28.874Z</time></trkpt><trkpt lat="44.6810967" lon="9.4891119"><ele>1195.5</ele><time>2026-04-19T10:32:29.85Z</time></trkpt><trkpt lat="44.6811789" lon="9.4891227"><ele>1196.0</ele><time>2026-04-19T10:32:30.9Z</time></trkpt><trkpt lat="44.6812551" lon="9.4890971"><ele>1194.1666666666667</ele><time>2026-04-19T10:32:31.83Z</time></trkpt><trkpt lat="44.6813276" lon="9.4890508"><ele>1192.3333333333335</ele><time>2026-04-19T10:32:32.828Z</time></trkpt><trkpt lat="44.6814063" lon="9.4890105"><ele>1190.5</ele><time>2026-04-19T10:32:33.818Z</time></trkpt><trkpt lat="44.6814732" lon="9.4890022"><ele>1188.6666666666667</ele><time>2026-04-19T10:32:34.816Z</time></trkpt><trkpt lat="44.6815393" lon="9.4890408"><ele>1186.8333333333333</ele><time>2026-04-19T10:32:35.825Z</time></trkpt><trkpt lat="44.6815985" lon="9.4891132"><ele>1185.0</ele><time>2026-04-19T10:32:36.856Z</time></trkpt><trkpt lat="44.6816427" lon="9.4891931"><ele>1185.0</ele><time>2026-04-19T10:32:37.811Z</time></trkpt><trkpt lat="44.6816849" lon="9.4892798"><ele>1185.0</ele><time>2026-04-19T10:32:38.836Z</time></trkpt><trkpt lat="44.6817434" lon="9.4893594"><ele>1185.0</ele><time>2026-04-19T10:32:39.839Z</time></trkpt><trkpt lat="44.681804" lon="9.4894347"><ele>1185.0</ele><time>2026-04-19T10:32:40.815Z</time></trkpt><trkpt lat="44.6818679" lon="9.4895044"><ele>1185.0</ele><time>2026-04-19T10:32:41.79Z</time></trkpt><trkpt lat="44.6819489" lon="9.4895487"><ele>1185.0</ele><time>2026-04-19T10:32:42.807Z</time></trkpt><trkpt lat="44.6820349" lon="9.4895668"><ele>1184.3333333333333</ele><time>2026-04-19T10:32:43.813Z</time></trkpt><trkpt lat="44.6821214" lon="9.4895832"><ele>1183.6666666666667</ele><time>2026-04-19T10:32:44.819Z</time></trkpt><trkpt lat="44.6821974" lon="9.4896192"><ele>1183.0</ele><time>2026-04-19T10:32:45.823Z</time></trkpt><trkpt lat="44.6822608" lon="9.4896732"><ele>1182.3333333333335</ele><time>2026-04-19T10:32:46.818Z</time></trkpt><trkpt lat="44.6823079" lon="9.4897422"><ele>1181.6666666666667</ele><time>2026-04-19T10:32:47.9Z</time></trkpt><trkpt lat="44.6823792" lon="9.4898674"><ele>1181.0</ele><time>2026-04-19T10:32:49.918Z</time></trkpt><trkpt lat="44.6824579" lon="9.4899444"><ele>1178.3333333333335</ele><time>2026-04-19T10:32:51.857Z</time></trkpt><trkpt lat="44.6825208" lon="9.4899668"><ele>1175.6666666666667</ele><time>2026-04-19T10:32:52.815Z</time></trkpt><trkpt lat="44.6826494" lon="9.4899793"><ele>1173.0</ele><time>2026-04-19T10:32:54.797Z</time></trkpt><trkpt lat="44.6827207" lon="9.4899996"><ele>1170.3333333333333</ele><time>2026-04-19T10:32:55.808Z</time></trkpt><trkpt lat="44.6827903" lon="9.4900434"><ele>1167.6666666666665</ele><time>2026-04-19T10:32:56.955Z</time></trkpt><trkpt lat="44.6828572" lon="9.4901444"><ele>1165.0</ele><time>2026-04-19T10:32:58.803Z</time></trkpt><trkpt lat="44.6828952" lon="9.4902931"><ele>1161.6</ele><time>2026-04-19T10:33:00.81Z</time></trkpt><trkpt lat="44.6829317" lon="9.4904493"><ele>1158.2</ele><time>2026-04-19T10:33:02.814Z</time></trkpt><trkpt lat="44.6829953" lon="9.4905983"><ele>1154.8</ele><time>2026-04-19T10:33:04.871Z</time></trkpt><trkpt lat="44.6830514" lon="9.4906929"><ele>1151.4</ele><time>2026-04-19T10:33:06.79Z</time></trkpt><trkpt lat="44.6831039" lon="9.4907464"><ele>1148.0</ele><time>2026-04-19T10:33:08.807Z</time></trkpt><trkpt lat="44.6831717" lon="9.4907993"><ele>1148.0</ele><time>2026-04-19T10:33:44.842Z</time></trkpt><trkpt lat="44.6832427" lon="9.4908672"><ele>1148.0</ele><time>2026-04-19T10:33:46.863Z</time></trkpt><trkpt lat="44.6833866" lon="9.4909861"><ele>1148.0</ele><time>2026-04-19T10:33:49.852Z</time></trkpt><trkpt lat="44.6834482" lon="9.4910115"><ele>1148.0</ele><time>2026-04-19T10:33:50.865Z</time></trkpt><trkpt lat="44.6835121" lon="9.4910099"><ele>1148.0</ele><time>2026-04-19T10:33:51.821Z</time></trkpt><trkpt lat="44.683581" lon="9.4910012"><ele>1147.0</ele><time>2026-04-19T10:33:52.792Z</time></trkpt><trkpt lat="44.6836617" lon="9.4910016"><ele>1146.0</ele><time>2026-04-19T10:33:53.794Z</time></trkpt><trkpt lat="44.6837438" lon="9.4910281"><ele>1145.0</ele><time>2026-04-19T10:33:54.788Z</time></trkpt><trkpt lat="44.6838127" lon="9.4911119"><ele>1144.0</ele><time>2026-04-19T10:33:55.803Z</time></trkpt><trkpt lat="44.6838636" lon="9.491215"><ele>1143.0</ele><time>2026-04-19T10:33:56.827Z</time></trkpt><trkpt lat="44.6839085" lon="9.4913374"><ele>1142.0</ele><time>2026-04-19T10:33:57.933Z</time></trkpt><trkpt lat="44.6839657" lon="9.4914354"><ele>1142.0</ele><time>2026-04-19T10:33:58.872Z</time></trkpt><trkpt lat="44.6840203" lon="9.4915369"><ele>1142.0</ele><time>2026-04-19T10:33:59.861Z</time></trkpt><trkpt lat="44.6840665" lon="9.4916385"><ele>1142.0</ele><time>2026-04-19T10:34:00.805Z</time></trkpt><trkpt lat="44.6841296" lon="9.4917364"><ele>1142.0</ele><time>2026-04-19T10:34:01.821Z</time></trkpt><trkpt lat="44.6842015" lon="9.4918349"><ele>1142.0</ele><time>2026-04-19T10:34:02.854Z</time></trkpt><trkpt lat="44.6842794" lon="9.4919338"><ele>1142.0</ele><time>2026-04-19T10:34:03.852Z</time></trkpt><trkpt lat="44.6843602" lon="9.4920515"><ele>1142.0</ele><time>2026-04-19T10:34:04.881Z</time></trkpt><trkpt lat="44.6844179" lon="9.4921594"><ele>1142.0</ele><time>2026-04-19T10:34:05.797Z</time></trkpt><trkpt lat="44.684482" lon="9.4922747"><ele>1142.0</ele><time>2026-04-19T10:34:06.843Z</time></trkpt><trkpt lat="44.6845275" lon="9.4923606"><ele>1142.0</ele><time>2026-04-19T10:34:07.797Z</time></trkpt><trkpt lat="44.68456" lon="9.4924379"><ele>1139.3333333333335</ele><time>2026-04-19T10:34:08.789Z</time></trkpt><trkpt lat="44.6845665" lon="9.4925478"><ele>1136.6666666666667</ele><time>2026-04-19T10:34:09.874Z</time></trkpt><trkpt lat="44.6845533" lon="9.4926383"><ele>1134.0</ele><time>2026-04-19T10:34:10.806Z</time></trkpt><trkpt lat="44.6845321" lon="9.4927438"><ele>1131.3333333333333</ele><time>2026-04-19T10:34:11.838Z</time></trkpt><trkpt lat="44.6845336" lon="9.4928533"><ele>1128.6666666666665</ele><time>2026-04-19T10:34:12.823Z</time></trkpt><trkpt lat="44.6845654" lon="9.492967"><ele>1126.0</ele><time>2026-04-19T10:34:13.822Z</time></trkpt><trkpt lat="44.6846016" lon="9.4930835"><ele>1126.0</ele><time>2026-04-19T10:34:14.876Z</time></trkpt><trkpt lat="44.6846405" lon="9.4931561"><ele>1126.0</ele><time>2026-04-19T10:34:15.805Z</time></trkpt><trkpt lat="44.6846996" lon="9.4932042"><ele>1126.0</ele><time>2026-04-19T10:34:16.817Z</time></trkpt><trkpt lat="44.6848217" lon="9.4931716"><ele>1126.0</ele><time>2026-04-19T10:34:18.844Z</time></trkpt><trkpt lat="44.6848732" lon="9.4931069"><ele>1126.0</ele><time>2026-04-19T10:34:19.831Z</time></trkpt><trkpt lat="44.6849261" lon="9.4930119"><ele>1126.0</ele><time>2026-04-19T10:34:20.841Z</time></trkpt><trkpt lat="44.6849784" lon="9.4928884"><ele>1126.0</ele><time>2026-04-19T10:34:21.868Z</time></trkpt><trkpt lat="44.6850242" lon="9.4927634"><ele>1126.0</ele><time>2026-04-19T10:34:22.813Z</time></trkpt><trkpt lat="44.6850733" lon="9.4926341"><ele>1126.0</ele><time>2026-04-19T10:34:23.895Z</time></trkpt><trkpt lat="44.6851391" lon="9.4925094"><ele>1126.0</ele><time>2026-04-19T10:34:25.834Z</time></trkpt><trkpt lat="44.6852133" lon="9.492487"><ele>1126.0</ele><time>2026-04-19T10:34:26.87Z</time></trkpt><trkpt lat="44.6853028" lon="9.4925127"><ele>1121.5</ele><time>2026-04-19T10:34:27.807Z</time></trkpt><trkpt lat="44.6854052" lon="9.4925559"><ele>1117.0</ele><time>2026-04-19T10:34:28.834Z</time></trkpt><trkpt lat="44.6855175" lon="9.4925841"><ele>1112.5</ele><time>2026-04-19T10:34:29.806Z</time></trkpt><trkpt lat="44.685669" lon="9.4926032"><ele>1108.0</ele><time>2026-04-19T10:34:30.995Z</time></trkpt><trkpt lat="44.6859275" lon="9.4925972"><ele>1108.0</ele><time>2026-04-19T10:34:32.881Z</time></trkpt><trkpt lat="44.6860493" lon="9.4925966"><ele>1108.0</ele><time>2026-04-19T10:34:33.834Z</time></trkpt><trkpt lat="44.6861719" lon="9.4925913"><ele>1108.0</ele><time>2026-04-19T10:34:34.857Z</time></trkpt><trkpt lat="44.6863043" lon="9.4925777"><ele>1108.0</ele><time>2026-04-19T10:34:35.939Z</time></trkpt><trkpt lat="44.686429" lon="9.4925572"><ele>1107.0</ele><time>2026-04-19T10:34:36.939Z</time></trkpt><trkpt lat="44.6865319" lon="9.4925425"><ele>1106.0</ele><time>2026-04-19T10:34:37.848Z</time></trkpt><trkpt lat="44.6866497" lon="9.4925276"><ele>1105.0</ele><time>2026-04-19T10:34:38.927Z</time></trkpt><trkpt lat="44.6867638" lon="9.4925367"><ele>1104.0</ele><time>2026-04-19T10:34:39.879Z</time></trkpt><trkpt lat="44.6868892" lon="9.4925571"><ele>1104.5</ele><time>2026-04-19T10:34:40.874Z</time></trkpt><trkpt lat="44.6870149" lon="9.4925746"><ele>1105.0</ele><time>2026-04-19T10:34:41.85Z</time></trkpt><trkpt lat="44.6871476" lon="9.4925904"><ele>1105.5</ele><time>2026-04-19T10:34:42.882Z</time></trkpt><trkpt lat="44.6872649" lon="9.4926263"><ele>1106.0</ele><time>2026-04-19T10:34:43.841Z</time></trkpt><trkpt lat="44.6873797" lon="9.4926887"><ele>1106.0</ele><time>2026-04-19T10:34:44.84Z</time></trkpt><trkpt lat="44.6875006" lon="9.4927336"><ele>1106.0</ele><time>2026-04-19T10:34:45.877Z</time></trkpt><trkpt lat="44.6876291" lon="9.4927505"><ele>1106.0</ele><time>2026-04-19T10:34:46.878Z</time></trkpt><trkpt lat="44.6877661" lon="9.4927619"><ele>1106.0</ele><time>2026-04-19T10:34:47.95Z</time></trkpt><trkpt lat="44.6878889" lon="9.4927427"><ele>1104.5</ele><time>2026-04-19T10:34:49.005Z</time></trkpt><trkpt lat="44.6880957" lon="9.492626"><ele>1103.0</ele><time>2026-04-19T10:34:50.857Z</time></trkpt><trkpt lat="44.6881962" lon="9.4925615"><ele>1101.5</ele><time>2026-04-19T10:34:51.821Z</time></trkpt><trkpt lat="44.688284" lon="9.492512"><ele>1100.0</ele><time>2026-04-19T10:34:52.835Z</time></trkpt><trkpt lat="44.6883559" lon="9.4924857"><ele>1100.0</ele><time>2026-04-19T10:34:53.834Z</time></trkpt><trkpt lat="44.6884345" lon="9.4924976"><ele>1100.0</ele><time>2026-04-19T10:34:54.881Z</time></trkpt><trkpt lat="44.6885043" lon="9.4925607"><ele>1100.0</ele><time>2026-04-19T10:34:55.835Z</time></trkpt><trkpt lat="44.6885803" lon="9.4926473"><ele>1100.0</ele><time>2026-04-19T10:34:56.828Z</time></trkpt><trkpt lat="44.6886733" lon="9.4927289"><ele>1100.0</ele><time>2026-04-19T10:34:57.865Z</time></trkpt><trkpt lat="44.6887701" lon="9.4927645"><ele>1099.2</ele><time>2026-04-19T10:34:58.869Z</time></trkpt><trkpt lat="44.6888746" lon="9.4927667"><ele>1098.4</ele><time>2026-04-19T10:34:59.857Z</time></trkpt><trkpt lat="44.6889764" lon="9.4927508"><ele>1097.6</ele><time>2026-04-19T10:35:00.885Z</time></trkpt><trkpt lat="44.6890589" lon="9.4927748"><ele>1096.8</ele><time>2026-04-19T10:35:01.855Z</time></trkpt><trkpt lat="44.6891206" lon="9.492845"><ele>1096.0</ele><time>2026-04-19T10:35:02.893Z</time></trkpt><trkpt lat="44.689162" lon="9.4929534"><ele>1093.8</ele><time>2026-04-19T10:35:03.836Z</time></trkpt><trkpt lat="44.6892208" lon="9.4930782"><ele>1091.6</ele><time>2026-04-19T10:35:04.822Z</time></trkpt><trkpt lat="44.6892901" lon="9.4931713"><ele>1089.4</ele><time>2026-04-19T10:35:05.85Z</time></trkpt><trkpt lat="44.6893647" lon="9.4932225"><ele>1087.2</ele><time>2026-04-19T10:35:06.863Z</time></trkpt><trkpt lat="44.6894636" lon="9.493248"><ele>1085.0</ele><time>2026-04-19T10:35:07.924Z</time></trkpt><trkpt lat="44.6896504" lon="9.4933232"><ele>1084.8</ele><time>2026-04-19T10:35:09.873Z</time></trkpt><trkpt lat="44.689716" lon="9.4934145"><ele>1084.6</ele><time>2026-04-19T10:35:10.854Z</time></trkpt><trkpt lat="44.6897638" lon="9.4935261"><ele>1084.4</ele><time>2026-04-19T10:35:11.864Z</time></trkpt><trkpt lat="44.6898165" lon="9.4936088"><ele>1084.2</ele><time>2026-04-19T10:35:12.894Z</time></trkpt><trkpt lat="44.6899196" lon="9.4936249"><ele>1084.0</ele><time>2026-04-19T10:35:14.893Z</time></trkpt><trkpt lat="44.6900619" lon="9.4935879"><ele>1084.0</ele><time>2026-04-19T10:35:16.855Z</time></trkpt><trkpt lat="44.6901571" lon="9.4935658"><ele>1084.0</ele><time>2026-04-19T10:35:17.831Z</time></trkpt><trkpt lat="44.6902575" lon="9.4935374"><ele>1084.0</ele><time>2026-04-19T10:35:18.93Z</time></trkpt><trkpt lat="44.6903258" lon="9.493515"><ele>1084.0</ele><time>2026-04-19T10:35:19.822Z</time></trkpt><trkpt lat="44.6904002" lon="9.4934877"><ele>1084.0</ele><time>2026-04-19T10:35:20.866Z</time></trkpt><trkpt lat="44.6904626" lon="9.4934604"><ele>1084.0</ele><time>2026-04-19T10:35:21.849Z</time></trkpt><trkpt lat="44.6905247" lon="9.4934367"><ele>1082.8333333333333</ele><time>2026-04-19T10:35:22.853Z</time></trkpt><trkpt lat="44.6906183" lon="9.4933949"><ele>1081.6666666666665</ele><time>2026-04-19T10:35:24.852Z</time></trkpt><trkpt lat="44.6906882" lon="9.493354"><ele>1080.5</ele><time>2026-04-19T10:35:27.877Z</time></trkpt><trkpt lat="44.6907492" lon="9.4932985"><ele>1079.3333333333333</ele><time>2026-04-19T10:36:10.855Z</time></trkpt><trkpt lat="44.6908447" lon="9.4932383"><ele>1078.1666666666667</ele><time>2026-04-19T10:36:16.922Z</time></trkpt><trkpt lat="44.6909043" lon="9.4932084"><ele>1077.0</ele><time>2026-04-19T10:36:17.909Z</time></trkpt><trkpt lat="44.6909819" lon="9.4931859"><ele>1077.4</ele><time>2026-04-19T10:36:19.031Z</time></trkpt><trkpt lat="44.6911105" lon="9.4932113"><ele>1077.8000000000002</ele><time>2026-04-19T10:36:20.85Z</time></trkpt><trkpt lat="44.6911715" lon="9.4932784"><ele>1078.2</ele><time>2026-04-19T10:36:21.88Z</time></trkpt><trkpt lat="44.6912318" lon="9.4933592"><ele>1078.6000000000001</ele><time>2026-04-19T10:36:22.845Z</time></trkpt><trkpt lat="44.6913068" lon="9.4934789"><ele>1079.0</ele><time>2026-04-19T10:36:24.082Z</time></trkpt><trkpt lat="44.6914151" lon="9.4936447"><ele>1079.0</ele><time>2026-04-19T10:36:25.876Z</time></trkpt><trkpt lat="44.6914719" lon="9.4937228"><ele>1079.0</ele><time>2026-04-19T10:36:26.974Z</time></trkpt><trkpt lat="44.6915255" lon="9.4937807"><ele>1079.0</ele><time>2026-04-19T10:36:27.988Z</time></trkpt><trkpt lat="44.6915824" lon="9.4938247"><ele>1079.0</ele><time>2026-04-19T10:36:28.915Z</time></trkpt><trkpt lat="44.6916452" lon="9.4938645"><ele>1079.0</ele><time>2026-04-19T10:36:29.908Z</time></trkpt><trkpt lat="44.6917164" lon="9.4938845"><ele>1079.0</ele><time>2026-04-19T10:36:30.92Z</time></trkpt><trkpt lat="44.6917842" lon="9.4938862"><ele>1079.0</ele><time>2026-04-19T10:36:31.905Z</time></trkpt><trkpt lat="44.6918722" lon="9.4938686"><ele>1076.6000000000001</ele><time>2026-04-19T10:36:32.941Z</time></trkpt><trkpt lat="44.6919658" lon="9.493853"><ele>1074.2</ele><time>2026-04-19T10:36:33.916Z</time></trkpt><trkpt lat="44.692077" lon="9.4938471"><ele>1071.8000000000002</ele><time>2026-04-19T10:36:34.977Z</time></trkpt><trkpt lat="44.6921723" lon="9.4938539"><ele>1069.4</ele><time>2026-04-19T10:36:35.907Z</time></trkpt><trkpt lat="44.6922712" lon="9.4938667"><ele>1067.0</ele><time>2026-04-19T10:36:36.927Z</time></trkpt><trkpt lat="44.6923563" lon="9.4938583"><ele>1067.0</ele><time>2026-04-19T10:36:37.858Z</time></trkpt><trkpt lat="44.6924494" lon="9.4938364"><ele>1067.0</ele><time>2026-04-19T10:36:38.891Z</time></trkpt><trkpt lat="44.6925244" lon="9.4938175"><ele>1067.0</ele><time>2026-04-19T10:36:39.826Z</time></trkpt><trkpt lat="44.692601" lon="9.4938156"><ele>1067.0</ele><time>2026-04-19T10:36:40.873Z</time></trkpt><trkpt lat="44.6927066" lon="9.4938807"><ele>1067.0</ele><time>2026-04-19T10:36:42.853Z</time></trkpt><trkpt lat="44.6927464" lon="9.4940083"><ele>1067.0</ele><time>2026-04-19T10:36:44.899Z</time></trkpt><trkpt lat="44.6926984" lon="9.4941301"><ele>1067.0</ele><time>2026-04-19T10:36:46.851Z</time></trkpt><trkpt lat="44.6926395" lon="9.494264"><ele>1067.0</ele><time>2026-04-19T10:36:48.899Z</time></trkpt><trkpt lat="44.6926377" lon="9.4943758"><ele>1067.0</ele><time>2026-04-19T10:36:49.92Z</time></trkpt><trkpt lat="44.6926534" lon="9.4944915"><ele>1067.0</ele><time>2026-04-19T10:36:50.898Z</time></trkpt><trkpt lat="44.6926737" lon="9.4946212"><ele>1066.5</ele><time>2026-04-19T10:36:51.948Z</time></trkpt><trkpt lat="44.6926997" lon="9.4947716"><ele>1066.0</ele><time>2026-04-19T10:36:52.973Z</time></trkpt><trkpt lat="44.6927766" lon="9.4950516"><ele>1065.5</ele><time>2026-04-19T10:36:54.944Z</time></trkpt><trkpt lat="44.692829" lon="9.4952087"><ele>1065.0</ele><time>2026-04-19T10:36:55.99Z</time></trkpt><trkpt lat="44.6928798" lon="9.4953556"><ele>1066.6</ele><time>2026-04-19T10:36:57.002Z</time></trkpt><trkpt lat="44.6929228" lon="9.4954885"><ele>1068.2</ele><time>2026-04-19T10:36:57.963Z</time></trkpt><trkpt lat="44.6929376" lon="9.4956187"><ele>1069.8</ele><time>2026-04-19T10:36:58.904Z</time></trkpt><trkpt lat="44.6929147" lon="9.4957471"><ele>1071.4</ele><time>2026-04-19T10:36:59.88Z</time></trkpt><trkpt lat="44.6928723" lon="9.4958553"><ele>1073.0</ele><time>2026-04-19T10:37:00.877Z</time></trkpt><trkpt lat="44.6928079" lon="9.4959826"><ele>1070.4</ele><time>2026-04-19T10:37:01.849Z</time></trkpt><trkpt lat="44.6927343" lon="9.4961083"><ele>1067.8</ele><time>2026-04-19T10:37:02.877Z</time></trkpt><trkpt lat="44.69268" lon="9.4962257"><ele>1065.2</ele><time>2026-04-19T10:37:03.862Z</time></trkpt><trkpt lat="44.6926498" lon="9.4963597"><ele>1062.6</ele><time>2026-04-19T10:37:04.88Z</time></trkpt><trkpt lat="44.6926525" lon="9.4964992"><ele>1060.0</ele><time>2026-04-19T10:37:05.962Z</time></trkpt><trkpt lat="44.692648" lon="9.4966304"><ele>1059.6</ele><time>2026-04-19T10:37:06.888Z</time></trkpt><trkpt lat="44.692638" lon="9.4967755"><ele>1059.2</ele><time>2026-04-19T10:37:07.871Z</time></trkpt><trkpt lat="44.6926227" lon="9.4969202"><ele>1058.8</ele><time>2026-04-19T10:37:08.846Z</time></trkpt><trkpt lat="44.6926116" lon="9.4970862"><ele>1058.4</ele><time>2026-04-19T10:37:09.927Z</time></trkpt><trkpt lat="44.69262" lon="9.4972117"><ele>1058.0</ele><time>2026-04-19T10:37:10.896Z</time></trkpt><trkpt lat="44.6926436" lon="9.4973615"><ele>1057.25</ele><time>2026-04-19T10:37:11.945Z</time></trkpt><trkpt lat="44.6926776" lon="9.4975235"><ele>1056.5</ele><time>2026-04-19T10:37:13.027Z</time></trkpt><trkpt lat="44.6926969" lon="9.4976584"><ele>1055.75</ele><time>2026-04-19T10:37:13.993Z</time></trkpt><trkpt lat="44.6927623" lon="9.4978646"><ele>1055.0</ele><time>2026-04-19T10:37:15.868Z</time></trkpt><trkpt lat="44.6928247" lon="9.4979487"><ele>1055.0</ele><time>2026-04-19T10:37:16.976Z</time></trkpt><trkpt lat="44.6928885" lon="9.4979833"><ele>1055.0</ele><time>2026-04-19T10:37:17.908Z</time></trkpt><trkpt lat="44.6929808" lon="9.4980218"><ele>1055.0</ele><time>2026-04-19T10:37:18.892Z</time></trkpt><trkpt lat="44.6930855" lon="9.4980832"><ele>1055.0</ele><time>2026-04-19T10:37:19.927Z</time></trkpt><trkpt lat="44.6931876" lon="9.498204"><ele>1055.0</ele><time>2026-04-19T10:37:20.947Z</time></trkpt><trkpt lat="44.6932794" lon="9.4983429"><ele>1055.0</ele><time>2026-04-19T10:37:21.9Z</time></trkpt><trkpt lat="44.6933905" lon="9.4984583"><ele>1055.0</ele><time>2026-04-19T10:37:22.902Z</time></trkpt><trkpt lat="44.6935001" lon="9.4985586"><ele>1055.0</ele><time>2026-04-19T10:37:23.88Z</time></trkpt><trkpt lat="44.6936232" lon="9.4986702"><ele>1055.0</ele><time>2026-04-19T10:37:24.89Z</time></trkpt><trkpt lat="44.6937496" lon="9.4987835"><ele>1054.0</ele><time>2026-04-19T10:37:25.898Z</time></trkpt><trkpt lat="44.6938938" lon="9.4989084"><ele>1053.0</ele><time>2026-04-19T10:37:26.978Z</time></trkpt><trkpt lat="44.6940069" lon="9.4990065"><ele>1052.0</ele><time>2026-04-19T10:37:27.981Z</time></trkpt><trkpt lat="44.6941196" lon="9.4990954"><ele>1051.0</ele><time>2026-04-19T10:37:28.986Z</time></trkpt><trkpt lat="44.6942347" lon="9.4991579"><ele>1051.0</ele><time>2026-04-19T10:37:29.977Z</time></trkpt><trkpt lat="44.6943632" lon="9.4992041"><ele>1051.0</ele><time>2026-04-19T10:37:30.977Z</time></trkpt><trkpt lat="44.6944969" lon="9.4992344"><ele>1051.0</ele><time>2026-04-19T10:37:31.946Z</time></trkpt><trkpt lat="44.6946366" lon="9.4992629"><ele>1051.0</ele><time>2026-04-19T10:37:32.946Z</time></trkpt><trkpt lat="44.6947832" lon="9.4992978"><ele>1050.75</ele><time>2026-04-19T10:37:34.034Z</time></trkpt><trkpt lat="44.6949176" lon="9.4993279"><ele>1050.5</ele><time>2026-04-19T10:37:35.028Z</time></trkpt><trkpt lat="44.6950342" lon="9.4993322"><ele>1050.25</ele><time>2026-04-19T10:37:35.971Z</time></trkpt><trkpt lat="44.6951398" lon="9.499311"><ele>1050.0</ele><time>2026-04-19T10:37:36.949Z</time></trkpt><trkpt lat="44.6952393" lon="9.4992778"><ele>1049.0</ele><time>2026-04-19T10:37:37.952Z</time></trkpt><trkpt lat="44.6953424" lon="9.4992574"><ele>1048.0</ele><time>2026-04-19T10:37:39.023Z</time></trkpt><trkpt lat="44.6954256" lon="9.4992655"><ele>1047.0</ele><time>2026-04-19T10:37:39.975Z</time></trkpt><trkpt lat="44.6955193" lon="9.49929"><ele>1046.0</ele><time>2026-04-19T10:37:40.981Z</time></trkpt><trkpt lat="44.6956395" lon="9.4993312"><ele>1045.0</ele><time>2026-04-19T10:37:42.024Z</time></trkpt><trkpt lat="44.6957706" lon="9.4993737"><ele>1045.0</ele><time>2026-04-19T10:37:43.021Z</time></trkpt><trkpt lat="44.6958856" lon="9.4994103"><ele>1045.0</ele><time>2026-04-19T10:37:43.996Z</time></trkpt><trkpt lat="44.6959991" lon="9.499447"><ele>1045.0</ele><time>2026-04-19T10:37:44.994Z</time></trkpt><trkpt lat="44.6961102" lon="9.4994777"><ele>1045.0</ele><time>2026-04-19T10:37:46.006Z</time></trkpt><trkpt lat="44.6962292" lon="9.499509"><ele>1043.4</ele><time>2026-04-19T10:37:47.147Z</time></trkpt><trkpt lat="44.6963178" lon="9.4995283"><ele>1041.8</ele><time>2026-04-19T10:37:48.057Z</time></trkpt><trkpt lat="44.6964143" lon="9.4995503"><ele>1040.2</ele><time>2026-04-19T10:37:49.012Z</time></trkpt><trkpt lat="44.6965155" lon="9.4995823"><ele>1038.6</ele><time>2026-04-19T10:37:49.996Z</time></trkpt><trkpt lat="44.6966113" lon="9.499636"><ele>1037.0</ele><time>2026-04-19T10:37:50.98Z</time></trkpt><trkpt lat="44.6967007" lon="9.4997183"><ele>1037.0</ele><time>2026-04-19T10:37:51.946Z</time></trkpt><trkpt lat="44.6967883" lon="9.4998343"><ele>1037.0</ele><time>2026-04-19T10:37:52.995Z</time></trkpt><trkpt lat="44.6968502" lon="9.4999711"><ele>1037.0</ele><time>2026-04-19T10:37:53.959Z</time></trkpt><trkpt lat="44.6969092" lon="9.5001294"><ele>1037.0</ele><time>2026-04-19T10:37:55.002Z</time></trkpt><trkpt lat="44.6969706" lon="9.5002814"><ele>1033.0</ele><time>2026-04-19T10:37:55.977Z</time></trkpt><trkpt lat="44.6970502" lon="9.500451"><ele>1029.0</ele><time>2026-04-19T10:37:56.987Z</time></trkpt><trkpt lat="44.6971352" lon="9.5006372"><ele>1025.0</ele><time>2026-04-19T10:37:58.044Z</time></trkpt><trkpt lat="44.6971991" lon="9.5008077"><ele>1021.0</ele><time>2026-04-19T10:37:59.017Z</time></trkpt><trkpt lat="44.6972519" lon="9.5009788"><ele>1021.0</ele><time>2026-04-19T10:37:59.986Z</time></trkpt><trkpt lat="44.697292" lon="9.5011526"><ele>1020.9999999999999</ele><time>2026-04-19T10:38:00.975Z</time></trkpt><trkpt lat="44.697331" lon="9.5013454"><ele>1020.9999999999999</ele><time>2026-04-19T10:38:02.116Z</time></trkpt><trkpt lat="44.6973458" lon="9.5014604"><ele>1021.0</ele><time>2026-04-19T10:38:03.038Z</time></trkpt><trkpt lat="44.6973351" lon="9.5015662"><ele>1021.0</ele><time>2026-04-19T10:38:04.013Z</time></trkpt><trkpt lat="44.6973019" lon="9.5016647"><ele>1020.1999999999999</ele><time>2026-04-19T10:38:04.983Z</time></trkpt><trkpt lat="44.6972444" lon="9.5017423"><ele>1019.3999999999999</ele><time>2026-04-19T10:38:05.972Z</time></trkpt><trkpt lat="44.6971602" lon="9.5017904"><ele>1018.6</ele><time>2026-04-19T10:38:07.01Z</time></trkpt><trkpt lat="44.697066" lon="9.5017928"><ele>1017.8</ele><time>2026-04-19T10:38:08.017Z</time></trkpt><trkpt lat="44.6969677" lon="9.5017549"><ele>1017.0</ele><time>2026-04-19T10:38:08.95Z</time></trkpt><trkpt lat="44.6968402" lon="9.5016907"><ele>1016.25</ele><time>2026-04-19T10:38:10.013Z</time></trkpt><trkpt lat="44.6967032" lon="9.5016175"><ele>1015.5</ele><time>2026-04-19T10:38:11.127Z</time></trkpt><trkpt lat="44.6965207" lon="9.5015262"><ele>1014.75</ele><time>2026-04-19T10:38:12.983Z</time></trkpt><trkpt lat="44.6964379" lon="9.5015225"><ele>1014.0</ele><time>2026-04-19T10:38:13.999Z</time></trkpt><trkpt lat="44.6963695" lon="9.5015602"><ele>1014.0</ele><time>2026-04-19T10:38:14.984Z</time></trkpt><trkpt lat="44.696318" lon="9.5016314"><ele>1014.0</ele><time>2026-04-19T10:38:15.999Z</time></trkpt><trkpt lat="44.6962838" lon="9.5017259"><ele>1014.0</ele><time>2026-04-19T10:38:16.989Z</time></trkpt><trkpt lat="44.6962731" lon="9.5018463"><ele>1014.0</ele><time>2026-04-19T10:38:18.003Z</time></trkpt><trkpt lat="44.6963066" lon="9.501961"><ele>1014.0</ele><time>2026-04-19T10:38:18.984Z</time></trkpt><trkpt lat="44.6963727" lon="9.5020732"><ele>1014.0</ele><time>2026-04-19T10:38:19.988Z</time></trkpt><trkpt lat="44.6964547" lon="9.5021919"><ele>1011.75</ele><time>2026-04-19T10:38:20.981Z</time></trkpt><trkpt lat="44.696551" lon="9.5023484"><ele>1009.5</ele><time>2026-04-19T10:38:22.067Z</time></trkpt><trkpt lat="44.6966398" lon="9.5024964"><ele>1007.25</ele><time>2026-04-19T10:38:23.008Z</time></trkpt><trkpt lat="44.6967327" lon="9.5026465"><ele>1005.0</ele><time>2026-04-19T10:38:23.977Z</time></trkpt><trkpt lat="44.6968342" lon="9.5027894"><ele>1002.3333333333333</ele><time>2026-04-19T10:38:24.983Z</time></trkpt><trkpt lat="44.6969462" lon="9.502925"><ele>999.6666666666666</ele><time>2026-04-19T10:38:25.995Z</time></trkpt><trkpt lat="44.6970616" lon="9.5030506"><ele>997.0</ele><time>2026-04-19T10:38:27.033Z</time></trkpt><trkpt lat="44.697263" lon="9.5032283"><ele>997.0</ele><time>2026-04-19T10:38:28.866Z</time></trkpt><trkpt lat="44.6973856" lon="9.503303"><ele>997.0</ele><time>2026-04-19T10:38:29.901Z</time></trkpt><trkpt lat="44.697497" lon="9.5033648"><ele>997.0</ele><time>2026-04-19T10:38:30.87Z</time></trkpt><trkpt lat="44.6976119" lon="9.5034148"><ele>997.0</ele><time>2026-04-19T10:38:31.879Z</time></trkpt><trkpt lat="44.6977344" lon="9.5034544"><ele>994.5</ele><time>2026-04-19T10:38:32.887Z</time></trkpt><trkpt lat="44.6978663" lon="9.5034716"><ele>992.0</ele><time>2026-04-19T10:38:33.913Z</time></trkpt><trkpt lat="44.6980014" lon="9.5034775"><ele>989.5</ele><time>2026-04-19T10:38:34.914Z</time></trkpt><trkpt lat="44.6981275" lon="9.5034678"><ele>987.0</ele><time>2026-04-19T10:38:35.857Z</time></trkpt><trkpt lat="44.6982594" lon="9.5034361"><ele>987.0</ele><time>2026-04-19T10:38:36.927Z</time></trkpt><trkpt lat="44.6983801" lon="9.5033807"><ele>987.0</ele><time>2026-04-19T10:38:37.903Z</time></trkpt><trkpt lat="44.6985142" lon="9.503297"><ele>987.0</ele><time>2026-04-19T10:38:38.98Z</time></trkpt><trkpt lat="44.6986296" lon="9.5032096"><ele>987.0</ele><time>2026-04-19T10:38:39.915Z</time></trkpt><trkpt lat="44.6987386" lon="9.5031026"><ele>986.0</ele><time>2026-04-19T10:38:40.896Z</time></trkpt><trkpt lat="44.6988491" lon="9.5029846"><ele>985.0</ele><time>2026-04-19T10:38:41.972Z</time></trkpt><trkpt lat="44.6989463" lon="9.5029035"><ele>984.0</ele><time>2026-04-19T10:38:42.886Z</time></trkpt><trkpt lat="44.6990889" lon="9.502829"><ele>983.0</ele><time>2026-04-19T10:38:44.143Z</time></trkpt><trkpt lat="44.6993089" lon="9.5027967"><ele>979.75</ele><time>2026-04-19T10:38:45.882Z</time></trkpt><trkpt lat="44.6994418" lon="9.5027881"><ele>976.5</ele><time>2026-04-19T10:38:46.932Z</time></trkpt><trkpt lat="44.6995525" lon="9.5027792"><ele>973.25</ele><time>2026-04-19T10:38:47.881Z</time></trkpt><trkpt lat="44.6996707" lon="9.5027539"><ele>970.0</ele><time>2026-04-19T10:38:48.904Z</time></trkpt><trkpt lat="44.6997669" lon="9.5027039"><ele>970.0</ele><time>2026-04-19T10:38:49.871Z</time></trkpt><trkpt lat="44.6998496" lon="9.5026085"><ele>970.0</ele><time>2026-04-19T10:38:50.878Z</time></trkpt><trkpt lat="44.6999223" lon="9.5024687"><ele>970.0</ele><time>2026-04-19T10:38:51.91Z</time></trkpt><trkpt lat="44.699958" lon="9.5023312"><ele>970.0</ele><time>2026-04-19T10:38:52.851Z</time></trkpt><trkpt lat="44.7000137" lon="9.5021965"><ele>970.0</ele><time>2026-04-19T10:38:53.89Z</time></trkpt><trkpt lat="44.7000822" lon="9.5021093"><ele>970.0</ele><time>2026-04-19T10:38:54.925Z</time></trkpt><trkpt lat="44.7001556" lon="9.502076"><ele>970.0</ele><time>2026-04-19T10:38:55.884Z</time></trkpt><trkpt lat="44.7002296" lon="9.5020986"><ele>970.0</ele><time>2026-04-19T10:38:56.879Z</time></trkpt><trkpt lat="44.7002945" lon="9.502179"><ele>970.0</ele><time>2026-04-19T10:38:57.899Z</time></trkpt><trkpt lat="44.7003617" lon="9.5023169"><ele>970.0</ele><time>2026-04-19T10:38:58.969Z</time></trkpt><trkpt lat="44.7005243" lon="9.5026183"><ele>969.0</ele><time>2026-04-19T10:39:00.898Z</time></trkpt><trkpt lat="44.7006215" lon="9.5027791"><ele>968.0</ele><time>2026-04-19T10:39:01.876Z</time></trkpt><trkpt lat="44.7007236" lon="9.5029261"><ele>967.0</ele><time>2026-04-19T10:39:02.898Z</time></trkpt><trkpt lat="44.7008287" lon="9.5030625"><ele>966.0</ele><time>2026-04-19T10:39:03.94Z</time></trkpt><trkpt lat="44.7009198" lon="9.5031772"><ele>965.8333333333334</ele><time>2026-04-19T10:39:04.862Z</time></trkpt><trkpt lat="44.7010056" lon="9.5032843"><ele>965.6666666666667</ele><time>2026-04-19T10:39:05.911Z</time></trkpt><trkpt lat="44.7010555" lon="9.5033655"><ele>965.5</ele><time>2026-04-19T10:39:06.878Z</time></trkpt><trkpt lat="44.7010876" lon="9.5034579"><ele>965.3333333333334</ele><time>2026-04-19T10:39:07.878Z</time></trkpt><trkpt lat="44.7010918" lon="9.503554"><ele>965.1666666666667</ele><time>2026-04-19T10:39:08.883Z</time></trkpt><trkpt lat="44.7010866" lon="9.5036578"><ele>965.0</ele><time>2026-04-19T10:39:09.864Z</time></trkpt><trkpt lat="44.7010786" lon="9.5037565"><ele>964.0000000000001</ele><time>2026-04-19T10:39:10.854Z</time></trkpt><trkpt lat="44.7010648" lon="9.5038617"><ele>963.0</ele><time>2026-04-19T10:39:11.844Z</time></trkpt><trkpt lat="44.7010383" lon="9.5039741"><ele>962.0</ele><time>2026-04-19T10:39:12.881Z</time></trkpt><trkpt lat="44.7010046" lon="9.5040797"><ele>961.0</ele><time>2026-04-19T10:39:13.855Z</time></trkpt><trkpt lat="44.7009658" lon="9.5041968"><ele>960.0000000000001</ele><time>2026-04-19T10:39:14.929Z</time></trkpt><trkpt lat="44.700934" lon="9.504286"><ele>959.0</ele><time>2026-04-19T10:39:15.856Z</time></trkpt><trkpt lat="44.7008937" lon="9.5043988"><ele>959.0000000000001</ele><time>2026-04-19T10:39:16.912Z</time></trkpt><trkpt lat="44.7008583" lon="9.5045097"><ele>959.0</ele><time>2026-04-19T10:39:17.933Z</time></trkpt><trkpt lat="44.7008378" lon="9.5046158"><ele>959.0</ele><time>2026-04-19T10:39:18.899Z</time></trkpt><trkpt lat="44.7008471" lon="9.5047315"><ele>959.0</ele><time>2026-04-19T10:39:19.946Z</time></trkpt><trkpt lat="44.700882" lon="9.5048319"><ele>959.0000000000001</ele><time>2026-04-19T10:39:20.844Z</time></trkpt><trkpt lat="44.7009309" lon="9.5049482"><ele>959.0</ele><time>2026-04-19T10:39:21.891Z</time></trkpt><trkpt lat="44.7009873" lon="9.5050464"><ele>958.8000000000001</ele><time>2026-04-19T10:39:22.924Z</time></trkpt><trkpt lat="44.7010604" lon="9.5051385"><ele>958.6000000000001</ele><time>2026-04-19T10:39:24.034Z</time></trkpt><trkpt lat="44.7011887" lon="9.5052894"><ele>958.4</ele><time>2026-04-19T10:39:25.912Z</time></trkpt><trkpt lat="44.7012533" lon="9.5053559"><ele>958.2</ele><time>2026-04-19T10:39:26.835Z</time></trkpt><trkpt lat="44.7013171" lon="9.5054222"><ele>958.0</ele><time>2026-04-19T10:39:27.839Z</time></trkpt><trkpt lat="44.7013666" lon="9.5054818"><ele>957.8333333333333</ele><time>2026-04-19T10:39:28.849Z</time></trkpt><trkpt lat="44.7014307" lon="9.505542"><ele>957.6666666666666</ele><time>2026-04-19T10:39:31.869Z</time></trkpt><trkpt lat="44.7015245" lon="9.5054647"><ele>957.5</ele><time>2026-04-19T10:39:38.854Z</time></trkpt><trkpt lat="44.7015653" lon="9.5053622"><ele>957.3333333333333</ele><time>2026-04-19T10:39:39.826Z</time></trkpt><trkpt lat="44.7015971" lon="9.5052535"><ele>957.1666666666666</ele><time>2026-04-19T10:39:40.85Z</time></trkpt><trkpt lat="44.7016463" lon="9.505146"><ele>957.0</ele><time>2026-04-19T10:39:41.834Z</time></trkpt><trkpt lat="44.7017037" lon="9.505029"><ele>957.5714285714287</ele><time>2026-04-19T10:39:42.877Z</time></trkpt><trkpt lat="44.7017304" lon="9.5049345"><ele>958.1428571428572</ele><time>2026-04-19T10:39:43.838Z</time></trkpt><trkpt lat="44.7017234" lon="9.5048181"><ele>958.7142857142858</ele><time>2026-04-19T10:39:44.925Z</time></trkpt><trkpt lat="44.7016921" lon="9.5047219"><ele>959.2857142857142</ele><time>2026-04-19T10:39:45.887Z</time></trkpt><trkpt lat="44.7016515" lon="9.5046496"><ele>959.8571428571428</ele><time>2026-04-19T10:39:46.807Z</time></trkpt><trkpt lat="44.7016089" lon="9.5045594"><ele>960.4285714285713</ele><time>2026-04-19T10:39:47.871Z</time></trkpt><trkpt lat="44.7016015" lon="9.5044605"><ele>961.0</ele><time>2026-04-19T10:39:48.848Z</time></trkpt><trkpt lat="44.701615" lon="9.5043062"><ele>961.8</ele><time>2026-04-19T10:39:49.893Z</time></trkpt><trkpt lat="44.7016377" lon="9.5041745"><ele>962.5999999999999</ele><time>2026-04-19T10:39:50.876Z</time></trkpt><trkpt lat="44.7016728" lon="9.5040723"><ele>963.4</ele><time>2026-04-19T10:39:51.89Z</time></trkpt><trkpt lat="44.7017479" lon="9.5040077"><ele>964.2</ele><time>2026-04-19T10:39:52.849Z</time></trkpt><trkpt lat="44.7018368" lon="9.5039768"><ele>965.0</ele><time>2026-04-19T10:39:53.803Z</time></trkpt><trkpt lat="44.7019374" lon="9.5039915"><ele>965.75</ele><time>2026-04-19T10:39:54.875Z</time></trkpt><trkpt lat="44.7020434" lon="9.5040542"><ele>966.5</ele><time>2026-04-19T10:39:55.807Z</time></trkpt><trkpt lat="44.7021748" lon="9.5041599"><ele>967.25</ele><time>2026-04-19T10:39:56.823Z</time></trkpt><trkpt lat="44.7022783" lon="9.5042642"><ele>968.0</ele><time>2026-04-19T10:39:57.817Z</time></trkpt><trkpt lat="44.7023871" lon="9.5043516"><ele>968.0</ele><time>2026-04-19T10:39:58.828Z</time></trkpt><trkpt lat="44.7024988" lon="9.5043866"><ele>968.0</ele><time>2026-04-19T10:39:59.874Z</time></trkpt><trkpt lat="44.7026122" lon="9.5043772"><ele>968.0</ele><time>2026-04-19T10:40:00.879Z</time></trkpt><trkpt lat="44.7027494" lon="9.5043015"><ele>968.0</ele><time>2026-04-19T10:40:01.975Z</time></trkpt><trkpt lat="44.702864" lon="9.5041859"><ele>968.6666666666667</ele><time>2026-04-19T10:40:02.842Z</time></trkpt><trkpt lat="44.7030223" lon="9.5040354"><ele>969.3333333333333</ele><time>2026-04-19T10:40:03.882Z</time></trkpt><trkpt lat="44.7031879" lon="9.5039182"><ele>970.0</ele><time>2026-04-19T10:40:04.912Z</time></trkpt><trkpt lat="44.7033407" lon="9.5038332"><ele>970.0</ele><time>2026-04-19T10:40:05.852Z</time></trkpt><trkpt lat="44.7035195" lon="9.5037662"><ele>970.0</ele><time>2026-04-19T10:40:06.985Z</time></trkpt><trkpt lat="44.7037532" lon="9.5036659"><ele>970.0</ele><time>2026-04-19T10:40:08.875Z</time></trkpt><trkpt lat="44.7038339" lon="9.5035972"><ele>971.8333333333333</ele><time>2026-04-19T10:40:09.929Z</time></trkpt><trkpt lat="44.7038826" lon="9.5035341"><ele>973.6666666666666</ele><time>2026-04-19T10:40:10.896Z</time></trkpt><trkpt lat="44.7039527" lon="9.5034143"><ele>975.5</ele><time>2026-04-19T10:40:12.884Z</time></trkpt><trkpt lat="44.7040082" lon="9.5033067"><ele>977.3333333333333</ele><time>2026-04-19T10:40:14.89Z</time></trkpt><trkpt lat="44.7040618" lon="9.5031999"><ele>979.1666666666666</ele><time>2026-04-19T10:40:16.898Z</time></trkpt><trkpt lat="44.7041009" lon="9.5031134"><ele>981.0</ele><time>2026-04-19T10:40:18.871Z</time></trkpt><trkpt lat="44.7041433" lon="9.5030206"><ele>981.8333333333334</ele><time>2026-04-19T10:40:20.886Z</time></trkpt><trkpt lat="44.7042019" lon="9.5029024"><ele>982.6666666666667</ele><time>2026-04-19T10:40:22.888Z</time></trkpt><trkpt lat="44.7042695" lon="9.5027956"><ele>983.5</ele><time>2026-04-19T10:40:24.895Z</time></trkpt><trkpt lat="44.7043235" lon="9.5027342"><ele>984.3333333333334</ele><time>2026-04-19T10:40:26.959Z</time></trkpt><trkpt lat="44.7043802" lon="9.5026852"><ele>985.1666666666667</ele><time>2026-04-19T10:40:29.903Z</time></trkpt><trkpt lat="44.7044466" lon="9.5026419"><ele>986.0</ele><time>2026-04-19T10:40:31.854Z</time></trkpt><trkpt lat="44.7045284" lon="9.5025875"><ele>986.0000000000001</ele><time>2026-04-19T10:40:34.032Z</time></trkpt><trkpt lat="44.7045961" lon="9.5025578"><ele>986.0</ele><time>2026-04-19T10:40:35.964Z</time></trkpt><trkpt lat="44.7046843" lon="9.5025154"><ele>986.0</ele><time>2026-04-19T10:40:39.874Z</time></trkpt><trkpt lat="44.7047905" lon="9.5024698"><ele>986.0</ele><time>2026-04-19T10:40:41.917Z</time></trkpt><trkpt lat="44.7048503" lon="9.502437"><ele>986.0000000000001</ele><time>2026-04-19T10:40:42.864Z</time></trkpt><trkpt lat="44.7049102" lon="9.5024014"><ele>986.0</ele><time>2026-04-19T10:40:44.017Z</time></trkpt><trkpt lat="44.7050509" lon="9.5022855"><ele>986.0</ele><time>2026-04-19T10:40:46.931Z</time></trkpt><trkpt lat="44.7051178" lon="9.5022093"><ele>986.0</ele><time>2026-04-19T10:40:47.883Z</time></trkpt><trkpt lat="44.705206" lon="9.5020861"><ele>986.0</ele><time>2026-04-19T10:40:49.051Z</time></trkpt><trkpt lat="44.7053455" lon="9.5018491"><ele>986.0</ele><time>2026-04-19T10:40:50.847Z</time></trkpt><trkpt lat="44.7054365" lon="9.5016875"><ele>987.25</ele><time>2026-04-19T10:40:51.945Z</time></trkpt><trkpt lat="44.7055127" lon="9.5015543"><ele>988.5</ele><time>2026-04-19T10:40:52.922Z</time></trkpt><trkpt lat="44.7055844" lon="9.5014268"><ele>989.75</ele><time>2026-04-19T10:40:53.929Z</time></trkpt><trkpt lat="44.7056488" lon="9.5013091"><ele>991.0</ele><time>2026-04-19T10:40:54.851Z</time></trkpt><trkpt lat="44.7057166" lon="9.5011889"><ele>992.5999999999999</ele><time>2026-04-19T10:40:55.879Z</time></trkpt><trkpt lat="44.7057753" lon="9.5010848"><ele>994.1999999999999</ele><time>2026-04-19T10:40:56.85Z</time></trkpt><trkpt lat="44.7058312" lon="9.5009828"><ele>995.8000000000001</ele><time>2026-04-19T10:40:57.839Z</time></trkpt><trkpt lat="44.7058876" lon="9.5008803"><ele>997.4000000000001</ele><time>2026-04-19T10:40:58.845Z</time></trkpt><trkpt lat="44.7059441" lon="9.5007789"><ele>999.0</ele><time>2026-04-19T10:40:59.881Z</time></trkpt><trkpt lat="44.7059968" lon="9.5006828"><ele>999.0</ele><time>2026-04-19T10:41:00.838Z</time></trkpt><trkpt lat="44.7060576" lon="9.5005729"><ele>999.0000000000001</ele><time>2026-04-19T10:41:01.902Z</time></trkpt><trkpt lat="44.7061219" lon="9.5004663"><ele>999.0000000000001</ele><time>2026-04-19T10:41:02.91Z</time></trkpt><trkpt lat="44.7061792" lon="9.5003671"><ele>999.0</ele><time>2026-04-19T10:41:03.847Z</time></trkpt><trkpt lat="44.7062519" lon="9.5002444"><ele>999.0</ele><time>2026-04-19T10:41:04.901Z</time></trkpt><trkpt lat="44.7063317" lon="9.5001049"><ele>997.6666666666667</ele><time>2026-04-19T10:41:05.892Z</time></trkpt><trkpt lat="44.7064265" lon="9.4999412"><ele>996.3333333333334</ele><time>2026-04-19T10:41:06.907Z</time></trkpt><trkpt lat="44.7065216" lon="9.4997793"><ele>995.0</ele><time>2026-04-19T10:41:07.866Z</time></trkpt><trkpt lat="44.7066298" lon="9.4996251"><ele>994.5</ele><time>2026-04-19T10:41:08.882Z</time></trkpt><trkpt lat="44.7067461" lon="9.4995038"><ele>994.0</ele><time>2026-04-19T10:41:09.937Z</time></trkpt><trkpt lat="44.7068443" lon="9.4993939"><ele>993.5</ele><time>2026-04-19T10:41:10.919Z</time></trkpt><trkpt lat="44.7069308" lon="9.4992688"><ele>993.0</ele><time>2026-04-19T10:41:11.899Z</time></trkpt><trkpt lat="44.7070027" lon="9.4991218"><ele>993.0</ele><time>2026-04-19T10:41:12.946Z</time></trkpt><trkpt lat="44.7070527" lon="9.4989475"><ele>993.0</ele><time>2026-04-19T10:41:13.932Z</time></trkpt><trkpt lat="44.7070768" lon="9.4987538"><ele>993.0</ele><time>2026-04-19T10:41:14.855Z</time></trkpt><trkpt lat="44.7071088" lon="9.4985293"><ele>993.0</ele><time>2026-04-19T10:41:15.873Z</time></trkpt><trkpt lat="44.7071585" lon="9.4983102"><ele>992.75</ele><time>2026-04-19T10:41:16.868Z</time></trkpt><trkpt lat="44.7072294" lon="9.4981112"><ele>992.5</ele><time>2026-04-19T10:41:17.842Z</time></trkpt><trkpt lat="44.7073028" lon="9.4979227"><ele>992.25</ele><time>2026-04-19T10:41:18.924Z</time></trkpt><trkpt lat="44.7073596" lon="9.4978119"><ele>992.0</ele><time>2026-04-19T10:41:19.836Z</time></trkpt><trkpt lat="44.7074542" lon="9.4977337"><ele>993.6666666666667</ele><time>2026-04-19T10:41:20.933Z</time></trkpt><trkpt lat="44.707574" lon="9.4977043"><ele>995.3333333333333</ele><time>2026-04-19T10:41:22.006Z</time></trkpt><trkpt lat="44.7077917" lon="9.497709"><ele>997.0</ele><time>2026-04-19T10:41:23.807Z</time></trkpt><trkpt lat="44.7079035" lon="9.4977449"><ele>997.75</ele><time>2026-04-19T10:41:24.834Z</time></trkpt><trkpt lat="44.7080074" lon="9.4978066"><ele>998.5</ele><time>2026-04-19T10:41:26.002Z</time></trkpt><trkpt lat="44.7081179" lon="9.4980106"><ele>999.25</ele><time>2026-04-19T10:41:27.846Z</time></trkpt><trkpt lat="44.7081203" lon="9.4981695"><ele>1000.0</ele><time>2026-04-19T10:41:28.977Z</time></trkpt><trkpt lat="44.7080654" lon="9.4984733"><ele>1000.0</ele><time>2026-04-19T10:41:30.885Z</time></trkpt><trkpt lat="44.708043" lon="9.4986342"><ele>1000.0</ele><time>2026-04-19T10:41:31.881Z</time></trkpt><trkpt lat="44.70803" lon="9.4987872"><ele>1000.0</ele><time>2026-04-19T10:41:32.843Z</time></trkpt><trkpt lat="44.7080201" lon="9.4989389"><ele>1000.0</ele><time>2026-04-19T10:41:33.824Z</time></trkpt><trkpt lat="44.7080205" lon="9.499098"><ele>1000.0</ele><time>2026-04-19T10:41:34.833Z</time></trkpt><trkpt lat="44.7080241" lon="9.4992697"><ele>1000.4</ele><time>2026-04-19T10:41:35.854Z</time></trkpt><trkpt lat="44.7080284" lon="9.4994383"><ele>1000.8</ele><time>2026-04-19T10:41:36.818Z</time></trkpt><trkpt lat="44.7080332" lon="9.4995961"><ele>1001.2</ele><time>2026-04-19T10:41:37.806Z</time></trkpt><trkpt lat="44.7080538" lon="9.4997503"><ele>1001.6</ele><time>2026-04-19T10:41:38.839Z</time></trkpt><trkpt lat="44.7080832" lon="9.4998641"><ele>1002.0</ele><time>2026-04-19T10:41:39.82Z</time></trkpt><trkpt lat="44.7081427" lon="9.499947"><ele>1002.0</ele><time>2026-04-19T10:41:40.871Z</time></trkpt><trkpt lat="44.7082232" lon="9.5000024"><ele>1002.0</ele><time>2026-04-19T10:41:41.873Z</time></trkpt><trkpt lat="44.7083262" lon="9.5000578"><ele>1002.0</ele><time>2026-04-19T10:41:42.9Z</time></trkpt><trkpt lat="44.7084273" lon="9.5001163"><ele>1002.0</ele><time>2026-04-19T10:41:43.851Z</time></trkpt><trkpt lat="44.7085395" lon="9.5001614"><ele>1002.0</ele><time>2026-04-19T10:41:44.837Z</time></trkpt><trkpt lat="44.7086645" lon="9.5001787"><ele>1004.75</ele><time>2026-04-19T10:41:45.851Z</time></trkpt><trkpt lat="44.7087916" lon="9.5001812"><ele>1007.5</ele><time>2026-04-19T10:41:46.862Z</time></trkpt><trkpt lat="44.7089036" lon="9.5001734"><ele>1010.25</ele><time>2026-04-19T10:41:47.87Z</time></trkpt><trkpt lat="44.7090134" lon="9.5001657"><ele>1013.0</ele><time>2026-04-19T10:41:48.867Z</time></trkpt><trkpt lat="44.7091224" lon="9.5001607"><ele>1013.0</ele><time>2026-04-19T10:41:49.894Z</time></trkpt><trkpt lat="44.7092211" lon="9.5001789"><ele>1013.0</ele><time>2026-04-19T10:41:50.856Z</time></trkpt><trkpt lat="44.7093069" lon="9.5002411"><ele>1013.0</ele><time>2026-04-19T10:41:51.811Z</time></trkpt><trkpt lat="44.7093847" lon="9.5003556"><ele>1013.0</ele><time>2026-04-19T10:41:52.944Z</time></trkpt><trkpt lat="44.7094268" lon="9.5004515"><ele>1013.0</ele><time>2026-04-19T10:41:53.826Z</time></trkpt><trkpt lat="44.7094664" lon="9.5005622"><ele>1016.2</ele><time>2026-04-19T10:41:54.836Z</time></trkpt><trkpt lat="44.7095109" lon="9.5006912"><ele>1019.4</ele><time>2026-04-19T10:41:55.827Z</time></trkpt><trkpt lat="44.7095499" lon="9.5008183"><ele>1022.6000000000001</ele><time>2026-04-19T10:41:56.83Z</time></trkpt><trkpt lat="44.7095967" lon="9.5009317"><ele>1025.8</ele><time>2026-04-19T10:41:57.904Z</time></trkpt><trkpt lat="44.7096517" lon="9.5010256"><ele>1029.0</ele><time>2026-04-19T10:41:58.921Z</time></trkpt><trkpt lat="44.7097224" lon="9.5011101"><ele>1029.0</ele><time>2026-04-19T10:41:59.863Z</time></trkpt><trkpt lat="44.7098028" lon="9.5011934"><ele>1029.0</ele><time>2026-04-19T10:42:00.879Z</time></trkpt><trkpt lat="44.7098971" lon="9.5012566"><ele>1029.0</ele><time>2026-04-19T10:42:01.851Z</time></trkpt><trkpt lat="44.7099977" lon="9.5013243"><ele>1029.0</ele><time>2026-04-19T10:42:02.823Z</time></trkpt><trkpt lat="44.7101043" lon="9.5014001"><ele>1029.0</ele><time>2026-04-19T10:42:03.878Z</time></trkpt><trkpt lat="44.710194" lon="9.5014715"><ele>1031.4</ele><time>2026-04-19T10:42:04.849Z</time></trkpt><trkpt lat="44.7102702" lon="9.5015333"><ele>1033.8000000000002</ele><time>2026-04-19T10:42:05.785Z</time></trkpt><trkpt lat="44.7103449" lon="9.5016058"><ele>1036.1999999999998</ele><time>2026-04-19T10:42:06.925Z</time></trkpt><trkpt lat="44.7104123" lon="9.5017816"><ele>1038.6</ele><time>2026-04-19T10:42:08.814Z</time></trkpt><trkpt lat="44.7104393" lon="9.5019132"><ele>1041.0</ele><time>2026-04-19T10:42:09.814Z</time></trkpt><trkpt lat="44.7104623" lon="9.5020607"><ele>1040.5</ele><time>2026-04-19T10:42:10.845Z</time></trkpt><trkpt lat="44.7104899" lon="9.5022126"><ele>1040.0</ele><time>2026-04-19T10:42:11.807Z</time></trkpt><trkpt lat="44.7105233" lon="9.5023805"><ele>1039.5</ele><time>2026-04-19T10:42:12.815Z</time></trkpt><trkpt lat="44.7105543" lon="9.5025332"><ele>1039.0</ele><time>2026-04-19T10:42:13.829Z</time></trkpt><trkpt lat="44.7105859" lon="9.502675"><ele>1039.0</ele><time>2026-04-19T10:42:14.844Z</time></trkpt><trkpt lat="44.710632" lon="9.5028143"><ele>1039.0</ele><time>2026-04-19T10:42:15.898Z</time></trkpt><trkpt lat="44.7106985" lon="9.5029218"><ele>1039.0</ele><time>2026-04-19T10:42:16.904Z</time></trkpt><trkpt lat="44.7107714" lon="9.5029943"><ele>1039.0</ele><time>2026-04-19T10:42:17.818Z</time></trkpt><trkpt lat="44.7108643" lon="9.5030684"><ele>1039.0</ele><time>2026-04-19T10:42:18.877Z</time></trkpt><trkpt lat="44.7109789" lon="9.5031489"><ele>1042.0</ele><time>2026-04-19T10:42:20.019Z</time></trkpt><trkpt lat="44.7110829" lon="9.5032229"><ele>1045.0</ele><time>2026-04-19T10:42:20.948Z</time></trkpt><trkpt lat="44.7111794" lon="9.5033059"><ele>1048.0</ele><time>2026-04-19T10:42:21.856Z</time></trkpt><trkpt lat="44.711256" lon="9.503406"><ele>1051.0</ele><time>2026-04-19T10:42:22.828Z</time></trkpt><trkpt lat="44.7113173" lon="9.5035313"><ele>1054.0</ele><time>2026-04-19T10:42:23.857Z</time></trkpt><trkpt lat="44.7113611" lon="9.5036803"><ele>1054.25</ele><time>2026-04-19T10:42:24.821Z</time></trkpt><trkpt lat="44.7113967" lon="9.5038491"><ele>1054.5</ele><time>2026-04-19T10:42:25.875Z</time></trkpt><trkpt lat="44.7114168" lon="9.5040074"><ele>1054.75</ele><time>2026-04-19T10:42:26.83Z</time></trkpt><trkpt lat="44.7114053" lon="9.5041653"><ele>1055.0</ele><time>2026-04-19T10:42:27.804Z</time></trkpt><trkpt lat="44.7113732" lon="9.504315"><ele>1055.0</ele><time>2026-04-19T10:42:28.9Z</time></trkpt><trkpt lat="44.7113152" lon="9.5044496"><ele>1055.0</ele><time>2026-04-19T10:42:29.949Z</time></trkpt><trkpt lat="44.7112442" lon="9.5045341"><ele>1055.0</ele><time>2026-04-19T10:42:30.85Z</time></trkpt><trkpt lat="44.7111895" lon="9.5046267"><ele>1055.0</ele><time>2026-04-19T10:42:31.828Z</time></trkpt><trkpt lat="44.7111725" lon="9.5047246"><ele>1055.0</ele><time>2026-04-19T10:42:32.819Z</time></trkpt><trkpt lat="44.7112102" lon="9.5048506"><ele>1054.8</ele><time>2026-04-19T10:42:33.863Z</time></trkpt><trkpt lat="44.7112732" lon="9.5049587"><ele>1054.6</ele><time>2026-04-19T10:42:34.843Z</time></trkpt><trkpt lat="44.711361" lon="9.5049921"><ele>1054.4</ele><time>2026-04-19T10:42:35.852Z</time></trkpt><trkpt lat="44.7114545" lon="9.5049583"><ele>1054.2</ele><time>2026-04-19T10:42:36.855Z</time></trkpt><trkpt lat="44.7115562" lon="9.5048579"><ele>1054.0</ele><time>2026-04-19T10:42:37.876Z</time></trkpt><trkpt lat="44.7116478" lon="9.5047388"><ele>1054.0</ele><time>2026-04-19T10:42:38.826Z</time></trkpt><trkpt lat="44.711747" lon="9.5046167"><ele>1054.0</ele><time>2026-04-19T10:42:39.837Z</time></trkpt><trkpt lat="44.711845" lon="9.5045285"><ele>1054.0</ele><time>2026-04-19T10:42:40.83Z</time></trkpt><trkpt lat="44.7119341" lon="9.5044164"><ele>1054.0</ele><time>2026-04-19T10:42:41.947Z</time></trkpt><trkpt lat="44.7120277" lon="9.5041245"><ele>1056.5</ele><time>2026-04-19T10:42:43.794Z</time></trkpt><trkpt lat="44.7120547" lon="9.5039254"><ele>1059.0</ele><time>2026-04-19T10:42:44.894Z</time></trkpt><trkpt lat="44.712076" lon="9.503777"><ele>1061.5</ele><time>2026-04-19T10:42:45.815Z</time></trkpt><trkpt lat="44.7120986" lon="9.5036155"><ele>1064.0</ele><time>2026-04-19T10:42:46.931Z</time></trkpt><trkpt lat="44.7121117" lon="9.503489"><ele>1064.25</ele><time>2026-04-19T10:42:47.879Z</time></trkpt><trkpt lat="44.7121233" lon="9.5033393"><ele>1064.5</ele><time>2026-04-19T10:42:48.885Z</time></trkpt><trkpt lat="44.7121236" lon="9.5031735"><ele>1064.75</ele><time>2026-04-19T10:42:49.835Z</time></trkpt><trkpt lat="44.7121137" lon="9.5029811"><ele>1065.0</ele><time>2026-04-19T10:42:50.836Z</time></trkpt><trkpt lat="44.7121052" lon="9.5027741"><ele>1067.0</ele><time>2026-04-19T10:42:51.843Z</time></trkpt><trkpt lat="44.7120971" lon="9.5025603"><ele>1069.0</ele><time>2026-04-19T10:42:52.84Z</time></trkpt><trkpt lat="44.7120892" lon="9.5023463"><ele>1071.0</ele><time>2026-04-19T10:42:53.844Z</time></trkpt><trkpt lat="44.7120879" lon="9.502125"><ele>1073.6666666666667</ele><time>2026-04-19T10:42:54.893Z</time></trkpt><trkpt lat="44.712088" lon="9.5019381"><ele>1076.3333333333335</ele><time>2026-04-19T10:42:55.843Z</time></trkpt><trkpt lat="44.7120895" lon="9.5017374"><ele>1079.0</ele><time>2026-04-19T10:42:56.954Z</time></trkpt><trkpt lat="44.7121341" lon="9.5014461"><ele>1079.0</ele><time>2026-04-19T10:42:58.878Z</time></trkpt><trkpt lat="44.712184" lon="9.5013204"><ele>1079.0</ele><time>2026-04-19T10:42:59.83Z</time></trkpt><trkpt lat="44.7122597" lon="9.501193"><ele>1079.0</ele><time>2026-04-19T10:43:00.869Z</time></trkpt><trkpt lat="44.7123367" lon="9.5010692"><ele>1079.0</ele><time>2026-04-19T10:43:01.847Z</time></trkpt><trkpt lat="44.7124176" lon="9.5009487"><ele>1078.3333333333335</ele><time>2026-04-19T10:43:02.82Z</time></trkpt><trkpt lat="44.7125049" lon="9.500805"><ele>1077.6666666666667</ele><time>2026-04-19T10:43:03.914Z</time></trkpt><trkpt lat="44.7125847" lon="9.5006486"><ele>1077.0</ele><time>2026-04-19T10:43:04.983Z</time></trkpt><trkpt lat="44.7126768" lon="9.5002746"><ele>1077.2</ele><time>2026-04-19T10:43:06.954Z</time></trkpt><trkpt lat="44.7126818" lon="9.5000788"><ele>1077.4</ele><time>2026-04-19T10:43:07.892Z</time></trkpt><trkpt lat="44.712677" lon="9.4999147"><ele>1077.6</ele><time>2026-04-19T10:43:08.837Z</time></trkpt><trkpt lat="44.7126914" lon="9.4997813"><ele>1077.8</ele><time>2026-04-19T10:43:09.9Z</time></trkpt><trkpt lat="44.7127336" lon="9.4996873"><ele>1078.0</ele><time>2026-04-19T10:43:10.873Z</time></trkpt><trkpt lat="44.7127951" lon="9.4996132"><ele>1077.75</ele><time>2026-04-19T10:43:11.91Z</time></trkpt><trkpt lat="44.7128519" lon="9.4995503"><ele>1077.5</ele><time>2026-04-19T10:43:12.905Z</time></trkpt><trkpt lat="44.7128962" lon="9.499378"><ele>1077.25</ele><time>2026-04-19T10:43:14.846Z</time></trkpt><trkpt lat="44.7129145" lon="9.4992448"><ele>1077.0</ele><time>2026-04-19T10:43:15.922Z</time></trkpt><trkpt lat="44.7129719" lon="9.4989358"><ele>1077.0</ele><time>2026-04-19T10:43:17.845Z</time></trkpt><trkpt lat="44.7130143" lon="9.4987545"><ele>1077.0</ele><time>2026-04-19T10:43:18.9Z</time></trkpt><trkpt lat="44.7130472" lon="9.4985708"><ele>1077.0</ele><time>2026-04-19T10:43:19.924Z</time></trkpt><trkpt lat="44.7130593" lon="9.4983796"><ele>1077.0</ele><time>2026-04-19T10:43:20.968Z</time></trkpt><trkpt lat="44.7130528" lon="9.4980315"><ele>1077.5</ele><time>2026-04-19T10:43:22.815Z</time></trkpt><trkpt lat="44.7130502" lon="9.4978544"><ele>1078.0</ele><time>2026-04-19T10:43:23.836Z</time></trkpt><trkpt lat="44.7130509" lon="9.4976801"><ele>1078.5</ele><time>2026-04-19T10:43:24.877Z</time></trkpt><trkpt lat="44.7130541" lon="9.4975053"><ele>1079.0</ele><time>2026-04-19T10:43:25.927Z</time></trkpt><trkpt lat="44.7130601" lon="9.4973632"><ele>1079.0</ele><time>2026-04-19T10:43:26.826Z</time></trkpt><trkpt lat="44.7130647" lon="9.497199"><ele>1079.0</ele><time>2026-04-19T10:43:27.834Z</time></trkpt><trkpt lat="44.7130616" lon="9.4970306"><ele>1079.0</ele><time>2026-04-19T10:43:28.884Z</time></trkpt><trkpt lat="44.7130474" lon="9.4968697"><ele>1079.0</ele><time>2026-04-19T10:43:29.825Z</time></trkpt><trkpt lat="44.7130209" lon="9.4966943"><ele>1079.75</ele><time>2026-04-19T10:43:30.827Z</time></trkpt><trkpt lat="44.7129829" lon="9.496515"><ele>1080.5</ele><time>2026-04-19T10:43:31.847Z</time></trkpt><trkpt lat="44.7129442" lon="9.4963313"><ele>1081.25</ele><time>2026-04-19T10:43:32.887Z</time></trkpt><trkpt lat="44.7129125" lon="9.496155"><ele>1082.0</ele><time>2026-04-19T10:43:33.865Z</time></trkpt><trkpt lat="44.7128841" lon="9.4959589"><ele>1082.5</ele><time>2026-04-19T10:43:34.881Z</time></trkpt><trkpt lat="44.7128575" lon="9.4957726"><ele>1083.0</ele><time>2026-04-19T10:43:35.871Z</time></trkpt><trkpt lat="44.7128276" lon="9.4955739"><ele>1083.5</ele><time>2026-04-19T10:43:36.877Z</time></trkpt><trkpt lat="44.712792" lon="9.4953834"><ele>1084.0</ele><time>2026-04-19T10:43:37.843Z</time></trkpt><trkpt lat="44.7127511" lon="9.4951797"><ele>1085.75</ele><time>2026-04-19T10:43:38.896Z</time></trkpt><trkpt lat="44.7127059" lon="9.494993"><ele>1087.5</ele><time>2026-04-19T10:43:39.876Z</time></trkpt><trkpt lat="44.7126545" lon="9.494801"><ele>1089.25</ele><time>2026-04-19T10:43:40.879Z</time></trkpt><trkpt lat="44.7126027" lon="9.4946057"><ele>1091.0</ele><time>2026-04-19T10:43:41.851Z</time></trkpt><trkpt lat="44.7125498" lon="9.4943989"><ele>1091.25</ele><time>2026-04-19T10:43:42.908Z</time></trkpt><trkpt lat="44.7125014" lon="9.4942166"><ele>1091.5</ele><time>2026-04-19T10:43:43.89Z</time></trkpt><trkpt lat="44.7124488" lon="9.4940435"><ele>1091.75</ele><time>2026-04-19T10:43:44.868Z</time></trkpt><trkpt lat="44.7123875" lon="9.4938573"><ele>1092.0</ele><time>2026-04-19T10:43:45.897Z</time></trkpt><trkpt lat="44.7123214" lon="9.4936897"><ele>1092.0</ele><time>2026-04-19T10:43:46.839Z</time></trkpt><trkpt lat="44.7122401" lon="9.4935059"><ele>1092.0</ele><time>2026-04-19T10:43:47.897Z</time></trkpt><trkpt lat="44.7121325" lon="9.4932929"><ele>1092.0</ele><time>2026-04-19T10:43:49.175Z</time></trkpt><trkpt lat="44.7120028" lon="9.4930829"><ele>1092.0</ele><time>2026-04-19T10:43:50.851Z</time></trkpt><trkpt lat="44.7119381" lon="9.4929612"><ele>1092.0</ele><time>2026-04-19T10:43:51.867Z</time></trkpt><trkpt lat="44.711899" lon="9.4928386"><ele>1092.0</ele><time>2026-04-19T10:43:52.854Z</time></trkpt><trkpt lat="44.7118775" lon="9.4926954"><ele>1092.0</ele><time>2026-04-19T10:43:53.866Z</time></trkpt><trkpt lat="44.7118673" lon="9.4925309"><ele>1092.0</ele><time>2026-04-19T10:43:54.875Z</time></trkpt><trkpt lat="44.7118604" lon="9.4923527"><ele>1091.2</ele><time>2026-04-19T10:43:55.877Z</time></trkpt><trkpt lat="44.7118566" lon="9.4921922"><ele>1090.4</ele><time>2026-04-19T10:43:56.838Z</time></trkpt><trkpt lat="44.7118499" lon="9.4920427"><ele>1089.6</ele><time>2026-04-19T10:43:57.837Z</time></trkpt><trkpt lat="44.7118419" lon="9.4918972"><ele>1088.8</ele><time>2026-04-19T10:43:58.866Z</time></trkpt><trkpt lat="44.7118378" lon="9.4917736"><ele>1088.0</ele><time>2026-04-19T10:43:59.835Z</time></trkpt><trkpt lat="44.7118293" lon="9.4916513"><ele>1088.0</ele><time>2026-04-19T10:44:00.887Z</time></trkpt><trkpt lat="44.7118102" lon="9.4915177"><ele>1088.0</ele><time>2026-04-19T10:44:02.867Z</time></trkpt><trkpt lat="44.7117667" lon="9.4914298"><ele>1088.0</ele><time>2026-04-19T10:44:05.93Z</time></trkpt><trkpt lat="44.7117352" lon="9.4913394"><ele>1088.0</ele><time>2026-04-19T10:44:23.81Z</time></trkpt><trkpt lat="44.7116691" lon="9.4912238"><ele>1088.0</ele><time>2026-04-19T10:44:25.821Z</time></trkpt><trkpt lat="44.7116089" lon="9.4910768"><ele>1088.8333333333335</ele><time>2026-04-19T10:44:27.837Z</time></trkpt><trkpt lat="44.7115638" lon="9.4909292"><ele>1089.6666666666667</ele><time>2026-04-19T10:44:29.908Z</time></trkpt><trkpt lat="44.7115311" lon="9.4907999"><ele>1090.5</ele><time>2026-04-19T10:44:31.903Z</time></trkpt><trkpt lat="44.7115108" lon="9.4907158"><ele>1091.3333333333333</ele><time>2026-04-19T10:44:32.923Z</time></trkpt><trkpt lat="44.7114968" lon="9.4906261"><ele>1092.1666666666665</ele><time>2026-04-19T10:44:33.907Z</time></trkpt><trkpt lat="44.7114826" lon="9.4905345"><ele>1093.0</ele><time>2026-04-19T10:44:34.833Z</time></trkpt><trkpt lat="44.7114717" lon="9.4904221"><ele>1094.1666666666665</ele><time>2026-04-19T10:44:35.894Z</time></trkpt><trkpt lat="44.7114716" lon="9.4903116"><ele>1095.3333333333333</ele><time>2026-04-19T10:44:36.87Z</time></trkpt><trkpt lat="44.711465" lon="9.4901973"><ele>1096.5</ele><time>2026-04-19T10:44:37.911Z</time></trkpt><trkpt lat="44.7114554" lon="9.4900842"><ele>1097.6666666666667</ele><time>2026-04-19T10:44:38.882Z</time></trkpt><trkpt lat="44.7114449" lon="9.4899692"><ele>1098.8333333333335</ele><time>2026-04-19T10:44:39.866Z</time></trkpt><trkpt lat="44.7114293" lon="9.4898572"><ele>1100.0</ele><time>2026-04-19T10:44:40.845Z</time></trkpt><trkpt lat="44.7114026" lon="9.4897531"><ele>1100.0</ele><time>2026-04-19T10:44:41.872Z</time></trkpt><trkpt lat="44.7113777" lon="9.4896289"><ele>1100.0</ele><time>2026-04-19T10:44:42.871Z</time></trkpt><trkpt lat="44.7113514" lon="9.4895206"><ele>1100.0</ele><time>2026-04-19T10:44:43.849Z</time></trkpt><trkpt lat="44.7113139" lon="9.4894099"><ele>1100.0</ele><time>2026-04-19T10:44:44.876Z</time></trkpt><trkpt lat="44.7112714" lon="9.4892949"><ele>1100.0</ele><time>2026-04-19T10:44:45.989Z</time></trkpt><trkpt lat="44.711213" lon="9.4891059"><ele>1099.5714285714287</ele><time>2026-04-19T10:44:47.891Z</time></trkpt><trkpt lat="44.7111875" lon="9.4890069"><ele>1099.142857142857</ele><time>2026-04-19T10:44:48.891Z</time></trkpt><trkpt lat="44.7111574" lon="9.488912"><ele>1098.7142857142858</ele><time>2026-04-19T10:44:49.835Z</time></trkpt><trkpt lat="44.7111226" lon="9.488815"><ele>1098.2857142857142</ele><time>2026-04-19T10:44:50.832Z</time></trkpt><trkpt lat="44.7110925" lon="9.4887278"><ele>1097.857142857143</ele><time>2026-04-19T10:44:51.836Z</time></trkpt><trkpt lat="44.7110643" lon="9.4886314"><ele>1097.4285714285716</ele><time>2026-04-19T10:44:52.935Z</time></trkpt><trkpt lat="44.7110224" lon="9.4885499"><ele>1097.0</ele><time>2026-04-19T10:44:53.949Z</time></trkpt><trkpt lat="44.7109936" lon="9.4884577"><ele>1100.5</ele><time>2026-04-19T10:44:54.88Z</time></trkpt><trkpt lat="44.7109738" lon="9.4883675"><ele>1104.0</ele><time>2026-04-19T10:44:55.923Z</time></trkpt><trkpt lat="44.7109716" lon="9.4881896"><ele>1107.5</ele><time>2026-04-19T10:44:57.847Z</time></trkpt><trkpt lat="44.7109712" lon="9.4880832"><ele>1111.0</ele><time>2026-04-19T10:44:58.856Z</time></trkpt><trkpt lat="44.7109788" lon="9.4879793"><ele>1114.5</ele><time>2026-04-19T10:44:59.911Z</time></trkpt><trkpt lat="44.7109731" lon="9.4878688"><ele>1118.0</ele><time>2026-04-19T10:45:00.854Z</time></trkpt><trkpt lat="44.7109703" lon="9.4877613"><ele>1118.6666666666667</ele><time>2026-04-19T10:45:01.841Z</time></trkpt><trkpt lat="44.7109605" lon="9.4876627"><ele>1119.3333333333335</ele><time>2026-04-19T10:45:02.81Z</time></trkpt><trkpt lat="44.7109479" lon="9.4875565"><ele>1120.0</ele><time>2026-04-19T10:45:03.833Z</time></trkpt><trkpt lat="44.7109334" lon="9.4874662"><ele>1120.6666666666667</ele><time>2026-04-19T10:45:04.818Z</time></trkpt><trkpt lat="44.7109016" lon="9.4873047"><ele>1121.3333333333333</ele><time>2026-04-19T10:45:06.836Z</time></trkpt><trkpt lat="44.7108709" lon="9.4871806"><ele>1122.0</ele><time>2026-04-19T10:45:08.835Z</time></trkpt><trkpt lat="44.7108157" lon="9.4871334"><ele>1122.0</ele><time>2026-04-19T10:45:10.837Z</time></trkpt><trkpt lat="44.7107468" lon="9.4871676"><ele>1122.0</ele><time>2026-04-19T10:45:12.829Z</time></trkpt><trkpt lat="44.7107056" lon="9.4872429"><ele>1122.0</ele><time>2026-04-19T10:45:35.884Z</time></trkpt><trkpt lat="44.7106597" lon="9.4873442"><ele>1122.0</ele><time>2026-04-19T10:45:39.856Z</time></trkpt><trkpt lat="44.7105883" lon="9.4874516"><ele>1122.0</ele><time>2026-04-19T10:45:41.841Z</time></trkpt><trkpt lat="44.7105357" lon="9.4875116"><ele>1122.0</ele><time>2026-04-19T10:45:42.858Z</time></trkpt><trkpt lat="44.7104359" lon="9.4875735"><ele>1122.0</ele><time>2026-04-19T10:45:44.87Z</time></trkpt><trkpt lat="44.7103576" lon="9.4876228"><ele>1122.0</ele><time>2026-04-19T10:45:46.847Z</time></trkpt><trkpt lat="44.7102961" lon="9.4876456"><ele>1122.0</ele><time>2026-04-19T10:45:51.831Z</time></trkpt><trkpt lat="44.7102397" lon="9.4875706"><ele>1122.0</ele><time>2026-04-19T10:46:55.883Z</time></trkpt><trkpt lat="44.710241" lon="9.4874579"><ele>1122.0</ele><time>2026-04-19T10:46:58.037Z</time></trkpt><trkpt lat="44.710259" lon="9.4873506"><ele>1122.0</ele><time>2026-04-19T10:46:59.889Z</time></trkpt><trkpt lat="44.7103025" lon="9.4872292"><ele>1122.0</ele><time>2026-04-19T10:47:02.952Z</time></trkpt><trkpt lat="44.7103384" lon="9.4871178"><ele>1122.0</ele><time>2026-04-19T10:47:04.89Z</time></trkpt><trkpt lat="44.7103772" lon="9.4869679"><ele>1122.0</ele><time>2026-04-19T10:47:06.894Z</time></trkpt><trkpt lat="44.7104116" lon="9.4868392"><ele>1122.0</ele><time>2026-04-19T10:47:08.838Z</time></trkpt><trkpt lat="44.7104316" lon="9.4866942"><ele>1122.0</ele><time>2026-04-19T10:47:10.844Z</time></trkpt><trkpt lat="44.7104093" lon="9.4865495"><ele>1123.0</ele><time>2026-04-19T10:47:12.894Z</time></trkpt><trkpt lat="44.7103694" lon="9.4864062"><ele>1124.0</ele><time>2026-04-19T10:47:14.903Z</time></trkpt><trkpt lat="44.7103302" lon="9.4862524"><ele>1125.0</ele><time>2026-04-19T10:47:16.895Z</time></trkpt><trkpt lat="44.7102986" lon="9.4860934"><ele>1126.0</ele><time>2026-04-19T10:47:18.897Z</time></trkpt><trkpt lat="44.7102827" lon="9.4860046"><ele>1127.0</ele><time>2026-04-19T10:47:19.872Z</time></trkpt><trkpt lat="44.7102631" lon="9.4858562"><ele>1127.8</ele><time>2026-04-19T10:47:21.872Z</time></trkpt><trkpt lat="44.710245" lon="9.4857092"><ele>1128.6</ele><time>2026-04-19T10:47:23.872Z</time></trkpt><trkpt lat="44.7102204" lon="9.4855378"><ele>1129.3999999999999</ele><time>2026-04-19T10:47:25.882Z</time></trkpt><trkpt lat="44.7101987" lon="9.4853702"><ele>1130.2</ele><time>2026-04-19T10:47:27.893Z</time></trkpt><trkpt lat="44.7101922" lon="9.4852781"><ele>1131.0</ele><time>2026-04-19T10:47:28.936Z</time></trkpt><trkpt lat="44.7101934" lon="9.4851281"><ele>1134.3999999999999</ele><time>2026-04-19T10:47:30.844Z</time></trkpt><trkpt lat="44.7101853" lon="9.485"><ele>1137.8</ele><time>2026-04-19T10:47:32.859Z</time></trkpt><trkpt lat="44.7101679" lon="9.4848569"><ele>1141.1999999999998</ele><time>2026-04-19T10:47:34.912Z</time></trkpt><trkpt lat="44.7101291" lon="9.4847111"><ele>1144.6</ele><time>2026-04-19T10:47:36.937Z</time></trkpt><trkpt lat="44.7100958" lon="9.484622"><ele>1148.0</ele><time>2026-04-19T10:47:37.997Z</time></trkpt><trkpt lat="44.7100594" lon="9.4845022"><ele>1149.0</ele><time>2026-04-19T10:47:38.945Z</time></trkpt><trkpt lat="44.7100204" lon="9.4843921"><ele>1150.0</ele><time>2026-04-19T10:47:39.924Z</time></trkpt><trkpt lat="44.7099878" lon="9.4843015"><ele>1151.0</ele><time>2026-04-19T10:47:40.859Z</time></trkpt><trkpt lat="44.7099579" lon="9.4842063"><ele>1152.0</ele><time>2026-04-19T10:47:41.905Z</time></trkpt><trkpt lat="44.7099546" lon="9.4840873"><ele>1153.0</ele><time>2026-04-19T10:47:43.866Z</time></trkpt><trkpt lat="44.7099558" lon="9.4839588"><ele>1154.0</ele><time>2026-04-19T10:48:03.877Z</time></trkpt><trkpt lat="44.7099629" lon="9.4838161"><ele>1155.2</ele><time>2026-04-19T10:48:05.915Z</time></trkpt><trkpt lat="44.7099744" lon="9.4836524"><ele>1156.4</ele><time>2026-04-19T10:48:07.923Z</time></trkpt><trkpt lat="44.7099569" lon="9.4834688"><ele>1157.6</ele><time>2026-04-19T10:48:09.882Z</time></trkpt><trkpt lat="44.7099485" lon="9.4833752"><ele>1158.8</ele><time>2026-04-19T10:48:10.873Z</time></trkpt><trkpt lat="44.7099331" lon="9.4832679"><ele>1160.0</ele><time>2026-04-19T10:48:11.915Z</time></trkpt><trkpt lat="44.7099166" lon="9.4831632"><ele>1160.0</ele><time>2026-04-19T10:48:12.879Z</time></trkpt><trkpt lat="44.709896" lon="9.4830395"><ele>1160.0</ele><time>2026-04-19T10:48:13.966Z</time></trkpt><trkpt lat="44.7098855" lon="9.482947"><ele>1160.0</ele><time>2026-04-19T10:48:14.88Z</time></trkpt><trkpt lat="44.7098794" lon="9.4828483"><ele>1160.0</ele><time>2026-04-19T10:48:15.873Z</time></trkpt><trkpt lat="44.7098808" lon="9.4827436"><ele>1160.0</ele><time>2026-04-19T10:48:16.864Z</time></trkpt><trkpt lat="44.7098877" lon="9.4826336"><ele>1160.0</ele><time>2026-04-19T10:48:17.87Z</time></trkpt><trkpt lat="44.7098936" lon="9.48254"><ele>1160.0</ele><time>2026-04-19T10:48:18.883Z</time></trkpt><trkpt lat="44.7098991" lon="9.4824362"><ele>1161.142857142857</ele><time>2026-04-19T10:48:19.894Z</time></trkpt><trkpt lat="44.7099005" lon="9.4823444"><ele>1162.2857142857144</ele><time>2026-04-19T10:48:20.839Z</time></trkpt><trkpt lat="44.7099035" lon="9.4822492"><ele>1163.4285714285716</ele><time>2026-04-19T10:48:21.866Z</time></trkpt><trkpt lat="44.7098919" lon="9.4821455"><ele>1164.5714285714287</ele><time>2026-04-19T10:48:22.846Z</time></trkpt><trkpt lat="44.709876" lon="9.4820398"><ele>1165.7142857142858</ele><time>2026-04-19T10:48:23.877Z</time></trkpt><trkpt lat="44.7098595" lon="9.4819423"><ele>1166.857142857143</ele><time>2026-04-19T10:48:24.893Z</time></trkpt><trkpt lat="44.7098806" lon="9.4818552"><ele>1168.0</ele><time>2026-04-19T10:48:25.903Z</time></trkpt><trkpt lat="44.7099037" lon="9.4817723"><ele>1170.25</ele><time>2026-04-19T10:48:26.929Z</time></trkpt><trkpt lat="44.7099091" lon="9.4816131"><ele>1172.5</ele><time>2026-04-19T10:48:28.914Z</time></trkpt><trkpt lat="44.7099191" lon="9.481461"><ele>1174.75</ele><time>2026-04-19T10:48:30.884Z</time></trkpt><trkpt lat="44.7099335" lon="9.4813689"><ele>1177.0</ele><time>2026-04-19T10:48:31.904Z</time></trkpt><trkpt lat="44.7099928" lon="9.4811431"><ele>1178.6</ele><time>2026-04-19T10:48:35.075Z</time></trkpt><trkpt lat="44.7100441" lon="9.480995"><ele>1180.2</ele><time>2026-04-19T10:48:36.871Z</time></trkpt><trkpt lat="44.7100698" lon="9.4809059"><ele>1181.8</ele><time>2026-04-19T10:48:37.818Z</time></trkpt><trkpt lat="44.7100951" lon="9.4808132"><ele>1183.4</ele><time>2026-04-19T10:48:38.839Z</time></trkpt><trkpt lat="44.7101174" lon="9.4807192"><ele>1185.0</ele><time>2026-04-19T10:48:39.892Z</time></trkpt><trkpt lat="44.7101681" lon="9.480556"><ele>1185.0</ele><time>2026-04-19T10:48:41.875Z</time></trkpt><trkpt lat="44.7102026" lon="9.4804801"><ele>1185.0</ele><time>2026-04-19T10:48:42.876Z</time></trkpt><trkpt lat="44.7102664" lon="9.480323"><ele>1185.0</ele><time>2026-04-19T10:48:44.879Z</time></trkpt><trkpt lat="44.7102968" lon="9.4802285"><ele>1185.0</ele><time>2026-04-19T10:48:45.897Z</time></trkpt><trkpt lat="44.7103248" lon="9.4801266"><ele>1185.0</ele><time>2026-04-19T10:48:47.035Z</time></trkpt><trkpt lat="44.7103557" lon="9.4799827"><ele>1184.6</ele><time>2026-04-19T10:48:48.88Z</time></trkpt><trkpt lat="44.7103753" lon="9.4798289"><ele>1184.2</ele><time>2026-04-19T10:48:50.842Z</time></trkpt><trkpt lat="44.71037" lon="9.4796586"><ele>1183.8</ele><time>2026-04-19T10:48:52.86Z</time></trkpt><trkpt lat="44.710362" lon="9.4795061"><ele>1183.4</ele><time>2026-04-19T10:48:54.886Z</time></trkpt><trkpt lat="44.7103927" lon="9.47937"><ele>1183.0</ele><time>2026-04-19T10:48:56.915Z</time></trkpt><trkpt lat="44.7104271" lon="9.4792418"><ele>1186.4</ele><time>2026-04-19T10:48:58.871Z</time></trkpt><trkpt lat="44.7104553" lon="9.4791046"><ele>1189.8</ele><time>2026-04-19T10:49:00.865Z</time></trkpt><trkpt lat="44.7104745" lon="9.4790191"><ele>1193.2</ele><time>2026-04-19T10:49:01.947Z</time></trkpt><trkpt lat="44.7105118" lon="9.4788713"><ele>1196.6</ele><time>2026-04-19T10:49:03.864Z</time></trkpt><trkpt lat="44.7105242" lon="9.4787558"><ele>1200.0</ele><time>2026-04-19T10:49:05.844Z</time></trkpt><trkpt lat="44.7104982" lon="9.4786289"><ele>1201.3333333333333</ele><time>2026-04-19T10:49:07.87Z</time></trkpt><trkpt lat="44.7104306" lon="9.4785288"><ele>1202.6666666666667</ele><time>2026-04-19T10:49:09.842Z</time></trkpt><trkpt lat="44.7103898" lon="9.478426"><ele>1204.0</ele><time>2026-04-19T10:49:11.847Z</time></trkpt><trkpt lat="44.7103765" lon="9.4783262"><ele>1205.3333333333335</ele><time>2026-04-19T10:49:13.887Z</time></trkpt><trkpt lat="44.7104116" lon="9.4781688"><ele>1206.6666666666667</ele><time>2026-04-19T10:49:16.906Z</time></trkpt><trkpt lat="44.7104071" lon="9.4780677"><ele>1208.0</ele><time>2026-04-19T10:49:17.839Z</time></trkpt><trkpt lat="44.7103855" lon="9.4779763"><ele>1207.8333333333335</ele><time>2026-04-19T10:49:18.857Z</time></trkpt><trkpt lat="44.7103417" lon="9.4778944"><ele>1207.6666666666667</ele><time>2026-04-19T10:49:19.845Z</time></trkpt><trkpt lat="44.7102901" lon="9.4778293"><ele>1207.5</ele><time>2026-04-19T10:49:20.848Z</time></trkpt><trkpt lat="44.710225" lon="9.4777428"><ele>1207.3333333333333</ele><time>2026-04-19T10:49:22.82Z</time></trkpt><trkpt lat="44.7101327" lon="9.477626"><ele>1207.1666666666665</ele><time>2026-04-19T10:49:24.87Z</time></trkpt><trkpt lat="44.7100767" lon="9.4775472"><ele>1207.0</ele><time>2026-04-19T10:49:25.859Z</time></trkpt><trkpt lat="44.7100214" lon="9.4774752"><ele>1209.8333333333333</ele><time>2026-04-19T10:49:26.825Z</time></trkpt><trkpt lat="44.7099687" lon="9.4773857"><ele>1212.6666666666665</ele><time>2026-04-19T10:49:27.866Z</time></trkpt><trkpt lat="44.7099242" lon="9.4772909"><ele>1215.5</ele><time>2026-04-19T10:49:28.857Z</time></trkpt><trkpt lat="44.7098817" lon="9.4771721"><ele>1218.3333333333333</ele><time>2026-04-19T10:49:29.828Z</time></trkpt><trkpt lat="44.7098641" lon="9.4770581"><ele>1221.1666666666667</ele><time>2026-04-19T10:49:30.86Z</time></trkpt><trkpt lat="44.7098785" lon="9.4769102"><ele>1224.0</ele><time>2026-04-19T10:49:31.843Z</time></trkpt><trkpt lat="44.7099009" lon="9.4767741"><ele>1224.0</ele><time>2026-04-19T10:49:32.869Z</time></trkpt><trkpt lat="44.7099147" lon="9.4766471"><ele>1224.0</ele><time>2026-04-19T10:49:33.86Z</time></trkpt><trkpt lat="44.7099169" lon="9.4765107"><ele>1224.0</ele><time>2026-04-19T10:49:34.976Z</time></trkpt><trkpt lat="44.7099013" lon="9.4764029"><ele>1224.0</ele><time>2026-04-19T10:49:35.891Z</time></trkpt><trkpt lat="44.7098805" lon="9.4762841"><ele>1224.0</ele><time>2026-04-19T10:49:36.878Z</time></trkpt><trkpt lat="44.7098614" lon="9.4761625"><ele>1224.0</ele><time>2026-04-19T10:49:37.825Z</time></trkpt><trkpt lat="44.7098402" lon="9.4759994"><ele>1224.5</ele><time>2026-04-19T10:49:39.004Z</time></trkpt><trkpt lat="44.7098301" lon="9.4756916"><ele>1225.0</ele><time>2026-04-19T10:49:40.841Z</time></trkpt><trkpt lat="44.7098384" lon="9.4755459"><ele>1225.5</ele><time>2026-04-19T10:49:41.825Z</time></trkpt><trkpt lat="44.7098639" lon="9.4754167"><ele>1226.0</ele><time>2026-04-19T10:49:42.847Z</time></trkpt><trkpt lat="44.7099134" lon="9.4753002"><ele>1228.25</ele><time>2026-04-19T10:49:43.843Z</time></trkpt><trkpt lat="44.710002" lon="9.4751926"><ele>1230.5</ele><time>2026-04-19T10:49:44.972Z</time></trkpt><trkpt lat="44.7100972" lon="9.4751169"><ele>1232.75</ele><time>2026-04-19T10:49:45.882Z</time></trkpt><trkpt lat="44.7101914" lon="9.4750256"><ele>1235.0</ele><time>2026-04-19T10:49:46.85Z</time></trkpt><trkpt lat="44.7102735" lon="9.4748948"><ele>1233.25</ele><time>2026-04-19T10:49:47.893Z</time></trkpt><trkpt lat="44.7103267" lon="9.4747372"><ele>1231.5</ele><time>2026-04-19T10:49:48.844Z</time></trkpt><trkpt lat="44.7103898" lon="9.474549"><ele>1229.75</ele><time>2026-04-19T10:49:49.901Z</time></trkpt><trkpt lat="44.7104646" lon="9.4743691"><ele>1228.0</ele><time>2026-04-19T10:49:50.875Z</time></trkpt><trkpt lat="44.7105419" lon="9.4741992"><ele>1228.0</ele><time>2026-04-19T10:49:51.855Z</time></trkpt><trkpt lat="44.7106082" lon="9.4740243"><ele>1228.0</ele><time>2026-04-19T10:49:52.838Z</time></trkpt><trkpt lat="44.7106728" lon="9.4738307"><ele>1228.0</ele><time>2026-04-19T10:49:53.9Z</time></trkpt><trkpt lat="44.7107331" lon="9.4736723"><ele>1228.0</ele><time>2026-04-19T10:49:54.827Z</time></trkpt><trkpt lat="44.7107981" lon="9.4735064"><ele>1227.5</ele><time>2026-04-19T10:49:55.832Z</time></trkpt><trkpt lat="44.7108612" lon="9.4733567"><ele>1227.0</ele><time>2026-04-19T10:49:56.848Z</time></trkpt><trkpt lat="44.7109307" lon="9.4732385"><ele>1226.5</ele><time>2026-04-19T10:49:57.786Z</time></trkpt><trkpt lat="44.7110286" lon="9.473151"><ele>1226.0</ele><time>2026-04-19T10:49:58.829Z</time></trkpt><trkpt lat="44.711135" lon="9.473098"><ele>1226.0</ele><time>2026-04-19T10:49:59.807Z</time></trkpt><trkpt lat="44.7112579" lon="9.473083"><ele>1226.0</ele><time>2026-04-19T10:50:00.814Z</time></trkpt><trkpt lat="44.7113713" lon="9.4730932"><ele>1226.0</ele><time>2026-04-19T10:50:01.853Z</time></trkpt><trkpt lat="44.7114776" lon="9.4730736"><ele>1226.0</ele><time>2026-04-19T10:50:02.989Z</time></trkpt><trkpt lat="44.711591" lon="9.4729824"><ele>1228.3999999999999</ele><time>2026-04-19T10:50:04.825Z</time></trkpt><trkpt lat="44.7116293" lon="9.4728821"><ele>1230.8</ele><time>2026-04-19T10:50:05.827Z</time></trkpt><trkpt lat="44.7116558" lon="9.472766"><ele>1233.1999999999998</ele><time>2026-04-19T10:50:06.827Z</time></trkpt><trkpt lat="44.7117002" lon="9.4726328"><ele>1235.6</ele><time>2026-04-19T10:50:07.886Z</time></trkpt><trkpt lat="44.7117542" lon="9.4725377"><ele>1238.0</ele><time>2026-04-19T10:50:08.849Z</time></trkpt><trkpt lat="44.7118662" lon="9.4724114"><ele>1238.0</ele><time>2026-04-19T10:50:09.876Z</time></trkpt><trkpt lat="44.7120002" lon="9.4723079"><ele>1238.0</ele><time>2026-04-19T10:50:10.85Z</time></trkpt><trkpt lat="44.7121581" lon="9.4721895"><ele>1238.0</ele><time>2026-04-19T10:50:11.873Z</time></trkpt><trkpt lat="44.7122858" lon="9.4720952"><ele>1238.0</ele><time>2026-04-19T10:50:12.865Z</time></trkpt><trkpt lat="44.7124053" lon="9.4720009"><ele>1238.0</ele><time>2026-04-19T10:50:13.889Z</time></trkpt><trkpt lat="44.7124977" lon="9.4718783"><ele>1238.0</ele><time>2026-04-19T10:50:14.827Z</time></trkpt><trkpt lat="44.7125843" lon="9.4717272"><ele>1238.0</ele><time>2026-04-19T10:50:15.91Z</time></trkpt><trkpt lat="44.7126488" lon="9.4716339"><ele>1238.0</ele><time>2026-04-19T10:50:16.833Z</time></trkpt><trkpt lat="44.7127289" lon="9.4715693"><ele>1238.0</ele><time>2026-04-19T10:50:17.862Z</time></trkpt><trkpt lat="44.7128279" lon="9.4715604"><ele>1238.0</ele><time>2026-04-19T10:50:18.83Z</time></trkpt><trkpt lat="44.7129541" lon="9.4716102"><ele>1238.0</ele><time>2026-04-19T10:50:19.852Z</time></trkpt><trkpt lat="44.7130952" lon="9.4717056"><ele>1236.0</ele><time>2026-04-19T10:50:20.818Z</time></trkpt><trkpt lat="44.7132246" lon="9.471801"><ele>1234.0</ele><time>2026-04-19T10:50:21.847Z</time></trkpt><trkpt lat="44.7133487" lon="9.4718645"><ele>1232.0</ele><time>2026-04-19T10:50:22.847Z</time></trkpt><trkpt lat="44.7134678" lon="9.4719004"><ele>1230.0</ele><time>2026-04-19T10:50:23.996Z</time></trkpt><trkpt lat="44.7135807" lon="9.4718002"><ele>1228.2</ele><time>2026-04-19T10:50:25.849Z</time></trkpt><trkpt lat="44.7136164" lon="9.4716926"><ele>1226.4</ele><time>2026-04-19T10:50:26.837Z</time></trkpt><trkpt lat="44.7136222" lon="9.4715664"><ele>1224.6</ele><time>2026-04-19T10:50:27.862Z</time></trkpt><trkpt lat="44.7136039" lon="9.471439"><ele>1222.8</ele><time>2026-04-19T10:50:28.854Z</time></trkpt><trkpt lat="44.7135895" lon="9.4712761"><ele>1221.0</ele><time>2026-04-19T10:50:29.913Z</time></trkpt><trkpt lat="44.7136175" lon="9.4711203"><ele>1221.0</ele><time>2026-04-19T10:50:30.873Z</time></trkpt><trkpt lat="44.7137015" lon="9.4709403"><ele>1221.0</ele><time>2026-04-19T10:50:32.021Z</time></trkpt><trkpt lat="44.7138892" lon="9.470711"><ele>1221.0</ele><time>2026-04-19T10:50:33.818Z</time></trkpt><trkpt lat="44.714004" lon="9.4706298"><ele>1221.0</ele><time>2026-04-19T10:50:34.812Z</time></trkpt><trkpt lat="44.7141129" lon="9.4705378"><ele>1221.0</ele><time>2026-04-19T10:50:35.872Z</time></trkpt><trkpt lat="44.7141638" lon="9.4704258"><ele>1221.0</ele><time>2026-04-19T10:50:36.867Z</time></trkpt><trkpt lat="44.7141856" lon="9.4702795"><ele>1221.0</ele><time>2026-04-19T10:50:37.984Z</time></trkpt><trkpt lat="44.7141301" lon="9.4699596"><ele>1222.0</ele><time>2026-04-19T10:50:39.869Z</time></trkpt><trkpt lat="44.7140656" lon="9.4698464"><ele>1223.0</ele><time>2026-04-19T10:50:40.832Z</time></trkpt><trkpt lat="44.7140237" lon="9.4697485"><ele>1224.0</ele><time>2026-04-19T10:50:41.795Z</time></trkpt><trkpt lat="44.714006" lon="9.4696478"><ele>1225.0</ele><time>2026-04-19T10:50:42.815Z</time></trkpt><trkpt lat="44.714035" lon="9.4695546"><ele>1226.0</ele><time>2026-04-19T10:50:43.814Z</time></trkpt><trkpt lat="44.7141166" lon="9.4695033"><ele>1227.0</ele><time>2026-04-19T10:50:44.824Z</time></trkpt><trkpt lat="44.7142648" lon="9.4694639"><ele>1228.5</ele><time>2026-04-19T10:50:45.914Z</time></trkpt><trkpt lat="44.7144024" lon="9.4694001"><ele>1230.0</ele><time>2026-04-19T10:50:46.835Z</time></trkpt><trkpt lat="44.7145213" lon="9.4692757"><ele>1231.5</ele><time>2026-04-19T10:50:47.824Z</time></trkpt><trkpt lat="44.714595" lon="9.4691337"><ele>1233.0</ele><time>2026-04-19T10:50:48.907Z</time></trkpt><trkpt lat="44.7146237" lon="9.4690095"><ele>1227.75</ele><time>2026-04-19T10:50:49.876Z</time></trkpt><trkpt lat="44.7146179" lon="9.4688719"><ele>1222.5</ele><time>2026-04-19T10:50:50.808Z</time></trkpt><trkpt lat="44.7145915" lon="9.4687036"><ele>1217.25</ele><time>2026-04-19T10:50:51.829Z</time></trkpt><trkpt lat="44.7145486" lon="9.4685315"><ele>1212.0</ele><time>2026-04-19T10:50:52.832Z</time></trkpt><trkpt lat="44.7145026" lon="9.4683519"><ele>1212.0</ele><time>2026-04-19T10:50:53.836Z</time></trkpt><trkpt lat="44.7144617" lon="9.4681859"><ele>1212.0</ele><time>2026-04-19T10:50:54.82Z</time></trkpt><trkpt lat="44.7144268" lon="9.4680323"><ele>1212.0</ele><time>2026-04-19T10:50:55.807Z</time></trkpt><trkpt lat="44.714375" lon="9.4678897"><ele>1212.0</ele><time>2026-04-19T10:50:56.876Z</time></trkpt><trkpt lat="44.7142967" lon="9.4677937"><ele>1215.6666666666667</ele><time>2026-04-19T10:50:57.863Z</time></trkpt><trkpt lat="44.7141823" lon="9.4677273"><ele>1219.3333333333335</ele><time>2026-04-19T10:50:58.871Z</time></trkpt><trkpt lat="44.7139112" lon="9.4675939"><ele>1223.0</ele><time>2026-04-19T10:51:00.833Z</time></trkpt><trkpt lat="44.7137839" lon="9.467482"><ele>1223.0</ele><time>2026-04-19T10:51:01.857Z</time></trkpt><trkpt lat="44.7136792" lon="9.4673384"><ele>1223.0</ele><time>2026-04-19T10:51:02.855Z</time></trkpt><trkpt lat="44.7136175" lon="9.4671804"><ele>1223.0</ele><time>2026-04-19T10:51:03.874Z</time></trkpt><trkpt lat="44.7135884" lon="9.4670393"><ele>1223.0</ele><time>2026-04-19T10:51:04.854Z</time></trkpt><trkpt lat="44.7135857" lon="9.4668874"><ele>1222.5</ele><time>2026-04-19T10:51:05.838Z</time></trkpt><trkpt lat="44.713607" lon="9.4667173"><ele>1222.0</ele><time>2026-04-19T10:51:06.823Z</time></trkpt><trkpt lat="44.7136285" lon="9.4665377"><ele>1221.5</ele><time>2026-04-19T10:51:07.786Z</time></trkpt><trkpt lat="44.7136429" lon="9.4663387"><ele>1221.0</ele><time>2026-04-19T10:51:08.857Z</time></trkpt><trkpt lat="44.7136691" lon="9.4661807"><ele>1221.0</ele><time>2026-04-19T10:51:09.858Z</time></trkpt><trkpt lat="44.7137273" lon="9.4660388"><ele>1221.0</ele><time>2026-04-19T10:51:10.825Z</time></trkpt><trkpt lat="44.713823" lon="9.4659033"><ele>1221.0</ele><time>2026-04-19T10:51:11.846Z</time></trkpt><trkpt lat="44.7139323" lon="9.4657938"><ele>1221.0</ele><time>2026-04-19T10:51:12.823Z</time></trkpt><trkpt lat="44.7140352" lon="9.4656722"><ele>1221.0</ele><time>2026-04-19T10:51:13.925Z</time></trkpt><trkpt lat="44.7140891" lon="9.4655594"><ele>1221.0</ele><time>2026-04-19T10:51:14.849Z</time></trkpt><trkpt lat="44.714117" lon="9.4654123"><ele>1221.0</ele><time>2026-04-19T10:51:15.88Z</time></trkpt><trkpt lat="44.7141057" lon="9.4652451"><ele>1221.0</ele><time>2026-04-19T10:51:16.889Z</time></trkpt><trkpt lat="44.7140606" lon="9.4650793"><ele>1220.5</ele><time>2026-04-19T10:51:17.859Z</time></trkpt><trkpt lat="44.7139986" lon="9.4648968"><ele>1220.0</ele><time>2026-04-19T10:51:18.834Z</time></trkpt><trkpt lat="44.7139241" lon="9.4647333"><ele>1219.5</ele><time>2026-04-19T10:51:19.864Z</time></trkpt><trkpt lat="44.7138377" lon="9.464599"><ele>1219.0</ele><time>2026-04-19T10:51:20.905Z</time></trkpt><trkpt lat="44.7137592" lon="9.4644912"><ele>1218.25</ele><time>2026-04-19T10:51:21.889Z</time></trkpt><trkpt lat="44.713689" lon="9.4643617"><ele>1217.5</ele><time>2026-04-19T10:51:23.028Z</time></trkpt><trkpt lat="44.7136553" lon="9.4640868"><ele>1216.75</ele><time>2026-04-19T10:51:24.886Z</time></trkpt><trkpt lat="44.7136718" lon="9.4639081"><ele>1216.0</ele><time>2026-04-19T10:51:25.941Z</time></trkpt><trkpt lat="44.7137175" lon="9.4637482"><ele>1215.5</ele><time>2026-04-19T10:51:26.872Z</time></trkpt><trkpt lat="44.7138036" lon="9.463582"><ele>1215.0</ele><time>2026-04-19T10:51:27.959Z</time></trkpt><trkpt lat="44.7138936" lon="9.4634529"><ele>1214.5</ele><time>2026-04-19T10:51:28.903Z</time></trkpt><trkpt lat="44.7139999" lon="9.4633267"><ele>1214.0</ele><time>2026-04-19T10:51:29.891Z</time></trkpt><trkpt lat="44.7141037" lon="9.4632366"><ele>1214.0</ele><time>2026-04-19T10:51:30.856Z</time></trkpt><trkpt lat="44.7142313" lon="9.4631786"><ele>1214.0</ele><time>2026-04-19T10:51:32.005Z</time></trkpt><trkpt lat="44.7143445" lon="9.4631653"><ele>1214.0</ele><time>2026-04-19T10:51:33.047Z</time></trkpt><trkpt lat="44.7145637" lon="9.4631791"><ele>1213.25</ele><time>2026-04-19T10:51:34.995Z</time></trkpt><trkpt lat="44.7147693" lon="9.4632357"><ele>1212.5</ele><time>2026-04-19T10:51:36.859Z</time></trkpt><trkpt lat="44.7148629" lon="9.4632606"><ele>1211.75</ele><time>2026-04-19T10:51:37.874Z</time></trkpt><trkpt lat="44.7149454" lon="9.4632678"><ele>1211.0</ele><time>2026-04-19T10:51:38.889Z</time></trkpt><trkpt lat="44.715018" lon="9.4632617"><ele>1211.0</ele><time>2026-04-19T10:51:39.9Z</time></trkpt><trkpt lat="44.7150918" lon="9.4632363"><ele>1211.0</ele><time>2026-04-19T10:51:40.958Z</time></trkpt><trkpt lat="44.7151606" lon="9.463182"><ele>1211.0</ele><time>2026-04-19T10:51:41.931Z</time></trkpt><trkpt lat="44.7152229" lon="9.4631077"><ele>1211.0</ele><time>2026-04-19T10:51:42.844Z</time></trkpt><trkpt lat="44.7152831" lon="9.46302"><ele>1211.0</ele><time>2026-04-19T10:51:43.878Z</time></trkpt><trkpt lat="44.7153511" lon="9.4629182"><ele>1211.0</ele><time>2026-04-19T10:51:44.957Z</time></trkpt><trkpt lat="44.7154037" lon="9.4628253"><ele>1209.8</ele><time>2026-04-19T10:51:45.901Z</time></trkpt><trkpt lat="44.7154375" lon="9.4627174"><ele>1208.6</ele><time>2026-04-19T10:51:46.894Z</time></trkpt><trkpt lat="44.7154364" lon="9.4626038"><ele>1207.4</ele><time>2026-04-19T10:51:47.875Z</time></trkpt><trkpt lat="44.7154043" lon="9.4624781"><ele>1206.2</ele><time>2026-04-19T10:51:48.942Z</time></trkpt><trkpt lat="44.7153315" lon="9.4623732"><ele>1205.0</ele><time>2026-04-19T10:51:49.879Z</time></trkpt><trkpt lat="44.7152566" lon="9.4622507"><ele>1205.5</ele><time>2026-04-19T10:51:50.904Z</time></trkpt><trkpt lat="44.7152079" lon="9.4620843"><ele>1206.0</ele><time>2026-04-19T10:51:52.095Z</time></trkpt><trkpt lat="44.7152295" lon="9.4618511"><ele>1206.5</ele><time>2026-04-19T10:51:53.853Z</time></trkpt><trkpt lat="44.7152738" lon="9.4617513"><ele>1207.0</ele><time>2026-04-19T10:51:54.886Z</time></trkpt><trkpt lat="44.715336" lon="9.4616886"><ele>1207.0</ele><time>2026-04-19T10:51:55.849Z</time></trkpt><trkpt lat="44.7154212" lon="9.4616457"><ele>1207.0</ele><time>2026-04-19T10:51:56.907Z</time></trkpt><trkpt lat="44.7155007" lon="9.4616233"><ele>1207.0</ele><time>2026-04-19T10:51:57.895Z</time></trkpt><trkpt lat="44.7155823" lon="9.4616125"><ele>1207.0</ele><time>2026-04-19T10:51:58.88Z</time></trkpt><trkpt lat="44.7156673" lon="9.4616141"><ele>1207.0</ele><time>2026-04-19T10:51:59.868Z</time></trkpt><trkpt lat="44.7157639" lon="9.4616295"><ele>1207.0</ele><time>2026-04-19T10:52:00.852Z</time></trkpt><trkpt lat="44.7158711" lon="9.4616586"><ele>1207.0</ele><time>2026-04-19T10:52:01.89Z</time></trkpt><trkpt lat="44.715982" lon="9.4616674"><ele>1207.0</ele><time>2026-04-19T10:52:02.917Z</time></trkpt><trkpt lat="44.7160872" lon="9.4616443"><ele>1207.0</ele><time>2026-04-19T10:52:03.937Z</time></trkpt><trkpt lat="44.7161895" lon="9.461572"><ele>1207.0</ele><time>2026-04-19T10:52:04.917Z</time></trkpt><trkpt lat="44.7163003" lon="9.4614597"><ele>1206.3333333333333</ele><time>2026-04-19T10:52:05.897Z</time></trkpt><trkpt lat="44.7164256" lon="9.4613492"><ele>1205.6666666666667</ele><time>2026-04-19T10:52:06.899Z</time></trkpt><trkpt lat="44.716564" lon="9.4612502"><ele>1205.0</ele><time>2026-04-19T10:52:07.917Z</time></trkpt><trkpt lat="44.7167142" lon="9.4611613"><ele>1205.0</ele><time>2026-04-19T10:52:09.02Z</time></trkpt><trkpt lat="44.7168158" lon="9.4610654"><ele>1205.0</ele><time>2026-04-19T10:52:09.866Z</time></trkpt><trkpt lat="44.7169292" lon="9.4609355"><ele>1205.0</ele><time>2026-04-19T10:52:10.926Z</time></trkpt><trkpt lat="44.7170259" lon="9.4608449"><ele>1205.0</ele><time>2026-04-19T10:52:11.893Z</time></trkpt><trkpt lat="44.7171305" lon="9.4607801"><ele>1206.75</ele><time>2026-04-19T10:52:12.862Z</time></trkpt><trkpt lat="44.717255" lon="9.4607407"><ele>1208.5</ele><time>2026-04-19T10:52:13.905Z</time></trkpt><trkpt lat="44.7173757" lon="9.4607312"><ele>1210.25</ele><time>2026-04-19T10:52:14.855Z</time></trkpt><trkpt lat="44.7175191" lon="9.4607257"><ele>1212.0</ele><time>2026-04-19T10:52:15.924Z</time></trkpt><trkpt lat="44.717653" lon="9.4607151"><ele>1212.0</ele><time>2026-04-19T10:52:16.878Z</time></trkpt><trkpt lat="44.717803" lon="9.4606914"><ele>1212.0</ele><time>2026-04-19T10:52:17.944Z</time></trkpt><trkpt lat="44.7179372" lon="9.4606588"><ele>1212.0</ele><time>2026-04-19T10:52:18.883Z</time></trkpt><trkpt lat="44.7180808" lon="9.4606062"><ele>1212.0</ele><time>2026-04-19T10:52:19.995Z</time></trkpt><trkpt lat="44.7182781" lon="9.4605286"><ele>1212.0</ele><time>2026-04-19T10:52:21.859Z</time></trkpt><trkpt lat="44.7183942" lon="9.4604916"><ele>1212.0</ele><time>2026-04-19T10:52:22.845Z</time></trkpt><trkpt lat="44.7185462" lon="9.4604139"><ele>1212.0</ele><time>2026-04-19T10:52:23.948Z</time></trkpt><trkpt lat="44.7188116" lon="9.4601761"><ele>1212.0</ele><time>2026-04-19T10:52:25.851Z</time></trkpt><trkpt lat="44.7189504" lon="9.4600449"><ele>1212.0</ele><time>2026-04-19T10:52:26.886Z</time></trkpt><trkpt lat="44.7190607" lon="9.4599164"><ele>1212.0</ele><time>2026-04-19T10:52:27.858Z</time></trkpt><trkpt lat="44.7191576" lon="9.459781"><ele>1212.0</ele><time>2026-04-19T10:52:28.845Z</time></trkpt><trkpt lat="44.7192447" lon="9.4596496"><ele>1212.2</ele><time>2026-04-19T10:52:29.855Z</time></trkpt><trkpt lat="44.7193284" lon="9.4595344"><ele>1212.4</ele><time>2026-04-19T10:52:30.892Z</time></trkpt><trkpt lat="44.7194036" lon="9.4594606"><ele>1212.6</ele><time>2026-04-19T10:52:31.836Z</time></trkpt><trkpt lat="44.7194856" lon="9.4594204"><ele>1212.8</ele><time>2026-04-19T10:52:32.868Z</time></trkpt><trkpt lat="44.7195639" lon="9.4594305"><ele>1213.0</ele><time>2026-04-19T10:52:33.913Z</time></trkpt><trkpt lat="44.7196422" lon="9.4594815"><ele>1213.0</ele><time>2026-04-19T10:52:34.863Z</time></trkpt><trkpt lat="44.7197173" lon="9.459522"><ele>1213.0</ele><time>2026-04-19T10:52:35.835Z</time></trkpt><trkpt lat="44.7197934" lon="9.4595397"><ele>1213.0</ele><time>2026-04-19T10:52:36.82Z</time></trkpt><trkpt lat="44.7198564" lon="9.4595285"><ele>1213.0</ele><time>2026-04-19T10:52:37.898Z</time></trkpt><trkpt lat="44.7199364" lon="9.4594763"><ele>1213.0</ele><time>2026-04-19T10:52:39.822Z</time></trkpt><trkpt lat="44.7199961" lon="9.4593565"><ele>1213.0</ele><time>2026-04-19T10:52:41.877Z</time></trkpt><trkpt lat="44.7200278" lon="9.4592549"><ele>1213.0</ele><time>2026-04-19T10:52:42.875Z</time></trkpt><trkpt lat="44.7200712" lon="9.4591226"><ele>1213.0</ele><time>2026-04-19T10:52:43.903Z</time></trkpt><trkpt lat="44.7201164" lon="9.4589718"><ele>1213.0</ele><time>2026-04-19T10:52:44.848Z</time></trkpt><trkpt lat="44.7201776" lon="9.4587973"><ele>1213.0</ele><time>2026-04-19T10:52:45.87Z</time></trkpt><trkpt lat="44.7202562" lon="9.4586225"><ele>1211.75</ele><time>2026-04-19T10:52:46.851Z</time></trkpt><trkpt lat="44.7203273" lon="9.4584471"><ele>1210.5</ele><time>2026-04-19T10:52:47.831Z</time></trkpt><trkpt lat="44.7203765" lon="9.4582648"><ele>1209.25</ele><time>2026-04-19T10:52:48.84Z</time></trkpt><trkpt lat="44.7204223" lon="9.4580789"><ele>1208.0</ele><time>2026-04-19T10:52:49.87Z</time></trkpt><trkpt lat="44.7204757" lon="9.4579134"><ele>1208.0</ele><time>2026-04-19T10:52:50.868Z</time></trkpt><trkpt lat="44.7205372" lon="9.4577486"><ele>1208.0</ele><time>2026-04-19T10:52:51.856Z</time></trkpt><trkpt lat="44.7205942" lon="9.4575792"><ele>1208.0</ele><time>2026-04-19T10:52:52.825Z</time></trkpt><trkpt lat="44.7206442" lon="9.4573965"><ele>1208.0</ele><time>2026-04-19T10:52:53.83Z</time></trkpt><trkpt lat="44.7206918" lon="9.4571936"><ele>1204.75</ele><time>2026-04-19T10:52:54.898Z</time></trkpt><trkpt lat="44.7207332" lon="9.4570125"><ele>1201.5</ele><time>2026-04-19T10:52:55.865Z</time></trkpt><trkpt lat="44.7207777" lon="9.456816"><ele>1198.25</ele><time>2026-04-19T10:52:56.877Z</time></trkpt><trkpt lat="44.7208265" lon="9.4565958"><ele>1195.0</ele><time>2026-04-19T10:52:57.983Z</time></trkpt><trkpt lat="44.7208667" lon="9.4564167"><ele>1192.6666666666665</ele><time>2026-04-19T10:52:58.897Z</time></trkpt><trkpt lat="44.720909" lon="9.4562037"><ele>1190.3333333333333</ele><time>2026-04-19T10:52:59.991Z</time></trkpt><trkpt lat="44.7209751" lon="9.4558562"><ele>1188.0</ele><time>2026-04-19T10:53:01.889Z</time></trkpt><trkpt lat="44.7210175" lon="9.4556824"><ele>1188.0</ele><time>2026-04-19T10:53:02.886Z</time></trkpt><trkpt lat="44.7210644" lon="9.4555165"><ele>1188.0</ele><time>2026-04-19T10:53:03.827Z</time></trkpt><trkpt lat="44.7211225" lon="9.4553359"><ele>1188.0</ele><time>2026-04-19T10:53:04.889Z</time></trkpt><trkpt lat="44.7211823" lon="9.4551711"><ele>1188.0</ele><time>2026-04-19T10:53:05.884Z</time></trkpt><trkpt lat="44.7212491" lon="9.4550046"><ele>1189.75</ele><time>2026-04-19T10:53:06.926Z</time></trkpt><trkpt lat="44.7213074" lon="9.4548599"><ele>1191.5</ele><time>2026-04-19T10:53:07.903Z</time></trkpt><trkpt lat="44.7213554" lon="9.4547292"><ele>1193.25</ele><time>2026-04-19T10:53:08.84Z</time></trkpt><trkpt lat="44.7213801" lon="9.4545715"><ele>1195.0</ele><time>2026-04-19T10:53:09.987Z</time></trkpt><trkpt lat="44.7213153" lon="9.4543057"><ele>1195.25</ele><time>2026-04-19T10:53:11.816Z</time></trkpt><trkpt lat="44.7212247" lon="9.4541719"><ele>1195.5</ele><time>2026-04-19T10:53:12.868Z</time></trkpt><trkpt lat="44.7211297" lon="9.454044"><ele>1195.75</ele><time>2026-04-19T10:53:13.835Z</time></trkpt><trkpt lat="44.7210316" lon="9.4538899"><ele>1196.0</ele><time>2026-04-19T10:53:14.893Z</time></trkpt><trkpt lat="44.72096" lon="9.4537329"><ele>1192.0</ele><time>2026-04-19T10:53:15.858Z</time></trkpt><trkpt lat="44.7209033" lon="9.4535546"><ele>1188.0</ele><time>2026-04-19T10:53:16.893Z</time></trkpt><trkpt lat="44.7208664" lon="9.4533883"><ele>1184.0</ele><time>2026-04-19T10:53:17.894Z</time></trkpt><trkpt lat="44.7208412" lon="9.4532175"><ele>1180.0</ele><time>2026-04-19T10:53:18.853Z</time></trkpt><trkpt lat="44.720827" lon="9.4530272"><ele>1177.75</ele><time>2026-04-19T10:53:19.898Z</time></trkpt><trkpt lat="44.7208219" lon="9.4528354"><ele>1175.5</ele><time>2026-04-19T10:53:20.918Z</time></trkpt><trkpt lat="44.7208187" lon="9.4526498"><ele>1173.25</ele><time>2026-04-19T10:53:21.924Z</time></trkpt><trkpt lat="44.7208139" lon="9.4524856"><ele>1171.0</ele><time>2026-04-19T10:53:22.876Z</time></trkpt><trkpt lat="44.7208316" lon="9.4523327"><ele>1171.0</ele><time>2026-04-19T10:53:23.835Z</time></trkpt><trkpt lat="44.7208792" lon="9.4521652"><ele>1171.0</ele><time>2026-04-19T10:53:24.861Z</time></trkpt><trkpt lat="44.7209358" lon="9.4520073"><ele>1171.0</ele><time>2026-04-19T10:53:25.873Z</time></trkpt><trkpt lat="44.721009" lon="9.4518675"><ele>1171.0</ele><time>2026-04-19T10:53:26.88Z</time></trkpt><trkpt lat="44.7210985" lon="9.4517525"><ele>1172.0</ele><time>2026-04-19T10:53:27.874Z</time></trkpt><trkpt lat="44.7212019" lon="9.4516658"><ele>1173.0</ele><time>2026-04-19T10:53:28.838Z</time></trkpt><trkpt lat="44.7213226" lon="9.451587"><ele>1174.0</ele><time>2026-04-19T10:53:29.877Z</time></trkpt><trkpt lat="44.7214574" lon="9.4514879"><ele>1175.0</ele><time>2026-04-19T10:53:31.006Z</time></trkpt><trkpt lat="44.72169" lon="9.4512816"><ele>1174.0</ele><time>2026-04-19T10:53:33.04Z</time></trkpt><trkpt lat="44.7218731" lon="9.4510701"><ele>1173.0</ele><time>2026-04-19T10:53:34.915Z</time></trkpt><trkpt lat="44.7219442" lon="9.4509314"><ele>1172.0</ele><time>2026-04-19T10:53:35.879Z</time></trkpt><trkpt lat="44.7219906" lon="9.4507723"><ele>1172.0</ele><time>2026-04-19T10:53:36.898Z</time></trkpt><trkpt lat="44.7220079" lon="9.4506058"><ele>1172.0</ele><time>2026-04-19T10:53:37.898Z</time></trkpt><trkpt lat="44.7219957" lon="9.450424"><ele>1172.0</ele><time>2026-04-19T10:53:38.836Z</time></trkpt><trkpt lat="44.7219597" lon="9.450215"><ele>1172.0</ele><time>2026-04-19T10:53:39.906Z</time></trkpt><trkpt lat="44.7219241" lon="9.4500264"><ele>1164.6666666666667</ele><time>2026-04-19T10:53:40.871Z</time></trkpt><trkpt lat="44.7218944" lon="9.4497879"><ele>1157.3333333333333</ele><time>2026-04-19T10:53:42.019Z</time></trkpt><trkpt lat="44.7218615" lon="9.4494074"><ele>1150.0</ele><time>2026-04-19T10:53:43.876Z</time></trkpt><trkpt lat="44.7218433" lon="9.4492242"><ele>1148.25</ele><time>2026-04-19T10:53:44.812Z</time></trkpt><trkpt lat="44.7218335" lon="9.4490236"><ele>1146.5</ele><time>2026-04-19T10:53:45.878Z</time></trkpt><trkpt lat="44.7218383" lon="9.4488277"><ele>1144.75</ele><time>2026-04-19T10:53:46.889Z</time></trkpt><trkpt lat="44.7218585" lon="9.4486548"><ele>1143.0</ele><time>2026-04-19T10:53:47.841Z</time></trkpt><trkpt lat="44.7218848" lon="9.4484675"><ele>1141.0</ele><time>2026-04-19T10:53:48.871Z</time></trkpt><trkpt lat="44.7218994" lon="9.4482991"><ele>1139.0</ele><time>2026-04-19T10:53:49.833Z</time></trkpt><trkpt lat="44.721896" lon="9.4481106"><ele>1137.0</ele><time>2026-04-19T10:53:50.921Z</time></trkpt><trkpt lat="44.7219013" lon="9.4477702"><ele>1136.5</ele><time>2026-04-19T10:53:52.867Z</time></trkpt><trkpt lat="44.7219257" lon="9.4476077"><ele>1136.0</ele><time>2026-04-19T10:53:53.855Z</time></trkpt><trkpt lat="44.7219632" lon="9.447443"><ele>1135.5</ele><time>2026-04-19T10:53:54.87Z</time></trkpt><trkpt lat="44.7219962" lon="9.447283"><ele>1135.0</ele><time>2026-04-19T10:53:55.894Z</time></trkpt><trkpt lat="44.7220187" lon="9.4471279"><ele>1131.8</ele><time>2026-04-19T10:53:56.852Z</time></trkpt><trkpt lat="44.7220577" lon="9.446973"><ele>1128.6</ele><time>2026-04-19T10:53:57.901Z</time></trkpt><trkpt lat="44.7221214" lon="9.4468647"><ele>1125.4</ele><time>2026-04-19T10:53:58.831Z</time></trkpt><trkpt lat="44.7222134" lon="9.4467935"><ele>1122.2</ele><time>2026-04-19T10:53:59.86Z</time></trkpt><trkpt lat="44.7223351" lon="9.4467657"><ele>1119.0</ele><time>2026-04-19T10:54:00.826Z</time></trkpt><trkpt lat="44.722478" lon="9.4467375"><ele>1119.0</ele><time>2026-04-19T10:54:01.911Z</time></trkpt><trkpt lat="44.7226016" lon="9.4466776"><ele>1119.0</ele><time>2026-04-19T10:54:02.891Z</time></trkpt><trkpt lat="44.7227008" lon="9.4465728"><ele>1119.0</ele><time>2026-04-19T10:54:03.878Z</time></trkpt><trkpt lat="44.7227734" lon="9.4464054"><ele>1119.0</ele><time>2026-04-19T10:54:04.841Z</time></trkpt><trkpt lat="44.7228373" lon="9.4461899"><ele>1109.6666666666667</ele><time>2026-04-19T10:54:05.889Z</time></trkpt><trkpt lat="44.7228885" lon="9.4459683"><ele>1100.3333333333335</ele><time>2026-04-19T10:54:06.914Z</time></trkpt><trkpt lat="44.722937" lon="9.4457693"><ele>1091.0</ele><time>2026-04-19T10:54:07.868Z</time></trkpt><trkpt lat="44.7230131" lon="9.445533"><ele>1090.6666666666667</ele><time>2026-04-19T10:54:09.063Z</time></trkpt><trkpt lat="44.7231031" lon="9.4451644"><ele>1090.3333333333333</ele><time>2026-04-19T10:54:10.937Z</time></trkpt><trkpt lat="44.7231419" lon="9.4449824"><ele>1090.0</ele><time>2026-04-19T10:54:11.887Z</time></trkpt><trkpt lat="44.723206" lon="9.4448133"><ele>1090.0</ele><time>2026-04-19T10:54:12.913Z</time></trkpt><trkpt lat="44.7232989" lon="9.4446924"><ele>1090.0</ele><time>2026-04-19T10:54:13.892Z</time></trkpt><trkpt lat="44.7234023" lon="9.4445768"><ele>1090.0</ele><time>2026-04-19T10:54:14.925Z</time></trkpt><trkpt lat="44.7234957" lon="9.4444693"><ele>1090.0</ele><time>2026-04-19T10:54:15.895Z</time></trkpt><trkpt lat="44.7235945" lon="9.4443654"><ele>1083.6666666666665</ele><time>2026-04-19T10:54:16.884Z</time></trkpt><trkpt lat="44.7237099" lon="9.4442564"><ele>1077.3333333333333</ele><time>2026-04-19T10:54:17.996Z</time></trkpt><trkpt lat="44.7237955" lon="9.4441573"><ele>1071.0</ele><time>2026-04-19T10:54:18.956Z</time></trkpt><trkpt lat="44.7238951" lon="9.4438671"><ele>1070.25</ele><time>2026-04-19T10:54:20.919Z</time></trkpt><trkpt lat="44.7238999" lon="9.4436918"><ele>1069.5</ele><time>2026-04-19T10:54:21.869Z</time></trkpt><trkpt lat="44.7238951" lon="9.4434979"><ele>1068.75</ele><time>2026-04-19T10:54:22.861Z</time></trkpt><trkpt lat="44.7238806" lon="9.4433072"><ele>1068.0</ele><time>2026-04-19T10:54:23.868Z</time></trkpt><trkpt lat="44.7238576" lon="9.4431256"><ele>1068.0</ele><time>2026-04-19T10:54:24.912Z</time></trkpt><trkpt lat="44.7238277" lon="9.4429693"><ele>1068.0</ele><time>2026-04-19T10:54:25.981Z</time></trkpt><trkpt lat="44.7237885" lon="9.4428709"><ele>1068.0</ele><time>2026-04-19T10:54:26.881Z</time></trkpt><trkpt lat="44.7237308" lon="9.44278"><ele>1068.0</ele><time>2026-04-19T10:54:27.814Z</time></trkpt><trkpt lat="44.7236546" lon="9.4427131"><ele>1068.0</ele><time>2026-04-19T10:54:28.855Z</time></trkpt><trkpt lat="44.7235565" lon="9.4426897"><ele>1067.25</ele><time>2026-04-19T10:54:29.921Z</time></trkpt><trkpt lat="44.7234545" lon="9.4427098"><ele>1066.5</ele><time>2026-04-19T10:54:30.849Z</time></trkpt><trkpt lat="44.7233443" lon="9.4427763"><ele>1065.75</ele><time>2026-04-19T10:54:31.873Z</time></trkpt><trkpt lat="44.7232501" lon="9.4428907"><ele>1065.0</ele><time>2026-04-19T10:54:32.914Z</time></trkpt><trkpt lat="44.7231697" lon="9.4430133"><ele>1070.0</ele><time>2026-04-19T10:54:33.836Z</time></trkpt><trkpt lat="44.7230808" lon="9.4431545"><ele>1075.0</ele><time>2026-04-19T10:54:34.885Z</time></trkpt><trkpt lat="44.7229992" lon="9.4432827"><ele>1080.0</ele><time>2026-04-19T10:54:35.865Z</time></trkpt><trkpt lat="44.7229288" lon="9.4434007"><ele>1085.0</ele><time>2026-04-19T10:54:36.818Z</time></trkpt><trkpt lat="44.7228566" lon="9.4435181"><ele>1085.0</ele><time>2026-04-19T10:54:37.852Z</time></trkpt><trkpt lat="44.7227764" lon="9.4436201"><ele>1085.0</ele><time>2026-04-19T10:54:38.894Z</time></trkpt><trkpt lat="44.7226963" lon="9.4437032"><ele>1085.0</ele><time>2026-04-19T10:54:39.849Z</time></trkpt><trkpt lat="44.7226043" lon="9.4437715"><ele>1085.0</ele><time>2026-04-19T10:54:40.886Z</time></trkpt><trkpt lat="44.7225181" lon="9.4438201"><ele>1085.0</ele><time>2026-04-19T10:54:41.832Z</time></trkpt><trkpt lat="44.7224248" lon="9.4438699"><ele>1083.5</ele><time>2026-04-19T10:54:42.842Z</time></trkpt><trkpt lat="44.7223168" lon="9.4439144"><ele>1082.0</ele><time>2026-04-19T10:54:43.904Z</time></trkpt><trkpt lat="44.7222086" lon="9.4439421"><ele>1080.5</ele><time>2026-04-19T10:54:44.839Z</time></trkpt><trkpt lat="44.7220525" lon="9.4439449"><ele>1079.0</ele><time>2026-04-19T10:54:46.151Z</time></trkpt><trkpt lat="44.7218358" lon="9.4438764"><ele>1078.75</ele><time>2026-04-19T10:54:47.885Z</time></trkpt><trkpt lat="44.7217094" lon="9.4438381"><ele>1078.5</ele><time>2026-04-19T10:54:48.907Z</time></trkpt><trkpt lat="44.7215934" lon="9.4437842"><ele>1078.25</ele><time>2026-04-19T10:54:49.921Z</time></trkpt><trkpt lat="44.7214977" lon="9.4437141"><ele>1078.0</ele><time>2026-04-19T10:54:50.828Z</time></trkpt><trkpt lat="44.7213887" lon="9.4436113"><ele>1073.25</ele><time>2026-04-19T10:54:51.883Z</time></trkpt><trkpt lat="44.7212946" lon="9.4434841"><ele>1068.5</ele><time>2026-04-19T10:54:52.888Z</time></trkpt><trkpt lat="44.7212117" lon="9.4433483"><ele>1063.75</ele><time>2026-04-19T10:54:53.851Z</time></trkpt><trkpt lat="44.7211417" lon="9.4432085"><ele>1059.0</ele><time>2026-04-19T10:54:54.845Z</time></trkpt><trkpt lat="44.7210807" lon="9.4430691"><ele>1059.2</ele><time>2026-04-19T10:54:55.847Z</time></trkpt><trkpt lat="44.7210277" lon="9.4429133"><ele>1059.4</ele><time>2026-04-19T10:54:56.939Z</time></trkpt><trkpt lat="44.7210132" lon="9.4427849"><ele>1059.6</ele><time>2026-04-19T10:54:57.898Z</time></trkpt><trkpt lat="44.7210376" lon="9.4426725"><ele>1059.8</ele><time>2026-04-19T10:54:58.832Z</time></trkpt><trkpt lat="44.7211036" lon="9.442558"><ele>1060.0</ele><time>2026-04-19T10:54:59.866Z</time></trkpt><trkpt lat="44.7211702" lon="9.4424569"><ele>1056.25</ele><time>2026-04-19T10:55:00.857Z</time></trkpt><trkpt lat="44.7212281" lon="9.4423274"><ele>1052.5</ele><time>2026-04-19T10:55:01.847Z</time></trkpt><trkpt lat="44.7212499" lon="9.4421659"><ele>1048.75</ele><time>2026-04-19T10:55:02.913Z</time></trkpt><trkpt lat="44.7212375" lon="9.442009"><ele>1045.0</ele><time>2026-04-19T10:55:03.868Z</time></trkpt><trkpt lat="44.7212173" lon="9.4418531"><ele>1043.4</ele><time>2026-04-19T10:55:04.83Z</time></trkpt><trkpt lat="44.721205" lon="9.4416953"><ele>1041.8</ele><time>2026-04-19T10:55:05.892Z</time></trkpt><trkpt lat="44.7212177" lon="9.4415695"><ele>1040.2</ele><time>2026-04-19T10:55:06.854Z</time></trkpt><trkpt lat="44.7212462" lon="9.441453"><ele>1038.6</ele><time>2026-04-19T10:55:07.907Z</time></trkpt><trkpt lat="44.7212991" lon="9.4413648"><ele>1037.0</ele><time>2026-04-19T10:55:08.838Z</time></trkpt><trkpt lat="44.7213675" lon="9.4412934"><ele>1036.5</ele><time>2026-04-19T10:55:09.906Z</time></trkpt><trkpt lat="44.7214283" lon="9.4412341"><ele>1036.0</ele><time>2026-04-19T10:55:10.897Z</time></trkpt><trkpt lat="44.7214831" lon="9.441171"><ele>1035.5</ele><time>2026-04-19T10:55:11.886Z</time></trkpt><trkpt lat="44.7215241" lon="9.4411012"><ele>1035.0</ele><time>2026-04-19T10:55:12.853Z</time></trkpt><trkpt lat="44.7215785" lon="9.4409984"><ele>1034.5</ele><time>2026-04-19T10:55:13.85Z</time></trkpt><trkpt lat="44.7216421" lon="9.4408691"><ele>1034.0</ele><time>2026-04-19T10:55:14.831Z</time></trkpt><trkpt lat="44.721707" lon="9.440731"><ele>1034.0</ele><time>2026-04-19T10:55:15.764Z</time></trkpt><trkpt lat="44.721801" lon="9.4405634"><ele>1034.0</ele><time>2026-04-19T10:55:16.89Z</time></trkpt><trkpt lat="44.721903" lon="9.4404351"><ele>1034.0</ele><time>2026-04-19T10:55:17.919Z</time></trkpt><trkpt lat="44.7220039" lon="9.4403327"><ele>1034.0</ele><time>2026-04-19T10:55:18.838Z</time></trkpt><trkpt lat="44.7221214" lon="9.4402274"><ele>1029.75</ele><time>2026-04-19T10:55:19.916Z</time></trkpt><trkpt lat="44.7222248" lon="9.4401333"><ele>1025.5</ele><time>2026-04-19T10:55:20.868Z</time></trkpt><trkpt lat="44.7223306" lon="9.4400487"><ele>1021.25</ele><time>2026-04-19T10:55:21.824Z</time></trkpt><trkpt lat="44.7224539" lon="9.4399505"><ele>1017.0</ele><time>2026-04-19T10:55:22.89Z</time></trkpt><trkpt lat="44.7225619" lon="9.4398721"><ele>1017.0</ele><time>2026-04-19T10:55:23.846Z</time></trkpt><trkpt lat="44.7226752" lon="9.4398231"><ele>1017.0</ele><time>2026-04-19T10:55:24.88Z</time></trkpt><trkpt lat="44.7227662" lon="9.439817"><ele>1017.0</ele><time>2026-04-19T10:55:25.852Z</time></trkpt><trkpt lat="44.7228471" lon="9.4398045"><ele>1017.0</ele><time>2026-04-19T10:55:26.845Z</time></trkpt><trkpt lat="44.7229006" lon="9.4397477"><ele>1017.0</ele><time>2026-04-19T10:55:27.856Z</time></trkpt><trkpt lat="44.72293" lon="9.4396559"><ele>1017.0</ele><time>2026-04-19T10:55:28.826Z</time></trkpt><trkpt lat="44.7229398" lon="9.4395274"><ele>1011.25</ele><time>2026-04-19T10:55:29.889Z</time></trkpt><trkpt lat="44.7229437" lon="9.4393863"><ele>1005.5</ele><time>2026-04-19T10:55:30.811Z</time></trkpt><trkpt lat="44.7229501" lon="9.4392171"><ele>999.75</ele><time>2026-04-19T10:55:31.835Z</time></trkpt><trkpt lat="44.7229663" lon="9.4390455"><ele>994.0</ele><time>2026-04-19T10:55:32.82Z</time></trkpt><trkpt lat="44.7229839" lon="9.4388654"><ele>993.25</ele><time>2026-04-19T10:55:33.822Z</time></trkpt><trkpt lat="44.7230044" lon="9.4386736"><ele>992.5</ele><time>2026-04-19T10:55:34.876Z</time></trkpt><trkpt lat="44.7230464" lon="9.4385017"><ele>991.75</ele><time>2026-04-19T10:55:35.856Z</time></trkpt><trkpt lat="44.7231017" lon="9.4383232"><ele>991.0</ele><time>2026-04-19T10:55:36.914Z</time></trkpt><trkpt lat="44.72315" lon="9.438158"><ele>991.0</ele><time>2026-04-19T10:55:37.902Z</time></trkpt><trkpt lat="44.7232062" lon="9.4380107"><ele>991.0</ele><time>2026-04-19T10:55:38.843Z</time></trkpt><trkpt lat="44.7232958" lon="9.437868"><ele>991.0</ele><time>2026-04-19T10:55:39.884Z</time></trkpt><trkpt lat="44.7233891" lon="9.4377725"><ele>991.0</ele><time>2026-04-19T10:55:40.856Z</time></trkpt><trkpt lat="44.7235023" lon="9.4377067"><ele>986.9999999999999</ele><time>2026-04-19T10:55:41.879Z</time></trkpt><trkpt lat="44.7235892" lon="9.4376675"><ele>983.0</ele><time>2026-04-19T10:55:42.838Z</time></trkpt><trkpt lat="44.723662" lon="9.437622"><ele>979.0</ele><time>2026-04-19T10:55:43.868Z</time></trkpt><trkpt lat="44.7237114" lon="9.4375417"><ele>975.0</ele><time>2026-04-19T10:55:44.826Z</time></trkpt><trkpt lat="44.7237428" lon="9.4374155"><ele>970.9999999999999</ele><time>2026-04-19T10:55:45.977Z</time></trkpt><trkpt lat="44.7237416" lon="9.4373101"><ele>967.0</ele><time>2026-04-19T10:55:46.891Z</time></trkpt><trkpt lat="44.7237191" lon="9.4372061"><ele>967.0</ele><time>2026-04-19T10:55:47.849Z</time></trkpt><trkpt lat="44.7236994" lon="9.4371147"><ele>967.0</ele><time>2026-04-19T10:55:48.825Z</time></trkpt><trkpt lat="44.7237486" lon="9.4369884"><ele>967.0</ele><time>2026-04-19T10:55:50.852Z</time></trkpt><trkpt lat="44.7238805" lon="9.4370247"><ele>967.0</ele><time>2026-04-19T10:55:52.994Z</time></trkpt><trkpt lat="44.7240022" lon="9.4371554"><ele>966.9999999999999</ele><time>2026-04-19T10:55:54.913Z</time></trkpt><trkpt lat="44.7240693" lon="9.4372122"><ele>967.0</ele><time>2026-04-19T10:55:55.893Z</time></trkpt><trkpt lat="44.7241238" lon="9.4372697"><ele>967.0</ele><time>2026-04-19T10:55:56.879Z</time></trkpt><trkpt lat="44.7241642" lon="9.4374264"><ele>967.0</ele><time>2026-04-19T10:55:58.88Z</time></trkpt><trkpt lat="44.7241501" lon="9.4375317"><ele>966.9999999999999</ele><time>2026-04-19T10:55:59.879Z</time></trkpt><trkpt lat="44.7241289" lon="9.4376375"><ele>967.0</ele><time>2026-04-19T10:56:00.847Z</time></trkpt><trkpt lat="44.7241099" lon="9.4377685"><ele>967.0</ele><time>2026-04-19T10:56:01.89Z</time></trkpt><trkpt lat="44.7240927" lon="9.4378869"><ele>967.0</ele><time>2026-04-19T10:56:02.814Z</time></trkpt><trkpt lat="44.7240715" lon="9.438026"><ele>967.0</ele><time>2026-04-19T10:56:03.834Z</time></trkpt><trkpt lat="44.7240484" lon="9.438187"><ele>967.0</ele><time>2026-04-19T10:56:04.995Z</time></trkpt><trkpt lat="44.7240129" lon="9.438457"><ele>966.8</ele><time>2026-04-19T10:56:06.886Z</time></trkpt><trkpt lat="44.7239928" lon="9.4385967"><ele>966.6</ele><time>2026-04-19T10:56:07.876Z</time></trkpt><trkpt lat="44.7239725" lon="9.4387388"><ele>966.3999999999999</ele><time>2026-04-19T10:56:08.89Z</time></trkpt><trkpt lat="44.7239483" lon="9.4388786"><ele>966.1999999999999</ele><time>2026-04-19T10:56:09.852Z</time></trkpt><trkpt lat="44.7239261" lon="9.4390079"><ele>966.0</ele><time>2026-04-19T10:56:10.816Z</time></trkpt><trkpt lat="44.7239036" lon="9.4391301"><ele>966.0</ele><time>2026-04-19T10:56:11.819Z</time></trkpt><trkpt lat="44.7238953" lon="9.4392517"><ele>966.0</ele><time>2026-04-19T10:56:12.859Z</time></trkpt><trkpt lat="44.7238985" lon="9.4393414"><ele>966.0</ele><time>2026-04-19T10:56:13.808Z</time></trkpt><trkpt lat="44.7239266" lon="9.4394238"><ele>966.0</ele><time>2026-04-19T10:56:14.843Z</time></trkpt><trkpt lat="44.723986" lon="9.4394803"><ele>966.0</ele><time>2026-04-19T10:56:15.957Z</time></trkpt><trkpt lat="44.7241202" lon="9.4395054"><ele>966.0</ele><time>2026-04-19T10:56:17.778Z</time></trkpt><trkpt lat="44.7242108" lon="9.439472"><ele>966.0</ele><time>2026-04-19T10:56:18.968Z</time></trkpt><trkpt lat="44.7243606" lon="9.4393392"><ele>966.0</ele><time>2026-04-19T10:56:20.854Z</time></trkpt><trkpt lat="44.7244491" lon="9.4392541"><ele>966.0</ele><time>2026-04-19T10:56:21.881Z</time></trkpt><trkpt lat="44.7245462" lon="9.4391933"><ele>966.0</ele><time>2026-04-19T10:56:22.807Z</time></trkpt><trkpt lat="44.7246655" lon="9.4391441"><ele>963.0</ele><time>2026-04-19T10:56:23.821Z</time></trkpt><trkpt lat="44.7247902" lon="9.4391327"><ele>960.0</ele><time>2026-04-19T10:56:24.825Z</time></trkpt><trkpt lat="44.7249149" lon="9.4391587"><ele>957.0</ele><time>2026-04-19T10:56:25.852Z</time></trkpt><trkpt lat="44.725034" lon="9.4392091"><ele>954.0</ele><time>2026-04-19T10:56:26.852Z</time></trkpt><trkpt lat="44.7251484" lon="9.4392585"><ele>949.5</ele><time>2026-04-19T10:56:27.795Z</time></trkpt><trkpt lat="44.7252703" lon="9.4393126"><ele>945.0</ele><time>2026-04-19T10:56:28.834Z</time></trkpt><trkpt lat="44.7253924" lon="9.4393686"><ele>940.5</ele><time>2026-04-19T10:56:29.851Z</time></trkpt><trkpt lat="44.7255064" lon="9.4394197"><ele>936.0</ele><time>2026-04-19T10:56:30.843Z</time></trkpt><trkpt lat="44.7256153" lon="9.4394784"><ele>936.0</ele><time>2026-04-19T10:56:31.822Z</time></trkpt><trkpt lat="44.7257299" lon="9.4395621"><ele>936.0</ele><time>2026-04-19T10:56:32.926Z</time></trkpt><trkpt lat="44.7258852" lon="9.4397733"><ele>936.0</ele><time>2026-04-19T10:56:34.808Z</time></trkpt><trkpt lat="44.7259605" lon="9.4399092"><ele>936.75</ele><time>2026-04-19T10:56:35.83Z</time></trkpt><trkpt lat="44.7260314" lon="9.4400501"><ele>937.5</ele><time>2026-04-19T10:56:36.824Z</time></trkpt><trkpt lat="44.7261056" lon="9.4401941"><ele>938.25</ele><time>2026-04-19T10:56:37.853Z</time></trkpt><trkpt lat="44.7261809" lon="9.4403367"><ele>939.0</ele><time>2026-04-19T10:56:38.919Z</time></trkpt><trkpt lat="44.7262476" lon="9.4404695"><ele>939.0</ele><time>2026-04-19T10:56:39.945Z</time></trkpt><trkpt lat="44.7263031" lon="9.4405704"><ele>939.0</ele><time>2026-04-19T10:56:40.891Z</time></trkpt><trkpt lat="44.7263477" lon="9.4406566"><ele>939.0</ele><time>2026-04-19T10:56:41.855Z</time></trkpt><trkpt lat="44.7263879" lon="9.4407299"><ele>939.0</ele><time>2026-04-19T10:56:42.832Z</time></trkpt><trkpt lat="44.7264749" lon="9.4408477"><ele>939.0</ele><time>2026-04-19T10:56:44.841Z</time></trkpt><trkpt lat="44.726531" lon="9.4408985"><ele>939.0</ele><time>2026-04-19T10:56:45.835Z</time></trkpt><trkpt lat="44.7265953" lon="9.4409458"><ele>939.0</ele><time>2026-04-19T10:56:46.836Z</time></trkpt><trkpt lat="44.7266656" lon="9.4409916"><ele>939.0000000000001</ele><time>2026-04-19T10:56:47.832Z</time></trkpt><trkpt lat="44.726731" lon="9.4410475"><ele>939.0000000000001</ele><time>2026-04-19T10:56:48.801Z</time></trkpt><trkpt lat="44.7268084" lon="9.44112"><ele>939.0</ele><time>2026-04-19T10:56:49.831Z</time></trkpt><trkpt lat="44.7268846" lon="9.4411985"><ele>939.0</ele><time>2026-04-19T10:56:50.844Z</time></trkpt><trkpt lat="44.7269693" lon="9.4412941"><ele>935.4000000000001</ele><time>2026-04-19T10:56:51.833Z</time></trkpt><trkpt lat="44.7270422" lon="9.4414041"><ele>931.8000000000001</ele><time>2026-04-19T10:56:52.875Z</time></trkpt><trkpt lat="44.7270923" lon="9.4415222"><ele>928.1999999999999</ele><time>2026-04-19T10:56:53.833Z</time></trkpt><trkpt lat="44.7271291" lon="9.4416464"><ele>924.5999999999999</ele><time>2026-04-19T10:56:54.857Z</time></trkpt><trkpt lat="44.7271465" lon="9.4417747"><ele>921.0</ele><time>2026-04-19T10:56:55.9Z</time></trkpt><trkpt lat="44.7271343" lon="9.4418951"><ele>921.0</ele><time>2026-04-19T10:56:56.853Z</time></trkpt><trkpt lat="44.7271103" lon="9.4420256"><ele>920.9999999999999</ele><time>2026-04-19T10:56:57.881Z</time></trkpt><trkpt lat="44.7270966" lon="9.4421481"><ele>920.9999999999999</ele><time>2026-04-19T10:56:58.845Z</time></trkpt><trkpt lat="44.7271014" lon="9.4422899"><ele>921.0</ele><time>2026-04-19T10:56:59.847Z</time></trkpt><trkpt lat="44.7271412" lon="9.4424133"><ele>921.0</ele><time>2026-04-19T10:57:00.885Z</time></trkpt><trkpt lat="44.7272078" lon="9.4425129"><ele>922.4</ele><time>2026-04-19T10:57:01.879Z</time></trkpt><trkpt lat="44.7272847" lon="9.4426006"><ele>923.8</ele><time>2026-04-19T10:57:02.86Z</time></trkpt><trkpt lat="44.7273729" lon="9.4426649"><ele>925.1999999999999</ele><time>2026-04-19T10:57:03.981Z</time></trkpt><trkpt lat="44.7275364" lon="9.4426637"><ele>926.5999999999999</ele><time>2026-04-19T10:57:05.806Z</time></trkpt><trkpt lat="44.7276116" lon="9.4426029"><ele>928.0</ele><time>2026-04-19T10:57:06.81Z</time></trkpt><trkpt lat="44.727682" lon="9.4425192"><ele>927.2</ele><time>2026-04-19T10:57:07.848Z</time></trkpt><trkpt lat="44.7277561" lon="9.4424489"><ele>926.4</ele><time>2026-04-19T10:57:08.83Z</time></trkpt><trkpt lat="44.7278449" lon="9.4424072"><ele>925.6000000000001</ele><time>2026-04-19T10:57:09.801Z</time></trkpt><trkpt lat="44.7279469" lon="9.44239"><ele>924.8000000000001</ele><time>2026-04-19T10:57:10.831Z</time></trkpt><trkpt lat="44.7280534" lon="9.4423615"><ele>924.0</ele><time>2026-04-19T10:57:11.928Z</time></trkpt><trkpt lat="44.7281312" lon="9.4423259"><ele>924.0</ele><time>2026-04-19T10:57:12.855Z</time></trkpt><trkpt lat="44.7281987" lon="9.4422718"><ele>924.0000000000001</ele><time>2026-04-19T10:57:13.883Z</time></trkpt><trkpt lat="44.7282527" lon="9.4422123"><ele>924.0000000000001</ele><time>2026-04-19T10:57:15.04Z</time></trkpt><trkpt lat="44.7283758" lon="9.4421759"><ele>924.0</ele><time>2026-04-19T10:57:17.943Z</time></trkpt><trkpt lat="44.7284983" lon="9.4422138"><ele>924.0</ele><time>2026-04-19T10:57:19.912Z</time></trkpt><trkpt lat="44.7285645" lon="9.4422274"><ele>923.6666666666666</ele><time>2026-04-19T10:57:20.864Z</time></trkpt><trkpt lat="44.7286389" lon="9.4422294"><ele>923.3333333333333</ele><time>2026-04-19T10:57:21.846Z</time></trkpt><trkpt lat="44.728725" lon="9.4422287"><ele>923.0</ele><time>2026-04-19T10:57:22.848Z</time></trkpt><trkpt lat="44.7288144" lon="9.4422184"><ele>922.6666666666666</ele><time>2026-04-19T10:57:23.873Z</time></trkpt><trkpt lat="44.7288976" lon="9.4422162"><ele>922.3333333333333</ele><time>2026-04-19T10:57:24.822Z</time></trkpt><trkpt lat="44.7289946" lon="9.4422294"><ele>922.0</ele><time>2026-04-19T10:57:25.882Z</time></trkpt><trkpt lat="44.7290907" lon="9.4422719"><ele>922.0</ele><time>2026-04-19T10:57:26.919Z</time></trkpt><trkpt lat="44.7291817" lon="9.4423325"><ele>922.0</ele><time>2026-04-19T10:57:27.841Z</time></trkpt><trkpt lat="44.7292813" lon="9.4424104"><ele>922.0</ele><time>2026-04-19T10:57:28.861Z</time></trkpt><trkpt lat="44.7293677" lon="9.4424998"><ele>922.0</ele><time>2026-04-19T10:57:29.847Z</time></trkpt><trkpt lat="44.7294435" lon="9.4425974"><ele>922.0</ele><time>2026-04-19T10:57:30.873Z</time></trkpt><trkpt lat="44.7295028" lon="9.4427014"><ele>922.4000000000001</ele><time>2026-04-19T10:57:31.921Z</time></trkpt><trkpt lat="44.7295445" lon="9.4428079"><ele>922.8000000000001</ele><time>2026-04-19T10:57:32.921Z</time></trkpt><trkpt lat="44.7295791" lon="9.4429304"><ele>923.2</ele><time>2026-04-19T10:57:34.027Z</time></trkpt><trkpt lat="44.7296288" lon="9.4430941"><ele>923.6</ele><time>2026-04-19T10:57:35.838Z</time></trkpt><trkpt lat="44.7296832" lon="9.4431925"><ele>924.0</ele><time>2026-04-19T10:57:37.84Z</time></trkpt><trkpt lat="44.7297499" lon="9.4432459"><ele>924.8000000000001</ele><time>2026-04-19T10:57:40.836Z</time></trkpt><trkpt lat="44.7298474" lon="9.4432803"><ele>925.6000000000001</ele><time>2026-04-19T10:58:44.947Z</time></trkpt><trkpt lat="44.7299194" lon="9.443293"><ele>926.4</ele><time>2026-04-19T10:58:45.913Z</time></trkpt><trkpt lat="44.7300063" lon="9.4433077"><ele>927.2</ele><time>2026-04-19T10:58:46.84Z</time></trkpt><trkpt lat="44.7301076" lon="9.443327"><ele>928.0</ele><time>2026-04-19T10:58:47.891Z</time></trkpt><trkpt lat="44.7302013" lon="9.443359"><ele>930.1666666666666</ele><time>2026-04-19T10:58:48.877Z</time></trkpt><trkpt lat="44.7302854" lon="9.443389"><ele>932.3333333333333</ele><time>2026-04-19T10:58:49.866Z</time></trkpt><trkpt lat="44.7303673" lon="9.4433999"><ele>934.5</ele><time>2026-04-19T10:58:50.945Z</time></trkpt><trkpt lat="44.7304356" lon="9.4433825"><ele>936.6666666666667</ele><time>2026-04-19T10:58:51.914Z</time></trkpt><trkpt lat="44.7304988" lon="9.4433413"><ele>938.8333333333334</ele><time>2026-04-19T10:58:52.925Z</time></trkpt><trkpt lat="44.7305654" lon="9.4432903"><ele>941.0</ele><time>2026-04-19T10:58:53.842Z</time></trkpt><trkpt lat="44.7306446" lon="9.4432293"><ele>941.0</ele><time>2026-04-19T10:58:54.856Z</time></trkpt><trkpt lat="44.7307233" lon="9.4431611"><ele>940.9999999999999</ele><time>2026-04-19T10:58:55.837Z</time></trkpt><trkpt lat="44.7308096" lon="9.4430775"><ele>940.9999999999999</ele><time>2026-04-19T10:58:56.877Z</time></trkpt><trkpt lat="44.7308977" lon="9.4429797"><ele>941.0</ele><time>2026-04-19T10:58:57.969Z</time></trkpt><trkpt lat="44.7309677" lon="9.442896"><ele>941.0</ele><time>2026-04-19T10:58:58.922Z</time></trkpt><trkpt lat="44.7310402" lon="9.442811"><ele>943.3333333333334</ele><time>2026-04-19T10:58:59.949Z</time></trkpt><trkpt lat="44.7311042" lon="9.4427487"><ele>945.6666666666667</ele><time>2026-04-19T10:59:00.937Z</time></trkpt><trkpt lat="44.7311953" lon="9.4426451"><ele>948.0</ele><time>2026-04-19T10:59:02.933Z</time></trkpt><trkpt lat="44.7312559" lon="9.4426006"><ele>950.3333333333333</ele><time>2026-04-19T10:59:04.862Z</time></trkpt><trkpt lat="44.7313324" lon="9.4426296"><ele>952.6666666666666</ele><time>2026-04-19T10:59:06.888Z</time></trkpt><trkpt lat="44.7314355" lon="9.4426439"><ele>955.0</ele><time>2026-04-19T10:59:09.873Z</time></trkpt><trkpt lat="44.7314748" lon="9.4425585"><ele>955.0</ele><time>2026-04-19T10:59:11.84Z</time></trkpt><trkpt lat="44.7315443" lon="9.4426097"><ele>955.0</ele><time>2026-04-19T10:59:14.896Z</time></trkpt><trkpt lat="44.7315829" lon="9.442711"><ele>955.0</ele><time>2026-04-19T10:59:16.822Z</time></trkpt><trkpt lat="44.7316472" lon="9.4427902"><ele>955.0</ele><time>2026-04-19T10:59:18.922Z</time></trkpt><trkpt lat="44.7316442" lon="9.4429997"><ele>955.0</ele><time>2026-04-19T10:59:21.851Z</time></trkpt><trkpt lat="44.7316291" lon="9.4430969"><ele>956.1666666666666</ele><time>2026-04-19T10:59:22.87Z</time></trkpt><trkpt lat="44.7316077" lon="9.4431819"><ele>957.3333333333333</ele><time>2026-04-19T10:59:23.832Z</time></trkpt><trkpt lat="44.7315865" lon="9.4432673"><ele>958.5</ele><time>2026-04-19T10:59:24.9Z</time></trkpt><trkpt lat="44.7315617" lon="9.4433619"><ele>959.6666666666667</ele><time>2026-04-19T10:59:25.868Z</time></trkpt><trkpt lat="44.7315342" lon="9.4434465"><ele>960.8333333333334</ele><time>2026-04-19T10:59:26.847Z</time></trkpt><trkpt lat="44.7314954" lon="9.4435927"><ele>962.0</ele><time>2026-04-19T10:59:28.851Z</time></trkpt><trkpt lat="44.7315146" lon="9.4437411"><ele>963.6</ele><time>2026-04-19T10:59:30.925Z</time></trkpt><trkpt lat="44.7315638" lon="9.4439001"><ele>965.2</ele><time>2026-04-19T10:59:32.896Z</time></trkpt><trkpt lat="44.7315881" lon="9.444011"><ele>966.8</ele><time>2026-04-19T10:59:33.867Z</time></trkpt><trkpt lat="44.7316101" lon="9.444117"><ele>968.4</ele><time>2026-04-19T10:59:34.811Z</time></trkpt><trkpt lat="44.7316374" lon="9.4442649"><ele>970.0</ele><time>2026-04-19T10:59:36.822Z</time></trkpt><trkpt lat="44.7316563" lon="9.4443557"><ele>969.9999999999999</ele><time>2026-04-19T10:59:38.835Z</time></trkpt><trkpt lat="44.7317033" lon="9.4444785"><ele>970.0</ele><time>2026-04-19T10:59:41.837Z</time></trkpt><trkpt lat="44.7317547" lon="9.4445702"><ele>970.0</ele><time>2026-04-19T10:59:43.912Z</time></trkpt><trkpt lat="44.7318229" lon="9.4446532"><ele>970.0</ele><time>2026-04-19T10:59:45.887Z</time></trkpt><trkpt lat="44.7318539" lon="9.444749"><ele>969.9999999999999</ele><time>2026-04-19T10:59:47.875Z</time></trkpt><trkpt lat="44.7318575" lon="9.4448729"><ele>970.0</ele><time>2026-04-19T10:59:49.874Z</time></trkpt><trkpt lat="44.7318386" lon="9.4449826"><ele>971.1666666666666</ele><time>2026-04-19T10:59:52.016Z</time></trkpt><trkpt lat="44.7317945" lon="9.4450835"><ele>972.3333333333333</ele><time>2026-04-19T10:59:53.871Z</time></trkpt><trkpt lat="44.7317233" lon="9.445162"><ele>973.5</ele><time>2026-04-19T10:59:55.851Z</time></trkpt><trkpt lat="44.7316493" lon="9.44526"><ele>974.6666666666667</ele><time>2026-04-19T10:59:57.902Z</time></trkpt><trkpt lat="44.7316428" lon="9.4453618"><ele>975.8333333333334</ele><time>2026-04-19T11:00:00.044Z</time></trkpt><trkpt lat="44.7317031" lon="9.445443"><ele>977.0</ele><time>2026-04-19T11:00:01.845Z</time></trkpt><trkpt lat="44.7317985" lon="9.4454695"><ele>979.0</ele><time>2026-04-19T11:00:03.869Z</time></trkpt><trkpt lat="44.7319074" lon="9.445472"><ele>981.0</ele><time>2026-04-19T11:00:05.869Z</time></trkpt><trkpt lat="44.7319996" lon="9.44548"><ele>983.0</ele><time>2026-04-19T11:00:07.841Z</time></trkpt><trkpt lat="44.7320681" lon="9.4455682"><ele>985.0</ele><time>2026-04-19T11:00:09.831Z</time></trkpt><trkpt lat="44.7321108" lon="9.4456951"><ele>987.0</ele><time>2026-04-19T11:00:11.877Z</time></trkpt><trkpt lat="44.7321654" lon="9.4458361"><ele>987.0</ele><time>2026-04-19T11:00:13.9Z</time></trkpt><trkpt lat="44.7321597" lon="9.4459733"><ele>987.0</ele><time>2026-04-19T11:00:15.92Z</time></trkpt><trkpt lat="44.7321282" lon="9.4460539"><ele>987.0</ele><time>2026-04-19T11:00:16.989Z</time></trkpt><trkpt lat="44.732083" lon="9.4461777"><ele>987.0</ele><time>2026-04-19T11:00:18.921Z</time></trkpt><trkpt lat="44.7320957" lon="9.4463043"><ele>987.0</ele><time>2026-04-19T11:00:20.871Z</time></trkpt><trkpt lat="44.7321588" lon="9.4464166"><ele>986.5</ele><time>2026-04-19T11:00:22.848Z</time></trkpt><trkpt lat="44.7322187" lon="9.4465158"><ele>986.0</ele><time>2026-04-19T11:00:24.871Z</time></trkpt><trkpt lat="44.7322612" lon="9.4466018"><ele>985.5</ele><time>2026-04-19T11:00:31.9Z</time></trkpt><trkpt lat="44.7322857" lon="9.4467013"><ele>985.0</ele><time>2026-04-19T11:00:33.874Z</time></trkpt><trkpt lat="44.7323083" lon="9.4468145"><ele>984.5</ele><time>2026-04-19T11:00:35.916Z</time></trkpt><trkpt lat="44.7323223" lon="9.4469227"><ele>984.0</ele><time>2026-04-19T11:00:37.902Z</time></trkpt><trkpt lat="44.7323289" lon="9.4470399"><ele>985.4000000000001</ele><time>2026-04-19T11:00:39.853Z</time></trkpt><trkpt lat="44.7323433" lon="9.4471558"><ele>986.8000000000001</ele><time>2026-04-19T11:00:41.855Z</time></trkpt><trkpt lat="44.7323734" lon="9.4473006"><ele>988.1999999999999</ele><time>2026-04-19T11:00:43.837Z</time></trkpt><trkpt lat="44.7324195" lon="9.4474297"><ele>989.5999999999999</ele><time>2026-04-19T11:00:45.865Z</time></trkpt><trkpt lat="44.7324391" lon="9.4475168"><ele>991.0</ele><time>2026-04-19T11:00:46.855Z</time></trkpt><trkpt lat="44.7325025" lon="9.4476977"><ele>991.0</ele><time>2026-04-19T11:00:49.882Z</time></trkpt><trkpt lat="44.7325744" lon="9.4478094"><ele>990.9999999999999</ele><time>2026-04-19T11:00:51.828Z</time></trkpt><trkpt lat="44.7326619" lon="9.4478851"><ele>990.9999999999999</ele><time>2026-04-19T11:00:53.833Z</time></trkpt><trkpt lat="44.7327494" lon="9.4479731"><ele>991.0</ele><time>2026-04-19T11:00:55.802Z</time></trkpt><trkpt lat="44.7328382" lon="9.4480028"><ele>991.0</ele><time>2026-04-19T11:00:57.883Z</time></trkpt><trkpt lat="44.7329074" lon="9.4479159"><ele>987.0</ele><time>2026-04-19T11:00:59.926Z</time></trkpt><trkpt lat="44.732963" lon="9.4477658"><ele>982.9999999999999</ele><time>2026-04-19T11:01:01.886Z</time></trkpt><trkpt lat="44.7329906" lon="9.4476782"><ele>978.9999999999999</ele><time>2026-04-19T11:01:02.952Z</time></trkpt><trkpt lat="44.7330442" lon="9.4475559"><ele>975.0</ele><time>2026-04-19T11:01:04.912Z</time></trkpt><trkpt lat="44.7331025" lon="9.4474328"><ele>971.0</ele><time>2026-04-19T11:01:06.856Z</time></trkpt><trkpt lat="44.7331836" lon="9.4473315"><ele>971.0</ele><time>2026-04-19T11:01:08.876Z</time></trkpt><trkpt lat="44.7332839" lon="9.4472665"><ele>970.9999999999999</ele><time>2026-04-19T11:01:10.923Z</time></trkpt><trkpt lat="44.7333812" lon="9.4472143"><ele>970.9999999999999</ele><time>2026-04-19T11:01:12.856Z</time></trkpt><trkpt lat="44.7334811" lon="9.4471617"><ele>971.0</ele><time>2026-04-19T11:01:14.847Z</time></trkpt><trkpt lat="44.7336065" lon="9.4471575"><ele>971.0</ele><time>2026-04-19T11:01:16.802Z</time></trkpt><trkpt lat="44.7336759" lon="9.447192"><ele>969.1999999999999</ele><time>2026-04-19T11:01:17.85Z</time></trkpt><trkpt lat="44.733739" lon="9.4472283"><ele>967.3999999999999</ele><time>2026-04-19T11:01:18.888Z</time></trkpt><trkpt lat="44.7338483" lon="9.4472627"><ele>965.6</ele><time>2026-04-19T11:01:20.887Z</time></trkpt><trkpt lat="44.7339818" lon="9.4472511"><ele>963.8</ele><time>2026-04-19T11:01:22.848Z</time></trkpt><trkpt lat="44.7340537" lon="9.4472469"><ele>962.0</ele><time>2026-04-19T11:01:23.821Z</time></trkpt><trkpt lat="44.7341212" lon="9.447254"><ele>962.0</ele><time>2026-04-19T11:01:24.838Z</time></trkpt><trkpt lat="44.7341964" lon="9.4472956"><ele>962.0</ele><time>2026-04-19T11:01:25.927Z</time></trkpt><trkpt lat="44.7342882" lon="9.4473812"><ele>962.0</ele><time>2026-04-19T11:01:27.863Z</time></trkpt><trkpt lat="44.7343575" lon="9.4474955"><ele>962.0</ele><time>2026-04-19T11:01:29.851Z</time></trkpt><trkpt lat="44.7344014" lon="9.4476116"><ele>962.0</ele><time>2026-04-19T11:01:31.847Z</time></trkpt><trkpt lat="44.7344409" lon="9.4477261"><ele>960.4000000000001</ele><time>2026-04-19T11:01:33.837Z</time></trkpt><trkpt lat="44.7345383" lon="9.4477479"><ele>958.8000000000001</ele><time>2026-04-19T11:01:35.879Z</time></trkpt><trkpt lat="44.7346277" lon="9.447698"><ele>957.2</ele><time>2026-04-19T11:01:37.816Z</time></trkpt><trkpt lat="44.7347153" lon="9.4477314"><ele>955.6</ele><time>2026-04-19T11:01:39.813Z</time></trkpt><trkpt lat="44.7348239" lon="9.4478084"><ele>954.0</ele><time>2026-04-19T11:01:41.834Z</time></trkpt><trkpt lat="44.7348766" lon="9.4478601"><ele>954.0</ele><time>2026-04-19T11:01:42.947Z</time></trkpt><trkpt lat="44.7349509" lon="9.4479422"><ele>954.0000000000001</ele><time>2026-04-19T11:01:44.821Z</time></trkpt><trkpt lat="44.7350633" lon="9.4479373"><ele>954.0000000000001</ele><time>2026-04-19T11:01:46.92Z</time></trkpt><trkpt lat="44.7351394" lon="9.4478943"><ele>954.0</ele><time>2026-04-19T11:01:47.982Z</time></trkpt><trkpt lat="44.7352498" lon="9.4478447"><ele>954.0</ele><time>2026-04-19T11:01:49.899Z</time></trkpt><trkpt lat="44.7353437" lon="9.4477817"><ele>954.6</ele><time>2026-04-19T11:01:51.989Z</time></trkpt><trkpt lat="44.7354215" lon="9.4478476"><ele>955.2</ele><time>2026-04-19T11:01:54.828Z</time></trkpt><trkpt lat="44.7354639" lon="9.4479847"><ele>955.8000000000001</ele><time>2026-04-19T11:01:57.026Z</time></trkpt><trkpt lat="44.7354739" lon="9.4481421"><ele>956.4000000000001</ele><time>2026-04-19T11:01:58.874Z</time></trkpt><trkpt lat="44.7354969" lon="9.4482834"><ele>957.0</ele><time>2026-04-19T11:02:00.813Z</time></trkpt><trkpt lat="44.7355206" lon="9.4483916"><ele>957.0</ele><time>2026-04-19T11:02:02.906Z</time></trkpt><trkpt lat="44.7355966" lon="9.4484075"><ele>957.0</ele><time>2026-04-19T11:02:04.822Z</time></trkpt><trkpt lat="44.7357047" lon="9.4483471"><ele>957.0</ele><time>2026-04-19T11:02:06.895Z</time></trkpt><trkpt lat="44.7358227" lon="9.4481901"><ele>957.0</ele><time>2026-04-19T11:02:09.973Z</time></trkpt><trkpt lat="44.7359251" lon="9.4481332"><ele>957.0</ele><time>2026-04-19T11:02:11.841Z</time></trkpt><trkpt lat="44.7359922" lon="9.4481033"><ele>957.0</ele><time>2026-04-19T11:02:12.891Z</time></trkpt><trkpt lat="44.7360589" lon="9.4480912"><ele>957.0</ele><time>2026-04-19T11:02:13.879Z</time></trkpt><trkpt lat="44.7361766" lon="9.4480859"><ele>957.0</ele><time>2026-04-19T11:02:15.833Z</time></trkpt><trkpt lat="44.7362918" lon="9.448089"><ele>957.0</ele><time>2026-04-19T11:02:17.92Z</time></trkpt><trkpt lat="44.7363835" lon="9.448149"><ele>957.6</ele><time>2026-04-19T11:02:19.81Z</time></trkpt><trkpt lat="44.7364705" lon="9.4481932"><ele>958.2</ele><time>2026-04-19T11:02:21.847Z</time></trkpt><trkpt lat="44.736558" lon="9.4481907"><ele>958.8</ele><time>2026-04-19T11:02:23.846Z</time></trkpt><trkpt lat="44.7366355" lon="9.448108"><ele>959.4</ele><time>2026-04-19T11:02:25.885Z</time></trkpt><trkpt lat="44.7367017" lon="9.4480044"><ele>960.0</ele><time>2026-04-19T11:02:27.837Z</time></trkpt><trkpt lat="44.7367721" lon="9.4479261"><ele>959.0</ele><time>2026-04-19T11:02:29.861Z</time></trkpt><trkpt lat="44.7368283" lon="9.4478847"><ele>958.0</ele><time>2026-04-19T11:02:30.831Z</time></trkpt><trkpt lat="44.7369082" lon="9.4479071"><ele>957.0</ele><time>2026-04-19T11:02:32.876Z</time></trkpt><trkpt lat="44.7369774" lon="9.4479831"><ele>956.0</ele><time>2026-04-19T11:02:34.897Z</time></trkpt><trkpt lat="44.7370304" lon="9.4480531"><ele>955.0</ele><time>2026-04-19T11:02:36.835Z</time></trkpt><trkpt lat="44.737087" lon="9.4481375"><ele>954.0</ele><time>2026-04-19T11:03:15.825Z</time></trkpt><trkpt lat="44.7371776" lon="9.448225"><ele>957.4000000000001</ele><time>2026-04-19T11:03:17.926Z</time></trkpt><trkpt lat="44.7372317" lon="9.4483002"><ele>960.8000000000001</ele><time>2026-04-19T11:03:18.851Z</time></trkpt><trkpt lat="44.7372884" lon="9.4483938"><ele>964.1999999999999</ele><time>2026-04-19T11:03:19.811Z</time></trkpt><trkpt lat="44.7373588" lon="9.4485206"><ele>967.5999999999999</ele><time>2026-04-19T11:03:20.91Z</time></trkpt><trkpt lat="44.7374402" lon="9.4486543"><ele>971.0</ele><time>2026-04-19T11:03:21.848Z</time></trkpt><trkpt lat="44.7375115" lon="9.4487238"><ele>971.0</ele><time>2026-04-19T11:03:22.856Z</time></trkpt><trkpt lat="44.7375131" lon="9.4485801"><ele>971.0</ele><time>2026-04-19T11:03:23.91Z</time></trkpt><trkpt lat="44.7375313" lon="9.448473"><ele>971.0</ele><time>2026-04-19T11:03:25.979Z</time></trkpt><trkpt lat="44.7374526" lon="9.4482544"><ele>971.0</ele><time>2026-04-19T11:03:27.854Z</time></trkpt><trkpt lat="44.7374325" lon="9.4480771"><ele>971.0</ele><time>2026-04-19T11:03:28.905Z</time></trkpt><trkpt lat="44.7374754" lon="9.4479912"><ele>970.9999999999999</ele><time>2026-04-19T11:03:30.842Z</time></trkpt><trkpt lat="44.7375837" lon="9.4479189"><ele>970.9999999999999</ele><time>2026-04-19T11:03:33.963Z</time></trkpt><trkpt lat="44.7376382" lon="9.4480013"><ele>971.0</ele><time>2026-04-19T11:03:35.88Z</time></trkpt><trkpt lat="44.7377289" lon="9.4480597"><ele>971.0</ele><time>2026-04-19T11:03:37.83Z</time></trkpt><trkpt lat="44.737816" lon="9.4480797"><ele>975.0000000000001</ele><time>2026-04-19T11:03:38.886Z</time></trkpt><trkpt lat="44.7379001" lon="9.4481022"><ele>979.0</ele><time>2026-04-19T11:03:39.853Z</time></trkpt><trkpt lat="44.7379729" lon="9.4481314"><ele>983.0</ele><time>2026-04-19T11:03:40.851Z</time></trkpt><trkpt lat="44.7380276" lon="9.4481846"><ele>987.0</ele><time>2026-04-19T11:03:41.815Z</time></trkpt><trkpt lat="44.7381044" lon="9.4482423"><ele>991.0000000000001</ele><time>2026-04-19T11:03:42.879Z</time></trkpt><trkpt lat="44.7381552" lon="9.4482994"><ele>995.0</ele><time>2026-04-19T11:03:43.82Z</time></trkpt><trkpt lat="44.7381208" lon="9.4482063"><ele>995.0000000000001</ele><time>2026-04-19T11:03:44.845Z</time></trkpt><trkpt lat="44.7381645" lon="9.4481398"><ele>995.0</ele><time>2026-04-19T11:03:47.82Z</time></trkpt><trkpt lat="44.7382084" lon="9.4480652"><ele>995.0</ele><time>2026-04-19T11:03:49.829Z</time></trkpt><trkpt lat="44.7382916" lon="9.4480331"><ele>995.0</ele><time>2026-04-19T11:03:51.838Z</time></trkpt><trkpt lat="44.7383779" lon="9.447963"><ele>995.0000000000001</ele><time>2026-04-19T11:03:53.832Z</time></trkpt><trkpt lat="44.7384521" lon="9.4478635"><ele>995.0</ele><time>2026-04-19T11:03:55.828Z</time></trkpt><trkpt lat="44.7385106" lon="9.4477685"><ele>997.2</ele><time>2026-04-19T11:03:57.799Z</time></trkpt><trkpt lat="44.7386251" lon="9.4476357"><ele>999.4</ele><time>2026-04-19T11:04:00.974Z</time></trkpt><trkpt lat="44.7387016" lon="9.4476657"><ele>1001.5999999999999</ele><time>2026-04-19T11:04:02.821Z</time></trkpt><trkpt lat="44.7387896" lon="9.447755"><ele>1003.8</ele><time>2026-04-19T11:04:04.892Z</time></trkpt><trkpt lat="44.7388512" lon="9.4478423"><ele>1006.0</ele><time>2026-04-19T11:04:06.859Z</time></trkpt><trkpt lat="44.7389189" lon="9.4479788"><ele>1006.0</ele><time>2026-04-19T11:04:08.844Z</time></trkpt><trkpt lat="44.7389788" lon="9.4481046"><ele>1005.9999999999999</ele><time>2026-04-19T11:04:10.83Z</time></trkpt><trkpt lat="44.7390539" lon="9.4481977"><ele>1005.9999999999999</ele><time>2026-04-19T11:04:12.831Z</time></trkpt><trkpt lat="44.7391545" lon="9.4482176"><ele>1006.0</ele><time>2026-04-19T11:04:14.89Z</time></trkpt><trkpt lat="44.7392602" lon="9.4481792"><ele>1006.0</ele><time>2026-04-19T11:04:16.818Z</time></trkpt><trkpt lat="44.7393426" lon="9.4481592"><ele>1006.8</ele><time>2026-04-19T11:04:18.804Z</time></trkpt><trkpt lat="44.7394309" lon="9.4482302"><ele>1007.5999999999999</ele><time>2026-04-19T11:04:20.814Z</time></trkpt><trkpt lat="44.7395143" lon="9.44828"><ele>1008.4</ele><time>2026-04-19T11:04:22.837Z</time></trkpt><trkpt lat="44.7396286" lon="9.4482873"><ele>1009.2</ele><time>2026-04-19T11:04:24.878Z</time></trkpt><trkpt lat="44.7396921" lon="9.4482834"><ele>1010.0</ele><time>2026-04-19T11:04:25.902Z</time></trkpt><trkpt lat="44.7397959" lon="9.4482457"><ele>1010.0</ele><time>2026-04-19T11:04:27.833Z</time></trkpt><trkpt lat="44.7398909" lon="9.4482039"><ele>1010.0</ele><time>2026-04-19T11:04:29.899Z</time></trkpt><trkpt lat="44.7399865" lon="9.4481744"><ele>1010.0</ele><time>2026-04-19T11:04:31.829Z</time></trkpt><trkpt lat="44.7401089" lon="9.4481352"><ele>1010.0</ele><time>2026-04-19T11:04:33.805Z</time></trkpt><trkpt lat="44.7401831" lon="9.4481098"><ele>1010.0</ele><time>2026-04-19T11:04:34.846Z</time></trkpt><trkpt lat="44.7402515" lon="9.4480767"><ele>1011.0</ele><time>2026-04-19T11:04:35.783Z</time></trkpt><trkpt lat="44.7403531" lon="9.4480054"><ele>1012.0</ele><time>2026-04-19T11:04:37.815Z</time></trkpt><trkpt lat="44.7404708" lon="9.4479533"><ele>1013.0</ele><time>2026-04-19T11:04:39.837Z</time></trkpt><trkpt lat="44.7405928" lon="9.447935"><ele>1014.0</ele><time>2026-04-19T11:04:41.86Z</time></trkpt><trkpt lat="44.7406637" lon="9.4479277"><ele>1015.0</ele><time>2026-04-19T11:04:42.819Z</time></trkpt><trkpt lat="44.7407296" lon="9.4479214"><ele>1014.0</ele><time>2026-04-19T11:04:43.845Z</time></trkpt><trkpt lat="44.7408526" lon="9.4479017"><ele>1013.0</ele><time>2026-04-19T11:04:45.765Z</time></trkpt><trkpt lat="44.7409209" lon="9.4478632"><ele>1012.0</ele><time>2026-04-19T11:04:46.839Z</time></trkpt><trkpt lat="44.7409775" lon="9.4478175"><ele>1011.0</ele><time>2026-04-19T11:04:47.849Z</time></trkpt><trkpt lat="44.7410628" lon="9.447746"><ele>1010.0</ele><time>2026-04-19T11:04:49.836Z</time></trkpt><trkpt lat="44.7411675" lon="9.4476804"><ele>1010.0</ele><time>2026-04-19T11:04:51.835Z</time></trkpt><trkpt lat="44.7413577" lon="9.447625"><ele>1010.0</ele><time>2026-04-19T11:04:56.824Z</time></trkpt><trkpt lat="44.741413" lon="9.4475304"><ele>1010.0</ele><time>2026-04-19T11:04:58.875Z</time></trkpt><trkpt lat="44.7415449" lon="9.4474211"><ele>1010.0</ele><time>2026-04-19T11:05:01.093Z</time></trkpt><trkpt lat="44.7416688" lon="9.4473715"><ele>1010.0</ele><time>2026-04-19T11:05:02.835Z</time></trkpt><trkpt lat="44.7417765" lon="9.4473723"><ele>1010.0</ele><time>2026-04-19T11:05:04.836Z</time></trkpt><trkpt lat="44.7418531" lon="9.4473813"><ele>1010.0</ele><time>2026-04-19T11:05:06.859Z</time></trkpt><trkpt lat="44.741997" lon="9.4473907"><ele>1010.0</ele><time>2026-04-19T11:05:09.004Z</time></trkpt><trkpt lat="44.7420771" lon="9.4473921"><ele>1010.0</ele><time>2026-04-19T11:05:09.813Z</time></trkpt><trkpt lat="44.742188" lon="9.4473909"><ele>1010.0</ele><time>2026-04-19T11:05:10.851Z</time></trkpt><trkpt lat="44.7422964" lon="9.4473871"><ele>1010.0</ele><time>2026-04-19T11:05:11.827Z</time></trkpt><trkpt lat="44.7424054" lon="9.4473837"><ele>1010.0</ele><time>2026-04-19T11:05:12.795Z</time></trkpt><trkpt lat="44.7425067" lon="9.44738"><ele>1010.0</ele><time>2026-04-19T11:05:13.797Z</time></trkpt><trkpt lat="44.7426128" lon="9.4473869"><ele>1010.0</ele><time>2026-04-19T11:05:14.889Z</time></trkpt><trkpt lat="44.7427087" lon="9.4473951"><ele>1009.6666666666667</ele><time>2026-04-19T11:05:15.891Z</time></trkpt><trkpt lat="44.7427939" lon="9.4474001"><ele>1009.3333333333334</ele><time>2026-04-19T11:05:16.84Z</time></trkpt><trkpt lat="44.7428784" lon="9.4473989"><ele>1009.0</ele><time>2026-04-19T11:05:17.844Z</time></trkpt><trkpt lat="44.7429429" lon="9.4473638"><ele>1008.6666666666667</ele><time>2026-04-19T11:05:18.842Z</time></trkpt><trkpt lat="44.7429953" lon="9.4472909"><ele>1008.3333333333334</ele><time>2026-04-19T11:05:19.811Z</time></trkpt><trkpt lat="44.7430444" lon="9.4471987"><ele>1008.0</ele><time>2026-04-19T11:05:20.822Z</time></trkpt><trkpt lat="44.7430917" lon="9.4470843"><ele>1008.0</ele><time>2026-04-19T11:05:21.813Z</time></trkpt><trkpt lat="44.7431544" lon="9.4469836"><ele>1008.0</ele><time>2026-04-19T11:05:22.768Z</time></trkpt><trkpt lat="44.743241" lon="9.4468847"><ele>1008.0</ele><time>2026-04-19T11:05:23.795Z</time></trkpt><trkpt lat="44.7433244" lon="9.4468033"><ele>1008.0</ele><time>2026-04-19T11:05:24.778Z</time></trkpt><trkpt lat="44.7434018" lon="9.4467132"><ele>1008.0</ele><time>2026-04-19T11:05:25.793Z</time></trkpt><trkpt lat="44.7434659" lon="9.4465838"><ele>1008.0</ele><time>2026-04-19T11:05:26.872Z</time></trkpt><trkpt lat="44.7435082" lon="9.4464447"><ele>1008.0</ele><time>2026-04-19T11:05:27.848Z</time></trkpt><trkpt lat="44.7435547" lon="9.4462939"><ele>1008.0</ele><time>2026-04-19T11:05:28.814Z</time></trkpt><trkpt lat="44.7436157" lon="9.4461227"><ele>1008.0</ele><time>2026-04-19T11:05:29.795Z</time></trkpt><trkpt lat="44.7436875" lon="9.4459394"><ele>1009.75</ele><time>2026-04-19T11:05:30.795Z</time></trkpt><trkpt lat="44.743756" lon="9.4457588"><ele>1011.5</ele><time>2026-04-19T11:05:31.802Z</time></trkpt><trkpt lat="44.7438158" lon="9.4455834"><ele>1013.25</ele><time>2026-04-19T11:05:32.817Z</time></trkpt><trkpt lat="44.7438648" lon="9.445408"><ele>1015.0</ele><time>2026-04-19T11:05:33.811Z</time></trkpt><trkpt lat="44.7439022" lon="9.4452205"><ele>1015.0</ele><time>2026-04-19T11:05:34.853Z</time></trkpt><trkpt lat="44.7439197" lon="9.4450359"><ele>1015.0</ele><time>2026-04-19T11:05:35.801Z</time></trkpt><trkpt lat="44.7439247" lon="9.4448236"><ele>1015.0</ele><time>2026-04-19T11:05:36.86Z</time></trkpt><trkpt lat="44.7439177" lon="9.4446364"><ele>1015.0</ele><time>2026-04-19T11:05:37.796Z</time></trkpt><trkpt lat="44.7439052" lon="9.4444411"><ele>1014.25</ele><time>2026-04-19T11:05:38.797Z</time></trkpt><trkpt lat="44.7438967" lon="9.4442426"><ele>1013.5</ele><time>2026-04-19T11:05:39.808Z</time></trkpt><trkpt lat="44.7438996" lon="9.4440417"><ele>1012.75</ele><time>2026-04-19T11:05:40.816Z</time></trkpt><trkpt lat="44.7439212" lon="9.4438289"><ele>1012.0</ele><time>2026-04-19T11:05:41.957Z</time></trkpt><trkpt lat="44.744" lon="9.4435254"><ele>1012.0</ele><time>2026-04-19T11:05:43.84Z</time></trkpt><trkpt lat="44.7440556" lon="9.443378"><ele>1012.0</ele><time>2026-04-19T11:05:44.856Z</time></trkpt><trkpt lat="44.7440945" lon="9.4432259"><ele>1012.0</ele><time>2026-04-19T11:05:45.882Z</time></trkpt><trkpt lat="44.7441077" lon="9.4430635"><ele>1012.0</ele><time>2026-04-19T11:05:46.878Z</time></trkpt><trkpt lat="44.7441021" lon="9.4429151"><ele>1010.2</ele><time>2026-04-19T11:05:47.862Z</time></trkpt><trkpt lat="44.7440972" lon="9.4428003"><ele>1008.4000000000001</ele><time>2026-04-19T11:05:48.84Z</time></trkpt><trkpt lat="44.7441208" lon="9.4426256"><ele>1006.5999999999999</ele><time>2026-04-19T11:05:50.841Z</time></trkpt><trkpt lat="44.7441651" lon="9.4425302"><ele>1004.8</ele><time>2026-04-19T11:05:51.882Z</time></trkpt><trkpt lat="44.7442337" lon="9.4424581"><ele>1003.0</ele><time>2026-04-19T11:05:52.852Z</time></trkpt><trkpt lat="44.7443156" lon="9.4423519"><ele>1003.2</ele><time>2026-04-19T11:05:53.835Z</time></trkpt><trkpt lat="44.7443842" lon="9.4422367"><ele>1003.4</ele><time>2026-04-19T11:05:54.825Z</time></trkpt><trkpt lat="44.7444418" lon="9.4421565"><ele>1003.6000000000001</ele><time>2026-04-19T11:05:55.837Z</time></trkpt><trkpt lat="44.7445141" lon="9.4421038"><ele>1003.8000000000001</ele><time>2026-04-19T11:05:56.907Z</time></trkpt><trkpt lat="44.7446697" lon="9.4420897"><ele>1004.0</ele><time>2026-04-19T11:05:58.837Z</time></trkpt><trkpt lat="44.7447611" lon="9.4420786"><ele>1004.0000000000001</ele><time>2026-04-19T11:05:59.798Z</time></trkpt><trkpt lat="44.7448492" lon="9.4420461"><ele>1004.0</ele><time>2026-04-19T11:06:00.82Z</time></trkpt><trkpt lat="44.7449229" lon="9.4420051"><ele>1004.0</ele><time>2026-04-19T11:06:01.832Z</time></trkpt><trkpt lat="44.7450177" lon="9.4419442"><ele>1004.0</ele><time>2026-04-19T11:06:02.811Z</time></trkpt><trkpt lat="44.7450906" lon="9.4418844"><ele>1004.0000000000001</ele><time>2026-04-19T11:06:03.818Z</time></trkpt><trkpt lat="44.7451545" lon="9.4418188"><ele>1004.0</ele><time>2026-04-19T11:06:04.786Z</time></trkpt><trkpt lat="44.7452209" lon="9.4417436"><ele>1004.0000000000001</ele><time>2026-04-19T11:06:05.827Z</time></trkpt><trkpt lat="44.74527" lon="9.4416575"><ele>1004.0</ele><time>2026-04-19T11:06:06.815Z</time></trkpt><trkpt lat="44.7453014" lon="9.4415718"><ele>1004.0</ele><time>2026-04-19T11:06:07.805Z</time></trkpt><trkpt lat="44.7453064" lon="9.4414792"><ele>1004.0</ele><time>2026-04-19T11:06:08.777Z</time></trkpt><trkpt lat="44.7452789" lon="9.4413933"><ele>1004.0000000000001</ele><time>2026-04-19T11:06:09.817Z</time></trkpt><trkpt lat="44.7451508" lon="9.4413232"><ele>1004.0</ele><time>2026-04-19T11:06:11.825Z</time></trkpt><trkpt lat="44.7450757" lon="9.4413167"><ele>999.5</ele><time>2026-04-19T11:06:12.895Z</time></trkpt><trkpt lat="44.7450023" lon="9.4412206"><ele>995.0</ele><time>2026-04-19T11:06:14.8Z</time></trkpt><trkpt lat="44.7450448" lon="9.4410616"><ele>990.5</ele><time>2026-04-19T11:06:16.85Z</time></trkpt><trkpt lat="44.7451611" lon="9.4409816"><ele>986.0</ele><time>2026-04-19T11:06:18.814Z</time></trkpt><trkpt lat="44.7452801" lon="9.4409049"><ele>986.0000000000001</ele><time>2026-04-19T11:06:20.799Z</time></trkpt><trkpt lat="44.745355" lon="9.4408654"><ele>986.0</ele><time>2026-04-19T11:06:21.811Z</time></trkpt><trkpt lat="44.7454169" lon="9.4408095"><ele>986.0</ele><time>2026-04-19T11:06:22.843Z</time></trkpt><trkpt lat="44.745482" lon="9.4407567"><ele>986.0</ele><time>2026-04-19T11:06:23.821Z</time></trkpt><trkpt lat="44.7455522" lon="9.4407139"><ele>986.0000000000001</ele><time>2026-04-19T11:06:24.778Z</time></trkpt><trkpt lat="44.7456226" lon="9.4406652"><ele>986.0</ele><time>2026-04-19T11:06:25.814Z</time></trkpt><trkpt lat="44.7456908" lon="9.4406068"><ele>986.0000000000001</ele><time>2026-04-19T11:06:26.784Z</time></trkpt><trkpt lat="44.7457591" lon="9.4405346"><ele>986.0</ele><time>2026-04-19T11:06:27.814Z</time></trkpt><trkpt lat="44.7458015" lon="9.4404518"><ele>986.0</ele><time>2026-04-19T11:06:28.817Z</time></trkpt><trkpt lat="44.7458278" lon="9.4403639"><ele>986.0</ele><time>2026-04-19T11:06:29.832Z</time></trkpt><trkpt lat="44.7458473" lon="9.4402557"><ele>986.0000000000001</ele><time>2026-04-19T11:06:30.875Z</time></trkpt><trkpt lat="44.7458575" lon="9.4401384"><ele>986.0</ele><time>2026-04-19T11:06:31.818Z</time></trkpt><trkpt lat="44.74587" lon="9.4400127"><ele>983.0</ele><time>2026-04-19T11:06:32.824Z</time></trkpt><trkpt lat="44.7458906" lon="9.4398905"><ele>979.9999999999999</ele><time>2026-04-19T11:06:33.849Z</time></trkpt><trkpt lat="44.745917" lon="9.4397569"><ele>976.9999999999999</ele><time>2026-04-19T11:06:34.833Z</time></trkpt><trkpt lat="44.7459498" lon="9.4396099"><ele>974.0</ele><time>2026-04-19T11:06:35.846Z</time></trkpt><trkpt lat="44.7459826" lon="9.4394897"><ele>971.0</ele><time>2026-04-19T11:06:36.811Z</time></trkpt><trkpt lat="44.7460121" lon="9.4393747"><ele>973.0</ele><time>2026-04-19T11:06:37.847Z</time></trkpt><trkpt lat="44.746029" lon="9.4392696"><ele>975.0</ele><time>2026-04-19T11:06:38.86Z</time></trkpt><trkpt lat="44.7460385" lon="9.4391469"><ele>977.0</ele><time>2026-04-19T11:06:39.889Z</time></trkpt><trkpt lat="44.7460556" lon="9.4390061"><ele>979.0</ele><time>2026-04-19T11:06:40.91Z</time></trkpt><trkpt lat="44.746103" lon="9.4387245"><ele>975.8000000000001</ele><time>2026-04-19T11:06:42.872Z</time></trkpt><trkpt lat="44.7461146" lon="9.4385705"><ele>972.6000000000001</ele><time>2026-04-19T11:06:43.875Z</time></trkpt><trkpt lat="44.7461157" lon="9.4384106"><ele>969.4</ele><time>2026-04-19T11:06:44.891Z</time></trkpt><trkpt lat="44.746112" lon="9.4382879"><ele>966.2</ele><time>2026-04-19T11:06:45.834Z</time></trkpt><trkpt lat="44.7461204" lon="9.4381771"><ele>963.0</ele><time>2026-04-19T11:06:46.841Z</time></trkpt><trkpt lat="44.7461541" lon="9.4380806"><ele>963.0</ele><time>2026-04-19T11:06:47.879Z</time></trkpt><trkpt lat="44.7462148" lon="9.4380004"><ele>963.0</ele><time>2026-04-19T11:06:48.848Z</time></trkpt><trkpt lat="44.7462982" lon="9.4379209"><ele>963.0</ele><time>2026-04-19T11:06:49.873Z</time></trkpt><trkpt lat="44.7463958" lon="9.4378521"><ele>963.0</ele><time>2026-04-19T11:06:50.859Z</time></trkpt><trkpt lat="44.7465087" lon="9.4377973"><ele>963.0</ele><time>2026-04-19T11:06:51.937Z</time></trkpt><trkpt lat="44.7466162" lon="9.4377578"><ele>957.3333333333333</ele><time>2026-04-19T11:06:52.874Z</time></trkpt><trkpt lat="44.7467292" lon="9.4377138"><ele>951.6666666666666</ele><time>2026-04-19T11:06:53.838Z</time></trkpt><trkpt lat="44.7468656" lon="9.4376675"><ele>946.0</ele><time>2026-04-19T11:06:55.017Z</time></trkpt><trkpt lat="44.7470865" lon="9.4375581"><ele>946.0</ele><time>2026-04-19T11:06:56.93Z</time></trkpt><trkpt lat="44.7471765" lon="9.4374887"><ele>945.9999999999999</ele><time>2026-04-19T11:06:57.855Z</time></trkpt><trkpt lat="44.7472645" lon="9.4374191"><ele>945.9999999999999</ele><time>2026-04-19T11:06:58.853Z</time></trkpt><trkpt lat="44.747361" lon="9.437378"><ele>946.0</ele><time>2026-04-19T11:06:59.922Z</time></trkpt><trkpt lat="44.7474616" lon="9.4373537"><ele>946.0</ele><time>2026-04-19T11:07:00.891Z</time></trkpt><trkpt lat="44.7475696" lon="9.4373275"><ele>946.0</ele><time>2026-04-19T11:07:01.889Z</time></trkpt><trkpt lat="44.7476862" lon="9.4373049"><ele>945.9999999999999</ele><time>2026-04-19T11:07:02.911Z</time></trkpt><trkpt lat="44.7477962" lon="9.4372858"><ele>945.9999999999999</ele><time>2026-04-19T11:07:03.887Z</time></trkpt><trkpt lat="44.7478964" lon="9.4372714"><ele>946.0</ele><time>2026-04-19T11:07:04.857Z</time></trkpt><trkpt lat="44.7479944" lon="9.4372492"><ele>946.0</ele><time>2026-04-19T11:07:06.007Z</time></trkpt><trkpt lat="44.7480838" lon="9.437105"><ele>944.8</ele><time>2026-04-19T11:07:07.95Z</time></trkpt><trkpt lat="44.748094" lon="9.4369928"><ele>943.5999999999999</ele><time>2026-04-19T11:07:08.865Z</time></trkpt><trkpt lat="44.7481073" lon="9.4368454"><ele>942.4</ele><time>2026-04-19T11:07:09.869Z</time></trkpt><trkpt lat="44.7481433" lon="9.4366918"><ele>941.2</ele><time>2026-04-19T11:07:10.888Z</time></trkpt><trkpt lat="44.7482016" lon="9.4365528"><ele>940.0</ele><time>2026-04-19T11:07:11.924Z</time></trkpt><trkpt lat="44.7482302" lon="9.4364216"><ele>938.0</ele><time>2026-04-19T11:07:12.877Z</time></trkpt><trkpt lat="44.7482314" lon="9.4362719"><ele>936.0</ele><time>2026-04-19T11:07:13.826Z</time></trkpt><trkpt lat="44.748215" lon="9.4361092"><ele>934.0</ele><time>2026-04-19T11:07:14.851Z</time></trkpt><trkpt lat="44.7482099" lon="9.4359536"><ele>932.0</ele><time>2026-04-19T11:07:15.913Z</time></trkpt><trkpt lat="44.7482329" lon="9.4358292"><ele>930.0</ele><time>2026-04-19T11:07:16.85Z</time></trkpt><trkpt lat="44.7482786" lon="9.4356929"><ele>930.0</ele><time>2026-04-19T11:07:17.892Z</time></trkpt><trkpt lat="44.7483574" lon="9.4355587"><ele>930.0</ele><time>2026-04-19T11:07:18.917Z</time></trkpt><trkpt lat="44.7484461" lon="9.4354276"><ele>930.0</ele><time>2026-04-19T11:07:19.895Z</time></trkpt><trkpt lat="44.7485375" lon="9.4353031"><ele>930.0</ele><time>2026-04-19T11:07:20.944Z</time></trkpt><trkpt lat="44.7485898" lon="9.4351872"><ele>930.0</ele><time>2026-04-19T11:07:21.855Z</time></trkpt><trkpt lat="44.7486183" lon="9.4350438"><ele>930.0</ele><time>2026-04-19T11:07:22.911Z</time></trkpt><trkpt lat="44.7486085" lon="9.4349115"><ele>930.0</ele><time>2026-04-19T11:07:23.921Z</time></trkpt><trkpt lat="44.7485737" lon="9.434778"><ele>930.0</ele><time>2026-04-19T11:07:24.916Z</time></trkpt><trkpt lat="44.7485212" lon="9.4346584"><ele>930.0</ele><time>2026-04-19T11:07:25.889Z</time></trkpt><trkpt lat="44.7484939" lon="9.4345535"><ele>927.0</ele><time>2026-04-19T11:07:26.848Z</time></trkpt><trkpt lat="44.748507" lon="9.4344174"><ele>924.0</ele><time>2026-04-19T11:07:28.886Z</time></trkpt><trkpt lat="44.7485849" lon="9.4343163"><ele>921.0</ele><time>2026-04-19T11:07:30.927Z</time></trkpt><trkpt lat="44.7486431" lon="9.4342765"><ele>918.0</ele><time>2026-04-19T11:07:31.911Z</time></trkpt><trkpt lat="44.7487124" lon="9.43425"><ele>915.0</ele><time>2026-04-19T11:07:32.903Z</time></trkpt><trkpt lat="44.7487929" lon="9.4342391"><ele>912.0</ele><time>2026-04-19T11:07:33.818Z</time></trkpt><trkpt lat="44.748923" lon="9.4342506"><ele>912.0</ele><time>2026-04-19T11:07:34.949Z</time></trkpt><trkpt lat="44.7490316" lon="9.4342516"><ele>912.0</ele><time>2026-04-19T11:07:35.894Z</time></trkpt><trkpt lat="44.7491415" lon="9.4342496"><ele>912.0</ele><time>2026-04-19T11:07:36.817Z</time></trkpt><trkpt lat="44.7492599" lon="9.4342348"><ele>912.0</ele><time>2026-04-19T11:07:37.894Z</time></trkpt><trkpt lat="44.7493602" lon="9.4342237"><ele>912.0</ele><time>2026-04-19T11:07:38.895Z</time></trkpt><trkpt lat="44.7494512" lon="9.4341932"><ele>913.2</ele><time>2026-04-19T11:07:39.849Z</time></trkpt><trkpt lat="44.7495475" lon="9.4341555"><ele>914.4000000000001</ele><time>2026-04-19T11:07:40.828Z</time></trkpt><trkpt lat="44.7496422" lon="9.4340985"><ele>915.5999999999999</ele><time>2026-04-19T11:07:41.85Z</time></trkpt><trkpt lat="44.7497368" lon="9.4340318"><ele>916.8</ele><time>2026-04-19T11:07:42.901Z</time></trkpt><trkpt lat="44.7498076" lon="9.4339681"><ele>918.0</ele><time>2026-04-19T11:07:43.825Z</time></trkpt><trkpt lat="44.7498828" lon="9.433889"><ele>918.0</ele><time>2026-04-19T11:07:44.836Z</time></trkpt><trkpt lat="44.7499605" lon="9.4338168"><ele>918.0</ele><time>2026-04-19T11:07:45.819Z</time></trkpt><trkpt lat="44.7500385" lon="9.4337494"><ele>918.0</ele><time>2026-04-19T11:07:46.894Z</time></trkpt><trkpt lat="44.750103" lon="9.433689"><ele>918.0</ele><time>2026-04-19T11:07:47.878Z</time></trkpt><trkpt lat="44.7501709" lon="9.4336298"><ele>918.0</ele><time>2026-04-19T11:07:48.844Z</time></trkpt><trkpt lat="44.7502495" lon="9.4335787"><ele>918.0</ele><time>2026-04-19T11:07:49.862Z</time></trkpt><trkpt lat="44.7503339" lon="9.4335243"><ele>915.8333333333334</ele><time>2026-04-19T11:07:50.833Z</time></trkpt><trkpt lat="44.7504233" lon="9.4334712"><ele>913.6666666666667</ele><time>2026-04-19T11:07:51.838Z</time></trkpt><trkpt lat="44.7505034" lon="9.4334204"><ele>911.5</ele><time>2026-04-19T11:07:52.814Z</time></trkpt><trkpt lat="44.7505817" lon="9.4333819"><ele>909.3333333333334</ele><time>2026-04-19T11:07:53.795Z</time></trkpt><trkpt lat="44.7506743" lon="9.4333433"><ele>907.1666666666667</ele><time>2026-04-19T11:07:54.865Z</time></trkpt><trkpt lat="44.7507553" lon="9.4333174"><ele>905.0</ele><time>2026-04-19T11:07:55.935Z</time></trkpt><trkpt lat="44.7508347" lon="9.4332958"><ele>905.0000000000001</ele><time>2026-04-19T11:07:56.866Z</time></trkpt><trkpt lat="44.7509164" lon="9.4332663"><ele>905.0</ele><time>2026-04-19T11:07:57.897Z</time></trkpt><trkpt lat="44.7509953" lon="9.4332345"><ele>905.0</ele><time>2026-04-19T11:07:58.908Z</time></trkpt><trkpt lat="44.7510673" lon="9.4331992"><ele>905.0</ele><time>2026-04-19T11:07:59.866Z</time></trkpt><trkpt lat="44.7511333" lon="9.4331615"><ele>905.0000000000001</ele><time>2026-04-19T11:08:00.843Z</time></trkpt><trkpt lat="44.7512045" lon="9.4331033"><ele>905.0</ele><time>2026-04-19T11:08:02.843Z</time></trkpt><trkpt lat="44.751277" lon="9.4330532"><ele>905.7142857142857</ele><time>2026-04-19T11:08:04.846Z</time></trkpt><trkpt lat="44.751341" lon="9.4330147"><ele>906.4285714285713</ele><time>2026-04-19T11:08:06.847Z</time></trkpt><trkpt lat="44.7514099" lon="9.4329522"><ele>907.1428571428571</ele><time>2026-04-19T11:08:09.945Z</time></trkpt><trkpt lat="44.7514603" lon="9.4328903"><ele>907.8571428571429</ele><time>2026-04-19T11:18:24.902Z</time></trkpt><trkpt lat="44.7515326" lon="9.4328339"><ele>908.5714285714286</ele><time>2026-04-19T11:18:26.972Z</time></trkpt><trkpt lat="44.7515862" lon="9.4327858"><ele>909.2857142857142</ele><time>2026-04-19T11:18:28.001Z</time></trkpt><trkpt lat="44.7516479" lon="9.4327288"><ele>910.0</ele><time>2026-04-19T11:18:29.015Z</time></trkpt><trkpt lat="44.7517752" lon="9.4326114"><ele>908.6</ele><time>2026-04-19T11:18:31.027Z</time></trkpt><trkpt lat="44.7518822" lon="9.4324932"><ele>907.2</ele><time>2026-04-19T11:18:32.996Z</time></trkpt><trkpt lat="44.7519766" lon="9.4323844"><ele>905.8</ele><time>2026-04-19T11:18:35.022Z</time></trkpt><trkpt lat="44.7520477" lon="9.4322831"><ele>904.4</ele><time>2026-04-19T11:18:36.939Z</time></trkpt><trkpt lat="44.7520882" lon="9.4322117"><ele>903.0</ele><time>2026-04-19T11:18:37.938Z</time></trkpt><trkpt lat="44.7521345" lon="9.4321321"><ele>902.0</ele><time>2026-04-19T11:18:38.847Z</time></trkpt><trkpt lat="44.7521914" lon="9.4320355"><ele>901.0</ele><time>2026-04-19T11:18:39.874Z</time></trkpt><trkpt lat="44.7522391" lon="9.4319406"><ele>900.0</ele><time>2026-04-19T11:18:40.83Z</time></trkpt><trkpt lat="44.7522908" lon="9.4318425"><ele>899.0</ele><time>2026-04-19T11:18:41.872Z</time></trkpt><trkpt lat="44.7523425" lon="9.431741"><ele>898.0</ele><time>2026-04-19T11:18:42.94Z</time></trkpt><trkpt lat="44.7523893" lon="9.4316227"><ele>897.0</ele><time>2026-04-19T11:18:44.035Z</time></trkpt><trkpt lat="44.7524744" lon="9.4313375"><ele>897.75</ele><time>2026-04-19T11:18:45.977Z</time></trkpt><trkpt lat="44.7525227" lon="9.431199"><ele>898.5</ele><time>2026-04-19T11:18:46.914Z</time></trkpt><trkpt lat="44.7525783" lon="9.431061"><ele>899.25</ele><time>2026-04-19T11:18:47.924Z</time></trkpt><trkpt lat="44.7526415" lon="9.4309287"><ele>900.0</ele><time>2026-04-19T11:18:48.899Z</time></trkpt><trkpt lat="44.7527165" lon="9.4307994"><ele>896.25</ele><time>2026-04-19T11:18:49.901Z</time></trkpt><trkpt lat="44.7527934" lon="9.4306641"><ele>892.5</ele><time>2026-04-19T11:18:50.943Z</time></trkpt><trkpt lat="44.7528602" lon="9.4305327"><ele>888.75</ele><time>2026-04-19T11:18:51.92Z</time></trkpt><trkpt lat="44.7529334" lon="9.4303597"><ele>885.0</ele><time>2026-04-19T11:18:53.126Z</time></trkpt><trkpt lat="44.7529827" lon="9.4302222"><ele>885.0</ele><time>2026-04-19T11:18:54.005Z</time></trkpt><trkpt lat="44.7530504" lon="9.4300692"><ele>885.0</ele><time>2026-04-19T11:18:55.031Z</time></trkpt><trkpt lat="44.7531295" lon="9.429926"><ele>885.0</ele><time>2026-04-19T11:18:56.058Z</time></trkpt><trkpt lat="44.7532053" lon="9.429778"><ele>885.0</ele><time>2026-04-19T11:18:57.156Z</time></trkpt><trkpt lat="44.7532831" lon="9.4295254"><ele>884.0</ele><time>2026-04-19T11:18:58.984Z</time></trkpt><trkpt lat="44.7533041" lon="9.4293818"><ele>883.0</ele><time>2026-04-19T11:18:59.979Z</time></trkpt><trkpt lat="44.7533046" lon="9.4292479"><ele>882.0</ele><time>2026-04-19T11:19:00.921Z</time></trkpt><trkpt lat="44.7533127" lon="9.4291117"><ele>881.0</ele><time>2026-04-19T11:19:01.92Z</time></trkpt><trkpt lat="44.7533287" lon="9.4290083"><ele>880.0</ele><time>2026-04-19T11:19:02.863Z</time></trkpt><trkpt lat="44.7533661" lon="9.4289191"><ele>879.0</ele><time>2026-04-19T11:19:03.918Z</time></trkpt><trkpt lat="44.7534148" lon="9.4288478"><ele>879.0</ele><time>2026-04-19T11:19:05.102Z</time></trkpt><trkpt lat="44.7534989" lon="9.4288222"><ele>879.0</ele><time>2026-04-19T11:19:06.957Z</time></trkpt><trkpt lat="44.7535621" lon="9.4288363"><ele>879.0</ele><time>2026-04-19T11:19:07.888Z</time></trkpt><trkpt lat="44.7536423" lon="9.4288584"><ele>879.0</ele><time>2026-04-19T11:19:08.937Z</time></trkpt><trkpt lat="44.7537284" lon="9.4288817"><ele>879.0</ele><time>2026-04-19T11:19:09.896Z</time></trkpt><trkpt lat="44.7538194" lon="9.4289207"><ele>879.0</ele><time>2026-04-19T11:19:10.907Z</time></trkpt><trkpt lat="44.7539008" lon="9.4289778"><ele>878.6</ele><time>2026-04-19T11:19:11.878Z</time></trkpt><trkpt lat="44.7539661" lon="9.4290584"><ele>878.2</ele><time>2026-04-19T11:19:12.83Z</time></trkpt><trkpt lat="44.7540208" lon="9.4291661"><ele>877.8000000000001</ele><time>2026-04-19T11:19:13.87Z</time></trkpt><trkpt lat="44.7540707" lon="9.4292955"><ele>877.4000000000001</ele><time>2026-04-19T11:19:14.837Z</time></trkpt><trkpt lat="44.7541401" lon="9.4294617"><ele>877.0</ele><time>2026-04-19T11:19:16.144Z</time></trkpt><trkpt lat="44.7542312" lon="9.429669"><ele>877.0</ele><time>2026-04-19T11:19:17.885Z</time></trkpt><trkpt lat="44.7542951" lon="9.4297678"><ele>877.0</ele><time>2026-04-19T11:19:18.919Z</time></trkpt><trkpt lat="44.7543754" lon="9.4298369"><ele>877.0</ele><time>2026-04-19T11:19:19.853Z</time></trkpt><trkpt lat="44.7544838" lon="9.4299074"><ele>877.0</ele><time>2026-04-19T11:19:20.944Z</time></trkpt><trkpt lat="44.7545965" lon="9.4299576"><ele>877.0</ele><time>2026-04-19T11:19:21.898Z</time></trkpt><trkpt lat="44.754729" lon="9.4300039"><ele>874.75</ele><time>2026-04-19T11:19:22.882Z</time></trkpt><trkpt lat="44.7548598" lon="9.4300527"><ele>872.5</ele><time>2026-04-19T11:19:23.882Z</time></trkpt><trkpt lat="44.7549735" lon="9.4301051"><ele>870.25</ele><time>2026-04-19T11:19:24.87Z</time></trkpt><trkpt lat="44.7550698" lon="9.4301645"><ele>868.0</ele><time>2026-04-19T11:19:25.891Z</time></trkpt><trkpt lat="44.7551563" lon="9.4302285"><ele>867.5</ele><time>2026-04-19T11:19:26.859Z</time></trkpt><trkpt lat="44.7552324" lon="9.4303397"><ele>867.0</ele><time>2026-04-19T11:19:27.853Z</time></trkpt><trkpt lat="44.7552946" lon="9.43048"><ele>866.5</ele><time>2026-04-19T11:19:28.849Z</time></trkpt><trkpt lat="44.7553542" lon="9.4306592"><ele>866.0</ele><time>2026-04-19T11:19:29.838Z</time></trkpt><trkpt lat="44.7554093" lon="9.4308491"><ele>866.0</ele><time>2026-04-19T11:19:30.843Z</time></trkpt><trkpt lat="44.7554816" lon="9.4310951"><ele>866.0</ele><time>2026-04-19T11:19:32.093Z</time></trkpt><trkpt lat="44.7556101" lon="9.431446"><ele>865.3333333333334</ele><time>2026-04-19T11:19:33.907Z</time></trkpt><trkpt lat="44.7557261" lon="9.4317024"><ele>864.6666666666667</ele><time>2026-04-19T11:19:35.008Z</time></trkpt><trkpt lat="44.7558708" lon="9.4319477"><ele>864.0</ele><time>2026-04-19T11:19:35.988Z</time></trkpt><trkpt lat="44.7559983" lon="9.4321436"><ele>863.6666666666667</ele><time>2026-04-19T11:19:36.888Z</time></trkpt><trkpt lat="44.7561297" lon="9.4323468"><ele>863.3333333333334</ele><time>2026-04-19T11:19:37.87Z</time></trkpt><trkpt lat="44.7562505" lon="9.4325263"><ele>863.0</ele><time>2026-04-19T11:19:38.837Z</time></trkpt><trkpt lat="44.756373" lon="9.4326832"><ele>863.0</ele><time>2026-04-19T11:19:39.892Z</time></trkpt><trkpt lat="44.7564816" lon="9.4328043"><ele>863.0</ele><time>2026-04-19T11:19:40.895Z</time></trkpt><trkpt lat="44.7565827" lon="9.4328942"><ele>863.0</ele><time>2026-04-19T11:19:41.861Z</time></trkpt><trkpt lat="44.7567005" lon="9.4329777"><ele>863.0</ele><time>2026-04-19T11:19:42.831Z</time></trkpt><trkpt lat="44.7568449" lon="9.4330491"><ele>859.3333333333334</ele><time>2026-04-19T11:19:43.896Z</time></trkpt><trkpt lat="44.7569862" lon="9.4330886"><ele>855.6666666666667</ele><time>2026-04-19T11:19:44.896Z</time></trkpt><trkpt lat="44.7571359" lon="9.4331077"><ele>852.0</ele><time>2026-04-19T11:19:45.853Z</time></trkpt><trkpt lat="44.757299" lon="9.4330876"><ele>852.0</ele><time>2026-04-19T11:19:46.855Z</time></trkpt><trkpt lat="44.7574486" lon="9.4330462"><ele>852.0</ele><time>2026-04-19T11:19:47.855Z</time></trkpt><trkpt lat="44.757589" lon="9.4330178"><ele>852.0</ele><time>2026-04-19T11:19:48.844Z</time></trkpt><trkpt lat="44.7577165" lon="9.4330035"><ele>852.0</ele><time>2026-04-19T11:19:49.875Z</time></trkpt><trkpt lat="44.7578312" lon="9.4330135"><ele>850.5</ele><time>2026-04-19T11:19:50.9Z</time></trkpt><trkpt lat="44.7579406" lon="9.4330642"><ele>849.0</ele><time>2026-04-19T11:19:51.833Z</time></trkpt><trkpt lat="44.7580686" lon="9.4331643"><ele>847.5</ele><time>2026-04-19T11:19:52.855Z</time></trkpt><trkpt lat="44.7581774" lon="9.4332904"><ele>846.0</ele><time>2026-04-19T11:19:53.884Z</time></trkpt><trkpt lat="44.7583032" lon="9.433427"><ele>846.0</ele><time>2026-04-19T11:19:54.853Z</time></trkpt><trkpt lat="44.7584155" lon="9.4335745"><ele>846.0</ele><time>2026-04-19T11:19:55.83Z</time></trkpt><trkpt lat="44.7585351" lon="9.4337445"><ele>846.0</ele><time>2026-04-19T11:19:56.959Z</time></trkpt><trkpt lat="44.7586248" lon="9.4338893"><ele>847.0</ele><time>2026-04-19T11:19:57.881Z</time></trkpt><trkpt lat="44.758712" lon="9.4340632"><ele>848.0</ele><time>2026-04-19T11:19:58.906Z</time></trkpt><trkpt lat="44.7587598" lon="9.4342218"><ele>849.0</ele><time>2026-04-19T11:19:59.875Z</time></trkpt><trkpt lat="44.758798" lon="9.4343938"><ele>850.0</ele><time>2026-04-19T11:20:00.83Z</time></trkpt><trkpt lat="44.7588394" lon="9.4345647"><ele>852.0</ele><time>2026-04-19T11:20:01.876Z</time></trkpt><trkpt lat="44.7588869" lon="9.4346949"><ele>854.0</ele><time>2026-04-19T11:20:02.843Z</time></trkpt><trkpt lat="44.7589714" lon="9.4348152"><ele>856.0</ele><time>2026-04-19T11:20:03.966Z</time></trkpt><trkpt lat="44.7590783" lon="9.4348923"><ele>858.0</ele><time>2026-04-19T11:20:04.957Z</time></trkpt><trkpt lat="44.759337" lon="9.435069"><ele>859.75</ele><time>2026-04-19T11:20:06.891Z</time></trkpt><trkpt lat="44.7594745" lon="9.4351545"><ele>861.5</ele><time>2026-04-19T11:20:07.869Z</time></trkpt><trkpt lat="44.7596256" lon="9.4351993"><ele>863.25</ele><time>2026-04-19T11:20:08.956Z</time></trkpt><trkpt lat="44.7597392" lon="9.4352099"><ele>865.0</ele><time>2026-04-19T11:20:09.88Z</time></trkpt><trkpt lat="44.7598488" lon="9.4352325"><ele>865.0</ele><time>2026-04-19T11:20:10.845Z</time></trkpt><trkpt lat="44.7599627" lon="9.4352889"><ele>865.0</ele><time>2026-04-19T11:20:11.876Z</time></trkpt><trkpt lat="44.7600652" lon="9.4353943"><ele>865.0</ele><time>2026-04-19T11:20:12.932Z</time></trkpt><trkpt lat="44.7601451" lon="9.4355251"><ele>865.0</ele><time>2026-04-19T11:20:13.845Z</time></trkpt><trkpt lat="44.7602403" lon="9.4356908"><ele>866.75</ele><time>2026-04-19T11:20:14.881Z</time></trkpt><trkpt lat="44.7603206" lon="9.4358546"><ele>868.5</ele><time>2026-04-19T11:20:15.849Z</time></trkpt><trkpt lat="44.7604012" lon="9.436026"><ele>870.25</ele><time>2026-04-19T11:20:16.873Z</time></trkpt><trkpt lat="44.7604672" lon="9.4361928"><ele>872.0</ele><time>2026-04-19T11:20:17.88Z</time></trkpt><trkpt lat="44.7605355" lon="9.4363601"><ele>872.0</ele><time>2026-04-19T11:20:18.886Z</time></trkpt><trkpt lat="44.7606227" lon="9.4365395"><ele>872.0</ele><time>2026-04-19T11:20:19.986Z</time></trkpt><trkpt lat="44.760781" lon="9.436824"><ele>872.0</ele><time>2026-04-19T11:20:21.94Z</time></trkpt><trkpt lat="44.7608394" lon="9.4369425"><ele>872.0</ele><time>2026-04-19T11:20:22.845Z</time></trkpt><trkpt lat="44.7608989" lon="9.4370911"><ele>872.0</ele><time>2026-04-19T11:20:23.887Z</time></trkpt><trkpt lat="44.7609363" lon="9.4372299"><ele>872.0</ele><time>2026-04-19T11:20:24.903Z</time></trkpt><trkpt lat="44.7609546" lon="9.4373742"><ele>872.0</ele><time>2026-04-19T11:20:25.887Z</time></trkpt><trkpt lat="44.7609392" lon="9.4375251"><ele>872.0</ele><time>2026-04-19T11:20:26.892Z</time></trkpt><trkpt lat="44.7609176" lon="9.4376763"><ele>871.25</ele><time>2026-04-19T11:20:27.815Z</time></trkpt><trkpt lat="44.760906" lon="9.4378815"><ele>870.5</ele><time>2026-04-19T11:20:28.95Z</time></trkpt><trkpt lat="44.760926" lon="9.4380582"><ele>869.75</ele><time>2026-04-19T11:20:29.856Z</time></trkpt><trkpt lat="44.7609672" lon="9.4382592"><ele>869.0</ele><time>2026-04-19T11:20:30.861Z</time></trkpt><trkpt lat="44.7609991" lon="9.4384411"><ele>869.0</ele><time>2026-04-19T11:20:31.824Z</time></trkpt><trkpt lat="44.7610223" lon="9.4386361"><ele>869.0</ele><time>2026-04-19T11:20:32.928Z</time></trkpt><trkpt lat="44.7610321" lon="9.4387769"><ele>869.0</ele><time>2026-04-19T11:20:33.854Z</time></trkpt><trkpt lat="44.7610239" lon="9.4389188"><ele>869.0</ele><time>2026-04-19T11:20:34.798Z</time></trkpt><trkpt lat="44.76101" lon="9.4390778"><ele>869.8000000000001</ele><time>2026-04-19T11:20:35.82Z</time></trkpt><trkpt lat="44.7609901" lon="9.4392745"><ele>870.6000000000001</ele><time>2026-04-19T11:20:36.899Z</time></trkpt><trkpt lat="44.7609795" lon="9.4394126"><ele>871.4</ele><time>2026-04-19T11:20:37.854Z</time></trkpt><trkpt lat="44.7609779" lon="9.4395458"><ele>872.2</ele><time>2026-04-19T11:20:38.816Z</time></trkpt><trkpt lat="44.7609959" lon="9.4396693"><ele>873.0</ele><time>2026-04-19T11:20:39.838Z</time></trkpt><trkpt lat="44.7610507" lon="9.4397792"><ele>866.3333333333334</ele><time>2026-04-19T11:20:40.833Z</time></trkpt><trkpt lat="44.7611193" lon="9.4398796"><ele>859.6666666666667</ele><time>2026-04-19T11:20:41.938Z</time></trkpt><trkpt lat="44.7611661" lon="9.4399507"><ele>853.0</ele><time>2026-04-19T11:20:42.85Z</time></trkpt><trkpt lat="44.7611939" lon="9.440049"><ele>846.3333333333334</ele><time>2026-04-19T11:20:43.86Z</time></trkpt><trkpt lat="44.7611958" lon="9.4401554"><ele>839.6666666666667</ele><time>2026-04-19T11:20:44.831Z</time></trkpt><trkpt lat="44.76117" lon="9.440284"><ele>833.0</ele><time>2026-04-19T11:20:45.826Z</time></trkpt><trkpt lat="44.7611267" lon="9.4404157"><ele>834.5</ele><time>2026-04-19T11:20:46.79Z</time></trkpt><trkpt lat="44.7610705" lon="9.4405721"><ele>836.0</ele><time>2026-04-19T11:20:47.851Z</time></trkpt><trkpt lat="44.7610202" lon="9.4407233"><ele>837.5</ele><time>2026-04-19T11:20:48.857Z</time></trkpt><trkpt lat="44.7609843" lon="9.440869"><ele>839.0</ele><time>2026-04-19T11:20:49.857Z</time></trkpt><trkpt lat="44.7609713" lon="9.4410367"><ele>841.4000000000001</ele><time>2026-04-19T11:20:50.896Z</time></trkpt><trkpt lat="44.7609853" lon="9.4412136"><ele>843.8</ele><time>2026-04-19T11:20:51.934Z</time></trkpt><trkpt lat="44.7610139" lon="9.4413607"><ele>846.2</ele><time>2026-04-19T11:20:52.855Z</time></trkpt><trkpt lat="44.7610328" lon="9.4414959"><ele>848.5999999999999</ele><time>2026-04-19T11:20:53.851Z</time></trkpt><trkpt lat="44.7610378" lon="9.4416163"><ele>851.0</ele><time>2026-04-19T11:20:54.823Z</time></trkpt><trkpt lat="44.7610121" lon="9.4417274"><ele>857.0000000000001</ele><time>2026-04-19T11:20:55.839Z</time></trkpt><trkpt lat="44.7609661" lon="9.4418187"><ele>863.0</ele><time>2026-04-19T11:20:56.849Z</time></trkpt><trkpt lat="44.7608956" lon="9.4419317"><ele>869.0</ele><time>2026-04-19T11:20:57.931Z</time></trkpt><trkpt lat="44.7608486" lon="9.4420167"><ele>875.0</ele><time>2026-04-19T11:20:58.836Z</time></trkpt><trkpt lat="44.7608134" lon="9.442091"><ele>881.0000000000001</ele><time>2026-04-19T11:20:59.857Z</time></trkpt><trkpt lat="44.7608192" lon="9.4422437"><ele>887.0</ele><time>2026-04-19T11:21:01.852Z</time></trkpt><trkpt lat="44.7608692" lon="9.4423273"><ele>887.0000000000001</ele><time>2026-04-19T11:21:02.868Z</time></trkpt><trkpt lat="44.7609222" lon="9.4423778"><ele>887.0</ele><time>2026-04-19T11:21:03.833Z</time></trkpt><trkpt lat="44.7609932" lon="9.442401"><ele>887.0</ele><time>2026-04-19T11:21:04.793Z</time></trkpt><trkpt lat="44.7610758" lon="9.4424087"><ele>887.0</ele><time>2026-04-19T11:21:05.869Z</time></trkpt><trkpt lat="44.7611499" lon="9.4424436"><ele>887.0000000000001</ele><time>2026-04-19T11:21:06.84Z</time></trkpt><trkpt lat="44.7612088" lon="9.4425217"><ele>887.0</ele><time>2026-04-19T11:21:07.897Z</time></trkpt><trkpt lat="44.7612618" lon="9.4426312"><ele>885.0</ele><time>2026-04-19T11:21:08.805Z</time></trkpt><trkpt lat="44.7613396" lon="9.4427645"><ele>883.0</ele><time>2026-04-19T11:21:09.788Z</time></trkpt><trkpt lat="44.761433" lon="9.4429235"><ele>881.0</ele><time>2026-04-19T11:21:10.822Z</time></trkpt><trkpt lat="44.7615125" lon="9.443099"><ele>879.0</ele><time>2026-04-19T11:21:11.834Z</time></trkpt><trkpt lat="44.7616126" lon="9.4432888"><ele>879.0</ele><time>2026-04-19T11:21:12.979Z</time></trkpt><trkpt lat="44.7617611" lon="9.4435438"><ele>879.0</ele><time>2026-04-19T11:21:14.792Z</time></trkpt><trkpt lat="44.7618217" lon="9.4436884"><ele>879.0</ele><time>2026-04-19T11:21:15.809Z</time></trkpt><trkpt lat="44.7618589" lon="9.4438184"><ele>880.6666666666666</ele><time>2026-04-19T11:21:16.806Z</time></trkpt><trkpt lat="44.7618803" lon="9.4439451"><ele>882.3333333333333</ele><time>2026-04-19T11:21:17.862Z</time></trkpt><trkpt lat="44.7618839" lon="9.4440455"><ele>884.0</ele><time>2026-04-19T11:21:18.856Z</time></trkpt><trkpt lat="44.7618906" lon="9.4441488"><ele>885.6666666666666</ele><time>2026-04-19T11:21:19.982Z</time></trkpt><trkpt lat="44.7619385" lon="9.4442089"><ele>887.3333333333333</ele><time>2026-04-19T11:21:21.802Z</time></trkpt><trkpt lat="44.7620403" lon="9.4441931"><ele>889.0</ele><time>2026-04-19T11:21:23.749Z</time></trkpt><trkpt lat="44.7621059" lon="9.4441478"><ele>889.0</ele><time>2026-04-19T11:21:24.805Z</time></trkpt><trkpt lat="44.7621667" lon="9.4440478"><ele>889.0</ele><time>2026-04-19T11:21:25.758Z</time></trkpt><trkpt lat="44.7622356" lon="9.4439096"><ele>889.0</ele><time>2026-04-19T11:21:26.808Z</time></trkpt><trkpt lat="44.7623087" lon="9.4437669"><ele>889.0</ele><time>2026-04-19T11:21:27.807Z</time></trkpt><trkpt lat="44.7623785" lon="9.4436418"><ele>887.4999999999999</ele><time>2026-04-19T11:21:28.771Z</time></trkpt><trkpt lat="44.7624459" lon="9.443527"><ele>886.0</ele><time>2026-04-19T11:21:29.824Z</time></trkpt><trkpt lat="44.7624996" lon="9.4434606"><ele>884.5</ele><time>2026-04-19T11:21:30.82Z</time></trkpt><trkpt lat="44.7626077" lon="9.4434527"><ele>883.0</ele><time>2026-04-19T11:21:32.837Z</time></trkpt><trkpt lat="44.7626594" lon="9.4435035"><ele>881.4999999999999</ele><time>2026-04-19T11:21:33.835Z</time></trkpt><trkpt lat="44.7627005" lon="9.4435857"><ele>880.0</ele><time>2026-04-19T11:21:34.841Z</time></trkpt><trkpt lat="44.7627078" lon="9.4436903"><ele>880.8</ele><time>2026-04-19T11:21:35.819Z</time></trkpt><trkpt lat="44.7627205" lon="9.4438325"><ele>881.6</ele><time>2026-04-19T11:21:36.825Z</time></trkpt><trkpt lat="44.7627488" lon="9.4439889"><ele>882.4000000000001</ele><time>2026-04-19T11:21:37.852Z</time></trkpt><trkpt lat="44.7627778" lon="9.4441193"><ele>883.2</ele><time>2026-04-19T11:21:38.825Z</time></trkpt><trkpt lat="44.7628107" lon="9.4442179"><ele>884.0</ele><time>2026-04-19T11:21:39.796Z</time></trkpt><trkpt lat="44.7628571" lon="9.4442927"><ele>884.0</ele><time>2026-04-19T11:21:40.823Z</time></trkpt><trkpt lat="44.7629252" lon="9.4443263"><ele>884.0</ele><time>2026-04-19T11:21:41.819Z</time></trkpt><trkpt lat="44.7630368" lon="9.444343"><ele>884.0</ele><time>2026-04-19T11:21:42.789Z</time></trkpt><trkpt lat="44.7631584" lon="9.4442979"><ele>884.0</ele><time>2026-04-19T11:21:43.804Z</time></trkpt><trkpt lat="44.7632975" lon="9.4442241"><ele>884.0</ele><time>2026-04-19T11:21:44.81Z</time></trkpt><trkpt lat="44.7634484" lon="9.4441571"><ele>884.0</ele><time>2026-04-19T11:21:45.826Z</time></trkpt><trkpt lat="44.7636118" lon="9.4440929"><ele>884.0</ele><time>2026-04-19T11:21:46.846Z</time></trkpt><trkpt lat="44.7637731" lon="9.4440324"><ele>886.0</ele><time>2026-04-19T11:21:47.849Z</time></trkpt><trkpt lat="44.763919" lon="9.4439867"><ele>888.0</ele><time>2026-04-19T11:21:48.796Z</time></trkpt><trkpt lat="44.7640787" lon="9.4439396"><ele>890.0</ele><time>2026-04-19T11:21:49.92Z</time></trkpt><trkpt lat="44.7642118" lon="9.4439099"><ele>892.0</ele><time>2026-04-19T11:21:50.858Z</time></trkpt><trkpt lat="44.764341" lon="9.4438906"><ele>894.0</ele><time>2026-04-19T11:21:51.789Z</time></trkpt><trkpt lat="44.7644826" lon="9.443876"><ele>896.0</ele><time>2026-04-19T11:21:52.798Z</time></trkpt><trkpt lat="44.7646259" lon="9.4438687"><ele>898.0</ele><time>2026-04-19T11:21:53.779Z</time></trkpt><trkpt lat="44.764783" lon="9.4438634"><ele>900.0</ele><time>2026-04-19T11:21:54.829Z</time></trkpt><trkpt lat="44.7649249" lon="9.4438518"><ele>900.0</ele><time>2026-04-19T11:21:55.82Z</time></trkpt><trkpt lat="44.7650595" lon="9.4438367"><ele>900.0</ele><time>2026-04-19T11:21:56.827Z</time></trkpt><trkpt lat="44.7651811" lon="9.4438122"><ele>900.0</ele><time>2026-04-19T11:21:57.806Z</time></trkpt><trkpt lat="44.7653375" lon="9.4437823"><ele>900.0</ele><time>2026-04-19T11:21:59.103Z</time></trkpt><trkpt lat="44.7655365" lon="9.4437649"><ele>900.25</ele><time>2026-04-19T11:22:00.816Z</time></trkpt><trkpt lat="44.7656519" lon="9.4437739"><ele>900.5</ele><time>2026-04-19T11:22:01.797Z</time></trkpt><trkpt lat="44.7657716" lon="9.4438005"><ele>900.75</ele><time>2026-04-19T11:22:02.836Z</time></trkpt><trkpt lat="44.7658803" lon="9.4438486"><ele>901.0</ele><time>2026-04-19T11:22:03.772Z</time></trkpt><trkpt lat="44.7660079" lon="9.4439341"><ele>897.8</ele><time>2026-04-19T11:22:04.865Z</time></trkpt><trkpt lat="44.7661153" lon="9.4440185"><ele>894.5999999999999</ele><time>2026-04-19T11:22:05.829Z</time></trkpt><trkpt lat="44.7662182" lon="9.4441167"><ele>891.4</ele><time>2026-04-19T11:22:06.894Z</time></trkpt><trkpt lat="44.7662811" lon="9.4441939"><ele>888.2</ele><time>2026-04-19T11:22:07.853Z</time></trkpt><trkpt lat="44.7663337" lon="9.4442773"><ele>885.0</ele><time>2026-04-19T11:22:08.896Z</time></trkpt><trkpt lat="44.7663726" lon="9.4443814"><ele>885.0</ele><time>2026-04-19T11:22:09.916Z</time></trkpt><trkpt lat="44.7663873" lon="9.4444867"><ele>885.0</ele><time>2026-04-19T11:22:10.846Z</time></trkpt><trkpt lat="44.7664056" lon="9.4446036"><ele>885.0</ele><time>2026-04-19T11:22:11.89Z</time></trkpt><trkpt lat="44.766445" lon="9.4447192"><ele>885.0</ele><time>2026-04-19T11:22:12.848Z</time></trkpt><trkpt lat="44.766521" lon="9.4448293"><ele>885.0</ele><time>2026-04-19T11:22:13.862Z</time></trkpt><trkpt lat="44.7665994" lon="9.4449466"><ele>888.0</ele><time>2026-04-19T11:22:14.858Z</time></trkpt><trkpt lat="44.7666873" lon="9.4450713"><ele>891.0</ele><time>2026-04-19T11:22:15.859Z</time></trkpt><trkpt lat="44.7667875" lon="9.4452299"><ele>894.0</ele><time>2026-04-19T11:22:16.974Z</time></trkpt><trkpt lat="44.7668607" lon="9.4453624"><ele>897.0</ele><time>2026-04-19T11:22:17.881Z</time></trkpt><trkpt lat="44.7669344" lon="9.4455118"><ele>897.0</ele><time>2026-04-19T11:22:18.853Z</time></trkpt><trkpt lat="44.7670125" lon="9.4456547"><ele>897.0</ele><time>2026-04-19T11:22:19.848Z</time></trkpt><trkpt lat="44.7670848" lon="9.4458062"><ele>897.0</ele><time>2026-04-19T11:22:20.828Z</time></trkpt><trkpt lat="44.7671579" lon="9.4459581"><ele>897.0</ele><time>2026-04-19T11:22:21.896Z</time></trkpt><trkpt lat="44.7672447" lon="9.446084"><ele>897.0</ele><time>2026-04-19T11:22:22.984Z</time></trkpt><trkpt lat="44.7674319" lon="9.446248"><ele>897.0</ele><time>2026-04-19T11:22:24.901Z</time></trkpt><trkpt lat="44.767514" lon="9.4463181"><ele>897.0</ele><time>2026-04-19T11:22:25.872Z</time></trkpt><trkpt lat="44.7675897" lon="9.446411"><ele>897.0</ele><time>2026-04-19T11:22:26.852Z</time></trkpt><trkpt lat="44.7676423" lon="9.4465225"><ele>897.0</ele><time>2026-04-19T11:22:27.865Z</time></trkpt><trkpt lat="44.7676838" lon="9.4466533"><ele>897.0</ele><time>2026-04-19T11:22:28.841Z</time></trkpt><trkpt lat="44.7677327" lon="9.4468114"><ele>897.0</ele><time>2026-04-19T11:22:29.837Z</time></trkpt><trkpt lat="44.7677984" lon="9.4469746"><ele>897.0</ele><time>2026-04-19T11:22:30.834Z</time></trkpt><trkpt lat="44.7678744" lon="9.4471602"><ele>899.5</ele><time>2026-04-19T11:22:31.899Z</time></trkpt><trkpt lat="44.7679434" lon="9.4473349"><ele>902.0</ele><time>2026-04-19T11:22:32.85Z</time></trkpt><trkpt lat="44.768007" lon="9.4474968"><ele>904.5</ele><time>2026-04-19T11:22:33.844Z</time></trkpt><trkpt lat="44.7680672" lon="9.4476363"><ele>907.0</ele><time>2026-04-19T11:22:34.864Z</time></trkpt><trkpt lat="44.7681233" lon="9.4477499"><ele>907.0</ele><time>2026-04-19T11:22:35.842Z</time></trkpt><trkpt lat="44.768189" lon="9.4478595"><ele>907.0</ele><time>2026-04-19T11:22:36.827Z</time></trkpt><trkpt lat="44.76826" lon="9.447964"><ele>907.0</ele><time>2026-04-19T11:22:37.845Z</time></trkpt><trkpt lat="44.7683398" lon="9.4480572"><ele>907.0</ele><time>2026-04-19T11:22:38.864Z</time></trkpt><trkpt lat="44.7684262" lon="9.4481458"><ele>907.0</ele><time>2026-04-19T11:22:39.886Z</time></trkpt><trkpt lat="44.7685183" lon="9.4482252"><ele>909.3333333333333</ele><time>2026-04-19T11:22:40.917Z</time></trkpt><trkpt lat="44.7686311" lon="9.4483011"><ele>911.6666666666667</ele><time>2026-04-19T11:22:41.996Z</time></trkpt><trkpt lat="44.7688556" lon="9.448463"><ele>914.0</ele><time>2026-04-19T11:22:44Z</time></trkpt><trkpt lat="44.7690785" lon="9.4486148"><ele>914.0</ele><time>2026-04-19T11:22:45.882Z</time></trkpt><trkpt lat="44.7691919" lon="9.448673"><ele>914.0000000000001</ele><time>2026-04-19T11:22:46.854Z</time></trkpt><trkpt lat="44.7692732" lon="9.4487209"><ele>914.0000000000001</ele><time>2026-04-19T11:22:47.863Z</time></trkpt><trkpt lat="44.7693398" lon="9.448778"><ele>914.0</ele><time>2026-04-19T11:22:48.962Z</time></trkpt><trkpt lat="44.7694372" lon="9.4489112"><ele>914.0</ele><time>2026-04-19T11:22:50.818Z</time></trkpt><trkpt lat="44.7694897" lon="9.4490164"><ele>914.6666666666667</ele><time>2026-04-19T11:22:51.853Z</time></trkpt><trkpt lat="44.7695287" lon="9.449118"><ele>915.3333333333334</ele><time>2026-04-19T11:22:52.814Z</time></trkpt><trkpt lat="44.769572" lon="9.4492313"><ele>916.0</ele><time>2026-04-19T11:22:53.844Z</time></trkpt><trkpt lat="44.7696276" lon="9.4493323"><ele>916.6666666666667</ele><time>2026-04-19T11:22:54.866Z</time></trkpt><trkpt lat="44.7696959" lon="9.4494003"><ele>917.3333333333334</ele><time>2026-04-19T11:22:55.83Z</time></trkpt><trkpt lat="44.7697762" lon="9.4494572"><ele>918.0</ele><time>2026-04-19T11:22:56.886Z</time></trkpt><trkpt lat="44.7698674" lon="9.4494935"><ele>918.0</ele><time>2026-04-19T11:22:57.885Z</time></trkpt><trkpt lat="44.7699788" lon="9.4495245"><ele>918.0</ele><time>2026-04-19T11:22:58.882Z</time></trkpt><trkpt lat="44.7700955" lon="9.4495411"><ele>918.0</ele><time>2026-04-19T11:22:59.874Z</time></trkpt><trkpt lat="44.7702138" lon="9.4495512"><ele>918.0</ele><time>2026-04-19T11:23:00.876Z</time></trkpt><trkpt lat="44.7703119" lon="9.4495574"><ele>918.0</ele><time>2026-04-19T11:23:01.86Z</time></trkpt><trkpt lat="44.7704033" lon="9.4495767"><ele>918.2</ele><time>2026-04-19T11:23:02.869Z</time></trkpt><trkpt lat="44.7704935" lon="9.4496018"><ele>918.4</ele><time>2026-04-19T11:23:03.874Z</time></trkpt><trkpt lat="44.7705931" lon="9.4496245"><ele>918.6000000000001</ele><time>2026-04-19T11:23:04.833Z</time></trkpt><trkpt lat="44.7707046" lon="9.4496279"><ele>918.8000000000001</ele><time>2026-04-19T11:23:05.855Z</time></trkpt><trkpt lat="44.7708306" lon="9.4496149"><ele>919.0</ele><time>2026-04-19T11:23:06.942Z</time></trkpt><trkpt lat="44.7709342" lon="9.4495908"><ele>920.8000000000001</ele><time>2026-04-19T11:23:07.88Z</time></trkpt><trkpt lat="44.7710468" lon="9.4495357"><ele>922.6000000000001</ele><time>2026-04-19T11:23:08.917Z</time></trkpt><trkpt lat="44.771148" lon="9.4494766"><ele>924.4</ele><time>2026-04-19T11:23:09.846Z</time></trkpt><trkpt lat="44.7712431" lon="9.4494252"><ele>926.2</ele><time>2026-04-19T11:23:10.867Z</time></trkpt><trkpt lat="44.7713408" lon="9.4493944"><ele>928.0</ele><time>2026-04-19T11:23:11.888Z</time></trkpt><trkpt lat="44.7714451" lon="9.4494005"><ele>928.0</ele><time>2026-04-19T11:23:12.916Z</time></trkpt><trkpt lat="44.7715416" lon="9.449436"><ele>928.0</ele><time>2026-04-19T11:23:13.854Z</time></trkpt><trkpt lat="44.7716685" lon="9.4494393"><ele>928.0</ele><time>2026-04-19T11:23:15.071Z</time></trkpt><trkpt lat="44.7718219" lon="9.4492802"><ele>928.0</ele><time>2026-04-19T11:23:16.828Z</time></trkpt><trkpt lat="44.7719176" lon="9.4491768"><ele>929.6666666666666</ele><time>2026-04-19T11:23:17.846Z</time></trkpt><trkpt lat="44.772048" lon="9.4490819"><ele>931.3333333333333</ele><time>2026-04-19T11:23:19.018Z</time></trkpt><trkpt lat="44.7722636" lon="9.4490362"><ele>933.0</ele><time>2026-04-19T11:23:21.041Z</time></trkpt><trkpt lat="44.772353" lon="9.4490513"><ele>933.0</ele><time>2026-04-19T11:23:22.011Z</time></trkpt><trkpt lat="44.7724222" lon="9.4490922"><ele>933.0</ele><time>2026-04-19T11:23:22.914Z</time></trkpt><trkpt lat="44.7724854" lon="9.4491715"><ele>933.0</ele><time>2026-04-19T11:23:23.92Z</time></trkpt><trkpt lat="44.7725246" lon="9.44929"><ele>933.0</ele><time>2026-04-19T11:23:24.988Z</time></trkpt><trkpt lat="44.7725381" lon="9.4494334"><ele>933.0</ele><time>2026-04-19T11:23:25.957Z</time></trkpt><trkpt lat="44.772547" lon="9.4496192"><ele>931.6666666666667</ele><time>2026-04-19T11:23:26.934Z</time></trkpt><trkpt lat="44.772551" lon="9.4498263"><ele>930.3333333333334</ele><time>2026-04-19T11:23:27.906Z</time></trkpt><trkpt lat="44.7725409" lon="9.4500426"><ele>929.0</ele><time>2026-04-19T11:23:28.892Z</time></trkpt><trkpt lat="44.7725256" lon="9.450259"><ele>928.0</ele><time>2026-04-19T11:23:29.89Z</time></trkpt><trkpt lat="44.7725301" lon="9.4504679"><ele>927.0</ele><time>2026-04-19T11:23:30.904Z</time></trkpt><trkpt lat="44.7725526" lon="9.4506606"><ele>926.0</ele><time>2026-04-19T11:23:31.892Z</time></trkpt><trkpt lat="44.7725792" lon="9.4508452"><ele>925.0</ele><time>2026-04-19T11:23:32.886Z</time></trkpt><trkpt lat="44.7726107" lon="9.4510427"><ele>925.0</ele><time>2026-04-19T11:23:33.963Z</time></trkpt><trkpt lat="44.7726409" lon="9.451231"><ele>925.0</ele><time>2026-04-19T11:23:34.935Z</time></trkpt><trkpt lat="44.7726714" lon="9.4514267"><ele>925.0</ele><time>2026-04-19T11:23:35.991Z</time></trkpt><trkpt lat="44.7727265" lon="9.4517064"><ele>921.0</ele><time>2026-04-19T11:23:37.884Z</time></trkpt><trkpt lat="44.7727735" lon="9.4518483"><ele>917.0</ele><time>2026-04-19T11:23:38.937Z</time></trkpt><trkpt lat="44.7728511" lon="9.4519719"><ele>913.0</ele><time>2026-04-19T11:23:40.006Z</time></trkpt><trkpt lat="44.7730116" lon="9.4521766"><ele>909.0</ele><time>2026-04-19T11:23:41.982Z</time></trkpt><trkpt lat="44.7730761" lon="9.4522534"><ele>909.0</ele><time>2026-04-19T11:23:42.9Z</time></trkpt><trkpt lat="44.7731373" lon="9.4523287"><ele>909.0</ele><time>2026-04-19T11:23:43.894Z</time></trkpt><trkpt lat="44.7731915" lon="9.4523975"><ele>909.0</ele><time>2026-04-19T11:23:44.845Z</time></trkpt><trkpt lat="44.7732483" lon="9.4524765"><ele>909.0</ele><time>2026-04-19T11:23:45.848Z</time></trkpt><trkpt lat="44.7733044" lon="9.4525611"><ele>909.0</ele><time>2026-04-19T11:23:46.887Z</time></trkpt><trkpt lat="44.773365" lon="9.4526481"><ele>909.0</ele><time>2026-04-19T11:23:47.879Z</time></trkpt><trkpt lat="44.7734237" lon="9.4527429"><ele>909.0</ele><time>2026-04-19T11:23:48.857Z</time></trkpt><trkpt lat="44.7734877" lon="9.4528469"><ele>909.0000000000001</ele><time>2026-04-19T11:23:49.904Z</time></trkpt><trkpt lat="44.7735563" lon="9.452962"><ele>909.0000000000001</ele><time>2026-04-19T11:23:50.993Z</time></trkpt><trkpt lat="44.773615" lon="9.4530589"><ele>909.0</ele><time>2026-04-19T11:23:51.916Z</time></trkpt><trkpt lat="44.7736872" lon="9.453159"><ele>909.0</ele><time>2026-04-19T11:23:52.926Z</time></trkpt><trkpt lat="44.7737662" lon="9.4532357"><ele>907.2</ele><time>2026-04-19T11:23:53.851Z</time></trkpt><trkpt lat="44.7738706" lon="9.453306"><ele>905.4000000000001</ele><time>2026-04-19T11:23:54.946Z</time></trkpt><trkpt lat="44.7739514" lon="9.4533489"><ele>903.6</ele><time>2026-04-19T11:23:55.892Z</time></trkpt><trkpt lat="44.7740378" lon="9.4534068"><ele>901.8</ele><time>2026-04-19T11:23:56.849Z</time></trkpt><trkpt lat="44.7741334" lon="9.4534882"><ele>900.0</ele><time>2026-04-19T11:23:57.919Z</time></trkpt><trkpt lat="44.7742007" lon="9.453576"><ele>900.0</ele><time>2026-04-19T11:23:58.893Z</time></trkpt><trkpt lat="44.7742512" lon="9.4536728"><ele>900.0</ele><time>2026-04-19T11:23:59.916Z</time></trkpt><trkpt lat="44.7743005" lon="9.4537747"><ele>900.0</ele><time>2026-04-19T11:24:00.996Z</time></trkpt><trkpt lat="44.7744491" lon="9.4539057"><ele>900.0</ele><time>2026-04-19T11:24:02.955Z</time></trkpt><trkpt lat="44.7745319" lon="9.453943"><ele>900.0</ele><time>2026-04-19T11:24:03.926Z</time></trkpt><trkpt lat="44.7746084" lon="9.4539964"><ele>898.3333333333334</ele><time>2026-04-19T11:24:04.888Z</time></trkpt><trkpt lat="44.7746673" lon="9.4540739"><ele>896.6666666666667</ele><time>2026-04-19T11:24:05.845Z</time></trkpt><trkpt lat="44.7747072" lon="9.4541791"><ele>895.0</ele><time>2026-04-19T11:24:06.877Z</time></trkpt><trkpt lat="44.7747484" lon="9.4542804"><ele>893.3333333333334</ele><time>2026-04-19T11:24:07.94Z</time></trkpt><trkpt lat="44.7748099" lon="9.4543448"><ele>891.6666666666667</ele><time>2026-04-19T11:24:08.92Z</time></trkpt><trkpt lat="44.7748838" lon="9.4543821"><ele>890.0</ele><time>2026-04-19T11:24:09.834Z</time></trkpt><trkpt lat="44.7749654" lon="9.4543823"><ele>890.0</ele><time>2026-04-19T11:24:10.889Z</time></trkpt><trkpt lat="44.7750584" lon="9.4543507"><ele>890.0</ele><time>2026-04-19T11:24:11.982Z</time></trkpt><trkpt lat="44.7752165" lon="9.4542198"><ele>890.0</ele><time>2026-04-19T11:24:13.939Z</time></trkpt><trkpt lat="44.7752949" lon="9.4541664"><ele>890.0</ele><time>2026-04-19T11:24:14.893Z</time></trkpt><trkpt lat="44.7753806" lon="9.4541097"><ele>887.6</ele><time>2026-04-19T11:24:15.943Z</time></trkpt><trkpt lat="44.7754593" lon="9.4540616"><ele>885.2</ele><time>2026-04-19T11:24:17.034Z</time></trkpt><trkpt lat="44.7755475" lon="9.4540286"><ele>882.8</ele><time>2026-04-19T11:24:18.902Z</time></trkpt><trkpt lat="44.7756406" lon="9.4540468"><ele>880.4</ele><time>2026-04-19T11:24:20.879Z</time></trkpt><trkpt lat="44.7757111" lon="9.4541944"><ele>878.0</ele><time>2026-04-19T11:24:22.901Z</time></trkpt><trkpt lat="44.7757505" lon="9.4543094"><ele>878.0</ele><time>2026-04-19T11:24:23.947Z</time></trkpt><trkpt lat="44.7757892" lon="9.4544213"><ele>878.0</ele><time>2026-04-19T11:24:24.898Z</time></trkpt><trkpt lat="44.7758281" lon="9.454551"><ele>878.0</ele><time>2026-04-19T11:24:25.914Z</time></trkpt><trkpt lat="44.7758754" lon="9.4546927"><ele>878.0</ele><time>2026-04-19T11:24:26.937Z</time></trkpt><trkpt lat="44.7759245" lon="9.454821"><ele>878.0</ele><time>2026-04-19T11:24:27.912Z</time></trkpt><trkpt lat="44.7759799" lon="9.4549511"><ele>876.0</ele><time>2026-04-19T11:24:28.891Z</time></trkpt><trkpt lat="44.7760519" lon="9.4550776"><ele>874.0</ele><time>2026-04-19T11:24:29.921Z</time></trkpt><trkpt lat="44.7761223" lon="9.4552029"><ele>872.0</ele><time>2026-04-19T11:24:30.869Z</time></trkpt><trkpt lat="44.7761989" lon="9.4553558"><ele>870.0</ele><time>2026-04-19T11:24:31.9Z</time></trkpt><trkpt lat="44.7762488" lon="9.4555226"><ele>870.0</ele><time>2026-04-19T11:24:32.961Z</time></trkpt><trkpt lat="44.7762681" lon="9.455681"><ele>870.0</ele><time>2026-04-19T11:24:33.905Z</time></trkpt><trkpt lat="44.7762606" lon="9.4558545"><ele>870.0</ele><time>2026-04-19T11:24:34.937Z</time></trkpt><trkpt lat="44.7762529" lon="9.4560148"><ele>870.0</ele><time>2026-04-19T11:24:35.928Z</time></trkpt><trkpt lat="44.7762497" lon="9.4561706"><ele>870.8</ele><time>2026-04-19T11:24:36.918Z</time></trkpt><trkpt lat="44.7762599" lon="9.4563064"><ele>871.6</ele><time>2026-04-19T11:24:37.886Z</time></trkpt><trkpt lat="44.7762831" lon="9.4564519"><ele>872.4000000000001</ele><time>2026-04-19T11:24:38.916Z</time></trkpt><trkpt lat="44.7763151" lon="9.4565857"><ele>873.2</ele><time>2026-04-19T11:24:39.874Z</time></trkpt><trkpt lat="44.7763734" lon="9.4567128"><ele>874.0</ele><time>2026-04-19T11:24:40.873Z</time></trkpt><trkpt lat="44.7764631" lon="9.4568427"><ele>874.0</ele><time>2026-04-19T11:24:41.9Z</time></trkpt><trkpt lat="44.7765569" lon="9.4569593"><ele>874.0</ele><time>2026-04-19T11:24:42.844Z</time></trkpt><trkpt lat="44.776676" lon="9.4570908"><ele>874.0</ele><time>2026-04-19T11:24:43.906Z</time></trkpt><trkpt lat="44.776798" lon="9.4571831"><ele>874.0</ele><time>2026-04-19T11:24:44.882Z</time></trkpt><trkpt lat="44.7769282" lon="9.457269"><ele>875.0</ele><time>2026-04-19T11:24:45.865Z</time></trkpt><trkpt lat="44.7770491" lon="9.4573573"><ele>876.0</ele><time>2026-04-19T11:24:46.881Z</time></trkpt><trkpt lat="44.777177" lon="9.4574288"><ele>877.0</ele><time>2026-04-19T11:24:48.007Z</time></trkpt><trkpt lat="44.777285" lon="9.4574687"><ele>878.0</ele><time>2026-04-19T11:24:48.992Z</time></trkpt><trkpt lat="44.7773806" lon="9.457514"><ele>878.0</ele><time>2026-04-19T11:24:49.985Z</time></trkpt><trkpt lat="44.7775567" lon="9.4576506"><ele>878.0</ele><time>2026-04-19T11:24:51.863Z</time></trkpt><trkpt lat="44.7776635" lon="9.4577537"><ele>878.0</ele><time>2026-04-19T11:24:52.856Z</time></trkpt><trkpt lat="44.7777996" lon="9.4578915"><ele>880.3333333333334</ele><time>2026-04-19T11:24:53.979Z</time></trkpt><trkpt lat="44.7779228" lon="9.4580164"><ele>882.6666666666667</ele><time>2026-04-19T11:24:54.922Z</time></trkpt><trkpt lat="44.7780514" lon="9.4581503"><ele>885.0</ele><time>2026-04-19T11:24:55.88Z</time></trkpt><trkpt lat="44.7781905" lon="9.4582856"><ele>885.0</ele><time>2026-04-19T11:24:56.878Z</time></trkpt><trkpt lat="44.7783335" lon="9.4584105"><ele>885.0</ele><time>2026-04-19T11:24:57.902Z</time></trkpt><trkpt lat="44.7784471" lon="9.4585131"><ele>885.0</ele><time>2026-04-19T11:24:58.855Z</time></trkpt><trkpt lat="44.7785567" lon="9.458614"><ele>885.0</ele><time>2026-04-19T11:24:59.862Z</time></trkpt><trkpt lat="44.7786499" lon="9.4587058"><ele>884.6</ele><time>2026-04-19T11:25:00.899Z</time></trkpt><trkpt lat="44.7787188" lon="9.458783"><ele>884.2</ele><time>2026-04-19T11:25:01.877Z</time></trkpt><trkpt lat="44.7787808" lon="9.4588908"><ele>883.8</ele><time>2026-04-19T11:25:02.892Z</time></trkpt><trkpt lat="44.7788237" lon="9.4590475"><ele>883.4</ele><time>2026-04-19T11:25:03.872Z</time></trkpt><trkpt lat="44.7788528" lon="9.4592369"><ele>883.0</ele><time>2026-04-19T11:25:04.972Z</time></trkpt><trkpt lat="44.778933" lon="9.4595579"><ele>883.75</ele><time>2026-04-19T11:25:06.826Z</time></trkpt><trkpt lat="44.778988" lon="9.4597321"><ele>884.5</ele><time>2026-04-19T11:25:07.895Z</time></trkpt><trkpt lat="44.7790711" lon="9.4598763"><ele>885.25</ele><time>2026-04-19T11:25:08.846Z</time></trkpt><trkpt lat="44.7791863" lon="9.4600517"><ele>886.0</ele><time>2026-04-19T11:25:09.994Z</time></trkpt><trkpt lat="44.7793348" lon="9.4603572"><ele>883.5</ele><time>2026-04-19T11:25:11.85Z</time></trkpt><trkpt lat="44.7794049" lon="9.4605201"><ele>881.0</ele><time>2026-04-19T11:25:12.883Z</time></trkpt><trkpt lat="44.7794745" lon="9.460664"><ele>878.5</ele><time>2026-04-19T11:25:13.858Z</time></trkpt><trkpt lat="44.7795601" lon="9.4608096"><ele>876.0</ele><time>2026-04-19T11:25:14.93Z</time></trkpt><trkpt lat="44.7796402" lon="9.4609243"><ele>876.0</ele><time>2026-04-19T11:25:15.855Z</time></trkpt><trkpt lat="44.7797274" lon="9.4610505"><ele>876.0</ele><time>2026-04-19T11:25:16.868Z</time></trkpt><trkpt lat="44.779813" lon="9.4611734"><ele>876.0</ele><time>2026-04-19T11:25:17.88Z</time></trkpt><trkpt lat="44.7798916" lon="9.4612944"><ele>876.0</ele><time>2026-04-19T11:25:18.86Z</time></trkpt><trkpt lat="44.7799772" lon="9.4614255"><ele>875.5</ele><time>2026-04-19T11:25:19.928Z</time></trkpt><trkpt lat="44.7800478" lon="9.4615375"><ele>875.0</ele><time>2026-04-19T11:25:20.877Z</time></trkpt><trkpt lat="44.7801242" lon="9.4616842"><ele>874.5</ele><time>2026-04-19T11:25:22.038Z</time></trkpt><trkpt lat="44.7802393" lon="9.4619097"><ele>874.0</ele><time>2026-04-19T11:25:23.883Z</time></trkpt><trkpt lat="44.7803127" lon="9.4620041"><ele>871.6</ele><time>2026-04-19T11:25:24.861Z</time></trkpt><trkpt lat="44.7804019" lon="9.4621016"><ele>869.2</ele><time>2026-04-19T11:25:25.907Z</time></trkpt><trkpt lat="44.7804811" lon="9.4621839"><ele>866.8000000000001</ele><time>2026-04-19T11:25:26.829Z</time></trkpt><trkpt lat="44.7805723" lon="9.4622788"><ele>864.4000000000001</ele><time>2026-04-19T11:25:27.901Z</time></trkpt><trkpt lat="44.7806404" lon="9.4623466"><ele>862.0</ele><time>2026-04-19T11:25:28.855Z</time></trkpt><trkpt lat="44.7807207" lon="9.4624185"><ele>862.0</ele><time>2026-04-19T11:25:29.859Z</time></trkpt><trkpt lat="44.780808" lon="9.4624902"><ele>862.0</ele><time>2026-04-19T11:25:30.881Z</time></trkpt><trkpt lat="44.7808994" lon="9.4625652"><ele>862.0</ele><time>2026-04-19T11:25:31.961Z</time></trkpt><trkpt lat="44.7810581" lon="9.4626971"><ele>862.0</ele><time>2026-04-19T11:25:33.839Z</time></trkpt><trkpt lat="44.7811384" lon="9.4627576"><ele>860.4999999999999</ele><time>2026-04-19T11:25:34.814Z</time></trkpt><trkpt lat="44.7812255" lon="9.4628217"><ele>859.0</ele><time>2026-04-19T11:25:35.88Z</time></trkpt><trkpt lat="44.781302" lon="9.4628805"><ele>857.5</ele><time>2026-04-19T11:25:36.84Z</time></trkpt><trkpt lat="44.7813818" lon="9.4629441"><ele>856.0</ele><time>2026-04-19T11:25:37.859Z</time></trkpt><trkpt lat="44.7814577" lon="9.463"><ele>854.4999999999999</ele><time>2026-04-19T11:25:38.855Z</time></trkpt><trkpt lat="44.781526" lon="9.4630504"><ele>853.0</ele><time>2026-04-19T11:25:39.845Z</time></trkpt><trkpt lat="44.7816011" lon="9.4630999"><ele>852.9999999999999</ele><time>2026-04-19T11:25:40.893Z</time></trkpt><trkpt lat="44.7816793" lon="9.4631447"><ele>853.0</ele><time>2026-04-19T11:25:41.889Z</time></trkpt><trkpt lat="44.781751" lon="9.4631889"><ele>853.0</ele><time>2026-04-19T11:25:42.853Z</time></trkpt><trkpt lat="44.7818273" lon="9.4632344"><ele>853.0</ele><time>2026-04-19T11:25:43.903Z</time></trkpt><trkpt lat="44.7819047" lon="9.4632795"><ele>852.9999999999999</ele><time>2026-04-19T11:25:44.885Z</time></trkpt><trkpt lat="44.7819848" lon="9.4633275"><ele>853.0</ele><time>2026-04-19T11:25:45.891Z</time></trkpt><trkpt lat="44.7820634" lon="9.4633724"><ele>851.3333333333333</ele><time>2026-04-19T11:25:46.894Z</time></trkpt><trkpt lat="44.7821361" lon="9.4634111"><ele>849.6666666666666</ele><time>2026-04-19T11:25:47.825Z</time></trkpt><trkpt lat="44.7822185" lon="9.4634616"><ele>848.0</ele><time>2026-04-19T11:25:48.897Z</time></trkpt><trkpt lat="44.7822869" lon="9.4635156"><ele>846.3333333333333</ele><time>2026-04-19T11:25:49.881Z</time></trkpt><trkpt lat="44.7823495" lon="9.4635813"><ele>844.6666666666666</ele><time>2026-04-19T11:25:50.887Z</time></trkpt><trkpt lat="44.7823938" lon="9.4636544"><ele>843.0</ele><time>2026-04-19T11:25:51.875Z</time></trkpt><trkpt lat="44.7824275" lon="9.4637527"><ele>843.5999999999999</ele><time>2026-04-19T11:25:52.86Z</time></trkpt><trkpt lat="44.7824441" lon="9.463865"><ele>844.1999999999999</ele><time>2026-04-19T11:25:53.862Z</time></trkpt><trkpt lat="44.7824559" lon="9.4639956"><ele>844.8</ele><time>2026-04-19T11:25:54.859Z</time></trkpt><trkpt lat="44.7824731" lon="9.4641504"><ele>845.4</ele><time>2026-04-19T11:25:55.865Z</time></trkpt><trkpt lat="44.7824935" lon="9.4643158"><ele>846.0</ele><time>2026-04-19T11:25:56.88Z</time></trkpt><trkpt lat="44.7825196" lon="9.4645007"><ele>845.0</ele><time>2026-04-19T11:25:57.91Z</time></trkpt><trkpt lat="44.7825463" lon="9.4646883"><ele>844.0</ele><time>2026-04-19T11:25:58.96Z</time></trkpt><trkpt lat="44.782569" lon="9.4648596"><ele>843.0</ele><time>2026-04-19T11:25:59.868Z</time></trkpt><trkpt lat="44.7826029" lon="9.4650566"><ele>842.0</ele><time>2026-04-19T11:26:00.962Z</time></trkpt><trkpt lat="44.7826371" lon="9.4652083"><ele>842.0</ele><time>2026-04-19T11:26:01.878Z</time></trkpt><trkpt lat="44.782671" lon="9.4653641"><ele>842.0</ele><time>2026-04-19T11:26:02.848Z</time></trkpt><trkpt lat="44.7827028" lon="9.4655277"><ele>842.0</ele><time>2026-04-19T11:26:03.922Z</time></trkpt><trkpt lat="44.782721" lon="9.4658047"><ele>842.0</ele><time>2026-04-19T11:26:05.832Z</time></trkpt><trkpt lat="44.7827183" lon="9.4659506"><ele>842.0</ele><time>2026-04-19T11:26:06.882Z</time></trkpt><trkpt lat="44.7827144" lon="9.4660897"><ele>842.0</ele><time>2026-04-19T11:26:07.915Z</time></trkpt><trkpt lat="44.7827177" lon="9.4662309"><ele>842.0</ele><time>2026-04-19T11:26:08.864Z</time></trkpt><trkpt lat="44.7827156" lon="9.4664109"><ele>842.0</ele><time>2026-04-19T11:26:10.048Z</time></trkpt><trkpt lat="44.7826799" lon="9.4667041"><ele>839.8</ele><time>2026-04-19T11:26:11.951Z</time></trkpt><trkpt lat="44.7826507" lon="9.4668463"><ele>837.6</ele><time>2026-04-19T11:26:12.879Z</time></trkpt><trkpt lat="44.7826187" lon="9.4669958"><ele>835.4</ele><time>2026-04-19T11:26:13.863Z</time></trkpt><trkpt lat="44.7825865" lon="9.4671434"><ele>833.1999999999999</ele><time>2026-04-19T11:26:14.866Z</time></trkpt><trkpt lat="44.7825561" lon="9.4672807"><ele>831.0</ele><time>2026-04-19T11:26:15.848Z</time></trkpt><trkpt lat="44.7825313" lon="9.4674051"><ele>828.8</ele><time>2026-04-19T11:26:16.889Z</time></trkpt><trkpt lat="44.7825203" lon="9.4675226"><ele>826.5999999999999</ele><time>2026-04-19T11:26:17.885Z</time></trkpt><trkpt lat="44.7825317" lon="9.4676355"><ele>824.4</ele><time>2026-04-19T11:26:18.848Z</time></trkpt><trkpt lat="44.7825717" lon="9.4677533"><ele>822.2</ele><time>2026-04-19T11:26:19.864Z</time></trkpt><trkpt lat="44.7826333" lon="9.4678711"><ele>820.0</ele><time>2026-04-19T11:26:20.906Z</time></trkpt><trkpt lat="44.782699" lon="9.4679848"><ele>816.6666666666666</ele><time>2026-04-19T11:26:21.813Z</time></trkpt><trkpt lat="44.7827919" lon="9.4681465"><ele>813.3333333333333</ele><time>2026-04-19T11:26:23.001Z</time></trkpt><trkpt lat="44.7829463" lon="9.4684052"><ele>810.0</ele><time>2026-04-19T11:26:24.847Z</time></trkpt><trkpt lat="44.7830419" lon="9.4685481"><ele>810.0</ele><time>2026-04-19T11:26:25.916Z</time></trkpt><trkpt lat="44.7831251" lon="9.4686589"><ele>810.0</ele><time>2026-04-19T11:26:26.882Z</time></trkpt><trkpt lat="44.7832145" lon="9.4687686"><ele>810.0</ele><time>2026-04-19T11:26:27.895Z</time></trkpt><trkpt lat="44.78329" lon="9.468868"><ele>810.0</ele><time>2026-04-19T11:26:28.842Z</time></trkpt><trkpt lat="44.7833595" lon="9.4689791"><ele>810.0</ele><time>2026-04-19T11:26:29.856Z</time></trkpt><trkpt lat="44.7834134" lon="9.4690921"><ele>809.0</ele><time>2026-04-19T11:26:30.844Z</time></trkpt><trkpt lat="44.7834447" lon="9.4692084"><ele>808.0</ele><time>2026-04-19T11:26:31.826Z</time></trkpt><trkpt lat="44.7834524" lon="9.4693325"><ele>807.0</ele><time>2026-04-19T11:26:32.807Z</time></trkpt><trkpt lat="44.7834467" lon="9.4694953"><ele>806.0</ele><time>2026-04-19T11:26:34Z</time></trkpt><trkpt lat="44.7834238" lon="9.4696285"><ele>805.0</ele><time>2026-04-19T11:26:34.975Z</time></trkpt><trkpt lat="44.7833478" lon="9.4699082"><ele>803.75</ele><time>2026-04-19T11:26:36.856Z</time></trkpt><trkpt lat="44.7833028" lon="9.4700395"><ele>802.5</ele><time>2026-04-19T11:26:37.822Z</time></trkpt><trkpt lat="44.7832475" lon="9.4702033"><ele>801.25</ele><time>2026-04-19T11:26:38.954Z</time></trkpt><trkpt lat="44.7832012" lon="9.4704824"><ele>800.0</ele><time>2026-04-19T11:26:40.9Z</time></trkpt><trkpt lat="44.7831993" lon="9.4706235"><ele>798.3333333333334</ele><time>2026-04-19T11:26:41.929Z</time></trkpt><trkpt lat="44.7832178" lon="9.4707417"><ele>796.6666666666667</ele><time>2026-04-19T11:26:42.86Z</time></trkpt><trkpt lat="44.7832373" lon="9.4708596"><ele>795.0</ele><time>2026-04-19T11:26:43.913Z</time></trkpt><trkpt lat="44.783226" lon="9.47095"><ele>793.3333333333333</ele><time>2026-04-19T11:26:44.854Z</time></trkpt><trkpt lat="44.7831871" lon="9.4710388"><ele>791.6666666666666</ele><time>2026-04-19T11:26:45.882Z</time></trkpt><trkpt lat="44.7831152" lon="9.4711007"><ele>790.0</ele><time>2026-04-19T11:26:46.855Z</time></trkpt><trkpt lat="44.783027" lon="9.4711322"><ele>790.0</ele><time>2026-04-19T11:26:47.885Z</time></trkpt><trkpt lat="44.7829444" lon="9.4711705"><ele>790.0</ele><time>2026-04-19T11:26:48.864Z</time></trkpt><trkpt lat="44.7828765" lon="9.4712403"><ele>790.0</ele><time>2026-04-19T11:26:49.849Z</time></trkpt><trkpt lat="44.7828362" lon="9.4713542"><ele>790.0</ele><time>2026-04-19T11:26:50.865Z</time></trkpt><trkpt lat="44.7828104" lon="9.4714826"><ele>790.0</ele><time>2026-04-19T11:26:51.793Z</time></trkpt><trkpt lat="44.7827966" lon="9.4716693"><ele>787.6</ele><time>2026-04-19T11:26:52.873Z</time></trkpt><trkpt lat="44.782807" lon="9.4718176"><ele>785.2</ele><time>2026-04-19T11:26:53.822Z</time></trkpt><trkpt lat="44.7828034" lon="9.471975"><ele>782.8</ele><time>2026-04-19T11:26:54.893Z</time></trkpt><trkpt lat="44.7827875" lon="9.4721143"><ele>780.4</ele><time>2026-04-19T11:26:55.854Z</time></trkpt><trkpt lat="44.7827457" lon="9.4722848"><ele>778.0</ele><time>2026-04-19T11:26:56.927Z</time></trkpt><trkpt lat="44.7826923" lon="9.4724561"><ele>778.5999999999999</ele><time>2026-04-19T11:26:57.959Z</time></trkpt><trkpt lat="44.7826451" lon="9.4725853"><ele>779.1999999999999</ele><time>2026-04-19T11:26:58.889Z</time></trkpt><trkpt lat="44.7825949" lon="9.4727184"><ele>779.8</ele><time>2026-04-19T11:26:59.843Z</time></trkpt><trkpt lat="44.7825211" lon="9.4728701"><ele>780.4</ele><time>2026-04-19T11:27:00.883Z</time></trkpt><trkpt lat="44.7824863" lon="9.4729757"><ele>781.0</ele><time>2026-04-19T11:27:01.815Z</time></trkpt><trkpt lat="44.7824763" lon="9.4730975"><ele>779.0</ele><time>2026-04-19T11:27:02.835Z</time></trkpt><trkpt lat="44.7825121" lon="9.4732326"><ele>777.0</ele><time>2026-04-19T11:27:03.837Z</time></trkpt><trkpt lat="44.7825721" lon="9.4733755"><ele>775.0</ele><time>2026-04-19T11:27:04.865Z</time></trkpt><trkpt lat="44.7826277" lon="9.4734958"><ele>773.0</ele><time>2026-04-19T11:27:05.814Z</time></trkpt><trkpt lat="44.7826718" lon="9.4736185"><ele>771.0</ele><time>2026-04-19T11:27:06.886Z</time></trkpt><trkpt lat="44.7826888" lon="9.4737378"><ele>770.5</ele><time>2026-04-19T11:27:07.934Z</time></trkpt><trkpt lat="44.7826752" lon="9.4738377"><ele>770.0</ele><time>2026-04-19T11:27:08.864Z</time></trkpt><trkpt lat="44.7826633" lon="9.4739561"><ele>769.5</ele><time>2026-04-19T11:27:10.84Z</time></trkpt><trkpt lat="44.7826477" lon="9.4740927"><ele>769.0</ele><time>2026-04-19T11:27:13.044Z</time></trkpt><trkpt lat="44.7826465" lon="9.4741857"><ele>768.5</ele><time>2026-04-19T11:27:13.989Z</time></trkpt><trkpt lat="44.7826495" lon="9.4743303"><ele>768.0</ele><time>2026-04-19T11:27:15.901Z</time></trkpt><trkpt lat="44.7826088" lon="9.4744687"><ele>768.0</ele><time>2026-04-19T11:27:17.902Z</time></trkpt><trkpt lat="44.7825486" lon="9.4745262"><ele>768.0</ele><time>2026-04-19T11:27:19.006Z</time></trkpt><trkpt lat="44.7823783" lon="9.4746435"><ele>768.0</ele><time>2026-04-19T11:27:20.953Z</time></trkpt><trkpt lat="44.7822903" lon="9.4747176"><ele>768.0</ele><time>2026-04-19T11:27:21.892Z</time></trkpt><trkpt lat="44.7822104" lon="9.474794"><ele>767.3333333333334</ele><time>2026-04-19T11:27:22.882Z</time></trkpt><trkpt lat="44.78213" lon="9.4748643"><ele>766.6666666666666</ele><time>2026-04-19T11:27:23.868Z</time></trkpt><trkpt lat="44.7820648" lon="9.4749263"><ele>766.0</ele><time>2026-04-19T11:27:24.9Z</time></trkpt><trkpt lat="44.7820036" lon="9.4749879"><ele>765.3333333333333</ele><time>2026-04-19T11:27:25.892Z</time></trkpt><trkpt lat="44.7819481" lon="9.4750399"><ele>764.6666666666666</ele><time>2026-04-19T11:27:26.851Z</time></trkpt><trkpt lat="44.7818722" lon="9.475094"><ele>764.0</ele><time>2026-04-19T11:27:27.972Z</time></trkpt><trkpt lat="44.7818052" lon="9.4751292"><ele>765.2857142857143</ele><time>2026-04-19T11:27:28.889Z</time></trkpt><trkpt lat="44.78173" lon="9.4751526"><ele>766.5714285714286</ele><time>2026-04-19T11:27:29.851Z</time></trkpt><trkpt lat="44.7816639" lon="9.475158"><ele>767.8571428571429</ele><time>2026-04-19T11:27:30.846Z</time></trkpt><trkpt lat="44.7815995" lon="9.4751903"><ele>769.1428571428571</ele><time>2026-04-19T11:27:31.88Z</time></trkpt><trkpt lat="44.7815498" lon="9.4752568"><ele>770.4285714285713</ele><time>2026-04-19T11:27:32.894Z</time></trkpt><trkpt lat="44.7815342" lon="9.4753502"><ele>771.7142857142857</ele><time>2026-04-19T11:27:33.861Z</time></trkpt><trkpt lat="44.7815437" lon="9.4754649"><ele>773.0</ele><time>2026-04-19T11:27:34.85Z</time></trkpt><trkpt lat="44.7815636" lon="9.4755917"><ele>773.0</ele><time>2026-04-19T11:27:35.83Z</time></trkpt><trkpt lat="44.781578" lon="9.475739"><ele>773.0</ele><time>2026-04-19T11:27:36.899Z</time></trkpt><trkpt lat="44.7815879" lon="9.4758776"><ele>773.0</ele><time>2026-04-19T11:27:37.826Z</time></trkpt><trkpt lat="44.781609" lon="9.4760314"><ele>773.0</ele><time>2026-04-19T11:27:38.841Z</time></trkpt><trkpt lat="44.7816554" lon="9.476169"><ele>773.0</ele><time>2026-04-19T11:27:39.883Z</time></trkpt><trkpt lat="44.7817218" lon="9.4762849"><ele>774.0</ele><time>2026-04-19T11:27:40.891Z</time></trkpt><trkpt lat="44.7817884" lon="9.4764004"><ele>775.0</ele><time>2026-04-19T11:27:41.876Z</time></trkpt><trkpt lat="44.7818284" lon="9.4765269"><ele>776.0</ele><time>2026-04-19T11:27:42.884Z</time></trkpt><trkpt lat="44.781863" lon="9.4766648"><ele>777.0</ele><time>2026-04-19T11:27:43.838Z</time></trkpt><trkpt lat="44.781896" lon="9.4768172"><ele>778.0</ele><time>2026-04-19T11:27:44.847Z</time></trkpt><trkpt lat="44.7819153" lon="9.4769666"><ele>779.1666666666666</ele><time>2026-04-19T11:27:45.889Z</time></trkpt><trkpt lat="44.7819101" lon="9.4770822"><ele>780.3333333333333</ele><time>2026-04-19T11:27:46.891Z</time></trkpt><trkpt lat="44.7818774" lon="9.4771738"><ele>781.5</ele><time>2026-04-19T11:27:47.903Z</time></trkpt><trkpt lat="44.7818245" lon="9.4772473"><ele>782.6666666666667</ele><time>2026-04-19T11:27:48.914Z</time></trkpt><trkpt lat="44.7817624" lon="9.4773193"><ele>783.8333333333334</ele><time>2026-04-19T11:27:49.885Z</time></trkpt><trkpt lat="44.781683" lon="9.4774013"><ele>785.0</ele><time>2026-04-19T11:27:50.86Z</time></trkpt><trkpt lat="44.7816309" lon="9.4774926"><ele>785.0000000000001</ele><time>2026-04-19T11:27:51.892Z</time></trkpt><trkpt lat="44.7815967" lon="9.4775986"><ele>785.0</ele><time>2026-04-19T11:27:52.873Z</time></trkpt><trkpt lat="44.7815711" lon="9.4777191"><ele>785.0</ele><time>2026-04-19T11:27:53.897Z</time></trkpt><trkpt lat="44.7815484" lon="9.4778354"><ele>785.0</ele><time>2026-04-19T11:27:54.884Z</time></trkpt><trkpt lat="44.7815142" lon="9.4779549"><ele>785.0000000000001</ele><time>2026-04-19T11:27:55.847Z</time></trkpt><trkpt lat="44.7814686" lon="9.478077"><ele>785.0</ele><time>2026-04-19T11:27:56.85Z</time></trkpt><trkpt lat="44.7814227" lon="9.4782029"><ele>785.0</ele><time>2026-04-19T11:27:57.864Z</time></trkpt><trkpt lat="44.7813772" lon="9.4783295"><ele>785.0</ele><time>2026-04-19T11:27:58.875Z</time></trkpt><trkpt lat="44.7813255" lon="9.4784538"><ele>785.0</ele><time>2026-04-19T11:27:59.979Z</time></trkpt><trkpt lat="44.7812337" lon="9.4786107"><ele>785.0</ele><time>2026-04-19T11:28:01.858Z</time></trkpt><trkpt lat="44.7811847" lon="9.478676"><ele>785.0</ele><time>2026-04-19T11:28:02.829Z</time></trkpt><trkpt lat="44.7811326" lon="9.4787905"><ele>786.0</ele><time>2026-04-19T11:28:04.852Z</time></trkpt><trkpt lat="44.7811522" lon="9.4789257"><ele>787.0</ele><time>2026-04-19T11:28:06.891Z</time></trkpt><trkpt lat="44.7812243" lon="9.4790673"><ele>788.0</ele><time>2026-04-19T11:28:08.852Z</time></trkpt><trkpt lat="44.7812963" lon="9.4791344"><ele>789.0</ele><time>2026-04-19T11:28:09.904Z</time></trkpt><trkpt lat="44.7813632" lon="9.4792083"><ele>790.0</ele><time>2026-04-19T11:28:10.863Z</time></trkpt><trkpt lat="44.781423" lon="9.4792943"><ele>790.0</ele><time>2026-04-19T11:28:11.841Z</time></trkpt><trkpt lat="44.7814897" lon="9.479374"><ele>790.0</ele><time>2026-04-19T11:28:12.851Z</time></trkpt><trkpt lat="44.7815682" lon="9.4794524"><ele>790.0</ele><time>2026-04-19T11:28:13.858Z</time></trkpt><trkpt lat="44.7816546" lon="9.4795299"><ele>790.0</ele><time>2026-04-19T11:28:14.918Z</time></trkpt><trkpt lat="44.7817288" lon="9.4795899"><ele>790.0</ele><time>2026-04-19T11:28:15.873Z</time></trkpt><trkpt lat="44.781802" lon="9.4796502"><ele>788.0</ele><time>2026-04-19T11:28:16.845Z</time></trkpt><trkpt lat="44.7818664" lon="9.4797226"><ele>786.0</ele><time>2026-04-19T11:28:17.853Z</time></trkpt><trkpt lat="44.7819331" lon="9.4798352"><ele>784.0</ele><time>2026-04-19T11:28:18.908Z</time></trkpt><trkpt lat="44.7819868" lon="9.4799489"><ele>782.0</ele><time>2026-04-19T11:28:19.862Z</time></trkpt><trkpt lat="44.7820378" lon="9.480088"><ele>780.0</ele><time>2026-04-19T11:28:20.902Z</time></trkpt><trkpt lat="44.7820685" lon="9.4802184"><ele>780.0</ele><time>2026-04-19T11:28:21.873Z</time></trkpt><trkpt lat="44.7820852" lon="9.4803414"><ele>780.0</ele><time>2026-04-19T11:28:22.858Z</time></trkpt><trkpt lat="44.7820916" lon="9.4804794"><ele>780.0</ele><time>2026-04-19T11:28:23.887Z</time></trkpt><trkpt lat="44.7820798" lon="9.4806166"><ele>780.0</ele><time>2026-04-19T11:28:24.873Z</time></trkpt><trkpt lat="44.7820475" lon="9.4807598"><ele>780.0</ele><time>2026-04-19T11:28:25.875Z</time></trkpt><trkpt lat="44.7820143" lon="9.4808957"><ele>779.4</ele><time>2026-04-19T11:28:26.85Z</time></trkpt><trkpt lat="44.7819869" lon="9.4810368"><ele>778.8</ele><time>2026-04-19T11:28:27.86Z</time></trkpt><trkpt lat="44.7819714" lon="9.4811766"><ele>778.2</ele><time>2026-04-19T11:28:28.902Z</time></trkpt><trkpt lat="44.7819603" lon="9.4813071"><ele>777.6</ele><time>2026-04-19T11:28:29.945Z</time></trkpt><trkpt lat="44.7819549" lon="9.4814223"><ele>777.0</ele><time>2026-04-19T11:28:30.886Z</time></trkpt><trkpt lat="44.7819716" lon="9.4815255"><ele>777.0</ele><time>2026-04-19T11:28:31.851Z</time></trkpt><trkpt lat="44.7820176" lon="9.4816313"><ele>777.0</ele><time>2026-04-19T11:28:32.902Z</time></trkpt><trkpt lat="44.7820886" lon="9.4817081"><ele>777.0</ele><time>2026-04-19T11:28:33.865Z</time></trkpt><trkpt lat="44.782172" lon="9.4817749"><ele>777.0</ele><time>2026-04-19T11:28:34.84Z</time></trkpt><trkpt lat="44.78227" lon="9.4818415"><ele>777.0</ele><time>2026-04-19T11:28:35.869Z</time></trkpt><trkpt lat="44.7823687" lon="9.4818885"><ele>777.0</ele><time>2026-04-19T11:28:36.854Z</time></trkpt><trkpt lat="44.7824741" lon="9.4819085"><ele>777.0</ele><time>2026-04-19T11:28:37.887Z</time></trkpt><trkpt lat="44.7825852" lon="9.4819104"><ele>777.0</ele><time>2026-04-19T11:28:38.921Z</time></trkpt><trkpt lat="44.7826914" lon="9.4819009"><ele>777.0</ele><time>2026-04-19T11:28:39.915Z</time></trkpt><trkpt lat="44.7827889" lon="9.4818871"><ele>777.0</ele><time>2026-04-19T11:28:40.865Z</time></trkpt><trkpt lat="44.7828942" lon="9.4818686"><ele>775.8</ele><time>2026-04-19T11:28:41.956Z</time></trkpt><trkpt lat="44.7830586" lon="9.4818676"><ele>774.6</ele><time>2026-04-19T11:28:43.913Z</time></trkpt><trkpt lat="44.7831449" lon="9.481898"><ele>773.4</ele><time>2026-04-19T11:28:44.924Z</time></trkpt><trkpt lat="44.7832233" lon="9.481949"><ele>772.1999999999999</ele><time>2026-04-19T11:28:45.879Z</time></trkpt><trkpt lat="44.7832978" lon="9.4820388"><ele>771.0</ele><time>2026-04-19T11:28:47.004Z</time></trkpt><trkpt lat="44.7833414" lon="9.4822213"><ele>771.0</ele><time>2026-04-19T11:28:48.902Z</time></trkpt><trkpt lat="44.7833414" lon="9.4823231"><ele>771.0</ele><time>2026-04-19T11:28:49.848Z</time></trkpt><trkpt lat="44.7833531" lon="9.482442"><ele>771.0</ele><time>2026-04-19T11:28:50.838Z</time></trkpt><trkpt lat="44.7833835" lon="9.4825583"><ele>771.0</ele><time>2026-04-19T11:28:51.894Z</time></trkpt><trkpt lat="44.7834264" lon="9.4826517"><ele>771.0</ele><time>2026-04-19T11:28:52.88Z</time></trkpt><trkpt lat="44.7834896" lon="9.4827346"><ele>771.0</ele><time>2026-04-19T11:28:53.925Z</time></trkpt><trkpt lat="44.7835623" lon="9.4827948"><ele>770.1999999999999</ele><time>2026-04-19T11:28:54.878Z</time></trkpt><trkpt lat="44.7836455" lon="9.4828524"><ele>769.4</ele><time>2026-04-19T11:28:55.879Z</time></trkpt><trkpt lat="44.7837254" lon="9.4828992"><ele>768.6</ele><time>2026-04-19T11:28:56.847Z</time></trkpt><trkpt lat="44.7838263" lon="9.4829352"><ele>767.8</ele><time>2026-04-19T11:28:57.921Z</time></trkpt><trkpt lat="44.7839332" lon="9.482942"><ele>767.0</ele><time>2026-04-19T11:28:58.9Z</time></trkpt><trkpt lat="44.7840318" lon="9.4829276"><ele>765.1666666666666</ele><time>2026-04-19T11:28:59.855Z</time></trkpt><trkpt lat="44.7841345" lon="9.482911"><ele>763.3333333333333</ele><time>2026-04-19T11:29:00.894Z</time></trkpt><trkpt lat="44.784212" lon="9.4829103"><ele>761.5</ele><time>2026-04-19T11:29:01.837Z</time></trkpt><trkpt lat="44.7842896" lon="9.4829243"><ele>759.6666666666666</ele><time>2026-04-19T11:29:02.926Z</time></trkpt><trkpt lat="44.7843568" lon="9.4829705"><ele>757.8333333333334</ele><time>2026-04-19T11:29:03.959Z</time></trkpt><trkpt lat="44.7844056" lon="9.4830451"><ele>756.0</ele><time>2026-04-19T11:29:04.974Z</time></trkpt><trkpt lat="44.7844511" lon="9.483145"><ele>753.1999999999999</ele><time>2026-04-19T11:29:05.878Z</time></trkpt><trkpt lat="44.7844831" lon="9.4832715"><ele>750.4</ele><time>2026-04-19T11:29:06.875Z</time></trkpt><trkpt lat="44.7845178" lon="9.4833943"><ele>747.6</ele><time>2026-04-19T11:29:07.833Z</time></trkpt><trkpt lat="44.7845598" lon="9.4835335"><ele>744.8</ele><time>2026-04-19T11:29:08.845Z</time></trkpt><trkpt lat="44.7846083" lon="9.4836826"><ele>742.0</ele><time>2026-04-19T11:29:09.868Z</time></trkpt><trkpt lat="44.7846475" lon="9.4838198"><ele>742.0</ele><time>2026-04-19T11:29:10.854Z</time></trkpt><trkpt lat="44.7846869" lon="9.4839481"><ele>742.0</ele><time>2026-04-19T11:29:11.833Z</time></trkpt><trkpt lat="44.7847174" lon="9.4840746"><ele>742.0</ele><time>2026-04-19T11:29:12.806Z</time></trkpt><trkpt lat="44.7847164" lon="9.4842207"><ele>742.0</ele><time>2026-04-19T11:29:13.856Z</time></trkpt><trkpt lat="44.784702" lon="9.4843649"><ele>742.0</ele><time>2026-04-19T11:29:14.884Z</time></trkpt><trkpt lat="44.7847113" lon="9.4845044"><ele>742.2</ele><time>2026-04-19T11:29:15.896Z</time></trkpt><trkpt lat="44.7847432" lon="9.4846157"><ele>742.4000000000001</ele><time>2026-04-19T11:29:16.83Z</time></trkpt><trkpt lat="44.7848132" lon="9.4847266"><ele>742.5999999999999</ele><time>2026-04-19T11:29:17.912Z</time></trkpt><trkpt lat="44.784904" lon="9.4848155"><ele>742.8</ele><time>2026-04-19T11:29:19.016Z</time></trkpt><trkpt lat="44.7849642" lon="9.4848877"><ele>743.0</ele><time>2026-04-19T11:29:19.901Z</time></trkpt><trkpt lat="44.7850111" lon="9.4849762"><ele>743.0</ele><time>2026-04-19T11:29:20.901Z</time></trkpt><trkpt lat="44.7850512" lon="9.4850972"><ele>743.0</ele><time>2026-04-19T11:29:21.925Z</time></trkpt><trkpt lat="44.7850758" lon="9.4852197"><ele>743.0</ele><time>2026-04-19T11:29:22.853Z</time></trkpt><trkpt lat="44.7850922" lon="9.4853848"><ele>743.0</ele><time>2026-04-19T11:29:23.929Z</time></trkpt><trkpt lat="44.7851017" lon="9.4855325"><ele>743.0</ele><time>2026-04-19T11:29:24.857Z</time></trkpt><trkpt lat="44.7851089" lon="9.4856957"><ele>741.75</ele><time>2026-04-19T11:29:25.901Z</time></trkpt><trkpt lat="44.7851146" lon="9.4858289"><ele>740.5</ele><time>2026-04-19T11:29:26.861Z</time></trkpt><trkpt lat="44.7851107" lon="9.4859482"><ele>739.25</ele><time>2026-04-19T11:29:28.013Z</time></trkpt><trkpt lat="44.785021" lon="9.4861233"><ele>738.0</ele><time>2026-04-19T11:29:29.977Z</time></trkpt><trkpt lat="44.7849507" lon="9.486265"><ele>736.4</ele><time>2026-04-19T11:29:31.851Z</time></trkpt><trkpt lat="44.7849391" lon="9.4863615"><ele>734.8</ele><time>2026-04-19T11:29:32.852Z</time></trkpt><trkpt lat="44.7849539" lon="9.4864757"><ele>733.2</ele><time>2026-04-19T11:29:33.903Z</time></trkpt><trkpt lat="44.7849895" lon="9.4865978"><ele>731.6</ele><time>2026-04-19T11:29:34.877Z</time></trkpt><trkpt lat="44.7850317" lon="9.4867431"><ele>730.0</ele><time>2026-04-19T11:29:35.989Z</time></trkpt><trkpt lat="44.7850972" lon="9.4869929"><ele>731.2</ele><time>2026-04-19T11:29:37.908Z</time></trkpt><trkpt lat="44.7851377" lon="9.4871014"><ele>732.4</ele><time>2026-04-19T11:29:38.834Z</time></trkpt><trkpt lat="44.7851905" lon="9.4872025"><ele>733.5999999999999</ele><time>2026-04-19T11:29:39.836Z</time></trkpt><trkpt lat="44.785256" lon="9.4872961"><ele>734.8</ele><time>2026-04-19T11:29:40.883Z</time></trkpt><trkpt lat="44.7853373" lon="9.4873723"><ele>736.0</ele><time>2026-04-19T11:29:41.85Z</time></trkpt><trkpt lat="44.7854347" lon="9.4874221"><ele>732.1999999999999</ele><time>2026-04-19T11:29:42.839Z</time></trkpt><trkpt lat="44.7855337" lon="9.4874628"><ele>728.4</ele><time>2026-04-19T11:29:43.855Z</time></trkpt><trkpt lat="44.7856293" lon="9.4875188"><ele>724.6</ele><time>2026-04-19T11:29:44.812Z</time></trkpt><trkpt lat="44.7857259" lon="9.4875922"><ele>720.8</ele><time>2026-04-19T11:29:45.882Z</time></trkpt><trkpt lat="44.7858182" lon="9.4876425"><ele>717.0</ele><time>2026-04-19T11:29:46.833Z</time></trkpt><trkpt lat="44.7859255" lon="9.4876691"><ele>715.6</ele><time>2026-04-19T11:29:47.877Z</time></trkpt><trkpt lat="44.7860243" lon="9.4876653"><ele>714.2</ele><time>2026-04-19T11:29:48.858Z</time></trkpt><trkpt lat="44.7861333" lon="9.4876629"><ele>712.8</ele><time>2026-04-19T11:29:49.865Z</time></trkpt><trkpt lat="44.7862513" lon="9.4876773"><ele>711.4</ele><time>2026-04-19T11:29:50.911Z</time></trkpt><trkpt lat="44.7863562" lon="9.4876991"><ele>710.0</ele><time>2026-04-19T11:29:51.896Z</time></trkpt><trkpt lat="44.7864692" lon="9.4877315"><ele>710.0</ele><time>2026-04-19T11:29:52.904Z</time></trkpt><trkpt lat="44.7865804" lon="9.4877781"><ele>710.0</ele><time>2026-04-19T11:29:53.901Z</time></trkpt><trkpt lat="44.7866927" lon="9.4878415"><ele>710.0</ele><time>2026-04-19T11:29:54.913Z</time></trkpt><trkpt lat="44.7867992" lon="9.4879279"><ele>710.0</ele><time>2026-04-19T11:29:55.887Z</time></trkpt><trkpt lat="44.7869094" lon="9.4880433"><ele>709.3333333333333</ele><time>2026-04-19T11:29:56.978Z</time></trkpt><trkpt lat="44.7870904" lon="9.4882465"><ele>708.6666666666666</ele><time>2026-04-19T11:29:58.915Z</time></trkpt><trkpt lat="44.7871801" lon="9.4883346"><ele>708.0</ele><time>2026-04-19T11:29:59.878Z</time></trkpt><trkpt lat="44.7872818" lon="9.4884157"><ele>708.0</ele><time>2026-04-19T11:30:00.894Z</time></trkpt><trkpt lat="44.787387" lon="9.4884828"><ele>708.0</ele><time>2026-04-19T11:30:01.919Z</time></trkpt><trkpt lat="44.7874963" lon="9.4885265"><ele>708.0</ele><time>2026-04-19T11:30:02.999Z</time></trkpt><trkpt lat="44.7876712" lon="9.4886257"><ele>708.0</ele><time>2026-04-19T11:30:04.882Z</time></trkpt><trkpt lat="44.7877616" lon="9.4886855"><ele>705.5999999999999</ele><time>2026-04-19T11:30:05.91Z</time></trkpt><trkpt lat="44.7878513" lon="9.4887191"><ele>703.1999999999999</ele><time>2026-04-19T11:30:06.873Z</time></trkpt><trkpt lat="44.7879529" lon="9.4887267"><ele>700.8</ele><time>2026-04-19T11:30:07.855Z</time></trkpt><trkpt lat="44.7880587" lon="9.4887426"><ele>698.4</ele><time>2026-04-19T11:30:08.909Z</time></trkpt><trkpt lat="44.7881426" lon="9.4887882"><ele>696.0</ele><time>2026-04-19T11:30:09.846Z</time></trkpt><trkpt lat="44.7882367" lon="9.4888714"><ele>693.4</ele><time>2026-04-19T11:30:10.918Z</time></trkpt><trkpt lat="44.7883163" lon="9.4889449"><ele>690.8</ele><time>2026-04-19T11:30:11.879Z</time></trkpt><trkpt lat="44.7884089" lon="9.4890152"><ele>688.1999999999999</ele><time>2026-04-19T11:30:12.887Z</time></trkpt><trkpt lat="44.7885032" lon="9.4890593"><ele>685.5999999999999</ele><time>2026-04-19T11:30:13.886Z</time></trkpt><trkpt lat="44.7886011" lon="9.4890955"><ele>683.0</ele><time>2026-04-19T11:30:14.846Z</time></trkpt><trkpt lat="44.7886989" lon="9.4891323"><ele>683.0</ele><time>2026-04-19T11:30:15.881Z</time></trkpt><trkpt lat="44.7887965" lon="9.4891807"><ele>683.0</ele><time>2026-04-19T11:30:16.843Z</time></trkpt><trkpt lat="44.7889114" lon="9.4892516"><ele>683.0</ele><time>2026-04-19T11:30:17.914Z</time></trkpt><trkpt lat="44.7890167" lon="9.4893242"><ele>683.0</ele><time>2026-04-19T11:30:18.939Z</time></trkpt><trkpt lat="44.7891141" lon="9.4893806"><ele>683.0</ele><time>2026-04-19T11:30:19.849Z</time></trkpt><trkpt lat="44.7892299" lon="9.4894265"><ele>683.0</ele><time>2026-04-19T11:30:20.879Z</time></trkpt><trkpt lat="44.7893448" lon="9.489471"><ele>683.0</ele><time>2026-04-19T11:30:21.874Z</time></trkpt><trkpt lat="44.7894555" lon="9.489516"><ele>683.0</ele><time>2026-04-19T11:30:22.831Z</time></trkpt><trkpt lat="44.7895861" lon="9.4895598"><ele>677.3333333333333</ele><time>2026-04-19T11:30:23.963Z</time></trkpt><trkpt lat="44.7898141" lon="9.489624"><ele>671.6666666666666</ele><time>2026-04-19T11:30:25.882Z</time></trkpt><trkpt lat="44.7899456" lon="9.4896607"><ele>666.0</ele><time>2026-04-19T11:30:27.004Z</time></trkpt><trkpt lat="44.7901577" lon="9.489762"><ele>663.6666666666666</ele><time>2026-04-19T11:30:28.988Z</time></trkpt><trkpt lat="44.7903524" lon="9.4899342"><ele>661.3333333333333</ele><time>2026-04-19T11:30:30.9Z</time></trkpt><trkpt lat="44.7904487" lon="9.4900398"><ele>659.0</ele><time>2026-04-19T11:30:31.913Z</time></trkpt><trkpt lat="44.7905354" lon="9.4901319"><ele>659.0</ele><time>2026-04-19T11:30:32.883Z</time></trkpt><trkpt lat="44.7906323" lon="9.4902266"><ele>659.0</ele><time>2026-04-19T11:30:33.942Z</time></trkpt><trkpt lat="44.7907235" lon="9.4903017"><ele>659.0</ele><time>2026-04-19T11:30:34.86Z</time></trkpt><trkpt lat="44.7908303" lon="9.4903682"><ele>659.0</ele><time>2026-04-19T11:30:35.856Z</time></trkpt><trkpt lat="44.7909533" lon="9.4904136"><ele>656.0</ele><time>2026-04-19T11:30:36.906Z</time></trkpt><trkpt lat="44.7910776" lon="9.4904377"><ele>653.0</ele><time>2026-04-19T11:30:37.918Z</time></trkpt><trkpt lat="44.7912039" lon="9.490462"><ele>650.0</ele><time>2026-04-19T11:30:38.907Z</time></trkpt><trkpt lat="44.7913329" lon="9.4904924"><ele>647.0</ele><time>2026-04-19T11:30:39.938Z</time></trkpt><trkpt lat="44.7914591" lon="9.4905248"><ele>647.0</ele><time>2026-04-19T11:30:40.889Z</time></trkpt><trkpt lat="44.7915912" lon="9.4905609"><ele>647.0</ele><time>2026-04-19T11:30:41.901Z</time></trkpt><trkpt lat="44.7917154" lon="9.4905938"><ele>647.0</ele><time>2026-04-19T11:30:42.886Z</time></trkpt><trkpt lat="44.7918396" lon="9.4906324"><ele>647.0</ele><time>2026-04-19T11:30:43.923Z</time></trkpt><trkpt lat="44.791961" lon="9.4906716"><ele>644.3333333333333</ele><time>2026-04-19T11:30:44.988Z</time></trkpt><trkpt lat="44.7920421" lon="9.490706"><ele>641.6666666666666</ele><time>2026-04-19T11:30:45.934Z</time></trkpt><trkpt lat="44.7921073" lon="9.4907552"><ele>639.0</ele><time>2026-04-19T11:30:46.885Z</time></trkpt><trkpt lat="44.7921518" lon="9.4908914"><ele>636.3333333333334</ele><time>2026-04-19T11:30:48.926Z</time></trkpt><trkpt lat="44.7921298" lon="9.4909797"><ele>633.6666666666667</ele><time>2026-04-19T11:30:49.922Z</time></trkpt><trkpt lat="44.7920795" lon="9.4910456"><ele>631.0</ele><time>2026-04-19T11:30:50.884Z</time></trkpt><trkpt lat="44.7919972" lon="9.4910839"><ele>631.0</ele><time>2026-04-19T11:30:52.007Z</time></trkpt><trkpt lat="44.7918994" lon="9.4910902"><ele>631.0</ele><time>2026-04-19T11:30:52.908Z</time></trkpt><trkpt lat="44.7917779" lon="9.4910833"><ele>631.0</ele><time>2026-04-19T11:30:53.931Z</time></trkpt><trkpt lat="44.7916535" lon="9.4910665"><ele>631.0</ele><time>2026-04-19T11:30:54.878Z</time></trkpt><trkpt lat="44.7915264" lon="9.4910482"><ele>635.0</ele><time>2026-04-19T11:30:55.886Z</time></trkpt><trkpt lat="44.7914047" lon="9.4910421"><ele>639.0</ele><time>2026-04-19T11:30:56.868Z</time></trkpt><trkpt lat="44.7912881" lon="9.4910498"><ele>643.0</ele><time>2026-04-19T11:30:57.853Z</time></trkpt><trkpt lat="44.7911752" lon="9.4910753"><ele>647.0</ele><time>2026-04-19T11:30:58.872Z</time></trkpt><trkpt lat="44.7910673" lon="9.4911101"><ele>646.8</ele><time>2026-04-19T11:30:59.872Z</time></trkpt><trkpt lat="44.7909592" lon="9.4911331"><ele>646.6</ele><time>2026-04-19T11:31:00.859Z</time></trkpt><trkpt lat="44.790835" lon="9.4911421"><ele>646.4</ele><time>2026-04-19T11:31:02.004Z</time></trkpt><trkpt lat="44.7907495" lon="9.4911339"><ele>646.1999999999999</ele><time>2026-04-19T11:31:02.851Z</time></trkpt><trkpt lat="44.7906415" lon="9.4911155"><ele>646.0</ele><time>2026-04-19T11:31:03.976Z</time></trkpt><trkpt lat="44.7905518" lon="9.4910903"><ele>646.0</ele><time>2026-04-19T11:31:04.9Z</time></trkpt><trkpt lat="44.7904637" lon="9.4910756"><ele>646.0</ele><time>2026-04-19T11:31:05.88Z</time></trkpt><trkpt lat="44.7903844" lon="9.4910838"><ele>646.0</ele><time>2026-04-19T11:31:06.856Z</time></trkpt><trkpt lat="44.7903185" lon="9.4911251"><ele>646.0</ele><time>2026-04-19T11:31:07.878Z</time></trkpt><trkpt lat="44.7902396" lon="9.4912579"><ele>646.0</ele><time>2026-04-19T11:31:09.889Z</time></trkpt><trkpt lat="44.7902658" lon="9.4914278"><ele>641.8</ele><time>2026-04-19T11:31:11.881Z</time></trkpt><trkpt lat="44.7903149" lon="9.491488"><ele>637.5999999999999</ele><time>2026-04-19T11:31:12.851Z</time></trkpt><trkpt lat="44.7903791" lon="9.4915415"><ele>633.4</ele><time>2026-04-19T11:31:13.862Z</time></trkpt><trkpt lat="44.7904636" lon="9.4916048"><ele>629.2</ele><time>2026-04-19T11:31:14.877Z</time></trkpt><trkpt lat="44.7905483" lon="9.4916705"><ele>625.0</ele><time>2026-04-19T11:31:15.854Z</time></trkpt><trkpt lat="44.7906488" lon="9.4917594"><ele>625.0</ele><time>2026-04-19T11:31:16.9Z</time></trkpt><trkpt lat="44.7907584" lon="9.4918469"><ele>625.0</ele><time>2026-04-19T11:31:17.915Z</time></trkpt><trkpt lat="44.7908606" lon="9.4919326"><ele>625.0</ele><time>2026-04-19T11:31:18.859Z</time></trkpt><trkpt lat="44.7909632" lon="9.4920374"><ele>625.0</ele><time>2026-04-19T11:31:19.955Z</time></trkpt><trkpt lat="44.791043" lon="9.4921399"><ele>624.6</ele><time>2026-04-19T11:31:20.887Z</time></trkpt><trkpt lat="44.7911202" lon="9.4922617"><ele>624.2</ele><time>2026-04-19T11:31:21.879Z</time></trkpt><trkpt lat="44.7911907" lon="9.4923885"><ele>623.8</ele><time>2026-04-19T11:31:22.929Z</time></trkpt><trkpt lat="44.7912582" lon="9.4925098"><ele>623.4</ele><time>2026-04-19T11:31:23.906Z</time></trkpt><trkpt lat="44.7913177" lon="9.4926348"><ele>623.0</ele><time>2026-04-19T11:31:24.849Z</time></trkpt><trkpt lat="44.7913787" lon="9.492796"><ele>619.25</ele><time>2026-04-19T11:31:26.018Z</time></trkpt><trkpt lat="44.7914522" lon="9.4930847"><ele>615.5</ele><time>2026-04-19T11:31:27.931Z</time></trkpt><trkpt lat="44.7914891" lon="9.4932181"><ele>611.75</ele><time>2026-04-19T11:31:28.889Z</time></trkpt><trkpt lat="44.7915341" lon="9.4933529"><ele>608.0</ele><time>2026-04-19T11:31:29.882Z</time></trkpt><trkpt lat="44.7915884" lon="9.4934889"><ele>608.0</ele><time>2026-04-19T11:31:30.896Z</time></trkpt><trkpt lat="44.7916494" lon="9.4936139"><ele>608.0</ele><time>2026-04-19T11:31:31.87Z</time></trkpt><trkpt lat="44.7917297" lon="9.4937449"><ele>608.0</ele><time>2026-04-19T11:31:33.004Z</time></trkpt><trkpt lat="44.7918936" lon="9.4939312"><ele>608.0</ele><time>2026-04-19T11:31:34.889Z</time></trkpt><trkpt lat="44.791964" lon="9.4940474"><ele>607.1999999999999</ele><time>2026-04-19T11:31:35.861Z</time></trkpt><trkpt lat="44.7920199" lon="9.4941926"><ele>606.4</ele><time>2026-04-19T11:31:36.888Z</time></trkpt><trkpt lat="44.7920636" lon="9.4943296"><ele>605.5999999999999</ele><time>2026-04-19T11:31:37.873Z</time></trkpt><trkpt lat="44.7921218" lon="9.4944556"><ele>604.8</ele><time>2026-04-19T11:31:38.859Z</time></trkpt><trkpt lat="44.7922032" lon="9.4945645"><ele>604.0</ele><time>2026-04-19T11:31:39.885Z</time></trkpt><trkpt lat="44.7922947" lon="9.4946602"><ele>601.4</ele><time>2026-04-19T11:31:40.9Z</time></trkpt><trkpt lat="44.7923904" lon="9.4947552"><ele>598.8</ele><time>2026-04-19T11:31:41.924Z</time></trkpt><trkpt lat="44.7924683" lon="9.4948537"><ele>596.2</ele><time>2026-04-19T11:31:42.85Z</time></trkpt><trkpt lat="44.7925426" lon="9.4949809"><ele>593.6</ele><time>2026-04-19T11:31:43.911Z</time></trkpt><trkpt lat="44.7925986" lon="9.495097"><ele>591.0</ele><time>2026-04-19T11:31:44.873Z</time></trkpt><trkpt lat="44.7926672" lon="9.495197"><ele>590.6</ele><time>2026-04-19T11:31:45.882Z</time></trkpt><trkpt lat="44.7927467" lon="9.495264"><ele>590.2</ele><time>2026-04-19T11:31:46.889Z</time></trkpt><trkpt lat="44.7928404" lon="9.4953233"><ele>589.8</ele><time>2026-04-19T11:31:47.886Z</time></trkpt><trkpt lat="44.7929429" lon="9.4953822"><ele>589.4</ele><time>2026-04-19T11:31:48.911Z</time></trkpt><trkpt lat="44.7930332" lon="9.4954432"><ele>589.0</ele><time>2026-04-19T11:31:49.895Z</time></trkpt><trkpt lat="44.7931165" lon="9.4955211"><ele>587.2</ele><time>2026-04-19T11:31:50.908Z</time></trkpt><trkpt lat="44.7931837" lon="9.495616"><ele>585.4</ele><time>2026-04-19T11:31:51.877Z</time></trkpt><trkpt lat="44.7932449" lon="9.4957295"><ele>583.6</ele><time>2026-04-19T11:31:52.916Z</time></trkpt><trkpt lat="44.7932907" lon="9.4958468"><ele>581.8</ele><time>2026-04-19T11:31:53.882Z</time></trkpt><trkpt lat="44.793332" lon="9.4959634"><ele>580.0</ele><time>2026-04-19T11:31:54.867Z</time></trkpt><trkpt lat="44.7933694" lon="9.4960831"><ele>580.0</ele><time>2026-04-19T11:31:55.902Z</time></trkpt><trkpt lat="44.793403" lon="9.4961907"><ele>580.0</ele><time>2026-04-19T11:31:56.929Z</time></trkpt><trkpt lat="44.7934311" lon="9.4962744"><ele>580.0</ele><time>2026-04-19T11:31:57.93Z</time></trkpt><trkpt lat="44.7934687" lon="9.4964118"><ele>580.0</ele><time>2026-04-19T11:31:59.888Z</time></trkpt><trkpt lat="44.7934896" lon="9.4965062"><ele>580.0</ele><time>2026-04-19T11:32:01.893Z</time></trkpt><trkpt lat="44.7935179" lon="9.4965886"><ele>580.0</ele><time>2026-04-19T11:32:11.894Z</time></trkpt><trkpt lat="44.7934993" lon="9.4967088"><ele>578.8333333333334</ele><time>2026-04-19T11:32:14.934Z</time></trkpt><trkpt lat="44.7934453" lon="9.4967936"><ele>577.6666666666667</ele><time>2026-04-19T11:32:17.901Z</time></trkpt><trkpt lat="44.7933839" lon="9.4968206"><ele>576.5</ele><time>2026-04-19T11:32:19.897Z</time></trkpt><trkpt lat="44.7933057" lon="9.4968392"><ele>575.3333333333334</ele><time>2026-04-19T11:32:21.845Z</time></trkpt><trkpt lat="44.7932212" lon="9.4969186"><ele>574.1666666666666</ele><time>2026-04-19T11:32:25.032Z</time></trkpt><trkpt lat="44.7931938" lon="9.4970135"><ele>573.0</ele><time>2026-04-19T11:32:26.917Z</time></trkpt><trkpt lat="44.7931586" lon="9.4971869"><ele>571.5</ele><time>2026-04-19T11:32:29.861Z</time></trkpt><trkpt lat="44.7931569" lon="9.4972768"><ele>570.0</ele><time>2026-04-19T11:32:31.879Z</time></trkpt><trkpt lat="44.7931823" lon="9.4973775"><ele>568.5</ele><time>2026-04-19T11:32:33.858Z</time></trkpt><trkpt lat="44.7932055" lon="9.4974672"><ele>567.0</ele><time>2026-04-19T11:32:35.87Z</time></trkpt><trkpt lat="44.7931593" lon="9.4975641"><ele>565.5</ele><time>2026-04-19T11:32:38.886Z</time></trkpt><trkpt lat="44.7930742" lon="9.4975291"><ele>564.0</ele><time>2026-04-19T11:32:41.859Z</time></trkpt><trkpt lat="44.7929931" lon="9.4974919"><ele>564.0</ele><time>2026-04-19T11:32:43.889Z</time></trkpt><trkpt lat="44.7929117" lon="9.4974482"><ele>564.0</ele><time>2026-04-19T11:32:45.878Z</time></trkpt><trkpt lat="44.7928148" lon="9.4973852"><ele>564.0</ele><time>2026-04-19T11:32:47.884Z</time></trkpt><trkpt lat="44.7927168" lon="9.4973181"><ele>564.0</ele><time>2026-04-19T11:32:49.855Z</time></trkpt><trkpt lat="44.79265" lon="9.4972819"><ele>564.0</ele><time>2026-04-19T11:32:51.016Z</time></trkpt><trkpt lat="44.7925405" lon="9.4972322"><ele>564.1666666666666</ele><time>2026-04-19T11:32:52.841Z</time></trkpt><trkpt lat="44.7924769" lon="9.4972039"><ele>564.3333333333334</ele><time>2026-04-19T11:32:53.856Z</time></trkpt><trkpt lat="44.7924139" lon="9.4971794"><ele>564.5</ele><time>2026-04-19T11:32:54.858Z</time></trkpt><trkpt lat="44.7923448" lon="9.4971474"><ele>564.6666666666667</ele><time>2026-04-19T11:32:55.953Z</time></trkpt><trkpt lat="44.7922144" lon="9.4970819"><ele>564.8333333333334</ele><time>2026-04-19T11:32:57.903Z</time></trkpt><trkpt lat="44.7921482" lon="9.4970424"><ele>565.0</ele><time>2026-04-19T11:32:58.894Z</time></trkpt><trkpt lat="44.7920867" lon="9.4969845"><ele>565.0</ele><time>2026-04-19T11:32:59.889Z</time></trkpt><trkpt lat="44.7919836" lon="9.4968916"><ele>565.0</ele><time>2026-04-19T11:33:01.893Z</time></trkpt><trkpt lat="44.7919279" lon="9.4968458"><ele>565.0</ele><time>2026-04-19T11:33:02.861Z</time></trkpt><trkpt lat="44.7918559" lon="9.4968088"><ele>565.0</ele><time>2026-04-19T11:33:03.968Z</time></trkpt><trkpt lat="44.7917938" lon="9.4967876"><ele>565.0</ele><time>2026-04-19T11:33:04.927Z</time></trkpt><trkpt lat="44.7916832" lon="9.4967929"><ele>565.0</ele><time>2026-04-19T11:33:06.846Z</time></trkpt><trkpt lat="44.7916221" lon="9.4968169"><ele>562.5</ele><time>2026-04-19T11:33:07.835Z</time></trkpt><trkpt lat="44.7914958" lon="9.4968421"><ele>560.0</ele><time>2026-04-19T11:33:10.012Z</time></trkpt><trkpt lat="44.7913801" lon="9.4968134"><ele>557.5</ele><time>2026-04-19T11:33:11.853Z</time></trkpt><trkpt lat="44.7912616" lon="9.4967939"><ele>555.0</ele><time>2026-04-19T11:33:13.898Z</time></trkpt><trkpt lat="44.7911621" lon="9.4967743"><ele>555.0000000000001</ele><time>2026-04-19T11:33:15.86Z</time></trkpt><trkpt lat="44.7910821" lon="9.4967628"><ele>555.0</ele><time>2026-04-19T11:33:17.854Z</time></trkpt><trkpt lat="44.7910179" lon="9.4968183"><ele>555.0</ele><time>2026-04-19T11:33:19.859Z</time></trkpt><trkpt lat="44.7910143" lon="9.4969145"><ele>555.0</ele><time>2026-04-19T11:36:46.831Z</time></trkpt><trkpt lat="44.7910001" lon="9.4970075"><ele>555.0</ele><time>2026-04-19T11:36:51.875Z</time></trkpt><trkpt lat="44.7910157" lon="9.4971091"><ele>555.0000000000001</ele><time>2026-04-19T11:36:53.919Z</time></trkpt><trkpt lat="44.7910337" lon="9.497195"><ele>555.0</ele><time>2026-04-19T11:36:55.883Z</time></trkpt><trkpt lat="44.7910075" lon="9.4972999"><ele>555.1666666666666</ele><time>2026-04-19T11:37:16.861Z</time></trkpt><trkpt lat="44.7909548" lon="9.4973607"><ele>555.3333333333334</ele><time>2026-04-19T11:37:18.895Z</time></trkpt><trkpt lat="44.7909123" lon="9.4974309"><ele>555.5</ele><time>2026-04-19T11:37:21.051Z</time></trkpt><trkpt lat="44.7908841" lon="9.4975104"><ele>555.6666666666667</ele><time>2026-04-19T11:37:22.878Z</time></trkpt><trkpt lat="44.7908517" lon="9.497602"><ele>555.8333333333334</ele><time>2026-04-19T11:37:24.858Z</time></trkpt><trkpt lat="44.790835" lon="9.4977326"><ele>556.0</ele><time>2026-04-19T11:37:26.9Z</time></trkpt><trkpt lat="44.7908374" lon="9.4978551"><ele>554.4</ele><time>2026-04-19T11:37:28.85Z</time></trkpt><trkpt lat="44.7908434" lon="9.4980179"><ele>552.8</ele><time>2026-04-19T11:37:31.883Z</time></trkpt><trkpt lat="44.7908334" lon="9.4981295"><ele>551.1999999999999</ele><time>2026-04-19T11:37:34.894Z</time></trkpt><trkpt lat="44.7907655" lon="9.498172"><ele>549.6</ele><time>2026-04-19T11:38:15.86Z</time></trkpt><trkpt lat="44.7906675" lon="9.4981469"><ele>548.0</ele><time>2026-04-19T11:44:23.932Z</time></trkpt><trkpt lat="44.7905725" lon="9.4981037"><ele>548.0</ele><time>2026-04-19T11:44:26.849Z</time></trkpt><trkpt lat="44.7904868" lon="9.4980778"><ele>548.0</ele><time>2026-04-19T11:44:28.874Z</time></trkpt><trkpt lat="44.7904072" lon="9.4980571"><ele>548.0</ele><time>2026-04-19T11:44:30.804Z</time></trkpt><trkpt lat="44.7903447" lon="9.4980436"><ele>548.0</ele><time>2026-04-19T11:44:32.833Z</time></trkpt><trkpt lat="44.7902624" lon="9.4980413"><ele>548.0</ele><time>2026-04-19T11:44:34.869Z</time></trkpt><trkpt lat="44.7901942" lon="9.4980315"><ele>548.0</ele><time>2026-04-19T11:44:36.831Z</time></trkpt><trkpt lat="44.7901258" lon="9.4980448"><ele>551.1666666666666</ele><time>2026-04-19T11:44:38.907Z</time></trkpt><trkpt lat="44.7900401" lon="9.4981021"><ele>554.3333333333333</ele><time>2026-04-19T11:44:40.875Z</time></trkpt><trkpt lat="44.7899694" lon="9.4981546"><ele>557.5</ele><time>2026-04-19T11:44:42.974Z</time></trkpt><trkpt lat="44.7899044" lon="9.4982053"><ele>560.6666666666666</ele><time>2026-04-19T11:44:44.846Z</time></trkpt><trkpt lat="44.7898288" lon="9.4982436"><ele>563.8333333333334</ele><time>2026-04-19T11:44:46.828Z</time></trkpt><trkpt lat="44.7897495" lon="9.4982708"><ele>567.0</ele><time>2026-04-19T11:44:48.843Z</time></trkpt><trkpt lat="44.7896665" lon="9.4983456"><ele>567.0</ele><time>2026-04-19T11:44:50.863Z</time></trkpt><trkpt lat="44.7895808" lon="9.4984332"><ele>567.0</ele><time>2026-04-19T11:44:52.817Z</time></trkpt><trkpt lat="44.7895009" lon="9.4985307"><ele>567.0</ele><time>2026-04-19T11:44:54.947Z</time></trkpt><trkpt lat="44.789441" lon="9.4986292"><ele>567.0</ele><time>2026-04-19T11:44:56.844Z</time></trkpt><trkpt lat="44.7893778" lon="9.4987217"><ele>567.0</ele><time>2026-04-19T11:44:58.823Z</time></trkpt><trkpt lat="44.7892723" lon="9.4988485"><ele>568.6</ele><time>2026-04-19T11:45:01.833Z</time></trkpt><trkpt lat="44.7891806" lon="9.4989004"><ele>570.2</ele><time>2026-04-19T11:45:03.912Z</time></trkpt><trkpt lat="44.7890866" lon="9.4989349"><ele>571.8</ele><time>2026-04-19T11:45:05.862Z</time></trkpt><trkpt lat="44.7889858" lon="9.498951"><ele>573.4</ele><time>2026-04-19T11:45:08.036Z</time></trkpt><trkpt lat="44.7889085" lon="9.4989747"><ele>575.0</ele><time>2026-04-19T11:45:09.878Z</time></trkpt><trkpt lat="44.788833" lon="9.4989976"><ele>575.0</ele><time>2026-04-19T11:45:11.865Z</time></trkpt><trkpt lat="44.7887362" lon="9.4990187"><ele>575.0</ele><time>2026-04-19T11:45:13.878Z</time></trkpt><trkpt lat="44.7886351" lon="9.4990414"><ele>575.0</ele><time>2026-04-19T11:45:15.896Z</time></trkpt><trkpt lat="44.7885265" lon="9.499073"><ele>575.0</ele><time>2026-04-19T11:45:18.051Z</time></trkpt><trkpt lat="44.7884648" lon="9.4990954"><ele>575.0</ele><time>2026-04-19T11:45:19.947Z</time></trkpt><trkpt lat="44.7883882" lon="9.499117"><ele>574.7142857142857</ele><time>2026-04-19T11:46:16.921Z</time></trkpt><trkpt lat="44.7883141" lon="9.4991233"><ele>574.4285714285713</ele><time>2026-04-19T11:46:18.9Z</time></trkpt><trkpt lat="44.7882425" lon="9.4991234"><ele>574.1428571428571</ele><time>2026-04-19T11:46:20.899Z</time></trkpt><trkpt lat="44.7881742" lon="9.4991349"><ele>573.8571428571429</ele><time>2026-04-19T11:46:22.932Z</time></trkpt><trkpt lat="44.7880944" lon="9.4991237"><ele>573.5714285714287</ele><time>2026-04-19T11:46:24.857Z</time></trkpt><trkpt lat="44.7880328" lon="9.4990835"><ele>573.2857142857143</ele><time>2026-04-19T11:46:26.916Z</time></trkpt><trkpt lat="44.7879583" lon="9.4990456"><ele>573.0</ele><time>2026-04-19T11:46:28.93Z</time></trkpt><trkpt lat="44.7878913" lon="9.4990191"><ele>573.0</ele><time>2026-04-19T11:46:30.91Z</time></trkpt><trkpt lat="44.7878249" lon="9.498988"><ele>573.0</ele><time>2026-04-19T11:46:32.885Z</time></trkpt><trkpt lat="44.7877583" lon="9.4989372"><ele>573.0</ele><time>2026-04-19T11:46:34.912Z</time></trkpt><trkpt lat="44.7876874" lon="9.498883"><ele>573.0</ele><time>2026-04-19T11:46:36.917Z</time></trkpt><trkpt lat="44.7876088" lon="9.4988647"><ele>573.0</ele><time>2026-04-19T11:46:38.913Z</time></trkpt><trkpt lat="44.7875327" lon="9.4988394"><ele>573.0</ele><time>2026-04-19T11:46:40.916Z</time></trkpt><trkpt lat="44.787469" lon="9.4988177"><ele>574.3333333333334</ele><time>2026-04-19T11:46:42.827Z</time></trkpt><trkpt lat="44.7873966" lon="9.4988061"><ele>575.6666666666666</ele><time>2026-04-19T11:46:45.22Z</time></trkpt><trkpt lat="44.7873278" lon="9.4987833"><ele>577.0</ele><time>2026-04-19T11:46:47.898Z</time></trkpt><trkpt lat="44.7872118" lon="9.4987545"><ele>578.3333333333333</ele><time>2026-04-19T11:46:50.855Z</time></trkpt><trkpt lat="44.7871441" lon="9.4987024"><ele>579.6666666666666</ele><time>2026-04-19T11:46:53.85Z</time></trkpt><trkpt lat="44.7870927" lon="9.4986323"><ele>581.0</ele><time>2026-04-19T11:46:56.817Z</time></trkpt><trkpt lat="44.7870271" lon="9.4985918"><ele>581.0</ele><time>2026-04-19T11:46:58.993Z</time></trkpt><trkpt lat="44.7869547" lon="9.498566"><ele>581.0</ele><time>2026-04-19T11:47:00.949Z</time></trkpt><trkpt lat="44.7868861" lon="9.4985335"><ele>581.0</ele><time>2026-04-19T11:47:02.901Z</time></trkpt><trkpt lat="44.7868176" lon="9.4985078"><ele>581.0</ele><time>2026-04-19T11:47:04.893Z</time></trkpt><trkpt lat="44.7867349" lon="9.4984674"><ele>581.0</ele><time>2026-04-19T11:47:06.898Z</time></trkpt><trkpt lat="44.7866599" lon="9.4984241"><ele>581.0</ele><time>2026-04-19T11:47:08.903Z</time></trkpt><trkpt lat="44.7865942" lon="9.4983907"><ele>580.6666666666666</ele><time>2026-04-19T11:47:10.854Z</time></trkpt><trkpt lat="44.7865014" lon="9.4983707"><ele>580.3333333333333</ele><time>2026-04-19T11:47:13.822Z</time></trkpt><trkpt lat="44.7864277" lon="9.4983831"><ele>580.0</ele><time>2026-04-19T11:47:16.926Z</time></trkpt><trkpt lat="44.78636" lon="9.4983884"><ele>579.6666666666666</ele><time>2026-04-19T11:47:42.841Z</time></trkpt><trkpt lat="44.7862898" lon="9.4983779"><ele>579.3333333333334</ele><time>2026-04-19T11:47:45.866Z</time></trkpt><trkpt lat="44.7862101" lon="9.4983646"><ele>579.0</ele><time>2026-04-19T11:48:02.819Z</time></trkpt><trkpt lat="44.7861443" lon="9.4983408"><ele>579.0</ele><time>2026-04-19T11:48:06.855Z</time></trkpt><trkpt lat="44.7860776" lon="9.4983547"><ele>579.0</ele><time>2026-04-19T11:48:08.933Z</time></trkpt><trkpt lat="44.7859961" lon="9.4983779"><ele>579.0</ele><time>2026-04-19T11:48:10.836Z</time></trkpt><trkpt lat="44.7859156" lon="9.498457"><ele>579.0</ele><time>2026-04-19T11:48:12.865Z</time></trkpt><trkpt lat="44.7858628" lon="9.4985304"><ele>579.0</ele><time>2026-04-19T11:48:19.829Z</time></trkpt><trkpt lat="44.7857611" lon="9.4985649"><ele>579.0</ele><time>2026-04-19T11:48:22.927Z</time></trkpt><trkpt lat="44.7856929" lon="9.4985432"><ele>579.7142857142857</ele><time>2026-04-19T11:48:26.854Z</time></trkpt><trkpt lat="44.7856208" lon="9.4985432"><ele>580.4285714285714</ele><time>2026-04-19T11:48:28.847Z</time></trkpt><trkpt lat="44.7855405" lon="9.4985231"><ele>581.1428571428571</ele><time>2026-04-19T11:48:30.853Z</time></trkpt><trkpt lat="44.7854721" lon="9.4985151"><ele>581.8571428571429</ele><time>2026-04-19T11:48:59.886Z</time></trkpt><trkpt lat="44.785407" lon="9.4985036"><ele>582.5714285714286</ele><time>2026-04-19T11:49:01.894Z</time></trkpt><trkpt lat="44.7853187" lon="9.498498"><ele>583.2857142857142</ele><time>2026-04-19T11:49:03.885Z</time></trkpt><trkpt lat="44.7852492" lon="9.4985202"><ele>584.0</ele><time>2026-04-19T11:49:05.898Z</time></trkpt><trkpt lat="44.7852081" lon="9.4986368"><ele>581.0</ele><time>2026-04-19T11:49:08.862Z</time></trkpt><trkpt lat="44.7852082" lon="9.4987543"><ele>578.0</ele><time>2026-04-19T11:49:10.937Z</time></trkpt><trkpt lat="44.7851782" lon="9.49885"><ele>575.0</ele><time>2026-04-19T11:49:12.888Z</time></trkpt><trkpt lat="44.7851312" lon="9.4989655"><ele>572.0</ele><time>2026-04-19T11:49:14.904Z</time></trkpt><trkpt lat="44.7850759" lon="9.4990648"><ele>569.0</ele><time>2026-04-19T11:49:16.891Z</time></trkpt><trkpt lat="44.785019" lon="9.4991296"><ele>566.0</ele><time>2026-04-19T11:49:18.885Z</time></trkpt><trkpt lat="44.7849534" lon="9.4991691"><ele>566.0</ele><time>2026-04-19T11:49:20.887Z</time></trkpt><trkpt lat="44.7848452" lon="9.4991906"><ele>566.0</ele><time>2026-04-19T11:49:23.917Z</time></trkpt><trkpt lat="44.7847474" lon="9.4991959"><ele>566.0</ele><time>2026-04-19T11:49:26.923Z</time></trkpt><trkpt lat="44.7846875" lon="9.4992615"><ele>566.0</ele><time>2026-04-19T11:49:29.897Z</time></trkpt><trkpt lat="44.7846514" lon="9.4993797"><ele>566.0</ele><time>2026-04-19T11:49:32.985Z</time></trkpt><trkpt lat="44.7846177" lon="9.4994748"><ele>566.0</ele><time>2026-04-19T11:49:34.912Z</time></trkpt><trkpt lat="44.784577" lon="9.4995448"><ele>566.0</ele><time>2026-04-19T11:49:36.921Z</time></trkpt><trkpt lat="44.784532" lon="9.4996328"><ele>566.0</ele><time>2026-04-19T11:49:38.943Z</time></trkpt><trkpt lat="44.7845105" lon="9.4997583"><ele>566.0</ele><time>2026-04-19T11:49:40.883Z</time></trkpt><trkpt lat="44.7845092" lon="9.4998646"><ele>566.0</ele><time>2026-04-19T11:49:42.881Z</time></trkpt><trkpt lat="44.7844727" lon="9.4999825"><ele>566.0</ele><time>2026-04-19T11:49:45.986Z</time></trkpt><trkpt lat="44.7844158" lon="9.5000747"><ele>562.5</ele><time>2026-04-19T11:49:48.851Z</time></trkpt><trkpt lat="44.7843685" lon="9.5001364"><ele>559.0</ele><time>2026-04-19T11:49:50.879Z</time></trkpt><trkpt lat="44.7843355" lon="9.5002147"><ele>555.5</ele><time>2026-04-19T11:49:53.928Z</time></trkpt><trkpt lat="44.7843642" lon="9.500333"><ele>552.0</ele><time>2026-04-19T11:49:57.952Z</time></trkpt><trkpt lat="44.7843862" lon="9.5004857"><ele>548.5</ele><time>2026-04-19T11:50:00.893Z</time></trkpt><trkpt lat="44.7843784" lon="9.5006532"><ele>545.0</ele><time>2026-04-19T11:50:03.877Z</time></trkpt><trkpt lat="44.7844035" lon="9.5008554"><ele>541.1666666666666</ele><time>2026-04-19T11:50:06.945Z</time></trkpt><trkpt lat="44.7844224" lon="9.500977"><ele>537.3333333333333</ele><time>2026-04-19T11:50:08.994Z</time></trkpt><trkpt lat="44.7844314" lon="9.5010746"><ele>533.5</ele><time>2026-04-19T11:50:10.926Z</time></trkpt><trkpt lat="44.7844322" lon="9.501194"><ele>529.6666666666666</ele><time>2026-04-19T11:50:13.938Z</time></trkpt><trkpt lat="44.7844931" lon="9.5012521"><ele>525.8333333333334</ele><time>2026-04-19T11:50:18.895Z</time></trkpt><trkpt lat="44.7845612" lon="9.5012654"><ele>522.0</ele><time>2026-04-19T11:50:20.919Z</time></trkpt><trkpt lat="44.7846701" lon="9.5012535"><ele>522.0</ele><time>2026-04-19T11:50:22.834Z</time></trkpt><trkpt lat="44.7847583" lon="9.5012391"><ele>522.0</ele><time>2026-04-19T11:50:23.859Z</time></trkpt><trkpt lat="44.7848568" lon="9.5012226"><ele>522.0</ele><time>2026-04-19T11:50:24.888Z</time></trkpt><trkpt lat="44.7849561" lon="9.50121"><ele>522.0</ele><time>2026-04-19T11:50:25.868Z</time></trkpt><trkpt lat="44.785065" lon="9.5011975"><ele>522.0</ele><time>2026-04-19T11:50:26.89Z</time></trkpt><trkpt lat="44.7851818" lon="9.501181"><ele>521.75</ele><time>2026-04-19T11:50:27.89Z</time></trkpt><trkpt lat="44.7853141" lon="9.5011585"><ele>521.5</ele><time>2026-04-19T11:50:28.932Z</time></trkpt><trkpt lat="44.7854379" lon="9.5011322"><ele>521.25</ele><time>2026-04-19T11:50:29.884Z</time></trkpt><trkpt lat="44.7855767" lon="9.5011021"><ele>521.0</ele><time>2026-04-19T11:50:30.902Z</time></trkpt><trkpt lat="44.7857157" lon="9.5010788"><ele>521.0</ele><time>2026-04-19T11:50:31.894Z</time></trkpt><trkpt lat="44.785864" lon="9.501063"><ele>521.0</ele><time>2026-04-19T11:50:32.999Z</time></trkpt><trkpt lat="44.785976" lon="9.5010524"><ele>521.0</ele><time>2026-04-19T11:50:33.961Z</time></trkpt><trkpt lat="44.7860733" lon="9.5010432"><ele>521.0</ele><time>2026-04-19T11:50:34.918Z</time></trkpt><trkpt lat="44.7861606" lon="9.5010304"><ele>521.0</ele><time>2026-04-19T11:50:35.941Z</time></trkpt><trkpt lat="44.7862401" lon="9.5009948"><ele>521.5</ele><time>2026-04-19T11:50:36.897Z</time></trkpt><trkpt lat="44.7863359" lon="9.500937"><ele>522.0</ele><time>2026-04-19T11:50:38.048Z</time></trkpt><trkpt lat="44.7865012" lon="9.5008675"><ele>522.5</ele><time>2026-04-19T11:50:39.877Z</time></trkpt><trkpt lat="44.7866075" lon="9.5008612"><ele>523.0</ele><time>2026-04-19T11:50:40.898Z</time></trkpt><trkpt lat="44.7867085" lon="9.5008437"><ele>523.0</ele><time>2026-04-19T11:50:41.899Z</time></trkpt><trkpt lat="44.7868032" lon="9.5008405"><ele>523.0</ele><time>2026-04-19T11:50:42.858Z</time></trkpt><trkpt lat="44.7869066" lon="9.5008605"><ele>523.0</ele><time>2026-04-19T11:50:43.935Z</time></trkpt><trkpt lat="44.7870017" lon="9.5008991"><ele>523.0</ele><time>2026-04-19T11:50:44.905Z</time></trkpt><trkpt lat="44.7871016" lon="9.5009579"><ele>523.0</ele><time>2026-04-19T11:50:45.89Z</time></trkpt><trkpt lat="44.7871975" lon="9.5010242"><ele>523.8</ele><time>2026-04-19T11:50:46.852Z</time></trkpt><trkpt lat="44.7872823" lon="9.5010888"><ele>524.5999999999999</ele><time>2026-04-19T11:50:47.885Z</time></trkpt><trkpt lat="44.7873536" lon="9.5011575"><ele>525.4000000000001</ele><time>2026-04-19T11:50:48.865Z</time></trkpt><trkpt lat="44.787425" lon="9.5012554"><ele>526.2</ele><time>2026-04-19T11:50:49.893Z</time></trkpt><trkpt lat="44.7875341" lon="9.5013636"><ele>527.0</ele><time>2026-04-19T11:50:51.069Z</time></trkpt><trkpt lat="44.7876796" lon="9.5015393"><ele>527.0</ele><time>2026-04-19T11:50:52.9Z</time></trkpt><trkpt lat="44.7877364" lon="9.5016209"><ele>527.0</ele><time>2026-04-19T11:50:53.977Z</time></trkpt><trkpt lat="44.7877999" lon="9.5016696"><ele>527.0</ele><time>2026-04-19T11:50:56.048Z</time></trkpt><trkpt lat="44.7878845" lon="9.5016761"><ele>527.0</ele><time>2026-04-19T11:50:57.903Z</time></trkpt><trkpt lat="44.7879645" lon="9.5016846"><ele>527.0</ele><time>2026-04-19T11:50:59.843Z</time></trkpt><trkpt lat="44.7880343" lon="9.5017852"><ele>527.0</ele><time>2026-04-19T11:51:01.904Z</time></trkpt><trkpt lat="44.7880878" lon="9.5019311"><ele>527.0</ele><time>2026-04-19T11:51:03.884Z</time></trkpt><trkpt lat="44.7881493" lon="9.5020698"><ele>527.0</ele><time>2026-04-19T11:51:05.994Z</time></trkpt><trkpt lat="44.7882119" lon="9.502157"><ele>527.0</ele><time>2026-04-19T11:51:07.857Z</time></trkpt><trkpt lat="44.7882824" lon="9.5021447"><ele>527.0</ele><time>2026-04-19T11:51:09.994Z</time></trkpt><trkpt lat="44.7883712" lon="9.5020619"><ele>527.0</ele><time>2026-04-19T11:51:11.864Z</time></trkpt><trkpt lat="44.7884817" lon="9.501977"><ele>526.5</ele><time>2026-04-19T11:51:13.944Z</time></trkpt><trkpt lat="44.7885532" lon="9.5019196"><ele>526.0</ele><time>2026-04-19T11:51:14.995Z</time></trkpt><trkpt lat="44.7886138" lon="9.5018717"><ele>525.5</ele><time>2026-04-19T11:51:15.903Z</time></trkpt><trkpt lat="44.7886868" lon="9.5018152"><ele>525.0</ele><time>2026-04-19T11:51:16.91Z</time></trkpt><trkpt lat="44.788766" lon="9.5017555"><ele>524.5</ele><time>2026-04-19T11:51:17.946Z</time></trkpt><trkpt lat="44.788841" lon="9.5017014"><ele>524.0</ele><time>2026-04-19T11:51:18.915Z</time></trkpt><trkpt lat="44.7889311" lon="9.5016345"><ele>524.0</ele><time>2026-04-19T11:51:20.043Z</time></trkpt><trkpt lat="44.7890972" lon="9.5015394"><ele>524.0</ele><time>2026-04-19T11:51:21.94Z</time></trkpt><trkpt lat="44.7891885" lon="9.5015101"><ele>524.0</ele><time>2026-04-19T11:51:22.93Z</time></trkpt><trkpt lat="44.7892863" lon="9.5015017"><ele>524.0</ele><time>2026-04-19T11:51:23.906Z</time></trkpt><trkpt lat="44.7893964" lon="9.5015099"><ele>521.0</ele><time>2026-04-19T11:51:24.92Z</time></trkpt><trkpt lat="44.7895042" lon="9.5015279"><ele>518.0</ele><time>2026-04-19T11:51:25.942Z</time></trkpt><trkpt lat="44.7895885" lon="9.5015492"><ele>515.0</ele><time>2026-04-19T11:51:26.855Z</time></trkpt><trkpt lat="44.7896835" lon="9.5015914"><ele>512.0</ele><time>2026-04-19T11:51:27.917Z</time></trkpt><trkpt lat="44.789754" lon="9.5016369"><ele>509.0</ele><time>2026-04-19T11:51:28.889Z</time></trkpt><trkpt lat="44.7898302" lon="9.5016649"><ele>508.99999999999994</ele><time>2026-04-19T11:51:29.943Z</time></trkpt><trkpt lat="44.7898949" lon="9.5016605"><ele>509.0</ele><time>2026-04-19T11:51:30.918Z</time></trkpt><trkpt lat="44.7899676" lon="9.5016277"><ele>509.0</ele><time>2026-04-19T11:51:31.892Z</time></trkpt><trkpt lat="44.7900457" lon="9.5015634"><ele>509.0</ele><time>2026-04-19T11:51:32.899Z</time></trkpt><trkpt lat="44.7901268" lon="9.5014682"><ele>508.99999999999994</ele><time>2026-04-19T11:51:33.896Z</time></trkpt><trkpt lat="44.7901992" lon="9.501377"><ele>509.0</ele><time>2026-04-19T11:51:34.906Z</time></trkpt><trkpt lat="44.7902622" lon="9.5012996"><ele>508.16666666666663</ele><time>2026-04-19T11:51:35.866Z</time></trkpt><trkpt lat="44.7903289" lon="9.5012119"><ele>507.3333333333333</ele><time>2026-04-19T11:51:36.88Z</time></trkpt><trkpt lat="44.7903838" lon="9.5011123"><ele>506.5</ele><time>2026-04-19T11:51:37.937Z</time></trkpt><trkpt lat="44.7904297" lon="9.5010189"><ele>505.66666666666663</ele><time>2026-04-19T11:51:38.898Z</time></trkpt><trkpt lat="44.7904738" lon="9.5009221"><ele>504.8333333333333</ele><time>2026-04-19T11:51:39.857Z</time></trkpt><trkpt lat="44.7905311" lon="9.5008308"><ele>504.0</ele><time>2026-04-19T11:51:40.917Z</time></trkpt><trkpt lat="44.7905888" lon="9.5007772"><ele>504.0</ele><time>2026-04-19T11:51:41.834Z</time></trkpt><trkpt lat="44.7906639" lon="9.5007457"><ele>504.0</ele><time>2026-04-19T11:51:42.905Z</time></trkpt><trkpt lat="44.7907402" lon="9.5007441"><ele>504.0</ele><time>2026-04-19T11:51:43.883Z</time></trkpt><trkpt lat="44.7908264" lon="9.5007637"><ele>504.0</ele><time>2026-04-19T11:51:44.911Z</time></trkpt><trkpt lat="44.7909079" lon="9.5007909"><ele>504.0</ele><time>2026-04-19T11:51:45.89Z</time></trkpt><trkpt lat="44.7910151" lon="9.5008078"><ele>504.0</ele><time>2026-04-19T11:51:47.119Z</time></trkpt><trkpt lat="44.7911858" lon="9.5007322"><ele>502.0</ele><time>2026-04-19T11:51:48.909Z</time></trkpt><trkpt lat="44.7912787" lon="9.5006672"><ele>500.0</ele><time>2026-04-19T11:51:49.915Z</time></trkpt><trkpt lat="44.7913685" lon="9.5006148"><ele>498.0</ele><time>2026-04-19T11:51:50.852Z</time></trkpt><trkpt lat="44.7914704" lon="9.5005566"><ele>496.0</ele><time>2026-04-19T11:51:51.88Z</time></trkpt><trkpt lat="44.7915689" lon="9.5005077"><ele>494.0</ele><time>2026-04-19T11:51:52.928Z</time></trkpt><trkpt lat="44.7916566" lon="9.5004899"><ele>493.99999999999994</ele><time>2026-04-19T11:51:53.871Z</time></trkpt><trkpt lat="44.7917436" lon="9.5005014"><ele>494.0</ele><time>2026-04-19T11:51:54.909Z</time></trkpt><trkpt lat="44.7918144" lon="9.50053"><ele>494.0</ele><time>2026-04-19T11:51:55.899Z</time></trkpt><trkpt lat="44.791874" lon="9.5005812"><ele>494.0</ele><time>2026-04-19T11:51:56.897Z</time></trkpt><trkpt lat="44.7919276" lon="9.5006549"><ele>493.99999999999994</ele><time>2026-04-19T11:51:57.938Z</time></trkpt><trkpt lat="44.7919695" lon="9.5007338"><ele>494.0</ele><time>2026-04-19T11:51:58.881Z</time></trkpt><trkpt lat="44.7920083" lon="9.5008488"><ele>493.6</ele><time>2026-04-19T11:51:59.991Z</time></trkpt><trkpt lat="44.7920405" lon="9.5009562"><ele>493.2</ele><time>2026-04-19T11:52:00.903Z</time></trkpt><trkpt lat="44.7920813" lon="9.5010996"><ele>492.80000000000007</ele><time>2026-04-19T11:52:02.026Z</time></trkpt><trkpt lat="44.7921272" lon="9.5012231"><ele>492.40000000000003</ele><time>2026-04-19T11:52:03.005Z</time></trkpt><trkpt lat="44.7921708" lon="9.5013292"><ele>492.0</ele><time>2026-04-19T11:52:03.924Z</time></trkpt><trkpt lat="44.7922109" lon="9.5014366"><ele>492.0</ele><time>2026-04-19T11:52:04.903Z</time></trkpt><trkpt lat="44.7922478" lon="9.5015323"><ele>492.0</ele><time>2026-04-19T11:52:05.878Z</time></trkpt><trkpt lat="44.7922755" lon="9.5016356"><ele>492.0</ele><time>2026-04-19T11:52:06.9Z</time></trkpt><trkpt lat="44.7922814" lon="9.5017384"><ele>492.0</ele><time>2026-04-19T11:52:07.891Z</time></trkpt><trkpt lat="44.792266" lon="9.5018494"><ele>492.0</ele><time>2026-04-19T11:52:08.989Z</time></trkpt><trkpt lat="44.7922617" lon="9.5020382"><ele>492.0</ele><time>2026-04-19T11:52:10.904Z</time></trkpt><trkpt lat="44.7922841" lon="9.5021422"><ele>490.0</ele><time>2026-04-19T11:52:11.932Z</time></trkpt><trkpt lat="44.7923173" lon="9.5022367"><ele>488.0</ele><time>2026-04-19T11:52:12.914Z</time></trkpt><trkpt lat="44.7923564" lon="9.5023345"><ele>486.0</ele><time>2026-04-19T11:52:13.902Z</time></trkpt><trkpt lat="44.792398" lon="9.5024361"><ele>484.0</ele><time>2026-04-19T11:52:14.897Z</time></trkpt><trkpt lat="44.7924396" lon="9.502529"><ele>482.0</ele><time>2026-04-19T11:52:15.883Z</time></trkpt><trkpt lat="44.7924811" lon="9.5026243"><ele>480.0</ele><time>2026-04-19T11:52:16.864Z</time></trkpt><trkpt lat="44.7925299" lon="9.5027211"><ele>480.0</ele><time>2026-04-19T11:52:17.833Z</time></trkpt><trkpt lat="44.7925854" lon="9.5028315"><ele>480.0</ele><time>2026-04-19T11:52:18.901Z</time></trkpt><trkpt lat="44.7926359" lon="9.5029279"><ele>480.0</ele><time>2026-04-19T11:52:19.843Z</time></trkpt><trkpt lat="44.7926992" lon="9.5030426"><ele>480.0</ele><time>2026-04-19T11:52:21.025Z</time></trkpt><trkpt lat="44.7927885" lon="9.5032262"><ele>480.0</ele><time>2026-04-19T11:52:22.857Z</time></trkpt><trkpt lat="44.7928389" lon="9.5033346"><ele>482.33333333333337</ele><time>2026-04-19T11:52:23.863Z</time></trkpt><trkpt lat="44.7928905" lon="9.5034741"><ele>484.6666666666667</ele><time>2026-04-19T11:52:24.984Z</time></trkpt><trkpt lat="44.7929752" lon="9.5037293"><ele>487.0</ele><time>2026-04-19T11:52:27.067Z</time></trkpt><trkpt lat="44.7930349" lon="9.5039259"><ele>484.1666666666667</ele><time>2026-04-19T11:52:28.873Z</time></trkpt><trkpt lat="44.7930679" lon="9.5040165"><ele>481.33333333333337</ele><time>2026-04-19T11:52:29.898Z</time></trkpt><trkpt lat="44.7931075" lon="9.5041102"><ele>478.5</ele><time>2026-04-19T11:52:31.084Z</time></trkpt><trkpt lat="44.7932029" lon="9.5041742"><ele>475.66666666666663</ele><time>2026-04-19T11:52:32.847Z</time></trkpt><trkpt lat="44.7932766" lon="9.5041961"><ele>472.8333333333333</ele><time>2026-04-19T11:52:33.893Z</time></trkpt><trkpt lat="44.7933383" lon="9.5042305"><ele>470.0</ele><time>2026-04-19T11:52:34.883Z</time></trkpt><trkpt lat="44.7933911" lon="9.5042975"><ele>470.0</ele><time>2026-04-19T11:52:35.833Z</time></trkpt><trkpt lat="44.7934394" lon="9.5043954"><ele>470.0</ele><time>2026-04-19T11:52:36.833Z</time></trkpt><trkpt lat="44.7934725" lon="9.5045149"><ele>470.0</ele><time>2026-04-19T11:52:37.869Z</time></trkpt><trkpt lat="44.7935235" lon="9.5046417"><ele>470.0</ele><time>2026-04-19T11:52:38.956Z</time></trkpt><trkpt lat="44.7936583" lon="9.5048822"><ele>467.0</ele><time>2026-04-19T11:52:40.915Z</time></trkpt><trkpt lat="44.7937132" lon="9.5050204"><ele>464.0</ele><time>2026-04-19T11:52:41.883Z</time></trkpt><trkpt lat="44.7937678" lon="9.5051923"><ele>461.0</ele><time>2026-04-19T11:52:42.98Z</time></trkpt><trkpt lat="44.7938003" lon="9.5053268"><ele>458.0</ele><time>2026-04-19T11:52:43.892Z</time></trkpt><trkpt lat="44.793821" lon="9.5054774"><ele>456.0</ele><time>2026-04-19T11:52:44.905Z</time></trkpt><trkpt lat="44.793835" lon="9.5056177"><ele>454.0</ele><time>2026-04-19T11:52:45.931Z</time></trkpt><trkpt lat="44.7938358" lon="9.5057377"><ele>452.0</ele><time>2026-04-19T11:52:46.887Z</time></trkpt><trkpt lat="44.793829" lon="9.505905"><ele>450.0</ele><time>2026-04-19T11:52:48.059Z</time></trkpt><trkpt lat="44.7938135" lon="9.5061657"><ele>447.6</ele><time>2026-04-19T11:52:49.939Z</time></trkpt><trkpt lat="44.7937857" lon="9.5064426"><ele>445.2</ele><time>2026-04-19T11:52:51.895Z</time></trkpt><trkpt lat="44.7937633" lon="9.5065578"><ele>442.79999999999995</ele><time>2026-04-19T11:52:52.907Z</time></trkpt><trkpt lat="44.7937453" lon="9.5066683"><ele>440.4</ele><time>2026-04-19T11:52:53.866Z</time></trkpt><trkpt lat="44.7937346" lon="9.5067773"><ele>438.0</ele><time>2026-04-19T11:52:54.891Z</time></trkpt><trkpt lat="44.7937319" lon="9.5068836"><ele>438.0</ele><time>2026-04-19T11:52:55.969Z</time></trkpt><trkpt lat="44.793725" lon="9.5070515"><ele>437.99999999999994</ele><time>2026-04-19T11:52:57.935Z</time></trkpt><trkpt lat="44.793692" lon="9.5071802"><ele>437.99999999999994</ele><time>2026-04-19T11:52:59.901Z</time></trkpt><trkpt lat="44.7936383" lon="9.507294"><ele>438.0</ele><time>2026-04-19T11:53:02.038Z</time></trkpt><trkpt lat="44.7935826" lon="9.5073834"><ele>438.0</ele><time>2026-04-19T11:53:03.919Z</time></trkpt><trkpt lat="44.7935483" lon="9.5074852"><ele>435.5</ele><time>2026-04-19T11:53:05.889Z</time></trkpt><trkpt lat="44.7935412" lon="9.5075894"><ele>433.0</ele><time>2026-04-19T11:53:07.923Z</time></trkpt><trkpt lat="44.7935476" lon="9.5076998"><ele>430.5</ele><time>2026-04-19T11:53:10.868Z</time></trkpt><trkpt lat="44.7935525" lon="9.5077997"><ele>428.0</ele><time>2026-04-19T11:53:13.916Z</time></trkpt><trkpt lat="44.7935558" lon="9.5078913"><ele>425.5</ele><time>2026-04-19T11:53:16.152Z</time></trkpt><trkpt lat="44.7935494" lon="9.5079909"><ele>423.0</ele><time>2026-04-19T11:53:17.864Z</time></trkpt><trkpt lat="44.7935062" lon="9.5081175"><ele>423.6666666666667</ele><time>2026-04-19T11:53:19.914Z</time></trkpt><trkpt lat="44.7934033" lon="9.5082077"><ele>424.33333333333337</ele><time>2026-04-19T11:53:21.887Z</time></trkpt><trkpt lat="44.7933329" lon="9.5082552"><ele>425.0</ele><time>2026-04-19T11:53:22.978Z</time></trkpt><trkpt lat="44.7932745" lon="9.5083101"><ele>425.6666666666667</ele><time>2026-04-19T11:53:23.914Z</time></trkpt><trkpt lat="44.7932277" lon="9.5083805"><ele>426.33333333333337</ele><time>2026-04-19T11:53:24.925Z</time></trkpt><trkpt lat="44.7931887" lon="9.5084595"><ele>427.0</ele><time>2026-04-19T11:53:25.868Z</time></trkpt><trkpt lat="44.7931574" lon="9.508543"><ele>427.0</ele><time>2026-04-19T11:53:26.903Z</time></trkpt><trkpt lat="44.7931376" lon="9.5086304"><ele>427.0</ele><time>2026-04-19T11:53:27.925Z</time></trkpt><trkpt lat="44.793114" lon="9.5087198"><ele>427.0</ele><time>2026-04-19T11:53:28.895Z</time></trkpt><trkpt lat="44.7930987" lon="9.50881"><ele>427.0</ele><time>2026-04-19T11:53:29.904Z</time></trkpt><trkpt lat="44.7930889" lon="9.5089041"><ele>427.0</ele><time>2026-04-19T11:53:30.937Z</time></trkpt><trkpt lat="44.793097" lon="9.5090084"><ele>427.0</ele><time>2026-04-19T11:53:32.021Z</time></trkpt><trkpt lat="44.7931231" lon="9.509095"><ele>427.0</ele><time>2026-04-19T11:53:32.929Z</time></trkpt><trkpt lat="44.7931608" lon="9.5091891"><ele>425.7142857142857</ele><time>2026-04-19T11:53:33.915Z</time></trkpt><trkpt lat="44.7931971" lon="9.509284"><ele>424.42857142857144</ele><time>2026-04-19T11:53:34.917Z</time></trkpt><trkpt lat="44.7932261" lon="9.5093741"><ele>423.1428571428571</ele><time>2026-04-19T11:53:35.899Z</time></trkpt><trkpt lat="44.7932536" lon="9.5094659"><ele>421.8571428571429</ele><time>2026-04-19T11:53:36.898Z</time></trkpt><trkpt lat="44.7932855" lon="9.5095716"><ele>420.57142857142856</ele><time>2026-04-19T11:53:37.944Z</time></trkpt><trkpt lat="44.7933166" lon="9.5096768"><ele>419.2857142857143</ele><time>2026-04-19T11:53:38.994Z</time></trkpt><trkpt lat="44.7933464" lon="9.5097553"><ele>418.0</ele><time>2026-04-19T11:53:39.915Z</time></trkpt><trkpt lat="44.7933935" lon="9.5098377"><ele>415.5</ele><time>2026-04-19T11:53:40.908Z</time></trkpt><trkpt lat="44.7934641" lon="9.5099138"><ele>413.0</ele><time>2026-04-19T11:53:42.091Z</time></trkpt><trkpt lat="44.7936104" lon="9.509993"><ele>410.5</ele><time>2026-04-19T11:53:43.917Z</time></trkpt><trkpt lat="44.7937318" lon="9.5100374"><ele>408.0</ele><time>2026-04-19T11:53:45.556Z</time></trkpt><trkpt lat="44.7938326" lon="9.5100079"><ele>408.3333333333333</ele><time>2026-04-19T11:53:47.556Z</time></trkpt><trkpt lat="44.7938985" lon="9.5098782"><ele>408.66666666666663</ele><time>2026-04-19T11:53:49.898Z</time></trkpt><trkpt lat="44.7939342" lon="9.5097849"><ele>409.0</ele><time>2026-04-19T11:53:50.953Z</time></trkpt><trkpt lat="44.7939664" lon="9.5096943"><ele>409.3333333333333</ele><time>2026-04-19T11:53:51.86Z</time></trkpt><trkpt lat="44.7940146" lon="9.5095849"><ele>409.66666666666663</ele><time>2026-04-19T11:53:52.917Z</time></trkpt><trkpt lat="44.7940503" lon="9.5094844"><ele>410.0</ele><time>2026-04-19T11:53:53.869Z</time></trkpt><trkpt lat="44.7940886" lon="9.5093677"><ele>410.0</ele><time>2026-04-19T11:53:54.928Z</time></trkpt><trkpt lat="44.7941235" lon="9.5092611"><ele>410.0</ele><time>2026-04-19T11:53:55.867Z</time></trkpt><trkpt lat="44.7941612" lon="9.5091404"><ele>410.0</ele><time>2026-04-19T11:53:56.923Z</time></trkpt><trkpt lat="44.7941985" lon="9.5090248"><ele>410.0</ele><time>2026-04-19T11:53:57.938Z</time></trkpt><trkpt lat="44.794241" lon="9.5089062"><ele>410.0</ele><time>2026-04-19T11:53:59.02Z</time></trkpt><trkpt lat="44.7943318" lon="9.5087153"><ele>408.3333333333333</ele><time>2026-04-19T11:54:00.907Z</time></trkpt><trkpt lat="44.7943909" lon="9.5086152"><ele>406.66666666666663</ele><time>2026-04-19T11:54:01.948Z</time></trkpt><trkpt lat="44.7944493" lon="9.508526"><ele>405.0</ele><time>2026-04-19T11:54:02.936Z</time></trkpt><trkpt lat="44.7945063" lon="9.5084476"><ele>403.33333333333337</ele><time>2026-04-19T11:54:03.88Z</time></trkpt><trkpt lat="44.7945751" lon="9.5083654"><ele>401.6666666666667</ele><time>2026-04-19T11:54:04.949Z</time></trkpt><trkpt lat="44.7946363" lon="9.5083036"><ele>400.0</ele><time>2026-04-19T11:54:05.91Z</time></trkpt><trkpt lat="44.7947022" lon="9.5082522"><ele>400.00000000000006</ele><time>2026-04-19T11:54:06.931Z</time></trkpt><trkpt lat="44.7947695" lon="9.5082058"><ele>400.0</ele><time>2026-04-19T11:54:08.001Z</time></trkpt><trkpt lat="44.79483" lon="9.5081657"><ele>400.0</ele><time>2026-04-19T11:54:08.939Z</time></trkpt><trkpt lat="44.7949079" lon="9.5081153"><ele>400.0</ele><time>2026-04-19T11:54:10.89Z</time></trkpt><trkpt lat="44.7950178" lon="9.5080788"><ele>400.00000000000006</ele><time>2026-04-19T11:54:51.939Z</time></trkpt><trkpt lat="44.7950857" lon="9.5081351"><ele>400.0</ele><time>2026-04-19T11:54:53.993Z</time></trkpt><trkpt lat="44.7951315" lon="9.5082224"><ele>400.6</ele><time>2026-04-19T11:54:55.128Z</time></trkpt><trkpt lat="44.7952387" lon="9.5083777"><ele>401.2</ele><time>2026-04-19T11:54:56.882Z</time></trkpt><trkpt lat="44.7953056" lon="9.5084506"><ele>401.79999999999995</ele><time>2026-04-19T11:54:57.85Z</time></trkpt><trkpt lat="44.795376" lon="9.5085253"><ele>402.4</ele><time>2026-04-19T11:54:58.851Z</time></trkpt><trkpt lat="44.7954561" lon="9.5085902"><ele>403.0</ele><time>2026-04-19T11:54:59.909Z</time></trkpt><trkpt lat="44.7955427" lon="9.5086654"><ele>400.4</ele><time>2026-04-19T11:55:00.942Z</time></trkpt><trkpt lat="44.7956275" lon="9.5087466"><ele>397.79999999999995</ele><time>2026-04-19T11:55:02.015Z</time></trkpt><trkpt lat="44.7957049" lon="9.5088238"><ele>395.2</ele><time>2026-04-19T11:55:02.995Z</time></trkpt><trkpt lat="44.7957923" lon="9.5089123"><ele>392.6</ele><time>2026-04-19T11:55:04.105Z</time></trkpt><trkpt lat="44.7958849" lon="9.5089887"><ele>390.0</ele><time>2026-04-19T11:55:05.133Z</time></trkpt><trkpt lat="44.795972" lon="9.5090596"><ele>390.0</ele><time>2026-04-19T11:55:06.075Z</time></trkpt><trkpt lat="44.7960672" lon="9.5091148"><ele>390.0</ele><time>2026-04-19T11:55:07.011Z</time></trkpt><trkpt lat="44.7961631" lon="9.5091675"><ele>390.0</ele><time>2026-04-19T11:55:08.011Z</time></trkpt><trkpt lat="44.7962577" lon="9.5092224"><ele>390.0</ele><time>2026-04-19T11:55:09.06Z</time></trkpt><trkpt lat="44.7963222" lon="9.5092755"><ele>390.0</ele><time>2026-04-19T11:55:09.96Z</time></trkpt><trkpt lat="44.7963898" lon="9.5093558"><ele>390.0</ele><time>2026-04-19T11:55:11.039Z</time></trkpt><trkpt lat="44.7964366" lon="9.5094776"><ele>390.0</ele><time>2026-04-19T11:55:12.024Z</time></trkpt><trkpt lat="44.7964735" lon="9.5096265"><ele>390.0</ele><time>2026-04-19T11:55:13.027Z</time></trkpt><trkpt lat="44.7965158" lon="9.5098173"><ele>390.0</ele><time>2026-04-19T11:55:14.138Z</time></trkpt><trkpt lat="44.7965738" lon="9.5101402"><ele>387.25</ele><time>2026-04-19T11:55:16.021Z</time></trkpt><trkpt lat="44.7965941" lon="9.5103059"><ele>384.5</ele><time>2026-04-19T11:55:16.986Z</time></trkpt><trkpt lat="44.796611" lon="9.5105128"><ele>381.75</ele><time>2026-04-19T11:55:17.994Z</time></trkpt><trkpt lat="44.796617" lon="9.510714"><ele>379.0</ele><time>2026-04-19T11:55:19.041Z</time></trkpt><trkpt lat="44.796609" lon="9.5108907"><ele>376.79999999999995</ele><time>2026-04-19T11:55:20.057Z</time></trkpt><trkpt lat="44.7965863" lon="9.5110347"><ele>374.59999999999997</ele><time>2026-04-19T11:55:21.031Z</time></trkpt><trkpt lat="44.7965513" lon="9.5111474"><ele>372.4</ele><time>2026-04-19T11:55:22.002Z</time></trkpt><trkpt lat="44.7965258" lon="9.5112534"><ele>370.2</ele><time>2026-04-19T11:55:23.045Z</time></trkpt><trkpt lat="44.796532" lon="9.511419"><ele>368.0</ele><time>2026-04-19T11:55:25.109Z</time></trkpt><trkpt lat="44.7965652" lon="9.5114983"><ele>365.59999999999997</ele><time>2026-04-19T11:55:26.047Z</time></trkpt><trkpt lat="44.7966217" lon="9.5115624"><ele>363.2</ele><time>2026-04-19T11:55:26.996Z</time></trkpt><trkpt lat="44.796707" lon="9.5115975"><ele>360.8</ele><time>2026-04-19T11:55:28.101Z</time></trkpt><trkpt lat="44.7968022" lon="9.5115755"><ele>358.4</ele><time>2026-04-19T11:55:29.171Z</time></trkpt><trkpt lat="44.7968865" lon="9.5115159"><ele>356.0</ele><time>2026-04-19T11:55:30.093Z</time></trkpt><trkpt lat="44.7969889" lon="9.51143"><ele>356.75</ele><time>2026-04-19T11:55:31.008Z</time></trkpt><trkpt lat="44.7970999" lon="9.511335"><ele>357.5</ele><time>2026-04-19T11:55:31.985Z</time></trkpt><trkpt lat="44.7972061" lon="9.5112412"><ele>358.25</ele><time>2026-04-19T11:55:32.894Z</time></trkpt><trkpt lat="44.7973254" lon="9.5111391"><ele>359.0</ele><time>2026-04-19T11:55:33.89Z</time></trkpt><trkpt lat="44.7974547" lon="9.5110453"><ele>359.0</ele><time>2026-04-19T11:55:34.95Z</time></trkpt><trkpt lat="44.7975776" lon="9.5109736"><ele>359.0</ele><time>2026-04-19T11:55:35.943Z</time></trkpt><trkpt lat="44.7977282" lon="9.51091"><ele>359.0</ele><time>2026-04-19T11:55:37.218Z</time></trkpt><trkpt lat="44.7978026" lon="9.5108736"><ele>359.0</ele><time>2026-04-19T11:55:37.925Z</time></trkpt><trkpt lat="44.7979175" lon="9.5108023"><ele>355.25</ele><time>2026-04-19T11:55:38.988Z</time></trkpt><trkpt lat="44.7980294" lon="9.5107313"><ele>351.5</ele><time>2026-04-19T11:55:39.893Z</time></trkpt><trkpt lat="44.7981556" lon="9.5106482"><ele>347.75</ele><time>2026-04-19T11:55:40.888Z</time></trkpt><trkpt lat="44.7982861" lon="9.5105569"><ele>344.0</ele><time>2026-04-19T11:55:41.89Z</time></trkpt><trkpt lat="44.7984104" lon="9.5104627"><ele>341.79999999999995</ele><time>2026-04-19T11:55:42.91Z</time></trkpt><trkpt lat="44.7985189" lon="9.5103796"><ele>339.59999999999997</ele><time>2026-04-19T11:55:43.859Z</time></trkpt><trkpt lat="44.7986079" lon="9.5103008"><ele>337.4</ele><time>2026-04-19T11:55:44.883Z</time></trkpt><trkpt lat="44.7986867" lon="9.5102238"><ele>335.2</ele><time>2026-04-19T11:55:45.963Z</time></trkpt><trkpt lat="44.798742" lon="9.5101536"><ele>333.0</ele><time>2026-04-19T11:55:46.911Z</time></trkpt><trkpt lat="44.798779" lon="9.5100477"><ele>333.0</ele><time>2026-04-19T11:55:47.887Z</time></trkpt><trkpt lat="44.7988139" lon="9.5099097"><ele>333.0</ele><time>2026-04-19T11:55:48.894Z</time></trkpt><trkpt lat="44.7988707" lon="9.5097223"><ele>333.0</ele><time>2026-04-19T11:55:50.025Z</time></trkpt><trkpt lat="44.7989593" lon="9.5095084"><ele>333.0</ele><time>2026-04-19T11:55:51.902Z</time></trkpt><trkpt lat="44.7990322" lon="9.5094494"><ele>333.0</ele><time>2026-04-19T11:55:53.884Z</time></trkpt><trkpt lat="44.7990926" lon="9.5094943"><ele>333.0</ele><time>2026-04-19T11:55:55.893Z</time></trkpt><trkpt lat="44.7991308" lon="9.5095825"><ele>333.0</ele><time>2026-04-19T11:55:57.876Z</time></trkpt><trkpt lat="44.7991484" lon="9.5096764"><ele>333.0</ele><time>2026-04-19T11:55:59.905Z</time></trkpt><trkpt lat="44.7991621" lon="9.5097782"><ele>333.0</ele><time>2026-04-19T11:56:02.046Z</time></trkpt><trkpt lat="44.7991752" lon="9.5099294"><ele>333.0</ele><time>2026-04-19T11:56:03.939Z</time></trkpt><trkpt lat="44.7991726" lon="9.510034"><ele>333.0</ele><time>2026-04-19T11:56:04.847Z</time></trkpt><trkpt lat="44.7991816" lon="9.5101637"><ele>333.0</ele><time>2026-04-19T11:56:05.877Z</time></trkpt><trkpt lat="44.7991805" lon="9.5103076"><ele>333.0</ele><time>2026-04-19T11:56:06.866Z</time></trkpt><trkpt lat="44.7991831" lon="9.5104365"><ele>333.0</ele><time>2026-04-19T11:56:07.85Z</time></trkpt><trkpt lat="44.7991698" lon="9.5105641"><ele>333.0</ele><time>2026-04-19T11:56:08.858Z</time></trkpt><trkpt lat="44.7991386" lon="9.5107162"><ele>331.0</ele><time>2026-04-19T11:56:10.083Z</time></trkpt><trkpt lat="44.7990473" lon="9.510924"><ele>329.0</ele><time>2026-04-19T11:56:11.929Z</time></trkpt><trkpt lat="44.7989894" lon="9.5110356"><ele>327.0</ele><time>2026-04-19T11:56:12.913Z</time></trkpt><trkpt lat="44.7989261" lon="9.5111442"><ele>325.0</ele><time>2026-04-19T11:56:13.878Z</time></trkpt><trkpt lat="44.7988725" lon="9.5112567"><ele>322.2</ele><time>2026-04-19T11:56:14.853Z</time></trkpt><trkpt lat="44.7988057" lon="9.5113735"><ele>319.4</ele><time>2026-04-19T11:56:15.857Z</time></trkpt><trkpt lat="44.7987436" lon="9.5114884"><ele>316.6</ele><time>2026-04-19T11:56:16.867Z</time></trkpt><trkpt lat="44.7986842" lon="9.5116116"><ele>313.8</ele><time>2026-04-19T11:56:18Z</time></trkpt><trkpt lat="44.7986419" lon="9.5117052"><ele>311.0</ele><time>2026-04-19T11:56:18.922Z</time></trkpt><trkpt lat="44.7985961" lon="9.5117908"><ele>311.0</ele><time>2026-04-19T11:56:19.956Z</time></trkpt><trkpt lat="44.7985435" lon="9.511923"><ele>311.0</ele><time>2026-04-19T11:56:21.951Z</time></trkpt><trkpt lat="44.7985491" lon="9.512045"><ele>311.0</ele><time>2026-04-19T11:56:23.931Z</time></trkpt><trkpt lat="44.7986213" lon="9.5120807"><ele>311.0</ele><time>2026-04-19T11:56:25.886Z</time></trkpt><trkpt lat="44.7987041" lon="9.5119537"><ele>311.0</ele><time>2026-04-19T11:56:27.885Z</time></trkpt><trkpt lat="44.7987325" lon="9.5118512"><ele>311.0</ele><time>2026-04-19T11:56:28.866Z</time></trkpt><trkpt lat="44.7987804" lon="9.5117404"><ele>311.0</ele><time>2026-04-19T11:56:29.861Z</time></trkpt><trkpt lat="44.7988466" lon="9.5116459"><ele>311.0</ele><time>2026-04-19T11:56:30.893Z</time></trkpt><trkpt lat="44.7989293" lon="9.5115467"><ele>311.0</ele><time>2026-04-19T11:56:31.929Z</time></trkpt><trkpt lat="44.7990177" lon="9.5114521"><ele>311.0</ele><time>2026-04-19T11:56:33.056Z</time></trkpt><trkpt lat="44.7991907" lon="9.5113257"><ele>308.75</ele><time>2026-04-19T11:56:34.971Z</time></trkpt><trkpt lat="44.7993926" lon="9.5112367"><ele>306.5</ele><time>2026-04-19T11:56:36.912Z</time></trkpt><trkpt lat="44.7994895" lon="9.5112044"><ele>304.25</ele><time>2026-04-19T11:56:37.9Z</time></trkpt><trkpt lat="44.799581" lon="9.5111775"><ele>302.0</ele><time>2026-04-19T11:56:38.934Z</time></trkpt><trkpt lat="44.7996678" lon="9.511149"><ele>302.0</ele><time>2026-04-19T11:56:39.916Z</time></trkpt><trkpt lat="44.7997363" lon="9.5110908"><ele>302.0</ele><time>2026-04-19T11:56:40.905Z</time></trkpt><trkpt lat="44.79978" lon="9.5110182"><ele>302.0</ele><time>2026-04-19T11:56:41.908Z</time></trkpt><trkpt lat="44.7998093" lon="9.5109358"><ele>302.0</ele><time>2026-04-19T11:56:42.933Z</time></trkpt><trkpt lat="44.7998278" lon="9.5108133"><ele>302.0</ele><time>2026-04-19T11:56:43.875Z</time></trkpt><trkpt lat="44.7998463" lon="9.5106594"><ele>302.0</ele><time>2026-04-19T11:56:44.891Z</time></trkpt><trkpt lat="44.7998674" lon="9.5105196"><ele>303.0</ele><time>2026-04-19T11:56:45.831Z</time></trkpt><trkpt lat="44.7999097" lon="9.5103818"><ele>304.0</ele><time>2026-04-19T11:56:46.894Z</time></trkpt><trkpt lat="44.7999622" lon="9.5102791"><ele>305.0</ele><time>2026-04-19T11:56:47.849Z</time></trkpt><trkpt lat="44.8000066" lon="9.5101608"><ele>306.0</ele><time>2026-04-19T11:56:48.889Z</time></trkpt><trkpt lat="44.8000506" lon="9.5100322"><ele>307.0</ele><time>2026-04-19T11:56:49.904Z</time></trkpt><trkpt lat="44.8000931" lon="9.509931"><ele>303.0</ele><time>2026-04-19T11:56:50.829Z</time></trkpt><trkpt lat="44.8001681" lon="9.5098208"><ele>299.0</ele><time>2026-04-19T11:56:52.017Z</time></trkpt><trkpt lat="44.8003416" lon="9.509728"><ele>295.0</ele><time>2026-04-19T11:56:53.851Z</time></trkpt><trkpt lat="44.800466" lon="9.5097262"><ele>291.0</ele><time>2026-04-19T11:56:54.983Z</time></trkpt><trkpt lat="44.8006793" lon="9.5097499"><ele>291.0</ele><time>2026-04-19T11:56:56.916Z</time></trkpt><trkpt lat="44.8007725" lon="9.5097303"><ele>291.0</ele><time>2026-04-19T11:56:57.887Z</time></trkpt><trkpt lat="44.8008469" lon="9.5096755"><ele>291.0</ele><time>2026-04-19T11:56:58.871Z</time></trkpt><trkpt lat="44.8009008" lon="9.5095854"><ele>291.0</ele><time>2026-04-19T11:56:59.941Z</time></trkpt><trkpt lat="44.8009274" lon="9.5094927"><ele>291.0</ele><time>2026-04-19T11:57:00.89Z</time></trkpt><trkpt lat="44.8009631" lon="9.5093469"><ele>291.0</ele><time>2026-04-19T11:57:01.883Z</time></trkpt><trkpt lat="44.8010062" lon="9.5091914"><ele>290.0</ele><time>2026-04-19T11:57:02.922Z</time></trkpt><trkpt lat="44.8010536" lon="9.5090604"><ele>289.0</ele><time>2026-04-19T11:57:03.897Z</time></trkpt><trkpt lat="44.8011055" lon="9.5089553"><ele>288.0</ele><time>2026-04-19T11:57:04.869Z</time></trkpt><trkpt lat="44.8011549" lon="9.5088738"><ele>287.0</ele><time>2026-04-19T11:57:05.861Z</time></trkpt><trkpt lat="44.8012085" lon="9.5088053"><ele>286.0</ele><time>2026-04-19T11:57:06.945Z</time></trkpt><trkpt lat="44.8012962" lon="9.5087916"><ele>285.0</ele><time>2026-04-19T11:57:08.922Z</time></trkpt><trkpt lat="44.8013449" lon="9.5088719"><ele>285.0</ele><time>2026-04-19T11:57:09.907Z</time></trkpt><trkpt lat="44.8013712" lon="9.5089733"><ele>285.0</ele><time>2026-04-19T11:57:10.895Z</time></trkpt><trkpt lat="44.8014024" lon="9.5090535"><ele>285.0</ele><time>2026-04-19T11:57:11.906Z</time></trkpt><trkpt lat="44.8015549" lon="9.5091081"><ele>285.0</ele><time>2026-04-19T11:57:14.018Z</time></trkpt><trkpt lat="44.801638" lon="9.5090835"><ele>285.0</ele><time>2026-04-19T11:57:14.952Z</time></trkpt><trkpt lat="44.801737" lon="9.509043"><ele>285.4</ele><time>2026-04-19T11:57:15.875Z</time></trkpt><trkpt lat="44.801838" lon="9.5089903"><ele>285.8</ele><time>2026-04-19T11:57:16.947Z</time></trkpt><trkpt lat="44.8019223" lon="9.5089164"><ele>286.2</ele><time>2026-04-19T11:57:17.883Z</time></trkpt><trkpt lat="44.8020042" lon="9.5088323"><ele>286.6</ele><time>2026-04-19T11:57:18.864Z</time></trkpt><trkpt lat="44.8020947" lon="9.5087264"><ele>287.0</ele><time>2026-04-19T11:57:19.942Z</time></trkpt><trkpt lat="44.8021772" lon="9.5086344"><ele>287.0</ele><time>2026-04-19T11:57:20.936Z</time></trkpt><trkpt lat="44.8022517" lon="9.5085856"><ele>287.0</ele><time>2026-04-19T11:57:21.967Z</time></trkpt><trkpt lat="44.8023307" lon="9.5085455"><ele>287.0</ele><time>2026-04-19T11:57:22.88Z</time></trkpt><trkpt lat="44.8024315" lon="9.5085025"><ele>287.0</ele><time>2026-04-19T11:57:23.895Z</time></trkpt><trkpt lat="44.8025353" lon="9.50848"><ele>287.0</ele><time>2026-04-19T11:57:24.862Z</time></trkpt><trkpt lat="44.8026544" lon="9.5084809"><ele>283.8</ele><time>2026-04-19T11:57:25.882Z</time></trkpt><trkpt lat="44.8027542" lon="9.5085086"><ele>280.6</ele><time>2026-04-19T11:57:26.908Z</time></trkpt><trkpt lat="44.8028566" lon="9.5085329"><ele>277.40000000000003</ele><time>2026-04-19T11:57:27.881Z</time></trkpt><trkpt lat="44.8029429" lon="9.5085376"><ele>274.2</ele><time>2026-04-19T11:57:28.936Z</time></trkpt><trkpt lat="44.8030527" lon="9.5084373"><ele>271.0</ele><time>2026-04-19T11:57:30.883Z</time></trkpt><trkpt lat="44.8031209" lon="9.5083248"><ele>271.0</ele><time>2026-04-19T11:57:31.895Z</time></trkpt><trkpt lat="44.8031845" lon="9.508231"><ele>271.0</ele><time>2026-04-19T11:57:32.841Z</time></trkpt><trkpt lat="44.8032813" lon="9.5081339"><ele>271.0</ele><time>2026-04-19T11:57:33.848Z</time></trkpt><trkpt lat="44.8033792" lon="9.5080586"><ele>271.0</ele><time>2026-04-19T11:57:34.917Z</time></trkpt><trkpt lat="44.8034889" lon="9.5080264"><ele>271.0</ele><time>2026-04-19T11:57:36.909Z</time></trkpt><trkpt lat="44.8035737" lon="9.5081298"><ele>269.5</ele><time>2026-04-19T11:57:38.838Z</time></trkpt><trkpt lat="44.8036218" lon="9.5082427"><ele>268.0</ele><time>2026-04-19T11:57:40.844Z</time></trkpt><trkpt lat="44.8036594" lon="9.5083222"><ele>266.5</ele><time>2026-04-19T11:57:42.92Z</time></trkpt><trkpt lat="44.8037239" lon="9.5083648"><ele>265.0</ele><time>2026-04-19T11:57:44.89Z</time></trkpt><trkpt lat="44.803808" lon="9.5083858"><ele>263.5</ele><time>2026-04-19T11:57:45.918Z</time></trkpt><trkpt lat="44.8039173" lon="9.5083775"><ele>262.0</ele><time>2026-04-19T11:57:46.882Z</time></trkpt><trkpt lat="44.8040574" lon="9.5083418"><ele>262.0</ele><time>2026-04-19T11:57:47.874Z</time></trkpt><trkpt lat="44.8042171" lon="9.5083057"><ele>262.0</ele><time>2026-04-19T11:57:48.911Z</time></trkpt><trkpt lat="44.8043573" lon="9.5083129"><ele>262.0</ele><time>2026-04-19T11:57:49.89Z</time></trkpt><trkpt lat="44.8044937" lon="9.5083727"><ele>262.0</ele><time>2026-04-19T11:57:50.979Z</time></trkpt><trkpt lat="44.8046004" lon="9.5084649"><ele>263.25</ele><time>2026-04-19T11:57:51.88Z</time></trkpt><trkpt lat="44.8047288" lon="9.5085888"><ele>264.5</ele><time>2026-04-19T11:57:52.967Z</time></trkpt><trkpt lat="44.8048357" lon="9.5086752"><ele>265.75</ele><time>2026-04-19T11:57:53.911Z</time></trkpt><trkpt lat="44.8049427" lon="9.508733"><ele>267.0</ele><time>2026-04-19T11:57:54.932Z</time></trkpt><trkpt lat="44.8050517" lon="9.5087517"><ele>268.0</ele><time>2026-04-19T11:57:55.854Z</time></trkpt><trkpt lat="44.8051796" lon="9.5087383"><ele>269.0</ele><time>2026-04-19T11:57:56.856Z</time></trkpt><trkpt lat="44.8053099" lon="9.5087116"><ele>270.0</ele><time>2026-04-19T11:57:57.888Z</time></trkpt><trkpt lat="44.8054374" lon="9.5086925"><ele>271.0</ele><time>2026-04-19T11:57:58.853Z</time></trkpt><trkpt lat="44.8055785" lon="9.5086842"><ele>271.0</ele><time>2026-04-19T11:57:59.875Z</time></trkpt><trkpt lat="44.8057304" lon="9.508688"><ele>271.0</ele><time>2026-04-19T11:58:00.95Z</time></trkpt><trkpt lat="44.805874" lon="9.5086803"><ele>271.0</ele><time>2026-04-19T11:58:01.959Z</time></trkpt><trkpt lat="44.8059968" lon="9.5086455"><ele>271.0</ele><time>2026-04-19T11:58:02.889Z</time></trkpt><trkpt lat="44.8061234" lon="9.5085891"><ele>270.0</ele><time>2026-04-19T11:58:03.838Z</time></trkpt><trkpt lat="44.8062541" lon="9.5085137"><ele>269.0</ele><time>2026-04-19T11:58:04.91Z</time></trkpt><trkpt lat="44.8063799" lon="9.5084682"><ele>268.0</ele><time>2026-04-19T11:58:05.89Z</time></trkpt><trkpt lat="44.8065222" lon="9.5084325"><ele>267.0</ele><time>2026-04-19T11:58:07.017Z</time></trkpt><trkpt lat="44.8067542" lon="9.508409"><ele>267.4</ele><time>2026-04-19T11:58:08.89Z</time></trkpt><trkpt lat="44.8068576" lon="9.5084075"><ele>267.79999999999995</ele><time>2026-04-19T11:58:09.836Z</time></trkpt><trkpt lat="44.8069737" lon="9.5084291"><ele>268.2</ele><time>2026-04-19T11:58:10.916Z</time></trkpt><trkpt lat="44.8070739" lon="9.5084683"><ele>268.59999999999997</ele><time>2026-04-19T11:58:11.882Z</time></trkpt><trkpt lat="44.8071778" lon="9.5085546"><ele>269.0</ele><time>2026-04-19T11:58:12.886Z</time></trkpt><trkpt lat="44.8072772" lon="9.5086301"><ele>269.0</ele><time>2026-04-19T11:58:13.864Z</time></trkpt><trkpt lat="44.8073877" lon="9.5086741"><ele>269.0</ele><time>2026-04-19T11:58:14.896Z</time></trkpt><trkpt lat="44.807495" lon="9.508703"><ele>269.0</ele><time>2026-04-19T11:58:15.863Z</time></trkpt><trkpt lat="44.8076137" lon="9.5087066"><ele>269.0</ele><time>2026-04-19T11:58:16.892Z</time></trkpt><trkpt lat="44.8077233" lon="9.5086814"><ele>267.5</ele><time>2026-04-19T11:58:17.873Z</time></trkpt><trkpt lat="44.807818" lon="9.5086219"><ele>266.0</ele><time>2026-04-19T11:58:18.818Z</time></trkpt><trkpt lat="44.8079199" lon="9.5085315"><ele>264.5</ele><time>2026-04-19T11:58:19.884Z</time></trkpt><trkpt lat="44.8080063" lon="9.5084455"><ele>263.0</ele><time>2026-04-19T11:58:20.861Z</time></trkpt><trkpt lat="44.8081249" lon="9.5083745"><ele>263.0</ele><time>2026-04-19T11:58:21.859Z</time></trkpt><trkpt lat="44.8082474" lon="9.508355"><ele>263.0</ele><time>2026-04-19T11:58:22.814Z</time></trkpt><trkpt lat="44.8083818" lon="9.5083652"><ele>263.0</ele><time>2026-04-19T11:58:23.834Z</time></trkpt><trkpt lat="44.8085103" lon="9.5083669"><ele>263.0</ele><time>2026-04-19T11:58:24.823Z</time></trkpt><trkpt lat="44.8086272" lon="9.5083406"><ele>261.0</ele><time>2026-04-19T11:58:25.839Z</time></trkpt><trkpt lat="44.8087409" lon="9.5083144"><ele>259.0</ele><time>2026-04-19T11:58:26.857Z</time></trkpt><trkpt lat="44.8088454" lon="9.5083071"><ele>257.0</ele><time>2026-04-19T11:58:27.824Z</time></trkpt><trkpt lat="44.8089785" lon="9.5083621"><ele>255.0</ele><time>2026-04-19T11:58:28.849Z</time></trkpt><trkpt lat="44.809109" lon="9.5084202"><ele>255.0</ele><time>2026-04-19T11:58:29.862Z</time></trkpt><trkpt lat="44.8092267" lon="9.5084307"><ele>255.0</ele><time>2026-04-19T11:58:30.791Z</time></trkpt><trkpt lat="44.8093767" lon="9.5084103"><ele>255.0</ele><time>2026-04-19T11:58:31.862Z</time></trkpt><trkpt lat="44.8095188" lon="9.5083924"><ele>255.0</ele><time>2026-04-19T11:58:32.804Z</time></trkpt><trkpt lat="44.8096803" lon="9.5083709"><ele>253.0</ele><time>2026-04-19T11:58:33.872Z</time></trkpt><trkpt lat="44.809828" lon="9.508345"><ele>251.0</ele><time>2026-04-19T11:58:34.866Z</time></trkpt><trkpt lat="44.8099623" lon="9.5083145"><ele>249.0</ele><time>2026-04-19T11:58:35.847Z</time></trkpt><trkpt lat="44.8100921" lon="9.5082697"><ele>247.0</ele><time>2026-04-19T11:58:36.87Z</time></trkpt><trkpt lat="44.8102114" lon="9.5082165"><ele>243.5</ele><time>2026-04-19T11:58:37.849Z</time></trkpt><trkpt lat="44.810329" lon="9.5081542"><ele>240.0</ele><time>2026-04-19T11:58:38.863Z</time></trkpt><trkpt lat="44.8104393" lon="9.5080974"><ele>236.5</ele><time>2026-04-19T11:58:39.864Z</time></trkpt><trkpt lat="44.8105521" lon="9.5080399"><ele>233.0</ele><time>2026-04-19T11:58:40.864Z</time></trkpt><trkpt lat="44.8106658" lon="9.5079735"><ele>233.75</ele><time>2026-04-19T11:58:41.841Z</time></trkpt><trkpt lat="44.8107738" lon="9.5078948"><ele>234.5</ele><time>2026-04-19T11:58:42.831Z</time></trkpt><trkpt lat="44.8108753" lon="9.5077969"><ele>235.25</ele><time>2026-04-19T11:58:43.841Z</time></trkpt><trkpt lat="44.81097" lon="9.5076986"><ele>236.0</ele><time>2026-04-19T11:58:44.806Z</time></trkpt><trkpt lat="44.8110871" lon="9.5075798"><ele>236.0</ele><time>2026-04-19T11:58:45.99Z</time></trkpt><trkpt lat="44.8112744" lon="9.5073883"><ele>236.0</ele><time>2026-04-19T11:58:47.833Z</time></trkpt><trkpt lat="44.8113754" lon="9.507292"><ele>236.0</ele><time>2026-04-19T11:58:48.831Z</time></trkpt><trkpt lat="44.8114786" lon="9.5071889"><ele>236.0</ele><time>2026-04-19T11:58:49.855Z</time></trkpt><trkpt lat="44.8115872" lon="9.5070867"><ele>236.0</ele><time>2026-04-19T11:58:50.926Z</time></trkpt><trkpt lat="44.8116869" lon="9.5070253"><ele>236.0</ele><time>2026-04-19T11:58:51.798Z</time></trkpt><trkpt lat="44.8118132" lon="9.5069692"><ele>236.0</ele><time>2026-04-19T11:58:52.814Z</time></trkpt><trkpt lat="44.8119532" lon="9.5069525"><ele>234.25</ele><time>2026-04-19T11:58:53.851Z</time></trkpt><trkpt lat="44.8120873" lon="9.5069882"><ele>232.5</ele><time>2026-04-19T11:58:54.853Z</time></trkpt><trkpt lat="44.8122379" lon="9.5070521"><ele>230.75</ele><time>2026-04-19T11:58:55.943Z</time></trkpt><trkpt lat="44.812356" lon="9.5071069"><ele>229.0</ele><time>2026-04-19T11:58:56.889Z</time></trkpt><trkpt lat="44.8124664" lon="9.5071325"><ele>229.0</ele><time>2026-04-19T11:58:57.862Z</time></trkpt><trkpt lat="44.8125681" lon="9.5071002"><ele>229.0</ele><time>2026-04-19T11:58:58.821Z</time></trkpt><trkpt lat="44.8127094" lon="9.5069864"><ele>229.0</ele><time>2026-04-19T11:58:59.927Z</time></trkpt><trkpt lat="44.8129863" lon="9.5067311"><ele>230.66666666666666</ele><time>2026-04-19T11:59:01.82Z</time></trkpt><trkpt lat="44.8131557" lon="9.5066453"><ele>232.33333333333331</ele><time>2026-04-19T11:59:02.857Z</time></trkpt><trkpt lat="44.8133202" lon="9.5065685"><ele>234.0</ele><time>2026-04-19T11:59:03.882Z</time></trkpt><trkpt lat="44.8134671" lon="9.5064657"><ele>232.75</ele><time>2026-04-19T11:59:04.866Z</time></trkpt><trkpt lat="44.8135962" lon="9.5063316"><ele>231.5</ele><time>2026-04-19T11:59:05.873Z</time></trkpt><trkpt lat="44.8136998" lon="9.5062022"><ele>230.25</ele><time>2026-04-19T11:59:06.805Z</time></trkpt><trkpt lat="44.8138172" lon="9.5060911"><ele>229.0</ele><time>2026-04-19T11:59:07.858Z</time></trkpt><trkpt lat="44.8139384" lon="9.5060278"><ele>229.0</ele><time>2026-04-19T11:59:08.852Z</time></trkpt><trkpt lat="44.8140701" lon="9.5060044"><ele>229.0</ele><time>2026-04-19T11:59:09.815Z</time></trkpt><trkpt lat="44.8142019" lon="9.5059888"><ele>229.0</ele><time>2026-04-19T11:59:10.848Z</time></trkpt><trkpt lat="44.814337" lon="9.5059483"><ele>229.0</ele><time>2026-04-19T11:59:11.914Z</time></trkpt><trkpt lat="44.8144499" lon="9.5058654"><ele>228.25</ele><time>2026-04-19T11:59:12.842Z</time></trkpt><trkpt lat="44.8145485" lon="9.5057195"><ele>227.5</ele><time>2026-04-19T11:59:13.877Z</time></trkpt><trkpt lat="44.8146269" lon="9.5055432"><ele>226.75</ele><time>2026-04-19T11:59:14.857Z</time></trkpt><trkpt lat="44.8146976" lon="9.5053456"><ele>226.0</ele><time>2026-04-19T11:59:15.891Z</time></trkpt><trkpt lat="44.8147606" lon="9.5051531"><ele>226.0</ele><time>2026-04-19T11:59:16.856Z</time></trkpt><trkpt lat="44.81483" lon="9.5049424"><ele>226.0</ele><time>2026-04-19T11:59:17.922Z</time></trkpt><trkpt lat="44.8148901" lon="9.5047657"><ele>226.0</ele><time>2026-04-19T11:59:18.83Z</time></trkpt><trkpt lat="44.8149547" lon="9.5045709"><ele>224.5</ele><time>2026-04-19T11:59:19.886Z</time></trkpt><trkpt lat="44.8150158" lon="9.504417"><ele>223.0</ele><time>2026-04-19T11:59:20.824Z</time></trkpt><trkpt lat="44.8150927" lon="9.5042798"><ele>221.5</ele><time>2026-04-19T11:59:21.821Z</time></trkpt><trkpt lat="44.815206" lon="9.504153"><ele>220.0</ele><time>2026-04-19T11:59:22.966Z</time></trkpt><trkpt lat="44.8154434" lon="9.5040449"><ele>220.0</ele><time>2026-04-19T11:59:24.813Z</time></trkpt><trkpt lat="44.8156012" lon="9.5040422"><ele>220.0</ele><time>2026-04-19T11:59:25.91Z</time></trkpt><trkpt lat="44.8157548" lon="9.5040788"><ele>220.0</ele><time>2026-04-19T11:59:26.838Z</time></trkpt><trkpt lat="44.8159467" lon="9.5041294"><ele>218.66666666666666</ele><time>2026-04-19T11:59:28.041Z</time></trkpt><trkpt lat="44.8162073" lon="9.5042012"><ele>217.33333333333331</ele><time>2026-04-19T11:59:29.843Z</time></trkpt><trkpt lat="44.816358" lon="9.5042412"><ele>216.0</ele><time>2026-04-19T11:59:30.979Z</time></trkpt><trkpt lat="44.8165964" lon="9.5042335"><ele>216.0</ele><time>2026-04-19T11:59:32.899Z</time></trkpt><trkpt lat="44.8167089" lon="9.5042014"><ele>216.0</ele><time>2026-04-19T11:59:33.867Z</time></trkpt><trkpt lat="44.8168462" lon="9.5041473"><ele>216.0</ele><time>2026-04-19T11:59:35.066Z</time></trkpt><trkpt lat="44.8170291" lon="9.5039805"><ele>215.75</ele><time>2026-04-19T11:59:36.889Z</time></trkpt><trkpt lat="44.8171109" lon="9.503848"><ele>215.5</ele><time>2026-04-19T11:59:37.831Z</time></trkpt><trkpt lat="44.817207" lon="9.5037001"><ele>215.25</ele><time>2026-04-19T11:59:38.891Z</time></trkpt><trkpt lat="44.8173148" lon="9.5035818"><ele>215.0</ele><time>2026-04-19T11:59:39.838Z</time></trkpt><trkpt lat="44.817441" lon="9.5034683"><ele>215.0</ele><time>2026-04-19T11:59:40.891Z</time></trkpt><trkpt lat="44.8175622" lon="9.5033761"><ele>215.0</ele><time>2026-04-19T11:59:41.862Z</time></trkpt><trkpt lat="44.8176907" lon="9.5032656"><ele>215.0</ele><time>2026-04-19T11:59:42.93Z</time></trkpt><trkpt lat="44.8177991" lon="9.503151"><ele>215.0</ele><time>2026-04-19T11:59:43.892Z</time></trkpt><trkpt lat="44.8179106" lon="9.5030124"><ele>214.5</ele><time>2026-04-19T11:59:44.908Z</time></trkpt><trkpt lat="44.8180148" lon="9.5028994"><ele>214.0</ele><time>2026-04-19T11:59:45.888Z</time></trkpt><trkpt lat="44.818133" lon="9.5028059"><ele>213.5</ele><time>2026-04-19T11:59:46.962Z</time></trkpt><trkpt lat="44.8182367" lon="9.5027465"><ele>213.0</ele><time>2026-04-19T11:59:47.863Z</time></trkpt><trkpt lat="44.8183422" lon="9.5026949"><ele>213.0</ele><time>2026-04-19T11:59:48.861Z</time></trkpt><trkpt lat="44.8184623" lon="9.502643"><ele>213.0</ele><time>2026-04-19T11:59:49.842Z</time></trkpt><trkpt lat="44.8185722" lon="9.5025925"><ele>213.0</ele><time>2026-04-19T11:59:50.813Z</time></trkpt><trkpt lat="44.8186943" lon="9.502529"><ele>213.0</ele><time>2026-04-19T11:59:51.891Z</time></trkpt><trkpt lat="44.8188068" lon="9.5024754"><ele>212.0</ele><time>2026-04-19T11:59:52.859Z</time></trkpt><trkpt lat="44.8189133" lon="9.5024137"><ele>211.0</ele><time>2026-04-19T11:59:53.926Z</time></trkpt><trkpt lat="44.8190022" lon="9.5023619"><ele>210.0</ele><time>2026-04-19T11:59:54.893Z</time></trkpt><trkpt lat="44.8190784" lon="9.5023089"><ele>209.0</ele><time>2026-04-19T11:59:55.885Z</time></trkpt><trkpt lat="44.8191521" lon="9.5022541"><ele>208.0</ele><time>2026-04-19T11:59:56.869Z</time></trkpt><trkpt lat="44.8192387" lon="9.5021983"><ele>208.0</ele><time>2026-04-19T11:59:57.893Z</time></trkpt><trkpt lat="44.8193132" lon="9.5021516"><ele>208.0</ele><time>2026-04-19T11:59:58.896Z</time></trkpt><trkpt lat="44.8193852" lon="9.5021332"><ele>208.0</ele><time>2026-04-19T11:59:59.897Z</time></trkpt><trkpt lat="44.8194526" lon="9.5021366"><ele>208.0</ele><time>2026-04-19T12:00:00.929Z</time></trkpt><trkpt lat="44.8195188" lon="9.5021689"><ele>208.0</ele><time>2026-04-19T12:00:01.904Z</time></trkpt><trkpt lat="44.819567" lon="9.5022272"><ele>208.0</ele><time>2026-04-19T12:00:02.835Z</time></trkpt><trkpt lat="44.8196123" lon="9.5023359"><ele>208.0</ele><time>2026-04-19T12:00:03.906Z</time></trkpt><trkpt lat="44.8196642" lon="9.5024803"><ele>207.25</ele><time>2026-04-19T12:00:05.051Z</time></trkpt><trkpt lat="44.8197655" lon="9.5027492"><ele>206.5</ele><time>2026-04-19T12:00:06.879Z</time></trkpt><trkpt lat="44.819817" lon="9.5029042"><ele>205.75</ele><time>2026-04-19T12:00:07.94Z</time></trkpt><trkpt lat="44.819853" lon="9.5029961"><ele>205.0</ele><time>2026-04-19T12:00:08.852Z</time></trkpt><trkpt lat="44.8198939" lon="9.5030996"><ele>204.0</ele><time>2026-04-19T12:00:10.909Z</time></trkpt><trkpt lat="44.8199228" lon="9.503194"><ele>204.0</ele><time>2026-04-19T12:00:13.857Z</time></trkpt><trkpt lat="44.8199534" lon="9.5032779"><ele>204.0</ele><time>2026-04-19T12:00:17.132Z</time></trkpt><trkpt lat="44.8199691" lon="9.5033648"><ele>204.0</ele><time>2026-04-19T12:00:21.96Z</time></trkpt><trkpt lat="44.8199568" lon="9.5032742"><ele>204.0</ele><time>2026-04-19T12:01:31.877Z</time></trkpt><trkpt lat="44.8198918" lon="9.5032894"><ele>204.0</ele><time>2026-04-19T12:01:37.02Z</time></trkpt><trkpt lat="44.8198462" lon="9.5032258"><ele>204.0</ele><time>2026-04-19T12:01:54.121Z</time></trkpt></trkseg><trkseg><trkpt lat="44.8199459" lon="9.5033515"><ele>204.0</ele><time>2026-04-19T13:18:49.895Z</time></trkpt><trkpt lat="44.8200089" lon="9.5034459"><ele>204.0</ele><time>2026-04-19T13:19:12.927Z</time></trkpt><trkpt lat="44.8200774" lon="9.5034367"><ele>204.0</ele><time>2026-04-19T13:19:16.937Z</time></trkpt><trkpt lat="44.8201443" lon="9.5033811"><ele>204.0</ele><time>2026-04-19T13:19:20.927Z</time></trkpt><trkpt lat="44.8202099" lon="9.5033299"><ele>204.0</ele><time>2026-04-19T13:19:24.965Z</time></trkpt><trkpt lat="44.8203023" lon="9.5032644"><ele>204.0</ele><time>2026-04-19T13:19:36.94Z</time></trkpt><trkpt lat="44.8204233" lon="9.50317"><ele>202.79999999999998</ele><time>2026-04-19T13:19:38.912Z</time></trkpt><trkpt lat="44.820503" lon="9.5031194"><ele>201.6</ele><time>2026-04-19T13:19:39.922Z</time></trkpt><trkpt lat="44.820587" lon="9.5030608"><ele>200.4</ele><time>2026-04-19T13:19:40.974Z</time></trkpt><trkpt lat="44.8206712" lon="9.5030026"><ele>199.2</ele><time>2026-04-19T13:19:41.984Z</time></trkpt><trkpt lat="44.8207475" lon="9.5029509"><ele>198.0</ele><time>2026-04-19T13:19:42.923Z</time></trkpt><trkpt lat="44.8208377" lon="9.5028945"><ele>198.0</ele><time>2026-04-19T13:19:43.997Z</time></trkpt><trkpt lat="44.820915" lon="9.5028507"><ele>198.0</ele><time>2026-04-19T13:19:44.935Z</time></trkpt><trkpt lat="44.8210051" lon="9.5028059"><ele>198.0</ele><time>2026-04-19T13:19:45.924Z</time></trkpt><trkpt lat="44.8210969" lon="9.5027628"><ele>198.0</ele><time>2026-04-19T13:19:46.874Z</time></trkpt><trkpt lat="44.8211993" lon="9.502716"><ele>198.0</ele><time>2026-04-19T13:19:47.907Z</time></trkpt><trkpt lat="44.8212978" lon="9.5026661"><ele>197.2</ele><time>2026-04-19T13:19:48.898Z</time></trkpt><trkpt lat="44.8213977" lon="9.5026057"><ele>196.4</ele><time>2026-04-19T13:19:49.944Z</time></trkpt><trkpt lat="44.8214842" lon="9.5025465"><ele>195.6</ele><time>2026-04-19T13:19:50.866Z</time></trkpt><trkpt lat="44.8215806" lon="9.5024772"><ele>194.79999999999998</ele><time>2026-04-19T13:19:51.957Z</time></trkpt><trkpt lat="44.8216598" lon="9.502419"><ele>194.0</ele><time>2026-04-19T13:19:52.954Z</time></trkpt><trkpt lat="44.821729" lon="9.5023716"><ele>193.6</ele><time>2026-04-19T13:19:54.035Z</time></trkpt><trkpt lat="44.8218196" lon="9.502301"><ele>193.2</ele><time>2026-04-19T13:19:55.953Z</time></trkpt><trkpt lat="44.8218734" lon="9.5021998"><ele>192.79999999999998</ele><time>2026-04-19T13:19:57.94Z</time></trkpt><trkpt lat="44.8218841" lon="9.5020739"><ele>192.39999999999998</ele><time>2026-04-19T13:19:59.948Z</time></trkpt><trkpt lat="44.8218352" lon="9.5018952"><ele>192.0</ele><time>2026-04-19T13:20:02.042Z</time></trkpt><trkpt lat="44.8217038" lon="9.5017126"><ele>192.0</ele><time>2026-04-19T13:20:03.91Z</time></trkpt><trkpt lat="44.8216153" lon="9.5015725"><ele>192.0</ele><time>2026-04-19T13:20:05Z</time></trkpt><trkpt lat="44.8215357" lon="9.5014214"><ele>192.0</ele><time>2026-04-19T13:20:05.941Z</time></trkpt><trkpt lat="44.8214421" lon="9.5012477"><ele>192.0</ele><time>2026-04-19T13:20:06.962Z</time></trkpt><trkpt lat="44.8213466" lon="9.5010706"><ele>192.33333333333331</ele><time>2026-04-19T13:20:07.903Z</time></trkpt><trkpt lat="44.8212435" lon="9.5008667"><ele>192.66666666666666</ele><time>2026-04-19T13:20:08.92Z</time></trkpt><trkpt lat="44.8211442" lon="9.5006444"><ele>193.0</ele><time>2026-04-19T13:20:09.977Z</time></trkpt><trkpt lat="44.8209577" lon="9.50016"><ele>193.0</ele><time>2026-04-19T13:20:12.08Z</time></trkpt><trkpt lat="44.8208919" lon="9.4999281"><ele>193.0</ele><time>2026-04-19T13:20:13.015Z</time></trkpt><trkpt lat="44.8208321" lon="9.4996913"><ele>193.0</ele><time>2026-04-19T13:20:13.981Z</time></trkpt><trkpt lat="44.8207766" lon="9.4994659"><ele>193.0</ele><time>2026-04-19T13:20:14.957Z</time></trkpt><trkpt lat="44.8207266" lon="9.4992559"><ele>193.0</ele><time>2026-04-19T13:20:15.931Z</time></trkpt><trkpt lat="44.8206734" lon="9.4990277"><ele>193.0</ele><time>2026-04-19T13:20:17.063Z</time></trkpt><trkpt lat="44.8206258" lon="9.4988405"><ele>192.66666666666666</ele><time>2026-04-19T13:20:18.02Z</time></trkpt><trkpt lat="44.8205787" lon="9.4986326"><ele>192.33333333333331</ele><time>2026-04-19T13:20:19.099Z</time></trkpt><trkpt lat="44.8205352" lon="9.4984426"><ele>192.0</ele><time>2026-04-19T13:20:20.111Z</time></trkpt><trkpt lat="44.8204545" lon="9.4981116"><ele>192.0</ele><time>2026-04-19T13:20:22.068Z</time></trkpt><trkpt lat="44.820419" lon="9.4979734"><ele>192.0</ele><time>2026-04-19T13:20:23.031Z</time></trkpt><trkpt lat="44.8203845" lon="9.4978278"><ele>192.0</ele><time>2026-04-19T13:20:24.055Z</time></trkpt><trkpt lat="44.8203436" lon="9.4976714"><ele>192.0</ele><time>2026-04-19T13:20:25.106Z</time></trkpt><trkpt lat="44.8203356" lon="9.4974541"><ele>191.83333333333334</ele><time>2026-04-19T13:20:26.876Z</time></trkpt><trkpt lat="44.82036" lon="9.4973496"><ele>191.66666666666666</ele><time>2026-04-19T13:20:27.918Z</time></trkpt><trkpt lat="44.8204054" lon="9.4972706"><ele>191.5</ele><time>2026-04-19T13:20:28.899Z</time></trkpt><trkpt lat="44.8204697" lon="9.4971992"><ele>191.33333333333331</ele><time>2026-04-19T13:20:29.885Z</time></trkpt><trkpt lat="44.8205542" lon="9.497132"><ele>191.16666666666666</ele><time>2026-04-19T13:20:30.909Z</time></trkpt><trkpt lat="44.8206519" lon="9.4970596"><ele>191.0</ele><time>2026-04-19T13:20:31.94Z</time></trkpt><trkpt lat="44.8207553" lon="9.49699"><ele>191.0</ele><time>2026-04-19T13:20:32.929Z</time></trkpt><trkpt lat="44.8208643" lon="9.4969139"><ele>191.0</ele><time>2026-04-19T13:20:33.951Z</time></trkpt><trkpt lat="44.8209927" lon="9.4968223"><ele>191.0</ele><time>2026-04-19T13:20:35.053Z</time></trkpt><trkpt lat="44.82123" lon="9.4966602"><ele>191.75</ele><time>2026-04-19T13:20:36.904Z</time></trkpt><trkpt lat="44.8213574" lon="9.4965753"><ele>192.5</ele><time>2026-04-19T13:20:37.899Z</time></trkpt><trkpt lat="44.8214855" lon="9.496493"><ele>193.25</ele><time>2026-04-19T13:20:38.921Z</time></trkpt><trkpt lat="44.8215979" lon="9.4964216"><ele>194.0</ele><time>2026-04-19T13:20:39.908Z</time></trkpt><trkpt lat="44.8217029" lon="9.4963542"><ele>194.0</ele><time>2026-04-19T13:20:40.944Z</time></trkpt><trkpt lat="44.8217934" lon="9.4962897"><ele>194.0</ele><time>2026-04-19T13:20:42.008Z</time></trkpt><trkpt lat="44.8219599" lon="9.4962504"><ele>194.0</ele><time>2026-04-19T13:20:44.061Z</time></trkpt><trkpt lat="44.8221136" lon="9.4963054"><ele>194.0</ele><time>2026-04-19T13:20:45.917Z</time></trkpt><trkpt lat="44.822207" lon="9.4963562"><ele>194.0</ele><time>2026-04-19T13:20:46.908Z</time></trkpt><trkpt lat="44.8223366" lon="9.4964223"><ele>194.0</ele><time>2026-04-19T13:20:48.149Z</time></trkpt><trkpt lat="44.8225531" lon="9.4965216"><ele>194.0</ele><time>2026-04-19T13:20:49.88Z</time></trkpt><trkpt lat="44.8226842" lon="9.4965748"><ele>194.0</ele><time>2026-04-19T13:20:50.875Z</time></trkpt><trkpt lat="44.8228206" lon="9.4966212"><ele>194.0</ele><time>2026-04-19T13:20:51.899Z</time></trkpt><trkpt lat="44.822958" lon="9.4966363"><ele>194.0</ele><time>2026-04-19T13:20:52.913Z</time></trkpt><trkpt lat="44.8230963" lon="9.4966108"><ele>194.0</ele><time>2026-04-19T13:20:53.931Z</time></trkpt><trkpt lat="44.8232275" lon="9.4965541"><ele>194.0</ele><time>2026-04-19T13:20:54.899Z</time></trkpt><trkpt lat="44.823373" lon="9.4964729"><ele>194.0</ele><time>2026-04-19T13:20:55.969Z</time></trkpt><trkpt lat="44.8234963" lon="9.4963932"><ele>194.0</ele><time>2026-04-19T13:20:56.904Z</time></trkpt><trkpt lat="44.8236263" lon="9.4963216"><ele>194.0</ele><time>2026-04-19T13:20:57.931Z</time></trkpt><trkpt lat="44.8237515" lon="9.4962844"><ele>195.25</ele><time>2026-04-19T13:20:59.02Z</time></trkpt><trkpt lat="44.8238671" lon="9.4962965"><ele>196.5</ele><time>2026-04-19T13:21:00.052Z</time></trkpt><trkpt lat="44.8239754" lon="9.4963532"><ele>197.75</ele><time>2026-04-19T13:21:00.972Z</time></trkpt><trkpt lat="44.824086" lon="9.4964431"><ele>199.0</ele><time>2026-04-19T13:21:02.009Z</time></trkpt><trkpt lat="44.8242526" lon="9.496659"><ele>202.0</ele><time>2026-04-19T13:21:03.93Z</time></trkpt><trkpt lat="44.8243384" lon="9.4967729"><ele>205.0</ele><time>2026-04-19T13:21:04.905Z</time></trkpt><trkpt lat="44.8244262" lon="9.4968898"><ele>208.0</ele><time>2026-04-19T13:21:05.921Z</time></trkpt><trkpt lat="44.8245091" lon="9.4970036"><ele>211.0</ele><time>2026-04-19T13:21:06.918Z</time></trkpt><trkpt lat="44.8245834" lon="9.4971056"><ele>211.49999999999997</ele><time>2026-04-19T13:21:07.91Z</time></trkpt><trkpt lat="44.8246421" lon="9.4971883"><ele>212.0</ele><time>2026-04-19T13:21:08.931Z</time></trkpt><trkpt lat="44.8246934" lon="9.4972514"><ele>212.5</ele><time>2026-04-19T13:21:09.932Z</time></trkpt><trkpt lat="44.82476" lon="9.4972928"><ele>213.0</ele><time>2026-04-19T13:21:11.939Z</time></trkpt><trkpt lat="44.8248606" lon="9.497275"><ele>213.49999999999997</ele><time>2026-04-19T13:21:13.982Z</time></trkpt><trkpt lat="44.8249212" lon="9.4972493"><ele>214.0</ele><time>2026-04-19T13:21:14.917Z</time></trkpt><trkpt lat="44.8249905" lon="9.497242"><ele>214.0</ele><time>2026-04-19T13:21:15.884Z</time></trkpt><trkpt lat="44.8250596" lon="9.4972711"><ele>213.99999999999997</ele><time>2026-04-19T13:21:16.895Z</time></trkpt><trkpt lat="44.8251148" lon="9.4974363"><ele>213.99999999999997</ele><time>2026-04-19T13:21:19.02Z</time></trkpt><trkpt lat="44.8251847" lon="9.4976193"><ele>214.0</ele><time>2026-04-19T13:21:20.985Z</time></trkpt><trkpt lat="44.8252522" lon="9.4976939"><ele>214.0</ele><time>2026-04-19T13:21:21.961Z</time></trkpt><trkpt lat="44.8253319" lon="9.4977552"><ele>218.0</ele><time>2026-04-19T13:21:22.949Z</time></trkpt><trkpt lat="44.8254299" lon="9.4978234"><ele>222.0</ele><time>2026-04-19T13:21:24.024Z</time></trkpt><trkpt lat="44.8255057" lon="9.4978825"><ele>226.0</ele><time>2026-04-19T13:21:24.932Z</time></trkpt><trkpt lat="44.8255974" lon="9.4979562"><ele>230.0</ele><time>2026-04-19T13:21:25.978Z</time></trkpt><trkpt lat="44.8257633" lon="9.4980806"><ele>230.50000000000003</ele><time>2026-04-19T13:21:28Z</time></trkpt><trkpt lat="44.8258388" lon="9.4981163"><ele>231.0</ele><time>2026-04-19T13:21:28.934Z</time></trkpt><trkpt lat="44.8259154" lon="9.4981479"><ele>231.5</ele><time>2026-04-19T13:21:29.908Z</time></trkpt><trkpt lat="44.8260018" lon="9.4981846"><ele>232.0</ele><time>2026-04-19T13:21:30.983Z</time></trkpt><trkpt lat="44.8260774" lon="9.49819"><ele>232.50000000000003</ele><time>2026-04-19T13:21:31.946Z</time></trkpt><trkpt lat="44.8261712" lon="9.4981764"><ele>233.0</ele><time>2026-04-19T13:21:33.084Z</time></trkpt><trkpt lat="44.8263393" lon="9.4980953"><ele>235.2</ele><time>2026-04-19T13:21:34.956Z</time></trkpt><trkpt lat="44.8264297" lon="9.4980255"><ele>237.4</ele><time>2026-04-19T13:21:35.928Z</time></trkpt><trkpt lat="44.8265234" lon="9.4979409"><ele>239.59999999999997</ele><time>2026-04-19T13:21:36.954Z</time></trkpt><trkpt lat="44.8266145" lon="9.4978519"><ele>241.79999999999998</ele><time>2026-04-19T13:21:37.906Z</time></trkpt><trkpt lat="44.826709" lon="9.4977687"><ele>244.0</ele><time>2026-04-19T13:21:38.892Z</time></trkpt><trkpt lat="44.8268157" lon="9.4977022"><ele>246.0</ele><time>2026-04-19T13:21:39.899Z</time></trkpt><trkpt lat="44.8269362" lon="9.4976537"><ele>247.99999999999997</ele><time>2026-04-19T13:21:41.008Z</time></trkpt><trkpt lat="44.8270348" lon="9.4976289"><ele>249.99999999999997</ele><time>2026-04-19T13:21:41.914Z</time></trkpt><trkpt lat="44.8271317" lon="9.4975826"><ele>252.0</ele><time>2026-04-19T13:21:42.954Z</time></trkpt><trkpt lat="44.8272134" lon="9.4974984"><ele>254.0</ele><time>2026-04-19T13:21:43.914Z</time></trkpt><trkpt lat="44.8272851" lon="9.4973822"><ele>254.0</ele><time>2026-04-19T13:21:44.945Z</time></trkpt><trkpt lat="44.8273481" lon="9.4972691"><ele>254.0</ele><time>2026-04-19T13:21:45.942Z</time></trkpt><trkpt lat="44.8274162" lon="9.4971727"><ele>254.0</ele><time>2026-04-19T13:21:46.908Z</time></trkpt><trkpt lat="44.8275038" lon="9.4970894"><ele>254.0</ele><time>2026-04-19T13:21:48.038Z</time></trkpt><trkpt lat="44.8276958" lon="9.4970279"><ele>256.75</ele><time>2026-04-19T13:21:49.892Z</time></trkpt><trkpt lat="44.8278136" lon="9.4969953"><ele>259.5</ele><time>2026-04-19T13:21:50.928Z</time></trkpt><trkpt lat="44.8279251" lon="9.4969604"><ele>262.25</ele><time>2026-04-19T13:21:52.006Z</time></trkpt><trkpt lat="44.8280931" lon="9.496961"><ele>265.0</ele><time>2026-04-19T13:21:54.035Z</time></trkpt><trkpt lat="44.8281817" lon="9.4970976"><ele>265.5</ele><time>2026-04-19T13:21:55.902Z</time></trkpt><trkpt lat="44.8282231" lon="9.497226"><ele>266.0</ele><time>2026-04-19T13:21:57.033Z</time></trkpt><trkpt lat="44.8282573" lon="9.497357"><ele>266.5</ele><time>2026-04-19T13:21:58.046Z</time></trkpt><trkpt lat="44.8282923" lon="9.4976"><ele>267.0</ele><time>2026-04-19T13:21:59.977Z</time></trkpt><trkpt lat="44.8283031" lon="9.4977145"><ele>267.0</ele><time>2026-04-19T13:22:00.981Z</time></trkpt><trkpt lat="44.8283224" lon="9.4978104"><ele>267.0</ele><time>2026-04-19T13:22:01.937Z</time></trkpt><trkpt lat="44.8283541" lon="9.4979003"><ele>267.0</ele><time>2026-04-19T13:22:02.978Z</time></trkpt><trkpt lat="44.8284062" lon="9.497969"><ele>267.0</ele><time>2026-04-19T13:22:03.921Z</time></trkpt><trkpt lat="44.8284795" lon="9.4980375"><ele>267.0</ele><time>2026-04-19T13:22:05.023Z</time></trkpt><trkpt lat="44.8285423" lon="9.4980869"><ele>267.0</ele><time>2026-04-19T13:22:05.932Z</time></trkpt><trkpt lat="44.8286133" lon="9.4981473"><ele>267.8</ele><time>2026-04-19T13:22:06.901Z</time></trkpt><trkpt lat="44.8286872" lon="9.498209"><ele>268.6</ele><time>2026-04-19T13:22:07.905Z</time></trkpt><trkpt lat="44.8287709" lon="9.4982501"><ele>269.40000000000003</ele><time>2026-04-19T13:22:08.939Z</time></trkpt><trkpt lat="44.8288683" lon="9.4982624"><ele>270.2</ele><time>2026-04-19T13:22:10.22Z</time></trkpt><trkpt lat="44.8289915" lon="9.4981854"><ele>271.0</ele><time>2026-04-19T13:22:11.893Z</time></trkpt><trkpt lat="44.8290783" lon="9.4981356"><ele>271.0</ele><time>2026-04-19T13:22:12.963Z</time></trkpt><trkpt lat="44.829148" lon="9.4980907"><ele>271.0</ele><time>2026-04-19T13:22:13.927Z</time></trkpt><trkpt lat="44.8292267" lon="9.4980308"><ele>271.0</ele><time>2026-04-19T13:22:14.977Z</time></trkpt><trkpt lat="44.8293004" lon="9.4979662"><ele>271.0</ele><time>2026-04-19T13:22:15.969Z</time></trkpt><trkpt lat="44.8293693" lon="9.4979013"><ele>271.0</ele><time>2026-04-19T13:22:17.034Z</time></trkpt><trkpt lat="44.8294408" lon="9.4978552"><ele>271.0</ele><time>2026-04-19T13:22:17.96Z</time></trkpt><trkpt lat="44.8295094" lon="9.4978001"><ele>272.8333333333333</ele><time>2026-04-19T13:22:18.884Z</time></trkpt><trkpt lat="44.8295894" lon="9.4977385"><ele>274.66666666666663</ele><time>2026-04-19T13:22:19.953Z</time></trkpt><trkpt lat="44.8296599" lon="9.4976842"><ele>276.5</ele><time>2026-04-19T13:22:20.905Z</time></trkpt><trkpt lat="44.8297392" lon="9.4976347"><ele>278.3333333333333</ele><time>2026-04-19T13:22:21.936Z</time></trkpt><trkpt lat="44.829824" lon="9.4975884"><ele>280.1666666666667</ele><time>2026-04-19T13:22:22.911Z</time></trkpt><trkpt lat="44.8299074" lon="9.497532"><ele>282.0</ele><time>2026-04-19T13:22:23.898Z</time></trkpt><trkpt lat="44.8299944" lon="9.4974745"><ele>282.0</ele><time>2026-04-19T13:22:24.92Z</time></trkpt><trkpt lat="44.8300823" lon="9.4974146"><ele>282.0</ele><time>2026-04-19T13:22:25.941Z</time></trkpt><trkpt lat="44.8301589" lon="9.4973574"><ele>282.0</ele><time>2026-04-19T13:22:26.895Z</time></trkpt><trkpt lat="44.8302506" lon="9.4972829"><ele>282.0</ele><time>2026-04-19T13:22:28.015Z</time></trkpt><trkpt lat="44.8303215" lon="9.4972164"><ele>282.0</ele><time>2026-04-19T13:22:28.936Z</time></trkpt><trkpt lat="44.8303882" lon="9.4971328"><ele>284.3333333333333</ele><time>2026-04-19T13:22:29.968Z</time></trkpt><trkpt lat="44.8304275" lon="9.4970435"><ele>286.6666666666667</ele><time>2026-04-19T13:22:30.885Z</time></trkpt><trkpt lat="44.8304499" lon="9.4969316"><ele>289.0</ele><time>2026-04-19T13:22:31.908Z</time></trkpt><trkpt lat="44.8304611" lon="9.4968169"><ele>291.33333333333337</ele><time>2026-04-19T13:22:32.924Z</time></trkpt><trkpt lat="44.8304645" lon="9.4967119"><ele>293.6666666666667</ele><time>2026-04-19T13:22:33.898Z</time></trkpt><trkpt lat="44.8304763" lon="9.4966081"><ele>296.0</ele><time>2026-04-19T13:22:34.874Z</time></trkpt><trkpt lat="44.8305184" lon="9.4965306"><ele>296.0</ele><time>2026-04-19T13:22:35.872Z</time></trkpt><trkpt lat="44.8305748" lon="9.4964847"><ele>296.0</ele><time>2026-04-19T13:22:36.848Z</time></trkpt><trkpt lat="44.8306567" lon="9.4964533"><ele>296.0</ele><time>2026-04-19T13:22:37.952Z</time></trkpt><trkpt lat="44.8307448" lon="9.4964422"><ele>296.0</ele><time>2026-04-19T13:22:39.026Z</time></trkpt><trkpt lat="44.830887" lon="9.4963867"><ele>296.0</ele><time>2026-04-19T13:22:40.955Z</time></trkpt><trkpt lat="44.8309612" lon="9.4963439"><ele>297.0</ele><time>2026-04-19T13:22:41.91Z</time></trkpt><trkpt lat="44.8310392" lon="9.4962967"><ele>298.0</ele><time>2026-04-19T13:22:42.918Z</time></trkpt><trkpt lat="44.8311125" lon="9.4962606"><ele>299.0</ele><time>2026-04-19T13:22:43.886Z</time></trkpt><trkpt lat="44.8311927" lon="9.496221"><ele>300.0</ele><time>2026-04-19T13:22:44.926Z</time></trkpt><trkpt lat="44.8312736" lon="9.4961815"><ele>301.0</ele><time>2026-04-19T13:22:45.912Z</time></trkpt><trkpt lat="44.8313588" lon="9.4961336"><ele>302.0</ele><time>2026-04-19T13:22:46.903Z</time></trkpt><trkpt lat="44.8314481" lon="9.4960807"><ele>303.0</ele><time>2026-04-19T13:22:47.899Z</time></trkpt><trkpt lat="44.8315413" lon="9.4960288"><ele>304.0</ele><time>2026-04-19T13:22:48.911Z</time></trkpt><trkpt lat="44.8316443" lon="9.4959737"><ele>305.0</ele><time>2026-04-19T13:22:50Z</time></trkpt><trkpt lat="44.8317418" lon="9.4959234"><ele>306.0</ele><time>2026-04-19T13:22:51.034Z</time></trkpt><trkpt lat="44.8319135" lon="9.4958243"><ele>308.2</ele><time>2026-04-19T13:22:52.952Z</time></trkpt><trkpt lat="44.8319932" lon="9.4957615"><ele>310.40000000000003</ele><time>2026-04-19T13:22:53.95Z</time></trkpt><trkpt lat="44.8320758" lon="9.4956856"><ele>312.6</ele><time>2026-04-19T13:22:54.95Z</time></trkpt><trkpt lat="44.8321556" lon="9.4956054"><ele>314.8</ele><time>2026-04-19T13:22:55.971Z</time></trkpt><trkpt lat="44.8322296" lon="9.4955325"><ele>317.0</ele><time>2026-04-19T13:22:56.915Z</time></trkpt><trkpt lat="44.8323093" lon="9.4954438"><ele>317.33333333333337</ele><time>2026-04-19T13:22:58.015Z</time></trkpt><trkpt lat="44.8323719" lon="9.4953724"><ele>317.6666666666667</ele><time>2026-04-19T13:22:58.93Z</time></trkpt><trkpt lat="44.8324415" lon="9.4952956"><ele>318.0</ele><time>2026-04-19T13:22:59.969Z</time></trkpt><trkpt lat="44.8325057" lon="9.4952413"><ele>318.3333333333333</ele><time>2026-04-19T13:23:00.88Z</time></trkpt><trkpt lat="44.8325758" lon="9.4952102"><ele>318.66666666666663</ele><time>2026-04-19T13:23:01.866Z</time></trkpt><trkpt lat="44.8326973" lon="9.4952405"><ele>319.0</ele><time>2026-04-19T13:23:03.937Z</time></trkpt><trkpt lat="44.8328092" lon="9.4953131"><ele>320.8333333333333</ele><time>2026-04-19T13:23:05.956Z</time></trkpt><trkpt lat="44.8328715" lon="9.4953391"><ele>322.66666666666663</ele><time>2026-04-19T13:23:06.861Z</time></trkpt><trkpt lat="44.8329483" lon="9.495338"><ele>324.5</ele><time>2026-04-19T13:23:07.917Z</time></trkpt><trkpt lat="44.8330308" lon="9.4953122"><ele>326.3333333333333</ele><time>2026-04-19T13:23:09.028Z</time></trkpt><trkpt lat="44.8331089" lon="9.4952705"><ele>328.1666666666667</ele><time>2026-04-19T13:23:09.963Z</time></trkpt><trkpt lat="44.8331747" lon="9.4952069"><ele>330.0</ele><time>2026-04-19T13:23:10.956Z</time></trkpt><trkpt lat="44.8332494" lon="9.4951503"><ele>330.0</ele><time>2026-04-19T13:23:11.922Z</time></trkpt><trkpt lat="44.8333371" lon="9.4951004"><ele>330.0</ele><time>2026-04-19T13:23:12.974Z</time></trkpt><trkpt lat="44.8334093" lon="9.4950534"><ele>330.0</ele><time>2026-04-19T13:23:13.898Z</time></trkpt><trkpt lat="44.8334831" lon="9.4949656"><ele>330.0</ele><time>2026-04-19T13:23:14.961Z</time></trkpt><trkpt lat="44.8335346" lon="9.4948708"><ele>330.0</ele><time>2026-04-19T13:23:15.906Z</time></trkpt><trkpt lat="44.8335787" lon="9.4947642"><ele>330.0</ele><time>2026-04-19T13:23:16.923Z</time></trkpt><trkpt lat="44.8336178" lon="9.4946585"><ele>332.4</ele><time>2026-04-19T13:23:17.9Z</time></trkpt><trkpt lat="44.8336608" lon="9.4945479"><ele>334.8</ele><time>2026-04-19T13:23:18.928Z</time></trkpt><trkpt lat="44.8337072" lon="9.4944418"><ele>337.20000000000005</ele><time>2026-04-19T13:23:19.914Z</time></trkpt><trkpt lat="44.8337693" lon="9.4943461"><ele>339.6</ele><time>2026-04-19T13:23:20.907Z</time></trkpt><trkpt lat="44.833837" lon="9.494271"><ele>342.0</ele><time>2026-04-19T13:23:21.902Z</time></trkpt><trkpt lat="44.833923" lon="9.4942094"><ele>342.0</ele><time>2026-04-19T13:23:22.945Z</time></trkpt><trkpt lat="44.8340052" lon="9.4941754"><ele>342.0</ele><time>2026-04-19T13:23:23.925Z</time></trkpt><trkpt lat="44.8340994" lon="9.494138"><ele>342.0</ele><time>2026-04-19T13:23:24.957Z</time></trkpt><trkpt lat="44.8341907" lon="9.4940982"><ele>342.0</ele><time>2026-04-19T13:23:25.921Z</time></trkpt><trkpt lat="44.8342921" lon="9.4940531"><ele>342.0</ele><time>2026-04-19T13:23:26.923Z</time></trkpt><trkpt lat="44.8343915" lon="9.4940092"><ele>344.40000000000003</ele><time>2026-04-19T13:23:27.928Z</time></trkpt><trkpt lat="44.8344898" lon="9.4939658"><ele>346.8</ele><time>2026-04-19T13:23:28.942Z</time></trkpt><trkpt lat="44.8345803" lon="9.4939227"><ele>349.2</ele><time>2026-04-19T13:23:29.88Z</time></trkpt><trkpt lat="44.8346664" lon="9.4938837"><ele>351.6</ele><time>2026-04-19T13:23:31.011Z</time></trkpt><trkpt lat="44.8347832" lon="9.4938233"><ele>354.0</ele><time>2026-04-19T13:23:32.952Z</time></trkpt><trkpt lat="44.8349094" lon="9.4938274"><ele>354.0</ele><time>2026-04-19T13:23:34.963Z</time></trkpt><trkpt lat="44.8349607" lon="9.4938967"><ele>354.0</ele><time>2026-04-19T13:23:36.015Z</time></trkpt><trkpt lat="44.8349853" lon="9.4939841"><ele>354.0</ele><time>2026-04-19T13:23:36.99Z</time></trkpt><trkpt lat="44.8350034" lon="9.4940917"><ele>354.0</ele><time>2026-04-19T13:23:37.89Z</time></trkpt><trkpt lat="44.8350284" lon="9.4942232"><ele>354.0</ele><time>2026-04-19T13:23:38.929Z</time></trkpt><trkpt lat="44.8350605" lon="9.4943321"><ele>354.0</ele><time>2026-04-19T13:23:39.914Z</time></trkpt><trkpt lat="44.8351055" lon="9.4944303"><ele>356.0</ele><time>2026-04-19T13:23:40.95Z</time></trkpt><trkpt lat="44.8351583" lon="9.4945074"><ele>358.0</ele><time>2026-04-19T13:23:41.961Z</time></trkpt><trkpt lat="44.8352196" lon="9.4945598"><ele>360.0</ele><time>2026-04-19T13:23:42.96Z</time></trkpt><trkpt lat="44.8352853" lon="9.4945808"><ele>362.0</ele><time>2026-04-19T13:23:43.983Z</time></trkpt><trkpt lat="44.8353588" lon="9.4945724"><ele>364.0</ele><time>2026-04-19T13:23:44.979Z</time></trkpt><trkpt lat="44.83542" lon="9.4945494"><ele>366.0</ele><time>2026-04-19T13:23:45.963Z</time></trkpt><trkpt lat="44.8354971" lon="9.4945064"><ele>368.0</ele><time>2026-04-19T13:23:47.068Z</time></trkpt><trkpt lat="44.8356456" lon="9.4944143"><ele>368.0</ele><time>2026-04-19T13:23:48.95Z</time></trkpt><trkpt lat="44.8357442" lon="9.4943585"><ele>368.0</ele><time>2026-04-19T13:23:49.882Z</time></trkpt><trkpt lat="44.8358583" lon="9.4942839"><ele>368.0</ele><time>2026-04-19T13:23:50.961Z</time></trkpt><trkpt lat="44.8360275" lon="9.494154"><ele>368.0</ele><time>2026-04-19T13:23:52.921Z</time></trkpt><trkpt lat="44.836093" lon="9.4941017"><ele>370.4</ele><time>2026-04-19T13:23:53.96Z</time></trkpt><trkpt lat="44.8361982" lon="9.4940319"><ele>372.79999999999995</ele><time>2026-04-19T13:23:55.986Z</time></trkpt><trkpt lat="44.8362542" lon="9.4939733"><ele>375.2</ele><time>2026-04-19T13:23:57.036Z</time></trkpt><trkpt lat="44.8363872" lon="9.493863"><ele>377.6</ele><time>2026-04-19T13:23:58.962Z</time></trkpt><trkpt lat="44.8364566" lon="9.4937923"><ele>380.0</ele><time>2026-04-19T13:23:59.929Z</time></trkpt><trkpt lat="44.836523" lon="9.4936982"><ele>381.2</ele><time>2026-04-19T13:24:01.067Z</time></trkpt><trkpt lat="44.8366159" lon="9.4935512"><ele>382.4</ele><time>2026-04-19T13:24:02.926Z</time></trkpt><trkpt lat="44.8366598" lon="9.4934858"><ele>383.6</ele><time>2026-04-19T13:24:03.911Z</time></trkpt><trkpt lat="44.8367041" lon="9.4934192"><ele>384.8</ele><time>2026-04-19T13:24:04.888Z</time></trkpt><trkpt lat="44.8367526" lon="9.4933534"><ele>386.0</ele><time>2026-04-19T13:24:05.923Z</time></trkpt><trkpt lat="44.8368475" lon="9.4932079"><ele>388.49999999999994</ele><time>2026-04-19T13:24:07.978Z</time></trkpt><trkpt lat="44.8368896" lon="9.4931342"><ele>391.0</ele><time>2026-04-19T13:24:08.88Z</time></trkpt><trkpt lat="44.8369173" lon="9.4930392"><ele>393.5</ele><time>2026-04-19T13:24:09.986Z</time></trkpt><trkpt lat="44.8369232" lon="9.4929469"><ele>396.0</ele><time>2026-04-19T13:24:10.919Z</time></trkpt><trkpt lat="44.8369206" lon="9.4928283"><ele>398.49999999999994</ele><time>2026-04-19T13:24:11.931Z</time></trkpt><trkpt lat="44.8369065" lon="9.492691"><ele>401.0</ele><time>2026-04-19T13:24:12.887Z</time></trkpt><trkpt lat="44.8368901" lon="9.4925353"><ele>401.4</ele><time>2026-04-19T13:24:13.906Z</time></trkpt><trkpt lat="44.8368853" lon="9.4923895"><ele>401.8</ele><time>2026-04-19T13:24:14.921Z</time></trkpt><trkpt lat="44.8369005" lon="9.4922561"><ele>402.2</ele><time>2026-04-19T13:24:15.956Z</time></trkpt><trkpt lat="44.8369349" lon="9.4921394"><ele>402.59999999999997</ele><time>2026-04-19T13:24:16.896Z</time></trkpt><trkpt lat="44.8370005" lon="9.4920201"><ele>403.0</ele><time>2026-04-19T13:24:17.981Z</time></trkpt><trkpt lat="44.8370717" lon="9.4919169"><ele>403.5</ele><time>2026-04-19T13:24:18.913Z</time></trkpt><trkpt lat="44.8371712" lon="9.4917926"><ele>404.0</ele><time>2026-04-19T13:24:20.022Z</time></trkpt><trkpt lat="44.8373189" lon="9.4915966"><ele>404.5</ele><time>2026-04-19T13:24:21.885Z</time></trkpt><trkpt lat="44.8373775" lon="9.4914604"><ele>405.0</ele><time>2026-04-19T13:24:22.976Z</time></trkpt><trkpt lat="44.8374263" lon="9.4913633"><ele>405.0</ele><time>2026-04-19T13:24:23.945Z</time></trkpt><trkpt lat="44.8374823" lon="9.4912874"><ele>405.0</ele><time>2026-04-19T13:24:24.971Z</time></trkpt><trkpt lat="44.837544" lon="9.4912284"><ele>405.0</ele><time>2026-04-19T13:24:25.934Z</time></trkpt><trkpt lat="44.8376261" lon="9.491169"><ele>405.0</ele><time>2026-04-19T13:24:26.908Z</time></trkpt><trkpt lat="44.8376981" lon="9.4911217"><ele>405.0</ele><time>2026-04-19T13:24:27.886Z</time></trkpt><trkpt lat="44.8377792" lon="9.4910686"><ele>405.0</ele><time>2026-04-19T13:24:28.928Z</time></trkpt><trkpt lat="44.8378757" lon="9.490989"><ele>407.75</ele><time>2026-04-19T13:24:29.946Z</time></trkpt><trkpt lat="44.8379654" lon="9.4908936"><ele>410.5</ele><time>2026-04-19T13:24:30.868Z</time></trkpt><trkpt lat="44.8380695" lon="9.4907677"><ele>413.25</ele><time>2026-04-19T13:24:32.059Z</time></trkpt><trkpt lat="44.8382043" lon="9.4906173"><ele>416.0</ele><time>2026-04-19T13:24:33.923Z</time></trkpt><trkpt lat="44.8382782" lon="9.4905629"><ele>416.0</ele><time>2026-04-19T13:24:34.902Z</time></trkpt><trkpt lat="44.8383651" lon="9.490504"><ele>416.0</ele><time>2026-04-19T13:24:36.004Z</time></trkpt><trkpt lat="44.838432" lon="9.4904602"><ele>416.0</ele><time>2026-04-19T13:24:36.987Z</time></trkpt><trkpt lat="44.8385304" lon="9.4903496"><ele>416.0</ele><time>2026-04-19T13:24:39.025Z</time></trkpt><trkpt lat="44.8385664" lon="9.4902684"><ele>416.0</ele><time>2026-04-19T13:24:39.93Z</time></trkpt><trkpt lat="44.838605" lon="9.4901174"><ele>419.5</ele><time>2026-04-19T13:24:41.014Z</time></trkpt><trkpt lat="44.8386339" lon="9.4899469"><ele>423.0</ele><time>2026-04-19T13:24:41.969Z</time></trkpt><trkpt lat="44.8386707" lon="9.4897791"><ele>426.5</ele><time>2026-04-19T13:24:42.901Z</time></trkpt><trkpt lat="44.8387217" lon="9.4895925"><ele>430.0</ele><time>2026-04-19T13:24:43.914Z</time></trkpt><trkpt lat="44.838784" lon="9.4894183"><ele>431.33333333333337</ele><time>2026-04-19T13:24:44.882Z</time></trkpt><trkpt lat="44.8388505" lon="9.4892311"><ele>432.66666666666663</ele><time>2026-04-19T13:24:45.977Z</time></trkpt><trkpt lat="44.8389362" lon="9.4889599"><ele>434.0</ele><time>2026-04-19T13:24:47.87Z</time></trkpt><trkpt lat="44.8389608" lon="9.4888365"><ele>435.75</ele><time>2026-04-19T13:24:48.869Z</time></trkpt><trkpt lat="44.8389833" lon="9.4887417"><ele>437.5</ele><time>2026-04-19T13:24:49.92Z</time></trkpt><trkpt lat="44.8389984" lon="9.488605"><ele>439.25</ele><time>2026-04-19T13:24:51.904Z</time></trkpt><trkpt lat="44.8389131" lon="9.4885183"><ele>441.0</ele><time>2026-04-19T13:24:53.904Z</time></trkpt><trkpt lat="44.8387322" lon="9.4885442"><ele>441.0</ele><time>2026-04-19T13:24:56.902Z</time></trkpt><trkpt lat="44.8386663" lon="9.4885371"><ele>441.0</ele><time>2026-04-19T13:24:57.885Z</time></trkpt><trkpt lat="44.8385476" lon="9.4884233"><ele>441.0</ele><time>2026-04-19T13:25:00.066Z</time></trkpt><trkpt lat="44.8384795" lon="9.488278"><ele>441.0</ele><time>2026-04-19T13:25:01.899Z</time></trkpt><trkpt lat="44.8384178" lon="9.4881749"><ele>441.0</ele><time>2026-04-19T13:25:03.911Z</time></trkpt><trkpt lat="44.8383634" lon="9.4881269"><ele>440.5</ele><time>2026-04-19T13:25:05.935Z</time></trkpt><trkpt lat="44.8382978" lon="9.4880948"><ele>440.0</ele><time>2026-04-19T13:25:07.932Z</time></trkpt><trkpt lat="44.8382055" lon="9.488091"><ele>439.5</ele><time>2026-04-19T13:25:09.875Z</time></trkpt><trkpt lat="44.838137" lon="9.4880909"><ele>439.0</ele><time>2026-04-19T13:25:10.872Z</time></trkpt><trkpt lat="44.8380586" lon="9.4880847"><ele>438.5</ele><time>2026-04-19T13:25:11.866Z</time></trkpt><trkpt lat="44.8379926" lon="9.488066"><ele>438.0</ele><time>2026-04-19T13:25:12.877Z</time></trkpt><trkpt lat="44.8378642" lon="9.4880519"><ele>438.0</ele><time>2026-04-19T13:25:14.87Z</time></trkpt><trkpt lat="44.8377819" lon="9.4880641"><ele>438.0</ele><time>2026-04-19T13:25:15.877Z</time></trkpt><trkpt lat="44.8376849" lon="9.4880734"><ele>438.0</ele><time>2026-04-19T13:25:16.966Z</time></trkpt><trkpt lat="44.8376041" lon="9.4880586"><ele>438.0</ele><time>2026-04-19T13:25:17.922Z</time></trkpt><trkpt lat="44.8375281" lon="9.4880121"><ele>438.0</ele><time>2026-04-19T13:25:18.896Z</time></trkpt><trkpt lat="44.8374575" lon="9.4879433"><ele>438.0</ele><time>2026-04-19T13:25:19.885Z</time></trkpt><trkpt lat="44.8374049" lon="9.4878619"><ele>440.3333333333333</ele><time>2026-04-19T13:25:20.885Z</time></trkpt><trkpt lat="44.8373588" lon="9.4877638"><ele>442.66666666666663</ele><time>2026-04-19T13:25:21.865Z</time></trkpt><trkpt lat="44.8373244" lon="9.4876577"><ele>445.0</ele><time>2026-04-19T13:25:22.927Z</time></trkpt><trkpt lat="44.8372904" lon="9.4875683"><ele>447.3333333333333</ele><time>2026-04-19T13:25:23.888Z</time></trkpt><trkpt lat="44.8372379" lon="9.4874865"><ele>449.66666666666663</ele><time>2026-04-19T13:25:24.947Z</time></trkpt><trkpt lat="44.8371723" lon="9.4874333"><ele>452.0</ele><time>2026-04-19T13:25:25.919Z</time></trkpt><trkpt lat="44.8370771" lon="9.4873852"><ele>452.0</ele><time>2026-04-19T13:25:26.904Z</time></trkpt><trkpt lat="44.8369784" lon="9.4873504"><ele>452.00000000000006</ele><time>2026-04-19T13:25:27.93Z</time></trkpt><trkpt lat="44.8368974" lon="9.4873238"><ele>452.00000000000006</ele><time>2026-04-19T13:25:28.887Z</time></trkpt><trkpt lat="44.836814" lon="9.4873165"><ele>452.0</ele><time>2026-04-19T13:25:29.965Z</time></trkpt><trkpt lat="44.8367084" lon="9.4872786"><ele>452.0</ele><time>2026-04-19T13:25:31.948Z</time></trkpt><trkpt lat="44.8367104" lon="9.4871418"><ele>454.8</ele><time>2026-04-19T13:25:33.947Z</time></trkpt><trkpt lat="44.8367684" lon="9.4870025"><ele>457.6</ele><time>2026-04-19T13:25:35.903Z</time></trkpt><trkpt lat="44.8368294" lon="9.4869281"><ele>460.40000000000003</ele><time>2026-04-19T13:25:36.897Z</time></trkpt><trkpt lat="44.8369089" lon="9.486832"><ele>463.20000000000005</ele><time>2026-04-19T13:25:37.901Z</time></trkpt><trkpt lat="44.8369849" lon="9.4867402"><ele>466.0</ele><time>2026-04-19T13:25:38.908Z</time></trkpt><trkpt lat="44.8370536" lon="9.4866732"><ele>466.00000000000006</ele><time>2026-04-19T13:25:39.856Z</time></trkpt><trkpt lat="44.8371296" lon="9.4866338"><ele>466.0</ele><time>2026-04-19T13:25:40.912Z</time></trkpt><trkpt lat="44.8372" lon="9.4866266"><ele>466.0</ele><time>2026-04-19T13:25:41.949Z</time></trkpt><trkpt lat="44.837271" lon="9.4866296"><ele>466.0</ele><time>2026-04-19T13:25:42.919Z</time></trkpt><trkpt lat="44.8373538" lon="9.4866199"><ele>466.00000000000006</ele><time>2026-04-19T13:25:43.925Z</time></trkpt><trkpt lat="44.8374395" lon="9.4865731"><ele>466.0</ele><time>2026-04-19T13:25:45.049Z</time></trkpt><trkpt lat="44.8375816" lon="9.4864012"><ele>466.0</ele><time>2026-04-19T13:25:46.898Z</time></trkpt><trkpt lat="44.8376679" lon="9.4862683"><ele>466.0</ele><time>2026-04-19T13:25:47.947Z</time></trkpt><trkpt lat="44.8377534" lon="9.4861379"><ele>466.0</ele><time>2026-04-19T13:25:48.911Z</time></trkpt><trkpt lat="44.8378503" lon="9.4859797"><ele>466.0</ele><time>2026-04-19T13:25:50.096Z</time></trkpt><trkpt lat="44.837955" lon="9.4857632"><ele>468.20000000000005</ele><time>2026-04-19T13:25:51.921Z</time></trkpt><trkpt lat="44.8380003" lon="9.4856496"><ele>470.40000000000003</ele><time>2026-04-19T13:25:52.839Z</time></trkpt><trkpt lat="44.8380385" lon="9.4855186"><ele>472.6</ele><time>2026-04-19T13:25:53.877Z</time></trkpt><trkpt lat="44.8380679" lon="9.4853662"><ele>474.8</ele><time>2026-04-19T13:25:54.937Z</time></trkpt><trkpt lat="44.8380777" lon="9.4852302"><ele>477.0</ele><time>2026-04-19T13:25:55.909Z</time></trkpt><trkpt lat="44.8380746" lon="9.485094"><ele>478.8333333333333</ele><time>2026-04-19T13:25:56.946Z</time></trkpt><trkpt lat="44.8380679" lon="9.4849815"><ele>480.66666666666663</ele><time>2026-04-19T13:25:57.908Z</time></trkpt><trkpt lat="44.8380665" lon="9.4848765"><ele>482.5</ele><time>2026-04-19T13:25:58.916Z</time></trkpt><trkpt lat="44.8380901" lon="9.4847867"><ele>484.3333333333333</ele><time>2026-04-19T13:25:59.907Z</time></trkpt><trkpt lat="44.8381976" lon="9.4847093"><ele>486.16666666666663</ele><time>2026-04-19T13:26:01.894Z</time></trkpt><trkpt lat="44.8382762" lon="9.4846998"><ele>488.0</ele><time>2026-04-19T13:26:02.927Z</time></trkpt><trkpt lat="44.8383843" lon="9.4846298"><ele>490.59999999999997</ele><time>2026-04-19T13:26:05.004Z</time></trkpt><trkpt lat="44.838364" lon="9.4844753"><ele>493.19999999999993</ele><time>2026-04-19T13:26:06.91Z</time></trkpt><trkpt lat="44.8383186" lon="9.4843863"><ele>495.8</ele><time>2026-04-19T13:26:07.906Z</time></trkpt><trkpt lat="44.8382543" lon="9.4843102"><ele>498.4</ele><time>2026-04-19T13:26:08.918Z</time></trkpt><trkpt lat="44.8381997" lon="9.4842443"><ele>501.0</ele><time>2026-04-19T13:26:09.87Z</time></trkpt><trkpt lat="44.8380699" lon="9.484214"><ele>501.0</ele><time>2026-04-19T13:26:11.897Z</time></trkpt><trkpt lat="44.8379965" lon="9.48426"><ele>501.0</ele><time>2026-04-19T13:26:12.865Z</time></trkpt><trkpt lat="44.8378895" lon="9.4843416"><ele>501.0</ele><time>2026-04-19T13:26:13.934Z</time></trkpt><trkpt lat="44.8377751" lon="9.4844036"><ele>501.0</ele><time>2026-04-19T13:26:14.912Z</time></trkpt><trkpt lat="44.8376511" lon="9.4844493"><ele>500.0</ele><time>2026-04-19T13:26:15.866Z</time></trkpt><trkpt lat="44.8375482" lon="9.4844974"><ele>499.0</ele><time>2026-04-19T13:26:16.819Z</time></trkpt><trkpt lat="44.8374665" lon="9.4845636"><ele>498.0</ele><time>2026-04-19T13:26:17.862Z</time></trkpt><trkpt lat="44.837399" lon="9.4846262"><ele>497.0</ele><time>2026-04-19T13:26:18.877Z</time></trkpt><trkpt lat="44.8373311" lon="9.4846476"><ele>496.0</ele><time>2026-04-19T13:26:19.911Z</time></trkpt><trkpt lat="44.8372528" lon="9.4846347"><ele>495.0</ele><time>2026-04-19T13:26:20.879Z</time></trkpt><trkpt lat="44.8371612" lon="9.4845913"><ele>497.6</ele><time>2026-04-19T13:26:21.921Z</time></trkpt><trkpt lat="44.8370608" lon="9.4845342"><ele>500.2</ele><time>2026-04-19T13:26:22.97Z</time></trkpt><trkpt lat="44.8369648" lon="9.4844845"><ele>502.79999999999995</ele><time>2026-04-19T13:26:23.887Z</time></trkpt><trkpt lat="44.8368455" lon="9.4844559"><ele>505.4</ele><time>2026-04-19T13:26:24.929Z</time></trkpt><trkpt lat="44.8367515" lon="9.4844338"><ele>508.0</ele><time>2026-04-19T13:26:25.93Z</time></trkpt><trkpt lat="44.8366681" lon="9.4843949"><ele>509.79999999999995</ele><time>2026-04-19T13:26:26.944Z</time></trkpt><trkpt lat="44.8365824" lon="9.4843344"><ele>511.59999999999997</ele><time>2026-04-19T13:26:28.062Z</time></trkpt><trkpt lat="44.83647" lon="9.4841949"><ele>513.4000000000001</ele><time>2026-04-19T13:26:29.922Z</time></trkpt><trkpt lat="44.8364028" lon="9.4840868"><ele>515.2</ele><time>2026-04-19T13:26:30.987Z</time></trkpt><trkpt lat="44.8363545" lon="9.4839746"><ele>517.0</ele><time>2026-04-19T13:26:31.908Z</time></trkpt><trkpt lat="44.8362953" lon="9.4838338"><ele>518.5</ele><time>2026-04-19T13:26:33.044Z</time></trkpt><trkpt lat="44.8362563" lon="9.4837093"><ele>520.0</ele><time>2026-04-19T13:26:33.983Z</time></trkpt><trkpt lat="44.8362214" lon="9.483603"><ele>521.5</ele><time>2026-04-19T13:26:34.906Z</time></trkpt><trkpt lat="44.8361918" lon="9.4834971"><ele>523.0</ele><time>2026-04-19T13:26:35.931Z</time></trkpt><trkpt lat="44.8361606" lon="9.4833809"><ele>524.5</ele><time>2026-04-19T13:26:36.927Z</time></trkpt><trkpt lat="44.8361509" lon="9.4832489"><ele>526.0</ele><time>2026-04-19T13:26:37.954Z</time></trkpt><trkpt lat="44.8361412" lon="9.4831168"><ele>527.0</ele><time>2026-04-19T13:26:39.064Z</time></trkpt><trkpt lat="44.8361782" lon="9.4829106"><ele>528.0</ele><time>2026-04-19T13:26:40.864Z</time></trkpt><trkpt lat="44.8362225" lon="9.4827998"><ele>529.0</ele><time>2026-04-19T13:26:41.902Z</time></trkpt><trkpt lat="44.8362613" lon="9.4827074"><ele>530.0</ele><time>2026-04-19T13:26:42.916Z</time></trkpt><trkpt lat="44.8362898" lon="9.4826118"><ele>531.0</ele><time>2026-04-19T13:26:43.905Z</time></trkpt><trkpt lat="44.8363" lon="9.48251"><ele>531.0</ele><time>2026-04-19T13:26:44.875Z</time></trkpt><trkpt lat="44.8362835" lon="9.4823915"><ele>531.0</ele><time>2026-04-19T13:26:45.927Z</time></trkpt><trkpt lat="44.8362406" lon="9.4822921"><ele>531.0</ele><time>2026-04-19T13:26:46.915Z</time></trkpt><trkpt lat="44.836196" lon="9.4822104"><ele>531.0</ele><time>2026-04-19T13:26:47.895Z</time></trkpt><trkpt lat="44.836154" lon="9.482132"><ele>531.0</ele><time>2026-04-19T13:26:48.91Z</time></trkpt><trkpt lat="44.8361128" lon="9.4820403"><ele>531.0</ele><time>2026-04-19T13:26:49.912Z</time></trkpt><trkpt lat="44.836067" lon="9.4819436"><ele>530.8</ele><time>2026-04-19T13:26:51.044Z</time></trkpt><trkpt lat="44.8359907" lon="9.4817881"><ele>530.6</ele><time>2026-04-19T13:26:52.929Z</time></trkpt><trkpt lat="44.8359461" lon="9.4817158"><ele>530.4</ele><time>2026-04-19T13:26:53.882Z</time></trkpt><trkpt lat="44.835847" lon="9.4816015"><ele>530.2</ele><time>2026-04-19T13:26:55.924Z</time></trkpt><trkpt lat="44.8357794" lon="9.4815738"><ele>530.0</ele><time>2026-04-19T13:26:56.885Z</time></trkpt><trkpt lat="44.8356956" lon="9.4815526"><ele>530.0</ele><time>2026-04-19T13:26:57.973Z</time></trkpt><trkpt lat="44.8356315" lon="9.4815419"><ele>530.0</ele><time>2026-04-19T13:26:58.886Z</time></trkpt><trkpt lat="44.8355595" lon="9.4815199"><ele>530.0</ele><time>2026-04-19T13:26:59.961Z</time></trkpt><trkpt lat="44.8354891" lon="9.4815004"><ele>530.0</ele><time>2026-04-19T13:27:00.87Z</time></trkpt><trkpt lat="44.8354049" lon="9.4814722"><ele>530.0</ele><time>2026-04-19T13:27:01.943Z</time></trkpt><trkpt lat="44.8353223" lon="9.4814497"><ele>530.0</ele><time>2026-04-19T13:27:02.934Z</time></trkpt><trkpt lat="44.8352407" lon="9.4814334"><ele>530.0</ele><time>2026-04-19T13:27:03.88Z</time></trkpt><trkpt lat="44.8351578" lon="9.4814235"><ele>530.0</ele><time>2026-04-19T13:27:04.896Z</time></trkpt><trkpt lat="44.835089" lon="9.4814283"><ele>530.0</ele><time>2026-04-19T13:27:05.872Z</time></trkpt><trkpt lat="44.8350123" lon="9.4814337"><ele>530.0</ele><time>2026-04-19T13:27:07.91Z</time></trkpt><trkpt lat="44.8349434" lon="9.4814437"><ele>530.0</ele><time>2026-04-19T13:27:09.895Z</time></trkpt><trkpt lat="44.8348141" lon="9.481435"><ele>530.0</ele><time>2026-04-19T13:27:12.984Z</time></trkpt><trkpt lat="44.8347181" lon="9.4813991"><ele>528.8</ele><time>2026-04-19T13:27:14.885Z</time></trkpt><trkpt lat="44.8346596" lon="9.481359"><ele>527.6</ele><time>2026-04-19T13:27:15.929Z</time></trkpt><trkpt lat="44.8346018" lon="9.4813128"><ele>526.4</ele><time>2026-04-19T13:27:16.895Z</time></trkpt><trkpt lat="44.8345345" lon="9.4812528"><ele>525.2</ele><time>2026-04-19T13:27:17.988Z</time></trkpt><trkpt lat="44.8344298" lon="9.4811519"><ele>524.0</ele><time>2026-04-19T13:27:19.961Z</time></trkpt><trkpt lat="44.8343423" lon="9.4810453"><ele>524.3333333333333</ele><time>2026-04-19T13:27:21.902Z</time></trkpt><trkpt lat="44.8342785" lon="9.4809088"><ele>524.6666666666666</ele><time>2026-04-19T13:27:23.914Z</time></trkpt><trkpt lat="44.8342529" lon="9.4808233"><ele>525.0</ele><time>2026-04-19T13:27:24.928Z</time></trkpt><trkpt lat="44.8342353" lon="9.4807328"><ele>525.3333333333334</ele><time>2026-04-19T13:27:25.904Z</time></trkpt><trkpt lat="44.8342229" lon="9.4806375"><ele>525.6666666666667</ele><time>2026-04-19T13:27:26.856Z</time></trkpt><trkpt lat="44.8342031" lon="9.480533"><ele>526.0</ele><time>2026-04-19T13:27:27.874Z</time></trkpt><trkpt lat="44.8341506" lon="9.4803637"><ele>529.8</ele><time>2026-04-19T13:27:29.916Z</time></trkpt><trkpt lat="44.8341124" lon="9.480284"><ele>533.6</ele><time>2026-04-19T13:27:30.834Z</time></trkpt><trkpt lat="44.8340666" lon="9.4801894"><ele>537.4</ele><time>2026-04-19T13:27:31.874Z</time></trkpt><trkpt lat="44.8340181" lon="9.4800834"><ele>541.2</ele><time>2026-04-19T13:27:32.868Z</time></trkpt><trkpt lat="44.8339635" lon="9.4799536"><ele>545.0</ele><time>2026-04-19T13:27:33.906Z</time></trkpt><trkpt lat="44.8338981" lon="9.4798069"><ele>545.0</ele><time>2026-04-19T13:27:34.943Z</time></trkpt><trkpt lat="44.8338252" lon="9.4796805"><ele>545.0</ele><time>2026-04-19T13:27:35.905Z</time></trkpt><trkpt lat="44.8337466" lon="9.479578"><ele>545.0</ele><time>2026-04-19T13:27:36.982Z</time></trkpt><trkpt lat="44.8336911" lon="9.4794963"><ele>545.0</ele><time>2026-04-19T13:27:37.9Z</time></trkpt><trkpt lat="44.8336518" lon="9.4794129"><ele>545.0</ele><time>2026-04-19T13:27:38.903Z</time></trkpt><trkpt lat="44.8336182" lon="9.4793094"><ele>549.2</ele><time>2026-04-19T13:27:39.961Z</time></trkpt><trkpt lat="44.833603" lon="9.4792014"><ele>553.4</ele><time>2026-04-19T13:27:40.903Z</time></trkpt><trkpt lat="44.8335921" lon="9.4790633"><ele>557.6</ele><time>2026-04-19T13:27:41.877Z</time></trkpt><trkpt lat="44.8335821" lon="9.4789114"><ele>561.8</ele><time>2026-04-19T13:27:42.927Z</time></trkpt><trkpt lat="44.8335656" lon="9.4787457"><ele>566.0</ele><time>2026-04-19T13:27:43.984Z</time></trkpt><trkpt lat="44.8335059" lon="9.4784712"><ele>567.2</ele><time>2026-04-19T13:27:46.063Z</time></trkpt><trkpt lat="44.8334901" lon="9.4782742"><ele>568.4000000000001</ele><time>2026-04-19T13:27:47.897Z</time></trkpt><trkpt lat="44.8335099" lon="9.4781747"><ele>569.6</ele><time>2026-04-19T13:27:48.916Z</time></trkpt><trkpt lat="44.8335502" lon="9.4780809"><ele>570.8000000000001</ele><time>2026-04-19T13:27:49.862Z</time></trkpt><trkpt lat="44.8336002" lon="9.4779412"><ele>572.0</ele><time>2026-04-19T13:27:50.978Z</time></trkpt><trkpt lat="44.8336328" lon="9.477805"><ele>572.1666666666666</ele><time>2026-04-19T13:27:51.888Z</time></trkpt><trkpt lat="44.8336509" lon="9.4776595"><ele>572.3333333333333</ele><time>2026-04-19T13:27:52.936Z</time></trkpt><trkpt lat="44.8336561" lon="9.4775577"><ele>572.5</ele><time>2026-04-19T13:27:53.874Z</time></trkpt><trkpt lat="44.8336612" lon="9.4774504"><ele>572.6666666666666</ele><time>2026-04-19T13:27:55.907Z</time></trkpt><trkpt lat="44.8336774" lon="9.4773162"><ele>572.8333333333334</ele><time>2026-04-19T13:27:58.889Z</time></trkpt><trkpt lat="44.8336998" lon="9.4772254"><ele>573.0</ele><time>2026-04-19T13:28:00.981Z</time></trkpt><trkpt lat="44.8337033" lon="9.4770712"><ele>572.5</ele><time>2026-04-19T13:28:04.904Z</time></trkpt><trkpt lat="44.8336961" lon="9.4768769"><ele>572.0</ele><time>2026-04-19T13:28:07.044Z</time></trkpt><trkpt lat="44.8337049" lon="9.4766839"><ele>571.5</ele><time>2026-04-19T13:28:09.897Z</time></trkpt><trkpt lat="44.8337307" lon="9.476534"><ele>571.0</ele><time>2026-04-19T13:28:11.931Z</time></trkpt><trkpt lat="44.8337715" lon="9.4763598"><ele>570.6</ele><time>2026-04-19T13:28:14.077Z</time></trkpt><trkpt lat="44.8337997" lon="9.4762384"><ele>570.2</ele><time>2026-04-19T13:28:15.911Z</time></trkpt><trkpt lat="44.8338132" lon="9.4761429"><ele>569.8</ele><time>2026-04-19T13:28:17.98Z</time></trkpt><trkpt lat="44.8338088" lon="9.4760455"><ele>569.4</ele><time>2026-04-19T13:28:23.902Z</time></trkpt><trkpt lat="44.8337885" lon="9.4758455"><ele>569.0</ele><time>2026-04-19T13:28:25.999Z</time></trkpt><trkpt lat="44.8337779" lon="9.4757"><ele>569.0</ele><time>2026-04-19T13:28:27.068Z</time></trkpt><trkpt lat="44.8337651" lon="9.4755763"><ele>569.0</ele><time>2026-04-19T13:28:27.972Z</time></trkpt><trkpt lat="44.8337454" lon="9.4754631"><ele>569.0</ele><time>2026-04-19T13:28:29.005Z</time></trkpt><trkpt lat="44.8337303" lon="9.4753743"><ele>569.0</ele><time>2026-04-19T13:28:29.979Z</time></trkpt><trkpt lat="44.8337452" lon="9.4751975"><ele>569.0</ele><time>2026-04-19T13:28:32.004Z</time></trkpt><trkpt lat="44.8337866" lon="9.4751093"><ele>569.0</ele><time>2026-04-19T13:28:33.078Z</time></trkpt><trkpt lat="44.8339232" lon="9.4750115"><ele>568.8</ele><time>2026-04-19T13:28:34.984Z</time></trkpt><trkpt lat="44.8340203" lon="9.4749875"><ele>568.5999999999999</ele><time>2026-04-19T13:28:36.037Z</time></trkpt><trkpt lat="44.8341695" lon="9.4749217"><ele>568.4</ele><time>2026-04-19T13:28:37.922Z</time></trkpt><trkpt lat="44.834245" lon="9.4748564"><ele>568.1999999999999</ele><time>2026-04-19T13:28:38.907Z</time></trkpt><trkpt lat="44.8343247" lon="9.4747847"><ele>568.0</ele><time>2026-04-19T13:28:39.872Z</time></trkpt><trkpt lat="44.8344309" lon="9.474685"><ele>569.75</ele><time>2026-04-19T13:28:41.039Z</time></trkpt><trkpt lat="44.834522" lon="9.4746028"><ele>571.5</ele><time>2026-04-19T13:28:42.033Z</time></trkpt><trkpt lat="44.8346191" lon="9.4745153"><ele>573.25</ele><time>2026-04-19T13:28:43.067Z</time></trkpt><trkpt lat="44.8347888" lon="9.4743377"><ele>575.0</ele><time>2026-04-19T13:28:44.933Z</time></trkpt><trkpt lat="44.8348649" lon="9.4742374"><ele>575.0</ele><time>2026-04-19T13:28:45.866Z</time></trkpt><trkpt lat="44.8349465" lon="9.4741243"><ele>575.0</ele><time>2026-04-19T13:28:46.899Z</time></trkpt><trkpt lat="44.8350202" lon="9.4739969"><ele>575.0</ele><time>2026-04-19T13:28:47.998Z</time></trkpt><trkpt lat="44.8350719" lon="9.4738786"><ele>575.0</ele><time>2026-04-19T13:28:48.959Z</time></trkpt><trkpt lat="44.8351109" lon="9.473743"><ele>575.0</ele><time>2026-04-19T13:28:50.003Z</time></trkpt><trkpt lat="44.8351404" lon="9.4736121"><ele>577.5</ele><time>2026-04-19T13:28:51.002Z</time></trkpt><trkpt lat="44.8351773" lon="9.4734955"><ele>580.0</ele><time>2026-04-19T13:28:51.972Z</time></trkpt><trkpt lat="44.8352092" lon="9.4733707"><ele>582.5</ele><time>2026-04-19T13:28:53.012Z</time></trkpt><trkpt lat="44.8352169" lon="9.4732593"><ele>585.0</ele><time>2026-04-19T13:28:53.96Z</time></trkpt><trkpt lat="44.8352074" lon="9.4731635"><ele>587.5</ele><time>2026-04-19T13:28:55.033Z</time></trkpt><trkpt lat="44.835238" lon="9.4730522"><ele>590.0</ele><time>2026-04-19T13:28:56.969Z</time></trkpt><trkpt lat="44.8353208" lon="9.4730872"><ele>590.0</ele><time>2026-04-19T13:28:58.983Z</time></trkpt><trkpt lat="44.8353425" lon="9.4731872"><ele>590.0</ele><time>2026-04-19T13:29:00.078Z</time></trkpt><trkpt lat="44.8353483" lon="9.4734302"><ele>590.0</ele><time>2026-04-19T13:29:01.974Z</time></trkpt><trkpt lat="44.8353597" lon="9.4735771"><ele>590.0</ele><time>2026-04-19T13:29:02.908Z</time></trkpt><trkpt lat="44.8353789" lon="9.47375"><ele>590.4</ele><time>2026-04-19T13:29:03.999Z</time></trkpt><trkpt lat="44.8354036" lon="9.4738828"><ele>590.8</ele><time>2026-04-19T13:29:04.926Z</time></trkpt><trkpt lat="44.8354429" lon="9.4740121"><ele>591.2</ele><time>2026-04-19T13:29:05.94Z</time></trkpt><trkpt lat="44.8354784" lon="9.4741281"><ele>591.6</ele><time>2026-04-19T13:29:06.868Z</time></trkpt><trkpt lat="44.8355069" lon="9.4742696"><ele>592.0</ele><time>2026-04-19T13:29:07.945Z</time></trkpt><trkpt lat="44.8355186" lon="9.474406"><ele>592.0</ele><time>2026-04-19T13:29:08.914Z</time></trkpt><trkpt lat="44.8355038" lon="9.474538"><ele>592.0</ele><time>2026-04-19T13:29:09.879Z</time></trkpt><trkpt lat="44.8354813" lon="9.4746824"><ele>592.0</ele><time>2026-04-19T13:29:10.898Z</time></trkpt><trkpt lat="44.835446" lon="9.4748282"><ele>592.0</ele><time>2026-04-19T13:29:11.937Z</time></trkpt><trkpt lat="44.8354099" lon="9.4749532"><ele>592.0</ele><time>2026-04-19T13:29:12.901Z</time></trkpt><trkpt lat="44.8353758" lon="9.4750886"><ele>592.8333333333334</ele><time>2026-04-19T13:29:14.024Z</time></trkpt><trkpt lat="44.8353666" lon="9.4753023"><ele>593.6666666666667</ele><time>2026-04-19T13:29:15.912Z</time></trkpt><trkpt lat="44.8353817" lon="9.4754079"><ele>594.5</ele><time>2026-04-19T13:29:16.9Z</time></trkpt><trkpt lat="44.8354033" lon="9.4754987"><ele>595.3333333333334</ele><time>2026-04-19T13:29:17.929Z</time></trkpt><trkpt lat="44.8354431" lon="9.4755688"><ele>596.1666666666666</ele><time>2026-04-19T13:29:18.958Z</time></trkpt><trkpt lat="44.8355273" lon="9.4756043"><ele>597.0</ele><time>2026-04-19T13:29:20.966Z</time></trkpt><trkpt lat="44.8355991" lon="9.4755187"><ele>597.0</ele><time>2026-04-19T13:29:26.879Z</time></trkpt><trkpt lat="44.8356384" lon="9.4754451"><ele>597.0</ele><time>2026-04-19T13:29:27.908Z</time></trkpt><trkpt lat="44.8356732" lon="9.4753473"><ele>597.0</ele><time>2026-04-19T13:29:28.916Z</time></trkpt><trkpt lat="44.835724" lon="9.4752429"><ele>597.0</ele><time>2026-04-19T13:29:29.911Z</time></trkpt><trkpt lat="44.8357912" lon="9.4751446"><ele>597.0</ele><time>2026-04-19T13:29:30.877Z</time></trkpt><trkpt lat="44.8358815" lon="9.4750438"><ele>597.0</ele><time>2026-04-19T13:29:31.969Z</time></trkpt><trkpt lat="44.8359661" lon="9.4749664"><ele>604.0</ele><time>2026-04-19T13:29:32.94Z</time></trkpt><trkpt lat="44.8360578" lon="9.4749081"><ele>611.0</ele><time>2026-04-19T13:29:33.896Z</time></trkpt><trkpt lat="44.8361832" lon="9.4748647"><ele>618.0</ele><time>2026-04-19T13:29:35.036Z</time></trkpt><trkpt lat="44.8364156" lon="9.4748227"><ele>618.0</ele><time>2026-04-19T13:29:36.932Z</time></trkpt><trkpt lat="44.8365411" lon="9.4747732"><ele>618.0</ele><time>2026-04-19T13:29:37.939Z</time></trkpt><trkpt lat="44.8366589" lon="9.4746929"><ele>618.0</ele><time>2026-04-19T13:29:38.909Z</time></trkpt><trkpt lat="44.8367954" lon="9.4746058"><ele>618.0</ele><time>2026-04-19T13:29:40.038Z</time></trkpt><trkpt lat="44.8370238" lon="9.4744655"><ele>618.5</ele><time>2026-04-19T13:29:41.955Z</time></trkpt><trkpt lat="44.8371251" lon="9.4743448"><ele>619.0</ele><time>2026-04-19T13:29:42.944Z</time></trkpt><trkpt lat="44.8372243" lon="9.4742087"><ele>619.5</ele><time>2026-04-19T13:29:43.968Z</time></trkpt><trkpt lat="44.8373212" lon="9.4740855"><ele>620.0</ele><time>2026-04-19T13:29:44.925Z</time></trkpt><trkpt lat="44.8374341" lon="9.4739435"><ele>618.0</ele><time>2026-04-19T13:29:46.048Z</time></trkpt><trkpt lat="44.8375979" lon="9.473724"><ele>616.0</ele><time>2026-04-19T13:29:47.969Z</time></trkpt><trkpt lat="44.8377621" lon="9.4735763"><ele>614.0</ele><time>2026-04-19T13:29:49.909Z</time></trkpt><trkpt lat="44.8378444" lon="9.473529"><ele>617.2</ele><time>2026-04-19T13:29:50.902Z</time></trkpt><trkpt lat="44.8379222" lon="9.4734647"><ele>620.4</ele><time>2026-04-19T13:29:51.901Z</time></trkpt><trkpt lat="44.83799" lon="9.4733738"><ele>623.6</ele><time>2026-04-19T13:29:52.974Z</time></trkpt><trkpt lat="44.8380284" lon="9.4732612"><ele>626.8</ele><time>2026-04-19T13:29:53.881Z</time></trkpt><trkpt lat="44.8380692" lon="9.4731101"><ele>630.0</ele><time>2026-04-19T13:29:54.866Z</time></trkpt><trkpt lat="44.8380944" lon="9.4729424"><ele>630.5</ele><time>2026-04-19T13:29:55.868Z</time></trkpt><trkpt lat="44.8381088" lon="9.472757"><ele>631.0</ele><time>2026-04-19T13:29:56.857Z</time></trkpt><trkpt lat="44.8381106" lon="9.4725816"><ele>631.5</ele><time>2026-04-19T13:29:57.872Z</time></trkpt><trkpt lat="44.8381238" lon="9.4724167"><ele>632.0</ele><time>2026-04-19T13:29:58.883Z</time></trkpt><trkpt lat="44.8381565" lon="9.4722588"><ele>631.25</ele><time>2026-04-19T13:29:59.883Z</time></trkpt><trkpt lat="44.8382092" lon="9.4720901"><ele>630.5</ele><time>2026-04-19T13:30:00.947Z</time></trkpt><trkpt lat="44.8382724" lon="9.4719335"><ele>629.75</ele><time>2026-04-19T13:30:01.933Z</time></trkpt><trkpt lat="44.8383452" lon="9.471778"><ele>629.0</ele><time>2026-04-19T13:30:02.907Z</time></trkpt><trkpt lat="44.8384254" lon="9.4716175"><ele>631.8</ele><time>2026-04-19T13:30:03.937Z</time></trkpt><trkpt lat="44.8384892" lon="9.4714837"><ele>634.5999999999999</ele><time>2026-04-19T13:30:04.868Z</time></trkpt><trkpt lat="44.8385539" lon="9.4713551"><ele>637.4</ele><time>2026-04-19T13:30:05.932Z</time></trkpt><trkpt lat="44.8385915" lon="9.4712446"><ele>640.1999999999999</ele><time>2026-04-19T13:30:06.912Z</time></trkpt><trkpt lat="44.8386083" lon="9.4711281"><ele>643.0</ele><time>2026-04-19T13:30:08.004Z</time></trkpt><trkpt lat="44.8385954" lon="9.471014"><ele>643.0</ele><time>2026-04-19T13:30:08.931Z</time></trkpt><trkpt lat="44.8385499" lon="9.4708887"><ele>643.0</ele><time>2026-04-19T13:30:09.868Z</time></trkpt><trkpt lat="44.8384965" lon="9.4707287"><ele>643.0</ele><time>2026-04-19T13:30:10.886Z</time></trkpt><trkpt lat="44.8384622" lon="9.4705484"><ele>643.0</ele><time>2026-04-19T13:30:12.028Z</time></trkpt><trkpt lat="44.8384882" lon="9.4702717"><ele>641.5</ele><time>2026-04-19T13:30:13.962Z</time></trkpt><trkpt lat="44.838522" lon="9.4701643"><ele>640.0</ele><time>2026-04-19T13:30:14.9Z</time></trkpt><trkpt lat="44.8385599" lon="9.4700829"><ele>638.5</ele><time>2026-04-19T13:30:15.912Z</time></trkpt><trkpt lat="44.8386763" lon="9.4700583"><ele>637.0</ele><time>2026-04-19T13:30:17.988Z</time></trkpt><trkpt lat="44.8387307" lon="9.4701116"><ele>635.5</ele><time>2026-04-19T13:30:18.933Z</time></trkpt><trkpt lat="44.8387951" lon="9.4702108"><ele>634.0</ele><time>2026-04-19T13:30:20.133Z</time></trkpt><trkpt lat="44.8389445" lon="9.4703367"><ele>634.0</ele><time>2026-04-19T13:30:21.967Z</time></trkpt><trkpt lat="44.8390434" lon="9.4703616"><ele>634.0</ele><time>2026-04-19T13:30:22.947Z</time></trkpt><trkpt lat="44.8391483" lon="9.4703664"><ele>634.0</ele><time>2026-04-19T13:30:23.931Z</time></trkpt><trkpt lat="44.8392576" lon="9.4703826"><ele>634.0</ele><time>2026-04-19T13:30:24.972Z</time></trkpt><trkpt lat="44.8393499" lon="9.4704227"><ele>634.0</ele><time>2026-04-19T13:30:25.991Z</time></trkpt><trkpt lat="44.8394209" lon="9.4704837"><ele>636.6666666666667</ele><time>2026-04-19T13:30:26.961Z</time></trkpt><trkpt lat="44.839476" lon="9.4705804"><ele>639.3333333333334</ele><time>2026-04-19T13:30:28.009Z</time></trkpt><trkpt lat="44.8395116" lon="9.470676"><ele>642.0</ele><time>2026-04-19T13:30:28.978Z</time></trkpt><trkpt lat="44.8395421" lon="9.4707756"><ele>644.6666666666666</ele><time>2026-04-19T13:30:29.909Z</time></trkpt><trkpt lat="44.8395705" lon="9.4709025"><ele>647.3333333333333</ele><time>2026-04-19T13:30:31.014Z</time></trkpt><trkpt lat="44.8395881" lon="9.4710011"><ele>650.0</ele><time>2026-04-19T13:30:31.983Z</time></trkpt><trkpt lat="44.8396054" lon="9.4710949"><ele>650.0</ele><time>2026-04-19T13:30:33.041Z</time></trkpt><trkpt lat="44.8396443" lon="9.4712077"><ele>650.0</ele><time>2026-04-19T13:30:34.988Z</time></trkpt><trkpt lat="44.839756" lon="9.4711907"><ele>650.0</ele><time>2026-04-19T13:30:37.897Z</time></trkpt><trkpt lat="44.8398436" lon="9.4710787"><ele>650.0</ele><time>2026-04-19T13:30:39.897Z</time></trkpt><trkpt lat="44.8399087" lon="9.4710024"><ele>650.0</ele><time>2026-04-19T13:30:40.985Z</time></trkpt><trkpt lat="44.8399758" lon="9.4709199"><ele>650.0</ele><time>2026-04-19T13:30:41.954Z</time></trkpt><trkpt lat="44.8400444" lon="9.4708278"><ele>650.0</ele><time>2026-04-19T13:30:42.906Z</time></trkpt><trkpt lat="44.8401265" lon="9.4707162"><ele>650.0</ele><time>2026-04-19T13:30:44.01Z</time></trkpt><trkpt lat="44.8402096" lon="9.4706099"><ele>650.0</ele><time>2026-04-19T13:30:45.036Z</time></trkpt><trkpt lat="44.8402822" lon="9.4705273"><ele>650.0</ele><time>2026-04-19T13:30:45.954Z</time></trkpt><trkpt lat="44.8403645" lon="9.4704551"><ele>649.0</ele><time>2026-04-19T13:30:46.984Z</time></trkpt><trkpt lat="44.8404389" lon="9.4703952"><ele>648.0</ele><time>2026-04-19T13:30:47.914Z</time></trkpt><trkpt lat="44.8405131" lon="9.4703428"><ele>647.0</ele><time>2026-04-19T13:30:48.936Z</time></trkpt><trkpt lat="44.8405849" lon="9.4703048"><ele>646.0</ele><time>2026-04-19T13:30:49.899Z</time></trkpt><trkpt lat="44.8406523" lon="9.4702792"><ele>645.0</ele><time>2026-04-19T13:30:51.042Z</time></trkpt><trkpt lat="44.8407543" lon="9.4702532"><ele>644.0</ele><time>2026-04-19T13:30:53.022Z</time></trkpt><trkpt lat="44.8408387" lon="9.4702544"><ele>644.0</ele><time>2026-04-19T13:30:54.934Z</time></trkpt><trkpt lat="44.840937" lon="9.4702717"><ele>644.0</ele><time>2026-04-19T13:30:56.975Z</time></trkpt><trkpt lat="44.8410508" lon="9.4703169"><ele>644.0</ele><time>2026-04-19T13:30:59.049Z</time></trkpt><trkpt lat="44.8411115" lon="9.4703464"><ele>644.0</ele><time>2026-04-19T13:31:00.03Z</time></trkpt><trkpt lat="44.8411799" lon="9.4703711"><ele>644.0</ele><time>2026-04-19T13:31:01.023Z</time></trkpt><trkpt lat="44.8412514" lon="9.4703914"><ele>644.0</ele><time>2026-04-19T13:31:02.033Z</time></trkpt><trkpt lat="44.8413222" lon="9.4704019"><ele>644.1666666666666</ele><time>2026-04-19T13:31:02.969Z</time></trkpt><trkpt lat="44.8414008" lon="9.4704008"><ele>644.3333333333333</ele><time>2026-04-19T13:31:03.993Z</time></trkpt><trkpt lat="44.8414716" lon="9.4703954"><ele>644.5</ele><time>2026-04-19T13:31:04.899Z</time></trkpt><trkpt lat="44.841541" lon="9.4703844"><ele>644.6666666666666</ele><time>2026-04-19T13:31:05.939Z</time></trkpt><trkpt lat="44.8416514" lon="9.4703721"><ele>644.8333333333334</ele><time>2026-04-19T13:31:08.003Z</time></trkpt><trkpt lat="44.8417541" lon="9.4703589"><ele>645.0</ele><time>2026-04-19T13:31:10.038Z</time></trkpt><trkpt lat="44.8418766" lon="9.4703535"><ele>645.5</ele><time>2026-04-19T13:31:12.028Z</time></trkpt><trkpt lat="44.8419424" lon="9.4703579"><ele>646.0</ele><time>2026-04-19T13:31:12.979Z</time></trkpt><trkpt lat="44.8420112" lon="9.4703766"><ele>646.5</ele><time>2026-04-19T13:31:14.058Z</time></trkpt><trkpt lat="44.8420799" lon="9.4704107"><ele>647.0</ele><time>2026-04-19T13:31:15.005Z</time></trkpt><trkpt lat="44.8421574" lon="9.4704415"><ele>647.5</ele><time>2026-04-19T13:31:15.987Z</time></trkpt><trkpt lat="44.8422466" lon="9.4704722"><ele>648.0</ele><time>2026-04-19T13:31:17.051Z</time></trkpt><trkpt lat="44.8423284" lon="9.4704881"><ele>648.0</ele><time>2026-04-19T13:31:17.977Z</time></trkpt><trkpt lat="44.8424236" lon="9.4704758"><ele>648.0</ele><time>2026-04-19T13:31:19.086Z</time></trkpt><trkpt lat="44.8425159" lon="9.4704358"><ele>648.0</ele><time>2026-04-19T13:31:20.13Z</time></trkpt><trkpt lat="44.8426015" lon="9.4703895"><ele>648.0</ele><time>2026-04-19T13:31:21.052Z</time></trkpt><trkpt lat="44.8426861" lon="9.470333"><ele>648.0</ele><time>2026-04-19T13:31:22.051Z</time></trkpt><trkpt lat="44.8427792" lon="9.4702693"><ele>649.8</ele><time>2026-04-19T13:31:23.027Z</time></trkpt><trkpt lat="44.842866" lon="9.470194"><ele>651.5999999999999</ele><time>2026-04-19T13:31:24.015Z</time></trkpt><trkpt lat="44.8429515" lon="9.4701104"><ele>653.4000000000001</ele><time>2026-04-19T13:31:25.026Z</time></trkpt><trkpt lat="44.843053" lon="9.4700263"><ele>655.2</ele><time>2026-04-19T13:31:26.098Z</time></trkpt><trkpt lat="44.8431566" lon="9.4699735"><ele>657.0</ele><time>2026-04-19T13:31:27.002Z</time></trkpt><trkpt lat="44.8432776" lon="9.469914"><ele>657.0</ele><time>2026-04-19T13:31:28.044Z</time></trkpt><trkpt lat="44.8433892" lon="9.4698461"><ele>657.0</ele><time>2026-04-19T13:31:29.049Z</time></trkpt><trkpt lat="44.8434978" lon="9.4697756"><ele>657.0</ele><time>2026-04-19T13:31:30.019Z</time></trkpt><trkpt lat="44.8436339" lon="9.4697086"><ele>657.0</ele><time>2026-04-19T13:31:31.278Z</time></trkpt><trkpt lat="44.8437858" lon="9.469613"><ele>658.0</ele><time>2026-04-19T13:31:32.985Z</time></trkpt><trkpt lat="44.8438524" lon="9.4695108"><ele>659.0</ele><time>2026-04-19T13:31:33.977Z</time></trkpt><trkpt lat="44.843905" lon="9.4693771"><ele>660.0</ele><time>2026-04-19T13:31:35.008Z</time></trkpt><trkpt lat="44.8439438" lon="9.4692353"><ele>661.0</ele><time>2026-04-19T13:31:36.02Z</time></trkpt><trkpt lat="44.8439861" lon="9.4691043"><ele>662.0</ele><time>2026-04-19T13:31:37.027Z</time></trkpt><trkpt lat="44.8440379" lon="9.4689985"><ele>662.0</ele><time>2026-04-19T13:31:37.98Z</time></trkpt><trkpt lat="44.844113" lon="9.4688838"><ele>662.0</ele><time>2026-04-19T13:31:39.077Z</time></trkpt><trkpt lat="44.8441827" lon="9.4687697"><ele>662.0</ele><time>2026-04-19T13:31:40.026Z</time></trkpt><trkpt lat="44.8442607" lon="9.4686541"><ele>662.0</ele><time>2026-04-19T13:31:41.005Z</time></trkpt><trkpt lat="44.8443588" lon="9.4685433"><ele>661.5</ele><time>2026-04-19T13:31:42.153Z</time></trkpt><trkpt lat="44.8445618" lon="9.468445"><ele>661.0</ele><time>2026-04-19T13:31:44.103Z</time></trkpt><trkpt lat="44.8446662" lon="9.468412"><ele>660.5</ele><time>2026-04-19T13:31:45.027Z</time></trkpt><trkpt lat="44.8447756" lon="9.4683643"><ele>660.0</ele><time>2026-04-19T13:31:46.031Z</time></trkpt><trkpt lat="44.844891" lon="9.4682929"><ele>660.0</ele><time>2026-04-19T13:31:47.169Z</time></trkpt><trkpt lat="44.8450971" lon="9.4681662"><ele>660.0</ele><time>2026-04-19T13:31:49.143Z</time></trkpt><trkpt lat="44.8452073" lon="9.4681229"><ele>660.0</ele><time>2026-04-19T13:31:50.111Z</time></trkpt><trkpt lat="44.845319" lon="9.4680869"><ele>660.2</ele><time>2026-04-19T13:31:51.087Z</time></trkpt><trkpt lat="44.84542" lon="9.4680439"><ele>660.4</ele><time>2026-04-19T13:31:52.086Z</time></trkpt><trkpt lat="44.8455093" lon="9.4679776"><ele>660.5999999999999</ele><time>2026-04-19T13:31:53.033Z</time></trkpt><trkpt lat="44.8455745" lon="9.4678816"><ele>660.8</ele><time>2026-04-19T13:31:54.077Z</time></trkpt><trkpt lat="44.8456068" lon="9.4677731"><ele>661.0</ele><time>2026-04-19T13:31:55.061Z</time></trkpt><trkpt lat="44.8456347" lon="9.467622"><ele>661.0</ele><time>2026-04-19T13:31:56.135Z</time></trkpt><trkpt lat="44.8457039" lon="9.4673321"><ele>661.0</ele><time>2026-04-19T13:31:58.014Z</time></trkpt><trkpt lat="44.8457495" lon="9.4671711"><ele>661.0</ele><time>2026-04-19T13:31:59.052Z</time></trkpt><trkpt lat="44.8457999" lon="9.4670172"><ele>660.0</ele><time>2026-04-19T13:32:00.049Z</time></trkpt><trkpt lat="44.8458425" lon="9.4668831"><ele>659.0</ele><time>2026-04-19T13:32:01.039Z</time></trkpt><trkpt lat="44.845885" lon="9.466763"><ele>658.0</ele><time>2026-04-19T13:32:02.059Z</time></trkpt><trkpt lat="44.8459383" lon="9.466655"><ele>657.0</ele><time>2026-04-19T13:32:03.086Z</time></trkpt><trkpt lat="44.8459977" lon="9.4665733"><ele>656.0</ele><time>2026-04-19T13:32:04.048Z</time></trkpt><trkpt lat="44.8460767" lon="9.466492"><ele>657.0</ele><time>2026-04-19T13:32:05.044Z</time></trkpt><trkpt lat="44.8461654" lon="9.4664133"><ele>658.0</ele><time>2026-04-19T13:32:06.062Z</time></trkpt><trkpt lat="44.8462489" lon="9.4663239"><ele>659.0</ele><time>2026-04-19T13:32:07.075Z</time></trkpt><trkpt lat="44.8463184" lon="9.4662097"><ele>660.0</ele><time>2026-04-19T13:32:08.103Z</time></trkpt><trkpt lat="44.8463686" lon="9.4660802"><ele>661.0</ele><time>2026-04-19T13:32:09.085Z</time></trkpt><trkpt lat="44.8464238" lon="9.4659581"><ele>661.0</ele><time>2026-04-19T13:32:10.16Z</time></trkpt><trkpt lat="44.846487" lon="9.4658763"><ele>661.0</ele><time>2026-04-19T13:32:11.132Z</time></trkpt><trkpt lat="44.8465544" lon="9.4658207"><ele>661.0</ele><time>2026-04-19T13:32:12.08Z</time></trkpt><trkpt lat="44.8466393" lon="9.465774"><ele>661.0</ele><time>2026-04-19T13:32:13.098Z</time></trkpt><trkpt lat="44.846733" lon="9.4657244"><ele>661.0</ele><time>2026-04-19T13:32:14.081Z</time></trkpt><trkpt lat="44.8468284" lon="9.4656605"><ele>661.5999999999999</ele><time>2026-04-19T13:32:15.113Z</time></trkpt><trkpt lat="44.8469164" lon="9.4655852"><ele>662.2</ele><time>2026-04-19T13:32:16.042Z</time></trkpt><trkpt lat="44.8470144" lon="9.4654905"><ele>662.8</ele><time>2026-04-19T13:32:17.082Z</time></trkpt><trkpt lat="44.8471095" lon="9.4653969"><ele>663.4000000000001</ele><time>2026-04-19T13:32:18.112Z</time></trkpt><trkpt lat="44.8471823" lon="9.4653157"><ele>664.0</ele><time>2026-04-19T13:32:19.049Z</time></trkpt><trkpt lat="44.8472559" lon="9.4652311"><ele>664.0</ele><time>2026-04-19T13:32:20.144Z</time></trkpt><trkpt lat="44.847306" lon="9.4651702"><ele>664.0</ele><time>2026-04-19T13:32:21.052Z</time></trkpt><trkpt lat="44.8473506" lon="9.4651036"><ele>664.0</ele><time>2026-04-19T13:32:22.1Z</time></trkpt><trkpt lat="44.8474276" lon="9.4650036"><ele>664.0</ele><time>2026-04-19T13:32:24.093Z</time></trkpt><trkpt lat="44.8474974" lon="9.4649358"><ele>664.0</ele><time>2026-04-19T13:32:26.183Z</time></trkpt><trkpt lat="44.8475621" lon="9.4648746"><ele>664.0</ele><time>2026-04-19T13:32:28.238Z</time></trkpt><trkpt lat="44.8476334" lon="9.4647476"><ele>662.6</ele><time>2026-04-19T13:32:30.084Z</time></trkpt><trkpt lat="44.8476664" lon="9.4646329"><ele>661.2</ele><time>2026-04-19T13:32:31.056Z</time></trkpt><trkpt lat="44.8477038" lon="9.4645086"><ele>659.8000000000001</ele><time>2026-04-19T13:32:32.082Z</time></trkpt><trkpt lat="44.8477544" lon="9.4643637"><ele>658.4000000000001</ele><time>2026-04-19T13:32:33.127Z</time></trkpt><trkpt lat="44.8478031" lon="9.4642266"><ele>657.0</ele><time>2026-04-19T13:32:34.052Z</time></trkpt><trkpt lat="44.8478698" lon="9.4640694"><ele>657.0</ele><time>2026-04-19T13:32:35.089Z</time></trkpt><trkpt lat="44.8479329" lon="9.4639194"><ele>657.0</ele><time>2026-04-19T13:32:36.055Z</time></trkpt><trkpt lat="44.8479997" lon="9.4637645"><ele>657.0</ele><time>2026-04-19T13:32:37.065Z</time></trkpt><trkpt lat="44.8480711" lon="9.4636188"><ele>657.0</ele><time>2026-04-19T13:32:38.097Z</time></trkpt><trkpt lat="44.8481398" lon="9.4634867"><ele>658.25</ele><time>2026-04-19T13:32:39.082Z</time></trkpt><trkpt lat="44.8482082" lon="9.4633521"><ele>659.5</ele><time>2026-04-19T13:32:40.146Z</time></trkpt><trkpt lat="44.8482651" lon="9.4632322"><ele>660.75</ele><time>2026-04-19T13:32:41.108Z</time></trkpt><trkpt lat="44.8483206" lon="9.4631042"><ele>662.0</ele><time>2026-04-19T13:32:42.155Z</time></trkpt><trkpt lat="44.8483876" lon="9.4628318"><ele>662.0</ele><time>2026-04-19T13:32:44.105Z</time></trkpt><trkpt lat="44.8484074" lon="9.4626786"><ele>662.0</ele><time>2026-04-19T13:32:45.061Z</time></trkpt><trkpt lat="44.8484252" lon="9.4625146"><ele>662.0</ele><time>2026-04-19T13:32:46.081Z</time></trkpt><trkpt lat="44.8484445" lon="9.4623529"><ele>662.0</ele><time>2026-04-19T13:32:47.144Z</time></trkpt><trkpt lat="44.8484639" lon="9.46221"><ele>662.0</ele><time>2026-04-19T13:32:48.076Z</time></trkpt><trkpt lat="44.8484881" lon="9.4620476"><ele>660.8</ele><time>2026-04-19T13:32:49.129Z</time></trkpt><trkpt lat="44.84851" lon="9.4618864"><ele>659.6</ele><time>2026-04-19T13:32:50.185Z</time></trkpt><trkpt lat="44.8485303" lon="9.4617451"><ele>658.4</ele><time>2026-04-19T13:32:51.135Z</time></trkpt><trkpt lat="44.848554" lon="9.4615999"><ele>657.1999999999999</ele><time>2026-04-19T13:32:52.078Z</time></trkpt><trkpt lat="44.8485796" lon="9.4614446"><ele>656.0</ele><time>2026-04-19T13:32:53.08Z</time></trkpt><trkpt lat="44.8486071" lon="9.4612841"><ele>656.5</ele><time>2026-04-19T13:32:54.072Z</time></trkpt><trkpt lat="44.8486317" lon="9.4611151"><ele>657.0</ele><time>2026-04-19T13:32:55.101Z</time></trkpt><trkpt lat="44.848659" lon="9.4609597"><ele>657.5</ele><time>2026-04-19T13:32:56.046Z</time></trkpt><trkpt lat="44.8486958" lon="9.4607718"><ele>658.0</ele><time>2026-04-19T13:32:57.168Z</time></trkpt><trkpt lat="44.8487258" lon="9.4606203"><ele>658.0</ele><time>2026-04-19T13:32:58.11Z</time></trkpt><trkpt lat="44.848753" lon="9.4604631"><ele>658.0</ele><time>2026-04-19T13:32:59.087Z</time></trkpt><trkpt lat="44.8487783" lon="9.4602802"><ele>658.0</ele><time>2026-04-19T13:33:00.184Z</time></trkpt><trkpt lat="44.8487926" lon="9.4599315"><ele>659.25</ele><time>2026-04-19T13:33:02.154Z</time></trkpt><trkpt lat="44.8488042" lon="9.459754"><ele>660.5</ele><time>2026-04-19T13:33:03.118Z</time></trkpt><trkpt lat="44.8488302" lon="9.4595839"><ele>661.75</ele><time>2026-04-19T13:33:04.073Z</time></trkpt><trkpt lat="44.8488755" lon="9.459409"><ele>663.0</ele><time>2026-04-19T13:33:05.075Z</time></trkpt><trkpt lat="44.8489466" lon="9.4592228"><ele>664.0</ele><time>2026-04-19T13:33:06.179Z</time></trkpt><trkpt lat="44.8490202" lon="9.4590691"><ele>665.0</ele><time>2026-04-19T13:33:07.12Z</time></trkpt><trkpt lat="44.8490988" lon="9.4589284"><ele>666.0</ele><time>2026-04-19T13:33:08.065Z</time></trkpt><trkpt lat="44.8491902" lon="9.4587733"><ele>667.0</ele><time>2026-04-19T13:33:09.109Z</time></trkpt><trkpt lat="44.8492794" lon="9.45864"><ele>667.25</ele><time>2026-04-19T13:33:10.088Z</time></trkpt><trkpt lat="44.8493643" lon="9.4584977"><ele>667.5</ele><time>2026-04-19T13:33:11.116Z</time></trkpt><trkpt lat="44.8494391" lon="9.4583654"><ele>667.75</ele><time>2026-04-19T13:33:12.073Z</time></trkpt><trkpt lat="44.8495144" lon="9.4582327"><ele>668.0</ele><time>2026-04-19T13:33:13.105Z</time></trkpt><trkpt lat="44.8495775" lon="9.4581031"><ele>669.25</ele><time>2026-04-19T13:33:14.066Z</time></trkpt><trkpt lat="44.84963" lon="9.4579448"><ele>670.5</ele><time>2026-04-19T13:33:15.105Z</time></trkpt><trkpt lat="44.8496672" lon="9.4577737"><ele>671.75</ele><time>2026-04-19T13:33:16.141Z</time></trkpt><trkpt lat="44.8497004" lon="9.457608"><ele>673.0</ele><time>2026-04-19T13:33:17.12Z</time></trkpt><trkpt lat="44.8497481" lon="9.4574378"><ele>673.0</ele><time>2026-04-19T13:33:18.089Z</time></trkpt><trkpt lat="44.8498113" lon="9.4572529"><ele>673.0</ele><time>2026-04-19T13:33:19.124Z</time></trkpt><trkpt lat="44.8498855" lon="9.4570885"><ele>673.0</ele><time>2026-04-19T13:33:20.122Z</time></trkpt><trkpt lat="44.8499626" lon="9.4569494"><ele>673.0</ele><time>2026-04-19T13:33:21.053Z</time></trkpt><trkpt lat="44.8500499" lon="9.4568003"><ele>673.0</ele><time>2026-04-19T13:33:22.083Z</time></trkpt><trkpt lat="44.8501509" lon="9.4566538"><ele>673.0</ele><time>2026-04-19T13:33:23.186Z</time></trkpt><trkpt lat="44.8503159" lon="9.4564276"><ele>673.0</ele><time>2026-04-19T13:33:25.096Z</time></trkpt><trkpt lat="44.8503902" lon="9.4563168"><ele>674.2</ele><time>2026-04-19T13:33:26.121Z</time></trkpt><trkpt lat="44.8504498" lon="9.4562224"><ele>675.4</ele><time>2026-04-19T13:33:27.051Z</time></trkpt><trkpt lat="44.8505111" lon="9.4561451"><ele>676.6</ele><time>2026-04-19T13:33:28.076Z</time></trkpt><trkpt lat="44.8505709" lon="9.4561104"><ele>677.8000000000001</ele><time>2026-04-19T13:33:29.093Z</time></trkpt><trkpt lat="44.850705" lon="9.4561325"><ele>679.0</ele><time>2026-04-19T13:33:31.104Z</time></trkpt><trkpt lat="44.8507863" lon="9.4561871"><ele>679.0</ele><time>2026-04-19T13:33:32.126Z</time></trkpt><trkpt lat="44.8508841" lon="9.4562455"><ele>679.0</ele><time>2026-04-19T13:33:33.053Z</time></trkpt><trkpt lat="44.8510093" lon="9.4563125"><ele>679.0</ele><time>2026-04-19T13:33:34.109Z</time></trkpt><trkpt lat="44.851146" lon="9.4563881"><ele>679.0</ele><time>2026-04-19T13:33:35.17Z</time></trkpt><trkpt lat="44.8512648" lon="9.4564705"><ele>679.3333333333334</ele><time>2026-04-19T13:33:36.094Z</time></trkpt><trkpt lat="44.8513984" lon="9.4565835"><ele>679.6666666666666</ele><time>2026-04-19T13:33:37.22Z</time></trkpt><trkpt lat="44.8515784" lon="9.4568156"><ele>680.0</ele><time>2026-04-19T13:33:39.086Z</time></trkpt><trkpt lat="44.8516459" lon="9.4569682"><ele>680.0</ele><time>2026-04-19T13:33:40.108Z</time></trkpt><trkpt lat="44.8517028" lon="9.4571059"><ele>680.0</ele><time>2026-04-19T13:33:41.029Z</time></trkpt><trkpt lat="44.8517674" lon="9.4572635"><ele>680.0</ele><time>2026-04-19T13:33:42.079Z</time></trkpt><trkpt lat="44.85183" lon="9.4574088"><ele>680.0</ele><time>2026-04-19T13:33:43.05Z</time></trkpt><trkpt lat="44.851896" lon="9.4575606"><ele>680.0</ele><time>2026-04-19T13:33:44.103Z</time></trkpt><trkpt lat="44.8519549" lon="9.4576791"><ele>680.0</ele><time>2026-04-19T13:33:45.081Z</time></trkpt><trkpt lat="44.8520228" lon="9.4577785"><ele>680.0</ele><time>2026-04-19T13:33:46.084Z</time></trkpt><trkpt lat="44.8520982" lon="9.4578612"><ele>680.0</ele><time>2026-04-19T13:33:47.062Z</time></trkpt><trkpt lat="44.852175" lon="9.4579395"><ele>680.0</ele><time>2026-04-19T13:33:48.079Z</time></trkpt><trkpt lat="44.852254" lon="9.4580147"><ele>680.0</ele><time>2026-04-19T13:33:49.091Z</time></trkpt><trkpt lat="44.852336" lon="9.4580864"><ele>680.0</ele><time>2026-04-19T13:33:50.119Z</time></trkpt><trkpt lat="44.85242" lon="9.4581474"><ele>680.0</ele><time>2026-04-19T13:33:51.052Z</time></trkpt><trkpt lat="44.8525299" lon="9.4582037"><ele>680.0</ele><time>2026-04-19T13:33:52.126Z</time></trkpt><trkpt lat="44.8526275" lon="9.4582483"><ele>680.0</ele><time>2026-04-19T13:33:53.045Z</time></trkpt><trkpt lat="44.8527409" lon="9.4583145"><ele>681.75</ele><time>2026-04-19T13:33:54.053Z</time></trkpt><trkpt lat="44.8528597" lon="9.4584013"><ele>683.5</ele><time>2026-04-19T13:33:55.094Z</time></trkpt><trkpt lat="44.8529679" lon="9.4584721"><ele>685.25</ele><time>2026-04-19T13:33:56.045Z</time></trkpt><trkpt lat="44.8530995" lon="9.4585428"><ele>687.0</ele><time>2026-04-19T13:33:57.075Z</time></trkpt><trkpt lat="44.8532155" lon="9.4586062"><ele>687.0</ele><time>2026-04-19T13:33:58.049Z</time></trkpt><trkpt lat="44.8533336" lon="9.458665"><ele>687.0</ele><time>2026-04-19T13:33:59.083Z</time></trkpt><trkpt lat="44.8534381" lon="9.458727"><ele>687.0</ele><time>2026-04-19T13:34:00.124Z</time></trkpt><trkpt lat="44.8535199" lon="9.4588128"><ele>687.0</ele><time>2026-04-19T13:34:01.115Z</time></trkpt><trkpt lat="44.8535873" lon="9.4589163"><ele>687.0</ele><time>2026-04-19T13:34:02.065Z</time></trkpt><trkpt lat="44.8536426" lon="9.4590384"><ele>687.8</ele><time>2026-04-19T13:34:03.061Z</time></trkpt><trkpt lat="44.8536992" lon="9.459189"><ele>688.6</ele><time>2026-04-19T13:34:04.199Z</time></trkpt><trkpt lat="44.8537443" lon="9.4593218"><ele>689.4</ele><time>2026-04-19T13:34:05.189Z</time></trkpt><trkpt lat="44.8537971" lon="9.4594326"><ele>690.1999999999999</ele><time>2026-04-19T13:34:06.138Z</time></trkpt><trkpt lat="44.8538624" lon="9.4595211"><ele>691.0</ele><time>2026-04-19T13:34:07.057Z</time></trkpt><trkpt lat="44.8539481" lon="9.4595828"><ele>688.75</ele><time>2026-04-19T13:34:08.02Z</time></trkpt><trkpt lat="44.8540662" lon="9.4596254"><ele>686.5</ele><time>2026-04-19T13:34:09.09Z</time></trkpt><trkpt lat="44.8541889" lon="9.459661"><ele>684.25</ele><time>2026-04-19T13:34:10.126Z</time></trkpt><trkpt lat="44.8543011" lon="9.4597114"><ele>682.0</ele><time>2026-04-19T13:34:11.063Z</time></trkpt><trkpt lat="44.8544228" lon="9.4597652"><ele>682.0</ele><time>2026-04-19T13:34:12.108Z</time></trkpt><trkpt lat="44.8545299" lon="9.4597943"><ele>682.0</ele><time>2026-04-19T13:34:13.037Z</time></trkpt><trkpt lat="44.8546404" lon="9.4598186"><ele>682.0</ele><time>2026-04-19T13:34:14.071Z</time></trkpt><trkpt lat="44.8547329" lon="9.4598812"><ele>682.0</ele><time>2026-04-19T13:34:15.057Z</time></trkpt><trkpt lat="44.8547932" lon="9.4599784"><ele>682.0</ele><time>2026-04-19T13:34:16.03Z</time></trkpt><trkpt lat="44.8548415" lon="9.4600978"><ele>682.0</ele><time>2026-04-19T13:34:17.066Z</time></trkpt><trkpt lat="44.854915" lon="9.4602148"><ele>682.0</ele><time>2026-04-19T13:34:18.085Z</time></trkpt><trkpt lat="44.8550017" lon="9.4603205"><ele>682.0</ele><time>2026-04-19T13:34:19.03Z</time></trkpt><trkpt lat="44.8550784" lon="9.4604665"><ele>682.0</ele><time>2026-04-19T13:34:20.105Z</time></trkpt><trkpt lat="44.8551338" lon="9.4606154"><ele>682.75</ele><time>2026-04-19T13:34:21.053Z</time></trkpt><trkpt lat="44.8552123" lon="9.4607556"><ele>683.5</ele><time>2026-04-19T13:34:22.083Z</time></trkpt><trkpt lat="44.8553111" lon="9.4608761"><ele>684.25</ele><time>2026-04-19T13:34:23.054Z</time></trkpt><trkpt lat="44.8554104" lon="9.4609952"><ele>685.0</ele><time>2026-04-19T13:34:24.046Z</time></trkpt><trkpt lat="44.8555025" lon="9.4611292"><ele>685.0</ele><time>2026-04-19T13:34:25.086Z</time></trkpt><trkpt lat="44.8555879" lon="9.4612703"><ele>685.0</ele><time>2026-04-19T13:34:26.151Z</time></trkpt><trkpt lat="44.8556717" lon="9.4614139"><ele>685.0</ele><time>2026-04-19T13:34:27.201Z</time></trkpt><trkpt lat="44.8558209" lon="9.4616572"><ele>684.8333333333334</ele><time>2026-04-19T13:34:29.099Z</time></trkpt><trkpt lat="44.8558947" lon="9.4617658"><ele>684.6666666666667</ele><time>2026-04-19T13:34:30.051Z</time></trkpt><trkpt lat="44.8559608" lon="9.4618763"><ele>684.5</ele><time>2026-04-19T13:34:31.042Z</time></trkpt><trkpt lat="44.8560157" lon="9.4619753"><ele>684.3333333333334</ele><time>2026-04-19T13:34:32.088Z</time></trkpt><trkpt lat="44.8560596" lon="9.4620588"><ele>684.1666666666666</ele><time>2026-04-19T13:34:33.103Z</time></trkpt><trkpt lat="44.8560978" lon="9.4621356"><ele>684.0</ele><time>2026-04-19T13:34:34.091Z</time></trkpt><trkpt lat="44.8561331" lon="9.4622129"><ele>682.4000000000001</ele><time>2026-04-19T13:34:35.128Z</time></trkpt><trkpt lat="44.8562163" lon="9.4623942"><ele>680.8</ele><time>2026-04-19T13:34:38.167Z</time></trkpt><trkpt lat="44.8562664" lon="9.4625107"><ele>679.2</ele><time>2026-04-19T13:34:40.115Z</time></trkpt><trkpt lat="44.8563" lon="9.4625981"><ele>677.5999999999999</ele><time>2026-04-19T13:34:42.086Z</time></trkpt><trkpt lat="44.8563391" lon="9.46268"><ele>676.0</ele><time>2026-04-19T13:34:44.058Z</time></trkpt><trkpt lat="44.856387" lon="9.4627868"><ele>676.0</ele><time>2026-04-19T13:34:47.267Z</time></trkpt><trkpt lat="44.8564555" lon="9.4627968"><ele>676.0</ele><time>2026-04-19T13:34:51.024Z</time></trkpt><trkpt lat="44.8564897" lon="9.4626683"><ele>676.0</ele><time>2026-04-19T13:34:54.946Z</time></trkpt><trkpt lat="44.8565099" lon="9.4625298"><ele>676.0</ele><time>2026-04-19T13:34:58.002Z</time></trkpt><trkpt lat="44.8565202" lon="9.462424"><ele>676.0</ele><time>2026-04-19T13:35:00.017Z</time></trkpt><trkpt lat="44.8565502" lon="9.4623302"><ele>676.0</ele><time>2026-04-19T13:35:01.975Z</time></trkpt><trkpt lat="44.8565886" lon="9.4622168"><ele>677.5999999999999</ele><time>2026-04-19T13:35:03.956Z</time></trkpt><trkpt lat="44.8566455" lon="9.4620927"><ele>679.2</ele><time>2026-04-19T13:35:05.927Z</time></trkpt><trkpt lat="44.8567115" lon="9.4619632"><ele>680.8</ele><time>2026-04-19T13:35:08.047Z</time></trkpt><trkpt lat="44.8567697" lon="9.4618276"><ele>682.4000000000001</ele><time>2026-04-19T13:35:09.94Z</time></trkpt><trkpt lat="44.8568171" lon="9.4616909"><ele>684.0</ele><time>2026-04-19T13:35:11.928Z</time></trkpt><trkpt lat="44.8568697" lon="9.4615531"><ele>684.0</ele><time>2026-04-19T13:35:14.014Z</time></trkpt><trkpt lat="44.8569256" lon="9.4614039"><ele>684.0</ele><time>2026-04-19T13:35:16.014Z</time></trkpt><trkpt lat="44.8569885" lon="9.4612494"><ele>684.0</ele><time>2026-04-19T13:35:17.982Z</time></trkpt><trkpt lat="44.8570221" lon="9.4611668"><ele>684.0</ele><time>2026-04-19T13:35:18.98Z</time></trkpt><trkpt lat="44.8570918" lon="9.4609889"><ele>686.0</ele><time>2026-04-19T13:35:21.057Z</time></trkpt><trkpt lat="44.8571232" lon="9.4608946"><ele>688.0</ele><time>2026-04-19T13:35:22.088Z</time></trkpt><trkpt lat="44.8571657" lon="9.4607225"><ele>690.0</ele><time>2026-04-19T13:35:23.935Z</time></trkpt><trkpt lat="44.8571903" lon="9.460621"><ele>692.0</ele><time>2026-04-19T13:35:24.94Z</time></trkpt><trkpt lat="44.857246" lon="9.4604571"><ele>694.0</ele><time>2026-04-19T13:35:26.97Z</time></trkpt><trkpt lat="44.8573333" lon="9.460317"><ele>695.6</ele><time>2026-04-19T13:35:28.967Z</time></trkpt><trkpt lat="44.8573859" lon="9.4602501"><ele>697.2</ele><time>2026-04-19T13:35:29.964Z</time></trkpt><trkpt lat="44.8574467" lon="9.4601773"><ele>698.8000000000001</ele><time>2026-04-19T13:35:31.05Z</time></trkpt><trkpt lat="44.8575739" lon="9.4600627"><ele>700.4000000000001</ele><time>2026-04-19T13:35:32.948Z</time></trkpt><trkpt lat="44.8576484" lon="9.4599966"><ele>702.0</ele><time>2026-04-19T13:35:33.973Z</time></trkpt><trkpt lat="44.8577229" lon="9.4599313"><ele>702.0</ele><time>2026-04-19T13:35:35Z</time></trkpt><trkpt lat="44.8577848" lon="9.4598675"><ele>702.0</ele><time>2026-04-19T13:35:35.945Z</time></trkpt><trkpt lat="44.8578547" lon="9.4597919"><ele>702.0</ele><time>2026-04-19T13:35:37.015Z</time></trkpt><trkpt lat="44.8579119" lon="9.4597294"><ele>702.0</ele><time>2026-04-19T13:35:37.93Z</time></trkpt><trkpt lat="44.8579815" lon="9.4596574"><ele>702.0</ele><time>2026-04-19T13:35:39.041Z</time></trkpt><trkpt lat="44.8580996" lon="9.4595329"><ele>704.8</ele><time>2026-04-19T13:35:41.016Z</time></trkpt><trkpt lat="44.8581469" lon="9.4594684"><ele>707.6</ele><time>2026-04-19T13:35:41.951Z</time></trkpt><trkpt lat="44.8582264" lon="9.4593007"><ele>710.4</ele><time>2026-04-19T13:35:43.963Z</time></trkpt><trkpt lat="44.8582743" lon="9.4591934"><ele>713.1999999999999</ele><time>2026-04-19T13:35:44.968Z</time></trkpt><trkpt lat="44.8583253" lon="9.459088"><ele>716.0</ele><time>2026-04-19T13:35:46.089Z</time></trkpt><trkpt lat="44.8584192" lon="9.4589273"><ele>714.25</ele><time>2026-04-19T13:35:48.041Z</time></trkpt><trkpt lat="44.8584756" lon="9.4588309"><ele>712.5</ele><time>2026-04-19T13:35:49.107Z</time></trkpt><trkpt lat="44.8585762" lon="9.4586733"><ele>710.75</ele><time>2026-04-19T13:35:51.051Z</time></trkpt><trkpt lat="44.8586677" lon="9.458526"><ele>709.0</ele><time>2026-04-19T13:35:52.958Z</time></trkpt><trkpt lat="44.8587175" lon="9.4584455"><ele>712.0</ele><time>2026-04-19T13:35:54.093Z</time></trkpt><trkpt lat="44.8587944" lon="9.4583123"><ele>715.0</ele><time>2026-04-19T13:35:56.108Z</time></trkpt><trkpt lat="44.8588485" lon="9.4582363"><ele>718.0</ele><time>2026-04-19T13:35:57.989Z</time></trkpt><trkpt lat="44.8588935" lon="9.4581706"><ele>721.0</ele><time>2026-04-19T13:35:58.944Z</time></trkpt><trkpt lat="44.8589886" lon="9.4580744"><ele>724.0</ele><time>2026-04-19T13:36:00.926Z</time></trkpt><trkpt lat="44.859087" lon="9.4579918"><ele>725.0</ele><time>2026-04-19T13:36:02.968Z</time></trkpt><trkpt lat="44.8591803" lon="9.4578988"><ele>726.0</ele><time>2026-04-19T13:36:04.98Z</time></trkpt><trkpt lat="44.8592531" lon="9.4578098"><ele>727.0</ele><time>2026-04-19T13:36:06.96Z</time></trkpt><trkpt lat="44.8593226" lon="9.4577069"><ele>728.0</ele><time>2026-04-19T13:36:59.92Z</time></trkpt><trkpt lat="44.8593826" lon="9.4575619"><ele>729.0</ele><time>2026-04-19T13:37:01.877Z</time></trkpt><trkpt lat="44.8594236" lon="9.4574846"><ele>729.0</ele><time>2026-04-19T13:37:02.895Z</time></trkpt><trkpt lat="44.8594659" lon="9.4574089"><ele>729.0</ele><time>2026-04-19T13:37:03.993Z</time></trkpt><trkpt lat="44.8595499" lon="9.457287"><ele>729.0</ele><time>2026-04-19T13:37:05.909Z</time></trkpt><trkpt lat="44.8596046" lon="9.4572269"><ele>729.0</ele><time>2026-04-19T13:37:06.838Z</time></trkpt><trkpt lat="44.8596686" lon="9.4571684"><ele>729.0</ele><time>2026-04-19T13:37:07.909Z</time></trkpt><trkpt lat="44.8597379" lon="9.4571193"><ele>729.0</ele><time>2026-04-19T13:37:08.954Z</time></trkpt><trkpt lat="44.8598018" lon="9.457067"><ele>731.0</ele><time>2026-04-19T13:37:09.946Z</time></trkpt><trkpt lat="44.8598685" lon="9.457001"><ele>733.0</ele><time>2026-04-19T13:37:11.067Z</time></trkpt><trkpt lat="44.8599711" lon="9.4568952"><ele>735.0</ele><time>2026-04-19T13:37:12.881Z</time></trkpt><trkpt lat="44.8600327" lon="9.4568537"><ele>737.0</ele><time>2026-04-19T13:37:13.958Z</time></trkpt><trkpt lat="44.8600968" lon="9.4568309"><ele>739.0</ele><time>2026-04-19T13:37:14.97Z</time></trkpt><trkpt lat="44.8601708" lon="9.4568158"><ele>741.0</ele><time>2026-04-19T13:37:16.014Z</time></trkpt><trkpt lat="44.8602384" lon="9.4567956"><ele>741.0</ele><time>2026-04-19T13:37:16.994Z</time></trkpt><trkpt lat="44.8603798" lon="9.4567184"><ele>741.0</ele><time>2026-04-19T13:37:19.082Z</time></trkpt><trkpt lat="44.860522" lon="9.4566462"><ele>741.0</ele><time>2026-04-19T13:37:20.942Z</time></trkpt><trkpt lat="44.860593" lon="9.4566183"><ele>741.0</ele><time>2026-04-19T13:37:22.048Z</time></trkpt><trkpt lat="44.8606586" lon="9.4565857"><ele>741.0</ele><time>2026-04-19T13:37:22.966Z</time></trkpt><trkpt lat="44.860732" lon="9.4565475"><ele>741.0</ele><time>2026-04-19T13:37:24.009Z</time></trkpt><trkpt lat="44.8607918" lon="9.4565124"><ele>741.0</ele><time>2026-04-19T13:37:24.91Z</time></trkpt><trkpt lat="44.8608599" lon="9.4564663"><ele>741.0</ele><time>2026-04-19T13:37:25.954Z</time></trkpt><trkpt lat="44.8609199" lon="9.4564235"><ele>741.0</ele><time>2026-04-19T13:37:26.916Z</time></trkpt><trkpt lat="44.8609817" lon="9.4563774"><ele>741.0</ele><time>2026-04-19T13:37:27.946Z</time></trkpt><trkpt lat="44.8611061" lon="9.4563382"><ele>741.0</ele><time>2026-04-19T13:37:29.917Z</time></trkpt><trkpt lat="44.8611855" lon="9.4563506"><ele>741.0</ele><time>2026-04-19T13:37:30.983Z</time></trkpt><trkpt lat="44.8612559" lon="9.4563713"><ele>741.0</ele><time>2026-04-19T13:37:31.931Z</time></trkpt><trkpt lat="44.8613425" lon="9.4563744"><ele>741.0</ele><time>2026-04-19T13:37:33.001Z</time></trkpt><trkpt lat="44.8614192" lon="9.4563783"><ele>741.0</ele><time>2026-04-19T13:37:33.925Z</time></trkpt><trkpt lat="44.8615061" lon="9.4563978"><ele>741.0</ele><time>2026-04-19T13:37:34.935Z</time></trkpt><trkpt lat="44.8615786" lon="9.4564297"><ele>741.0</ele><time>2026-04-19T13:37:35.953Z</time></trkpt><trkpt lat="44.8616441" lon="9.4564546"><ele>741.0</ele><time>2026-04-19T13:37:36.91Z</time></trkpt><trkpt lat="44.8617217" lon="9.4564574"><ele>741.0</ele><time>2026-04-19T13:37:38.016Z</time></trkpt><trkpt lat="44.8617991" lon="9.4564389"><ele>741.0</ele><time>2026-04-19T13:37:39.096Z</time></trkpt><trkpt lat="44.8619173" lon="9.4563518"><ele>741.0</ele><time>2026-04-19T13:37:40.915Z</time></trkpt><trkpt lat="44.8619734" lon="9.456292"><ele>741.0</ele><time>2026-04-19T13:37:41.889Z</time></trkpt><trkpt lat="44.8620123" lon="9.4562064"><ele>741.0</ele><time>2026-04-19T13:37:42.868Z</time></trkpt><trkpt lat="44.8620502" lon="9.4561102"><ele>741.0</ele><time>2026-04-19T13:37:43.916Z</time></trkpt><trkpt lat="44.862086" lon="9.4560281"><ele>741.0</ele><time>2026-04-19T13:37:44.882Z</time></trkpt><trkpt lat="44.8621244" lon="9.4559468"><ele>741.0</ele><time>2026-04-19T13:37:46.011Z</time></trkpt><trkpt lat="44.8622132" lon="9.455815"><ele>741.0</ele><time>2026-04-19T13:37:47.88Z</time></trkpt><trkpt lat="44.862273" lon="9.4557601"><ele>741.0</ele><time>2026-04-19T13:37:48.91Z</time></trkpt><trkpt lat="44.8623309" lon="9.4557213"><ele>741.0</ele><time>2026-04-19T13:37:49.871Z</time></trkpt><trkpt lat="44.862404" lon="9.4556795"><ele>741.0</ele><time>2026-04-19T13:37:50.937Z</time></trkpt><trkpt lat="44.8624838" lon="9.4556565"><ele>741.0</ele><time>2026-04-19T13:37:51.947Z</time></trkpt><trkpt lat="44.8625532" lon="9.455628"><ele>741.0</ele><time>2026-04-19T13:37:52.899Z</time></trkpt><trkpt lat="44.8626297" lon="9.4555953"><ele>741.0</ele><time>2026-04-19T13:37:53.929Z</time></trkpt><trkpt lat="44.8626972" lon="9.4555498"><ele>741.0</ele><time>2026-04-19T13:37:54.915Z</time></trkpt><trkpt lat="44.8627534" lon="9.4554878"><ele>741.0</ele><time>2026-04-19T13:37:55.88Z</time></trkpt><trkpt lat="44.8627951" lon="9.4554206"><ele>741.0</ele><time>2026-04-19T13:37:56.846Z</time></trkpt><trkpt lat="44.8628388" lon="9.4553319"><ele>738.4</ele><time>2026-04-19T13:37:57.987Z</time></trkpt><trkpt lat="44.862911" lon="9.4551775"><ele>735.8</ele><time>2026-04-19T13:37:59.966Z</time></trkpt><trkpt lat="44.8629587" lon="9.455055"><ele>733.1999999999999</ele><time>2026-04-19T13:38:01.868Z</time></trkpt><trkpt lat="44.8629946" lon="9.4549732"><ele>730.5999999999999</ele><time>2026-04-19T13:38:02.99Z</time></trkpt><trkpt lat="44.8630755" lon="9.4548424"><ele>728.0</ele><time>2026-04-19T13:38:05.049Z</time></trkpt><trkpt lat="44.8631886" lon="9.4547347"><ele>728.0</ele><time>2026-04-19T13:38:06.857Z</time></trkpt><trkpt lat="44.86327" lon="9.4546624"><ele>728.0</ele><time>2026-04-19T13:38:07.953Z</time></trkpt><trkpt lat="44.8633428" lon="9.4546025"><ele>728.0</ele><time>2026-04-19T13:38:08.886Z</time></trkpt><trkpt lat="44.8634227" lon="9.4545456"><ele>728.0</ele><time>2026-04-19T13:38:09.839Z</time></trkpt><trkpt lat="44.8635059" lon="9.4544836"><ele>728.0</ele><time>2026-04-19T13:38:10.887Z</time></trkpt><trkpt lat="44.8635838" lon="9.4544318"><ele>726.0</ele><time>2026-04-19T13:38:11.891Z</time></trkpt><trkpt lat="44.8636582" lon="9.4543818"><ele>724.0</ele><time>2026-04-19T13:38:12.843Z</time></trkpt><trkpt lat="44.8637427" lon="9.4543112"><ele>722.0</ele><time>2026-04-19T13:38:13.952Z</time></trkpt><trkpt lat="44.8638037" lon="9.4542514"><ele>720.0</ele><time>2026-04-19T13:38:14.869Z</time></trkpt><trkpt lat="44.8638754" lon="9.4541903"><ele>718.0</ele><time>2026-04-19T13:38:15.867Z</time></trkpt><trkpt lat="44.8639516" lon="9.4541235"><ele>716.0</ele><time>2026-04-19T13:38:16.881Z</time></trkpt><trkpt lat="44.8640294" lon="9.4540711"><ele>716.0</ele><time>2026-04-19T13:38:17.857Z</time></trkpt><trkpt lat="44.8641238" lon="9.4540043"><ele>716.0</ele><time>2026-04-19T13:38:19.012Z</time></trkpt><trkpt lat="44.8642803" lon="9.4538637"><ele>716.0</ele><time>2026-04-19T13:38:21.022Z</time></trkpt><trkpt lat="44.8643392" lon="9.4537992"><ele>716.0</ele><time>2026-04-19T13:38:21.887Z</time></trkpt><trkpt lat="44.8644088" lon="9.453713"><ele>713.0</ele><time>2026-04-19T13:38:22.905Z</time></trkpt><trkpt lat="44.864475" lon="9.4536286"><ele>710.0</ele><time>2026-04-19T13:38:23.942Z</time></trkpt><trkpt lat="44.8645235" lon="9.4535604"><ele>707.0</ele><time>2026-04-19T13:38:24.929Z</time></trkpt><trkpt lat="44.8645688" lon="9.4534974"><ele>704.0</ele><time>2026-04-19T13:38:25.981Z</time></trkpt><trkpt lat="44.86466" lon="9.4534109"><ele>701.0</ele><time>2026-04-19T13:38:27.944Z</time></trkpt><trkpt lat="44.8647206" lon="9.4533717"><ele>698.0</ele><time>2026-04-19T13:38:28.967Z</time></trkpt><trkpt lat="44.8648303" lon="9.4533137"><ele>698.0</ele><time>2026-04-19T13:38:31.024Z</time></trkpt><trkpt lat="44.8649248" lon="9.4532537"><ele>698.0</ele><time>2026-04-19T13:38:32.912Z</time></trkpt><trkpt lat="44.8649813" lon="9.4532015"><ele>698.0</ele><time>2026-04-19T13:38:34.037Z</time></trkpt><trkpt lat="44.8650737" lon="9.453093"><ele>698.0</ele><time>2026-04-19T13:38:36.002Z</time></trkpt><trkpt lat="44.8651734" lon="9.452964"><ele>698.0</ele><time>2026-04-19T13:38:37.916Z</time></trkpt><trkpt lat="44.8652265" lon="9.4528921"><ele>695.2</ele><time>2026-04-19T13:38:38.938Z</time></trkpt><trkpt lat="44.8652887" lon="9.4528157"><ele>692.4</ele><time>2026-04-19T13:38:40.055Z</time></trkpt><trkpt lat="44.8654179" lon="9.4527075"><ele>689.6</ele><time>2026-04-19T13:38:42.128Z</time></trkpt><trkpt lat="44.8655444" lon="9.4526404"><ele>686.8000000000001</ele><time>2026-04-19T13:38:43.91Z</time></trkpt><trkpt lat="44.8656169" lon="9.4526082"><ele>684.0</ele><time>2026-04-19T13:38:44.97Z</time></trkpt><trkpt lat="44.8656837" lon="9.4525845"><ele>683.9999999999999</ele><time>2026-04-19T13:38:45.972Z</time></trkpt><trkpt lat="44.8657466" lon="9.4525667"><ele>684.0</ele><time>2026-04-19T13:38:46.946Z</time></trkpt><trkpt lat="44.8658153" lon="9.4525414"><ele>684.0</ele><time>2026-04-19T13:38:48.011Z</time></trkpt><trkpt lat="44.8658756" lon="9.4525102"><ele>684.0</ele><time>2026-04-19T13:38:48.94Z</time></trkpt><trkpt lat="44.8659435" lon="9.4524737"><ele>684.0</ele><time>2026-04-19T13:38:49.972Z</time></trkpt><trkpt lat="44.8660114" lon="9.452435"><ele>683.9999999999999</ele><time>2026-04-19T13:38:51.004Z</time></trkpt><trkpt lat="44.8660728" lon="9.4524014"><ele>684.0</ele><time>2026-04-19T13:38:51.988Z</time></trkpt><trkpt lat="44.8661753" lon="9.4523364"><ele>682.6</ele><time>2026-04-19T13:38:54.026Z</time></trkpt><trkpt lat="44.8662793" lon="9.4522376"><ele>681.2</ele><time>2026-04-19T13:38:56.131Z</time></trkpt><trkpt lat="44.8663707" lon="9.4520919"><ele>679.8000000000001</ele><time>2026-04-19T13:38:57.936Z</time></trkpt><trkpt lat="44.8664115" lon="9.4520075"><ele>678.4000000000001</ele><time>2026-04-19T13:38:58.932Z</time></trkpt><trkpt lat="44.86645" lon="9.4519215"><ele>677.0</ele><time>2026-04-19T13:38:59.927Z</time></trkpt><trkpt lat="44.8665091" lon="9.4518243"><ele>675.1666666666666</ele><time>2026-04-19T13:39:00.951Z</time></trkpt><trkpt lat="44.8665621" lon="9.451736"><ele>673.3333333333333</ele><time>2026-04-19T13:39:01.944Z</time></trkpt><trkpt lat="44.866616" lon="9.4516514"><ele>671.5</ele><time>2026-04-19T13:39:02.95Z</time></trkpt><trkpt lat="44.8666734" lon="9.4515663"><ele>669.6666666666666</ele><time>2026-04-19T13:39:03.948Z</time></trkpt><trkpt lat="44.8667294" lon="9.4514765"><ele>667.8333333333334</ele><time>2026-04-19T13:39:04.954Z</time></trkpt><trkpt lat="44.8667794" lon="9.4513914"><ele>666.0</ele><time>2026-04-19T13:39:05.949Z</time></trkpt><trkpt lat="44.8668248" lon="9.4513091"><ele>663.5</ele><time>2026-04-19T13:39:06.884Z</time></trkpt><trkpt lat="44.8668715" lon="9.4512142"><ele>661.0</ele><time>2026-04-19T13:39:07.955Z</time></trkpt><trkpt lat="44.8669174" lon="9.451119"><ele>658.5</ele><time>2026-04-19T13:39:08.947Z</time></trkpt><trkpt lat="44.8669576" lon="9.4510132"><ele>656.0</ele><time>2026-04-19T13:39:09.958Z</time></trkpt><trkpt lat="44.8669842" lon="9.4509052"><ele>653.5</ele><time>2026-04-19T13:39:10.927Z</time></trkpt><trkpt lat="44.8670133" lon="9.4507939"><ele>651.0</ele><time>2026-04-19T13:39:11.96Z</time></trkpt><trkpt lat="44.8670399" lon="9.4506849"><ele>651.0</ele><time>2026-04-19T13:39:13.017Z</time></trkpt><trkpt lat="44.8670652" lon="9.450601"><ele>651.0</ele><time>2026-04-19T13:39:13.964Z</time></trkpt><trkpt lat="44.867101" lon="9.4504908"><ele>651.0</ele><time>2026-04-19T13:39:15.134Z</time></trkpt><trkpt lat="44.8671552" lon="9.4503206"><ele>651.0</ele><time>2026-04-19T13:39:16.96Z</time></trkpt><trkpt lat="44.8671828" lon="9.4502294"><ele>651.0</ele><time>2026-04-19T13:39:17.933Z</time></trkpt><trkpt lat="44.8672178" lon="9.4501189"><ele>651.0</ele><time>2026-04-19T13:39:19.106Z</time></trkpt><trkpt lat="44.8672709" lon="9.4499555"><ele>650.0</ele><time>2026-04-19T13:39:20.936Z</time></trkpt><trkpt lat="44.8673024" lon="9.4498671"><ele>649.0</ele><time>2026-04-19T13:39:21.952Z</time></trkpt><trkpt lat="44.8673588" lon="9.4497165"><ele>648.0</ele><time>2026-04-19T13:39:24.028Z</time></trkpt><trkpt lat="44.8674168" lon="9.4495726"><ele>647.0</ele><time>2026-04-19T13:39:25.949Z</time></trkpt><trkpt lat="44.8674658" lon="9.4494409"><ele>646.0</ele><time>2026-04-19T13:39:27.953Z</time></trkpt><trkpt lat="44.8674978" lon="9.4493446"><ele>645.3333333333334</ele><time>2026-04-19T13:39:29.94Z</time></trkpt><trkpt lat="44.8675484" lon="9.4492768"><ele>644.6666666666667</ele><time>2026-04-19T13:41:26.962Z</time></trkpt><trkpt lat="44.8676154" lon="9.4493247"><ele>644.0</ele><time>2026-04-19T13:41:30.03Z</time></trkpt><trkpt lat="44.8676956" lon="9.4493884"><ele>643.3333333333334</ele><time>2026-04-19T13:41:32.024Z</time></trkpt><trkpt lat="44.8677521" lon="9.449439"><ele>642.6666666666666</ele><time>2026-04-19T13:41:33.038Z</time></trkpt><trkpt lat="44.8678655" lon="9.4495256"><ele>642.0</ele><time>2026-04-19T13:41:34.919Z</time></trkpt><trkpt lat="44.8679744" lon="9.4496057"><ele>640.8571428571428</ele><time>2026-04-19T13:41:36.93Z</time></trkpt><trkpt lat="44.8680346" lon="9.4496571"><ele>639.7142857142857</ele><time>2026-04-19T13:41:37.957Z</time></trkpt><trkpt lat="44.8680862" lon="9.4497131"><ele>638.5714285714286</ele><time>2026-04-19T13:41:38.946Z</time></trkpt><trkpt lat="44.8681359" lon="9.4497753"><ele>637.4285714285713</ele><time>2026-04-19T13:41:39.947Z</time></trkpt><trkpt lat="44.8681804" lon="9.4498401"><ele>636.2857142857142</ele><time>2026-04-19T13:41:40.937Z</time></trkpt><trkpt lat="44.8682255" lon="9.4499098"><ele>635.1428571428571</ele><time>2026-04-19T13:41:41.969Z</time></trkpt><trkpt lat="44.8682635" lon="9.4499818"><ele>634.0</ele><time>2026-04-19T13:41:42.948Z</time></trkpt><trkpt lat="44.8683174" lon="9.4501471"><ele>634.0</ele><time>2026-04-19T13:41:44.917Z</time></trkpt><trkpt lat="44.8683334" lon="9.4502469"><ele>634.0</ele><time>2026-04-19T13:41:45.966Z</time></trkpt><trkpt lat="44.8683391" lon="9.4503457"><ele>634.0</ele><time>2026-04-19T13:41:46.97Z</time></trkpt><trkpt lat="44.8683374" lon="9.4504378"><ele>634.0</ele><time>2026-04-19T13:41:47.908Z</time></trkpt><trkpt lat="44.8683317" lon="9.4505294"><ele>634.0</ele><time>2026-04-19T13:41:48.916Z</time></trkpt><trkpt lat="44.8683339" lon="9.4506965"><ele>634.0</ele><time>2026-04-19T13:41:50.968Z</time></trkpt><trkpt lat="44.868399" lon="9.4508122"><ele>632.0</ele><time>2026-04-19T13:41:53.001Z</time></trkpt><trkpt lat="44.8685332" lon="9.4508734"><ele>630.0</ele><time>2026-04-19T13:41:54.922Z</time></trkpt><trkpt lat="44.8685979" lon="9.4509175"><ele>628.0</ele><time>2026-04-19T13:41:55.923Z</time></trkpt><trkpt lat="44.8686714" lon="9.4509717"><ele>626.0</ele><time>2026-04-19T13:41:56.976Z</time></trkpt><trkpt lat="44.8687467" lon="9.4510308"><ele>624.0</ele><time>2026-04-19T13:41:58.03Z</time></trkpt><trkpt lat="44.8688711" lon="9.4511403"><ele>624.0</ele><time>2026-04-19T13:41:59.943Z</time></trkpt><trkpt lat="44.8689226" lon="9.4512092"><ele>624.0</ele><time>2026-04-19T13:42:00.892Z</time></trkpt><trkpt lat="44.8689612" lon="9.4512888"><ele>624.0</ele><time>2026-04-19T13:42:01.944Z</time></trkpt><trkpt lat="44.868988" lon="9.4513814"><ele>624.0</ele><time>2026-04-19T13:42:02.933Z</time></trkpt><trkpt lat="44.8690053" lon="9.4515012"><ele>624.0</ele><time>2026-04-19T13:42:04.057Z</time></trkpt><trkpt lat="44.8690135" lon="9.4515972"><ele>624.0</ele><time>2026-04-19T13:42:05.005Z</time></trkpt><trkpt lat="44.8690382" lon="9.4516861"><ele>624.0</ele><time>2026-04-19T13:42:05.951Z</time></trkpt><trkpt lat="44.8690801" lon="9.4517765"><ele>624.4</ele><time>2026-04-19T13:42:06.911Z</time></trkpt><trkpt lat="44.8691382" lon="9.4518738"><ele>624.8</ele><time>2026-04-19T13:42:07.948Z</time></trkpt><trkpt lat="44.8691889" lon="9.4519707"><ele>625.2</ele><time>2026-04-19T13:42:08.913Z</time></trkpt><trkpt lat="44.8692417" lon="9.4520803"><ele>625.6</ele><time>2026-04-19T13:42:09.914Z</time></trkpt><trkpt lat="44.8692923" lon="9.4521812"><ele>626.0</ele><time>2026-04-19T13:42:10.884Z</time></trkpt><trkpt lat="44.8693555" lon="9.4522868"><ele>626.0</ele><time>2026-04-19T13:42:12.021Z</time></trkpt><trkpt lat="44.8694159" lon="9.4523741"><ele>626.0</ele><time>2026-04-19T13:42:13.022Z</time></trkpt><trkpt lat="44.8694758" lon="9.4524509"><ele>626.0</ele><time>2026-04-19T13:42:13.928Z</time></trkpt><trkpt lat="44.8695523" lon="9.452557"><ele>626.0</ele><time>2026-04-19T13:42:15.099Z</time></trkpt><trkpt lat="44.8696698" lon="9.4527072"><ele>626.0</ele><time>2026-04-19T13:42:16.882Z</time></trkpt><trkpt lat="44.8697311" lon="9.4527907"><ele>626.0</ele><time>2026-04-19T13:42:17.908Z</time></trkpt><trkpt lat="44.869797" lon="9.4528627"><ele>626.0</ele><time>2026-04-19T13:42:18.894Z</time></trkpt><trkpt lat="44.8698703" lon="9.4529391"><ele>626.0</ele><time>2026-04-19T13:42:20.051Z</time></trkpt><trkpt lat="44.8699765" lon="9.453082"><ele>626.0</ele><time>2026-04-19T13:42:21.925Z</time></trkpt><trkpt lat="44.87002" lon="9.4531937"><ele>626.0</ele><time>2026-04-19T13:42:22.951Z</time></trkpt><trkpt lat="44.8700455" lon="9.45331"><ele>626.0</ele><time>2026-04-19T13:42:23.931Z</time></trkpt><trkpt lat="44.8700714" lon="9.4534198"><ele>626.0</ele><time>2026-04-19T13:42:25.02Z</time></trkpt><trkpt lat="44.8701001" lon="9.453499"><ele>626.0</ele><time>2026-04-19T13:42:25.938Z</time></trkpt><trkpt lat="44.8701194" lon="9.4535903"><ele>626.0</ele><time>2026-04-19T13:42:26.975Z</time></trkpt><trkpt lat="44.8701173" lon="9.4536829"><ele>626.0</ele><time>2026-04-19T13:42:27.942Z</time></trkpt><trkpt lat="44.8700982" lon="9.4537927"><ele>626.0</ele><time>2026-04-19T13:42:28.979Z</time></trkpt><trkpt lat="44.8700646" lon="9.453907"><ele>626.0</ele><time>2026-04-19T13:42:29.933Z</time></trkpt><trkpt lat="44.8700393" lon="9.4540201"><ele>626.0</ele><time>2026-04-19T13:42:30.957Z</time></trkpt><trkpt lat="44.8700248" lon="9.4541412"><ele>626.0</ele><time>2026-04-19T13:42:32.021Z</time></trkpt><trkpt lat="44.8700299" lon="9.4542397"><ele>626.0</ele><time>2026-04-19T13:42:32.971Z</time></trkpt><trkpt lat="44.8700363" lon="9.4543326"><ele>626.0</ele><time>2026-04-19T13:42:33.934Z</time></trkpt><trkpt lat="44.8700258" lon="9.4545043"><ele>626.0</ele><time>2026-04-19T13:42:35.985Z</time></trkpt><trkpt lat="44.8699363" lon="9.4546049"><ele>623.4</ele><time>2026-04-19T13:42:37.933Z</time></trkpt><trkpt lat="44.8698191" lon="9.4546578"><ele>620.8</ele><time>2026-04-19T13:42:39.93Z</time></trkpt><trkpt lat="44.8697625" lon="9.4547027"><ele>618.1999999999999</ele><time>2026-04-19T13:42:40.988Z</time></trkpt><trkpt lat="44.8697124" lon="9.4547778"><ele>615.6</ele><time>2026-04-19T13:42:42.151Z</time></trkpt><trkpt lat="44.869632" lon="9.4549072"><ele>613.0</ele><time>2026-04-19T13:42:44.027Z</time></trkpt><trkpt lat="44.8695246" lon="9.4550084"><ele>613.0</ele><time>2026-04-19T13:42:45.962Z</time></trkpt><trkpt lat="44.8694627" lon="9.4550552"><ele>613.0</ele><time>2026-04-19T13:42:46.967Z</time></trkpt><trkpt lat="44.8693669" lon="9.4551561"><ele>613.0</ele><time>2026-04-19T13:42:48.921Z</time></trkpt><trkpt lat="44.8693366" lon="9.4552382"><ele>613.0</ele><time>2026-04-19T13:42:49.934Z</time></trkpt><trkpt lat="44.8693177" lon="9.4553255"><ele>613.0</ele><time>2026-04-19T13:42:50.91Z</time></trkpt><trkpt lat="44.8693213" lon="9.4554475"><ele>613.0</ele><time>2026-04-19T13:42:51.971Z</time></trkpt><trkpt lat="44.8693342" lon="9.4555598"><ele>610.0</ele><time>2026-04-19T13:42:52.95Z</time></trkpt><trkpt lat="44.869339" lon="9.4556871"><ele>607.0</ele><time>2026-04-19T13:42:53.929Z</time></trkpt><trkpt lat="44.8693359" lon="9.4558233"><ele>604.0</ele><time>2026-04-19T13:42:54.958Z</time></trkpt><trkpt lat="44.869332" lon="9.4559614"><ele>601.0</ele><time>2026-04-19T13:42:55.934Z</time></trkpt><trkpt lat="44.8693229" lon="9.4561237"><ele>598.0</ele><time>2026-04-19T13:42:57.03Z</time></trkpt><trkpt lat="44.8693036" lon="9.4562468"><ele>596.6666666666667</ele><time>2026-04-19T13:42:57.958Z</time></trkpt><trkpt lat="44.8692895" lon="9.4563617"><ele>595.3333333333334</ele><time>2026-04-19T13:42:58.944Z</time></trkpt><trkpt lat="44.8692706" lon="9.4564669"><ele>594.0</ele><time>2026-04-19T13:42:59.977Z</time></trkpt><trkpt lat="44.8692002" lon="9.4566236"><ele>592.6666666666666</ele><time>2026-04-19T13:43:01.935Z</time></trkpt><trkpt lat="44.869148" lon="9.4567113"><ele>591.3333333333333</ele><time>2026-04-19T13:43:02.944Z</time></trkpt><trkpt lat="44.8690895" lon="9.4567792"><ele>590.0</ele><time>2026-04-19T13:43:03.949Z</time></trkpt><trkpt lat="44.8690313" lon="9.4568381"><ele>591.2</ele><time>2026-04-19T13:43:04.898Z</time></trkpt><trkpt lat="44.8689633" lon="9.4569133"><ele>592.4</ele><time>2026-04-19T13:43:06.064Z</time></trkpt><trkpt lat="44.8688821" lon="9.4570846"><ele>593.6</ele><time>2026-04-19T13:43:07.955Z</time></trkpt><trkpt lat="44.8688438" lon="9.4572005"><ele>594.8</ele><time>2026-04-19T13:43:08.996Z</time></trkpt><trkpt lat="44.8688199" lon="9.4572908"><ele>596.0</ele><time>2026-04-19T13:43:09.924Z</time></trkpt><trkpt lat="44.8687898" lon="9.4574014"><ele>596.0</ele><time>2026-04-19T13:43:11.024Z</time></trkpt><trkpt lat="44.8687567" lon="9.45748"><ele>596.0</ele><time>2026-04-19T13:43:11.942Z</time></trkpt><trkpt lat="44.8687007" lon="9.457636"><ele>596.0</ele><time>2026-04-19T13:43:13.935Z</time></trkpt><trkpt lat="44.8686927" lon="9.4577289"><ele>596.0</ele><time>2026-04-19T13:43:14.923Z</time></trkpt><trkpt lat="44.8686973" lon="9.4578367"><ele>596.0</ele><time>2026-04-19T13:43:15.906Z</time></trkpt><trkpt lat="44.8686534" lon="9.4580183"><ele>594.8</ele><time>2026-04-19T13:43:17.914Z</time></trkpt><trkpt lat="44.8686024" lon="9.4580899"><ele>593.6</ele><time>2026-04-19T13:43:18.919Z</time></trkpt><trkpt lat="44.8685446" lon="9.4581506"><ele>592.4</ele><time>2026-04-19T13:43:19.932Z</time></trkpt><trkpt lat="44.8684728" lon="9.4582819"><ele>591.2</ele><time>2026-04-19T13:43:21.948Z</time></trkpt><trkpt lat="44.8684673" lon="9.4584655"><ele>590.0</ele><time>2026-04-19T13:43:23.899Z</time></trkpt><trkpt lat="44.8684635" lon="9.458555"><ele>592.5</ele><time>2026-04-19T13:43:24.91Z</time></trkpt><trkpt lat="44.8684397" lon="9.4586586"><ele>595.0</ele><time>2026-04-19T13:43:25.929Z</time></trkpt><trkpt lat="44.8684069" lon="9.4587506"><ele>597.5</ele><time>2026-04-19T13:43:26.94Z</time></trkpt><trkpt lat="44.8683599" lon="9.4588341"><ele>600.0</ele><time>2026-04-19T13:43:27.94Z</time></trkpt><trkpt lat="44.8683111" lon="9.4589117"><ele>602.5</ele><time>2026-04-19T13:43:28.917Z</time></trkpt><trkpt lat="44.8682622" lon="9.4590032"><ele>605.0</ele><time>2026-04-19T13:43:29.968Z</time></trkpt><trkpt lat="44.8682126" lon="9.4591471"><ele>605.0</ele><time>2026-04-19T13:43:31.876Z</time></trkpt><trkpt lat="44.868228" lon="9.459294"><ele>605.0</ele><time>2026-04-19T13:43:33.881Z</time></trkpt><trkpt lat="44.8683416" lon="9.4593628"><ele>605.0</ele><time>2026-04-19T13:43:35.89Z</time></trkpt><trkpt lat="44.8684207" lon="9.4593864"><ele>605.0</ele><time>2026-04-19T13:43:36.873Z</time></trkpt><trkpt lat="44.8685025" lon="9.4594104"><ele>605.0</ele><time>2026-04-19T13:43:37.905Z</time></trkpt><trkpt lat="44.8686105" lon="9.4594433"><ele>600.8</ele><time>2026-04-19T13:43:39.906Z</time></trkpt><trkpt lat="44.8687066" lon="9.4595663"><ele>596.6</ele><time>2026-04-19T13:43:41.93Z</time></trkpt><trkpt lat="44.8687589" lon="9.4596575"><ele>592.4</ele><time>2026-04-19T13:43:42.974Z</time></trkpt><trkpt lat="44.8688083" lon="9.4597581"><ele>588.2</ele><time>2026-04-19T13:43:43.959Z</time></trkpt><trkpt lat="44.8688389" lon="9.4598713"><ele>584.0</ele><time>2026-04-19T13:43:44.933Z</time></trkpt><trkpt lat="44.8688602" lon="9.4599678"><ele>583.6666666666666</ele><time>2026-04-19T13:43:45.935Z</time></trkpt><trkpt lat="44.8688739" lon="9.4600671"><ele>583.3333333333333</ele><time>2026-04-19T13:43:46.902Z</time></trkpt><trkpt lat="44.8688559" lon="9.4601823"><ele>583.0</ele><time>2026-04-19T13:43:47.871Z</time></trkpt><trkpt lat="44.868842" lon="9.4603091"><ele>582.6666666666666</ele><time>2026-04-19T13:43:48.934Z</time></trkpt><trkpt lat="44.8688443" lon="9.46042"><ele>582.3333333333334</ele><time>2026-04-19T13:43:49.902Z</time></trkpt><trkpt lat="44.8688718" lon="9.4605406"><ele>582.0</ele><time>2026-04-19T13:43:50.917Z</time></trkpt><trkpt lat="44.8689042" lon="9.460672"><ele>582.8000000000001</ele><time>2026-04-19T13:43:51.902Z</time></trkpt><trkpt lat="44.8689541" lon="9.4608001"><ele>583.6</ele><time>2026-04-19T13:43:52.961Z</time></trkpt><trkpt lat="44.8690088" lon="9.4609066"><ele>584.4000000000001</ele><time>2026-04-19T13:43:53.873Z</time></trkpt><trkpt lat="44.8690682" lon="9.4610276"><ele>585.2</ele><time>2026-04-19T13:43:54.917Z</time></trkpt><trkpt lat="44.8691224" lon="9.4611383"><ele>586.0</ele><time>2026-04-19T13:43:55.941Z</time></trkpt><trkpt lat="44.8691794" lon="9.461227"><ele>586.8333333333334</ele><time>2026-04-19T13:43:56.904Z</time></trkpt><trkpt lat="44.8692526" lon="9.4612969"><ele>587.6666666666667</ele><time>2026-04-19T13:43:57.969Z</time></trkpt><trkpt lat="44.8693344" lon="9.4613499"><ele>588.5</ele><time>2026-04-19T13:43:58.929Z</time></trkpt><trkpt lat="44.8694091" lon="9.4614044"><ele>589.3333333333334</ele><time>2026-04-19T13:43:59.927Z</time></trkpt><trkpt lat="44.8694702" lon="9.4614462"><ele>590.1666666666666</ele><time>2026-04-19T13:44:00.89Z</time></trkpt><trkpt lat="44.8695266" lon="9.4615046"><ele>591.0</ele><time>2026-04-19T13:44:01.887Z</time></trkpt><trkpt lat="44.8695556" lon="9.4615851"><ele>586.8333333333334</ele><time>2026-04-19T13:44:02.919Z</time></trkpt><trkpt lat="44.8695502" lon="9.4616896"><ele>582.6666666666666</ele><time>2026-04-19T13:44:03.929Z</time></trkpt><trkpt lat="44.8695496" lon="9.4618068"><ele>578.5</ele><time>2026-04-19T13:44:04.893Z</time></trkpt><trkpt lat="44.869545" lon="9.461947"><ele>574.3333333333333</ele><time>2026-04-19T13:44:05.925Z</time></trkpt><trkpt lat="44.8695404" lon="9.4620784"><ele>570.1666666666666</ele><time>2026-04-19T13:44:06.879Z</time></trkpt><trkpt lat="44.8695304" lon="9.462208"><ele>566.0</ele><time>2026-04-19T13:44:07.923Z</time></trkpt><trkpt lat="44.8695178" lon="9.4623372"><ele>566.0</ele><time>2026-04-19T13:44:08.841Z</time></trkpt><trkpt lat="44.8694916" lon="9.4624635"><ele>566.0</ele><time>2026-04-19T13:44:09.951Z</time></trkpt><trkpt lat="44.8694725" lon="9.4625727"><ele>566.0</ele><time>2026-04-19T13:44:10.953Z</time></trkpt><trkpt lat="44.8694698" lon="9.4626758"><ele>566.0</ele><time>2026-04-19T13:44:11.973Z</time></trkpt><trkpt lat="44.8694826" lon="9.4627666"><ele>566.0</ele><time>2026-04-19T13:44:12.944Z</time></trkpt><trkpt lat="44.8695103" lon="9.4628627"><ele>566.0</ele><time>2026-04-19T13:44:13.928Z</time></trkpt><trkpt lat="44.8695542" lon="9.4629574"><ele>567.6666666666666</ele><time>2026-04-19T13:44:14.925Z</time></trkpt><trkpt lat="44.8696091" lon="9.4630436"><ele>569.3333333333333</ele><time>2026-04-19T13:44:15.924Z</time></trkpt><trkpt lat="44.8696693" lon="9.4631135"><ele>571.0</ele><time>2026-04-19T13:44:16.879Z</time></trkpt><trkpt lat="44.8697451" lon="9.4631805"><ele>572.6666666666666</ele><time>2026-04-19T13:44:17.929Z</time></trkpt><trkpt lat="44.8698194" lon="9.4632452"><ele>574.3333333333334</ele><time>2026-04-19T13:44:18.945Z</time></trkpt><trkpt lat="44.8698799" lon="9.4633069"><ele>576.0</ele><time>2026-04-19T13:44:19.893Z</time></trkpt><trkpt lat="44.8699313" lon="9.4634268"><ele>576.0</ele><time>2026-04-19T13:44:22.071Z</time></trkpt><trkpt lat="44.8698717" lon="9.4635096"><ele>576.0</ele><time>2026-04-19T13:44:34.959Z</time></trkpt><trkpt lat="44.8697688" lon="9.4635604"><ele>576.0</ele><time>2026-04-19T13:44:37.007Z</time></trkpt><trkpt lat="44.8697029" lon="9.4635901"><ele>576.0</ele><time>2026-04-19T13:44:37.995Z</time></trkpt><trkpt lat="44.8696253" lon="9.4636327"><ele>576.0</ele><time>2026-04-19T13:44:39.022Z</time></trkpt><trkpt lat="44.8695021" lon="9.4637781"><ele>575.5</ele><time>2026-04-19T13:44:41.034Z</time></trkpt><trkpt lat="44.8694344" lon="9.4639606"><ele>575.0</ele><time>2026-04-19T13:44:43.049Z</time></trkpt><trkpt lat="44.869416" lon="9.4641576"><ele>574.5</ele><time>2026-04-19T13:44:44.966Z</time></trkpt><trkpt lat="44.8694355" lon="9.4642714"><ele>574.0</ele><time>2026-04-19T13:44:45.945Z</time></trkpt><trkpt lat="44.8694642" lon="9.4644026"><ele>574.0</ele><time>2026-04-19T13:44:46.938Z</time></trkpt><trkpt lat="44.8694966" lon="9.4645467"><ele>574.0</ele><time>2026-04-19T13:44:47.929Z</time></trkpt><trkpt lat="44.8695322" lon="9.4646912"><ele>574.0</ele><time>2026-04-19T13:44:48.914Z</time></trkpt><trkpt lat="44.869569" lon="9.4648443"><ele>574.0</ele><time>2026-04-19T13:44:50.06Z</time></trkpt><trkpt lat="44.8695768" lon="9.4650581"><ele>574.0</ele><time>2026-04-19T13:44:51.875Z</time></trkpt><trkpt lat="44.8695783" lon="9.4651903"><ele>574.0</ele><time>2026-04-19T13:44:52.961Z</time></trkpt><trkpt lat="44.8696132" lon="9.4653159"><ele>574.0</ele><time>2026-04-19T13:44:53.951Z</time></trkpt><trkpt lat="44.86966" lon="9.4654518"><ele>574.0</ele><time>2026-04-19T13:44:54.982Z</time></trkpt><trkpt lat="44.8696984" lon="9.4655813"><ele>574.0</ele><time>2026-04-19T13:44:55.926Z</time></trkpt><trkpt lat="44.8697426" lon="9.4657203"><ele>574.0</ele><time>2026-04-19T13:44:57.029Z</time></trkpt><trkpt lat="44.8697761" lon="9.4658223"><ele>574.0</ele><time>2026-04-19T13:44:57.945Z</time></trkpt><trkpt lat="44.8698038" lon="9.4659284"><ele>574.0</ele><time>2026-04-19T13:44:58.98Z</time></trkpt><trkpt lat="44.8698272" lon="9.466031"><ele>574.0</ele><time>2026-04-19T13:44:59.932Z</time></trkpt><trkpt lat="44.8698533" lon="9.4661407"><ele>574.0</ele><time>2026-04-19T13:45:00.921Z</time></trkpt><trkpt lat="44.8698777" lon="9.4662655"><ele>574.0</ele><time>2026-04-19T13:45:01.938Z</time></trkpt><trkpt lat="44.8698999" lon="9.4663988"><ele>574.6</ele><time>2026-04-19T13:45:02.952Z</time></trkpt><trkpt lat="44.869924" lon="9.4665363"><ele>575.2</ele><time>2026-04-19T13:45:03.953Z</time></trkpt><trkpt lat="44.8699539" lon="9.4666604"><ele>575.8000000000001</ele><time>2026-04-19T13:45:04.911Z</time></trkpt><trkpt lat="44.8699965" lon="9.4667857"><ele>576.4</ele><time>2026-04-19T13:45:05.894Z</time></trkpt><trkpt lat="44.8700515" lon="9.4669166"><ele>577.0</ele><time>2026-04-19T13:45:06.933Z</time></trkpt><trkpt lat="44.8701069" lon="9.4670381"><ele>574.0</ele><time>2026-04-19T13:45:07.899Z</time></trkpt><trkpt lat="44.8701585" lon="9.4671641"><ele>571.0</ele><time>2026-04-19T13:45:08.901Z</time></trkpt><trkpt lat="44.8702007" lon="9.4672793"><ele>568.0</ele><time>2026-04-19T13:45:09.912Z</time></trkpt><trkpt lat="44.8702357" lon="9.4673775"><ele>565.0</ele><time>2026-04-19T13:45:10.917Z</time></trkpt><trkpt lat="44.8702605" lon="9.4674768"><ele>562.0</ele><time>2026-04-19T13:45:11.964Z</time></trkpt><trkpt lat="44.8702742" lon="9.4675795"><ele>559.0</ele><time>2026-04-19T13:45:12.885Z</time></trkpt><trkpt lat="44.8702883" lon="9.4676798"><ele>559.0</ele><time>2026-04-19T13:45:13.91Z</time></trkpt><trkpt lat="44.8703475" lon="9.467817"><ele>559.0</ele><time>2026-04-19T13:45:16.011Z</time></trkpt><trkpt lat="44.870385" lon="9.4679294"><ele>559.0</ele><time>2026-04-19T13:45:18.054Z</time></trkpt><trkpt lat="44.8703562" lon="9.4680406"><ele>559.0</ele><time>2026-04-19T13:45:19.936Z</time></trkpt><trkpt lat="44.8702627" lon="9.4681697"><ele>559.0</ele><time>2026-04-19T13:45:21.925Z</time></trkpt><trkpt lat="44.8701914" lon="9.4682406"><ele>560.0</ele><time>2026-04-19T13:45:22.943Z</time></trkpt><trkpt lat="44.8701136" lon="9.4683176"><ele>561.0</ele><time>2026-04-19T13:45:23.911Z</time></trkpt><trkpt lat="44.8700378" lon="9.4684081"><ele>562.0</ele><time>2026-04-19T13:45:24.985Z</time></trkpt><trkpt lat="44.8699747" lon="9.4684886"><ele>563.0</ele><time>2026-04-19T13:45:25.92Z</time></trkpt><trkpt lat="44.8699147" lon="9.4685577"><ele>564.0</ele><time>2026-04-19T13:45:26.921Z</time></trkpt><trkpt lat="44.8698483" lon="9.4686206"><ele>565.0</ele><time>2026-04-19T13:45:27.926Z</time></trkpt><trkpt lat="44.869787" lon="9.4686688"><ele>566.0</ele><time>2026-04-19T13:45:28.874Z</time></trkpt><trkpt lat="44.869719" lon="9.4687098"><ele>567.0</ele><time>2026-04-19T13:45:29.865Z</time></trkpt><trkpt lat="44.8696572" lon="9.468751"><ele>568.0</ele><time>2026-04-19T13:45:30.952Z</time></trkpt><trkpt lat="44.8695964" lon="9.4687899"><ele>569.0</ele><time>2026-04-19T13:45:31.962Z</time></trkpt><trkpt lat="44.8695395" lon="9.4688307"><ele>570.0</ele><time>2026-04-19T13:45:32.93Z</time></trkpt><trkpt lat="44.8694782" lon="9.4688828"><ele>571.0</ele><time>2026-04-19T13:45:33.973Z</time></trkpt><trkpt lat="44.8693679" lon="9.4689759"><ele>569.8</ele><time>2026-04-19T13:45:35.951Z</time></trkpt><trkpt lat="44.8693029" lon="9.4690498"><ele>568.6</ele><time>2026-04-19T13:45:36.984Z</time></trkpt><trkpt lat="44.8692435" lon="9.4691219"><ele>567.4</ele><time>2026-04-19T13:45:38.037Z</time></trkpt><trkpt lat="44.8691958" lon="9.4692656"><ele>566.2</ele><time>2026-04-19T13:45:39.949Z</time></trkpt><trkpt lat="44.8692213" lon="9.4694281"><ele>565.0</ele><time>2026-04-19T13:45:41.911Z</time></trkpt><trkpt lat="44.8692451" lon="9.4695296"><ele>564.2</ele><time>2026-04-19T13:45:42.933Z</time></trkpt><trkpt lat="44.8692754" lon="9.4696228"><ele>563.4</ele><time>2026-04-19T13:45:43.885Z</time></trkpt><trkpt lat="44.8693088" lon="9.4697127"><ele>562.6</ele><time>2026-04-19T13:45:44.99Z</time></trkpt><trkpt lat="44.8693737" lon="9.4698825"><ele>561.8</ele><time>2026-04-19T13:45:46.962Z</time></trkpt><trkpt lat="44.8694077" lon="9.4700027"><ele>561.0</ele><time>2026-04-19T13:45:48.056Z</time></trkpt><trkpt lat="44.8694582" lon="9.4702381"><ele>558.0</ele><time>2026-04-19T13:45:49.977Z</time></trkpt><trkpt lat="44.8694719" lon="9.4703587"><ele>555.0</ele><time>2026-04-19T13:45:50.945Z</time></trkpt><trkpt lat="44.8694829" lon="9.470488"><ele>552.0</ele><time>2026-04-19T13:45:51.912Z</time></trkpt><trkpt lat="44.8694956" lon="9.4706218"><ele>549.0</ele><time>2026-04-19T13:45:52.91Z</time></trkpt><trkpt lat="44.869518" lon="9.4707475"><ele>546.0</ele><time>2026-04-19T13:45:53.97Z</time></trkpt><trkpt lat="44.8695359" lon="9.4708561"><ele>543.0</ele><time>2026-04-19T13:45:54.975Z</time></trkpt><trkpt lat="44.8695363" lon="9.4709623"><ele>542.0</ele><time>2026-04-19T13:45:55.952Z</time></trkpt><trkpt lat="44.8695196" lon="9.471079"><ele>541.0</ele><time>2026-04-19T13:45:56.971Z</time></trkpt><trkpt lat="44.8695174" lon="9.471187"><ele>540.0</ele><time>2026-04-19T13:45:57.968Z</time></trkpt><trkpt lat="44.8695322" lon="9.4713024"><ele>539.0</ele><time>2026-04-19T13:45:59.041Z</time></trkpt><trkpt lat="44.8696153" lon="9.4715112"><ele>538.0</ele><time>2026-04-19T13:46:00.966Z</time></trkpt><trkpt lat="44.8696743" lon="9.4716206"><ele>538.0</ele><time>2026-04-19T13:46:01.939Z</time></trkpt><trkpt lat="44.8697324" lon="9.471726"><ele>538.0</ele><time>2026-04-19T13:46:02.904Z</time></trkpt><trkpt lat="44.8698043" lon="9.4718435"><ele>538.0</ele><time>2026-04-19T13:46:04.069Z</time></trkpt><trkpt lat="44.8698969" lon="9.4720104"><ele>538.0</ele><time>2026-04-19T13:46:06.075Z</time></trkpt><trkpt lat="44.8700002" lon="9.472128"><ele>538.1666666666667</ele><time>2026-04-19T13:46:07.967Z</time></trkpt><trkpt lat="44.8700631" lon="9.4721782"><ele>538.3333333333334</ele><time>2026-04-19T13:46:08.973Z</time></trkpt><trkpt lat="44.8701209" lon="9.4722195"><ele>538.5</ele><time>2026-04-19T13:46:09.932Z</time></trkpt><trkpt lat="44.870198" lon="9.4722862"><ele>538.6666666666666</ele><time>2026-04-19T13:46:10.915Z</time></trkpt><trkpt lat="44.8702841" lon="9.4723543"><ele>538.8333333333333</ele><time>2026-04-19T13:46:11.885Z</time></trkpt><trkpt lat="44.8703734" lon="9.4724078"><ele>539.0</ele><time>2026-04-19T13:46:13.022Z</time></trkpt><trkpt lat="44.8704627" lon="9.4724501"><ele>538.1666666666666</ele><time>2026-04-19T13:46:14.917Z</time></trkpt><trkpt lat="44.8705328" lon="9.4724873"><ele>537.3333333333333</ele><time>2026-04-19T13:46:34.982Z</time></trkpt><trkpt lat="44.8705836" lon="9.4725692"><ele>536.5</ele><time>2026-04-19T13:46:36.952Z</time></trkpt><trkpt lat="44.8706235" lon="9.4726481"><ele>535.6666666666666</ele><time>2026-04-19T13:46:37.95Z</time></trkpt><trkpt lat="44.8706645" lon="9.4727282"><ele>534.8333333333334</ele><time>2026-04-19T13:46:38.885Z</time></trkpt><trkpt lat="44.8707149" lon="9.4728249"><ele>534.0</ele><time>2026-04-19T13:46:39.925Z</time></trkpt><trkpt lat="44.8707621" lon="9.4729125"><ele>532.4</ele><time>2026-04-19T13:46:40.969Z</time></trkpt><trkpt lat="44.8708538" lon="9.473051"><ele>530.8</ele><time>2026-04-19T13:46:43.102Z</time></trkpt><trkpt lat="44.8709416" lon="9.4731895"><ele>529.2</ele><time>2026-04-19T13:46:44.955Z</time></trkpt><trkpt lat="44.8709859" lon="9.4732814"><ele>527.6</ele><time>2026-04-19T13:46:45.953Z</time></trkpt><trkpt lat="44.8710298" lon="9.4733734"><ele>526.0</ele><time>2026-04-19T13:46:46.929Z</time></trkpt><trkpt lat="44.8710631" lon="9.4734605"><ele>526.0</ele><time>2026-04-19T13:46:47.952Z</time></trkpt><trkpt lat="44.8710951" lon="9.4736284"><ele>526.0</ele><time>2026-04-19T13:46:50.02Z</time></trkpt><trkpt lat="44.871108" lon="9.473742"><ele>526.0</ele><time>2026-04-19T13:46:50.944Z</time></trkpt><trkpt lat="44.8711058" lon="9.473853"><ele>526.0</ele><time>2026-04-19T13:46:51.94Z</time></trkpt><trkpt lat="44.8710938" lon="9.4739973"><ele>526.0</ele><time>2026-04-19T13:46:53.026Z</time></trkpt><trkpt lat="44.8710857" lon="9.4741097"><ele>527.0</ele><time>2026-04-19T13:46:53.935Z</time></trkpt><trkpt lat="44.8710833" lon="9.4742345"><ele>528.0</ele><time>2026-04-19T13:46:54.967Z</time></trkpt><trkpt lat="44.8711029" lon="9.4743543"><ele>529.0</ele><time>2026-04-19T13:46:55.958Z</time></trkpt><trkpt lat="44.8711387" lon="9.4744873"><ele>530.0</ele><time>2026-04-19T13:46:56.915Z</time></trkpt><trkpt lat="44.8711932" lon="9.4746284"><ele>531.0</ele><time>2026-04-19T13:46:58.003Z</time></trkpt><trkpt lat="44.8712503" lon="9.4747465"><ele>531.4</ele><time>2026-04-19T13:46:59.041Z</time></trkpt><trkpt lat="44.871297" lon="9.4748614"><ele>531.8</ele><time>2026-04-19T13:46:59.992Z</time></trkpt><trkpt lat="44.8713417" lon="9.4749779"><ele>532.1999999999999</ele><time>2026-04-19T13:47:01.014Z</time></trkpt><trkpt lat="44.8713774" lon="9.4750862"><ele>532.6</ele><time>2026-04-19T13:47:02.005Z</time></trkpt><trkpt lat="44.8714065" lon="9.4751932"><ele>533.0</ele><time>2026-04-19T13:47:02.949Z</time></trkpt><trkpt lat="44.8714393" lon="9.4753209"><ele>533.4</ele><time>2026-04-19T13:47:03.974Z</time></trkpt><trkpt lat="44.8714681" lon="9.4754404"><ele>533.8</ele><time>2026-04-19T13:47:04.928Z</time></trkpt><trkpt lat="44.8715089" lon="9.4755908"><ele>534.2</ele><time>2026-04-19T13:47:06.1Z</time></trkpt><trkpt lat="44.8715477" lon="9.4757028"><ele>534.6</ele><time>2026-04-19T13:47:07.022Z</time></trkpt><trkpt lat="44.8715909" lon="9.4758295"><ele>535.0</ele><time>2026-04-19T13:47:08.063Z</time></trkpt><trkpt lat="44.8716294" lon="9.4759429"><ele>535.0</ele><time>2026-04-19T13:47:08.968Z</time></trkpt><trkpt lat="44.8716679" lon="9.47606"><ele>535.0</ele><time>2026-04-19T13:47:09.964Z</time></trkpt><trkpt lat="44.8717076" lon="9.476187"><ele>535.0</ele><time>2026-04-19T13:47:11.072Z</time></trkpt><trkpt lat="44.8717583" lon="9.4764048"><ele>535.0</ele><time>2026-04-19T13:47:13.041Z</time></trkpt><trkpt lat="44.8717794" lon="9.4765097"><ele>535.0</ele><time>2026-04-19T13:47:13.954Z</time></trkpt><trkpt lat="44.8718115" lon="9.4766223"><ele>534.2</ele><time>2026-04-19T13:47:14.983Z</time></trkpt><trkpt lat="44.8718499" lon="9.476709"><ele>533.4</ele><time>2026-04-19T13:47:15.951Z</time></trkpt><trkpt lat="44.8719023" lon="9.4767913"><ele>532.6</ele><time>2026-04-19T13:47:16.969Z</time></trkpt><trkpt lat="44.8719708" lon="9.4768631"><ele>531.8</ele><time>2026-04-19T13:47:18.095Z</time></trkpt><trkpt lat="44.872101" lon="9.4769906"><ele>531.0</ele><time>2026-04-19T13:47:19.967Z</time></trkpt><trkpt lat="44.8721583" lon="9.477056"><ele>533.2</ele><time>2026-04-19T13:47:20.949Z</time></trkpt><trkpt lat="44.8722552" lon="9.4771412"><ele>535.4000000000001</ele><time>2026-04-19T13:47:23.027Z</time></trkpt><trkpt lat="44.8723434" lon="9.4771552"><ele>537.6</ele><time>2026-04-19T13:47:25.01Z</time></trkpt><trkpt lat="44.8724185" lon="9.4771953"><ele>539.8000000000001</ele><time>2026-04-19T13:47:26.944Z</time></trkpt><trkpt lat="44.8724908" lon="9.4773009"><ele>542.0</ele><time>2026-04-19T13:47:29.152Z</time></trkpt><trkpt lat="44.8725533" lon="9.4774708"><ele>542.0</ele><time>2026-04-19T13:47:30.924Z</time></trkpt><trkpt lat="44.8725971" lon="9.4775757"><ele>542.0</ele><time>2026-04-19T13:47:31.972Z</time></trkpt><trkpt lat="44.8726388" lon="9.4776802"><ele>542.0</ele><time>2026-04-19T13:47:33.005Z</time></trkpt><trkpt lat="44.8726753" lon="9.4777688"><ele>542.0</ele><time>2026-04-19T13:47:33.935Z</time></trkpt><trkpt lat="44.8727165" lon="9.4778785"><ele>542.0</ele><time>2026-04-19T13:47:35.011Z</time></trkpt><trkpt lat="44.8727389" lon="9.477974"><ele>542.0</ele><time>2026-04-19T13:47:35.978Z</time></trkpt><trkpt lat="44.8727635" lon="9.4780823"><ele>537.3333333333333</ele><time>2026-04-19T13:47:36.936Z</time></trkpt><trkpt lat="44.8727834" lon="9.4781958"><ele>532.6666666666666</ele><time>2026-04-19T13:47:37.902Z</time></trkpt><trkpt lat="44.8728" lon="9.4783276"><ele>528.0</ele><time>2026-04-19T13:47:38.983Z</time></trkpt><trkpt lat="44.8728032" lon="9.4784433"><ele>523.3333333333334</ele><time>2026-04-19T13:47:39.914Z</time></trkpt><trkpt lat="44.8727982" lon="9.4785698"><ele>518.6666666666667</ele><time>2026-04-19T13:47:40.997Z</time></trkpt><trkpt lat="44.8727979" lon="9.4786759"><ele>514.0</ele><time>2026-04-19T13:47:41.939Z</time></trkpt><trkpt lat="44.8728058" lon="9.4788116"><ele>514.0</ele><time>2026-04-19T13:47:42.984Z</time></trkpt><trkpt lat="44.8728207" lon="9.4789361"><ele>514.0</ele><time>2026-04-19T13:47:43.958Z</time></trkpt><trkpt lat="44.8728535" lon="9.4790727"><ele>514.0</ele><time>2026-04-19T13:47:44.982Z</time></trkpt><trkpt lat="44.8728806" lon="9.479207"><ele>514.0</ele><time>2026-04-19T13:47:45.971Z</time></trkpt><trkpt lat="44.8729014" lon="9.4793344"><ele>514.0</ele><time>2026-04-19T13:47:46.959Z</time></trkpt><trkpt lat="44.8729193" lon="9.4794802"><ele>514.8</ele><time>2026-04-19T13:47:48.184Z</time></trkpt><trkpt lat="44.8729333" lon="9.4796484"><ele>515.5999999999999</ele><time>2026-04-19T13:47:49.906Z</time></trkpt><trkpt lat="44.8729361" lon="9.4797434"><ele>516.4</ele><time>2026-04-19T13:47:51.131Z</time></trkpt><trkpt lat="44.8729446" lon="9.4798871"><ele>517.1999999999999</ele><time>2026-04-19T13:47:52.985Z</time></trkpt><trkpt lat="44.8729912" lon="9.4800691"><ele>518.0</ele><time>2026-04-19T13:47:54.941Z</time></trkpt><trkpt lat="44.8730471" lon="9.4802118"><ele>520.6666666666666</ele><time>2026-04-19T13:47:56.071Z</time></trkpt><trkpt lat="44.8731714" lon="9.4805075"><ele>523.3333333333334</ele><time>2026-04-19T13:47:57.996Z</time></trkpt><trkpt lat="44.8732248" lon="9.4806392"><ele>526.0</ele><time>2026-04-19T13:47:58.92Z</time></trkpt><trkpt lat="44.8732737" lon="9.4807617"><ele>526.0</ele><time>2026-04-19T13:47:59.95Z</time></trkpt><trkpt lat="44.8733217" lon="9.480867"><ele>526.0</ele><time>2026-04-19T13:48:01.058Z</time></trkpt><trkpt lat="44.8733671" lon="9.4809664"><ele>526.0</ele><time>2026-04-19T13:48:02.019Z</time></trkpt><trkpt lat="44.8734167" lon="9.4810548"><ele>526.0</ele><time>2026-04-19T13:48:02.971Z</time></trkpt><trkpt lat="44.8734804" lon="9.4811522"><ele>526.0</ele><time>2026-04-19T13:48:04.047Z</time></trkpt><trkpt lat="44.8735457" lon="9.4812325"><ele>526.0</ele><time>2026-04-19T13:48:04.952Z</time></trkpt><trkpt lat="44.8736401" lon="9.4813422"><ele>529.5</ele><time>2026-04-19T13:48:06.119Z</time></trkpt><trkpt lat="44.8738248" lon="9.481529"><ele>533.0</ele><time>2026-04-19T13:48:08.076Z</time></trkpt><trkpt lat="44.8739054" lon="9.4816019"><ele>536.5</ele><time>2026-04-19T13:48:08.97Z</time></trkpt><trkpt lat="44.8739901" lon="9.4816816"><ele>540.0</ele><time>2026-04-19T13:48:10.008Z</time></trkpt><trkpt lat="44.8740684" lon="9.4817587"><ele>540.0</ele><time>2026-04-19T13:48:10.97Z</time></trkpt><trkpt lat="44.8741471" lon="9.4818305"><ele>540.0</ele><time>2026-04-19T13:48:11.936Z</time></trkpt><trkpt lat="44.8742302" lon="9.4818992"><ele>540.0</ele><time>2026-04-19T13:48:12.948Z</time></trkpt><trkpt lat="44.8743169" lon="9.481956"><ele>540.0</ele><time>2026-04-19T13:48:13.968Z</time></trkpt><trkpt lat="44.8744169" lon="9.4820036"><ele>540.0</ele><time>2026-04-19T13:48:15.063Z</time></trkpt><trkpt lat="44.8746167" lon="9.4820243"><ele>541.6</ele><time>2026-04-19T13:48:16.979Z</time></trkpt><trkpt lat="44.874715" lon="9.4820464"><ele>543.2</ele><time>2026-04-19T13:48:17.92Z</time></trkpt><trkpt lat="44.8748226" lon="9.4820891"><ele>544.8</ele><time>2026-04-19T13:48:19.04Z</time></trkpt><trkpt lat="44.8749071" lon="9.4821519"><ele>546.4</ele><time>2026-04-19T13:48:20.011Z</time></trkpt><trkpt lat="44.8749754" lon="9.4822217"><ele>548.0</ele><time>2026-04-19T13:48:20.945Z</time></trkpt><trkpt lat="44.8750426" lon="9.4823"><ele>547.1999999999999</ele><time>2026-04-19T13:48:21.941Z</time></trkpt><trkpt lat="44.8751136" lon="9.48239"><ele>546.4</ele><time>2026-04-19T13:48:22.987Z</time></trkpt><trkpt lat="44.8751733" lon="9.4824834"><ele>545.5999999999999</ele><time>2026-04-19T13:48:23.956Z</time></trkpt><trkpt lat="44.8752299" lon="9.4825968"><ele>544.8</ele><time>2026-04-19T13:48:24.954Z</time></trkpt><trkpt lat="44.875279" lon="9.4827387"><ele>544.0</ele><time>2026-04-19T13:48:25.989Z</time></trkpt><trkpt lat="44.8753068" lon="9.4828844"><ele>545.5</ele><time>2026-04-19T13:48:26.959Z</time></trkpt><trkpt lat="44.8753291" lon="9.4830636"><ele>547.0</ele><time>2026-04-19T13:48:28.048Z</time></trkpt><trkpt lat="44.8753499" lon="9.4832345"><ele>548.5</ele><time>2026-04-19T13:48:29.017Z</time></trkpt><trkpt lat="44.875373" lon="9.4834064"><ele>550.0</ele><time>2026-04-19T13:48:29.958Z</time></trkpt><trkpt lat="44.875391" lon="9.4835928"><ele>551.75</ele><time>2026-04-19T13:48:30.945Z</time></trkpt><trkpt lat="44.8754122" lon="9.4837943"><ele>553.5</ele><time>2026-04-19T13:48:32.052Z</time></trkpt><trkpt lat="44.8754441" lon="9.483955"><ele>555.25</ele><time>2026-04-19T13:48:33.005Z</time></trkpt><trkpt lat="44.8754763" lon="9.484144"><ele>557.0</ele><time>2026-04-19T13:48:34.094Z</time></trkpt><trkpt lat="44.8755636" lon="9.4844789"><ele>556.0</ele><time>2026-04-19T13:48:36.107Z</time></trkpt><trkpt lat="44.8756585" lon="9.4847715"><ele>555.0</ele><time>2026-04-19T13:48:37.992Z</time></trkpt><trkpt lat="44.8757116" lon="9.4849281"><ele>554.0</ele><time>2026-04-19T13:48:38.984Z</time></trkpt><trkpt lat="44.8757628" lon="9.4850894"><ele>554.0</ele><time>2026-04-19T13:48:39.938Z</time></trkpt><trkpt lat="44.8758081" lon="9.4852696"><ele>554.0</ele><time>2026-04-19T13:48:40.962Z</time></trkpt><trkpt lat="44.875837" lon="9.4854318"><ele>554.0</ele><time>2026-04-19T13:48:41.957Z</time></trkpt><trkpt lat="44.8758764" lon="9.4856066"><ele>554.0</ele><time>2026-04-19T13:48:43.102Z</time></trkpt><trkpt lat="44.8759869" lon="9.4858468"><ele>553.75</ele><time>2026-04-19T13:48:44.956Z</time></trkpt><trkpt lat="44.8760687" lon="9.4859728"><ele>553.5</ele><time>2026-04-19T13:48:46.05Z</time></trkpt><trkpt lat="44.8761473" lon="9.4860923"><ele>553.25</ele><time>2026-04-19T13:48:47.09Z</time></trkpt><trkpt lat="44.8762605" lon="9.4862828"><ele>553.0</ele><time>2026-04-19T13:48:49.038Z</time></trkpt><trkpt lat="44.8763121" lon="9.486363"><ele>553.0</ele><time>2026-04-19T13:48:49.957Z</time></trkpt><trkpt lat="44.8763689" lon="9.4864644"><ele>553.0</ele><time>2026-04-19T13:48:50.96Z</time></trkpt><trkpt lat="44.8764213" lon="9.4865829"><ele>553.0</ele><time>2026-04-19T13:48:51.962Z</time></trkpt><trkpt lat="44.8764705" lon="9.4867121"><ele>553.0</ele><time>2026-04-19T13:48:52.959Z</time></trkpt><trkpt lat="44.87652" lon="9.4868497"><ele>553.0</ele><time>2026-04-19T13:48:53.958Z</time></trkpt><trkpt lat="44.8765707" lon="9.4869954"><ele>552.5</ele><time>2026-04-19T13:48:54.935Z</time></trkpt><trkpt lat="44.8766229" lon="9.4871623"><ele>552.0</ele><time>2026-04-19T13:48:56.05Z</time></trkpt><trkpt lat="44.8766615" lon="9.4873058"><ele>551.5</ele><time>2026-04-19T13:48:56.955Z</time></trkpt><trkpt lat="44.8766927" lon="9.4874629"><ele>551.0</ele><time>2026-04-19T13:48:57.932Z</time></trkpt><trkpt lat="44.8767159" lon="9.4876349"><ele>551.0</ele><time>2026-04-19T13:48:58.96Z</time></trkpt><trkpt lat="44.8767271" lon="9.4878008"><ele>551.0</ele><time>2026-04-19T13:48:59.946Z</time></trkpt><trkpt lat="44.8767294" lon="9.4879693"><ele>551.0</ele><time>2026-04-19T13:49:00.957Z</time></trkpt><trkpt lat="44.8767614" lon="9.488151"><ele>551.0</ele><time>2026-04-19T13:49:02.039Z</time></trkpt><trkpt lat="44.8768089" lon="9.4883203"><ele>551.5</ele><time>2026-04-19T13:49:03.019Z</time></trkpt><trkpt lat="44.8768593" lon="9.4884787"><ele>552.0</ele><time>2026-04-19T13:49:03.924Z</time></trkpt><trkpt lat="44.8769197" lon="9.4886738"><ele>552.5</ele><time>2026-04-19T13:49:05.014Z</time></trkpt><trkpt lat="44.8769715" lon="9.4888378"><ele>553.0</ele><time>2026-04-19T13:49:05.968Z</time></trkpt><trkpt lat="44.8770317" lon="9.4890132"><ele>553.0</ele><time>2026-04-19T13:49:07.004Z</time></trkpt><trkpt lat="44.877088" lon="9.4891713"><ele>553.0</ele><time>2026-04-19T13:49:07.951Z</time></trkpt><trkpt lat="44.8771461" lon="9.489318"><ele>553.0</ele><time>2026-04-19T13:49:08.92Z</time></trkpt><trkpt lat="44.8772033" lon="9.4894716"><ele>553.0</ele><time>2026-04-19T13:49:09.934Z</time></trkpt><trkpt lat="44.8772674" lon="9.4896342"><ele>553.8</ele><time>2026-04-19T13:49:11.107Z</time></trkpt><trkpt lat="44.8773405" lon="9.489852"><ele>554.5999999999999</ele><time>2026-04-19T13:49:13.05Z</time></trkpt><trkpt lat="44.8773569" lon="9.4899518"><ele>555.4000000000001</ele><time>2026-04-19T13:49:13.989Z</time></trkpt><trkpt lat="44.8773615" lon="9.4900464"><ele>556.2</ele><time>2026-04-19T13:49:14.889Z</time></trkpt><trkpt lat="44.8773373" lon="9.4901653"><ele>557.0</ele><time>2026-04-19T13:49:16.01Z</time></trkpt><trkpt lat="44.8772961" lon="9.4902697"><ele>557.0</ele><time>2026-04-19T13:49:16.938Z</time></trkpt><trkpt lat="44.8772268" lon="9.4903994"><ele>557.0</ele><time>2026-04-19T13:49:18.052Z</time></trkpt><trkpt lat="44.8771391" lon="9.4905279"><ele>557.0</ele><time>2026-04-19T13:49:19.053Z</time></trkpt><trkpt lat="44.8770287" lon="9.490802"><ele>555.0</ele><time>2026-04-19T13:49:21.07Z</time></trkpt><trkpt lat="44.877015" lon="9.4909455"><ele>553.0</ele><time>2026-04-19T13:49:22.011Z</time></trkpt><trkpt lat="44.8770151" lon="9.4911052"><ele>551.0</ele><time>2026-04-19T13:49:22.938Z</time></trkpt><trkpt lat="44.8770379" lon="9.4912866"><ele>549.0</ele><time>2026-04-19T13:49:23.924Z</time></trkpt><trkpt lat="44.8770484" lon="9.4914812"><ele>548.25</ele><time>2026-04-19T13:49:24.95Z</time></trkpt><trkpt lat="44.8770345" lon="9.4916691"><ele>547.5</ele><time>2026-04-19T13:49:25.969Z</time></trkpt><trkpt lat="44.8770196" lon="9.4918519"><ele>546.75</ele><time>2026-04-19T13:49:27.03Z</time></trkpt><trkpt lat="44.8770218" lon="9.4920184"><ele>546.0</ele><time>2026-04-19T13:49:28.023Z</time></trkpt><trkpt lat="44.8770281" lon="9.4921773"><ele>546.0</ele><time>2026-04-19T13:49:28.961Z</time></trkpt><trkpt lat="44.8770299" lon="9.492344"><ele>546.0</ele><time>2026-04-19T13:49:29.947Z</time></trkpt><trkpt lat="44.8770234" lon="9.492519"><ele>546.0</ele><time>2026-04-19T13:49:30.94Z</time></trkpt><trkpt lat="44.8769976" lon="9.4927151"><ele>546.0</ele><time>2026-04-19T13:49:32.005Z</time></trkpt><trkpt lat="44.8769656" lon="9.492879"><ele>546.0</ele><time>2026-04-19T13:49:32.943Z</time></trkpt><trkpt lat="44.8769313" lon="9.4930673"><ele>546.0</ele><time>2026-04-19T13:49:34.027Z</time></trkpt><trkpt lat="44.8769061" lon="9.4932302"><ele>546.0</ele><time>2026-04-19T13:49:34.957Z</time></trkpt><trkpt lat="44.8768838" lon="9.4934074"><ele>546.0</ele><time>2026-04-19T13:49:35.966Z</time></trkpt><trkpt lat="44.8768763" lon="9.4935829"><ele>546.0</ele><time>2026-04-19T13:49:37.033Z</time></trkpt><trkpt lat="44.8768881" lon="9.4937229"><ele>546.0</ele><time>2026-04-19T13:49:37.977Z</time></trkpt><trkpt lat="44.8769163" lon="9.4938643"><ele>546.0</ele><time>2026-04-19T13:49:38.989Z</time></trkpt><trkpt lat="44.8769546" lon="9.4940032"><ele>546.0</ele><time>2026-04-19T13:49:40.02Z</time></trkpt><trkpt lat="44.8770024" lon="9.4941364"><ele>546.0</ele><time>2026-04-19T13:49:41.038Z</time></trkpt><trkpt lat="44.8770486" lon="9.4942481"><ele>548.8</ele><time>2026-04-19T13:49:41.963Z</time></trkpt><trkpt lat="44.877107" lon="9.4943682"><ele>551.6</ele><time>2026-04-19T13:49:43.135Z</time></trkpt><trkpt lat="44.8771571" lon="9.4944752"><ele>554.4</ele><time>2026-04-19T13:49:44.055Z</time></trkpt><trkpt lat="44.8772024" lon="9.494585"><ele>557.2</ele><time>2026-04-19T13:49:44.963Z</time></trkpt><trkpt lat="44.8772563" lon="9.494694"><ele>560.0</ele><time>2026-04-19T13:49:45.975Z</time></trkpt><trkpt lat="44.8773194" lon="9.4947789"><ele>564.0</ele><time>2026-04-19T13:49:46.965Z</time></trkpt><trkpt lat="44.8774005" lon="9.4948688"><ele>568.0</ele><time>2026-04-19T13:49:48.101Z</time></trkpt><trkpt lat="44.8775689" lon="9.4950097"><ele>572.0</ele><time>2026-04-19T13:49:50.054Z</time></trkpt><trkpt lat="44.8777431" lon="9.4951111"><ele>572.0</ele><time>2026-04-19T13:49:51.955Z</time></trkpt><trkpt lat="44.8778463" lon="9.4951705"><ele>572.0</ele><time>2026-04-19T13:49:53Z</time></trkpt><trkpt lat="44.8779397" lon="9.4952247"><ele>572.0</ele><time>2026-04-19T13:49:54.048Z</time></trkpt><trkpt lat="44.8780165" lon="9.4952666"><ele>572.0</ele><time>2026-04-19T13:49:55.015Z</time></trkpt><trkpt lat="44.8780814" lon="9.4952928"><ele>572.0</ele><time>2026-04-19T13:49:56.095Z</time></trkpt><trkpt lat="44.8781926" lon="9.4953498"><ele>574.6</ele><time>2026-04-19T13:49:57.995Z</time></trkpt><trkpt lat="44.8782285" lon="9.4954597"><ele>577.2</ele><time>2026-04-19T13:50:00.021Z</time></trkpt><trkpt lat="44.8781957" lon="9.4955763"><ele>579.8</ele><time>2026-04-19T13:50:01.965Z</time></trkpt><trkpt lat="44.8781411" lon="9.4957207"><ele>582.4</ele><time>2026-04-19T13:50:03.989Z</time></trkpt><trkpt lat="44.8780755" lon="9.495859"><ele>585.0</ele><time>2026-04-19T13:50:06.091Z</time></trkpt><trkpt lat="44.8780255" lon="9.4959916"><ele>585.0</ele><time>2026-04-19T13:50:07.922Z</time></trkpt><trkpt lat="44.8779965" lon="9.4960738"><ele>585.0</ele><time>2026-04-19T13:50:08.969Z</time></trkpt><trkpt lat="44.8779711" lon="9.4961669"><ele>585.0</ele><time>2026-04-19T13:50:09.988Z</time></trkpt><trkpt lat="44.8779402" lon="9.4962561"><ele>585.0</ele><time>2026-04-19T13:50:10.981Z</time></trkpt><trkpt lat="44.8779113" lon="9.4963403"><ele>585.0</ele><time>2026-04-19T13:50:11.929Z</time></trkpt><trkpt lat="44.8778713" lon="9.4964547"><ele>585.0</ele><time>2026-04-19T13:50:13.127Z</time></trkpt><trkpt lat="44.8777811" lon="9.4966417"><ele>584.5</ele><time>2026-04-19T13:50:14.977Z</time></trkpt><trkpt lat="44.877728" lon="9.4967603"><ele>584.0</ele><time>2026-04-19T13:50:16.07Z</time></trkpt><trkpt lat="44.8776837" lon="9.4968554"><ele>583.5</ele><time>2026-04-19T13:50:16.97Z</time></trkpt><trkpt lat="44.877638" lon="9.4969622"><ele>583.0</ele><time>2026-04-19T13:50:17.984Z</time></trkpt><trkpt lat="44.8775964" lon="9.4970543"><ele>582.5</ele><time>2026-04-19T13:50:18.922Z</time></trkpt><trkpt lat="44.8775428" lon="9.4971757"><ele>582.0</ele><time>2026-04-19T13:50:19.965Z</time></trkpt><trkpt lat="44.8775025" lon="9.4972967"><ele>584.75</ele><time>2026-04-19T13:50:21.004Z</time></trkpt><trkpt lat="44.8774661" lon="9.4974257"><ele>587.5</ele><time>2026-04-19T13:50:21.932Z</time></trkpt><trkpt lat="44.8774282" lon="9.4975822"><ele>590.25</ele><time>2026-04-19T13:50:23.038Z</time></trkpt><trkpt lat="44.877392" lon="9.4977385"><ele>593.0</ele><time>2026-04-19T13:50:24.115Z</time></trkpt><trkpt lat="44.8773377" lon="9.498035"><ele>594.75</ele><time>2026-04-19T13:50:26.077Z</time></trkpt><trkpt lat="44.8772996" lon="9.4983232"><ele>596.5</ele><time>2026-04-19T13:50:27.995Z</time></trkpt><trkpt lat="44.8772776" lon="9.4984558"><ele>598.25</ele><time>2026-04-19T13:50:28.965Z</time></trkpt><trkpt lat="44.8772399" lon="9.4985916"><ele>600.0</ele><time>2026-04-19T13:50:29.95Z</time></trkpt><trkpt lat="44.8772052" lon="9.4987403"><ele>600.75</ele><time>2026-04-19T13:50:30.937Z</time></trkpt><trkpt lat="44.8771814" lon="9.4988825"><ele>601.5</ele><time>2026-04-19T13:50:31.913Z</time></trkpt><trkpt lat="44.8771616" lon="9.4990468"><ele>602.25</ele><time>2026-04-19T13:50:33.043Z</time></trkpt><trkpt lat="44.8771493" lon="9.4992107"><ele>603.0</ele><time>2026-04-19T13:50:34.118Z</time></trkpt><trkpt lat="44.8771221" lon="9.4995013"><ele>602.6666666666666</ele><time>2026-04-19T13:50:36.066Z</time></trkpt><trkpt lat="44.8771309" lon="9.4997703"><ele>602.3333333333333</ele><time>2026-04-19T13:50:37.95Z</time></trkpt><trkpt lat="44.8771521" lon="9.4999223"><ele>602.0</ele><time>2026-04-19T13:50:39.049Z</time></trkpt><trkpt lat="44.877218" lon="9.5001946"><ele>602.0</ele><time>2026-04-19T13:50:41.027Z</time></trkpt><trkpt lat="44.8772461" lon="9.5003256"><ele>602.0</ele><time>2026-04-19T13:50:41.977Z</time></trkpt><trkpt lat="44.8772786" lon="9.5004458"><ele>602.0</ele><time>2026-04-19T13:50:42.961Z</time></trkpt><trkpt lat="44.8773057" lon="9.500567"><ele>602.0</ele><time>2026-04-19T13:50:43.973Z</time></trkpt><trkpt lat="44.8773348" lon="9.5007051"><ele>602.0</ele><time>2026-04-19T13:50:44.93Z</time></trkpt><trkpt lat="44.8773677" lon="9.5008869"><ele>600.75</ele><time>2026-04-19T13:50:46.056Z</time></trkpt><trkpt lat="44.8774273" lon="9.5011472"><ele>599.5</ele><time>2026-04-19T13:50:47.958Z</time></trkpt><trkpt lat="44.8774562" lon="9.5012786"><ele>598.25</ele><time>2026-04-19T13:50:48.974Z</time></trkpt><trkpt lat="44.877466" lon="9.5013933"><ele>597.0</ele><time>2026-04-19T13:50:49.932Z</time></trkpt><trkpt lat="44.8774681" lon="9.5015397"><ele>597.0</ele><time>2026-04-19T13:50:51.165Z</time></trkpt><trkpt lat="44.877432" lon="9.5017415"><ele>597.0</ele><time>2026-04-19T13:50:52.985Z</time></trkpt><trkpt lat="44.8773935" lon="9.501837"><ele>597.0</ele><time>2026-04-19T13:50:53.943Z</time></trkpt><trkpt lat="44.8773457" lon="9.5019173"><ele>597.0</ele><time>2026-04-19T13:50:54.921Z</time></trkpt><trkpt lat="44.8772953" lon="9.5019863"><ele>597.0</ele><time>2026-04-19T13:50:55.996Z</time></trkpt><trkpt lat="44.8772121" lon="9.5021221"><ele>598.0</ele><time>2026-04-19T13:50:58.043Z</time></trkpt><trkpt lat="44.8771695" lon="9.5022809"><ele>599.0</ele><time>2026-04-19T13:50:59.921Z</time></trkpt><trkpt lat="44.8771578" lon="9.5023689"><ele>600.0</ele><time>2026-04-19T13:51:00.907Z</time></trkpt><trkpt lat="44.8771447" lon="9.502467"><ele>601.0</ele><time>2026-04-19T13:51:01.954Z</time></trkpt><trkpt lat="44.8771339" lon="9.5025631"><ele>602.0</ele><time>2026-04-19T13:51:03.028Z</time></trkpt><trkpt lat="44.8771131" lon="9.5027206"><ele>603.0</ele><time>2026-04-19T13:51:05.003Z</time></trkpt><trkpt lat="44.8770922" lon="9.5028641"><ele>604.1666666666666</ele><time>2026-04-19T13:51:07.018Z</time></trkpt><trkpt lat="44.877065" lon="9.5029953"><ele>605.3333333333334</ele><time>2026-04-19T13:51:14.026Z</time></trkpt><trkpt lat="44.8770238" lon="9.5031563"><ele>606.5</ele><time>2026-04-19T13:51:15.947Z</time></trkpt><trkpt lat="44.8769974" lon="9.503259"><ele>607.6666666666667</ele><time>2026-04-19T13:51:16.973Z</time></trkpt><trkpt lat="44.8769699" lon="9.503363"><ele>608.8333333333334</ele><time>2026-04-19T13:51:17.955Z</time></trkpt><trkpt lat="44.8769404" lon="9.5034604"><ele>610.0</ele><time>2026-04-19T13:51:19.148Z</time></trkpt><trkpt lat="44.8768856" lon="9.5036323"><ele>612.5</ele><time>2026-04-19T13:51:20.959Z</time></trkpt><trkpt lat="44.8768571" lon="9.5038027"><ele>615.0</ele><time>2026-04-19T13:51:22.985Z</time></trkpt><trkpt lat="44.8768501" lon="9.5039868"><ele>617.5</ele><time>2026-04-19T13:51:25.009Z</time></trkpt><trkpt lat="44.8768562" lon="9.5041606"><ele>620.0</ele><time>2026-04-19T13:51:26.955Z</time></trkpt><trkpt lat="44.8768636" lon="9.5043476"><ele>620.0</ele><time>2026-04-19T13:51:28.954Z</time></trkpt><trkpt lat="44.8768687" lon="9.5044409"><ele>620.0</ele><time>2026-04-19T13:51:29.92Z</time></trkpt><trkpt lat="44.876878" lon="9.5045299"><ele>620.0</ele><time>2026-04-19T13:51:30.95Z</time></trkpt><trkpt lat="44.8768934" lon="9.5046176"><ele>620.0</ele><time>2026-04-19T13:51:32.111Z</time></trkpt><trkpt lat="44.8769118" lon="9.5047379"><ele>620.0</ele><time>2026-04-19T13:51:33.916Z</time></trkpt><trkpt lat="44.8769362" lon="9.5048724"><ele>620.0</ele><time>2026-04-19T13:51:35.939Z</time></trkpt><trkpt lat="44.8769804" lon="9.504999"><ele>621.0</ele><time>2026-04-19T13:51:38.021Z</time></trkpt><trkpt lat="44.8770871" lon="9.5052201"><ele>622.0</ele><time>2026-04-19T13:51:41.958Z</time></trkpt><trkpt lat="44.8771141" lon="9.5053099"><ele>623.0</ele><time>2026-04-19T13:51:43.052Z</time></trkpt><trkpt lat="44.8771491" lon="9.5054279"><ele>624.0</ele><time>2026-04-19T13:51:44.987Z</time></trkpt><trkpt lat="44.8771768" lon="9.5055459"><ele>625.0</ele><time>2026-04-19T13:51:46.93Z</time></trkpt><trkpt lat="44.8772071" lon="9.5056786"><ele>625.6</ele><time>2026-04-19T13:51:48.934Z</time></trkpt><trkpt lat="44.8772254" lon="9.5057927"><ele>626.2</ele><time>2026-04-19T13:51:50.149Z</time></trkpt><trkpt lat="44.877255" lon="9.5059187"><ele>626.8</ele><time>2026-04-19T13:51:51.961Z</time></trkpt><trkpt lat="44.8772825" lon="9.5060779"><ele>627.4</ele><time>2026-04-19T13:51:53.987Z</time></trkpt><trkpt lat="44.8773292" lon="9.5062217"><ele>628.0</ele><time>2026-04-19T13:51:55.927Z</time></trkpt><trkpt lat="44.8774011" lon="9.5063307"><ele>628.0</ele><time>2026-04-19T13:51:58.053Z</time></trkpt><trkpt lat="44.8775126" lon="9.5063901"><ele>628.0</ele><time>2026-04-19T13:51:59.916Z</time></trkpt><trkpt lat="44.8776332" lon="9.506417"><ele>628.0</ele><time>2026-04-19T13:52:01.945Z</time></trkpt><trkpt lat="44.877709" lon="9.5064195"><ele>628.0</ele><time>2026-04-19T13:52:03.021Z</time></trkpt><trkpt lat="44.877774" lon="9.5064116"><ele>628.0</ele><time>2026-04-19T13:52:03.974Z</time></trkpt><trkpt lat="44.8778379" lon="9.5064081"><ele>628.0</ele><time>2026-04-19T13:52:05.025Z</time></trkpt><trkpt lat="44.877959" lon="9.5064123"><ele>628.0</ele><time>2026-04-19T13:52:06.931Z</time></trkpt><trkpt lat="44.8780701" lon="9.5064586"><ele>628.0</ele><time>2026-04-19T13:52:08.954Z</time></trkpt><trkpt lat="44.8781638" lon="9.5065643"><ele>628.0</ele><time>2026-04-19T13:52:10.958Z</time></trkpt><trkpt lat="44.8782112" lon="9.5066265"><ele>628.0</ele><time>2026-04-19T13:52:11.947Z</time></trkpt><trkpt lat="44.8782862" lon="9.506724"><ele>628.0</ele><time>2026-04-19T13:52:14.031Z</time></trkpt><trkpt lat="44.878334" lon="9.5068086"><ele>628.0</ele><time>2026-04-19T13:52:19.97Z</time></trkpt><trkpt lat="44.8783973" lon="9.5069638"><ele>628.0</ele><time>2026-04-19T13:52:22.009Z</time></trkpt><trkpt lat="44.8784294" lon="9.5070758"><ele>628.0</ele><time>2026-04-19T13:52:23.001Z</time></trkpt><trkpt lat="44.8784569" lon="9.507208"><ele>628.0</ele><time>2026-04-19T13:52:23.982Z</time></trkpt><trkpt lat="44.8784867" lon="9.5073553"><ele>628.0</ele><time>2026-04-19T13:52:24.96Z</time></trkpt><trkpt lat="44.878512" lon="9.5074928"><ele>629.1666666666667</ele><time>2026-04-19T13:52:25.994Z</time></trkpt><trkpt lat="44.8785325" lon="9.5076117"><ele>630.3333333333334</ele><time>2026-04-19T13:52:26.988Z</time></trkpt><trkpt lat="44.878547" lon="9.5077284"><ele>631.5</ele><time>2026-04-19T13:52:28.006Z</time></trkpt><trkpt lat="44.878555" lon="9.5078248"><ele>632.6666666666666</ele><time>2026-04-19T13:52:28.914Z</time></trkpt><trkpt lat="44.8785613" lon="9.5079405"><ele>633.8333333333333</ele><time>2026-04-19T13:52:29.962Z</time></trkpt><trkpt lat="44.8785634" lon="9.5080552"><ele>635.0</ele><time>2026-04-19T13:52:30.961Z</time></trkpt><trkpt lat="44.8785654" lon="9.5081757"><ele>635.2</ele><time>2026-04-19T13:52:31.959Z</time></trkpt><trkpt lat="44.878568" lon="9.5083013"><ele>635.4</ele><time>2026-04-19T13:52:32.919Z</time></trkpt><trkpt lat="44.8785741" lon="9.5084456"><ele>635.6</ele><time>2026-04-19T13:52:33.892Z</time></trkpt><trkpt lat="44.8785759" lon="9.508608"><ele>635.8</ele><time>2026-04-19T13:52:34.958Z</time></trkpt><trkpt lat="44.8785773" lon="9.5087612"><ele>636.0</ele><time>2026-04-19T13:52:35.94Z</time></trkpt><trkpt lat="44.8785715" lon="9.5089214"><ele>636.0</ele><time>2026-04-19T13:52:36.993Z</time></trkpt><trkpt lat="44.8785481" lon="9.5090535"><ele>636.0</ele><time>2026-04-19T13:52:37.968Z</time></trkpt><trkpt lat="44.8784961" lon="9.5091841"><ele>636.0</ele><time>2026-04-19T13:52:39.062Z</time></trkpt><trkpt lat="44.8784258" lon="9.5093074"><ele>636.0</ele><time>2026-04-19T13:52:39.969Z</time></trkpt><trkpt lat="44.8783238" lon="9.5094113"><ele>636.0</ele><time>2026-04-19T13:52:40.9Z</time></trkpt><trkpt lat="44.8781542" lon="9.5095469"><ele>631.0</ele><time>2026-04-19T13:52:41.921Z</time></trkpt><trkpt lat="44.8779924" lon="9.5096849"><ele>626.0</ele><time>2026-04-19T13:52:42.918Z</time></trkpt><trkpt lat="44.8778754" lon="9.5097973"><ele>621.0</ele><time>2026-04-19T13:52:44.044Z</time></trkpt><trkpt lat="44.8778298" lon="9.5098847"><ele>616.0</ele><time>2026-04-19T13:52:44.989Z</time></trkpt><trkpt lat="44.8778571" lon="9.5100117"><ele>616.0</ele><time>2026-04-19T13:52:46.06Z</time></trkpt><trkpt lat="44.8781662" lon="9.5099961"><ele>616.0</ele><time>2026-04-19T13:52:46.964Z</time></trkpt><trkpt lat="44.8782068" lon="9.5100761"><ele>616.0</ele><time>2026-04-19T13:52:47.95Z</time></trkpt><trkpt lat="44.8782712" lon="9.5101386"><ele>615.6666666666667</ele><time>2026-04-19T13:52:49.031Z</time></trkpt><trkpt lat="44.8784497" lon="9.5102115"><ele>615.3333333333334</ele><time>2026-04-19T13:52:51.193Z</time></trkpt><trkpt lat="44.8786898" lon="9.5101576"><ele>615.0</ele><time>2026-04-19T13:52:52.915Z</time></trkpt><trkpt lat="44.8788263" lon="9.5101277"><ele>615.0</ele><time>2026-04-19T13:52:53.892Z</time></trkpt><trkpt lat="44.8789596" lon="9.5100791"><ele>615.0</ele><time>2026-04-19T13:52:54.946Z</time></trkpt><trkpt lat="44.8790646" lon="9.5100295"><ele>615.0</ele><time>2026-04-19T13:52:55.926Z</time></trkpt><trkpt lat="44.8791716" lon="9.5099851"><ele>615.0</ele><time>2026-04-19T13:52:56.897Z</time></trkpt><trkpt lat="44.8793129" lon="9.5099744"><ele>616.0</ele><time>2026-04-19T13:52:57.908Z</time></trkpt><trkpt lat="44.8794694" lon="9.5100082"><ele>617.0</ele><time>2026-04-19T13:52:58.859Z</time></trkpt><trkpt lat="44.8796761" lon="9.5100988"><ele>618.0</ele><time>2026-04-19T13:52:59.965Z</time></trkpt><trkpt lat="44.8799372" lon="9.5103839"><ele>614.25</ele><time>2026-04-19T13:53:01.88Z</time></trkpt><trkpt lat="44.880028" lon="9.5104745"><ele>610.5</ele><time>2026-04-19T13:53:02.931Z</time></trkpt><trkpt lat="44.8801585" lon="9.5105507"><ele>606.75</ele><time>2026-04-19T13:53:03.834Z</time></trkpt><trkpt lat="44.8802675" lon="9.5105843"><ele>603.0</ele><time>2026-04-19T13:53:04.927Z</time></trkpt><trkpt lat="44.8801698" lon="9.5104324"><ele>603.0</ele><time>2026-04-19T13:53:05.918Z</time></trkpt><trkpt lat="44.8802697" lon="9.5104886"><ele>603.0</ele><time>2026-04-19T13:53:06.872Z</time></trkpt><trkpt lat="44.8803606" lon="9.5105318"><ele>603.0</ele><time>2026-04-19T13:53:07.866Z</time></trkpt><trkpt lat="44.8804424" lon="9.5105731"><ele>603.0</ele><time>2026-04-19T13:53:08.87Z</time></trkpt><trkpt lat="44.8805258" lon="9.5106429"><ele>603.0</ele><time>2026-04-19T13:53:09.969Z</time></trkpt><trkpt lat="44.8805803" lon="9.5107422"><ele>603.0</ele><time>2026-04-19T13:53:10.911Z</time></trkpt><trkpt lat="44.8806265" lon="9.5108544"><ele>603.0</ele><time>2026-04-19T13:53:11.903Z</time></trkpt><trkpt lat="44.8806594" lon="9.5109843"><ele>603.0</ele><time>2026-04-19T13:53:12.923Z</time></trkpt><trkpt lat="44.880683" lon="9.5111189"><ele>603.0</ele><time>2026-04-19T13:53:13.904Z</time></trkpt><trkpt lat="44.8807179" lon="9.5112479"><ele>603.0</ele><time>2026-04-19T13:53:14.941Z</time></trkpt><trkpt lat="44.8807719" lon="9.5113463"><ele>601.4</ele><time>2026-04-19T13:53:15.926Z</time></trkpt><trkpt lat="44.8808369" lon="9.5114325"><ele>599.8</ele><time>2026-04-19T13:53:16.939Z</time></trkpt><trkpt lat="44.8809135" lon="9.5114715"><ele>598.2</ele><time>2026-04-19T13:53:17.975Z</time></trkpt><trkpt lat="44.8809916" lon="9.5114544"><ele>596.6</ele><time>2026-04-19T13:53:18.959Z</time></trkpt><trkpt lat="44.8810927" lon="9.5113763"><ele>595.0</ele><time>2026-04-19T13:53:20.008Z</time></trkpt><trkpt lat="44.8811689" lon="9.5112844"><ele>593.0</ele><time>2026-04-19T13:53:20.941Z</time></trkpt><trkpt lat="44.8812211" lon="9.5111377"><ele>591.0</ele><time>2026-04-19T13:53:21.962Z</time></trkpt><trkpt lat="44.881272" lon="9.5109815"><ele>589.0</ele><time>2026-04-19T13:53:22.965Z</time></trkpt><trkpt lat="44.8813347" lon="9.5108135"><ele>587.0</ele><time>2026-04-19T13:53:24.089Z</time></trkpt><trkpt lat="44.8814706" lon="9.5105841"><ele>587.0</ele><time>2026-04-19T13:53:26.131Z</time></trkpt><trkpt lat="44.8816548" lon="9.5104451"><ele>587.0</ele><time>2026-04-19T13:53:28.084Z</time></trkpt><trkpt lat="44.8818373" lon="9.5103345"><ele>587.0</ele><time>2026-04-19T13:53:29.982Z</time></trkpt><trkpt lat="44.8819166" lon="9.5102733"><ele>585.4</ele><time>2026-04-19T13:53:30.886Z</time></trkpt><trkpt lat="44.8820122" lon="9.5101997"><ele>583.8000000000001</ele><time>2026-04-19T13:53:31.949Z</time></trkpt><trkpt lat="44.8821076" lon="9.510151"><ele>582.2</ele><time>2026-04-19T13:53:32.948Z</time></trkpt><trkpt lat="44.8822011" lon="9.5101349"><ele>580.6</ele><time>2026-04-19T13:53:33.934Z</time></trkpt><trkpt lat="44.8823275" lon="9.5101678"><ele>579.0</ele><time>2026-04-19T13:53:35.138Z</time></trkpt><trkpt lat="44.8825391" lon="9.5102125"><ele>577.75</ele><time>2026-04-19T13:53:36.96Z</time></trkpt><trkpt lat="44.8826566" lon="9.5102283"><ele>576.5</ele><time>2026-04-19T13:53:37.968Z</time></trkpt><trkpt lat="44.8827812" lon="9.510239"><ele>575.25</ele><time>2026-04-19T13:53:39.066Z</time></trkpt><trkpt lat="44.8828827" lon="9.5102601"><ele>574.0</ele><time>2026-04-19T13:53:39.974Z</time></trkpt><trkpt lat="44.8829965" lon="9.5103011"><ele>575.25</ele><time>2026-04-19T13:53:41.082Z</time></trkpt><trkpt lat="44.8831846" lon="9.5104366"><ele>576.5</ele><time>2026-04-19T13:53:43.027Z</time></trkpt><trkpt lat="44.8832717" lon="9.5105028"><ele>577.75</ele><time>2026-04-19T13:53:43.93Z</time></trkpt><trkpt lat="44.883385" lon="9.5105757"><ele>579.0</ele><time>2026-04-19T13:53:45.028Z</time></trkpt><trkpt lat="44.8834814" lon="9.51062"><ele>580.75</ele><time>2026-04-19T13:53:45.961Z</time></trkpt><trkpt lat="44.8835922" lon="9.5106591"><ele>582.5</ele><time>2026-04-19T13:53:46.969Z</time></trkpt><trkpt lat="44.8837079" lon="9.5106858"><ele>584.25</ele><time>2026-04-19T13:53:47.947Z</time></trkpt><trkpt lat="44.8838316" lon="9.5106988"><ele>586.0</ele><time>2026-04-19T13:53:48.981Z</time></trkpt><trkpt lat="44.883951" lon="9.5106893"><ele>586.0</ele><time>2026-04-19T13:53:49.987Z</time></trkpt><trkpt lat="44.88407" lon="9.5106534"><ele>586.0</ele><time>2026-04-19T13:53:51.067Z</time></trkpt><trkpt lat="44.8842962" lon="9.51063"><ele>586.0</ele><time>2026-04-19T13:53:52.982Z</time></trkpt><trkpt lat="44.8844074" lon="9.5106637"><ele>587.0</ele><time>2026-04-19T13:53:53.945Z</time></trkpt><trkpt lat="44.8845207" lon="9.5107194"><ele>588.0</ele><time>2026-04-19T13:53:54.942Z</time></trkpt><trkpt lat="44.8846404" lon="9.5107843"><ele>589.0</ele><time>2026-04-19T13:53:56.014Z</time></trkpt><trkpt lat="44.8847529" lon="9.5108351"><ele>590.0</ele><time>2026-04-19T13:53:56.945Z</time></trkpt><trkpt lat="44.884879" lon="9.5108537"><ele>590.0</ele><time>2026-04-19T13:53:58.024Z</time></trkpt><trkpt lat="44.8849918" lon="9.5108459"><ele>590.0</ele><time>2026-04-19T13:53:58.958Z</time></trkpt><trkpt lat="44.8851123" lon="9.5108346"><ele>590.0</ele><time>2026-04-19T13:53:59.943Z</time></trkpt><trkpt lat="44.8852271" lon="9.5108309"><ele>590.0</ele><time>2026-04-19T13:54:00.972Z</time></trkpt><trkpt lat="44.8853289" lon="9.5108402"><ele>590.5</ele><time>2026-04-19T13:54:01.972Z</time></trkpt><trkpt lat="44.8854395" lon="9.5108571"><ele>591.0</ele><time>2026-04-19T13:54:02.995Z</time></trkpt><trkpt lat="44.8855457" lon="9.5108562"><ele>591.5</ele><time>2026-04-19T13:54:03.951Z</time></trkpt><trkpt lat="44.8856563" lon="9.5108314"><ele>592.0</ele><time>2026-04-19T13:54:04.914Z</time></trkpt><trkpt lat="44.8857809" lon="9.5107866"><ele>592.0</ele><time>2026-04-19T13:54:05.968Z</time></trkpt><trkpt lat="44.8858884" lon="9.5107471"><ele>592.0</ele><time>2026-04-19T13:54:06.947Z</time></trkpt><trkpt lat="44.8859862" lon="9.5107093"><ele>592.0</ele><time>2026-04-19T13:54:07.955Z</time></trkpt><trkpt lat="44.8860722" lon="9.5106752"><ele>592.0</ele><time>2026-04-19T13:54:08.975Z</time></trkpt><trkpt lat="44.8861613" lon="9.5106311"><ele>592.0</ele><time>2026-04-19T13:54:09.963Z</time></trkpt><trkpt lat="44.8862531" lon="9.5105827"><ele>592.0</ele><time>2026-04-19T13:54:10.936Z</time></trkpt><trkpt lat="44.8863562" lon="9.5105341"><ele>592.0</ele><time>2026-04-19T13:54:11.96Z</time></trkpt><trkpt lat="44.8864543" lon="9.5105068"><ele>592.0</ele><time>2026-04-19T13:54:12.945Z</time></trkpt><trkpt lat="44.8865606" lon="9.5104891"><ele>592.0</ele><time>2026-04-19T13:54:13.946Z</time></trkpt><trkpt lat="44.8866744" lon="9.5105074"><ele>592.0</ele><time>2026-04-19T13:54:15.042Z</time></trkpt><trkpt lat="44.8867665" lon="9.5105481"><ele>588.0</ele><time>2026-04-19T13:54:15.969Z</time></trkpt><trkpt lat="44.8868482" lon="9.5106045"><ele>584.0</ele><time>2026-04-19T13:54:16.903Z</time></trkpt><trkpt lat="44.8869355" lon="9.5106663"><ele>580.0</ele><time>2026-04-19T13:54:17.904Z</time></trkpt><trkpt lat="44.8869957" lon="9.5107527"><ele>576.0</ele><time>2026-04-19T13:54:18.935Z</time></trkpt><trkpt lat="44.8870645" lon="9.5108583"><ele>572.0</ele><time>2026-04-19T13:54:19.923Z</time></trkpt><trkpt lat="44.887128" lon="9.5109714"><ele>572.0</ele><time>2026-04-19T13:54:20.905Z</time></trkpt><trkpt lat="44.8871776" lon="9.5110946"><ele>572.0</ele><time>2026-04-19T13:54:21.939Z</time></trkpt><trkpt lat="44.8872098" lon="9.5112092"><ele>572.0</ele><time>2026-04-19T13:54:22.881Z</time></trkpt><trkpt lat="44.887227" lon="9.51134"><ele>572.0</ele><time>2026-04-19T13:54:24.012Z</time></trkpt><trkpt lat="44.8872132" lon="9.5114474"><ele>572.0</ele><time>2026-04-19T13:54:24.947Z</time></trkpt><trkpt lat="44.8871667" lon="9.5115654"><ele>571.25</ele><time>2026-04-19T13:54:25.955Z</time></trkpt><trkpt lat="44.8871016" lon="9.5116952"><ele>570.5</ele><time>2026-04-19T13:54:26.973Z</time></trkpt><trkpt lat="44.8870414" lon="9.5118366"><ele>569.75</ele><time>2026-04-19T13:54:27.934Z</time></trkpt><trkpt lat="44.8870025" lon="9.5119933"><ele>569.0</ele><time>2026-04-19T13:54:28.926Z</time></trkpt><trkpt lat="44.887003" lon="9.5121619"><ele>567.75</ele><time>2026-04-19T13:54:29.94Z</time></trkpt><trkpt lat="44.8870287" lon="9.5123342"><ele>566.5</ele><time>2026-04-19T13:54:30.945Z</time></trkpt><trkpt lat="44.887061" lon="9.5124941"><ele>565.25</ele><time>2026-04-19T13:54:31.91Z</time></trkpt><trkpt lat="44.8870936" lon="9.5126866"><ele>564.0</ele><time>2026-04-19T13:54:33.056Z</time></trkpt><trkpt lat="44.8871078" lon="9.5128563"><ele>562.75</ele><time>2026-04-19T13:54:34.016Z</time></trkpt><trkpt lat="44.8871075" lon="9.5130107"><ele>561.5</ele><time>2026-04-19T13:54:34.928Z</time></trkpt><trkpt lat="44.8871126" lon="9.5131793"><ele>560.25</ele><time>2026-04-19T13:54:35.918Z</time></trkpt><trkpt lat="44.8871297" lon="9.5133468"><ele>559.0</ele><time>2026-04-19T13:54:36.987Z</time></trkpt><trkpt lat="44.8871447" lon="9.5134887"><ele>559.0</ele><time>2026-04-19T13:54:37.949Z</time></trkpt><trkpt lat="44.8871716" lon="9.5136221"><ele>559.0</ele><time>2026-04-19T13:54:38.939Z</time></trkpt><trkpt lat="44.8871972" lon="9.513735"><ele>559.0</ele><time>2026-04-19T13:54:39.942Z</time></trkpt><trkpt lat="44.887217" lon="9.5138459"><ele>559.0</ele><time>2026-04-19T13:54:40.916Z</time></trkpt><trkpt lat="44.8872347" lon="9.5139813"><ele>559.0</ele><time>2026-04-19T13:54:41.977Z</time></trkpt><trkpt lat="44.8872452" lon="9.5141013"><ele>559.0</ele><time>2026-04-19T13:54:42.893Z</time></trkpt><trkpt lat="44.8872495" lon="9.5142491"><ele>559.0</ele><time>2026-04-19T13:54:43.919Z</time></trkpt><trkpt lat="44.887259" lon="9.5144111"><ele>559.0</ele><time>2026-04-19T13:54:44.983Z</time></trkpt><trkpt lat="44.8872738" lon="9.5145449"><ele>559.0</ele><time>2026-04-19T13:54:45.896Z</time></trkpt><trkpt lat="44.8873061" lon="9.5147151"><ele>559.0</ele><time>2026-04-19T13:54:47.102Z</time></trkpt><trkpt lat="44.8873626" lon="9.5149608"><ele>558.6</ele><time>2026-04-19T13:54:49.004Z</time></trkpt><trkpt lat="44.8874265" lon="9.5150653"><ele>558.2</ele><time>2026-04-19T13:54:49.918Z</time></trkpt><trkpt lat="44.88749" lon="9.515179"><ele>557.8000000000001</ele><time>2026-04-19T13:54:50.952Z</time></trkpt><trkpt lat="44.887538" lon="9.5152666"><ele>557.4</ele><time>2026-04-19T13:54:51.933Z</time></trkpt><trkpt lat="44.8875793" lon="9.5153443"><ele>557.0</ele><time>2026-04-19T13:54:52.926Z</time></trkpt><trkpt lat="44.8876473" lon="9.5154746"><ele>555.6</ele><time>2026-04-19T13:54:54.914Z</time></trkpt><trkpt lat="44.8876944" lon="9.5155716"><ele>554.2</ele><time>2026-04-19T13:54:56.94Z</time></trkpt><trkpt lat="44.8876477" lon="9.5157146"><ele>552.8</ele><time>2026-04-19T13:55:00.939Z</time></trkpt><trkpt lat="44.8875474" lon="9.5157597"><ele>551.4</ele><time>2026-04-19T13:55:03.01Z</time></trkpt><trkpt lat="44.8874135" lon="9.5157671"><ele>550.0</ele><time>2026-04-19T13:55:04.946Z</time></trkpt><trkpt lat="44.8873366" lon="9.5157866"><ele>550.0</ele><time>2026-04-19T13:55:05.983Z</time></trkpt><trkpt lat="44.8872604" lon="9.5158045"><ele>550.0</ele><time>2026-04-19T13:55:06.987Z</time></trkpt><trkpt lat="44.8871811" lon="9.515821"><ele>550.0</ele><time>2026-04-19T13:55:08.076Z</time></trkpt><trkpt lat="44.8870518" lon="9.5158503"><ele>550.0</ele><time>2026-04-19T13:55:09.961Z</time></trkpt><trkpt lat="44.8869861" lon="9.5158819"><ele>550.0</ele><time>2026-04-19T13:55:10.967Z</time></trkpt><trkpt lat="44.8869255" lon="9.5159312"><ele>550.0</ele><time>2026-04-19T13:55:11.964Z</time></trkpt><trkpt lat="44.8868611" lon="9.5159669"><ele>550.0</ele><time>2026-04-19T13:55:12.932Z</time></trkpt><trkpt lat="44.8867916" lon="9.5159897"><ele>550.0</ele><time>2026-04-19T13:55:13.981Z</time></trkpt><trkpt lat="44.8866731" lon="9.5159811"><ele>550.0</ele><time>2026-04-19T13:55:15.95Z</time></trkpt><trkpt lat="44.8866112" lon="9.5159591"><ele>550.0</ele><time>2026-04-19T13:55:16.98Z</time></trkpt><trkpt lat="44.8864918" lon="9.5159166"><ele>550.0</ele><time>2026-04-19T13:55:18.962Z</time></trkpt><trkpt lat="44.8863784" lon="9.5159408"><ele>550.5</ele><time>2026-04-19T13:55:20.986Z</time></trkpt><trkpt lat="44.8863105" lon="9.51597"><ele>551.0</ele><time>2026-04-19T13:55:21.97Z</time></trkpt><trkpt lat="44.8862396" lon="9.5160101"><ele>551.5</ele><time>2026-04-19T13:55:22.92Z</time></trkpt><trkpt lat="44.8861615" lon="9.5160535"><ele>552.0</ele><time>2026-04-19T13:55:23.917Z</time></trkpt><trkpt lat="44.8860865" lon="9.5160887"><ele>552.5</ele><time>2026-04-19T13:55:24.939Z</time></trkpt><trkpt lat="44.886018" lon="9.5161123"><ele>553.0</ele><time>2026-04-19T13:55:25.942Z</time></trkpt><trkpt lat="44.8859515" lon="9.5161424"><ele>554.0</ele><time>2026-04-19T13:55:26.953Z</time></trkpt><trkpt lat="44.8858892" lon="9.5161918"><ele>555.0</ele><time>2026-04-19T13:55:27.995Z</time></trkpt><trkpt lat="44.8857702" lon="9.516319"><ele>556.0</ele><time>2026-04-19T13:55:30.019Z</time></trkpt><trkpt lat="44.8857212" lon="9.5164009"><ele>557.0</ele><time>2026-04-19T13:55:30.955Z</time></trkpt><trkpt lat="44.8856772" lon="9.516499"><ele>558.0</ele><time>2026-04-19T13:55:31.971Z</time></trkpt><trkpt lat="44.8856466" lon="9.5166099"><ele>556.1666666666666</ele><time>2026-04-19T13:55:32.993Z</time></trkpt><trkpt lat="44.8856252" lon="9.5167165"><ele>554.3333333333334</ele><time>2026-04-19T13:55:33.99Z</time></trkpt><trkpt lat="44.8856043" lon="9.5168165"><ele>552.5</ele><time>2026-04-19T13:55:35.008Z</time></trkpt><trkpt lat="44.8855688" lon="9.5169597"><ele>550.6666666666667</ele><time>2026-04-19T13:55:36.947Z</time></trkpt><trkpt lat="44.8855117" lon="9.5170541"><ele>548.8333333333334</ele><time>2026-04-19T13:55:38.966Z</time></trkpt><trkpt lat="44.8854408" lon="9.5171185"><ele>547.0</ele><time>2026-04-19T13:55:40.953Z</time></trkpt><trkpt lat="44.885363" lon="9.5171782"><ele>545.2</ele><time>2026-04-19T13:55:42.947Z</time></trkpt><trkpt lat="44.8852976" lon="9.5172748"><ele>543.4000000000001</ele><time>2026-04-19T13:55:44.933Z</time></trkpt><trkpt lat="44.8852971" lon="9.5174233"><ele>541.5999999999999</ele><time>2026-04-19T13:55:46.952Z</time></trkpt><trkpt lat="44.8853" lon="9.5175686"><ele>539.8</ele><time>2026-04-19T13:55:48.937Z</time></trkpt><trkpt lat="44.8852905" lon="9.517727"><ele>538.0</ele><time>2026-04-19T13:55:50.949Z</time></trkpt><trkpt lat="44.8852898" lon="9.5178601"><ele>536.0</ele><time>2026-04-19T13:55:52.966Z</time></trkpt><trkpt lat="44.8853112" lon="9.5180086"><ele>534.0</ele><time>2026-04-19T13:55:55.068Z</time></trkpt><trkpt lat="44.8853471" lon="9.5181498"><ele>532.0</ele><time>2026-04-19T13:55:56.922Z</time></trkpt><trkpt lat="44.8853662" lon="9.5183151"><ele>530.0</ele><time>2026-04-19T13:55:58.971Z</time></trkpt><trkpt lat="44.8853996" lon="9.5184678"><ele>528.0</ele><time>2026-04-19T13:56:00.941Z</time></trkpt><trkpt lat="44.8854329" lon="9.5185492"><ele>528.0</ele><time>2026-04-19T13:56:01.952Z</time></trkpt><trkpt lat="44.8854683" lon="9.5186247"><ele>528.0</ele><time>2026-04-19T13:56:02.931Z</time></trkpt><trkpt lat="44.8855031" lon="9.5187076"><ele>528.0</ele><time>2026-04-19T13:56:03.966Z</time></trkpt><trkpt lat="44.8855483" lon="9.5188435"><ele>528.0</ele><time>2026-04-19T13:56:05.886Z</time></trkpt><trkpt lat="44.8855748" lon="9.5189269"><ele>528.0</ele><time>2026-04-19T13:56:07.019Z</time></trkpt><trkpt lat="44.885606" lon="9.5190607"><ele>528.0</ele><time>2026-04-19T13:56:08.958Z</time></trkpt><trkpt lat="44.8856144" lon="9.5191875"><ele>526.5714285714286</ele><time>2026-04-19T13:56:10.936Z</time></trkpt><trkpt lat="44.8855931" lon="9.5192832"><ele>525.1428571428571</ele><time>2026-04-19T13:56:12.923Z</time></trkpt><trkpt lat="44.8855367" lon="9.5193543"><ele>523.7142857142858</ele><time>2026-04-19T13:56:14.967Z</time></trkpt><trkpt lat="44.8854681" lon="9.5194052"><ele>522.2857142857142</ele><time>2026-04-19T13:56:16.924Z</time></trkpt><trkpt lat="44.885402" lon="9.51944"><ele>520.8571428571429</ele><time>2026-04-19T13:56:18.979Z</time></trkpt><trkpt lat="44.8853595" lon="9.5195123"><ele>519.4285714285714</ele><time>2026-04-19T13:56:20.992Z</time></trkpt><trkpt lat="44.8853652" lon="9.5196049"><ele>518.0</ele><time>2026-04-19T13:56:22.958Z</time></trkpt><trkpt lat="44.8854466" lon="9.5197463"><ele>515.1999999999999</ele><time>2026-04-19T13:56:25.967Z</time></trkpt><trkpt lat="44.8855283" lon="9.519821"><ele>512.4</ele><time>2026-04-19T13:56:27.974Z</time></trkpt><trkpt lat="44.8856084" lon="9.5199174"><ele>509.59999999999997</ele><time>2026-04-19T13:56:29.972Z</time></trkpt><trkpt lat="44.8856617" lon="9.5200209"><ele>506.79999999999995</ele><time>2026-04-19T13:56:32.018Z</time></trkpt><trkpt lat="44.885681" lon="9.5201518"><ele>504.0</ele><time>2026-04-19T13:56:34.006Z</time></trkpt><trkpt lat="44.8856563" lon="9.5202813"><ele>502.1666666666667</ele><time>2026-04-19T13:56:35.957Z</time></trkpt><trkpt lat="44.8856138" lon="9.5204372"><ele>500.33333333333337</ele><time>2026-04-19T13:56:37.964Z</time></trkpt><trkpt lat="44.8855887" lon="9.5205268"><ele>498.5</ele><time>2026-04-19T13:56:38.949Z</time></trkpt><trkpt lat="44.8855683" lon="9.5206309"><ele>496.6666666666667</ele><time>2026-04-19T13:56:40.004Z</time></trkpt><trkpt lat="44.8855551" lon="9.5207257"><ele>494.83333333333337</ele><time>2026-04-19T13:56:40.922Z</time></trkpt><trkpt lat="44.8855397" lon="9.5208287"><ele>493.0</ele><time>2026-04-19T13:56:42.008Z</time></trkpt><trkpt lat="44.8855283" lon="9.5209201"><ele>493.00000000000006</ele><time>2026-04-19T13:56:42.938Z</time></trkpt><trkpt lat="44.8855189" lon="9.521018"><ele>493.0</ele><time>2026-04-19T13:56:43.949Z</time></trkpt><trkpt lat="44.8855119" lon="9.5211162"><ele>493.0</ele><time>2026-04-19T13:56:44.927Z</time></trkpt><trkpt lat="44.8855027" lon="9.5212302"><ele>493.0</ele><time>2026-04-19T13:56:45.918Z</time></trkpt><trkpt lat="44.8854952" lon="9.5213494"><ele>493.00000000000006</ele><time>2026-04-19T13:56:47.062Z</time></trkpt><trkpt lat="44.8855046" lon="9.5215481"><ele>493.0</ele><time>2026-04-19T13:56:49.016Z</time></trkpt><trkpt lat="44.8855386" lon="9.5217146"><ele>490.79999999999995</ele><time>2026-04-19T13:56:51Z</time></trkpt><trkpt lat="44.8855692" lon="9.5218818"><ele>488.59999999999997</ele><time>2026-04-19T13:56:52.989Z</time></trkpt><trkpt lat="44.8855719" lon="9.5219766"><ele>486.40000000000003</ele><time>2026-04-19T13:56:54.011Z</time></trkpt><trkpt lat="44.8855474" lon="9.522154"><ele>484.20000000000005</ele><time>2026-04-19T13:56:55.968Z</time></trkpt><trkpt lat="44.8855175" lon="9.5222458"><ele>482.0</ele><time>2026-04-19T13:56:56.941Z</time></trkpt><trkpt lat="44.885473" lon="9.5223472"><ele>480.16666666666663</ele><time>2026-04-19T13:56:57.956Z</time></trkpt><trkpt lat="44.8854241" lon="9.5224393"><ele>478.3333333333333</ele><time>2026-04-19T13:56:58.938Z</time></trkpt><trkpt lat="44.8853677" lon="9.5225387"><ele>476.5</ele><time>2026-04-19T13:56:59.96Z</time></trkpt><trkpt lat="44.8853145" lon="9.5226429"><ele>474.66666666666663</ele><time>2026-04-19T13:57:00.952Z</time></trkpt><trkpt lat="44.8852657" lon="9.5227461"><ele>472.8333333333333</ele><time>2026-04-19T13:57:01.938Z</time></trkpt><trkpt lat="44.8852116" lon="9.5228591"><ele>471.0</ele><time>2026-04-19T13:57:03.027Z</time></trkpt><trkpt lat="44.8851667" lon="9.5229587"><ele>471.4</ele><time>2026-04-19T13:57:03.99Z</time></trkpt><trkpt lat="44.8851216" lon="9.5230669"><ele>471.8</ele><time>2026-04-19T13:57:04.997Z</time></trkpt><trkpt lat="44.8850803" lon="9.5231779"><ele>472.19999999999993</ele><time>2026-04-19T13:57:05.947Z</time></trkpt><trkpt lat="44.8850287" lon="9.523313"><ele>472.59999999999997</ele><time>2026-04-19T13:57:06.961Z</time></trkpt><trkpt lat="44.8849819" lon="9.5234488"><ele>473.0</ele><time>2026-04-19T13:57:07.983Z</time></trkpt><trkpt lat="44.8849375" lon="9.5235637"><ele>472.99999999999994</ele><time>2026-04-19T13:57:08.951Z</time></trkpt><trkpt lat="44.8848826" lon="9.5236763"><ele>473.0</ele><time>2026-04-19T13:57:09.97Z</time></trkpt><trkpt lat="44.8848296" lon="9.523772"><ele>473.0</ele><time>2026-04-19T13:57:10.935Z</time></trkpt><trkpt lat="44.8847758" lon="9.523874"><ele>473.0</ele><time>2026-04-19T13:57:12.033Z</time></trkpt><trkpt lat="44.8847309" lon="9.5239741"><ele>472.99999999999994</ele><time>2026-04-19T13:57:13.025Z</time></trkpt><trkpt lat="44.8846937" lon="9.524065"><ele>473.0</ele><time>2026-04-19T13:57:13.927Z</time></trkpt><trkpt lat="44.8846564" lon="9.5241694"><ele>471.99999999999994</ele><time>2026-04-19T13:57:14.951Z</time></trkpt><trkpt lat="44.8846168" lon="9.52427"><ele>471.0</ele><time>2026-04-19T13:57:15.955Z</time></trkpt><trkpt lat="44.8845784" lon="9.5243634"><ele>470.0</ele><time>2026-04-19T13:57:16.953Z</time></trkpt><trkpt lat="44.8845421" lon="9.5244472"><ele>469.0</ele><time>2026-04-19T13:57:17.943Z</time></trkpt><trkpt lat="44.884508" lon="9.5245263"><ele>467.99999999999994</ele><time>2026-04-19T13:57:18.971Z</time></trkpt><trkpt lat="44.8844464" lon="9.5246555"><ele>467.0</ele><time>2026-04-19T13:57:20.912Z</time></trkpt><trkpt lat="44.8843941" lon="9.5247882"><ele>465.40000000000003</ele><time>2026-04-19T13:57:22.943Z</time></trkpt><trkpt lat="44.8843474" lon="9.5249743"><ele>463.80000000000007</ele><time>2026-04-19T13:57:25.918Z</time></trkpt><trkpt lat="44.8843368" lon="9.5250729"><ele>462.2</ele><time>2026-04-19T13:57:27.119Z</time></trkpt><trkpt lat="44.8843402" lon="9.5251895"><ele>460.6</ele><time>2026-04-19T13:57:28.911Z</time></trkpt><trkpt lat="44.8843327" lon="9.5253117"><ele>459.0</ele><time>2026-04-19T13:57:30.966Z</time></trkpt><trkpt lat="44.8842973" lon="9.5254319"><ele>457.8333333333333</ele><time>2026-04-19T13:57:32.964Z</time></trkpt><trkpt lat="44.8842634" lon="9.5255411"><ele>456.66666666666663</ele><time>2026-04-19T13:57:34.97Z</time></trkpt><trkpt lat="44.8841968" lon="9.5256445"><ele>455.5</ele><time>2026-04-19T13:57:36.978Z</time></trkpt><trkpt lat="44.8841071" lon="9.5257572"><ele>454.3333333333333</ele><time>2026-04-19T13:57:38.972Z</time></trkpt><trkpt lat="44.8840533" lon="9.5258253"><ele>453.16666666666663</ele><time>2026-04-19T13:57:40.04Z</time></trkpt><trkpt lat="44.8840021" lon="9.525889"><ele>452.0</ele><time>2026-04-19T13:57:40.987Z</time></trkpt><trkpt lat="44.8839414" lon="9.5259636"><ele>451.99999999999994</ele><time>2026-04-19T13:57:42.129Z</time></trkpt><trkpt lat="44.8838527" lon="9.5261078"><ele>452.0</ele><time>2026-04-19T13:57:44.049Z</time></trkpt><trkpt lat="44.8838104" lon="9.5261854"><ele>452.0</ele><time>2026-04-19T13:57:44.951Z</time></trkpt><trkpt lat="44.8837678" lon="9.526277"><ele>452.0</ele><time>2026-04-19T13:57:45.933Z</time></trkpt><trkpt lat="44.8837298" lon="9.5263811"><ele>451.99999999999994</ele><time>2026-04-19T13:57:46.969Z</time></trkpt><trkpt lat="44.883704" lon="9.5264737"><ele>452.0</ele><time>2026-04-19T13:57:47.933Z</time></trkpt><trkpt lat="44.883674" lon="9.526589"><ele>449.20000000000005</ele><time>2026-04-19T13:57:49.089Z</time></trkpt><trkpt lat="44.8836422" lon="9.52679"><ele>446.40000000000003</ele><time>2026-04-19T13:57:50.949Z</time></trkpt><trkpt lat="44.8836392" lon="9.5268984"><ele>443.59999999999997</ele><time>2026-04-19T13:57:51.934Z</time></trkpt><trkpt lat="44.8836451" lon="9.5270046"><ele>440.79999999999995</ele><time>2026-04-19T13:57:53.029Z</time></trkpt><trkpt lat="44.883643" lon="9.5271695"><ele>438.0</ele><time>2026-04-19T13:57:55.07Z</time></trkpt><trkpt lat="44.8836364" lon="9.5272725"><ele>438.4</ele><time>2026-04-19T13:57:57.977Z</time></trkpt><trkpt lat="44.8835539" lon="9.5273837"><ele>438.79999999999995</ele><time>2026-04-19T13:58:09.058Z</time></trkpt><trkpt lat="44.883471" lon="9.5274644"><ele>439.2</ele><time>2026-04-19T13:58:10.984Z</time></trkpt><trkpt lat="44.8833742" lon="9.5275511"><ele>439.6</ele><time>2026-04-19T13:58:12.951Z</time></trkpt><trkpt lat="44.8833185" lon="9.5276123"><ele>440.0</ele><time>2026-04-19T13:58:13.948Z</time></trkpt><trkpt lat="44.8832634" lon="9.5276745"><ele>439.99999999999994</ele><time>2026-04-19T13:58:14.934Z</time></trkpt><trkpt lat="44.883199" lon="9.5277492"><ele>440.0</ele><time>2026-04-19T13:58:16.026Z</time></trkpt><trkpt lat="44.8831519" lon="9.5278193"><ele>440.0</ele><time>2026-04-19T13:58:16.95Z</time></trkpt><trkpt lat="44.8831014" lon="9.5278882"><ele>440.0</ele><time>2026-04-19T13:58:17.97Z</time></trkpt><trkpt lat="44.8830589" lon="9.527955"><ele>439.99999999999994</ele><time>2026-04-19T13:58:18.993Z</time></trkpt><trkpt lat="44.8829889" lon="9.5280849"><ele>440.0</ele><time>2026-04-19T13:58:20.94Z</time></trkpt><trkpt lat="44.8829343" lon="9.5282028"><ele>437.6</ele><time>2026-04-19T13:58:22.928Z</time></trkpt><trkpt lat="44.882866" lon="9.5283365"><ele>435.2</ele><time>2026-04-19T13:58:24.96Z</time></trkpt><trkpt lat="44.8828272" lon="9.5284098"><ele>432.79999999999995</ele><time>2026-04-19T13:58:25.988Z</time></trkpt><trkpt lat="44.8827861" lon="9.5284865"><ele>430.4</ele><time>2026-04-19T13:58:27.056Z</time></trkpt><trkpt lat="44.8827018" lon="9.5286208"><ele>428.0</ele><time>2026-04-19T13:58:28.988Z</time></trkpt><trkpt lat="44.8826059" lon="9.5287211"><ele>426.00000000000006</ele><time>2026-04-19T13:58:31.028Z</time></trkpt><trkpt lat="44.8825527" lon="9.5287736"><ele>424.0</ele><time>2026-04-19T13:58:31.961Z</time></trkpt><trkpt lat="44.8824993" lon="9.528836"><ele>422.0</ele><time>2026-04-19T13:58:32.973Z</time></trkpt><trkpt lat="44.8824434" lon="9.5289062"><ele>420.0</ele><time>2026-04-19T13:58:33.966Z</time></trkpt><trkpt lat="44.8823852" lon="9.5289827"><ele>418.0</ele><time>2026-04-19T13:58:35.021Z</time></trkpt><trkpt lat="44.882334" lon="9.5290602"><ele>416.00000000000006</ele><time>2026-04-19T13:58:35.959Z</time></trkpt><trkpt lat="44.8822848" lon="9.5291524"><ele>414.0</ele><time>2026-04-19T13:58:36.993Z</time></trkpt><trkpt lat="44.8822461" lon="9.5292364"><ele>414.0</ele><time>2026-04-19T13:58:37.929Z</time></trkpt><trkpt lat="44.8822089" lon="9.5293387"><ele>414.0</ele><time>2026-04-19T13:58:38.98Z</time></trkpt><trkpt lat="44.8821772" lon="9.5294321"><ele>414.0</ele><time>2026-04-19T13:58:39.931Z</time></trkpt><trkpt lat="44.8821346" lon="9.5295358"><ele>414.0</ele><time>2026-04-19T13:58:41Z</time></trkpt><trkpt lat="44.8820885" lon="9.5296424"><ele>414.0</ele><time>2026-04-19T13:58:41.981Z</time></trkpt><trkpt lat="44.8820429" lon="9.5297469"><ele>414.0</ele><time>2026-04-19T13:58:42.936Z</time></trkpt><trkpt lat="44.8819929" lon="9.5298582"><ele>411.3333333333333</ele><time>2026-04-19T13:58:43.947Z</time></trkpt><trkpt lat="44.8819382" lon="9.5299698"><ele>408.66666666666663</ele><time>2026-04-19T13:58:44.98Z</time></trkpt><trkpt lat="44.8818864" lon="9.5300707"><ele>406.0</ele><time>2026-04-19T13:58:46.009Z</time></trkpt><trkpt lat="44.8818471" lon="9.5301501"><ele>403.3333333333333</ele><time>2026-04-19T13:58:46.918Z</time></trkpt><trkpt lat="44.8818004" lon="9.5302519"><ele>400.66666666666663</ele><time>2026-04-19T13:58:47.992Z</time></trkpt><trkpt lat="44.8817699" lon="9.5303475"><ele>398.0</ele><time>2026-04-19T13:58:48.956Z</time></trkpt><trkpt lat="44.8817487" lon="9.530465"><ele>397.66666666666663</ele><time>2026-04-19T13:58:50.031Z</time></trkpt><trkpt lat="44.8817434" lon="9.530577"><ele>397.3333333333333</ele><time>2026-04-19T13:58:50.999Z</time></trkpt><trkpt lat="44.8817437" lon="9.5306823"><ele>397.0</ele><time>2026-04-19T13:58:51.936Z</time></trkpt><trkpt lat="44.8817368" lon="9.530789"><ele>396.66666666666663</ele><time>2026-04-19T13:58:52.932Z</time></trkpt><trkpt lat="44.8817182" lon="9.5309098"><ele>396.3333333333333</ele><time>2026-04-19T13:58:54.002Z</time></trkpt><trkpt lat="44.881692" lon="9.5309991"><ele>396.0</ele><time>2026-04-19T13:58:54.914Z</time></trkpt><trkpt lat="44.8816546" lon="9.5310965"><ele>396.0</ele><time>2026-04-19T13:58:56.029Z</time></trkpt><trkpt lat="44.881612" lon="9.5311666"><ele>396.0</ele><time>2026-04-19T13:58:57.048Z</time></trkpt><trkpt lat="44.8815242" lon="9.5312834"><ele>396.0</ele><time>2026-04-19T13:58:59.008Z</time></trkpt><trkpt lat="44.8814427" lon="9.5313863"><ele>396.0</ele><time>2026-04-19T13:59:00.976Z</time></trkpt><trkpt lat="44.8813694" lon="9.5315045"><ele>396.0</ele><time>2026-04-19T13:59:03.058Z</time></trkpt><trkpt lat="44.8813342" lon="9.531632"><ele>394.4</ele><time>2026-04-19T13:59:04.937Z</time></trkpt><trkpt lat="44.8813238" lon="9.5318017"><ele>392.8</ele><time>2026-04-19T13:59:06.925Z</time></trkpt><trkpt lat="44.8813541" lon="9.5319797"><ele>391.2</ele><time>2026-04-19T13:59:08.929Z</time></trkpt><trkpt lat="44.8813662" lon="9.5320675"><ele>389.59999999999997</ele><time>2026-04-19T13:59:09.931Z</time></trkpt><trkpt lat="44.8813769" lon="9.5321596"><ele>388.0</ele><time>2026-04-19T13:59:11.041Z</time></trkpt><trkpt lat="44.8813588" lon="9.5323567"><ele>386.33333333333337</ele><time>2026-04-19T13:59:12.943Z</time></trkpt><trkpt lat="44.8813268" lon="9.5324901"><ele>384.6666666666667</ele><time>2026-04-19T13:59:13.922Z</time></trkpt><trkpt lat="44.8812884" lon="9.5326055"><ele>383.0</ele><time>2026-04-19T13:59:14.968Z</time></trkpt><trkpt lat="44.8812417" lon="9.5327019"><ele>381.33333333333337</ele><time>2026-04-19T13:59:15.98Z</time></trkpt><trkpt lat="44.8811956" lon="9.5327857"><ele>379.6666666666667</ele><time>2026-04-19T13:59:16.967Z</time></trkpt><trkpt lat="44.8811361" lon="9.5328656"><ele>378.0</ele><time>2026-04-19T13:59:17.971Z</time></trkpt><trkpt lat="44.881069" lon="9.5329455"><ele>376.8333333333333</ele><time>2026-04-19T13:59:18.978Z</time></trkpt><trkpt lat="44.8810091" lon="9.5330286"><ele>375.6666666666667</ele><time>2026-04-19T13:59:19.949Z</time></trkpt><trkpt lat="44.8809575" lon="9.5331114"><ele>374.5</ele><time>2026-04-19T13:59:20.966Z</time></trkpt><trkpt lat="44.8809152" lon="9.5331804"><ele>373.33333333333337</ele><time>2026-04-19T13:59:21.988Z</time></trkpt><trkpt lat="44.8808461" lon="9.5332508"><ele>372.1666666666667</ele><time>2026-04-19T13:59:23.948Z</time></trkpt><trkpt lat="44.8807467" lon="9.5331648"><ele>371.0</ele><time>2026-04-19T13:59:25.976Z</time></trkpt><trkpt lat="44.88067" lon="9.533046"><ele>371.0</ele><time>2026-04-19T13:59:27.072Z</time></trkpt><trkpt lat="44.8806185" lon="9.5327845"><ele>371.0</ele><time>2026-04-19T13:59:28.929Z</time></trkpt><trkpt lat="44.8805764" lon="9.5326245"><ele>371.0</ele><time>2026-04-19T13:59:30.037Z</time></trkpt><trkpt lat="44.8805609" lon="9.5325221"><ele>371.0</ele><time>2026-04-19T13:59:30.939Z</time></trkpt><trkpt lat="44.8805535" lon="9.5323851"><ele>371.0</ele><time>2026-04-19T13:59:32.017Z</time></trkpt><trkpt lat="44.8805739" lon="9.5322033"><ele>371.0</ele><time>2026-04-19T13:59:32.974Z</time></trkpt><trkpt lat="44.8805878" lon="9.5320296"><ele>371.0</ele><time>2026-04-19T13:59:33.915Z</time></trkpt><trkpt lat="44.8805717" lon="9.5318698"><ele>371.0</ele><time>2026-04-19T13:59:34.929Z</time></trkpt><trkpt lat="44.8805237" lon="9.5317043"><ele>372.0</ele><time>2026-04-19T13:59:36.076Z</time></trkpt><trkpt lat="44.880458" lon="9.531556"><ele>373.0</ele><time>2026-04-19T13:59:37.084Z</time></trkpt><trkpt lat="44.880323" lon="9.5312667"><ele>374.0</ele><time>2026-04-19T13:59:38.92Z</time></trkpt><trkpt lat="44.8802672" lon="9.5310717"><ele>374.4</ele><time>2026-04-19T13:59:39.963Z</time></trkpt><trkpt lat="44.8802226" lon="9.5309117"><ele>374.79999999999995</ele><time>2026-04-19T13:59:40.903Z</time></trkpt><trkpt lat="44.8801816" lon="9.5307573"><ele>375.20000000000005</ele><time>2026-04-19T13:59:42.012Z</time></trkpt><trkpt lat="44.8801585" lon="9.5306393"><ele>375.6</ele><time>2026-04-19T13:59:42.974Z</time></trkpt><trkpt lat="44.8801563" lon="9.5305461"><ele>376.0</ele><time>2026-04-19T13:59:44.027Z</time></trkpt><trkpt lat="44.880188" lon="9.5303975"><ele>376.4</ele><time>2026-04-19T13:59:45.927Z</time></trkpt><trkpt lat="44.880191" lon="9.5303018"><ele>376.8</ele><time>2026-04-19T13:59:46.89Z</time></trkpt><trkpt lat="44.8801127" lon="9.5302572"><ele>377.2</ele><time>2026-04-19T13:59:48.937Z</time></trkpt><trkpt lat="44.8799907" lon="9.530347"><ele>377.59999999999997</ele><time>2026-04-19T13:59:50.936Z</time></trkpt><trkpt lat="44.8799383" lon="9.5304587"><ele>378.0</ele><time>2026-04-19T13:59:51.945Z</time></trkpt><trkpt lat="44.8799074" lon="9.5305679"><ele>372.79999999999995</ele><time>2026-04-19T13:59:52.967Z</time></trkpt><trkpt lat="44.8798877" lon="9.5306631"><ele>367.6</ele><time>2026-04-19T13:59:53.932Z</time></trkpt><trkpt lat="44.8798452" lon="9.5308079"><ele>362.4</ele><time>2026-04-19T13:59:55.886Z</time></trkpt><trkpt lat="44.8797993" lon="9.530943"><ele>357.20000000000005</ele><time>2026-04-19T13:59:57.905Z</time></trkpt><trkpt lat="44.8797657" lon="9.5310877"><ele>352.0</ele><time>2026-04-19T14:00:00.056Z</time></trkpt><trkpt lat="44.8797352" lon="9.5312559"><ele>351.3333333333333</ele><time>2026-04-19T14:00:01.977Z</time></trkpt><trkpt lat="44.8797273" lon="9.5313507"><ele>350.66666666666663</ele><time>2026-04-19T14:00:02.899Z</time></trkpt><trkpt lat="44.8797155" lon="9.5314588"><ele>350.0</ele><time>2026-04-19T14:00:03.935Z</time></trkpt><trkpt lat="44.8797109" lon="9.5315747"><ele>349.3333333333333</ele><time>2026-04-19T14:00:04.912Z</time></trkpt><trkpt lat="44.8797304" lon="9.5316933"><ele>348.6666666666667</ele><time>2026-04-19T14:00:05.969Z</time></trkpt><trkpt lat="44.8797564" lon="9.531799"><ele>348.0</ele><time>2026-04-19T14:00:06.896Z</time></trkpt><trkpt lat="44.8797842" lon="9.5319241"><ele>347.59999999999997</ele><time>2026-04-19T14:00:07.94Z</time></trkpt><trkpt lat="44.8797878" lon="9.5320576"><ele>347.2</ele><time>2026-04-19T14:00:08.942Z</time></trkpt><trkpt lat="44.8797715" lon="9.5321842"><ele>346.8</ele><time>2026-04-19T14:00:09.911Z</time></trkpt><trkpt lat="44.8797224" lon="9.5322895"><ele>346.4</ele><time>2026-04-19T14:00:10.91Z</time></trkpt><trkpt lat="44.8796615" lon="9.5323954"><ele>346.0</ele><time>2026-04-19T14:00:11.93Z</time></trkpt><trkpt lat="44.8795945" lon="9.5324984"><ele>346.0</ele><time>2026-04-19T14:00:12.948Z</time></trkpt><trkpt lat="44.8795287" lon="9.5325957"><ele>346.0</ele><time>2026-04-19T14:00:13.882Z</time></trkpt><trkpt lat="44.8794515" lon="9.5327108"><ele>346.0</ele><time>2026-04-19T14:00:15.014Z</time></trkpt><trkpt lat="44.8793882" lon="9.5327856"><ele>346.0</ele><time>2026-04-19T14:00:15.922Z</time></trkpt><trkpt lat="44.879309" lon="9.5328566"><ele>346.0</ele><time>2026-04-19T14:00:16.944Z</time></trkpt><trkpt lat="44.8792416" lon="9.5329219"><ele>342.8</ele><time>2026-04-19T14:00:17.881Z</time></trkpt><trkpt lat="44.8791683" lon="9.533006"><ele>339.6</ele><time>2026-04-19T14:00:18.932Z</time></trkpt><trkpt lat="44.8791058" lon="9.5331026"><ele>336.4</ele><time>2026-04-19T14:00:19.931Z</time></trkpt><trkpt lat="44.8790525" lon="9.5332125"><ele>333.2</ele><time>2026-04-19T14:00:20.885Z</time></trkpt><trkpt lat="44.8789941" lon="9.5333353"><ele>330.0</ele><time>2026-04-19T14:00:21.957Z</time></trkpt><trkpt lat="44.8789439" lon="9.5334619"><ele>330.0</ele><time>2026-04-19T14:00:22.958Z</time></trkpt><trkpt lat="44.8788976" lon="9.5335984"><ele>330.0</ele><time>2026-04-19T14:00:23.933Z</time></trkpt><trkpt lat="44.8788472" lon="9.5337267"><ele>330.0</ele><time>2026-04-19T14:00:24.903Z</time></trkpt><trkpt lat="44.8787987" lon="9.5338547"><ele>330.0</ele><time>2026-04-19T14:00:25.89Z</time></trkpt><trkpt lat="44.8787513" lon="9.5339973"><ele>330.0</ele><time>2026-04-19T14:00:26.996Z</time></trkpt><trkpt lat="44.8787142" lon="9.534121"><ele>329.2</ele><time>2026-04-19T14:00:27.935Z</time></trkpt><trkpt lat="44.8786704" lon="9.5342611"><ele>328.4</ele><time>2026-04-19T14:00:28.978Z</time></trkpt><trkpt lat="44.8786397" lon="9.5343882"><ele>327.6</ele><time>2026-04-19T14:00:29.93Z</time></trkpt><trkpt lat="44.8786046" lon="9.5345131"><ele>326.8</ele><time>2026-04-19T14:00:30.917Z</time></trkpt><trkpt lat="44.8785626" lon="9.5346431"><ele>326.0</ele><time>2026-04-19T14:00:31.973Z</time></trkpt><trkpt lat="44.8785273" lon="9.5347616"><ele>324.8</ele><time>2026-04-19T14:00:32.915Z</time></trkpt><trkpt lat="44.8784936" lon="9.5348876"><ele>323.6</ele><time>2026-04-19T14:00:33.999Z</time></trkpt><trkpt lat="44.8784471" lon="9.5350501"><ele>322.4</ele><time>2026-04-19T14:00:35.932Z</time></trkpt><trkpt lat="44.8784078" lon="9.535167"><ele>321.2</ele><time>2026-04-19T14:00:37.955Z</time></trkpt><trkpt lat="44.8783491" lon="9.5352149"><ele>320.0</ele><time>2026-04-19T14:00:39.984Z</time></trkpt><trkpt lat="44.8782801" lon="9.5351625"><ele>316.4</ele><time>2026-04-19T14:00:42.01Z</time></trkpt><trkpt lat="44.8782251" lon="9.5350067"><ele>312.8</ele><time>2026-04-19T14:00:43.915Z</time></trkpt><trkpt lat="44.8782119" lon="9.5348982"><ele>309.2</ele><time>2026-04-19T14:00:44.897Z</time></trkpt><trkpt lat="44.8781917" lon="9.5347766"><ele>305.6</ele><time>2026-04-19T14:00:45.918Z</time></trkpt><trkpt lat="44.8781655" lon="9.5346303"><ele>302.0</ele><time>2026-04-19T14:00:46.978Z</time></trkpt><trkpt lat="44.8781426" lon="9.5345057"><ele>302.0</ele><time>2026-04-19T14:00:47.933Z</time></trkpt><trkpt lat="44.8781232" lon="9.5343832"><ele>302.0</ele><time>2026-04-19T14:00:48.986Z</time></trkpt><trkpt lat="44.8781142" lon="9.5342951"><ele>302.0</ele><time>2026-04-19T14:00:49.915Z</time></trkpt><trkpt lat="44.8780654" lon="9.5341845"><ele>302.0</ele><time>2026-04-19T14:00:51.934Z</time></trkpt><trkpt lat="44.8779727" lon="9.5342022"><ele>302.0</ele><time>2026-04-19T14:00:53.969Z</time></trkpt><trkpt lat="44.8778822" lon="9.5343081"><ele>302.0</ele><time>2026-04-19T14:00:55.891Z</time></trkpt><trkpt lat="44.8778327" lon="9.5344043"><ele>302.0</ele><time>2026-04-19T14:00:56.988Z</time></trkpt><trkpt lat="44.8777828" lon="9.5344742"><ele>302.0</ele><time>2026-04-19T14:00:57.952Z</time></trkpt><trkpt lat="44.8777046" lon="9.5345285"><ele>302.0</ele><time>2026-04-19T14:00:58.962Z</time></trkpt><trkpt lat="44.8776388" lon="9.5345697"><ele>302.0</ele><time>2026-04-19T14:00:59.947Z</time></trkpt><trkpt lat="44.8775781" lon="9.5346131"><ele>302.0</ele><time>2026-04-19T14:01:00.96Z</time></trkpt><trkpt lat="44.8775094" lon="9.5347691"><ele>298.2</ele><time>2026-04-19T14:01:02.979Z</time></trkpt><trkpt lat="44.8774713" lon="9.5348728"><ele>294.4</ele><time>2026-04-19T14:01:04.05Z</time></trkpt><trkpt lat="44.8773892" lon="9.5350724"><ele>290.6</ele><time>2026-04-19T14:01:06.059Z</time></trkpt><trkpt lat="44.8773375" lon="9.5352357"><ele>286.8</ele><time>2026-04-19T14:01:07.931Z</time></trkpt><trkpt lat="44.8773366" lon="9.5353289"><ele>283.0</ele><time>2026-04-19T14:01:08.934Z</time></trkpt><trkpt lat="44.8773601" lon="9.5354348"><ele>281.6</ele><time>2026-04-19T14:01:09.895Z</time></trkpt><trkpt lat="44.8773923" lon="9.5355582"><ele>280.20000000000005</ele><time>2026-04-19T14:01:10.963Z</time></trkpt><trkpt lat="44.8774209" lon="9.5356795"><ele>278.8</ele><time>2026-04-19T14:01:11.892Z</time></trkpt><trkpt lat="44.8774403" lon="9.5358279"><ele>277.40000000000003</ele><time>2026-04-19T14:01:12.88Z</time></trkpt><trkpt lat="44.8774576" lon="9.5359834"><ele>276.0</ele><time>2026-04-19T14:01:13.906Z</time></trkpt><trkpt lat="44.8774783" lon="9.5361253"><ele>274.40000000000003</ele><time>2026-04-19T14:01:14.923Z</time></trkpt><trkpt lat="44.8775019" lon="9.5362596"><ele>272.8</ele><time>2026-04-19T14:01:15.878Z</time></trkpt><trkpt lat="44.8775339" lon="9.5364092"><ele>271.20000000000005</ele><time>2026-04-19T14:01:16.986Z</time></trkpt><trkpt lat="44.8775631" lon="9.5365252"><ele>269.6</ele><time>2026-04-19T14:01:17.891Z</time></trkpt><trkpt lat="44.8775887" lon="9.5366495"><ele>268.0</ele><time>2026-04-19T14:01:18.869Z</time></trkpt><trkpt lat="44.8775907" lon="9.5367528"><ele>268.0</ele><time>2026-04-19T14:01:19.82Z</time></trkpt><trkpt lat="44.8775695" lon="9.5368564"><ele>268.0</ele><time>2026-04-19T14:01:20.87Z</time></trkpt><trkpt lat="44.8775231" lon="9.5369764"><ele>268.0</ele><time>2026-04-19T14:01:21.998Z</time></trkpt><trkpt lat="44.8774715" lon="9.5370683"><ele>268.0</ele><time>2026-04-19T14:01:22.917Z</time></trkpt><trkpt lat="44.8774215" lon="9.5371654"><ele>268.0</ele><time>2026-04-19T14:01:23.929Z</time></trkpt><trkpt lat="44.8773891" lon="9.5372482"><ele>268.0</ele><time>2026-04-19T14:01:24.859Z</time></trkpt><trkpt lat="44.8773502" lon="9.5373517"><ele>267.6</ele><time>2026-04-19T14:01:25.947Z</time></trkpt><trkpt lat="44.8773314" lon="9.537442"><ele>267.20000000000005</ele><time>2026-04-19T14:01:26.926Z</time></trkpt><trkpt lat="44.8773672" lon="9.5376371"><ele>266.8</ele><time>2026-04-19T14:01:28.919Z</time></trkpt><trkpt lat="44.8774022" lon="9.5377503"><ele>266.40000000000003</ele><time>2026-04-19T14:01:29.919Z</time></trkpt><trkpt lat="44.8774374" lon="9.5378627"><ele>266.0</ele><time>2026-04-19T14:01:30.859Z</time></trkpt><trkpt lat="44.8774603" lon="9.5380275"><ele>265.0</ele><time>2026-04-19T14:01:31.977Z</time></trkpt><trkpt lat="44.8774809" lon="9.5383211"><ele>264.0</ele><time>2026-04-19T14:01:33.918Z</time></trkpt><trkpt lat="44.8774763" lon="9.5384561"><ele>263.0</ele><time>2026-04-19T14:01:34.907Z</time></trkpt><trkpt lat="44.8774665" lon="9.538592"><ele>262.0</ele><time>2026-04-19T14:01:35.943Z</time></trkpt><trkpt lat="44.8774505" lon="9.5387394"><ele>261.8</ele><time>2026-04-19T14:01:36.951Z</time></trkpt><trkpt lat="44.8774295" lon="9.5388851"><ele>261.6</ele><time>2026-04-19T14:01:37.948Z</time></trkpt><trkpt lat="44.8774058" lon="9.5390265"><ele>261.40000000000003</ele><time>2026-04-19T14:01:38.909Z</time></trkpt><trkpt lat="44.8773803" lon="9.5391735"><ele>261.2</ele><time>2026-04-19T14:01:39.951Z</time></trkpt><trkpt lat="44.8773602" lon="9.5392987"><ele>261.0</ele><time>2026-04-19T14:01:40.924Z</time></trkpt><trkpt lat="44.8773452" lon="9.5394465"><ele>258.75</ele><time>2026-04-19T14:01:41.966Z</time></trkpt><trkpt lat="44.8773444" lon="9.5396085"><ele>256.5</ele><time>2026-04-19T14:01:43.069Z</time></trkpt><trkpt lat="44.8773778" lon="9.5398922"><ele>254.25</ele><time>2026-04-19T14:01:44.98Z</time></trkpt><trkpt lat="44.8774029" lon="9.5400216"><ele>252.0</ele><time>2026-04-19T14:01:45.916Z</time></trkpt><trkpt lat="44.8774441" lon="9.5401473"><ele>252.0</ele><time>2026-04-19T14:01:46.942Z</time></trkpt><trkpt lat="44.8774913" lon="9.5402478"><ele>252.0</ele><time>2026-04-19T14:01:47.944Z</time></trkpt><trkpt lat="44.8775449" lon="9.5403533"><ele>252.0</ele><time>2026-04-19T14:01:48.95Z</time></trkpt><trkpt lat="44.8775949" lon="9.5404577"><ele>252.0</ele><time>2026-04-19T14:01:49.937Z</time></trkpt><trkpt lat="44.8776151" lon="9.5405679"><ele>252.0</ele><time>2026-04-19T14:01:50.947Z</time></trkpt><trkpt lat="44.8776145" lon="9.5407011"><ele>252.0</ele><time>2026-04-19T14:01:51.993Z</time></trkpt><trkpt lat="44.8775936" lon="9.5408391"><ele>250.0</ele><time>2026-04-19T14:01:52.936Z</time></trkpt><trkpt lat="44.8775637" lon="9.5409887"><ele>248.0</ele><time>2026-04-19T14:01:53.937Z</time></trkpt><trkpt lat="44.8775229" lon="9.5411419"><ele>246.0</ele><time>2026-04-19T14:01:54.978Z</time></trkpt><trkpt lat="44.8774812" lon="9.5412603"><ele>244.0</ele><time>2026-04-19T14:01:55.913Z</time></trkpt><trkpt lat="44.877414" lon="9.5413811"><ele>242.0</ele><time>2026-04-19T14:01:57.05Z</time></trkpt><trkpt lat="44.8772711" lon="9.5415155"><ele>240.0</ele><time>2026-04-19T14:01:58.943Z</time></trkpt><trkpt lat="44.8771761" lon="9.5415712"><ele>238.0</ele><time>2026-04-19T14:01:59.973Z</time></trkpt><trkpt lat="44.8770916" lon="9.541646"><ele>236.0</ele><time>2026-04-19T14:02:00.984Z</time></trkpt><trkpt lat="44.8770069" lon="9.541736"><ele>234.0</ele><time>2026-04-19T14:02:02.003Z</time></trkpt><trkpt lat="44.8768695" lon="9.5419546"><ele>235.25</ele><time>2026-04-19T14:02:03.966Z</time></trkpt><trkpt lat="44.8767953" lon="9.5420812"><ele>236.5</ele><time>2026-04-19T14:02:05.037Z</time></trkpt><trkpt lat="44.8767339" lon="9.5421921"><ele>237.75</ele><time>2026-04-19T14:02:05.954Z</time></trkpt><trkpt lat="44.8766574" lon="9.5423222"><ele>239.0</ele><time>2026-04-19T14:02:07.019Z</time></trkpt><trkpt lat="44.8765248" lon="9.542549"><ele>239.00000000000003</ele><time>2026-04-19T14:02:08.972Z</time></trkpt><trkpt lat="44.8764545" lon="9.5426289"><ele>239.0</ele><time>2026-04-19T14:02:09.947Z</time></trkpt><trkpt lat="44.8763827" lon="9.5426868"><ele>239.0</ele><time>2026-04-19T14:02:10.957Z</time></trkpt><trkpt lat="44.8763172" lon="9.5427348"><ele>239.0</ele><time>2026-04-19T14:02:11.952Z</time></trkpt><trkpt lat="44.8762565" lon="9.5427971"><ele>239.00000000000003</ele><time>2026-04-19T14:02:12.968Z</time></trkpt><trkpt lat="44.8762169" lon="9.5429018"><ele>239.0</ele><time>2026-04-19T14:02:13.909Z</time></trkpt><trkpt lat="44.8761892" lon="9.5430562"><ele>235.79999999999998</ele><time>2026-04-19T14:02:14.918Z</time></trkpt><trkpt lat="44.8761612" lon="9.5432204"><ele>232.59999999999997</ele><time>2026-04-19T14:02:15.953Z</time></trkpt><trkpt lat="44.8761452" lon="9.5433795"><ele>229.4</ele><time>2026-04-19T14:02:16.951Z</time></trkpt><trkpt lat="44.8761199" lon="9.5435303"><ele>226.2</ele><time>2026-04-19T14:02:18.015Z</time></trkpt><trkpt lat="44.8760814" lon="9.5436663"><ele>223.0</ele><time>2026-04-19T14:02:18.94Z</time></trkpt><trkpt lat="44.8760258" lon="9.5438069"><ele>223.33333333333331</ele><time>2026-04-19T14:02:19.923Z</time></trkpt><trkpt lat="44.8759627" lon="9.5439429"><ele>223.66666666666669</ele><time>2026-04-19T14:02:20.946Z</time></trkpt><trkpt lat="44.8758731" lon="9.5440961"><ele>224.0</ele><time>2026-04-19T14:02:22.106Z</time></trkpt><trkpt lat="44.8757347" lon="9.5443361"><ele>224.0</ele><time>2026-04-19T14:02:23.972Z</time></trkpt><trkpt lat="44.8756823" lon="9.544476"><ele>223.99999999999997</ele><time>2026-04-19T14:02:24.985Z</time></trkpt><trkpt lat="44.8756454" lon="9.5446206"><ele>223.99999999999997</ele><time>2026-04-19T14:02:25.948Z</time></trkpt><trkpt lat="44.8755989" lon="9.5447823"><ele>224.0</ele><time>2026-04-19T14:02:27.077Z</time></trkpt><trkpt lat="44.8755617" lon="9.5448948"><ele>224.0</ele><time>2026-04-19T14:02:27.983Z</time></trkpt><trkpt lat="44.8755215" lon="9.5450092"><ele>221.79999999999998</ele><time>2026-04-19T14:02:28.965Z</time></trkpt><trkpt lat="44.8754847" lon="9.5451261"><ele>219.59999999999997</ele><time>2026-04-19T14:02:29.951Z</time></trkpt><trkpt lat="44.8754498" lon="9.5452443"><ele>217.4</ele><time>2026-04-19T14:02:30.922Z</time></trkpt><trkpt lat="44.8754087" lon="9.5453802"><ele>215.2</ele><time>2026-04-19T14:02:32.023Z</time></trkpt><trkpt lat="44.8753633" lon="9.5454937"><ele>213.0</ele><time>2026-04-19T14:02:32.973Z</time></trkpt><trkpt lat="44.8753105" lon="9.5456116"><ele>213.2</ele><time>2026-04-19T14:02:33.958Z</time></trkpt><trkpt lat="44.8752518" lon="9.5457504"><ele>213.4</ele><time>2026-04-19T14:02:34.99Z</time></trkpt><trkpt lat="44.8752118" lon="9.5458733"><ele>213.59999999999997</ele><time>2026-04-19T14:02:35.946Z</time></trkpt><trkpt lat="44.8751661" lon="9.546024"><ele>213.79999999999998</ele><time>2026-04-19T14:02:36.998Z</time></trkpt><trkpt lat="44.8751232" lon="9.5461348"><ele>214.0</ele><time>2026-04-19T14:02:37.948Z</time></trkpt><trkpt lat="44.8750723" lon="9.546252"><ele>214.0</ele><time>2026-04-19T14:02:38.988Z</time></trkpt><trkpt lat="44.8750091" lon="9.546351"><ele>213.99999999999997</ele><time>2026-04-19T14:02:39.981Z</time></trkpt><trkpt lat="44.8749383" lon="9.5464419"><ele>213.99999999999997</ele><time>2026-04-19T14:02:40.995Z</time></trkpt><trkpt lat="44.8748741" lon="9.5465353"><ele>214.0</ele><time>2026-04-19T14:02:42.004Z</time></trkpt><trkpt lat="44.8748187" lon="9.5466236"><ele>214.0</ele><time>2026-04-19T14:02:42.946Z</time></trkpt><trkpt lat="44.8747631" lon="9.5467299"><ele>214.0</ele><time>2026-04-19T14:02:43.958Z</time></trkpt><trkpt lat="44.8747181" lon="9.5468346"><ele>214.0</ele><time>2026-04-19T14:02:44.889Z</time></trkpt><trkpt lat="44.8746717" lon="9.5469848"><ele>214.0</ele><time>2026-04-19T14:02:46.096Z</time></trkpt><trkpt lat="44.8746215" lon="9.5471985"><ele>214.0</ele><time>2026-04-19T14:02:47.896Z</time></trkpt><trkpt lat="44.8745853" lon="9.5473281"><ele>213.33333333333331</ele><time>2026-04-19T14:02:48.976Z</time></trkpt><trkpt lat="44.8745609" lon="9.5474429"><ele>212.66666666666666</ele><time>2026-04-19T14:02:49.964Z</time></trkpt><trkpt lat="44.8745345" lon="9.5475564"><ele>212.0</ele><time>2026-04-19T14:02:50.925Z</time></trkpt><trkpt lat="44.8745057" lon="9.5476841"><ele>211.33333333333331</ele><time>2026-04-19T14:02:52.025Z</time></trkpt><trkpt lat="44.8744886" lon="9.5477955"><ele>210.66666666666666</ele><time>2026-04-19T14:02:52.968Z</time></trkpt><trkpt lat="44.8744901" lon="9.5479019"><ele>210.0</ele><time>2026-04-19T14:02:53.981Z</time></trkpt><trkpt lat="44.8745404" lon="9.5480842"><ele>207.6</ele><time>2026-04-19T14:02:55.972Z</time></trkpt><trkpt lat="44.8745908" lon="9.5481719"><ele>205.2</ele><time>2026-04-19T14:02:56.966Z</time></trkpt><trkpt lat="44.8746544" lon="9.548286"><ele>202.8</ele><time>2026-04-19T14:02:58.097Z</time></trkpt><trkpt lat="44.8747472" lon="9.5484497"><ele>200.4</ele><time>2026-04-19T14:03:00.096Z</time></trkpt><trkpt lat="44.8748535" lon="9.5484937"><ele>198.0</ele><time>2026-04-19T14:03:01.966Z</time></trkpt><trkpt lat="44.8749163" lon="9.5484526"><ele>198.0</ele><time>2026-04-19T14:03:02.956Z</time></trkpt><trkpt lat="44.8749742" lon="9.5483902"><ele>198.0</ele><time>2026-04-19T14:03:03.89Z</time></trkpt><trkpt lat="44.8750474" lon="9.5483019"><ele>198.0</ele><time>2026-04-19T14:03:04.995Z</time></trkpt><trkpt lat="44.8751224" lon="9.5482005"><ele>198.0</ele><time>2026-04-19T14:03:05.93Z</time></trkpt><trkpt lat="44.8751823" lon="9.5481029"><ele>198.0</ele><time>2026-04-19T14:03:06.903Z</time></trkpt><trkpt lat="44.8752229" lon="9.5479883"><ele>195.5</ele><time>2026-04-19T14:03:07.961Z</time></trkpt><trkpt lat="44.8752458" lon="9.5479035"><ele>193.0</ele><time>2026-04-19T14:03:08.919Z</time></trkpt><trkpt lat="44.8753204" lon="9.547853"><ele>190.5</ele><time>2026-04-19T14:03:10.923Z</time></trkpt><trkpt lat="44.8753872" lon="9.5479447"><ele>188.0</ele><time>2026-04-19T14:03:12.939Z</time></trkpt><trkpt lat="44.8753953" lon="9.5480349"><ele>185.5</ele><time>2026-04-19T14:03:13.882Z</time></trkpt><trkpt lat="44.8753851" lon="9.5481905"><ele>183.0</ele><time>2026-04-19T14:03:15.029Z</time></trkpt><trkpt lat="44.8753035" lon="9.5484481"><ele>182.83333333333334</ele><time>2026-04-19T14:03:16.875Z</time></trkpt><trkpt lat="44.875256" lon="9.5485555"><ele>182.66666666666666</ele><time>2026-04-19T14:03:17.889Z</time></trkpt><trkpt lat="44.8752097" lon="9.5486436"><ele>182.5</ele><time>2026-04-19T14:03:18.896Z</time></trkpt><trkpt lat="44.8751606" lon="9.5487519"><ele>182.33333333333331</ele><time>2026-04-19T14:03:19.921Z</time></trkpt><trkpt lat="44.8751272" lon="9.548861"><ele>182.16666666666666</ele><time>2026-04-19T14:03:20.863Z</time></trkpt><trkpt lat="44.8750979" lon="9.548972"><ele>182.0</ele><time>2026-04-19T14:03:21.904Z</time></trkpt><trkpt lat="44.8750979" lon="9.5490876"><ele>180.57142857142858</ele><time>2026-04-19T14:03:22.907Z</time></trkpt><trkpt lat="44.8751157" lon="9.5491852"><ele>179.14285714285714</ele><time>2026-04-19T14:03:23.857Z</time></trkpt><trkpt lat="44.8751382" lon="9.5492834"><ele>177.71428571428572</ele><time>2026-04-19T14:03:24.978Z</time></trkpt><trkpt lat="44.8751575" lon="9.5493752"><ele>176.28571428571428</ele><time>2026-04-19T14:03:26.88Z</time></trkpt><trkpt lat="44.8751763" lon="9.5494845"><ele>174.85714285714286</ele><time>2026-04-19T14:03:30.025Z</time></trkpt><trkpt lat="44.8752056" lon="9.5495651"><ele>173.42857142857144</ele><time>2026-04-19T14:03:33.961Z</time></trkpt><trkpt lat="44.8752878" lon="9.5495482"><ele>172.0</ele><time>2026-04-19T14:03:38.948Z</time></trkpt><trkpt lat="44.8753362" lon="9.5493944"><ele>172.0</ele><time>2026-04-19T14:03:40.922Z</time></trkpt><trkpt lat="44.8753889" lon="9.5493235"><ele>172.0</ele><time>2026-04-19T14:03:42.056Z</time></trkpt><trkpt lat="44.8755047" lon="9.5492996"><ele>172.0</ele><time>2026-04-19T14:03:44.008Z</time></trkpt><trkpt lat="44.8755894" lon="9.5493324"><ele>172.0</ele><time>2026-04-19T14:03:44.913Z</time></trkpt><trkpt lat="44.8756881" lon="9.5493835"><ele>172.0</ele><time>2026-04-19T14:03:45.979Z</time></trkpt><trkpt lat="44.8757683" lon="9.5494212"><ele>172.0</ele><time>2026-04-19T14:03:46.912Z</time></trkpt><trkpt lat="44.8758429" lon="9.549452"><ele>172.0</ele><time>2026-04-19T14:03:47.916Z</time></trkpt><trkpt lat="44.8759135" lon="9.5494861"><ele>172.0</ele><time>2026-04-19T14:03:49.937Z</time></trkpt><trkpt lat="44.875986" lon="9.5494229"><ele>172.0</ele><time>2026-04-19T14:03:52.885Z</time></trkpt><trkpt lat="44.8760228" lon="9.5493034"><ele>172.0</ele><time>2026-04-19T14:03:54.911Z</time></trkpt><trkpt lat="44.8760522" lon="9.5491944"><ele>172.0</ele><time>2026-04-19T14:03:56.949Z</time></trkpt><trkpt lat="44.8760986" lon="9.5490277"><ele>175.5</ele><time>2026-04-19T14:03:58.945Z</time></trkpt><trkpt lat="44.8761297" lon="9.5489476"><ele>179.0</ele><time>2026-04-19T14:03:59.882Z</time></trkpt><trkpt lat="44.8761562" lon="9.5488585"><ele>182.5</ele><time>2026-04-19T14:04:00.856Z</time></trkpt><trkpt lat="44.8761786" lon="9.5487658"><ele>186.0</ele><time>2026-04-19T14:04:01.926Z</time></trkpt><trkpt lat="44.8761868" lon="9.548615"><ele>189.49999999999997</ele><time>2026-04-19T14:04:03.872Z</time></trkpt><trkpt lat="44.8761939" lon="9.5484958"><ele>193.0</ele><time>2026-04-19T14:04:05.069Z</time></trkpt><trkpt lat="44.8762057" lon="9.5483103"><ele>192.99999999999997</ele><time>2026-04-19T14:04:07.025Z</time></trkpt><trkpt lat="44.8762402" lon="9.5481204"><ele>193.0</ele><time>2026-04-19T14:04:08.875Z</time></trkpt><trkpt lat="44.876262" lon="9.5480125"><ele>193.0</ele><time>2026-04-19T14:04:09.887Z</time></trkpt><trkpt lat="44.8762865" lon="9.5479235"><ele>193.0</ele><time>2026-04-19T14:04:10.878Z</time></trkpt><trkpt lat="44.8763179" lon="9.5478228"><ele>192.99999999999997</ele><time>2026-04-19T14:04:11.937Z</time></trkpt><trkpt lat="44.8763498" lon="9.5477288"><ele>193.0</ele><time>2026-04-19T14:04:12.88Z</time></trkpt><trkpt lat="44.8763866" lon="9.5476324"><ele>193.16666666666666</ele><time>2026-04-19T14:04:13.922Z</time></trkpt><trkpt lat="44.8764712" lon="9.5474565"><ele>193.33333333333331</ele><time>2026-04-19T14:04:15.842Z</time></trkpt><trkpt lat="44.8765201" lon="9.5473727"><ele>193.5</ele><time>2026-04-19T14:04:16.921Z</time></trkpt><trkpt lat="44.8765694" lon="9.5473117"><ele>193.66666666666669</ele><time>2026-04-19T14:04:17.869Z</time></trkpt><trkpt lat="44.8766251" lon="9.5472336"><ele>193.83333333333334</ele><time>2026-04-19T14:04:18.916Z</time></trkpt><trkpt lat="44.8766687" lon="9.5471566"><ele>194.0</ele><time>2026-04-19T14:04:19.887Z</time></trkpt><trkpt lat="44.8767112" lon="9.5470648"><ele>193.39999999999998</ele><time>2026-04-19T14:04:20.889Z</time></trkpt><trkpt lat="44.8767445" lon="9.5469656"><ele>192.8</ele><time>2026-04-19T14:04:21.906Z</time></trkpt><trkpt lat="44.8767657" lon="9.5468492"><ele>192.2</ele><time>2026-04-19T14:04:22.966Z</time></trkpt><trkpt lat="44.8767772" lon="9.5467423"><ele>191.60000000000002</ele><time>2026-04-19T14:04:23.88Z</time></trkpt><trkpt lat="44.8767931" lon="9.5466108"><ele>191.0</ele><time>2026-04-19T14:04:24.996Z</time></trkpt><trkpt lat="44.8768352" lon="9.5464145"><ele>195.0</ele><time>2026-04-19T14:04:26.88Z</time></trkpt><trkpt lat="44.8768617" lon="9.5463135"><ele>199.0</ele><time>2026-04-19T14:04:27.85Z</time></trkpt><trkpt lat="44.8768845" lon="9.5461981"><ele>203.0</ele><time>2026-04-19T14:04:28.885Z</time></trkpt><trkpt lat="44.8768865" lon="9.54606"><ele>207.0</ele><time>2026-04-19T14:04:30Z</time></trkpt><trkpt lat="44.8768709" lon="9.5458208"><ele>211.0</ele><time>2026-04-19T14:04:31.882Z</time></trkpt><trkpt lat="44.8768551" lon="9.5457067"><ele>210.99999999999997</ele><time>2026-04-19T14:04:32.86Z</time></trkpt><trkpt lat="44.8768441" lon="9.5456062"><ele>211.0</ele><time>2026-04-19T14:04:33.85Z</time></trkpt><trkpt lat="44.876841" lon="9.5454952"><ele>211.0</ele><time>2026-04-19T14:04:34.881Z</time></trkpt><trkpt lat="44.8768503" lon="9.5453919"><ele>211.0</ele><time>2026-04-19T14:04:35.851Z</time></trkpt><trkpt lat="44.8768695" lon="9.5452774"><ele>210.99999999999997</ele><time>2026-04-19T14:04:36.916Z</time></trkpt><trkpt lat="44.8769039" lon="9.5451843"><ele>211.0</ele><time>2026-04-19T14:04:37.878Z</time></trkpt><trkpt lat="44.8769517" lon="9.5450969"><ele>210.20000000000002</ele><time>2026-04-19T14:04:38.85Z</time></trkpt><trkpt lat="44.8770026" lon="9.5450213"><ele>209.4</ele><time>2026-04-19T14:04:39.87Z</time></trkpt><trkpt lat="44.8770547" lon="9.5449512"><ele>208.6</ele><time>2026-04-19T14:04:40.913Z</time></trkpt><trkpt lat="44.8771652" lon="9.5448326"><ele>207.8</ele><time>2026-04-19T14:04:43.044Z</time></trkpt><trkpt lat="44.8772758" lon="9.5447952"><ele>207.0</ele><time>2026-04-19T14:04:44.918Z</time></trkpt><trkpt lat="44.8773514" lon="9.5447978"><ele>207.0</ele><time>2026-04-19T14:04:45.895Z</time></trkpt><trkpt lat="44.8774189" lon="9.5448014"><ele>207.0</ele><time>2026-04-19T14:04:46.936Z</time></trkpt><trkpt lat="44.8775866" lon="9.5446213"><ele>207.0</ele><time>2026-04-19T14:04:49.977Z</time></trkpt><trkpt lat="44.877637" lon="9.544528"><ele>207.0</ele><time>2026-04-19T14:04:50.885Z</time></trkpt><trkpt lat="44.8776941" lon="9.5444177"><ele>208.8</ele><time>2026-04-19T14:04:51.908Z</time></trkpt><trkpt lat="44.8777511" lon="9.5443143"><ele>210.6</ele><time>2026-04-19T14:04:52.917Z</time></trkpt><trkpt lat="44.8778218" lon="9.5442147"><ele>212.40000000000003</ele><time>2026-04-19T14:04:53.933Z</time></trkpt><trkpt lat="44.8778978" lon="9.5441086"><ele>214.20000000000002</ele><time>2026-04-19T14:04:54.941Z</time></trkpt><trkpt lat="44.8779598" lon="9.5440106"><ele>216.0</ele><time>2026-04-19T14:04:55.861Z</time></trkpt><trkpt lat="44.8780296" lon="9.5438936"><ele>216.0</ele><time>2026-04-19T14:04:56.997Z</time></trkpt><trkpt lat="44.8780782" lon="9.543801"><ele>216.0</ele><time>2026-04-19T14:04:57.946Z</time></trkpt><trkpt lat="44.8781269" lon="9.5437039"><ele>216.0</ele><time>2026-04-19T14:04:58.939Z</time></trkpt><trkpt lat="44.8781768" lon="9.5436209"><ele>216.0</ele><time>2026-04-19T14:04:59.925Z</time></trkpt><trkpt lat="44.8782383" lon="9.5435447"><ele>216.0</ele><time>2026-04-19T14:05:00.924Z</time></trkpt><trkpt lat="44.878303" lon="9.5434625"><ele>216.0</ele><time>2026-04-19T14:05:01.904Z</time></trkpt><trkpt lat="44.8783627" lon="9.5433711"><ele>216.8</ele><time>2026-04-19T14:05:02.92Z</time></trkpt><trkpt lat="44.8784155" lon="9.5432563"><ele>217.60000000000002</ele><time>2026-04-19T14:05:03.917Z</time></trkpt><trkpt lat="44.8784655" lon="9.5431371"><ele>218.4</ele><time>2026-04-19T14:05:04.927Z</time></trkpt><trkpt lat="44.8785169" lon="9.5430275"><ele>219.2</ele><time>2026-04-19T14:05:06.009Z</time></trkpt><trkpt lat="44.878572" lon="9.5429451"><ele>220.0</ele><time>2026-04-19T14:05:06.951Z</time></trkpt><trkpt lat="44.8786329" lon="9.5428568"><ele>216.66666666666666</ele><time>2026-04-19T14:05:07.922Z</time></trkpt><trkpt lat="44.8787219" lon="9.5427509"><ele>213.33333333333331</ele><time>2026-04-19T14:05:09.048Z</time></trkpt><trkpt lat="44.8789021" lon="9.542575"><ele>210.0</ele><time>2026-04-19T14:05:11.019Z</time></trkpt><trkpt lat="44.8790693" lon="9.5424128"><ele>210.0</ele><time>2026-04-19T14:05:12.884Z</time></trkpt><trkpt lat="44.8791556" lon="9.5423442"><ele>210.0</ele><time>2026-04-19T14:05:13.874Z</time></trkpt><trkpt lat="44.8792494" lon="9.5422759"><ele>210.0</ele><time>2026-04-19T14:05:15.056Z</time></trkpt><trkpt lat="44.8793674" lon="9.5421689"><ele>210.0</ele><time>2026-04-19T14:05:17.008Z</time></trkpt><trkpt lat="44.8794549" lon="9.5420997"><ele>210.0</ele><time>2026-04-19T14:05:18.923Z</time></trkpt><trkpt lat="44.8795567" lon="9.5421056"><ele>212.0</ele><time>2026-04-19T14:05:20.888Z</time></trkpt><trkpt lat="44.8797138" lon="9.542264"><ele>214.0</ele><time>2026-04-19T14:05:23.936Z</time></trkpt><trkpt lat="44.8798593" lon="9.5423306"><ele>216.0</ele><time>2026-04-19T14:05:25.873Z</time></trkpt><trkpt lat="44.8799419" lon="9.5423104"><ele>218.0</ele><time>2026-04-19T14:05:26.897Z</time></trkpt><trkpt lat="44.8800262" lon="9.5422726"><ele>219.0</ele><time>2026-04-19T14:05:27.846Z</time></trkpt><trkpt lat="44.880115" lon="9.5421992"><ele>220.0</ele><time>2026-04-19T14:05:28.942Z</time></trkpt><trkpt lat="44.8802001" lon="9.542043"><ele>221.0</ele><time>2026-04-19T14:05:30.88Z</time></trkpt><trkpt lat="44.8802601" lon="9.5419465"><ele>222.0</ele><time>2026-04-19T14:05:31.897Z</time></trkpt><trkpt lat="44.8803401" lon="9.5418105"><ele>222.0</ele><time>2026-04-19T14:05:32.839Z</time></trkpt><trkpt lat="44.8804403" lon="9.5417488"><ele>222.0</ele><time>2026-04-19T14:05:33.915Z</time></trkpt><trkpt lat="44.8805596" lon="9.5416903"><ele>222.0</ele><time>2026-04-19T14:05:34.854Z</time></trkpt><trkpt lat="44.8806476" lon="9.5416423"><ele>222.0</ele><time>2026-04-19T14:05:35.794Z</time></trkpt><trkpt lat="44.8807697" lon="9.5415919"><ele>222.0</ele><time>2026-04-19T14:05:36.857Z</time></trkpt><trkpt lat="44.8808708" lon="9.5415128"><ele>222.0</ele><time>2026-04-19T14:05:37.88Z</time></trkpt><trkpt lat="44.880963" lon="9.5414245"><ele>222.0</ele><time>2026-04-19T14:05:38.83Z</time></trkpt><trkpt lat="44.8810719" lon="9.5413347"><ele>222.0</ele><time>2026-04-19T14:05:39.893Z</time></trkpt><trkpt lat="44.8811636" lon="9.5412487"><ele>224.75</ele><time>2026-04-19T14:05:40.843Z</time></trkpt><trkpt lat="44.8812486" lon="9.5411341"><ele>227.5</ele><time>2026-04-19T14:05:41.867Z</time></trkpt><trkpt lat="44.881326" lon="9.5410137"><ele>230.25</ele><time>2026-04-19T14:05:42.894Z</time></trkpt><trkpt lat="44.8813931" lon="9.5409046"><ele>233.0</ele><time>2026-04-19T14:05:43.818Z</time></trkpt><trkpt lat="44.8814819" lon="9.540787"><ele>233.0</ele><time>2026-04-19T14:05:44.966Z</time></trkpt><trkpt lat="44.8816092" lon="9.5405604"><ele>233.0</ele><time>2026-04-19T14:05:46.851Z</time></trkpt><trkpt lat="44.8816677" lon="9.5404435"><ele>233.0</ele><time>2026-04-19T14:05:47.835Z</time></trkpt><trkpt lat="44.8817178" lon="9.5403321"><ele>233.0</ele><time>2026-04-19T14:05:48.807Z</time></trkpt><trkpt lat="44.8817787" lon="9.5402044"><ele>235.2</ele><time>2026-04-19T14:05:49.825Z</time></trkpt><trkpt lat="44.8818367" lon="9.5400815"><ele>237.4</ele><time>2026-04-19T14:05:50.84Z</time></trkpt><trkpt lat="44.8819098" lon="9.5399624"><ele>239.59999999999997</ele><time>2026-04-19T14:05:51.838Z</time></trkpt><trkpt lat="44.8819698" lon="9.5398632"><ele>241.79999999999998</ele><time>2026-04-19T14:05:52.833Z</time></trkpt><trkpt lat="44.8820349" lon="9.5397757"><ele>244.0</ele><time>2026-04-19T14:05:53.814Z</time></trkpt><trkpt lat="44.8820987" lon="9.5396708"><ele>244.0</ele><time>2026-04-19T14:05:54.806Z</time></trkpt><trkpt lat="44.8821819" lon="9.5395794"><ele>244.0</ele><time>2026-04-19T14:05:55.799Z</time></trkpt><trkpt lat="44.8822819" lon="9.5394907"><ele>244.0</ele><time>2026-04-19T14:05:56.842Z</time></trkpt><trkpt lat="44.8824024" lon="9.5394249"><ele>244.0</ele><time>2026-04-19T14:05:57.831Z</time></trkpt><trkpt lat="44.8825185" lon="9.5393606"><ele>240.33333333333331</ele><time>2026-04-19T14:05:58.779Z</time></trkpt><trkpt lat="44.8826754" lon="9.5392823"><ele>236.66666666666669</ele><time>2026-04-19T14:05:59.915Z</time></trkpt><trkpt lat="44.8828919" lon="9.5391639"><ele>233.0</ele><time>2026-04-19T14:06:01.792Z</time></trkpt><trkpt lat="44.8830033" lon="9.5391059"><ele>233.00000000000003</ele><time>2026-04-19T14:06:02.828Z</time></trkpt><trkpt lat="44.8830863" lon="9.5390485"><ele>233.0</ele><time>2026-04-19T14:06:03.835Z</time></trkpt><trkpt lat="44.8831787" lon="9.5389962"><ele>233.0</ele><time>2026-04-19T14:06:04.79Z</time></trkpt><trkpt lat="44.8832578" lon="9.5389705"><ele>233.0</ele><time>2026-04-19T14:06:05.772Z</time></trkpt><trkpt lat="44.8833435" lon="9.5389327"><ele>233.00000000000003</ele><time>2026-04-19T14:06:06.85Z</time></trkpt><trkpt lat="44.8834244" lon="9.5389181"><ele>233.0</ele><time>2026-04-19T14:06:07.81Z</time></trkpt><trkpt lat="44.8835152" lon="9.5389041"><ele>233.60000000000002</ele><time>2026-04-19T14:06:08.848Z</time></trkpt><trkpt lat="44.8836037" lon="9.5388761"><ele>234.20000000000002</ele><time>2026-04-19T14:06:09.818Z</time></trkpt><trkpt lat="44.8837088" lon="9.5388192"><ele>234.8</ele><time>2026-04-19T14:06:10.851Z</time></trkpt><trkpt lat="44.8838047" lon="9.538746"><ele>235.4</ele><time>2026-04-19T14:06:11.803Z</time></trkpt><trkpt lat="44.8839209" lon="9.5386733"><ele>236.0</ele><time>2026-04-19T14:06:12.827Z</time></trkpt><trkpt lat="44.8840519" lon="9.538604"><ele>236.0</ele><time>2026-04-19T14:06:13.806Z</time></trkpt><trkpt lat="44.8841897" lon="9.5385305"><ele>236.0</ele><time>2026-04-19T14:06:14.809Z</time></trkpt><trkpt lat="44.8843384" lon="9.5384549"><ele>236.0</ele><time>2026-04-19T14:06:15.821Z</time></trkpt><trkpt lat="44.8845026" lon="9.5383783"><ele>237.5</ele><time>2026-04-19T14:06:16.871Z</time></trkpt><trkpt lat="44.8846592" lon="9.5383066"><ele>239.0</ele><time>2026-04-19T14:06:17.89Z</time></trkpt><trkpt lat="44.8847815" lon="9.5382388"><ele>240.5</ele><time>2026-04-19T14:06:18.887Z</time></trkpt><trkpt lat="44.8849021" lon="9.5381682"><ele>242.0</ele><time>2026-04-19T14:06:19.947Z</time></trkpt><trkpt lat="44.8850726" lon="9.5380708"><ele>243.83333333333334</ele><time>2026-04-19T14:06:21.843Z</time></trkpt><trkpt lat="44.8851483" lon="9.5380278"><ele>245.66666666666669</ele><time>2026-04-19T14:06:22.823Z</time></trkpt><trkpt lat="44.8852272" lon="9.5379844"><ele>247.5</ele><time>2026-04-19T14:06:23.825Z</time></trkpt><trkpt lat="44.8853068" lon="9.5379446"><ele>249.33333333333331</ele><time>2026-04-19T14:06:24.904Z</time></trkpt><trkpt lat="44.8853831" lon="9.5379476"><ele>251.16666666666666</ele><time>2026-04-19T14:06:25.828Z</time></trkpt><trkpt lat="44.8854844" lon="9.5379609"><ele>253.0</ele><time>2026-04-19T14:06:26.92Z</time></trkpt><trkpt lat="44.8855779" lon="9.5379616"><ele>253.0</ele><time>2026-04-19T14:06:27.86Z</time></trkpt><trkpt lat="44.8856994" lon="9.5379493"><ele>253.0</ele><time>2026-04-19T14:06:28.866Z</time></trkpt><trkpt lat="44.885813" lon="9.5379313"><ele>253.0</ele><time>2026-04-19T14:06:29.814Z</time></trkpt><trkpt lat="44.8859118" lon="9.5379191"><ele>253.0</ele><time>2026-04-19T14:06:30.822Z</time></trkpt><trkpt lat="44.8860046" lon="9.5379097"><ele>253.0</ele><time>2026-04-19T14:06:31.834Z</time></trkpt><trkpt lat="44.8860986" lon="9.5379078"><ele>255.0</ele><time>2026-04-19T14:06:32.836Z</time></trkpt><trkpt lat="44.8862075" lon="9.5379004"><ele>257.0</ele><time>2026-04-19T14:06:34.031Z</time></trkpt><trkpt lat="44.8863535" lon="9.5377931"><ele>259.0</ele><time>2026-04-19T14:06:35.818Z</time></trkpt><trkpt lat="44.8864068" lon="9.5377051"><ele>261.0</ele><time>2026-04-19T14:06:36.807Z</time></trkpt><trkpt lat="44.8864578" lon="9.5375917"><ele>258.40000000000003</ele><time>2026-04-19T14:06:37.834Z</time></trkpt><trkpt lat="44.886518" lon="9.537489"><ele>255.8</ele><time>2026-04-19T14:06:38.832Z</time></trkpt><trkpt lat="44.8866063" lon="9.5373995"><ele>253.20000000000002</ele><time>2026-04-19T14:06:39.879Z</time></trkpt><trkpt lat="44.8866969" lon="9.537321"><ele>250.60000000000002</ele><time>2026-04-19T14:06:40.837Z</time></trkpt><trkpt lat="44.88679" lon="9.5372377"><ele>248.0</ele><time>2026-04-19T14:06:41.83Z</time></trkpt><trkpt lat="44.8868714" lon="9.5371754"><ele>248.00000000000003</ele><time>2026-04-19T14:06:42.862Z</time></trkpt><trkpt lat="44.8869479" lon="9.5371388"><ele>248.0</ele><time>2026-04-19T14:06:43.868Z</time></trkpt><trkpt lat="44.8870295" lon="9.5371191"><ele>248.0</ele><time>2026-04-19T14:06:44.841Z</time></trkpt><trkpt lat="44.8871186" lon="9.5371213"><ele>248.0</ele><time>2026-04-19T14:06:45.896Z</time></trkpt><trkpt lat="44.8871984" lon="9.5371558"><ele>248.00000000000003</ele><time>2026-04-19T14:06:46.846Z</time></trkpt><trkpt lat="44.8872823" lon="9.5372287"><ele>248.0</ele><time>2026-04-19T14:06:47.881Z</time></trkpt><trkpt lat="44.8873534" lon="9.5373257"><ele>248.0</ele><time>2026-04-19T14:06:48.828Z</time></trkpt><trkpt lat="44.8874266" lon="9.5374515"><ele>248.0</ele><time>2026-04-19T14:06:49.868Z</time></trkpt><trkpt lat="44.8874954" lon="9.537565"><ele>248.0</ele><time>2026-04-19T14:06:50.861Z</time></trkpt><trkpt lat="44.8875707" lon="9.5376763"><ele>248.0</ele><time>2026-04-19T14:06:51.861Z</time></trkpt><trkpt lat="44.8876562" lon="9.5378135"><ele>251.8</ele><time>2026-04-19T14:06:52.975Z</time></trkpt><trkpt lat="44.8877606" lon="9.5379974"><ele>255.60000000000002</ele><time>2026-04-19T14:06:54.873Z</time></trkpt><trkpt lat="44.8878161" lon="9.5381011"><ele>259.4</ele><time>2026-04-19T14:06:55.935Z</time></trkpt><trkpt lat="44.8878589" lon="9.5381918"><ele>263.2</ele><time>2026-04-19T14:06:56.881Z</time></trkpt><trkpt lat="44.8878975" lon="9.5383107"><ele>267.0</ele><time>2026-04-19T14:06:57.876Z</time></trkpt><trkpt lat="44.8879341" lon="9.538391"><ele>267.0</ele><time>2026-04-19T14:06:58.87Z</time></trkpt><trkpt lat="44.8879751" lon="9.538473"><ele>267.0</ele><time>2026-04-19T14:06:59.858Z</time></trkpt><trkpt lat="44.8880522" lon="9.5385856"><ele>267.0</ele><time>2026-04-19T14:07:01.909Z</time></trkpt><trkpt lat="44.8881343" lon="9.5386293"><ele>267.0</ele><time>2026-04-19T14:07:03.873Z</time></trkpt><trkpt lat="44.8882536" lon="9.538571"><ele>267.0</ele><time>2026-04-19T14:07:05.851Z</time></trkpt><trkpt lat="44.888328" lon="9.5385142"><ele>267.0</ele><time>2026-04-19T14:07:06.888Z</time></trkpt><trkpt lat="44.8883968" lon="9.538454"><ele>267.0</ele><time>2026-04-19T14:07:07.885Z</time></trkpt><trkpt lat="44.8884722" lon="9.5383795"><ele>267.0</ele><time>2026-04-19T14:07:08.952Z</time></trkpt><trkpt lat="44.8885643" lon="9.5382898"><ele>267.0</ele><time>2026-04-19T14:07:09.948Z</time></trkpt><trkpt lat="44.888625" lon="9.5382282"><ele>267.0</ele><time>2026-04-19T14:07:10.865Z</time></trkpt><trkpt lat="44.8886924" lon="9.5381413"><ele>269.3333333333333</ele><time>2026-04-19T14:07:11.951Z</time></trkpt><trkpt lat="44.8887379" lon="9.5380593"><ele>271.6666666666667</ele><time>2026-04-19T14:07:12.892Z</time></trkpt><trkpt lat="44.8887712" lon="9.537963"><ele>274.0</ele><time>2026-04-19T14:07:13.863Z</time></trkpt><trkpt lat="44.8887875" lon="9.5378567"><ele>276.33333333333337</ele><time>2026-04-19T14:07:14.845Z</time></trkpt><trkpt lat="44.8888032" lon="9.5377465"><ele>278.6666666666667</ele><time>2026-04-19T14:07:15.852Z</time></trkpt><trkpt lat="44.8888274" lon="9.537617"><ele>281.0</ele><time>2026-04-19T14:07:16.986Z</time></trkpt><trkpt lat="44.8888499" lon="9.5375155"><ele>281.00000000000006</ele><time>2026-04-19T14:07:17.981Z</time></trkpt><trkpt lat="44.8888726" lon="9.5374268"><ele>281.0</ele><time>2026-04-19T14:07:18.89Z</time></trkpt><trkpt lat="44.8889074" lon="9.5373256"><ele>281.0</ele><time>2026-04-19T14:07:19.862Z</time></trkpt><trkpt lat="44.8889498" lon="9.5372363"><ele>281.0</ele><time>2026-04-19T14:07:20.861Z</time></trkpt><trkpt lat="44.8889958" lon="9.5371595"><ele>281.0</ele><time>2026-04-19T14:07:21.845Z</time></trkpt><trkpt lat="44.8890483" lon="9.5370934"><ele>281.00000000000006</ele><time>2026-04-19T14:07:22.8Z</time></trkpt><trkpt lat="44.8891141" lon="9.53703"><ele>281.0</ele><time>2026-04-19T14:07:23.863Z</time></trkpt><trkpt lat="44.8891952" lon="9.5369814"><ele>282.0</ele><time>2026-04-19T14:07:24.884Z</time></trkpt><trkpt lat="44.889299" lon="9.5369749"><ele>283.0</ele><time>2026-04-19T14:07:25.904Z</time></trkpt><trkpt lat="44.8894107" lon="9.5370093"><ele>284.0</ele><time>2026-04-19T14:07:26.893Z</time></trkpt><trkpt lat="44.8895412" lon="9.5370162"><ele>285.0</ele><time>2026-04-19T14:07:27.925Z</time></trkpt><trkpt lat="44.8896513" lon="9.5370239"><ele>285.0</ele><time>2026-04-19T14:07:28.87Z</time></trkpt><trkpt lat="44.8897332" lon="9.5370271"><ele>285.0</ele><time>2026-04-19T14:07:29.818Z</time></trkpt><trkpt lat="44.8898281" lon="9.5370057"><ele>285.0</ele><time>2026-04-19T14:07:30.886Z</time></trkpt><trkpt lat="44.8899148" lon="9.5369578"><ele>285.0</ele><time>2026-04-19T14:07:31.91Z</time></trkpt><trkpt lat="44.8899991" lon="9.5368629"><ele>285.0</ele><time>2026-04-19T14:07:32.859Z</time></trkpt><trkpt lat="44.8900997" lon="9.536779"><ele>287.4</ele><time>2026-04-19T14:07:33.944Z</time></trkpt><trkpt lat="44.8901938" lon="9.5367233"><ele>289.8</ele><time>2026-04-19T14:07:34.889Z</time></trkpt><trkpt lat="44.8902674" lon="9.5367228"><ele>292.2</ele><time>2026-04-19T14:07:36.005Z</time></trkpt><trkpt lat="44.8903881" lon="9.5367764"><ele>294.6</ele><time>2026-04-19T14:07:37.91Z</time></trkpt><trkpt lat="44.8904565" lon="9.5368446"><ele>297.0</ele><time>2026-04-19T14:07:39.018Z</time></trkpt><trkpt lat="44.8905275" lon="9.5371142"><ele>299.0</ele><time>2026-04-19T14:07:40.938Z</time></trkpt><trkpt lat="44.890553" lon="9.5372591"><ele>301.0</ele><time>2026-04-19T14:07:41.976Z</time></trkpt><trkpt lat="44.8905737" lon="9.5373838"><ele>303.0</ele><time>2026-04-19T14:07:42.971Z</time></trkpt><trkpt lat="44.8906072" lon="9.537473"><ele>305.0</ele><time>2026-04-19T14:07:44.027Z</time></trkpt><trkpt lat="44.8907023" lon="9.5374477"><ele>307.0</ele><time>2026-04-19T14:07:45.914Z</time></trkpt><trkpt lat="44.8907899" lon="9.5373501"><ele>307.0</ele><time>2026-04-19T14:07:46.993Z</time></trkpt><trkpt lat="44.8908781" lon="9.537171"><ele>307.0</ele><time>2026-04-19T14:07:48.983Z</time></trkpt><trkpt lat="44.8909025" lon="9.5370838"><ele>307.0</ele><time>2026-04-19T14:07:50.907Z</time></trkpt><trkpt lat="44.8909223" lon="9.5369824"><ele>307.0</ele><time>2026-04-19T14:07:53.966Z</time></trkpt><trkpt lat="44.8909691" lon="9.5369049"><ele>307.0</ele><time>2026-04-19T14:08:05.087Z</time></trkpt><trkpt lat="44.8910553" lon="9.5369389"><ele>307.2</ele><time>2026-04-19T14:14:25.586Z</time></trkpt><trkpt lat="44.8911382" lon="9.5370081"><ele>307.4</ele><time>2026-04-19T14:14:27.586Z</time></trkpt><trkpt lat="44.8912477" lon="9.537092"><ele>307.6</ele><time>2026-04-19T14:14:29.586Z</time></trkpt><trkpt lat="44.8913108" lon="9.5371282"><ele>307.8</ele><time>2026-04-19T14:14:30.586Z</time></trkpt><trkpt lat="44.891373" lon="9.5371453"><ele>308.0</ele><time>2026-04-19T14:14:31.586Z</time></trkpt><trkpt lat="44.8914904" lon="9.5371312"><ele>308.0</ele><time>2026-04-19T14:14:33.586Z</time></trkpt><trkpt lat="44.8915864" lon="9.5370306"><ele>308.0</ele><time>2026-04-19T14:14:35.586Z</time></trkpt><trkpt lat="44.8916468" lon="9.5368925"><ele>308.0</ele><time>2026-04-19T14:14:37.586Z</time></trkpt><trkpt lat="44.8916936" lon="9.5367427"><ele>308.0</ele><time>2026-04-19T14:14:39.586Z</time></trkpt><trkpt lat="44.8917566" lon="9.53661"><ele>310.2</ele><time>2026-04-19T14:14:41.586Z</time></trkpt><trkpt lat="44.8918541" lon="9.53658"><ele>312.4</ele><time>2026-04-19T14:14:43.586Z</time></trkpt><trkpt lat="44.8919477" lon="9.5366408"><ele>314.59999999999997</ele><time>2026-04-19T14:14:45.586Z</time></trkpt><trkpt lat="44.891995" lon="9.5367089"><ele>316.8</ele><time>2026-04-19T14:14:46.586Z</time></trkpt><trkpt lat="44.8920612" lon="9.5368454"><ele>319.0</ele><time>2026-04-19T14:14:48.586Z</time></trkpt><trkpt lat="44.892128" lon="9.5369843"><ele>321.0</ele><time>2026-04-19T14:14:50.586Z</time></trkpt><trkpt lat="44.8922022" lon="9.5370908"><ele>323.0</ele><time>2026-04-19T14:14:52.586Z</time></trkpt><trkpt lat="44.8923009" lon="9.5371543"><ele>325.0</ele><time>2026-04-19T14:14:54.586Z</time></trkpt><trkpt lat="44.8923674" lon="9.5371609"><ele>327.0</ele><time>2026-04-19T14:14:55.586Z</time></trkpt><trkpt lat="44.8924344" lon="9.5371479"><ele>329.0</ele><time>2026-04-19T14:14:56.586Z</time></trkpt><trkpt lat="44.8925098" lon="9.5371299"><ele>331.0</ele><time>2026-04-19T14:14:57.587Z</time></trkpt><trkpt lat="44.89258" lon="9.5371235"><ele>331.57142857142856</ele><time>2026-04-19T14:14:58.586Z</time></trkpt><trkpt lat="44.8926459" lon="9.5370904"><ele>332.1428571428571</ele><time>2026-04-19T14:14:59.586Z</time></trkpt><trkpt lat="44.8926932" lon="9.5370262"><ele>332.71428571428567</ele><time>2026-04-19T14:15:00.586Z</time></trkpt><trkpt lat="44.8927261" lon="9.5369412"><ele>333.2857142857143</ele><time>2026-04-19T14:15:01.586Z</time></trkpt><trkpt lat="44.8927485" lon="9.5368434"><ele>333.85714285714283</ele><time>2026-04-19T14:15:02.586Z</time></trkpt><trkpt lat="44.8927641" lon="9.5367403"><ele>334.4285714285714</ele><time>2026-04-19T14:15:03.586Z</time></trkpt><trkpt lat="44.8927579" lon="9.5366307"><ele>335.0</ele><time>2026-04-19T14:15:04.586Z</time></trkpt><trkpt lat="44.8927388" lon="9.5365278"><ele>334.99999999999994</ele><time>2026-04-19T14:15:05.586Z</time></trkpt><trkpt lat="44.8927088" lon="9.5364274"><ele>335.0</ele><time>2026-04-19T14:15:06.586Z</time></trkpt><trkpt lat="44.8926773" lon="9.5363346"><ele>335.0</ele><time>2026-04-19T14:15:07.586Z</time></trkpt><trkpt lat="44.8926364" lon="9.5362434"><ele>335.0</ele><time>2026-04-19T14:15:08.586Z</time></trkpt><trkpt lat="44.8926029" lon="9.5361552"><ele>335.0</ele><time>2026-04-19T14:15:09.586Z</time></trkpt><trkpt lat="44.8925741" lon="9.5360591"><ele>334.99999999999994</ele><time>2026-04-19T14:15:10.586Z</time></trkpt><trkpt lat="44.8925454" lon="9.5359658"><ele>335.0</ele><time>2026-04-19T14:15:11.586Z</time></trkpt><trkpt lat="44.8925299" lon="9.5358664"><ele>334.1428571428571</ele><time>2026-04-19T14:15:12.586Z</time></trkpt><trkpt lat="44.8925309" lon="9.5357581"><ele>333.2857142857143</ele><time>2026-04-19T14:15:13.586Z</time></trkpt><trkpt lat="44.8925361" lon="9.5356485"><ele>332.42857142857144</ele><time>2026-04-19T14:15:14.587Z</time></trkpt><trkpt lat="44.8925494" lon="9.53554"><ele>331.57142857142856</ele><time>2026-04-19T14:15:15.586Z</time></trkpt><trkpt lat="44.8925587" lon="9.5354366"><ele>330.7142857142857</ele><time>2026-04-19T14:15:16.586Z</time></trkpt><trkpt lat="44.8925718" lon="9.5353382"><ele>329.85714285714283</ele><time>2026-04-19T14:15:17.586Z</time></trkpt><trkpt lat="44.8925849" lon="9.5352388"><ele>329.0</ele><time>2026-04-19T14:15:18.587Z</time></trkpt><trkpt lat="44.8926008" lon="9.5351478"><ele>334.0</ele><time>2026-04-19T14:15:19.586Z</time></trkpt><trkpt lat="44.8926259" lon="9.5349738"><ele>339.0</ele><time>2026-04-19T14:15:21.586Z</time></trkpt><trkpt lat="44.8926583" lon="9.5348179"><ele>344.0</ele><time>2026-04-19T14:15:23.586Z</time></trkpt><trkpt lat="44.8926937" lon="9.5347378"><ele>349.0</ele><time>2026-04-19T14:15:24.586Z</time></trkpt><trkpt lat="44.8927392" lon="9.5346475"><ele>354.0</ele><time>2026-04-19T14:15:25.586Z</time></trkpt><trkpt lat="44.8927894" lon="9.5345579"><ele>353.8333333333333</ele><time>2026-04-19T14:15:26.586Z</time></trkpt><trkpt lat="44.8928431" lon="9.5344621"><ele>353.6666666666667</ele><time>2026-04-19T14:15:27.586Z</time></trkpt><trkpt lat="44.8928881" lon="9.5343657"><ele>353.5</ele><time>2026-04-19T14:15:28.586Z</time></trkpt><trkpt lat="44.8929294" lon="9.5342652"><ele>353.33333333333337</ele><time>2026-04-19T14:15:29.586Z</time></trkpt><trkpt lat="44.8929745" lon="9.5341517"><ele>353.1666666666667</ele><time>2026-04-19T14:15:30.586Z</time></trkpt><trkpt lat="44.893019" lon="9.5340264"><ele>353.0</ele><time>2026-04-19T14:15:31.586Z</time></trkpt><trkpt lat="44.8930625" lon="9.533905"><ele>353.0</ele><time>2026-04-19T14:15:32.586Z</time></trkpt><trkpt lat="44.8931057" lon="9.5337859"><ele>353.0</ele><time>2026-04-19T14:15:33.587Z</time></trkpt><trkpt lat="44.8931452" lon="9.5336734"><ele>353.0</ele><time>2026-04-19T14:15:34.587Z</time></trkpt><trkpt lat="44.893179" lon="9.5335628"><ele>353.0</ele><time>2026-04-19T14:15:35.586Z</time></trkpt><trkpt lat="44.8932056" lon="9.5334563"><ele>353.0</ele><time>2026-04-19T14:15:36.587Z</time></trkpt><trkpt lat="44.8932301" lon="9.5333487"><ele>353.0</ele><time>2026-04-19T14:15:37.586Z</time></trkpt><trkpt lat="44.8932494" lon="9.5332454"><ele>352.4</ele><time>2026-04-19T14:15:38.587Z</time></trkpt><trkpt lat="44.8932839" lon="9.5331014"><ele>351.79999999999995</ele><time>2026-04-19T14:15:40.586Z</time></trkpt><trkpt lat="44.8933734" lon="9.5330567"><ele>351.2</ele><time>2026-04-19T14:15:42.586Z</time></trkpt><trkpt lat="44.8934544" lon="9.5331578"><ele>350.6</ele><time>2026-04-19T14:15:44.586Z</time></trkpt><trkpt lat="44.8934916" lon="9.5333199"><ele>350.0</ele><time>2026-04-19T14:15:46.586Z</time></trkpt><trkpt lat="44.8935373" lon="9.5334769"><ele>353.2857142857143</ele><time>2026-04-19T14:15:48.586Z</time></trkpt><trkpt lat="44.8935741" lon="9.5335505"><ele>356.57142857142856</ele><time>2026-04-19T14:15:49.586Z</time></trkpt><trkpt lat="44.8936124" lon="9.5336212"><ele>359.8571428571429</ele><time>2026-04-19T14:15:50.586Z</time></trkpt><trkpt lat="44.893655" lon="9.5336936"><ele>363.1428571428571</ele><time>2026-04-19T14:15:51.586Z</time></trkpt><trkpt lat="44.8936932" lon="9.5337809"><ele>366.42857142857144</ele><time>2026-04-19T14:15:52.586Z</time></trkpt><trkpt lat="44.8937228" lon="9.5338809"><ele>369.7142857142857</ele><time>2026-04-19T14:15:53.586Z</time></trkpt><trkpt lat="44.8937422" lon="9.5340021"><ele>373.0</ele><time>2026-04-19T14:15:54.586Z</time></trkpt><trkpt lat="44.8937509" lon="9.5341204"><ele>372.8333333333333</ele><time>2026-04-19T14:15:55.586Z</time></trkpt><trkpt lat="44.8937567" lon="9.5342295"><ele>372.66666666666663</ele><time>2026-04-19T14:15:56.586Z</time></trkpt><trkpt lat="44.8937536" lon="9.5343331"><ele>372.5</ele><time>2026-04-19T14:15:57.586Z</time></trkpt><trkpt lat="44.8937498" lon="9.5344439"><ele>372.3333333333333</ele><time>2026-04-19T14:15:58.587Z</time></trkpt><trkpt lat="44.8937503" lon="9.5345704"><ele>372.1666666666667</ele><time>2026-04-19T14:15:59.586Z</time></trkpt><trkpt lat="44.8937618" lon="9.5346777"><ele>372.0</ele><time>2026-04-19T14:16:00.586Z</time></trkpt><trkpt lat="44.8937913" lon="9.5347601"><ele>372.0</ele><time>2026-04-19T14:16:01.586Z</time></trkpt><trkpt lat="44.8939123" lon="9.534803"><ele>372.0</ele><time>2026-04-19T14:16:03.586Z</time></trkpt><trkpt lat="44.8939965" lon="9.5347894"><ele>372.0</ele><time>2026-04-19T14:16:04.586Z</time></trkpt><trkpt lat="44.8940887" lon="9.5347504"><ele>372.0</ele><time>2026-04-19T14:16:05.586Z</time></trkpt><trkpt lat="44.8941957" lon="9.5346755"><ele>372.0</ele><time>2026-04-19T14:16:06.586Z</time></trkpt><trkpt lat="44.8943196" lon="9.5345706"><ele>377.75</ele><time>2026-04-19T14:16:07.586Z</time></trkpt><trkpt lat="44.8944322" lon="9.5344605"><ele>383.5</ele><time>2026-04-19T14:16:08.586Z</time></trkpt><trkpt lat="44.8945333" lon="9.5343803"><ele>389.25</ele><time>2026-04-19T14:16:09.586Z</time></trkpt><trkpt lat="44.8946338" lon="9.5343318"><ele>395.0</ele><time>2026-04-19T14:16:10.586Z</time></trkpt><trkpt lat="44.8947246" lon="9.5343168"><ele>394.99999999999994</ele><time>2026-04-19T14:16:11.587Z</time></trkpt><trkpt lat="44.894802" lon="9.5343349"><ele>395.0</ele><time>2026-04-19T14:16:12.586Z</time></trkpt><trkpt lat="44.8948651" lon="9.5343812"><ele>395.0</ele><time>2026-04-19T14:16:13.586Z</time></trkpt><trkpt lat="44.8949157" lon="9.5344457"><ele>395.0</ele><time>2026-04-19T14:16:14.586Z</time></trkpt><trkpt lat="44.8949619" lon="9.5345319"><ele>394.99999999999994</ele><time>2026-04-19T14:16:15.586Z</time></trkpt><trkpt lat="44.8950025" lon="9.534636"><ele>395.0</ele><time>2026-04-19T14:16:16.586Z</time></trkpt><trkpt lat="44.8950348" lon="9.534738"><ele>393.6</ele><time>2026-04-19T14:16:17.586Z</time></trkpt><trkpt lat="44.8950539" lon="9.5348507"><ele>392.2</ele><time>2026-04-19T14:16:18.586Z</time></trkpt><trkpt lat="44.8950663" lon="9.5349881"><ele>390.79999999999995</ele><time>2026-04-19T14:16:19.586Z</time></trkpt><trkpt lat="44.8950721" lon="9.5351194"><ele>389.4</ele><time>2026-04-19T14:16:20.586Z</time></trkpt><trkpt lat="44.8950712" lon="9.5352534"><ele>388.0</ele><time>2026-04-19T14:16:21.585Z</time></trkpt><trkpt lat="44.8950812" lon="9.5353938"><ele>393.75</ele><time>2026-04-19T14:16:22.585Z</time></trkpt><trkpt lat="44.8950952" lon="9.5355364"><ele>399.5</ele><time>2026-04-19T14:16:23.585Z</time></trkpt><trkpt lat="44.8951143" lon="9.5356977"><ele>405.25</ele><time>2026-04-19T14:16:24.586Z</time></trkpt><trkpt lat="44.8951415" lon="9.53587"><ele>411.0</ele><time>2026-04-19T14:16:25.585Z</time></trkpt><trkpt lat="44.8951715" lon="9.5360546"><ele>409.8</ele><time>2026-04-19T14:16:26.585Z</time></trkpt><trkpt lat="44.895203" lon="9.5362343"><ele>408.6</ele><time>2026-04-19T14:16:27.585Z</time></trkpt><trkpt lat="44.8952318" lon="9.5363927"><ele>407.4</ele><time>2026-04-19T14:16:28.585Z</time></trkpt><trkpt lat="44.8952552" lon="9.5365302"><ele>406.2</ele><time>2026-04-19T14:16:29.585Z</time></trkpt><trkpt lat="44.8952708" lon="9.5366605"><ele>405.0</ele><time>2026-04-19T14:16:30.585Z</time></trkpt><trkpt lat="44.8952877" lon="9.5367845"><ele>405.0</ele><time>2026-04-19T14:16:31.585Z</time></trkpt><trkpt lat="44.8953022" lon="9.5368786"><ele>405.0</ele><time>2026-04-19T14:16:32.585Z</time></trkpt><trkpt lat="44.8953275" lon="9.5369777"><ele>405.0</ele><time>2026-04-19T14:16:33.585Z</time></trkpt><trkpt lat="44.8953759" lon="9.5370645"><ele>405.0</ele><time>2026-04-19T14:16:34.585Z</time></trkpt><trkpt lat="44.8954466" lon="9.5371372"><ele>405.0</ele><time>2026-04-19T14:16:35.585Z</time></trkpt><trkpt lat="44.8955336" lon="9.5371904"><ele>405.0</ele><time>2026-04-19T14:16:36.585Z</time></trkpt><trkpt lat="44.8956339" lon="9.5372349"><ele>406.2</ele><time>2026-04-19T14:16:37.585Z</time></trkpt><trkpt lat="44.8957387" lon="9.5372689"><ele>407.4</ele><time>2026-04-19T14:16:38.585Z</time></trkpt><trkpt lat="44.8958302" lon="9.5372938"><ele>408.6</ele><time>2026-04-19T14:16:39.586Z</time></trkpt><trkpt lat="44.8959046" lon="9.5373245"><ele>409.8</ele><time>2026-04-19T14:16:40.585Z</time></trkpt><trkpt lat="44.8959598" lon="9.5373746"><ele>411.0</ele><time>2026-04-19T14:16:41.585Z</time></trkpt><trkpt lat="44.895989" lon="9.5375535"><ele>411.0</ele><time>2026-04-19T14:16:43.585Z</time></trkpt><trkpt lat="44.8959838" lon="9.5376839"><ele>411.0</ele><time>2026-04-19T14:16:44.585Z</time></trkpt><trkpt lat="44.8959712" lon="9.5378188"><ele>411.0</ele><time>2026-04-19T14:16:45.585Z</time></trkpt><trkpt lat="44.8959445" lon="9.5379379"><ele>411.0</ele><time>2026-04-19T14:16:46.585Z</time></trkpt><trkpt lat="44.8959144" lon="9.5380534"><ele>411.0</ele><time>2026-04-19T14:16:47.585Z</time></trkpt><trkpt lat="44.8958677" lon="9.5381545"><ele>409.5</ele><time>2026-04-19T14:16:48.586Z</time></trkpt><trkpt lat="44.895812" lon="9.538244"><ele>408.0</ele><time>2026-04-19T14:16:49.585Z</time></trkpt><trkpt lat="44.8957561" lon="9.5383311"><ele>406.5</ele><time>2026-04-19T14:16:50.585Z</time></trkpt><trkpt lat="44.8957021" lon="9.5384181"><ele>405.0</ele><time>2026-04-19T14:16:51.585Z</time></trkpt><trkpt lat="44.8956471" lon="9.5384909"><ele>403.5</ele><time>2026-04-19T14:16:52.585Z</time></trkpt><trkpt lat="44.8955753" lon="9.5385491"><ele>402.0</ele><time>2026-04-19T14:16:53.585Z</time></trkpt><trkpt lat="44.8954934" lon="9.5386026"><ele>402.0</ele><time>2026-04-19T14:16:54.585Z</time></trkpt><trkpt lat="44.8954333" lon="9.5386885"><ele>402.0</ele><time>2026-04-19T14:16:55.585Z</time></trkpt><trkpt lat="44.8953856" lon="9.5387745"><ele>402.0</ele><time>2026-04-19T14:16:56.585Z</time></trkpt><trkpt lat="44.8953547" lon="9.5388654"><ele>402.0</ele><time>2026-04-19T14:16:57.585Z</time></trkpt><trkpt lat="44.8953435" lon="9.5389692"><ele>402.0</ele><time>2026-04-19T14:16:58.585Z</time></trkpt><trkpt lat="44.8953556" lon="9.5390785"><ele>402.0</ele><time>2026-04-19T14:16:59.585Z</time></trkpt><trkpt lat="44.8953897" lon="9.5391945"><ele>403.6</ele><time>2026-04-19T14:17:00.585Z</time></trkpt><trkpt lat="44.8954294" lon="9.5393105"><ele>405.20000000000005</ele><time>2026-04-19T14:17:01.585Z</time></trkpt><trkpt lat="44.8954817" lon="9.5394309"><ele>406.8</ele><time>2026-04-19T14:17:02.586Z</time></trkpt><trkpt lat="44.8955407" lon="9.5395595"><ele>408.4</ele><time>2026-04-19T14:17:03.585Z</time></trkpt><trkpt lat="44.8956084" lon="9.5396836"><ele>410.0</ele><time>2026-04-19T14:17:04.585Z</time></trkpt><trkpt lat="44.8956764" lon="9.5397895"><ele>409.99999999999994</ele><time>2026-04-19T14:17:05.585Z</time></trkpt><trkpt lat="44.895738" lon="9.539883"><ele>410.0</ele><time>2026-04-19T14:17:06.585Z</time></trkpt><trkpt lat="44.8957722" lon="9.5399845"><ele>410.0</ele><time>2026-04-19T14:17:07.585Z</time></trkpt><trkpt lat="44.8957799" lon="9.5400881"><ele>410.0</ele><time>2026-04-19T14:17:08.585Z</time></trkpt><trkpt lat="44.8957515" lon="9.5402192"><ele>409.99999999999994</ele><time>2026-04-19T14:17:09.585Z</time></trkpt><trkpt lat="44.8957236" lon="9.5403565"><ele>410.0</ele><time>2026-04-19T14:17:10.588Z</time></trkpt><trkpt lat="44.8956914" lon="9.5405074"><ele>409.75</ele><time>2026-04-19T14:17:11.588Z</time></trkpt><trkpt lat="44.895654" lon="9.5406663"><ele>409.5</ele><time>2026-04-19T14:17:12.588Z</time></trkpt><trkpt lat="44.895613" lon="9.5408299"><ele>409.25</ele><time>2026-04-19T14:17:13.588Z</time></trkpt><trkpt lat="44.8955807" lon="9.5409833"><ele>409.0</ele><time>2026-04-19T14:17:14.588Z</time></trkpt><trkpt lat="44.8955601" lon="9.5411239"><ele>409.6</ele><time>2026-04-19T14:17:15.588Z</time></trkpt><trkpt lat="44.8955514" lon="9.5412646"><ele>410.2</ele><time>2026-04-19T14:17:16.588Z</time></trkpt><trkpt lat="44.8955499" lon="9.5413999"><ele>410.8</ele><time>2026-04-19T14:17:17.588Z</time></trkpt><trkpt lat="44.895536" lon="9.5415331"><ele>411.40000000000003</ele><time>2026-04-19T14:17:18.588Z</time></trkpt><trkpt lat="44.8955012" lon="9.5416525"><ele>412.0</ele><time>2026-04-19T14:17:19.588Z</time></trkpt><trkpt lat="44.8954662" lon="9.5417547"><ele>412.00000000000006</ele><time>2026-04-19T14:17:20.588Z</time></trkpt><trkpt lat="44.8954258" lon="9.5418474"><ele>412.0</ele><time>2026-04-19T14:17:21.588Z</time></trkpt><trkpt lat="44.8953793" lon="9.541934"><ele>412.0</ele><time>2026-04-19T14:17:22.588Z</time></trkpt><trkpt lat="44.895348" lon="9.5420138"><ele>412.0</ele><time>2026-04-19T14:17:23.589Z</time></trkpt><trkpt lat="44.8953537" lon="9.5421762"><ele>412.00000000000006</ele><time>2026-04-19T14:17:25.588Z</time></trkpt><trkpt lat="44.8953937" lon="9.542257"><ele>412.0</ele><time>2026-04-19T14:17:26.588Z</time></trkpt><trkpt lat="44.8954467" lon="9.5423228"><ele>413.50000000000006</ele><time>2026-04-19T14:17:27.588Z</time></trkpt><trkpt lat="44.8955069" lon="9.5423595"><ele>415.0</ele><time>2026-04-19T14:17:28.588Z</time></trkpt><trkpt lat="44.8955744" lon="9.5424015"><ele>416.5</ele><time>2026-04-19T14:17:29.588Z</time></trkpt><trkpt lat="44.8956509" lon="9.5424715"><ele>418.0</ele><time>2026-04-19T14:17:30.589Z</time></trkpt><trkpt lat="44.8957342" lon="9.5425557"><ele>419.50000000000006</ele><time>2026-04-19T14:17:31.588Z</time></trkpt><trkpt lat="44.8958145" lon="9.5426397"><ele>421.0</ele><time>2026-04-19T14:17:32.588Z</time></trkpt><trkpt lat="44.8958973" lon="9.5426983"><ele>422.83333333333337</ele><time>2026-04-19T14:17:33.588Z</time></trkpt><trkpt lat="44.8959782" lon="9.5427337"><ele>424.6666666666667</ele><time>2026-04-19T14:17:34.588Z</time></trkpt><trkpt lat="44.8960644" lon="9.5427514"><ele>426.5</ele><time>2026-04-19T14:17:35.588Z</time></trkpt><trkpt lat="44.8961547" lon="9.5427533"><ele>428.33333333333337</ele><time>2026-04-19T14:17:36.588Z</time></trkpt><trkpt lat="44.8962462" lon="9.5427644"><ele>430.1666666666667</ele><time>2026-04-19T14:17:37.588Z</time></trkpt><trkpt lat="44.8963404" lon="9.5427569"><ele>432.0</ele><time>2026-04-19T14:17:38.588Z</time></trkpt><trkpt lat="44.8964329" lon="9.5427265"><ele>432.0</ele><time>2026-04-19T14:17:39.588Z</time></trkpt><trkpt lat="44.8965158" lon="9.5426955"><ele>432.0</ele><time>2026-04-19T14:17:40.588Z</time></trkpt><trkpt lat="44.8966008" lon="9.5426657"><ele>432.0</ele><time>2026-04-19T14:17:41.588Z</time></trkpt><trkpt lat="44.8966825" lon="9.5426668"><ele>432.0</ele><time>2026-04-19T14:17:42.588Z</time></trkpt><trkpt lat="44.8967665" lon="9.542699"><ele>432.0</ele><time>2026-04-19T14:17:43.588Z</time></trkpt><trkpt lat="44.8968484" lon="9.5427331"><ele>432.0</ele><time>2026-04-19T14:17:44.588Z</time></trkpt><trkpt lat="44.8969452" lon="9.5427647"><ele>433.8</ele><time>2026-04-19T14:17:45.588Z</time></trkpt><trkpt lat="44.8970488" lon="9.5428041"><ele>435.6</ele><time>2026-04-19T14:17:46.588Z</time></trkpt><trkpt lat="44.8971539" lon="9.5428344"><ele>437.40000000000003</ele><time>2026-04-19T14:17:47.588Z</time></trkpt><trkpt lat="44.897251" lon="9.5428557"><ele>439.20000000000005</ele><time>2026-04-19T14:17:48.588Z</time></trkpt><trkpt lat="44.8973432" lon="9.5428855"><ele>441.0</ele><time>2026-04-19T14:17:49.588Z</time></trkpt><trkpt lat="44.8974352" lon="9.5429209"><ele>443.0</ele><time>2026-04-19T14:17:50.588Z</time></trkpt><trkpt lat="44.8975291" lon="9.5429581"><ele>445.0</ele><time>2026-04-19T14:17:51.588Z</time></trkpt><trkpt lat="44.8976221" lon="9.5429831"><ele>447.0</ele><time>2026-04-19T14:17:52.588Z</time></trkpt><trkpt lat="44.8977132" lon="9.5429999"><ele>449.0</ele><time>2026-04-19T14:17:53.588Z</time></trkpt><trkpt lat="44.8977998" lon="9.5429993"><ele>451.0</ele><time>2026-04-19T14:17:54.588Z</time></trkpt><trkpt lat="44.8978883" lon="9.5429848"><ele>452.0</ele><time>2026-04-19T14:17:55.588Z</time></trkpt><trkpt lat="44.8979871" lon="9.5429574"><ele>453.0</ele><time>2026-04-19T14:17:56.588Z</time></trkpt><trkpt lat="44.8980786" lon="9.5429248"><ele>454.0</ele><time>2026-04-19T14:17:57.588Z</time></trkpt><trkpt lat="44.898169" lon="9.5428821"><ele>455.0</ele><time>2026-04-19T14:17:58.588Z</time></trkpt><trkpt lat="44.8982605" lon="9.5428421"><ele>456.0</ele><time>2026-04-19T14:17:59.588Z</time></trkpt><trkpt lat="44.8983502" lon="9.5427916"><ele>458.5</ele><time>2026-04-19T14:18:00.588Z</time></trkpt><trkpt lat="44.8984287" lon="9.5427337"><ele>461.0</ele><time>2026-04-19T14:18:01.588Z</time></trkpt><trkpt lat="44.8984895" lon="9.5426603"><ele>463.5</ele><time>2026-04-19T14:18:02.588Z</time></trkpt><trkpt lat="44.8985205" lon="9.5425799"><ele>466.0</ele><time>2026-04-19T14:18:03.588Z</time></trkpt><trkpt lat="44.8985582" lon="9.542427"><ele>468.5</ele><time>2026-04-19T14:18:05.588Z</time></trkpt><trkpt lat="44.8986096" lon="9.5423202"><ele>471.0</ele><time>2026-04-19T14:18:07.588Z</time></trkpt><trkpt lat="44.8987073" lon="9.542345"><ele>471.0</ele><time>2026-04-19T14:18:09.588Z</time></trkpt><trkpt lat="44.8987736" lon="9.5424581"><ele>471.0</ele><time>2026-04-19T14:18:11.588Z</time></trkpt><trkpt lat="44.8988172" lon="9.5426137"><ele>471.0</ele><time>2026-04-19T14:18:13.588Z</time></trkpt><trkpt lat="44.8988491" lon="9.5427129"><ele>471.0</ele><time>2026-04-19T14:18:14.588Z</time></trkpt><trkpt lat="44.8988819" lon="9.5428073"><ele>471.0</ele><time>2026-04-19T14:18:15.588Z</time></trkpt><trkpt lat="44.8989104" lon="9.5429067"><ele>471.28571428571433</ele><time>2026-04-19T14:18:16.588Z</time></trkpt><trkpt lat="44.8989262" lon="9.5430041"><ele>471.57142857142856</ele><time>2026-04-19T14:18:17.588Z</time></trkpt><trkpt lat="44.8989386" lon="9.5431131"><ele>471.8571428571429</ele><time>2026-04-19T14:18:18.588Z</time></trkpt><trkpt lat="44.8989612" lon="9.5432261"><ele>472.14285714285717</ele><time>2026-04-19T14:18:19.588Z</time></trkpt><trkpt lat="44.8989881" lon="9.543323"><ele>472.42857142857144</ele><time>2026-04-19T14:18:20.589Z</time></trkpt><trkpt lat="44.8990039" lon="9.5434179"><ele>472.7142857142857</ele><time>2026-04-19T14:18:21.588Z</time></trkpt><trkpt lat="44.8990092" lon="9.5435089"><ele>473.0</ele><time>2026-04-19T14:18:22.588Z</time></trkpt><trkpt lat="44.8989962" lon="9.5436041"><ele>472.99999999999994</ele><time>2026-04-19T14:18:23.588Z</time></trkpt><trkpt lat="44.8989906" lon="9.543702"><ele>473.0</ele><time>2026-04-19T14:18:24.588Z</time></trkpt><trkpt lat="44.8989909" lon="9.5438034"><ele>473.0</ele><time>2026-04-19T14:18:25.589Z</time></trkpt><trkpt lat="44.8989948" lon="9.543901"><ele>473.0</ele><time>2026-04-19T14:18:26.588Z</time></trkpt><trkpt lat="44.8990036" lon="9.5439965"><ele>472.99999999999994</ele><time>2026-04-19T14:18:27.588Z</time></trkpt><trkpt lat="44.8990149" lon="9.5440851"><ele>473.0</ele><time>2026-04-19T14:18:28.588Z</time></trkpt><trkpt lat="44.8990338" lon="9.5442539"><ele>473.49999999999994</ele><time>2026-04-19T14:18:30.588Z</time></trkpt><trkpt lat="44.899048" lon="9.5443406"><ele>474.0</ele><time>2026-04-19T14:18:31.588Z</time></trkpt><trkpt lat="44.8991277" lon="9.544478"><ele>474.5</ele><time>2026-04-19T14:18:33.588Z</time></trkpt><trkpt lat="44.8992158" lon="9.5445498"><ele>475.0</ele><time>2026-04-19T14:18:35.588Z</time></trkpt><trkpt lat="44.899293" lon="9.5445617"><ele>475.49999999999994</ele><time>2026-04-19T14:18:51.587Z</time></trkpt><trkpt lat="44.8992978" lon="9.5444492"><ele>476.0</ele><time>2026-04-19T14:18:55.588Z</time></trkpt><trkpt lat="44.8992906" lon="9.5443457"><ele>478.16666666666663</ele><time>2026-04-19T14:18:57.587Z</time></trkpt><trkpt lat="44.8993497" lon="9.5442553"><ele>480.3333333333333</ele><time>2026-04-19T14:19:00.587Z</time></trkpt><trkpt lat="44.8994356" lon="9.5442555"><ele>482.5</ele><time>2026-04-19T14:19:02.587Z</time></trkpt><trkpt lat="44.899549" lon="9.5442853"><ele>484.66666666666663</ele><time>2026-04-19T14:19:04.587Z</time></trkpt><trkpt lat="44.8996162" lon="9.5443027"><ele>486.8333333333333</ele><time>2026-04-19T14:19:05.587Z</time></trkpt><trkpt lat="44.8996846" lon="9.5443136"><ele>489.0</ele><time>2026-04-19T14:19:06.587Z</time></trkpt><trkpt lat="44.8997572" lon="9.5443137"><ele>489.0</ele><time>2026-04-19T14:19:07.587Z</time></trkpt><trkpt lat="44.8998321" lon="9.5442992"><ele>489.0</ele><time>2026-04-19T14:19:08.587Z</time></trkpt><trkpt lat="44.8999189" lon="9.5442678"><ele>489.0</ele><time>2026-04-19T14:19:09.587Z</time></trkpt><trkpt lat="44.9000088" lon="9.5442156"><ele>489.0</ele><time>2026-04-19T14:19:10.587Z</time></trkpt><trkpt lat="44.9001" lon="9.5441468"><ele>489.0</ele><time>2026-04-19T14:19:11.587Z</time></trkpt><trkpt lat="44.9001921" lon="9.5440758"><ele>490.4</ele><time>2026-04-19T14:19:12.587Z</time></trkpt><trkpt lat="44.9002955" lon="9.5440076"><ele>491.79999999999995</ele><time>2026-04-19T14:19:13.587Z</time></trkpt><trkpt lat="44.9003987" lon="9.5439539"><ele>493.20000000000005</ele><time>2026-04-19T14:19:14.587Z</time></trkpt><trkpt lat="44.9004964" lon="9.543909"><ele>494.6</ele><time>2026-04-19T14:19:15.587Z</time></trkpt><trkpt lat="44.9005841" lon="9.5438691"><ele>496.0</ele><time>2026-04-19T14:19:16.587Z</time></trkpt><trkpt lat="44.9006587" lon="9.543832"><ele>496.0</ele><time>2026-04-19T14:19:17.587Z</time></trkpt><trkpt lat="44.9007255" lon="9.5437791"><ele>496.00000000000006</ele><time>2026-04-19T14:19:18.587Z</time></trkpt><trkpt lat="44.9007778" lon="9.5437119"><ele>496.0</ele><time>2026-04-19T14:19:19.587Z</time></trkpt><trkpt lat="44.9008222" lon="9.5436329"><ele>496.0</ele><time>2026-04-19T14:19:20.587Z</time></trkpt><trkpt lat="44.9008538" lon="9.5435431"><ele>496.00000000000006</ele><time>2026-04-19T14:19:21.587Z</time></trkpt><trkpt lat="44.900872" lon="9.5434507"><ele>496.0</ele><time>2026-04-19T14:19:22.587Z</time></trkpt><trkpt lat="44.9008799" lon="9.5433495"><ele>496.0</ele><time>2026-04-19T14:19:23.587Z</time></trkpt><trkpt lat="44.9008824" lon="9.543243"><ele>496.1666666666667</ele><time>2026-04-19T14:19:24.587Z</time></trkpt><trkpt lat="44.9008762" lon="9.5431313"><ele>496.33333333333337</ele><time>2026-04-19T14:19:25.587Z</time></trkpt><trkpt lat="44.9008635" lon="9.5430279"><ele>496.5</ele><time>2026-04-19T14:19:26.587Z</time></trkpt><trkpt lat="44.9008428" lon="9.5429353"><ele>496.66666666666663</ele><time>2026-04-19T14:19:27.587Z</time></trkpt><trkpt lat="44.9008096" lon="9.5428565"><ele>496.8333333333333</ele><time>2026-04-19T14:19:28.587Z</time></trkpt><trkpt lat="44.9007657" lon="9.5427873"><ele>497.0</ele><time>2026-04-19T14:19:29.587Z</time></trkpt><trkpt lat="44.9006796" lon="9.5426968"><ele>495.8</ele><time>2026-04-19T14:19:31.587Z</time></trkpt><trkpt lat="44.9006035" lon="9.5426357"><ele>494.6</ele><time>2026-04-19T14:19:33.587Z</time></trkpt><trkpt lat="44.9005522" lon="9.5425558"><ele>493.40000000000003</ele><time>2026-04-19T14:19:35.588Z</time></trkpt><trkpt lat="44.9005501" lon="9.5424276"><ele>492.20000000000005</ele><time>2026-04-19T14:19:37.587Z</time></trkpt><trkpt lat="44.9005954" lon="9.542256"><ele>491.0</ele><time>2026-04-19T14:19:39.587Z</time></trkpt><trkpt lat="44.9006221" lon="9.5421524"><ele>489.49999999999994</ele><time>2026-04-19T14:19:40.588Z</time></trkpt><trkpt lat="44.9006492" lon="9.5420393"><ele>488.0</ele><time>2026-04-19T14:19:41.587Z</time></trkpt><trkpt lat="44.9006761" lon="9.5419225"><ele>486.5</ele><time>2026-04-19T14:19:42.588Z</time></trkpt><trkpt lat="44.9007027" lon="9.5418137"><ele>485.0</ele><time>2026-04-19T14:19:43.587Z</time></trkpt><trkpt lat="44.9007292" lon="9.5416995"><ele>483.49999999999994</ele><time>2026-04-19T14:19:44.587Z</time></trkpt><trkpt lat="44.900763" lon="9.541573"><ele>482.0</ele><time>2026-04-19T14:19:45.587Z</time></trkpt><trkpt lat="44.9008023" lon="9.5414341"><ele>482.0</ele><time>2026-04-19T14:19:46.587Z</time></trkpt><trkpt lat="44.9008424" lon="9.5412929"><ele>482.00000000000006</ele><time>2026-04-19T14:19:47.587Z</time></trkpt><trkpt lat="44.9008793" lon="9.5411493"><ele>482.00000000000006</ele><time>2026-04-19T14:19:48.587Z</time></trkpt><trkpt lat="44.9009146" lon="9.5409983"><ele>482.0</ele><time>2026-04-19T14:19:49.587Z</time></trkpt><trkpt lat="44.9009508" lon="9.5408554"><ele>482.0</ele><time>2026-04-19T14:19:50.587Z</time></trkpt><trkpt lat="44.9009845" lon="9.5407258"><ele>481.6</ele><time>2026-04-19T14:19:51.587Z</time></trkpt><trkpt lat="44.9010046" lon="9.5406147"><ele>481.20000000000005</ele><time>2026-04-19T14:19:52.587Z</time></trkpt><trkpt lat="44.9010103" lon="9.5405243"><ele>480.8</ele><time>2026-04-19T14:19:53.587Z</time></trkpt><trkpt lat="44.9009884" lon="9.5403772"><ele>480.4</ele><time>2026-04-19T14:19:55.587Z</time></trkpt><trkpt lat="44.9009091" lon="9.5402347"><ele>480.0</ele><time>2026-04-19T14:19:57.587Z</time></trkpt><trkpt lat="44.9008586" lon="9.5401451"><ele>480.0</ele><time>2026-04-19T14:19:58.587Z</time></trkpt><trkpt lat="44.9008415" lon="9.5400422"><ele>480.0</ele><time>2026-04-19T14:19:59.587Z</time></trkpt><trkpt lat="44.9008393" lon="9.5399332"><ele>480.0</ele><time>2026-04-19T14:20:00.587Z</time></trkpt><trkpt lat="44.9008436" lon="9.5398124"><ele>480.0</ele><time>2026-04-19T14:20:01.587Z</time></trkpt><trkpt lat="44.9008529" lon="9.5396832"><ele>480.0</ele><time>2026-04-19T14:20:02.587Z</time></trkpt><trkpt lat="44.9008511" lon="9.5395647"><ele>480.0</ele><time>2026-04-19T14:20:03.587Z</time></trkpt><trkpt lat="44.9008497" lon="9.5394608"><ele>480.57142857142856</ele><time>2026-04-19T14:20:04.587Z</time></trkpt><trkpt lat="44.9008483" lon="9.5393597"><ele>481.1428571428571</ele><time>2026-04-19T14:20:05.587Z</time></trkpt><trkpt lat="44.9008439" lon="9.5392622"><ele>481.71428571428567</ele><time>2026-04-19T14:20:06.588Z</time></trkpt><trkpt lat="44.9008332" lon="9.5391666"><ele>482.2857142857143</ele><time>2026-04-19T14:20:07.588Z</time></trkpt><trkpt lat="44.9007951" lon="9.5390799"><ele>482.8571428571428</ele><time>2026-04-19T14:20:08.587Z</time></trkpt><trkpt lat="44.9007335" lon="9.5390069"><ele>483.4285714285714</ele><time>2026-04-19T14:20:09.587Z</time></trkpt><trkpt lat="44.9006676" lon="9.538948"><ele>484.0</ele><time>2026-04-19T14:20:10.587Z</time></trkpt><trkpt lat="44.90061" lon="9.5388776"><ele>484.00000000000006</ele><time>2026-04-19T14:20:11.588Z</time></trkpt><trkpt lat="44.9005655" lon="9.5387898"><ele>484.0</ele><time>2026-04-19T14:20:12.587Z</time></trkpt><trkpt lat="44.9005449" lon="9.538682"><ele>484.0</ele><time>2026-04-19T14:20:13.587Z</time></trkpt><trkpt lat="44.9005376" lon="9.5385626"><ele>484.0</ele><time>2026-04-19T14:20:14.587Z</time></trkpt><trkpt lat="44.9005414" lon="9.5384298"><ele>484.00000000000006</ele><time>2026-04-19T14:20:15.587Z</time></trkpt><trkpt lat="44.9005416" lon="9.5382849"><ele>484.0</ele><time>2026-04-19T14:20:16.587Z</time></trkpt><trkpt lat="44.9005392" lon="9.5381258"><ele>486.75</ele><time>2026-04-19T14:20:17.587Z</time></trkpt><trkpt lat="44.9005297" lon="9.5379531"><ele>489.5</ele><time>2026-04-19T14:20:18.587Z</time></trkpt><trkpt lat="44.900523" lon="9.5377773"><ele>492.25</ele><time>2026-04-19T14:20:19.587Z</time></trkpt><trkpt lat="44.9005088" lon="9.5376162"><ele>495.0</ele><time>2026-04-19T14:20:20.587Z</time></trkpt><trkpt lat="44.9004906" lon="9.5374702"><ele>496.6666666666667</ele><time>2026-04-19T14:20:21.587Z</time></trkpt><trkpt lat="44.9004832" lon="9.5373303"><ele>498.33333333333337</ele><time>2026-04-19T14:20:22.587Z</time></trkpt><trkpt lat="44.9004911" lon="9.5372086"><ele>500.0</ele><time>2026-04-19T14:20:23.587Z</time></trkpt><trkpt lat="44.9005072" lon="9.537093"><ele>501.6666666666667</ele><time>2026-04-19T14:20:24.587Z</time></trkpt><trkpt lat="44.9005382" lon="9.5369447"><ele>503.33333333333337</ele><time>2026-04-19T14:20:26.587Z</time></trkpt><trkpt lat="44.9005558" lon="9.5368513"><ele>505.0</ele><time>2026-04-19T14:20:29.587Z</time></trkpt><trkpt lat="44.9005996" lon="9.5367463"><ele>505.0</ele><time>2026-04-19T14:20:32.587Z</time></trkpt><trkpt lat="44.9006791" lon="9.536594"><ele>505.0</ele><time>2026-04-19T14:20:34.587Z</time></trkpt><trkpt lat="44.9007244" lon="9.5364911"><ele>505.0</ele><time>2026-04-19T14:20:35.588Z</time></trkpt><trkpt lat="44.9007688" lon="9.5363828"><ele>505.0</ele><time>2026-04-19T14:20:36.587Z</time></trkpt><trkpt lat="44.9008151" lon="9.5362695"><ele>505.0</ele><time>2026-04-19T14:20:37.587Z</time></trkpt><trkpt lat="44.9008583" lon="9.5361449"><ele>504.2</ele><time>2026-04-19T14:20:38.587Z</time></trkpt><trkpt lat="44.9008968" lon="9.5360159"><ele>503.4</ele><time>2026-04-19T14:20:39.587Z</time></trkpt><trkpt lat="44.9009263" lon="9.5358863"><ele>502.6</ele><time>2026-04-19T14:20:40.587Z</time></trkpt><trkpt lat="44.9009573" lon="9.5357644"><ele>501.8</ele><time>2026-04-19T14:20:41.587Z</time></trkpt><trkpt lat="44.9009883" lon="9.5356509"><ele>501.0</ele><time>2026-04-19T14:20:42.587Z</time></trkpt><trkpt lat="44.9010116" lon="9.5355322"><ele>503.4</ele><time>2026-04-19T14:20:43.587Z</time></trkpt><trkpt lat="44.9010208" lon="9.5354049"><ele>505.8</ele><time>2026-04-19T14:20:44.587Z</time></trkpt><trkpt lat="44.9010265" lon="9.5352724"><ele>508.19999999999993</ele><time>2026-04-19T14:20:45.587Z</time></trkpt><trkpt lat="44.9010316" lon="9.5351399"><ele>510.59999999999997</ele><time>2026-04-19T14:20:46.587Z</time></trkpt><trkpt lat="44.901036" lon="9.5350122"><ele>513.0</ele><time>2026-04-19T14:20:47.587Z</time></trkpt><trkpt lat="44.9010404" lon="9.5348827"><ele>513.1666666666666</ele><time>2026-04-19T14:20:48.587Z</time></trkpt><trkpt lat="44.9010397" lon="9.5347536"><ele>513.3333333333334</ele><time>2026-04-19T14:20:49.587Z</time></trkpt><trkpt lat="44.9010371" lon="9.5346226"><ele>513.5</ele><time>2026-04-19T14:20:50.587Z</time></trkpt><trkpt lat="44.901031" lon="9.5344931"><ele>513.6666666666667</ele><time>2026-04-19T14:20:51.587Z</time></trkpt><trkpt lat="44.901025" lon="9.5343705"><ele>513.8333333333334</ele><time>2026-04-19T14:20:52.587Z</time></trkpt><trkpt lat="44.9010185" lon="9.5342512"><ele>514.0</ele><time>2026-04-19T14:20:53.587Z</time></trkpt><trkpt lat="44.9010107" lon="9.5341265"><ele>513.6</ele><time>2026-04-19T14:20:54.587Z</time></trkpt><trkpt lat="44.9010063" lon="9.5340012"><ele>513.2</ele><time>2026-04-19T14:20:55.587Z</time></trkpt><trkpt lat="44.9010095" lon="9.5338712"><ele>512.8000000000001</ele><time>2026-04-19T14:20:56.587Z</time></trkpt><trkpt lat="44.901023" lon="9.5337317"><ele>512.4</ele><time>2026-04-19T14:20:57.587Z</time></trkpt><trkpt lat="44.901041" lon="9.5335788"><ele>512.0</ele><time>2026-04-19T14:20:58.588Z</time></trkpt><trkpt lat="44.9010634" lon="9.5334245"><ele>511.20000000000005</ele><time>2026-04-19T14:20:59.587Z</time></trkpt><trkpt lat="44.9010877" lon="9.5332731"><ele>510.40000000000003</ele><time>2026-04-19T14:21:00.587Z</time></trkpt><trkpt lat="44.9011159" lon="9.5331234"><ele>509.59999999999997</ele><time>2026-04-19T14:21:01.587Z</time></trkpt><trkpt lat="44.9011461" lon="9.5329769"><ele>508.79999999999995</ele><time>2026-04-19T14:21:02.587Z</time></trkpt><trkpt lat="44.9011872" lon="9.5328309"><ele>508.0</ele><time>2026-04-19T14:21:03.587Z</time></trkpt><trkpt lat="44.9012319" lon="9.5326888"><ele>508.0</ele><time>2026-04-19T14:21:04.587Z</time></trkpt><trkpt lat="44.9012693" lon="9.5325507"><ele>507.99999999999994</ele><time>2026-04-19T14:21:05.587Z</time></trkpt><trkpt lat="44.9012965" lon="9.5324186"><ele>507.99999999999994</ele><time>2026-04-19T14:21:06.587Z</time></trkpt><trkpt lat="44.9013157" lon="9.5322833"><ele>508.0</ele><time>2026-04-19T14:21:07.587Z</time></trkpt><trkpt lat="44.9013241" lon="9.5321389"><ele>508.0</ele><time>2026-04-19T14:21:08.587Z</time></trkpt><trkpt lat="44.901327" lon="9.5319969"><ele>507.83333333333337</ele><time>2026-04-19T14:21:09.587Z</time></trkpt><trkpt lat="44.9013263" lon="9.5318659"><ele>507.6666666666667</ele><time>2026-04-19T14:21:10.587Z</time></trkpt><trkpt lat="44.9013262" lon="9.5317461"><ele>507.5</ele><time>2026-04-19T14:21:11.587Z</time></trkpt><trkpt lat="44.9013272" lon="9.531636"><ele>507.33333333333337</ele><time>2026-04-19T14:21:12.587Z</time></trkpt><trkpt lat="44.9013361" lon="9.531532"><ele>507.1666666666667</ele><time>2026-04-19T14:21:13.587Z</time></trkpt><trkpt lat="44.9013645" lon="9.531436"><ele>507.0</ele><time>2026-04-19T14:21:14.587Z</time></trkpt><trkpt lat="44.9014105" lon="9.5313368"><ele>507.0</ele><time>2026-04-19T14:21:15.587Z</time></trkpt><trkpt lat="44.9014637" lon="9.5312334"><ele>507.00000000000006</ele><time>2026-04-19T14:21:16.587Z</time></trkpt><trkpt lat="44.901523" lon="9.5311304"><ele>507.00000000000006</ele><time>2026-04-19T14:21:17.587Z</time></trkpt><trkpt lat="44.9015786" lon="9.5310245"><ele>507.0</ele><time>2026-04-19T14:21:18.587Z</time></trkpt><trkpt lat="44.9016194" lon="9.5309029"><ele>507.0</ele><time>2026-04-19T14:21:19.587Z</time></trkpt><trkpt lat="44.901642" lon="9.530769"><ele>506.40000000000003</ele><time>2026-04-19T14:21:20.587Z</time></trkpt><trkpt lat="44.9016556" lon="9.5306267"><ele>505.80000000000007</ele><time>2026-04-19T14:21:21.587Z</time></trkpt><trkpt lat="44.9016661" lon="9.5304806"><ele>505.2</ele><time>2026-04-19T14:21:22.587Z</time></trkpt><trkpt lat="44.9016711" lon="9.5303349"><ele>504.6</ele><time>2026-04-19T14:21:23.587Z</time></trkpt><trkpt lat="44.901662" lon="9.5301854"><ele>504.0</ele><time>2026-04-19T14:21:24.587Z</time></trkpt><trkpt lat="44.901645" lon="9.5300318"><ele>503.6</ele><time>2026-04-19T14:21:25.587Z</time></trkpt><trkpt lat="44.9016241" lon="9.5298756"><ele>503.2</ele><time>2026-04-19T14:21:26.587Z</time></trkpt><trkpt lat="44.9015921" lon="9.529734"><ele>502.80000000000007</ele><time>2026-04-19T14:21:27.587Z</time></trkpt><trkpt lat="44.9015609" lon="9.5296045"><ele>502.40000000000003</ele><time>2026-04-19T14:21:28.588Z</time></trkpt><trkpt lat="44.9015304" lon="9.5294767"><ele>502.0</ele><time>2026-04-19T14:21:29.587Z</time></trkpt><trkpt lat="44.901498" lon="9.5293459"><ele>502.0</ele><time>2026-04-19T14:21:30.587Z</time></trkpt><trkpt lat="44.9014716" lon="9.529211"><ele>502.00000000000006</ele><time>2026-04-19T14:21:31.587Z</time></trkpt><trkpt lat="44.9014521" lon="9.5290721"><ele>502.00000000000006</ele><time>2026-04-19T14:21:32.588Z</time></trkpt><trkpt lat="44.9014281" lon="9.5289375"><ele>502.0</ele><time>2026-04-19T14:21:33.587Z</time></trkpt><trkpt lat="44.9013978" lon="9.5288088"><ele>502.0</ele><time>2026-04-19T14:21:34.587Z</time></trkpt><trkpt lat="44.9013625" lon="9.5286805"><ele>502.20000000000005</ele><time>2026-04-19T14:21:35.587Z</time></trkpt><trkpt lat="44.9013345" lon="9.5285467"><ele>502.40000000000003</ele><time>2026-04-19T14:21:36.587Z</time></trkpt><trkpt lat="44.9013134" lon="9.5284151"><ele>502.59999999999997</ele><time>2026-04-19T14:21:37.587Z</time></trkpt><trkpt lat="44.9013081" lon="9.5282856"><ele>502.79999999999995</ele><time>2026-04-19T14:21:38.587Z</time></trkpt><trkpt lat="44.9013193" lon="9.5281617"><ele>503.0</ele><time>2026-04-19T14:21:39.587Z</time></trkpt><trkpt lat="44.9013348" lon="9.5280502"><ele>502.99999999999994</ele><time>2026-04-19T14:21:40.587Z</time></trkpt><trkpt lat="44.90135" lon="9.5279427"><ele>503.0</ele><time>2026-04-19T14:21:41.587Z</time></trkpt><trkpt lat="44.9013647" lon="9.5278357"><ele>503.0</ele><time>2026-04-19T14:21:42.587Z</time></trkpt><trkpt lat="44.9013919" lon="9.52773"><ele>503.0</ele><time>2026-04-19T14:21:43.588Z</time></trkpt><trkpt lat="44.9014326" lon="9.527639"><ele>502.99999999999994</ele><time>2026-04-19T14:21:44.587Z</time></trkpt><trkpt lat="44.9014826" lon="9.5275511"><ele>503.0</ele><time>2026-04-19T14:21:45.587Z</time></trkpt><trkpt lat="44.9015416" lon="9.527471"><ele>503.3333333333333</ele><time>2026-04-19T14:21:46.588Z</time></trkpt><trkpt lat="44.9016117" lon="9.5273831"><ele>503.66666666666663</ele><time>2026-04-19T14:21:47.587Z</time></trkpt><trkpt lat="44.9016779" lon="9.5273085"><ele>504.0</ele><time>2026-04-19T14:21:48.587Z</time></trkpt><trkpt lat="44.9017384" lon="9.5272364"><ele>504.33333333333337</ele><time>2026-04-19T14:21:49.587Z</time></trkpt><trkpt lat="44.9017942" lon="9.5271704"><ele>504.6666666666667</ele><time>2026-04-19T14:21:50.587Z</time></trkpt><trkpt lat="44.9018931" lon="9.527094"><ele>505.0</ele><time>2026-04-19T14:21:52.587Z</time></trkpt><trkpt lat="44.9019985" lon="9.5270369"><ele>509.5</ele><time>2026-04-19T14:21:54.587Z</time></trkpt><trkpt lat="44.9021124" lon="9.5269869"><ele>514.0</ele><time>2026-04-19T14:21:56.587Z</time></trkpt><trkpt lat="44.902233" lon="9.5269541"><ele>518.5</ele><time>2026-04-19T14:21:58.587Z</time></trkpt><trkpt lat="44.9023447" lon="9.5269184"><ele>523.0</ele><time>2026-04-19T14:22:00.587Z</time></trkpt><trkpt lat="44.9024459" lon="9.5268484"><ele>523.0</ele><time>2026-04-19T14:22:02.587Z</time></trkpt><trkpt lat="44.9025455" lon="9.5267332"><ele>523.0</ele><time>2026-04-19T14:22:04.587Z</time></trkpt><trkpt lat="44.9026175" lon="9.526631"><ele>523.0</ele><time>2026-04-19T14:22:06.587Z</time></trkpt><trkpt lat="44.9026568" lon="9.5265556"><ele>523.0</ele><time>2026-04-19T14:22:12.587Z</time></trkpt><trkpt lat="44.9026541" lon="9.526427"><ele>523.0</ele><time>2026-04-19T14:22:14.588Z</time></trkpt><trkpt lat="44.9026387" lon="9.5263264"><ele>521.0</ele><time>2026-04-19T14:22:15.587Z</time></trkpt><trkpt lat="44.9026253" lon="9.5261977"><ele>519.0</ele><time>2026-04-19T14:22:16.587Z</time></trkpt><trkpt lat="44.9026194" lon="9.5260672"><ele>517.0</ele><time>2026-04-19T14:22:17.587Z</time></trkpt><trkpt lat="44.9026177" lon="9.5259424"><ele>515.0</ele><time>2026-04-19T14:22:18.587Z</time></trkpt><trkpt lat="44.9026292" lon="9.5258183"><ele>513.0</ele><time>2026-04-19T14:22:19.587Z</time></trkpt><trkpt lat="44.902657" lon="9.5256801"><ele>513.0</ele><time>2026-04-19T14:22:20.587Z</time></trkpt><trkpt lat="44.9026967" lon="9.5255383"><ele>513.0</ele><time>2026-04-19T14:22:21.587Z</time></trkpt><trkpt lat="44.9027397" lon="9.5253963"><ele>513.0</ele><time>2026-04-19T14:22:22.587Z</time></trkpt><trkpt lat="44.9027685" lon="9.5252549"><ele>513.0</ele><time>2026-04-19T14:22:23.587Z</time></trkpt><trkpt lat="44.9027758" lon="9.5251179"><ele>513.0</ele><time>2026-04-19T14:22:24.587Z</time></trkpt><trkpt lat="44.9027635" lon="9.5249738"><ele>514.4</ele><time>2026-04-19T14:22:25.587Z</time></trkpt><trkpt lat="44.9027542" lon="9.5248261"><ele>515.8</ele><time>2026-04-19T14:22:26.587Z</time></trkpt><trkpt lat="44.9027578" lon="9.5246771"><ele>517.2</ele><time>2026-04-19T14:22:27.588Z</time></trkpt><trkpt lat="44.9027759" lon="9.5245297"><ele>518.6</ele><time>2026-04-19T14:22:28.587Z</time></trkpt><trkpt lat="44.9027956" lon="9.524379"><ele>520.0</ele><time>2026-04-19T14:22:29.587Z</time></trkpt><trkpt lat="44.902824" lon="9.5242289"><ele>521.6</ele><time>2026-04-19T14:22:30.588Z</time></trkpt><trkpt lat="44.9028677" lon="9.5240836"><ele>523.2</ele><time>2026-04-19T14:22:31.587Z</time></trkpt><trkpt lat="44.9029209" lon="9.5239442"><ele>524.8</ele><time>2026-04-19T14:22:32.587Z</time></trkpt><trkpt lat="44.9029721" lon="9.5238032"><ele>526.4</ele><time>2026-04-19T14:22:33.587Z</time></trkpt><trkpt lat="44.90302" lon="9.5236621"><ele>528.0</ele><time>2026-04-19T14:22:34.587Z</time></trkpt><trkpt lat="44.9030526" lon="9.5235134"><ele>531.0</ele><time>2026-04-19T14:22:35.587Z</time></trkpt><trkpt lat="44.9030822" lon="9.5233594"><ele>534.0</ele><time>2026-04-19T14:22:36.587Z</time></trkpt><trkpt lat="44.9031157" lon="9.523202"><ele>537.0</ele><time>2026-04-19T14:22:37.587Z</time></trkpt><trkpt lat="44.9031498" lon="9.5230464"><ele>540.0</ele><time>2026-04-19T14:22:38.587Z</time></trkpt><trkpt lat="44.9031704" lon="9.5228895"><ele>541.25</ele><time>2026-04-19T14:22:39.587Z</time></trkpt><trkpt lat="44.9031825" lon="9.5227229"><ele>542.5</ele><time>2026-04-19T14:22:40.587Z</time></trkpt><trkpt lat="44.9031915" lon="9.5225478"><ele>543.75</ele><time>2026-04-19T14:22:41.587Z</time></trkpt><trkpt lat="44.9032039" lon="9.5223593"><ele>545.0</ele><time>2026-04-19T14:22:42.587Z</time></trkpt><trkpt lat="44.903211" lon="9.5221597"><ele>544.0</ele><time>2026-04-19T14:22:43.588Z</time></trkpt><trkpt lat="44.903208" lon="9.5219548"><ele>543.0</ele><time>2026-04-19T14:22:44.587Z</time></trkpt><trkpt lat="44.9031999" lon="9.5217573"><ele>542.0</ele><time>2026-04-19T14:22:45.587Z</time></trkpt><trkpt lat="44.9031904" lon="9.5215681"><ele>541.0</ele><time>2026-04-19T14:22:46.587Z</time></trkpt><trkpt lat="44.9031758" lon="9.5213953"><ele>540.5</ele><time>2026-04-19T14:22:47.587Z</time></trkpt><trkpt lat="44.903158" lon="9.5212255"><ele>540.0</ele><time>2026-04-19T14:22:48.587Z</time></trkpt><trkpt lat="44.9031442" lon="9.5210494"><ele>539.5</ele><time>2026-04-19T14:22:49.587Z</time></trkpt><trkpt lat="44.9031529" lon="9.5208655"><ele>539.0</ele><time>2026-04-19T14:22:50.587Z</time></trkpt><trkpt lat="44.9031707" lon="9.52067"><ele>539.0</ele><time>2026-04-19T14:22:51.587Z</time></trkpt><trkpt lat="44.9031767" lon="9.5204642"><ele>539.0</ele><time>2026-04-19T14:22:52.587Z</time></trkpt><trkpt lat="44.9031753" lon="9.5202492"><ele>539.0</ele><time>2026-04-19T14:22:53.587Z</time></trkpt><trkpt lat="44.9031831" lon="9.5200298"><ele>538.6666666666666</ele><time>2026-04-19T14:22:54.587Z</time></trkpt><trkpt lat="44.9031864" lon="9.5198062"><ele>538.3333333333334</ele><time>2026-04-19T14:22:55.587Z</time></trkpt><trkpt lat="44.9031787" lon="9.5195777"><ele>538.0</ele><time>2026-04-19T14:22:56.587Z</time></trkpt><trkpt lat="44.9031738" lon="9.5193552"><ele>537.5</ele><time>2026-04-19T14:22:57.587Z</time></trkpt><trkpt lat="44.9031795" lon="9.5191593"><ele>537.0</ele><time>2026-04-19T14:22:58.587Z</time></trkpt><trkpt lat="44.9031804" lon="9.5189672"><ele>536.5</ele><time>2026-04-19T14:22:59.588Z</time></trkpt><trkpt lat="44.9031681" lon="9.5187715"><ele>536.0</ele><time>2026-04-19T14:23:00.587Z</time></trkpt><trkpt lat="44.9031398" lon="9.5185742"><ele>533.5</ele><time>2026-04-19T14:23:01.587Z</time></trkpt><trkpt lat="44.9031116" lon="9.5183831"><ele>531.0</ele><time>2026-04-19T14:23:02.587Z</time></trkpt><trkpt lat="44.9030717" lon="9.518214"><ele>528.5</ele><time>2026-04-19T14:23:03.587Z</time></trkpt><trkpt lat="44.9030017" lon="9.5180541"><ele>526.0</ele><time>2026-04-19T14:23:04.588Z</time></trkpt><trkpt lat="44.9028938" lon="9.5178938"><ele>523.6666666666667</ele><time>2026-04-19T14:23:05.587Z</time></trkpt><trkpt lat="44.9027537" lon="9.517718"><ele>521.3333333333334</ele><time>2026-04-19T14:23:06.587Z</time></trkpt><trkpt lat="44.9025807" lon="9.5175638"><ele>519.0</ele><time>2026-04-19T14:23:07.588Z</time></trkpt><trkpt lat="44.9024201" lon="9.5173881"><ele>524.3333333333334</ele><time>2026-04-19T14:23:08.587Z</time></trkpt><trkpt lat="44.9022779" lon="9.5172047"><ele>529.6666666666667</ele><time>2026-04-19T14:23:09.587Z</time></trkpt><trkpt lat="44.9021444" lon="9.5170464"><ele>535.0</ele><time>2026-04-19T14:23:10.587Z</time></trkpt><trkpt lat="44.9020281" lon="9.5169358"><ele>535.2</ele><time>2026-04-19T14:23:11.587Z</time></trkpt><trkpt lat="44.9019278" lon="9.5168494"><ele>535.4</ele><time>2026-04-19T14:23:12.587Z</time></trkpt><trkpt lat="44.9018333" lon="9.5167779"><ele>535.6</ele><time>2026-04-19T14:23:13.587Z</time></trkpt><trkpt lat="44.9017423" lon="9.5167145"><ele>535.8</ele><time>2026-04-19T14:23:14.587Z</time></trkpt><trkpt lat="44.9016663" lon="9.5166369"><ele>536.0</ele><time>2026-04-19T14:23:15.587Z</time></trkpt><trkpt lat="44.9016145" lon="9.5165601"><ele>537.6</ele><time>2026-04-19T14:23:16.587Z</time></trkpt><trkpt lat="44.9015652" lon="9.5164519"><ele>539.2</ele><time>2026-04-19T14:23:18.587Z</time></trkpt><trkpt lat="44.9015156" lon="9.51636"><ele>540.8</ele><time>2026-04-19T14:23:21.587Z</time></trkpt><trkpt lat="44.9014518" lon="9.5163634"><ele>542.4</ele><time>2026-04-19T14:23:23.587Z</time></trkpt><trkpt lat="44.9013232" lon="9.5164623"><ele>544.0</ele><time>2026-04-19T14:23:25.587Z</time></trkpt><trkpt lat="44.9012254" lon="9.5165223"><ele>544.0</ele><time>2026-04-19T14:23:26.587Z</time></trkpt><trkpt lat="44.9010987" lon="9.5165774"><ele>544.0</ele><time>2026-04-19T14:23:27.934Z</time></trkpt><trkpt lat="44.9009807" lon="9.5166342"><ele>544.0</ele><time>2026-04-19T14:23:28.909Z</time></trkpt><trkpt lat="44.9008627" lon="9.5167016"><ele>544.0</ele><time>2026-04-19T14:23:29.981Z</time></trkpt><trkpt lat="44.9007698" lon="9.516765"><ele>544.4</ele><time>2026-04-19T14:23:30.89Z</time></trkpt><trkpt lat="44.9006781" lon="9.5168352"><ele>544.8</ele><time>2026-04-19T14:23:31.923Z</time></trkpt><trkpt lat="44.9005895" lon="9.5169029"><ele>545.2</ele><time>2026-04-19T14:23:32.992Z</time></trkpt><trkpt lat="44.9005233" lon="9.5169522"><ele>545.6</ele><time>2026-04-19T14:23:33.892Z</time></trkpt><trkpt lat="44.9004356" lon="9.5170131"><ele>546.0</ele><time>2026-04-19T14:23:35.038Z</time></trkpt><trkpt lat="44.9002756" lon="9.5170638"><ele>546.0</ele><time>2026-04-19T14:23:36.964Z</time></trkpt><trkpt lat="44.9001891" lon="9.5170459"><ele>546.0</ele><time>2026-04-19T14:23:37.887Z</time></trkpt><trkpt lat="44.900095" lon="9.5170038"><ele>546.0</ele><time>2026-04-19T14:23:38.921Z</time></trkpt><trkpt lat="44.8999881" lon="9.5169215"><ele>546.0</ele><time>2026-04-19T14:23:39.915Z</time></trkpt><trkpt lat="44.8998867" lon="9.5168131"><ele>546.0</ele><time>2026-04-19T14:23:40.981Z</time></trkpt><trkpt lat="44.8997916" lon="9.5167187"><ele>546.0</ele><time>2026-04-19T14:23:41.926Z</time></trkpt><trkpt lat="44.8996864" lon="9.5166295"><ele>546.0</ele><time>2026-04-19T14:23:42.915Z</time></trkpt><trkpt lat="44.8995835" lon="9.5165497"><ele>546.0</ele><time>2026-04-19T14:23:43.962Z</time></trkpt><trkpt lat="44.899492" lon="9.5164799"><ele>546.0</ele><time>2026-04-19T14:23:44.875Z</time></trkpt><trkpt lat="44.8993805" lon="9.5164019"><ele>546.0</ele><time>2026-04-19T14:23:45.981Z</time></trkpt><trkpt lat="44.8992884" lon="9.5163344"><ele>546.0</ele><time>2026-04-19T14:23:46.945Z</time></trkpt><trkpt lat="44.8992141" lon="9.5162795"><ele>546.0</ele><time>2026-04-19T14:23:47.896Z</time></trkpt><trkpt lat="44.8991441" lon="9.5162267"><ele>546.0</ele><time>2026-04-19T14:23:48.886Z</time></trkpt><trkpt lat="44.8990801" lon="9.5161746"><ele>546.0</ele><time>2026-04-19T14:23:49.926Z</time></trkpt><trkpt lat="44.8989777" lon="9.5160888"><ele>543.6</ele><time>2026-04-19T14:23:51.979Z</time></trkpt><trkpt lat="44.8988742" lon="9.5160298"><ele>541.2</ele><time>2026-04-19T14:23:53.939Z</time></trkpt><trkpt lat="44.8987539" lon="9.5159958"><ele>538.8</ele><time>2026-04-19T14:23:56.001Z</time></trkpt><trkpt lat="44.8986837" lon="9.51593"><ele>536.4</ele><time>2026-04-19T14:23:57.959Z</time></trkpt><trkpt lat="44.8986603" lon="9.5158045"><ele>534.0</ele><time>2026-04-19T14:23:59.963Z</time></trkpt><trkpt lat="44.8986523" lon="9.5156388"><ele>534.0</ele><time>2026-04-19T14:24:02.008Z</time></trkpt><trkpt lat="44.8986584" lon="9.5155447"><ele>534.0</ele><time>2026-04-19T14:24:02.931Z</time></trkpt><trkpt lat="44.8986584" lon="9.5154249"><ele>534.0</ele><time>2026-04-19T14:24:03.981Z</time></trkpt><trkpt lat="44.8986504" lon="9.5153215"><ele>534.0</ele><time>2026-04-19T14:24:04.914Z</time></trkpt><trkpt lat="44.8986396" lon="9.5152073"><ele>534.0</ele><time>2026-04-19T14:24:05.877Z</time></trkpt><trkpt lat="44.8986275" lon="9.5150864"><ele>534.0</ele><time>2026-04-19T14:24:06.955Z</time></trkpt><trkpt lat="44.8986107" lon="9.5149913"><ele>532.6666666666666</ele><time>2026-04-19T14:24:07.89Z</time></trkpt><trkpt lat="44.8985926" lon="9.5148801"><ele>531.3333333333334</ele><time>2026-04-19T14:24:09.084Z</time></trkpt><trkpt lat="44.8985617" lon="9.5147032"><ele>530.0</ele><time>2026-04-19T14:24:10.935Z</time></trkpt><trkpt lat="44.8985402" lon="9.5145998"><ele>528.6666666666667</ele><time>2026-04-19T14:24:12.073Z</time></trkpt><trkpt lat="44.898517" lon="9.5145139"><ele>527.3333333333334</ele><time>2026-04-19T14:24:12.983Z</time></trkpt><trkpt lat="44.8984869" lon="9.5144258"><ele>526.0</ele><time>2026-04-19T14:24:13.944Z</time></trkpt><trkpt lat="44.8984456" lon="9.51433"><ele>525.4</ele><time>2026-04-19T14:24:15.052Z</time></trkpt><trkpt lat="44.898371" lon="9.5141569"><ele>524.8</ele><time>2026-04-19T14:24:17.055Z</time></trkpt><trkpt lat="44.8982979" lon="9.5139927"><ele>524.1999999999999</ele><time>2026-04-19T14:24:18.955Z</time></trkpt><trkpt lat="44.8982545" lon="9.5139077"><ele>523.6</ele><time>2026-04-19T14:24:19.949Z</time></trkpt><trkpt lat="44.89821" lon="9.5138203"><ele>523.0</ele><time>2026-04-19T14:24:20.942Z</time></trkpt><trkpt lat="44.8981509" lon="9.5137016"><ele>520.4</ele><time>2026-04-19T14:24:22.023Z</time></trkpt><trkpt lat="44.8980914" lon="9.513608"><ele>517.8</ele><time>2026-04-19T14:24:22.938Z</time></trkpt><trkpt lat="44.898022" lon="9.5135222"><ele>515.2</ele><time>2026-04-19T14:24:23.922Z</time></trkpt><trkpt lat="44.8979476" lon="9.5134388"><ele>512.6</ele><time>2026-04-19T14:24:24.912Z</time></trkpt><trkpt lat="44.8978662" lon="9.5133485"><ele>510.0</ele><time>2026-04-19T14:24:25.943Z</time></trkpt><trkpt lat="44.8977876" lon="9.5132587"><ele>510.0</ele><time>2026-04-19T14:24:26.958Z</time></trkpt><trkpt lat="44.8977262" lon="9.5131741"><ele>510.0</ele><time>2026-04-19T14:24:27.915Z</time></trkpt><trkpt lat="44.8976691" lon="9.5130854"><ele>510.0</ele><time>2026-04-19T14:24:29.058Z</time></trkpt><trkpt lat="44.8976101" lon="9.5129314"><ele>510.0</ele><time>2026-04-19T14:24:30.916Z</time></trkpt><trkpt lat="44.8975878" lon="9.5128319"><ele>510.0</ele><time>2026-04-19T14:24:31.915Z</time></trkpt><trkpt lat="44.8975675" lon="9.512699"><ele>508.1666666666667</ele><time>2026-04-19T14:24:32.881Z</time></trkpt><trkpt lat="44.8975649" lon="9.5125791"><ele>506.33333333333337</ele><time>2026-04-19T14:24:33.87Z</time></trkpt><trkpt lat="44.8975695" lon="9.5124519"><ele>504.5</ele><time>2026-04-19T14:24:34.935Z</time></trkpt><trkpt lat="44.8975808" lon="9.512326"><ele>502.6666666666667</ele><time>2026-04-19T14:24:35.918Z</time></trkpt><trkpt lat="44.8975972" lon="9.512186"><ele>500.83333333333337</ele><time>2026-04-19T14:24:36.991Z</time></trkpt><trkpt lat="44.8976122" lon="9.5120773"><ele>499.0</ele><time>2026-04-19T14:24:37.949Z</time></trkpt><trkpt lat="44.8976285" lon="9.5119803"><ele>497.1666666666667</ele><time>2026-04-19T14:24:38.905Z</time></trkpt><trkpt lat="44.8976485" lon="9.5118785"><ele>495.33333333333337</ele><time>2026-04-19T14:24:39.956Z</time></trkpt><trkpt lat="44.8976635" lon="9.5117882"><ele>493.5</ele><time>2026-04-19T14:24:40.931Z</time></trkpt><trkpt lat="44.8976884" lon="9.5116853"><ele>491.66666666666663</ele><time>2026-04-19T14:24:42.104Z</time></trkpt><trkpt lat="44.897717" lon="9.5115041"><ele>489.8333333333333</ele><time>2026-04-19T14:24:43.968Z</time></trkpt><trkpt lat="44.8977354" lon="9.5114085"><ele>488.0</ele><time>2026-04-19T14:24:45.021Z</time></trkpt><trkpt lat="44.8977567" lon="9.5112884"><ele>486.8333333333333</ele><time>2026-04-19T14:24:47.024Z</time></trkpt><trkpt lat="44.8977537" lon="9.5111636"><ele>485.66666666666663</ele><time>2026-04-19T14:24:49.916Z</time></trkpt><trkpt lat="44.8976965" lon="9.5111162"><ele>484.5</ele><time>2026-04-19T14:24:53.13Z</time></trkpt><trkpt lat="44.8976116" lon="9.5111325"><ele>483.33333333333337</ele><time>2026-04-19T14:24:55.94Z</time></trkpt><trkpt lat="44.8975339" lon="9.5111603"><ele>482.1666666666667</ele><time>2026-04-19T14:24:58.017Z</time></trkpt><trkpt lat="44.8974357" lon="9.5111732"><ele>481.0</ele><time>2026-04-19T14:24:59.945Z</time></trkpt><trkpt lat="44.8973258" lon="9.5111974"><ele>481.0</ele><time>2026-04-19T14:25:01.909Z</time></trkpt><trkpt lat="44.8972615" lon="9.5112249"><ele>481.0</ele><time>2026-04-19T14:25:03.064Z</time></trkpt><trkpt lat="44.8971569" lon="9.51131"><ele>481.0</ele><time>2026-04-19T14:25:04.956Z</time></trkpt><trkpt lat="44.8970687" lon="9.5114202"><ele>481.0</ele><time>2026-04-19T14:25:06.949Z</time></trkpt><trkpt lat="44.8969729" lon="9.5115537"><ele>481.0</ele><time>2026-04-19T14:25:08.938Z</time></trkpt><trkpt lat="44.8969186" lon="9.5116186"><ele>481.1428571428571</ele><time>2026-04-19T14:25:09.949Z</time></trkpt><trkpt lat="44.8968625" lon="9.5116705"><ele>481.2857142857143</ele><time>2026-04-19T14:25:10.937Z</time></trkpt><trkpt lat="44.8967961" lon="9.511698"><ele>481.42857142857144</ele><time>2026-04-19T14:25:11.965Z</time></trkpt><trkpt lat="44.8967318" lon="9.511714"><ele>481.57142857142856</ele><time>2026-04-19T14:25:12.926Z</time></trkpt><trkpt lat="44.8966544" lon="9.5117313"><ele>481.7142857142858</ele><time>2026-04-19T14:25:13.936Z</time></trkpt><trkpt lat="44.896578" lon="9.5117622"><ele>481.8571428571429</ele><time>2026-04-19T14:25:14.946Z</time></trkpt><trkpt lat="44.8964948" lon="9.5117942"><ele>482.0</ele><time>2026-04-19T14:25:16.078Z</time></trkpt><trkpt lat="44.89643" lon="9.5118284"><ele>481.99999999999994</ele><time>2026-04-19T14:25:16.942Z</time></trkpt><trkpt lat="44.8963471" lon="9.5118814"><ele>482.0</ele><time>2026-04-19T14:25:18.036Z</time></trkpt><trkpt lat="44.8962749" lon="9.5119517"><ele>482.0</ele><time>2026-04-19T14:25:18.968Z</time></trkpt><trkpt lat="44.8962067" lon="9.512033"><ele>482.0</ele><time>2026-04-19T14:25:19.934Z</time></trkpt><trkpt lat="44.8961456" lon="9.5121094"><ele>481.99999999999994</ele><time>2026-04-19T14:25:20.965Z</time></trkpt><trkpt lat="44.8960868" lon="9.5121751"><ele>482.0</ele><time>2026-04-19T14:25:21.922Z</time></trkpt><trkpt lat="44.8960268" lon="9.5122449"><ele>481.3333333333333</ele><time>2026-04-19T14:25:22.998Z</time></trkpt><trkpt lat="44.8959713" lon="9.5123168"><ele>480.66666666666663</ele><time>2026-04-19T14:25:23.911Z</time></trkpt><trkpt lat="44.8959121" lon="9.5123964"><ele>480.0</ele><time>2026-04-19T14:25:24.968Z</time></trkpt><trkpt lat="44.8958531" lon="9.5124669"><ele>479.33333333333337</ele><time>2026-04-19T14:25:25.887Z</time></trkpt><trkpt lat="44.8957843" lon="9.5125457"><ele>478.6666666666667</ele><time>2026-04-19T14:25:26.952Z</time></trkpt><trkpt lat="44.8957212" lon="9.5126192"><ele>478.0</ele><time>2026-04-19T14:25:27.912Z</time></trkpt><trkpt lat="44.8956595" lon="9.5126937"><ele>478.00000000000006</ele><time>2026-04-19T14:25:28.878Z</time></trkpt><trkpt lat="44.8955956" lon="9.5127741"><ele>478.0</ele><time>2026-04-19T14:25:29.938Z</time></trkpt><trkpt lat="44.8955398" lon="9.5128437"><ele>478.00000000000006</ele><time>2026-04-19T14:25:30.893Z</time></trkpt><trkpt lat="44.8954796" lon="9.512913"><ele>478.00000000000006</ele><time>2026-04-19T14:25:31.913Z</time></trkpt><trkpt lat="44.895423" lon="9.5129751"><ele>478.0</ele><time>2026-04-19T14:25:32.919Z</time></trkpt><trkpt lat="44.8953576" lon="9.5130181"><ele>478.00000000000006</ele><time>2026-04-19T14:25:33.94Z</time></trkpt><trkpt lat="44.8952935" lon="9.5130208"><ele>478.00000000000006</ele><time>2026-04-19T14:25:34.934Z</time></trkpt><trkpt lat="44.895221" lon="9.5129937"><ele>477.25</ele><time>2026-04-19T14:25:35.931Z</time></trkpt><trkpt lat="44.8951387" lon="9.5129534"><ele>476.5</ele><time>2026-04-19T14:25:36.923Z</time></trkpt><trkpt lat="44.8950541" lon="9.5129022"><ele>475.75</ele><time>2026-04-19T14:25:37.917Z</time></trkpt><trkpt lat="44.8949554" lon="9.5128452"><ele>475.0</ele><time>2026-04-19T14:25:39.074Z</time></trkpt><trkpt lat="44.894778" lon="9.5127579"><ele>475.00000000000006</ele><time>2026-04-19T14:25:40.924Z</time></trkpt><trkpt lat="44.8946915" lon="9.512715"><ele>475.0</ele><time>2026-04-19T14:25:41.93Z</time></trkpt><trkpt lat="44.8946237" lon="9.5126747"><ele>475.0</ele><time>2026-04-19T14:25:42.958Z</time></trkpt><trkpt lat="44.8944995" lon="9.5126161"><ele>475.0</ele><time>2026-04-19T14:25:45.006Z</time></trkpt><trkpt lat="44.8944368" lon="9.512603"><ele>475.00000000000006</ele><time>2026-04-19T14:25:45.913Z</time></trkpt><trkpt lat="44.8943685" lon="9.5126151"><ele>475.0</ele><time>2026-04-19T14:25:46.963Z</time></trkpt><trkpt lat="44.8942517" lon="9.5126615"><ele>476.4</ele><time>2026-04-19T14:25:48.922Z</time></trkpt><trkpt lat="44.8941511" lon="9.5127105"><ele>477.8</ele><time>2026-04-19T14:25:50.984Z</time></trkpt><trkpt lat="44.8940471" lon="9.5126691"><ele>479.20000000000005</ele><time>2026-04-19T14:25:52.938Z</time></trkpt><trkpt lat="44.8939855" lon="9.5126202"><ele>480.6</ele><time>2026-04-19T14:25:53.98Z</time></trkpt><trkpt lat="44.8939128" lon="9.5125561"><ele>482.0</ele><time>2026-04-19T14:25:54.926Z</time></trkpt><trkpt lat="44.8938343" lon="9.5124688"><ele>482.0</ele><time>2026-04-19T14:25:55.912Z</time></trkpt><trkpt lat="44.8937569" lon="9.5123818"><ele>482.00000000000006</ele><time>2026-04-19T14:25:56.924Z</time></trkpt><trkpt lat="44.8936913" lon="9.5123035"><ele>482.00000000000006</ele><time>2026-04-19T14:25:57.883Z</time></trkpt><trkpt lat="44.8936188" lon="9.5122298"><ele>482.0</ele><time>2026-04-19T14:25:59.084Z</time></trkpt><trkpt lat="44.893499" lon="9.5121721"><ele>482.0</ele><time>2026-04-19T14:26:00.917Z</time></trkpt><trkpt lat="44.8934262" lon="9.5121597"><ele>482.6</ele><time>2026-04-19T14:26:01.887Z</time></trkpt><trkpt lat="44.8933479" lon="9.5121609"><ele>483.20000000000005</ele><time>2026-04-19T14:26:02.912Z</time></trkpt><trkpt lat="44.8932562" lon="9.5121704"><ele>483.8</ele><time>2026-04-19T14:26:03.948Z</time></trkpt><trkpt lat="44.8931614" lon="9.5121808"><ele>484.4</ele><time>2026-04-19T14:26:04.919Z</time></trkpt><trkpt lat="44.8930621" lon="9.51219"><ele>485.0</ele><time>2026-04-19T14:26:05.965Z</time></trkpt><trkpt lat="44.8929657" lon="9.5121938"><ele>484.99999999999994</ele><time>2026-04-19T14:26:06.944Z</time></trkpt><trkpt lat="44.8928781" lon="9.5121945"><ele>485.0</ele><time>2026-04-19T14:26:07.926Z</time></trkpt><trkpt lat="44.892795" lon="9.5121918"><ele>485.0</ele><time>2026-04-19T14:26:08.944Z</time></trkpt><trkpt lat="44.8927211" lon="9.5122057"><ele>485.0</ele><time>2026-04-19T14:26:09.953Z</time></trkpt><trkpt lat="44.8926536" lon="9.5122439"><ele>484.99999999999994</ele><time>2026-04-19T14:26:10.954Z</time></trkpt><trkpt lat="44.8925982" lon="9.5122934"><ele>485.0</ele><time>2026-04-19T14:26:11.888Z</time></trkpt><trkpt lat="44.8925233" lon="9.5123603"><ele>484.16666666666663</ele><time>2026-04-19T14:26:13.035Z</time></trkpt><trkpt lat="44.8924629" lon="9.5123989"><ele>483.3333333333333</ele><time>2026-04-19T14:26:13.97Z</time></trkpt><trkpt lat="44.8923865" lon="9.5124314"><ele>482.5</ele><time>2026-04-19T14:26:14.897Z</time></trkpt><trkpt lat="44.8923069" lon="9.5124515"><ele>481.66666666666663</ele><time>2026-04-19T14:26:15.912Z</time></trkpt><trkpt lat="44.8922188" lon="9.512482"><ele>480.8333333333333</ele><time>2026-04-19T14:26:16.953Z</time></trkpt><trkpt lat="44.8921401" lon="9.5125167"><ele>480.0</ele><time>2026-04-19T14:26:17.944Z</time></trkpt><trkpt lat="44.8920685" lon="9.5125616"><ele>480.0</ele><time>2026-04-19T14:26:19.002Z</time></trkpt><trkpt lat="44.892007" lon="9.5125974"><ele>480.0</ele><time>2026-04-19T14:26:19.942Z</time></trkpt><trkpt lat="44.8918878" lon="9.5126471"><ele>480.0</ele><time>2026-04-19T14:26:21.92Z</time></trkpt><trkpt lat="44.891823" lon="9.5126443"><ele>480.0</ele><time>2026-04-19T14:26:22.898Z</time></trkpt><trkpt lat="44.8917519" lon="9.5126176"><ele>480.0</ele><time>2026-04-19T14:26:24.032Z</time></trkpt><trkpt lat="44.8915987" lon="9.5125393"><ele>478.8</ele><time>2026-04-19T14:26:25.919Z</time></trkpt><trkpt lat="44.8915127" lon="9.5125073"><ele>477.6</ele><time>2026-04-19T14:26:27.036Z</time></trkpt><trkpt lat="44.8914283" lon="9.512492"><ele>476.4</ele><time>2026-04-19T14:26:28.064Z</time></trkpt><trkpt lat="44.8912738" lon="9.5124694"><ele>475.2</ele><time>2026-04-19T14:26:29.973Z</time></trkpt><trkpt lat="44.8911879" lon="9.5124666"><ele>474.0</ele><time>2026-04-19T14:26:30.916Z</time></trkpt><trkpt lat="44.8910952" lon="9.5124626"><ele>474.0</ele><time>2026-04-19T14:26:32.008Z</time></trkpt><trkpt lat="44.8909621" lon="9.5124538"><ele>474.0</ele><time>2026-04-19T14:26:33.887Z</time></trkpt><trkpt lat="44.8908978" lon="9.5124504"><ele>474.0</ele><time>2026-04-19T14:26:34.956Z</time></trkpt><trkpt lat="44.8907938" lon="9.512378"><ele>474.0</ele><time>2026-04-19T14:26:37.143Z</time></trkpt><trkpt lat="44.8907681" lon="9.5122592"><ele>474.0</ele><time>2026-04-19T14:26:38.82Z</time></trkpt><trkpt lat="44.8907672" lon="9.5121617"><ele>473.1666666666667</ele><time>2026-04-19T14:26:39.883Z</time></trkpt><trkpt lat="44.89077" lon="9.5120684"><ele>472.33333333333337</ele><time>2026-04-19T14:26:40.87Z</time></trkpt><trkpt lat="44.8907367" lon="9.5118935"><ele>471.5</ele><time>2026-04-19T14:26:42.896Z</time></trkpt><trkpt lat="44.8906968" lon="9.511803"><ele>470.6666666666667</ele><time>2026-04-19T14:26:43.895Z</time></trkpt><trkpt lat="44.8906369" lon="9.5116987"><ele>469.83333333333337</ele><time>2026-04-19T14:26:44.915Z</time></trkpt><trkpt lat="44.8905836" lon="9.5116257"><ele>469.0</ele><time>2026-04-19T14:26:45.897Z</time></trkpt><trkpt lat="44.8905162" lon="9.5115418"><ele>469.00000000000006</ele><time>2026-04-19T14:26:46.93Z</time></trkpt><trkpt lat="44.8904609" lon="9.5114563"><ele>469.0</ele><time>2026-04-19T14:26:47.954Z</time></trkpt><trkpt lat="44.8904213" lon="9.5113639"><ele>469.0</ele><time>2026-04-19T14:26:48.915Z</time></trkpt><trkpt lat="44.890387" lon="9.5112685"><ele>469.0</ele><time>2026-04-19T14:26:50.016Z</time></trkpt><trkpt lat="44.8904266" lon="9.5111152"><ele>469.00000000000006</ele><time>2026-04-19T14:26:51.923Z</time></trkpt><trkpt lat="44.8904862" lon="9.5110462"><ele>469.0</ele><time>2026-04-19T14:26:52.91Z</time></trkpt><trkpt lat="44.8905552" lon="9.5109884"><ele>468.83333333333337</ele><time>2026-04-19T14:26:53.864Z</time></trkpt><trkpt lat="44.8906368" lon="9.5109452"><ele>468.6666666666667</ele><time>2026-04-19T14:26:54.905Z</time></trkpt><trkpt lat="44.8907006" lon="9.5109163"><ele>468.5</ele><time>2026-04-19T14:26:55.895Z</time></trkpt><trkpt lat="44.8907572" lon="9.5108733"><ele>468.33333333333337</ele><time>2026-04-19T14:26:56.939Z</time></trkpt><trkpt lat="44.8908301" lon="9.5107481"><ele>468.1666666666667</ele><time>2026-04-19T14:26:58.911Z</time></trkpt><trkpt lat="44.8908487" lon="9.5106564"><ele>468.0</ele><time>2026-04-19T14:27:00.049Z</time></trkpt><trkpt lat="44.8908553" lon="9.5105648"><ele>468.0</ele><time>2026-04-19T14:27:00.96Z</time></trkpt><trkpt lat="44.8908521" lon="9.5104558"><ele>468.0</ele><time>2026-04-19T14:27:01.91Z</time></trkpt><trkpt lat="44.8908228" lon="9.5103409"><ele>468.0</ele><time>2026-04-19T14:27:02.919Z</time></trkpt><trkpt lat="44.8908" lon="9.5102194"><ele>468.0</ele><time>2026-04-19T14:27:03.886Z</time></trkpt><trkpt lat="44.890787" lon="9.5100905"><ele>468.0</ele><time>2026-04-19T14:27:04.91Z</time></trkpt><trkpt lat="44.8907795" lon="9.5099688"><ele>468.0</ele><time>2026-04-19T14:27:05.884Z</time></trkpt><trkpt lat="44.8907838" lon="9.5098427"><ele>468.0</ele><time>2026-04-19T14:27:06.929Z</time></trkpt><trkpt lat="44.8907964" lon="9.5097226"><ele>468.0</ele><time>2026-04-19T14:27:07.898Z</time></trkpt><trkpt lat="44.8908129" lon="9.5095977"><ele>468.0</ele><time>2026-04-19T14:27:08.919Z</time></trkpt><trkpt lat="44.8908253" lon="9.5094844"><ele>468.0</ele><time>2026-04-19T14:27:09.909Z</time></trkpt><trkpt lat="44.8908276" lon="9.5093713"><ele>468.0</ele><time>2026-04-19T14:27:10.91Z</time></trkpt><trkpt lat="44.8908237" lon="9.509251"><ele>468.0</ele><time>2026-04-19T14:27:11.955Z</time></trkpt><trkpt lat="44.8908097" lon="9.5091412"><ele>466.8333333333333</ele><time>2026-04-19T14:27:12.914Z</time></trkpt><trkpt lat="44.8907827" lon="9.5090235"><ele>465.66666666666663</ele><time>2026-04-19T14:27:13.978Z</time></trkpt><trkpt lat="44.8907508" lon="9.5089201"><ele>464.5</ele><time>2026-04-19T14:27:14.911Z</time></trkpt><trkpt lat="44.8907246" lon="9.5088152"><ele>463.3333333333333</ele><time>2026-04-19T14:27:15.91Z</time></trkpt><trkpt lat="44.8907051" lon="9.5087029"><ele>462.16666666666663</ele><time>2026-04-19T14:27:16.967Z</time></trkpt><trkpt lat="44.8906916" lon="9.5086086"><ele>461.0</ele><time>2026-04-19T14:27:17.916Z</time></trkpt><trkpt lat="44.8906811" lon="9.5084922"><ele>460.20000000000005</ele><time>2026-04-19T14:27:18.988Z</time></trkpt><trkpt lat="44.8906692" lon="9.5083824"><ele>459.40000000000003</ele><time>2026-04-19T14:27:19.955Z</time></trkpt><trkpt lat="44.8906574" lon="9.5082751"><ele>458.6</ele><time>2026-04-19T14:27:20.918Z</time></trkpt><trkpt lat="44.8906425" lon="9.50815"><ele>457.8</ele><time>2026-04-19T14:27:21.92Z</time></trkpt><trkpt lat="44.8906291" lon="9.5080095"><ele>457.0</ele><time>2026-04-19T14:27:22.923Z</time></trkpt><trkpt lat="44.8906127" lon="9.5078618"><ele>456.6666666666667</ele><time>2026-04-19T14:27:24.085Z</time></trkpt><trkpt lat="44.89058" lon="9.5076761"><ele>456.33333333333337</ele><time>2026-04-19T14:27:25.937Z</time></trkpt><trkpt lat="44.890549" lon="9.5075822"><ele>456.0</ele><time>2026-04-19T14:27:26.906Z</time></trkpt><trkpt lat="44.890518" lon="9.5074865"><ele>455.66666666666663</ele><time>2026-04-19T14:27:27.915Z</time></trkpt><trkpt lat="44.8904913" lon="9.5074009"><ele>455.3333333333333</ele><time>2026-04-19T14:27:28.865Z</time></trkpt><trkpt lat="44.8904844" lon="9.5073033"><ele>455.0</ele><time>2026-04-19T14:27:29.878Z</time></trkpt><trkpt lat="44.8904853" lon="9.5072039"><ele>455.0</ele><time>2026-04-19T14:27:30.887Z</time></trkpt><trkpt lat="44.8904991" lon="9.5071093"><ele>455.0</ele><time>2026-04-19T14:27:31.871Z</time></trkpt><trkpt lat="44.8905233" lon="9.5069842"><ele>455.0</ele><time>2026-04-19T14:27:33.023Z</time></trkpt><trkpt lat="44.8905482" lon="9.5068185"><ele>455.0</ele><time>2026-04-19T14:27:34.894Z</time></trkpt><trkpt lat="44.8905448" lon="9.5066712"><ele>455.0</ele><time>2026-04-19T14:27:36.922Z</time></trkpt><trkpt lat="44.8905148" lon="9.5065624"><ele>454.99999999999994</ele><time>2026-04-19T14:27:46.946Z</time></trkpt><trkpt lat="44.8904596" lon="9.5064925"><ele>455.0</ele><time>2026-04-19T14:27:50.062Z</time></trkpt><trkpt lat="44.890391" lon="9.506518"><ele>455.0</ele><time>2026-04-19T14:27:52.906Z</time></trkpt><trkpt lat="44.8903147" lon="9.5065384"><ele>455.0</ele><time>2026-04-19T14:27:54.959Z</time></trkpt><trkpt lat="44.8902362" lon="9.5065464"><ele>454.99999999999994</ele><time>2026-04-19T14:27:56.975Z</time></trkpt><trkpt lat="44.8901611" lon="9.5065362"><ele>455.0</ele><time>2026-04-19T14:27:58.906Z</time></trkpt><trkpt lat="44.8900649" lon="9.506478"><ele>454.8</ele><time>2026-04-19T14:28:00.944Z</time></trkpt><trkpt lat="44.8900122" lon="9.5062728"><ele>454.6</ele><time>2026-04-19T14:28:03.894Z</time></trkpt><trkpt lat="44.890071" lon="9.5061842"><ele>454.4</ele><time>2026-04-19T14:28:06.015Z</time></trkpt><trkpt lat="44.8901568" lon="9.5062088"><ele>454.2</ele><time>2026-04-19T14:28:07.932Z</time></trkpt><trkpt lat="44.8902423" lon="9.506243"><ele>454.0</ele><time>2026-04-19T14:28:09.873Z</time></trkpt><trkpt lat="44.8903207" lon="9.5062055"><ele>454.00000000000006</ele><time>2026-04-19T14:28:11.924Z</time></trkpt><trkpt lat="44.890372" lon="9.5061042"><ele>454.0</ele><time>2026-04-19T14:28:13.926Z</time></trkpt><trkpt lat="44.8904091" lon="9.5060063"><ele>454.0</ele><time>2026-04-19T14:28:15.939Z</time></trkpt><trkpt lat="44.8904442" lon="9.5058884"><ele>454.0</ele><time>2026-04-19T14:28:17.967Z</time></trkpt><trkpt lat="44.890471" lon="9.5057756"><ele>454.00000000000006</ele><time>2026-04-19T14:28:19.919Z</time></trkpt><trkpt lat="44.8905016" lon="9.5056608"><ele>454.0</ele><time>2026-04-19T14:28:21.874Z</time></trkpt><trkpt lat="44.8905481" lon="9.5055443"><ele>451.4</ele><time>2026-04-19T14:28:23.882Z</time></trkpt><trkpt lat="44.8906232" lon="9.5053865"><ele>448.79999999999995</ele><time>2026-04-19T14:28:26.933Z</time></trkpt><trkpt lat="44.8906805" lon="9.5052989"><ele>446.20000000000005</ele><time>2026-04-19T14:28:28.887Z</time></trkpt><trkpt lat="44.8907523" lon="9.5052287"><ele>443.6</ele><time>2026-04-19T14:28:30.953Z</time></trkpt><trkpt lat="44.8908298" lon="9.5051666"><ele>441.0</ele><time>2026-04-19T14:28:32.937Z</time></trkpt><trkpt lat="44.8909221" lon="9.5051019"><ele>437.8</ele><time>2026-04-19T14:28:34.921Z</time></trkpt><trkpt lat="44.8909961" lon="9.5050593"><ele>434.6</ele><time>2026-04-19T14:28:36.908Z</time></trkpt><trkpt lat="44.8911043" lon="9.5049934"><ele>431.4</ele><time>2026-04-19T14:28:39.961Z</time></trkpt><trkpt lat="44.8912024" lon="9.5049518"><ele>428.2</ele><time>2026-04-19T14:28:41.986Z</time></trkpt><trkpt lat="44.8912797" lon="9.5049499"><ele>425.0</ele><time>2026-04-19T14:28:43.874Z</time></trkpt><trkpt lat="44.8913602" lon="9.504989"><ele>424.99999999999994</ele><time>2026-04-19T14:28:45.9Z</time></trkpt><trkpt lat="44.8914246" lon="9.5050706"><ele>425.0</ele><time>2026-04-19T14:28:47.942Z</time></trkpt><trkpt lat="44.8914692" lon="9.5051779"><ele>425.0</ele><time>2026-04-19T14:28:49.953Z</time></trkpt><trkpt lat="44.8915168" lon="9.5052701"><ele>425.0</ele><time>2026-04-19T14:28:51.979Z</time></trkpt><trkpt lat="44.8915709" lon="9.5053542"><ele>424.99999999999994</ele><time>2026-04-19T14:28:53.931Z</time></trkpt><trkpt lat="44.8916071" lon="9.505441"><ele>425.0</ele><time>2026-04-19T14:28:55.951Z</time></trkpt><trkpt lat="44.8916407" lon="9.5055358"><ele>425.49999999999994</ele><time>2026-04-19T14:28:58.939Z</time></trkpt><trkpt lat="44.8917208" lon="9.5055251"><ele>426.0</ele><time>2026-04-19T14:29:02.919Z</time></trkpt><trkpt lat="44.8917636" lon="9.5054384"><ele>426.5</ele><time>2026-04-19T14:29:04.883Z</time></trkpt><trkpt lat="44.89182" lon="9.5053364"><ele>427.0</ele><time>2026-04-19T14:29:06.915Z</time></trkpt><trkpt lat="44.8918834" lon="9.505247"><ele>427.49999999999994</ele><time>2026-04-19T14:29:08.898Z</time></trkpt><trkpt lat="44.8919357" lon="9.5051504"><ele>428.0</ele><time>2026-04-19T14:29:10.957Z</time></trkpt><trkpt lat="44.8919684" lon="9.5050527"><ele>423.8333333333333</ele><time>2026-04-19T14:29:12.955Z</time></trkpt><trkpt lat="44.8920113" lon="9.504957"><ele>419.66666666666663</ele><time>2026-04-19T14:29:14.993Z</time></trkpt><trkpt lat="44.8920685" lon="9.5048824"><ele>415.5</ele><time>2026-04-19T14:29:16.948Z</time></trkpt><trkpt lat="44.8921321" lon="9.5048273"><ele>411.33333333333337</ele><time>2026-04-19T14:29:18.948Z</time></trkpt><trkpt lat="44.8921806" lon="9.5047001"><ele>407.1666666666667</ele><time>2026-04-19T14:36:14.778Z</time></trkpt><trkpt lat="44.8922265" lon="9.5046271"><ele>403.0</ele><time>2026-04-19T14:36:16.854Z</time></trkpt><trkpt lat="44.8922785" lon="9.5045521"><ele>402.00000000000006</ele><time>2026-04-19T14:36:18.886Z</time></trkpt><trkpt lat="44.8923275" lon="9.5044636"><ele>401.0</ele><time>2026-04-19T14:36:21.02Z</time></trkpt><trkpt lat="44.892365" lon="9.5043727"><ele>400.0</ele><time>2026-04-19T14:36:22.912Z</time></trkpt><trkpt lat="44.8924055" lon="9.5042623"><ele>399.0</ele><time>2026-04-19T14:36:24.882Z</time></trkpt><trkpt lat="44.8924447" lon="9.5041447"><ele>398.00000000000006</ele><time>2026-04-19T14:36:27.027Z</time></trkpt><trkpt lat="44.8924836" lon="9.5040393"><ele>397.0</ele><time>2026-04-19T14:36:28.954Z</time></trkpt><trkpt lat="44.8925293" lon="9.5039217"><ele>397.0</ele><time>2026-04-19T14:36:31.002Z</time></trkpt><trkpt lat="44.8925785" lon="9.5038378"><ele>397.0</ele><time>2026-04-19T14:36:32.931Z</time></trkpt><trkpt lat="44.8926523" lon="9.503778"><ele>397.0</ele><time>2026-04-19T14:36:34.931Z</time></trkpt><trkpt lat="44.8927303" lon="9.5036917"><ele>397.0</ele><time>2026-04-19T14:36:36.962Z</time></trkpt><trkpt lat="44.8927961" lon="9.5035863"><ele>397.0</ele><time>2026-04-19T14:36:38.942Z</time></trkpt><trkpt lat="44.8928521" lon="9.5034691"><ele>391.8</ele><time>2026-04-19T14:36:40.933Z</time></trkpt><trkpt lat="44.8928966" lon="9.5033648"><ele>386.6</ele><time>2026-04-19T14:36:43.001Z</time></trkpt><trkpt lat="44.8929263" lon="9.5032514"><ele>381.40000000000003</ele><time>2026-04-19T14:36:44.941Z</time></trkpt><trkpt lat="44.8929617" lon="9.5031225"><ele>376.20000000000005</ele><time>2026-04-19T14:36:46.965Z</time></trkpt><trkpt lat="44.8930122" lon="9.5029841"><ele>371.0</ele><time>2026-04-19T14:36:49Z</time></trkpt><trkpt lat="44.8930739" lon="9.5028775"><ele>370.1666666666667</ele><time>2026-04-19T14:36:50.937Z</time></trkpt><trkpt lat="44.8931394" lon="9.5027836"><ele>369.33333333333337</ele><time>2026-04-19T14:36:52.932Z</time></trkpt><trkpt lat="44.8931887" lon="9.5026939"><ele>368.5</ele><time>2026-04-19T14:36:55.04Z</time></trkpt><trkpt lat="44.8932219" lon="9.502617"><ele>367.6666666666667</ele><time>2026-04-19T14:36:57.95Z</time></trkpt><trkpt lat="44.89326" lon="9.5024946"><ele>366.8333333333333</ele><time>2026-04-19T14:37:20.943Z</time></trkpt><trkpt lat="44.8932829" lon="9.5023718"><ele>366.0</ele><time>2026-04-19T14:37:22.994Z</time></trkpt><trkpt lat="44.8933027" lon="9.502237"><ele>366.0</ele><time>2026-04-19T14:37:25.13Z</time></trkpt><trkpt lat="44.8933125" lon="9.5021106"><ele>366.0</ele><time>2026-04-19T14:37:26.986Z</time></trkpt><trkpt lat="44.8933348" lon="9.5019624"><ele>366.0</ele><time>2026-04-19T14:37:28.969Z</time></trkpt><trkpt lat="44.8933725" lon="9.5018283"><ele>366.0</ele><time>2026-04-19T14:37:30.994Z</time></trkpt><trkpt lat="44.8934183" lon="9.5017023"><ele>366.0</ele><time>2026-04-19T14:37:32.94Z</time></trkpt><trkpt lat="44.8934317" lon="9.5015724"><ele>363.4</ele><time>2026-04-19T14:37:34.924Z</time></trkpt><trkpt lat="44.89342" lon="9.5014729"><ele>360.8</ele><time>2026-04-19T14:37:36.96Z</time></trkpt><trkpt lat="44.8933927" lon="9.501368"><ele>358.2</ele><time>2026-04-19T14:37:38.982Z</time></trkpt><trkpt lat="44.8934223" lon="9.5011493"><ele>355.59999999999997</ele><time>2026-04-19T14:37:42.026Z</time></trkpt><trkpt lat="44.8934596" lon="9.501007"><ele>353.0</ele><time>2026-04-19T14:37:43.922Z</time></trkpt><trkpt lat="44.8934836" lon="9.5008578"><ele>348.75</ele><time>2026-04-19T14:37:45.877Z</time></trkpt><trkpt lat="44.8934782" lon="9.5006196"><ele>344.5</ele><time>2026-04-19T14:37:48.932Z</time></trkpt><trkpt lat="44.8934676" lon="9.5004749"><ele>340.25</ele><time>2026-04-19T14:37:50.938Z</time></trkpt><trkpt lat="44.8934629" lon="9.5003275"><ele>336.0</ele><time>2026-04-19T14:37:52.92Z</time></trkpt><trkpt lat="44.8934705" lon="9.5001797"><ele>334.8</ele><time>2026-04-19T14:37:54.919Z</time></trkpt><trkpt lat="44.8935046" lon="9.5000215"><ele>333.6</ele><time>2026-04-19T14:37:56.869Z</time></trkpt><trkpt lat="44.8935436" lon="9.4998604"><ele>332.4</ele><time>2026-04-19T14:37:58.963Z</time></trkpt><trkpt lat="44.8935738" lon="9.4997351"><ele>331.2</ele><time>2026-04-19T14:38:00.941Z</time></trkpt><trkpt lat="44.8936175" lon="9.4995891"><ele>330.0</ele><time>2026-04-19T14:38:02.891Z</time></trkpt><trkpt lat="44.8936732" lon="9.4994572"><ele>328.8</ele><time>2026-04-19T14:38:04.95Z</time></trkpt><trkpt lat="44.8937402" lon="9.499304"><ele>327.6</ele><time>2026-04-19T14:38:06.963Z</time></trkpt><trkpt lat="44.8937654" lon="9.4992183"><ele>326.4</ele><time>2026-04-19T14:38:07.927Z</time></trkpt><trkpt lat="44.8937948" lon="9.4990773"><ele>325.2</ele><time>2026-04-19T14:38:09.909Z</time></trkpt><trkpt lat="44.8938262" lon="9.4989593"><ele>324.0</ele><time>2026-04-19T14:38:11.018Z</time></trkpt><trkpt lat="44.8938621" lon="9.498801"><ele>323.0</ele><time>2026-04-19T14:38:12.942Z</time></trkpt><trkpt lat="44.8939159" lon="9.498657"><ele>322.0</ele><time>2026-04-19T14:38:14.941Z</time></trkpt><trkpt lat="44.8939854" lon="9.4985186"><ele>321.0</ele><time>2026-04-19T14:38:16.892Z</time></trkpt><trkpt lat="44.8940171" lon="9.4983572"><ele>320.0</ele><time>2026-04-19T14:38:18.939Z</time></trkpt><trkpt lat="44.8940409" lon="9.4982519"><ele>319.0</ele><time>2026-04-19T14:38:20.918Z</time></trkpt><trkpt lat="44.8940704" lon="9.4981636"><ele>319.0</ele><time>2026-04-19T14:38:22.932Z</time></trkpt><trkpt lat="44.8941035" lon="9.4980485"><ele>319.0</ele><time>2026-04-19T14:38:37.589Z</time></trkpt><trkpt lat="44.894133" lon="9.4979532"><ele>319.0</ele><time>2026-04-19T14:38:39.589Z</time></trkpt><trkpt lat="44.8941893" lon="9.497812"><ele>319.0</ele><time>2026-04-19T14:38:41.589Z</time></trkpt><trkpt lat="44.8942157" lon="9.4977244"><ele>319.0</ele><time>2026-04-19T14:38:42.589Z</time></trkpt><trkpt lat="44.8942217" lon="9.4976336"><ele>319.0</ele><time>2026-04-19T14:38:43.589Z</time></trkpt><trkpt lat="44.8941721" lon="9.4974927"><ele>318.66666666666663</ele><time>2026-04-19T14:38:45.589Z</time></trkpt><trkpt lat="44.894093" lon="9.4973847"><ele>318.3333333333333</ele><time>2026-04-19T14:38:47.589Z</time></trkpt><trkpt lat="44.8940444" lon="9.4973276"><ele>318.0</ele><time>2026-04-19T14:38:48.589Z</time></trkpt><trkpt lat="44.8939921" lon="9.4972744"><ele>317.6666666666667</ele><time>2026-04-19T14:38:49.589Z</time></trkpt><trkpt lat="44.8938891" lon="9.4971684"><ele>317.33333333333337</ele><time>2026-04-19T14:38:51.589Z</time></trkpt><trkpt lat="44.8938383" lon="9.4971057"><ele>317.0</ele><time>2026-04-19T14:38:52.589Z</time></trkpt><trkpt lat="44.8938053" lon="9.4970249"><ele>316.57142857142856</ele><time>2026-04-19T14:38:53.589Z</time></trkpt><trkpt lat="44.8937921" lon="9.4969296"><ele>316.1428571428571</ele><time>2026-04-19T14:38:54.589Z</time></trkpt><trkpt lat="44.8937957" lon="9.4968243"><ele>315.71428571428567</ele><time>2026-04-19T14:38:55.589Z</time></trkpt><trkpt lat="44.8938111" lon="9.4967166"><ele>315.2857142857143</ele><time>2026-04-19T14:38:56.589Z</time></trkpt><trkpt lat="44.8938302" lon="9.4966121"><ele>314.85714285714283</ele><time>2026-04-19T14:38:57.589Z</time></trkpt><trkpt lat="44.8938529" lon="9.4965149"><ele>314.4285714285714</ele><time>2026-04-19T14:38:58.589Z</time></trkpt><trkpt lat="44.8938803" lon="9.4964199"><ele>314.0</ele><time>2026-04-19T14:38:59.589Z</time></trkpt><trkpt lat="44.8939087" lon="9.4963168"><ele>312.75</ele><time>2026-04-19T14:39:00.589Z</time></trkpt><trkpt lat="44.8939422" lon="9.4961976"><ele>311.5</ele><time>2026-04-19T14:39:01.589Z</time></trkpt><trkpt lat="44.8939771" lon="9.4960507"><ele>310.25</ele><time>2026-04-19T14:39:02.59Z</time></trkpt><trkpt lat="44.8940151" lon="9.4958844"><ele>309.0</ele><time>2026-04-19T14:39:03.589Z</time></trkpt><trkpt lat="44.8940498" lon="9.4957108"><ele>309.0</ele><time>2026-04-19T14:39:04.589Z</time></trkpt><trkpt lat="44.8940717" lon="9.4955306"><ele>309.0</ele><time>2026-04-19T14:39:05.589Z</time></trkpt><trkpt lat="44.8940782" lon="9.4953514"><ele>309.0</ele><time>2026-04-19T14:39:06.59Z</time></trkpt><trkpt lat="44.8940635" lon="9.4951859"><ele>309.0</ele><time>2026-04-19T14:39:07.589Z</time></trkpt><trkpt lat="44.8940392" lon="9.4950363"><ele>308.0</ele><time>2026-04-19T14:39:08.589Z</time></trkpt><trkpt lat="44.8940057" lon="9.4948989"><ele>307.0</ele><time>2026-04-19T14:39:09.589Z</time></trkpt><trkpt lat="44.8939664" lon="9.4947663"><ele>306.0</ele><time>2026-04-19T14:39:10.589Z</time></trkpt><trkpt lat="44.8939143" lon="9.4946264"><ele>305.0</ele><time>2026-04-19T14:39:11.589Z</time></trkpt><trkpt lat="44.8938526" lon="9.494488"><ele>304.0</ele><time>2026-04-19T14:39:12.589Z</time></trkpt><trkpt lat="44.8937903" lon="9.4943484"><ele>303.0</ele><time>2026-04-19T14:39:13.589Z</time></trkpt><trkpt lat="44.8937298" lon="9.494214"><ele>302.0</ele><time>2026-04-19T14:39:14.589Z</time></trkpt><trkpt lat="44.8936832" lon="9.4940872"><ele>301.0</ele><time>2026-04-19T14:39:15.589Z</time></trkpt><trkpt lat="44.8936536" lon="9.4939641"><ele>300.0</ele><time>2026-04-19T14:39:16.589Z</time></trkpt><trkpt lat="44.8936461" lon="9.4938433"><ele>299.0</ele><time>2026-04-19T14:39:17.589Z</time></trkpt><trkpt lat="44.8936655" lon="9.4937328"><ele>301.1666666666667</ele><time>2026-04-19T14:39:18.589Z</time></trkpt><trkpt lat="44.8937121" lon="9.4936584"><ele>303.33333333333337</ele><time>2026-04-19T14:39:19.589Z</time></trkpt><trkpt lat="44.8937726" lon="9.4936205"><ele>305.5</ele><time>2026-04-19T14:39:20.589Z</time></trkpt><trkpt lat="44.8938441" lon="9.4935843"><ele>307.6666666666667</ele><time>2026-04-19T14:39:21.589Z</time></trkpt><trkpt lat="44.8939237" lon="9.4935425"><ele>309.8333333333333</ele><time>2026-04-19T14:39:22.589Z</time></trkpt><trkpt lat="44.8940048" lon="9.4934994"><ele>312.0</ele><time>2026-04-19T14:39:23.589Z</time></trkpt><trkpt lat="44.8940728" lon="9.4934634"><ele>312.0</ele><time>2026-04-19T14:39:24.589Z</time></trkpt><trkpt lat="44.8941819" lon="9.4934769"><ele>312.0</ele><time>2026-04-19T14:39:26.589Z</time></trkpt><trkpt lat="44.8942555" lon="9.4935244"><ele>312.0</ele><time>2026-04-19T14:39:27.589Z</time></trkpt><trkpt lat="44.8943329" lon="9.4935828"><ele>312.0</ele><time>2026-04-19T14:39:28.59Z</time></trkpt><trkpt lat="44.8944172" lon="9.4936385"><ele>312.0</ele><time>2026-04-19T14:39:29.589Z</time></trkpt><trkpt lat="44.8945179" lon="9.4936788"><ele>313.25</ele><time>2026-04-19T14:39:30.589Z</time></trkpt><trkpt lat="44.8946241" lon="9.4937118"><ele>314.5</ele><time>2026-04-19T14:39:31.589Z</time></trkpt><trkpt lat="44.8947378" lon="9.4937394"><ele>315.75</ele><time>2026-04-19T14:39:32.59Z</time></trkpt><trkpt lat="44.89486" lon="9.493752"><ele>317.0</ele><time>2026-04-19T14:39:33.589Z</time></trkpt><trkpt lat="44.8949882" lon="9.4937587"><ele>311.5</ele><time>2026-04-19T14:39:34.589Z</time></trkpt><trkpt lat="44.8951177" lon="9.4937562"><ele>306.0</ele><time>2026-04-19T14:39:35.589Z</time></trkpt><trkpt lat="44.8952482" lon="9.4937591"><ele>300.5</ele><time>2026-04-19T14:39:36.589Z</time></trkpt><trkpt lat="44.8953742" lon="9.4937576"><ele>295.0</ele><time>2026-04-19T14:39:37.589Z</time></trkpt><trkpt lat="44.8954995" lon="9.4937554"><ele>295.0</ele><time>2026-04-19T14:39:38.589Z</time></trkpt><trkpt lat="44.8956237" lon="9.4937547"><ele>295.0</ele><time>2026-04-19T14:39:39.589Z</time></trkpt><trkpt lat="44.8957446" lon="9.4937656"><ele>295.0</ele><time>2026-04-19T14:39:40.589Z</time></trkpt><trkpt lat="44.8958641" lon="9.4937807"><ele>295.0</ele><time>2026-04-19T14:39:41.589Z</time></trkpt><trkpt lat="44.8959866" lon="9.493791"><ele>294.5</ele><time>2026-04-19T14:39:42.589Z</time></trkpt><trkpt lat="44.8961048" lon="9.4937913"><ele>294.0</ele><time>2026-04-19T14:39:43.589Z</time></trkpt><trkpt lat="44.8962275" lon="9.4937647"><ele>293.5</ele><time>2026-04-19T14:39:44.589Z</time></trkpt><trkpt lat="44.8963522" lon="9.4937283"><ele>293.0</ele><time>2026-04-19T14:39:45.589Z</time></trkpt><trkpt lat="44.896481" lon="9.4937049"><ele>295.25</ele><time>2026-04-19T14:39:46.589Z</time></trkpt><trkpt lat="44.8966119" lon="9.4936972"><ele>297.5</ele><time>2026-04-19T14:39:47.589Z</time></trkpt><trkpt lat="44.8967476" lon="9.4937045"><ele>299.75</ele><time>2026-04-19T14:39:48.589Z</time></trkpt><trkpt lat="44.8968756" lon="9.4937346"><ele>302.0</ele><time>2026-04-19T14:39:49.589Z</time></trkpt><trkpt lat="44.896996" lon="9.4937526"><ele>302.0</ele><time>2026-04-19T14:39:50.589Z</time></trkpt><trkpt lat="44.8971114" lon="9.4937366"><ele>302.0</ele><time>2026-04-19T14:39:51.589Z</time></trkpt><trkpt lat="44.8972311" lon="9.4937008"><ele>302.0</ele><time>2026-04-19T14:39:52.589Z</time></trkpt><trkpt lat="44.8973593" lon="9.4936541"><ele>302.0</ele><time>2026-04-19T14:39:53.589Z</time></trkpt><trkpt lat="44.8974961" lon="9.4936097"><ele>300.0</ele><time>2026-04-19T14:39:54.589Z</time></trkpt><trkpt lat="44.8976377" lon="9.4935705"><ele>298.0</ele><time>2026-04-19T14:39:55.589Z</time></trkpt><trkpt lat="44.8977778" lon="9.4935255"><ele>296.0</ele><time>2026-04-19T14:39:56.589Z</time></trkpt><trkpt lat="44.8979212" lon="9.4934813"><ele>294.0</ele><time>2026-04-19T14:39:57.59Z</time></trkpt><trkpt lat="44.898063" lon="9.4934389"><ele>294.0</ele><time>2026-04-19T14:39:58.59Z</time></trkpt><trkpt lat="44.8981989" lon="9.4933968"><ele>294.0</ele><time>2026-04-19T14:39:59.589Z</time></trkpt><trkpt lat="44.8983285" lon="9.4933531"><ele>294.0</ele><time>2026-04-19T14:40:00.59Z</time></trkpt><trkpt lat="44.8984569" lon="9.4933085"><ele>294.0</ele><time>2026-04-19T14:40:01.589Z</time></trkpt><trkpt lat="44.8985742" lon="9.493259"><ele>293.4</ele><time>2026-04-19T14:40:02.59Z</time></trkpt><trkpt lat="44.8986825" lon="9.4932066"><ele>292.79999999999995</ele><time>2026-04-19T14:40:03.589Z</time></trkpt><trkpt lat="44.8987853" lon="9.4931435"><ele>292.20000000000005</ele><time>2026-04-19T14:40:04.589Z</time></trkpt><trkpt lat="44.8988786" lon="9.4930702"><ele>291.6</ele><time>2026-04-19T14:40:05.59Z</time></trkpt><trkpt lat="44.8989689" lon="9.4929848"><ele>291.0</ele><time>2026-04-19T14:40:06.589Z</time></trkpt><trkpt lat="44.8990633" lon="9.4928748"><ele>290.5</ele><time>2026-04-19T14:40:07.589Z</time></trkpt><trkpt lat="44.8991637" lon="9.492753"><ele>290.0</ele><time>2026-04-19T14:40:08.589Z</time></trkpt><trkpt lat="44.8992546" lon="9.4926337"><ele>289.5</ele><time>2026-04-19T14:40:09.589Z</time></trkpt><trkpt lat="44.8993403" lon="9.4925165"><ele>289.0</ele><time>2026-04-19T14:40:10.589Z</time></trkpt><trkpt lat="44.8994201" lon="9.4924041"><ele>289.0</ele><time>2026-04-19T14:40:11.589Z</time></trkpt><trkpt lat="44.8994976" lon="9.4923016"><ele>289.0</ele><time>2026-04-19T14:40:12.589Z</time></trkpt><trkpt lat="44.8995675" lon="9.4922071"><ele>289.0</ele><time>2026-04-19T14:40:13.589Z</time></trkpt><trkpt lat="44.8996329" lon="9.4921176"><ele>289.0</ele><time>2026-04-19T14:40:14.589Z</time></trkpt><trkpt lat="44.899684" lon="9.4920151"><ele>289.0</ele><time>2026-04-19T14:40:15.589Z</time></trkpt><trkpt lat="44.8997265" lon="9.4918994"><ele>291.59999999999997</ele><time>2026-04-19T14:40:16.589Z</time></trkpt><trkpt lat="44.8997636" lon="9.4917715"><ele>294.2</ele><time>2026-04-19T14:40:17.589Z</time></trkpt><trkpt lat="44.8998021" lon="9.4916275"><ele>296.79999999999995</ele><time>2026-04-19T14:40:18.589Z</time></trkpt><trkpt lat="44.8998481" lon="9.4914943"><ele>299.4</ele><time>2026-04-19T14:40:19.589Z</time></trkpt><trkpt lat="44.8999143" lon="9.4913938"><ele>302.0</ele><time>2026-04-19T14:40:20.589Z</time></trkpt><trkpt lat="44.8999956" lon="9.4913222"><ele>302.33333333333337</ele><time>2026-04-19T14:40:21.589Z</time></trkpt><trkpt lat="44.9000877" lon="9.491286"><ele>302.6666666666667</ele><time>2026-04-19T14:40:22.589Z</time></trkpt><trkpt lat="44.9001596" lon="9.4912787"><ele>303.0</ele><time>2026-04-19T14:40:23.59Z</time></trkpt><trkpt lat="44.9002302" lon="9.4912555"><ele>303.3333333333333</ele><time>2026-04-19T14:40:26.589Z</time></trkpt><trkpt lat="44.9001813" lon="9.4911662"><ele>303.66666666666663</ele><time>2026-04-19T14:40:29.589Z</time></trkpt><trkpt lat="44.9001172" lon="9.4911393"><ele>304.0</ele><time>2026-04-19T14:40:30.589Z</time></trkpt><trkpt lat="44.9000383" lon="9.491124"><ele>303.59999999999997</ele><time>2026-04-19T14:40:31.589Z</time></trkpt><trkpt lat="44.899937" lon="9.4911191"><ele>303.2</ele><time>2026-04-19T14:40:32.589Z</time></trkpt><trkpt lat="44.8998278" lon="9.4911528"><ele>302.79999999999995</ele><time>2026-04-19T14:40:33.589Z</time></trkpt><trkpt lat="44.8997254" lon="9.491223"><ele>302.4</ele><time>2026-04-19T14:40:34.589Z</time></trkpt><trkpt lat="44.8996353" lon="9.4913269"><ele>302.0</ele><time>2026-04-19T14:40:35.589Z</time></trkpt><trkpt lat="44.8995556" lon="9.4914434"><ele>302.0</ele><time>2026-04-19T14:40:36.589Z</time></trkpt><trkpt lat="44.8994824" lon="9.4915527"><ele>302.0</ele><time>2026-04-19T14:40:37.589Z</time></trkpt><trkpt lat="44.8994179" lon="9.4916485"><ele>302.0</ele><time>2026-04-19T14:40:38.589Z</time></trkpt><trkpt lat="44.8993569" lon="9.4917298"><ele>302.0</ele><time>2026-04-19T14:40:39.589Z</time></trkpt><trkpt lat="44.8992934" lon="9.4917744"><ele>302.0</ele><time>2026-04-19T14:40:40.589Z</time></trkpt><trkpt lat="44.8992242" lon="9.4917903"><ele>302.0</ele><time>2026-04-19T14:40:41.589Z</time></trkpt><trkpt lat="44.8991453" lon="9.4917671"><ele>304.2</ele><time>2026-04-19T14:40:42.59Z</time></trkpt><trkpt lat="44.8990701" lon="9.4916939"><ele>306.4</ele><time>2026-04-19T14:40:43.589Z</time></trkpt><trkpt lat="44.8989904" lon="9.4916123"><ele>308.6</ele><time>2026-04-19T14:40:44.589Z</time></trkpt><trkpt lat="44.8988973" lon="9.4915465"><ele>310.8</ele><time>2026-04-19T14:40:45.59Z</time></trkpt><trkpt lat="44.8987884" lon="9.4915166"><ele>313.0</ele><time>2026-04-19T14:40:46.589Z</time></trkpt><trkpt lat="44.898672" lon="9.4915035"><ele>313.0</ele><time>2026-04-19T14:40:47.589Z</time></trkpt><trkpt lat="44.8985548" lon="9.4914884"><ele>313.0</ele><time>2026-04-19T14:40:48.589Z</time></trkpt><trkpt lat="44.8984404" lon="9.4914707"><ele>313.0</ele><time>2026-04-19T14:40:49.589Z</time></trkpt><trkpt lat="44.8983303" lon="9.4914745"><ele>313.0</ele><time>2026-04-19T14:40:50.59Z</time></trkpt><trkpt lat="44.8982261" lon="9.4915036"><ele>313.0</ele><time>2026-04-19T14:40:51.589Z</time></trkpt><trkpt lat="44.89813" lon="9.4915651"><ele>316.0</ele><time>2026-04-19T14:40:52.589Z</time></trkpt><trkpt lat="44.8980401" lon="9.4916455"><ele>319.0</ele><time>2026-04-19T14:40:53.589Z</time></trkpt><trkpt lat="44.8979567" lon="9.4917557"><ele>322.0</ele><time>2026-04-19T14:40:54.589Z</time></trkpt><trkpt lat="44.8978832" lon="9.4918995"><ele>325.0</ele><time>2026-04-19T14:40:55.589Z</time></trkpt><trkpt lat="44.8978225" lon="9.4920517"><ele>326.2</ele><time>2026-04-19T14:40:56.589Z</time></trkpt><trkpt lat="44.8977746" lon="9.4921949"><ele>327.4</ele><time>2026-04-19T14:40:57.589Z</time></trkpt><trkpt lat="44.8977169" lon="9.4923154"><ele>328.6</ele><time>2026-04-19T14:40:58.589Z</time></trkpt><trkpt lat="44.8976452" lon="9.4923881"><ele>329.8</ele><time>2026-04-19T14:40:59.589Z</time></trkpt><trkpt lat="44.8975635" lon="9.4924286"><ele>331.0</ele><time>2026-04-19T14:41:00.589Z</time></trkpt><trkpt lat="44.8974656" lon="9.492444"><ele>331.0</ele><time>2026-04-19T14:41:01.589Z</time></trkpt><trkpt lat="44.897367" lon="9.4924539"><ele>331.0</ele><time>2026-04-19T14:41:02.589Z</time></trkpt><trkpt lat="44.8972584" lon="9.4924545"><ele>331.0</ele><time>2026-04-19T14:41:03.589Z</time></trkpt><trkpt lat="44.8971456" lon="9.4924359"><ele>331.0</ele><time>2026-04-19T14:41:04.589Z</time></trkpt><trkpt lat="44.8970397" lon="9.492396"><ele>331.0</ele><time>2026-04-19T14:41:05.589Z</time></trkpt><trkpt lat="44.8969411" lon="9.4923679"><ele>331.0</ele><time>2026-04-19T14:41:06.589Z</time></trkpt><trkpt lat="44.8968417" lon="9.4923781"><ele>331.0</ele><time>2026-04-19T14:41:07.589Z</time></trkpt><trkpt lat="44.8967453" lon="9.4924216"><ele>331.0</ele><time>2026-04-19T14:41:08.589Z</time></trkpt><trkpt lat="44.8966476" lon="9.4925057"><ele>331.0</ele><time>2026-04-19T14:41:09.589Z</time></trkpt><trkpt lat="44.8965464" lon="9.4925947"><ele>331.0</ele><time>2026-04-19T14:41:10.589Z</time></trkpt><trkpt lat="44.8964413" lon="9.4926539"><ele>334.25</ele><time>2026-04-19T14:41:11.589Z</time></trkpt><trkpt lat="44.8963305" lon="9.4926728"><ele>337.5</ele><time>2026-04-19T14:41:12.589Z</time></trkpt><trkpt lat="44.8962091" lon="9.4926796"><ele>340.75</ele><time>2026-04-19T14:41:13.589Z</time></trkpt><trkpt lat="44.8960836" lon="9.4926707"><ele>344.0</ele><time>2026-04-19T14:41:14.589Z</time></trkpt><trkpt lat="44.8959414" lon="9.4926494"><ele>346.5</ele><time>2026-04-19T14:41:15.589Z</time></trkpt><trkpt lat="44.8957984" lon="9.4926275"><ele>349.0</ele><time>2026-04-19T14:41:16.589Z</time></trkpt><trkpt lat="44.8956488" lon="9.4926154"><ele>351.5</ele><time>2026-04-19T14:41:17.589Z</time></trkpt><trkpt lat="44.8955005" lon="9.4926182"><ele>354.0</ele><time>2026-04-19T14:41:18.589Z</time></trkpt><trkpt lat="44.8953626" lon="9.4926363"><ele>354.0</ele><time>2026-04-19T14:41:19.589Z</time></trkpt><trkpt lat="44.8952293" lon="9.4926685"><ele>354.0</ele><time>2026-04-19T14:41:20.589Z</time></trkpt><trkpt lat="44.8950988" lon="9.4927016"><ele>354.0</ele><time>2026-04-19T14:41:21.589Z</time></trkpt><trkpt lat="44.8949696" lon="9.4927326"><ele>354.0</ele><time>2026-04-19T14:41:22.589Z</time></trkpt><trkpt lat="44.8948498" lon="9.4927679"><ele>355.79999999999995</ele><time>2026-04-19T14:41:23.589Z</time></trkpt><trkpt lat="44.8947436" lon="9.4927943"><ele>357.59999999999997</ele><time>2026-04-19T14:41:24.589Z</time></trkpt><trkpt lat="44.8946451" lon="9.4927954"><ele>359.4</ele><time>2026-04-19T14:41:25.59Z</time></trkpt><trkpt lat="44.8945478" lon="9.4927684"><ele>361.2</ele><time>2026-04-19T14:41:26.589Z</time></trkpt><trkpt lat="44.8944578" lon="9.4927192"><ele>363.0</ele><time>2026-04-19T14:41:27.589Z</time></trkpt><trkpt lat="44.8943775" lon="9.4926447"><ele>363.0</ele><time>2026-04-19T14:41:28.589Z</time></trkpt><trkpt lat="44.8943092" lon="9.4925566"><ele>363.0</ele><time>2026-04-19T14:41:29.589Z</time></trkpt><trkpt lat="44.8942567" lon="9.4924681"><ele>363.0</ele><time>2026-04-19T14:41:30.589Z</time></trkpt><trkpt lat="44.8942244" lon="9.4923748"><ele>363.0</ele><time>2026-04-19T14:41:31.589Z</time></trkpt><trkpt lat="44.8942182" lon="9.4922695"><ele>363.0</ele><time>2026-04-19T14:41:32.589Z</time></trkpt><trkpt lat="44.8942398" lon="9.4921693"><ele>363.0</ele><time>2026-04-19T14:41:33.589Z</time></trkpt><trkpt lat="44.8942799" lon="9.4920665"><ele>361.2</ele><time>2026-04-19T14:41:34.59Z</time></trkpt><trkpt lat="44.8943187" lon="9.491958"><ele>359.4</ele><time>2026-04-19T14:41:35.589Z</time></trkpt><trkpt lat="44.8943288" lon="9.4918323"><ele>357.59999999999997</ele><time>2026-04-19T14:41:36.59Z</time></trkpt><trkpt lat="44.8942873" lon="9.4917059"><ele>355.79999999999995</ele><time>2026-04-19T14:41:37.589Z</time></trkpt><trkpt lat="44.8942261" lon="9.4915887"><ele>354.0</ele><time>2026-04-19T14:41:38.589Z</time></trkpt><trkpt lat="44.894161" lon="9.4914943"><ele>354.0</ele><time>2026-04-19T14:41:39.589Z</time></trkpt><trkpt lat="44.8941268" lon="9.4913925"><ele>354.0</ele><time>2026-04-19T14:41:40.589Z</time></trkpt><trkpt lat="44.8941216" lon="9.4912815"><ele>354.0</ele><time>2026-04-19T14:41:41.589Z</time></trkpt><trkpt lat="44.8941348" lon="9.4911575"><ele>354.0</ele><time>2026-04-19T14:41:42.59Z</time></trkpt><trkpt lat="44.8941649" lon="9.4910096"><ele>354.0</ele><time>2026-04-19T14:41:43.589Z</time></trkpt><trkpt lat="44.894198" lon="9.4908518"><ele>353.5</ele><time>2026-04-19T14:41:44.589Z</time></trkpt><trkpt lat="44.8942335" lon="9.4906847"><ele>353.0</ele><time>2026-04-19T14:41:45.589Z</time></trkpt><trkpt lat="44.8942709" lon="9.4905181"><ele>352.5</ele><time>2026-04-19T14:41:46.589Z</time></trkpt><trkpt lat="44.8943107" lon="9.4903509"><ele>352.0</ele><time>2026-04-19T14:41:47.589Z</time></trkpt><trkpt lat="44.8943558" lon="9.4901916"><ele>357.0</ele><time>2026-04-19T14:41:48.589Z</time></trkpt><trkpt lat="44.8943927" lon="9.4900285"><ele>362.0</ele><time>2026-04-19T14:41:49.59Z</time></trkpt><trkpt lat="44.8944094" lon="9.4898634"><ele>367.0</ele><time>2026-04-19T14:41:50.589Z</time></trkpt><trkpt lat="44.8944102" lon="9.4896975"><ele>372.0</ele><time>2026-04-19T14:41:51.589Z</time></trkpt><trkpt lat="44.8943944" lon="9.4895335"><ele>373.25</ele><time>2026-04-19T14:41:52.589Z</time></trkpt><trkpt lat="44.8943739" lon="9.4893654"><ele>374.5</ele><time>2026-04-19T14:41:53.59Z</time></trkpt><trkpt lat="44.8943432" lon="9.4891969"><ele>375.75</ele><time>2026-04-19T14:41:54.589Z</time></trkpt><trkpt lat="44.8943012" lon="9.489023"><ele>377.0</ele><time>2026-04-19T14:41:55.589Z</time></trkpt><trkpt lat="44.8942467" lon="9.4888568"><ele>373.0</ele><time>2026-04-19T14:41:56.589Z</time></trkpt><trkpt lat="44.8941807" lon="9.4887017"><ele>369.0</ele><time>2026-04-19T14:41:57.589Z</time></trkpt><trkpt lat="44.8941151" lon="9.4885592"><ele>365.0</ele><time>2026-04-19T14:41:58.589Z</time></trkpt><trkpt lat="44.8940638" lon="9.4884254"><ele>361.0</ele><time>2026-04-19T14:41:59.589Z</time></trkpt><trkpt lat="44.8940312" lon="9.4883045"><ele>357.0</ele><time>2026-04-19T14:42:00.589Z</time></trkpt><trkpt lat="44.8940152" lon="9.4881856"><ele>357.0</ele><time>2026-04-19T14:42:01.589Z</time></trkpt><trkpt lat="44.8940121" lon="9.4880597"><ele>357.0</ele><time>2026-04-19T14:42:02.589Z</time></trkpt><trkpt lat="44.8940185" lon="9.4879352"><ele>357.0</ele><time>2026-04-19T14:42:03.589Z</time></trkpt><trkpt lat="44.8940317" lon="9.4878133"><ele>357.0</ele><time>2026-04-19T14:42:04.589Z</time></trkpt><trkpt lat="44.8940453" lon="9.4876982"><ele>357.0</ele><time>2026-04-19T14:42:05.589Z</time></trkpt><trkpt lat="44.8940347" lon="9.4876023"><ele>357.0</ele><time>2026-04-19T14:42:06.589Z</time></trkpt><trkpt lat="44.8939943" lon="9.487519"><ele>357.8</ele><time>2026-04-19T14:42:07.589Z</time></trkpt><trkpt lat="44.8939241" lon="9.487472"><ele>358.6</ele><time>2026-04-19T14:42:08.59Z</time></trkpt><trkpt lat="44.893837" lon="9.4874772"><ele>359.40000000000003</ele><time>2026-04-19T14:42:09.589Z</time></trkpt><trkpt lat="44.8937455" lon="9.4875362"><ele>360.20000000000005</ele><time>2026-04-19T14:42:10.589Z</time></trkpt><trkpt lat="44.893654" lon="9.4876246"><ele>361.0</ele><time>2026-04-19T14:42:11.589Z</time></trkpt><trkpt lat="44.893563" lon="9.4877054"><ele>361.0</ele><time>2026-04-19T14:42:12.589Z</time></trkpt><trkpt lat="44.8934821" lon="9.4878059"><ele>361.0</ele><time>2026-04-19T14:42:13.589Z</time></trkpt><trkpt lat="44.8934152" lon="9.4879366"><ele>361.0</ele><time>2026-04-19T14:42:14.59Z</time></trkpt><trkpt lat="44.8933566" lon="9.4880695"><ele>361.0</ele><time>2026-04-19T14:42:15.589Z</time></trkpt><trkpt lat="44.8933009" lon="9.4881633"><ele>361.0</ele><time>2026-04-19T14:42:16.589Z</time></trkpt><trkpt lat="44.8932406" lon="9.4882174"><ele>359.5</ele><time>2026-04-19T14:42:17.589Z</time></trkpt><trkpt lat="44.8931717" lon="9.4882595"><ele>358.0</ele><time>2026-04-19T14:42:18.589Z</time></trkpt><trkpt lat="44.8930942" lon="9.4883077"><ele>356.5</ele><time>2026-04-19T14:42:19.589Z</time></trkpt><trkpt lat="44.8930181" lon="9.4883808"><ele>355.0</ele><time>2026-04-19T14:42:20.589Z</time></trkpt><trkpt lat="44.8929563" lon="9.4884604"><ele>353.5</ele><time>2026-04-19T14:42:21.589Z</time></trkpt><trkpt lat="44.8929099" lon="9.488522"><ele>352.0</ele><time>2026-04-19T14:42:22.589Z</time></trkpt><trkpt lat="44.8928043" lon="9.4885684"><ele>352.0</ele><time>2026-04-19T14:42:24.589Z</time></trkpt><trkpt lat="44.8927373" lon="9.4885555"><ele>352.0</ele><time>2026-04-19T14:42:25.59Z</time></trkpt><trkpt lat="44.8926739" lon="9.4884946"><ele>352.0</ele><time>2026-04-19T14:42:26.589Z</time></trkpt><trkpt lat="44.8926033" lon="9.488398"><ele>352.0</ele><time>2026-04-19T14:42:27.589Z</time></trkpt><trkpt lat="44.8925329" lon="9.4882944"><ele>352.0</ele><time>2026-04-19T14:42:28.589Z</time></trkpt><trkpt lat="44.8924644" lon="9.4881846"><ele>352.0</ele><time>2026-04-19T14:42:29.589Z</time></trkpt><trkpt lat="44.8924022" lon="9.4880643"><ele>352.5</ele><time>2026-04-19T14:42:30.589Z</time></trkpt><trkpt lat="44.8923485" lon="9.4879482"><ele>353.0</ele><time>2026-04-19T14:42:31.589Z</time></trkpt><trkpt lat="44.8922945" lon="9.4878545"><ele>353.5</ele><time>2026-04-19T14:42:32.589Z</time></trkpt><trkpt lat="44.8922298" lon="9.4877937"><ele>354.0</ele><time>2026-04-19T14:42:33.589Z</time></trkpt><trkpt lat="44.8921579" lon="9.4877522"><ele>354.5</ele><time>2026-04-19T14:42:34.589Z</time></trkpt><trkpt lat="44.892094" lon="9.4877404"><ele>355.0</ele><time>2026-04-19T14:42:35.59Z</time></trkpt><trkpt lat="44.8919714" lon="9.4877968"><ele>356.2857142857143</ele><time>2026-04-19T14:42:37.589Z</time></trkpt><trkpt lat="44.891905" lon="9.487824"><ele>357.57142857142856</ele><time>2026-04-19T14:42:38.589Z</time></trkpt><trkpt lat="44.8918414" lon="9.4878287"><ele>358.8571428571429</ele><time>2026-04-19T14:42:39.589Z</time></trkpt><trkpt lat="44.8917816" lon="9.4877934"><ele>360.1428571428571</ele><time>2026-04-19T14:42:40.589Z</time></trkpt><trkpt lat="44.8917299" lon="9.4877206"><ele>361.42857142857144</ele><time>2026-04-19T14:42:41.589Z</time></trkpt><trkpt lat="44.8916741" lon="9.4876549"><ele>362.7142857142857</ele><time>2026-04-19T14:42:42.589Z</time></trkpt><trkpt lat="44.8915993" lon="9.4875978"><ele>364.0</ele><time>2026-04-19T14:42:43.589Z</time></trkpt><trkpt lat="44.8915078" lon="9.4875668"><ele>364.0</ele><time>2026-04-19T14:42:44.589Z</time></trkpt><trkpt lat="44.8914142" lon="9.4875369"><ele>364.0</ele><time>2026-04-19T14:42:45.589Z</time></trkpt><trkpt lat="44.8913266" lon="9.4874969"><ele>364.0</ele><time>2026-04-19T14:42:46.589Z</time></trkpt><trkpt lat="44.8912503" lon="9.4874358"><ele>364.0</ele><time>2026-04-19T14:42:47.589Z</time></trkpt><trkpt lat="44.891176" lon="9.4873749"><ele>364.0</ele><time>2026-04-19T14:42:48.589Z</time></trkpt><trkpt lat="44.8911016" lon="9.4873077"><ele>364.0</ele><time>2026-04-19T14:42:49.59Z</time></trkpt><trkpt lat="44.8910302" lon="9.4872241"><ele>364.0</ele><time>2026-04-19T14:42:50.589Z</time></trkpt><trkpt lat="44.8909589" lon="9.4871403"><ele>364.0</ele><time>2026-04-19T14:42:51.589Z</time></trkpt><trkpt lat="44.8908784" lon="9.4870623"><ele>364.0</ele><time>2026-04-19T14:42:52.589Z</time></trkpt><trkpt lat="44.8907875" lon="9.487005"><ele>364.0</ele><time>2026-04-19T14:42:53.589Z</time></trkpt><trkpt lat="44.8906925" lon="9.486965"><ele>366.5</ele><time>2026-04-19T14:42:54.589Z</time></trkpt><trkpt lat="44.890598" lon="9.4869323"><ele>369.0</ele><time>2026-04-19T14:42:55.589Z</time></trkpt><trkpt lat="44.8905062" lon="9.4869189"><ele>371.5</ele><time>2026-04-19T14:42:56.589Z</time></trkpt><trkpt lat="44.8904279" lon="9.4869131"><ele>374.0</ele><time>2026-04-19T14:42:57.589Z</time></trkpt><trkpt lat="44.8903626" lon="9.4868961"><ele>376.5</ele><time>2026-04-19T14:42:58.589Z</time></trkpt><trkpt lat="44.8902651" lon="9.4868098"><ele>379.0</ele><time>2026-04-19T14:43:00.589Z</time></trkpt><trkpt lat="44.8902175" lon="9.4867349"><ele>379.0</ele><time>2026-04-19T14:43:01.589Z</time></trkpt><trkpt lat="44.8901674" lon="9.486655"><ele>379.0</ele><time>2026-04-19T14:43:02.59Z</time></trkpt><trkpt lat="44.8901131" lon="9.4865643"><ele>379.0</ele><time>2026-04-19T14:43:03.589Z</time></trkpt><trkpt lat="44.8900617" lon="9.4864757"><ele>379.0</ele><time>2026-04-19T14:43:04.589Z</time></trkpt><trkpt lat="44.8900109" lon="9.4863942"><ele>379.0</ele><time>2026-04-19T14:43:05.589Z</time></trkpt><trkpt lat="44.8899556" lon="9.4863145"><ele>379.0</ele><time>2026-04-19T14:43:06.589Z</time></trkpt><trkpt lat="44.8898962" lon="9.4862355"><ele>379.8333333333333</ele><time>2026-04-19T14:43:07.589Z</time></trkpt><trkpt lat="44.889831" lon="9.4861699"><ele>380.66666666666663</ele><time>2026-04-19T14:43:08.589Z</time></trkpt><trkpt lat="44.889766" lon="9.4861037"><ele>381.5</ele><time>2026-04-19T14:43:09.589Z</time></trkpt><trkpt lat="44.8896986" lon="9.4860474"><ele>382.3333333333333</ele><time>2026-04-19T14:43:10.589Z</time></trkpt><trkpt lat="44.8896201" lon="9.4860091"><ele>383.1666666666667</ele><time>2026-04-19T14:43:11.589Z</time></trkpt><trkpt lat="44.8895272" lon="9.4859986"><ele>384.0</ele><time>2026-04-19T14:43:12.589Z</time></trkpt><trkpt lat="44.8894359" lon="9.4860007"><ele>384.0</ele><time>2026-04-19T14:43:13.589Z</time></trkpt><trkpt lat="44.8893562" lon="9.4859873"><ele>384.0</ele><time>2026-04-19T14:43:14.589Z</time></trkpt><trkpt lat="44.8892891" lon="9.4859509"><ele>384.0</ele><time>2026-04-19T14:43:15.589Z</time></trkpt><trkpt lat="44.8892288" lon="9.4858865"><ele>384.0</ele><time>2026-04-19T14:43:16.589Z</time></trkpt><trkpt lat="44.8891702" lon="9.4858048"><ele>384.0</ele><time>2026-04-19T14:43:17.589Z</time></trkpt><trkpt lat="44.8891207" lon="9.4857165"><ele>384.0</ele><time>2026-04-19T14:43:18.589Z</time></trkpt><trkpt lat="44.8890788" lon="9.4856298"><ele>382.2857142857143</ele><time>2026-04-19T14:43:19.589Z</time></trkpt><trkpt lat="44.8890444" lon="9.4855535"><ele>380.57142857142856</ele><time>2026-04-19T14:43:20.589Z</time></trkpt><trkpt lat="44.8890077" lon="9.485474"><ele>378.8571428571429</ele><time>2026-04-19T14:43:21.589Z</time></trkpt><trkpt lat="44.8889658" lon="9.485396"><ele>377.1428571428571</ele><time>2026-04-19T14:43:22.589Z</time></trkpt><trkpt lat="44.8889156" lon="9.4853257"><ele>375.42857142857144</ele><time>2026-04-19T14:43:23.589Z</time></trkpt><trkpt lat="44.8888495" lon="9.4852833"><ele>373.7142857142857</ele><time>2026-04-19T14:43:24.589Z</time></trkpt><trkpt lat="44.8887716" lon="9.4852622"><ele>372.0</ele><time>2026-04-19T14:43:25.589Z</time></trkpt><trkpt lat="44.8886878" lon="9.485258"><ele>372.0</ele><time>2026-04-19T14:43:26.589Z</time></trkpt><trkpt lat="44.8885987" lon="9.4852562"><ele>372.0</ele><time>2026-04-19T14:43:27.589Z</time></trkpt><trkpt lat="44.8885126" lon="9.4852317"><ele>372.0</ele><time>2026-04-19T14:43:28.589Z</time></trkpt><trkpt lat="44.8884274" lon="9.4851926"><ele>372.0</ele><time>2026-04-19T14:43:29.589Z</time></trkpt><trkpt lat="44.8883432" lon="9.4851278"><ele>372.0</ele><time>2026-04-19T14:43:30.589Z</time></trkpt><trkpt lat="44.888258" lon="9.4850325"><ele>368.6</ele><time>2026-04-19T14:43:31.589Z</time></trkpt><trkpt lat="44.8881769" lon="9.484919"><ele>365.20000000000005</ele><time>2026-04-19T14:43:32.589Z</time></trkpt><trkpt lat="44.8880981" lon="9.4848171"><ele>361.8</ele><time>2026-04-19T14:43:33.589Z</time></trkpt><trkpt lat="44.8880173" lon="9.4847437"><ele>358.4</ele><time>2026-04-19T14:43:34.589Z</time></trkpt><trkpt lat="44.8879316" lon="9.4847018"><ele>355.0</ele><time>2026-04-19T14:43:35.589Z</time></trkpt><trkpt lat="44.8878416" lon="9.4846629"><ele>355.0</ele><time>2026-04-19T14:43:36.589Z</time></trkpt><trkpt lat="44.8877656" lon="9.4846172"><ele>355.0</ele><time>2026-04-19T14:43:37.589Z</time></trkpt><trkpt lat="44.8876943" lon="9.4845587"><ele>355.0</ele><time>2026-04-19T14:43:38.59Z</time></trkpt><trkpt lat="44.8876172" lon="9.4844892"><ele>355.0</ele><time>2026-04-19T14:43:39.589Z</time></trkpt><trkpt lat="44.8875369" lon="9.4844086"><ele>355.0</ele><time>2026-04-19T14:43:40.589Z</time></trkpt><trkpt lat="44.8874555" lon="9.4843289"><ele>355.8333333333333</ele><time>2026-04-19T14:43:41.589Z</time></trkpt><trkpt lat="44.8873798" lon="9.4842524"><ele>356.66666666666663</ele><time>2026-04-19T14:43:42.589Z</time></trkpt><trkpt lat="44.8873142" lon="9.4841827"><ele>357.5</ele><time>2026-04-19T14:43:43.589Z</time></trkpt><trkpt lat="44.8872648" lon="9.4841209"><ele>358.3333333333333</ele><time>2026-04-19T14:43:44.589Z</time></trkpt><trkpt lat="44.8872281" lon="9.4840479"><ele>359.1666666666667</ele><time>2026-04-19T14:43:45.589Z</time></trkpt><trkpt lat="44.8871924" lon="9.4839562"><ele>360.0</ele><time>2026-04-19T14:43:46.589Z</time></trkpt><trkpt lat="44.887159" lon="9.4838557"><ele>363.0</ele><time>2026-04-19T14:43:47.589Z</time></trkpt><trkpt lat="44.8871236" lon="9.4837476"><ele>366.0</ele><time>2026-04-19T14:43:48.589Z</time></trkpt><trkpt lat="44.8870819" lon="9.4836344"><ele>369.0</ele><time>2026-04-19T14:43:49.589Z</time></trkpt><trkpt lat="44.8870305" lon="9.4835177"><ele>372.0</ele><time>2026-04-19T14:43:50.589Z</time></trkpt><trkpt lat="44.8869662" lon="9.4834158"><ele>375.0</ele><time>2026-04-19T14:43:51.589Z</time></trkpt><trkpt lat="44.8868933" lon="9.4833189"><ele>375.0</ele><time>2026-04-19T14:43:52.591Z</time></trkpt><trkpt lat="44.8868055" lon="9.4832301"><ele>375.0</ele><time>2026-04-19T14:43:53.591Z</time></trkpt><trkpt lat="44.8867113" lon="9.4831426"><ele>375.0</ele><time>2026-04-19T14:43:54.591Z</time></trkpt><trkpt lat="44.8866109" lon="9.4830547"><ele>375.0</ele><time>2026-04-19T14:43:55.591Z</time></trkpt><trkpt lat="44.8865086" lon="9.4829706"><ele>373.0</ele><time>2026-04-19T14:43:56.591Z</time></trkpt><trkpt lat="44.8864046" lon="9.4828926"><ele>371.0</ele><time>2026-04-19T14:43:57.591Z</time></trkpt><trkpt lat="44.8863067" lon="9.4828196"><ele>369.0</ele><time>2026-04-19T14:43:58.591Z</time></trkpt><trkpt lat="44.8862139" lon="9.4827466"><ele>367.0</ele><time>2026-04-19T14:43:59.591Z</time></trkpt><trkpt lat="44.8861359" lon="9.4826708"><ele>365.0</ele><time>2026-04-19T14:44:00.591Z</time></trkpt><trkpt lat="44.8860796" lon="9.4825916"><ele>365.0</ele><time>2026-04-19T14:44:01.591Z</time></trkpt><trkpt lat="44.8860381" lon="9.4825068"><ele>365.0</ele><time>2026-04-19T14:44:02.591Z</time></trkpt><trkpt lat="44.8860162" lon="9.4824051"><ele>365.0</ele><time>2026-04-19T14:44:03.591Z</time></trkpt><trkpt lat="44.8860165" lon="9.4822958"><ele>365.0</ele><time>2026-04-19T14:44:04.591Z</time></trkpt><trkpt lat="44.8860249" lon="9.4821783"><ele>365.0</ele><time>2026-04-19T14:44:05.591Z</time></trkpt><trkpt lat="44.8860264" lon="9.482068"><ele>365.0</ele><time>2026-04-19T14:44:06.591Z</time></trkpt><trkpt lat="44.8860102" lon="9.4819773"><ele>363.8</ele><time>2026-04-19T14:44:07.592Z</time></trkpt><trkpt lat="44.8859329" lon="9.4818754"><ele>362.6</ele><time>2026-04-19T14:44:09.591Z</time></trkpt><trkpt lat="44.8858163" lon="9.4818792"><ele>361.4</ele><time>2026-04-19T14:44:11.591Z</time></trkpt><trkpt lat="44.8857407" lon="9.4819195"><ele>360.2</ele><time>2026-04-19T14:44:12.592Z</time></trkpt><trkpt lat="44.8856542" lon="9.4819762"><ele>359.0</ele><time>2026-04-19T14:44:13.591Z</time></trkpt><trkpt lat="44.8855671" lon="9.4820328"><ele>359.0</ele><time>2026-04-19T14:44:14.591Z</time></trkpt><trkpt lat="44.8854848" lon="9.482069"><ele>359.0</ele><time>2026-04-19T14:44:15.591Z</time></trkpt><trkpt lat="44.8854118" lon="9.4820896"><ele>359.0</ele><time>2026-04-19T14:44:16.591Z</time></trkpt><trkpt lat="44.8853453" lon="9.4820886"><ele>359.0</ele><time>2026-04-19T14:44:17.591Z</time></trkpt><trkpt lat="44.8852794" lon="9.482077"><ele>359.0</ele><time>2026-04-19T14:44:18.591Z</time></trkpt><trkpt lat="44.8852129" lon="9.4820502"><ele>359.0</ele><time>2026-04-19T14:44:19.591Z</time></trkpt><trkpt lat="44.8851483" lon="9.4820056"><ele>359.0</ele><time>2026-04-19T14:44:20.592Z</time></trkpt><trkpt lat="44.8850867" lon="9.4819458"><ele>358.2857142857143</ele><time>2026-04-19T14:44:21.591Z</time></trkpt><trkpt lat="44.8850289" lon="9.4818797"><ele>357.57142857142856</ele><time>2026-04-19T14:44:22.591Z</time></trkpt><trkpt lat="44.8849717" lon="9.4818152"><ele>356.8571428571429</ele><time>2026-04-19T14:44:23.591Z</time></trkpt><trkpt lat="44.8849168" lon="9.4817434"><ele>356.1428571428571</ele><time>2026-04-19T14:44:24.591Z</time></trkpt><trkpt lat="44.8848674" lon="9.4816694"><ele>355.4285714285714</ele><time>2026-04-19T14:44:25.592Z</time></trkpt><trkpt lat="44.8848161" lon="9.4815977"><ele>354.7142857142857</ele><time>2026-04-19T14:44:26.591Z</time></trkpt><trkpt lat="44.8847631" lon="9.481522"><ele>354.0</ele><time>2026-04-19T14:44:27.591Z</time></trkpt><trkpt lat="44.8847049" lon="9.4814441"><ele>354.0</ele><time>2026-04-19T14:44:28.592Z</time></trkpt><trkpt lat="44.8846414" lon="9.4813608"><ele>354.0</ele><time>2026-04-19T14:44:29.591Z</time></trkpt><trkpt lat="44.8845785" lon="9.4812714"><ele>354.0</ele><time>2026-04-19T14:44:30.591Z</time></trkpt><trkpt lat="44.8845133" lon="9.4811726"><ele>354.0</ele><time>2026-04-19T14:44:31.591Z</time></trkpt><trkpt lat="44.8844606" lon="9.4810811"><ele>354.0</ele><time>2026-04-19T14:44:32.591Z</time></trkpt><trkpt lat="44.8844101" lon="9.4809793"><ele>354.0</ele><time>2026-04-19T14:44:33.591Z</time></trkpt><trkpt lat="44.8843649" lon="9.4808606"><ele>353.6</ele><time>2026-04-19T14:44:34.591Z</time></trkpt><trkpt lat="44.884318" lon="9.4807347"><ele>353.2</ele><time>2026-04-19T14:44:35.591Z</time></trkpt><trkpt lat="44.8842685" lon="9.4806052"><ele>352.8</ele><time>2026-04-19T14:44:36.591Z</time></trkpt><trkpt lat="44.8842209" lon="9.4804766"><ele>352.40000000000003</ele><time>2026-04-19T14:44:37.591Z</time></trkpt><trkpt lat="44.8841766" lon="9.4803548"><ele>352.0</ele><time>2026-04-19T14:44:38.591Z</time></trkpt><trkpt lat="44.8841286" lon="9.4802381"><ele>353.0</ele><time>2026-04-19T14:44:39.592Z</time></trkpt><trkpt lat="44.8840852" lon="9.4801276"><ele>354.0</ele><time>2026-04-19T14:44:40.591Z</time></trkpt><trkpt lat="44.8840424" lon="9.4800183"><ele>355.0</ele><time>2026-04-19T14:44:41.591Z</time></trkpt><trkpt lat="44.8839991" lon="9.4799149"><ele>356.0</ele><time>2026-04-19T14:44:42.591Z</time></trkpt><trkpt lat="44.8839492" lon="9.4798315"><ele>357.0</ele><time>2026-04-19T14:44:43.591Z</time></trkpt><trkpt lat="44.8838892" lon="9.4797607"><ele>358.0</ele><time>2026-04-19T14:44:44.591Z</time></trkpt><trkpt lat="44.8838165" lon="9.4797154"><ele>358.0</ele><time>2026-04-19T14:44:45.591Z</time></trkpt><trkpt lat="44.883737" lon="9.4796957"><ele>358.0</ele><time>2026-04-19T14:44:46.591Z</time></trkpt><trkpt lat="44.8836475" lon="9.4796854"><ele>358.0</ele><time>2026-04-19T14:44:47.591Z</time></trkpt><trkpt lat="44.8835515" lon="9.4796697"><ele>358.0</ele><time>2026-04-19T14:44:48.591Z</time></trkpt><trkpt lat="44.8834554" lon="9.4796462"><ele>358.0</ele><time>2026-04-19T14:44:49.591Z</time></trkpt><trkpt lat="44.8833586" lon="9.4796144"><ele>362.0</ele><time>2026-04-19T14:44:50.591Z</time></trkpt><trkpt lat="44.8832618" lon="9.4795587"><ele>366.0</ele><time>2026-04-19T14:44:51.591Z</time></trkpt><trkpt lat="44.8831688" lon="9.4794849"><ele>370.0</ele><time>2026-04-19T14:44:52.591Z</time></trkpt><trkpt lat="44.8830748" lon="9.4794142"><ele>374.0</ele><time>2026-04-19T14:44:53.591Z</time></trkpt><trkpt lat="44.8829764" lon="9.479382"><ele>378.0</ele><time>2026-04-19T14:44:54.591Z</time></trkpt><trkpt lat="44.8828773" lon="9.4793732"><ele>378.0</ele><time>2026-04-19T14:44:55.592Z</time></trkpt><trkpt lat="44.8827821" lon="9.4793462"><ele>378.0</ele><time>2026-04-19T14:44:56.592Z</time></trkpt><trkpt lat="44.8826834" lon="9.4792919"><ele>378.0</ele><time>2026-04-19T14:44:57.591Z</time></trkpt><trkpt lat="44.8825778" lon="9.479231"><ele>378.0</ele><time>2026-04-19T14:44:58.591Z</time></trkpt><trkpt lat="44.8824765" lon="9.4791699"><ele>378.0</ele><time>2026-04-19T14:44:59.591Z</time></trkpt><trkpt lat="44.8823891" lon="9.4791127"><ele>377.8333333333333</ele><time>2026-04-19T14:45:00.591Z</time></trkpt><trkpt lat="44.8823056" lon="9.4790831"><ele>377.6666666666667</ele><time>2026-04-19T14:45:01.591Z</time></trkpt><trkpt lat="44.8822243" lon="9.4790655"><ele>377.5</ele><time>2026-04-19T14:45:02.591Z</time></trkpt><trkpt lat="44.8821485" lon="9.4790619"><ele>377.33333333333337</ele><time>2026-04-19T14:45:03.591Z</time></trkpt><trkpt lat="44.8820711" lon="9.4790444"><ele>377.1666666666667</ele><time>2026-04-19T14:45:04.591Z</time></trkpt><trkpt lat="44.8819955" lon="9.4790035"><ele>377.0</ele><time>2026-04-19T14:45:05.591Z</time></trkpt><trkpt lat="44.8819161" lon="9.4789342"><ele>377.0</ele><time>2026-04-19T14:45:06.591Z</time></trkpt><trkpt lat="44.8818231" lon="9.4788536"><ele>377.0</ele><time>2026-04-19T14:45:07.591Z</time></trkpt><trkpt lat="44.8817179" lon="9.4787804"><ele>377.0</ele><time>2026-04-19T14:45:08.592Z</time></trkpt><trkpt lat="44.8816016" lon="9.4787303"><ele>377.0</ele><time>2026-04-19T14:45:09.591Z</time></trkpt><trkpt lat="44.8814982" lon="9.478696"><ele>380.1666666666667</ele><time>2026-04-19T14:45:10.591Z</time></trkpt><trkpt lat="44.881414" lon="9.4786724"><ele>383.33333333333337</ele><time>2026-04-19T14:45:11.591Z</time></trkpt><trkpt lat="44.8813465" lon="9.4786478"><ele>386.5</ele><time>2026-04-19T14:45:12.591Z</time></trkpt><trkpt lat="44.8812485" lon="9.4785776"><ele>389.6666666666667</ele><time>2026-04-19T14:45:14.591Z</time></trkpt><trkpt lat="44.8811689" lon="9.4784692"><ele>392.8333333333333</ele><time>2026-04-19T14:45:16.591Z</time></trkpt><trkpt lat="44.8811242" lon="9.4784045"><ele>396.0</ele><time>2026-04-19T14:45:17.591Z</time></trkpt><trkpt lat="44.8810173" lon="9.4783154"><ele>393.0</ele><time>2026-04-19T14:45:19.591Z</time></trkpt><trkpt lat="44.8809247" lon="9.478201"><ele>390.0</ele><time>2026-04-19T14:45:21.591Z</time></trkpt><trkpt lat="44.8808728" lon="9.4780471"><ele>387.0</ele><time>2026-04-19T14:45:23.591Z</time></trkpt><trkpt lat="44.8807881" lon="9.4779333"><ele>384.0</ele><time>2026-04-19T14:45:25.592Z</time></trkpt><trkpt lat="44.8807214" lon="9.4779075"><ele>381.0</ele><time>2026-04-19T14:45:26.591Z</time></trkpt><trkpt lat="44.8806474" lon="9.4778932"><ele>386.0</ele><time>2026-04-19T14:45:27.591Z</time></trkpt><trkpt lat="44.8805679" lon="9.4778873"><ele>391.0</ele><time>2026-04-19T14:45:28.591Z</time></trkpt><trkpt lat="44.8804891" lon="9.4778764"><ele>396.0</ele><time>2026-04-19T14:45:29.592Z</time></trkpt><trkpt lat="44.8804121" lon="9.477871"><ele>401.0</ele><time>2026-04-19T14:45:30.591Z</time></trkpt><trkpt lat="44.8803367" lon="9.477857"><ele>406.0</ele><time>2026-04-19T14:45:31.591Z</time></trkpt><trkpt lat="44.8802647" lon="9.4778513"><ele>411.0</ele><time>2026-04-19T14:45:32.592Z</time></trkpt><trkpt lat="44.88019" lon="9.4778564"><ele>411.0</ele><time>2026-04-19T14:45:33.591Z</time></trkpt><trkpt lat="44.8801177" lon="9.4778785"><ele>411.0</ele><time>2026-04-19T14:45:34.591Z</time></trkpt><trkpt lat="44.8800476" lon="9.4779026"><ele>411.0</ele><time>2026-04-19T14:45:35.591Z</time></trkpt><trkpt lat="44.8799237" lon="9.4778824"><ele>411.0</ele><time>2026-04-19T14:45:37.591Z</time></trkpt><trkpt lat="44.8798683" lon="9.4778294"><ele>411.0</ele><time>2026-04-19T14:45:38.591Z</time></trkpt><trkpt lat="44.879823" lon="9.4777486"><ele>411.0</ele><time>2026-04-19T14:45:39.591Z</time></trkpt><trkpt lat="44.8797722" lon="9.4776644"><ele>410.3333333333333</ele><time>2026-04-19T14:45:40.591Z</time></trkpt><trkpt lat="44.8797143" lon="9.4775804"><ele>409.66666666666663</ele><time>2026-04-19T14:45:41.591Z</time></trkpt><trkpt lat="44.8796568" lon="9.4775002"><ele>409.0</ele><time>2026-04-19T14:45:42.591Z</time></trkpt><trkpt lat="44.8796046" lon="9.477416"><ele>408.3333333333333</ele><time>2026-04-19T14:45:43.591Z</time></trkpt><trkpt lat="44.8795477" lon="9.4773307"><ele>407.66666666666663</ele><time>2026-04-19T14:45:44.592Z</time></trkpt><trkpt lat="44.8794909" lon="9.4772527"><ele>407.0</ele><time>2026-04-19T14:45:45.591Z</time></trkpt><trkpt lat="44.8794443" lon="9.4771809"><ele>407.00000000000006</ele><time>2026-04-19T14:45:46.592Z</time></trkpt><trkpt lat="44.8793996" lon="9.4771048"><ele>407.0</ele><time>2026-04-19T14:45:47.591Z</time></trkpt><trkpt lat="44.879358" lon="9.4770317"><ele>407.0</ele><time>2026-04-19T14:45:48.591Z</time></trkpt><trkpt lat="44.8793224" lon="9.476947"><ele>407.0</ele><time>2026-04-19T14:45:49.591Z</time></trkpt><trkpt lat="44.8792973" lon="9.4768558"><ele>407.0</ele><time>2026-04-19T14:45:50.591Z</time></trkpt><trkpt lat="44.8792637" lon="9.4767609"><ele>407.00000000000006</ele><time>2026-04-19T14:45:51.591Z</time></trkpt><trkpt lat="44.8792245" lon="9.476672"><ele>407.0</ele><time>2026-04-19T14:45:52.591Z</time></trkpt><trkpt lat="44.8791024" lon="9.4765967"><ele>406.5714285714286</ele><time>2026-04-19T14:45:54.591Z</time></trkpt><trkpt lat="44.879033" lon="9.4765656"><ele>406.14285714285717</ele><time>2026-04-19T14:45:55.591Z</time></trkpt><trkpt lat="44.8789675" lon="9.4765226"><ele>405.7142857142857</ele><time>2026-04-19T14:45:56.591Z</time></trkpt><trkpt lat="44.8789213" lon="9.4764569"><ele>405.28571428571433</ele><time>2026-04-19T14:45:57.591Z</time></trkpt><trkpt lat="44.8788859" lon="9.4763742"><ele>404.85714285714283</ele><time>2026-04-19T14:45:58.591Z</time></trkpt><trkpt lat="44.8788517" lon="9.476284"><ele>404.42857142857144</ele><time>2026-04-19T14:45:59.592Z</time></trkpt><trkpt lat="44.8788285" lon="9.4761817"><ele>404.0</ele><time>2026-04-19T14:46:00.591Z</time></trkpt><trkpt lat="44.878818" lon="9.4760812"><ele>405.85714285714283</ele><time>2026-04-19T14:46:01.591Z</time></trkpt><trkpt lat="44.8788208" lon="9.4759793"><ele>407.71428571428567</ele><time>2026-04-19T14:46:02.591Z</time></trkpt><trkpt lat="44.8788318" lon="9.4758787"><ele>409.57142857142856</ele><time>2026-04-19T14:46:03.591Z</time></trkpt><trkpt lat="44.878849" lon="9.4757816"><ele>411.42857142857144</ele><time>2026-04-19T14:46:04.591Z</time></trkpt><trkpt lat="44.8788692" lon="9.4756853"><ele>413.2857142857143</ele><time>2026-04-19T14:46:05.591Z</time></trkpt><trkpt lat="44.8788743" lon="9.4755912"><ele>415.14285714285717</ele><time>2026-04-19T14:46:06.591Z</time></trkpt><trkpt lat="44.8788597" lon="9.4754929"><ele>417.0</ele><time>2026-04-19T14:46:07.591Z</time></trkpt><trkpt lat="44.8788386" lon="9.4753944"><ele>418.0</ele><time>2026-04-19T14:46:08.592Z</time></trkpt><trkpt lat="44.8788073" lon="9.4752904"><ele>419.0</ele><time>2026-04-19T14:46:09.591Z</time></trkpt><trkpt lat="44.8787737" lon="9.4751881"><ele>420.0</ele><time>2026-04-19T14:46:10.591Z</time></trkpt><trkpt lat="44.8787478" lon="9.4750874"><ele>421.0</ele><time>2026-04-19T14:46:11.591Z</time></trkpt><trkpt lat="44.8787179" lon="9.4749907"><ele>422.0</ele><time>2026-04-19T14:46:12.591Z</time></trkpt><trkpt lat="44.8786691" lon="9.4749113"><ele>423.0</ele><time>2026-04-19T14:46:13.591Z</time></trkpt><trkpt lat="44.8786103" lon="9.4748462"><ele>423.0</ele><time>2026-04-19T14:46:14.591Z</time></trkpt><trkpt lat="44.8785441" lon="9.474792"><ele>423.0</ele><time>2026-04-19T14:46:15.592Z</time></trkpt><trkpt lat="44.878491" lon="9.4747306"><ele>423.0</ele><time>2026-04-19T14:46:16.591Z</time></trkpt><trkpt lat="44.8784484" lon="9.4746613"><ele>423.0</ele><time>2026-04-19T14:46:17.591Z</time></trkpt><trkpt lat="44.8784204" lon="9.4745755"><ele>423.0</ele><time>2026-04-19T14:46:18.591Z</time></trkpt><trkpt lat="44.8784055" lon="9.4744798"><ele>423.0</ele><time>2026-04-19T14:46:19.591Z</time></trkpt><trkpt lat="44.8784062" lon="9.4743801"><ele>423.0</ele><time>2026-04-19T14:46:20.591Z</time></trkpt><trkpt lat="44.8784186" lon="9.474256"><ele>424.79999999999995</ele><time>2026-04-19T14:46:21.591Z</time></trkpt><trkpt lat="44.8784394" lon="9.4741228"><ele>426.6</ele><time>2026-04-19T14:46:22.591Z</time></trkpt><trkpt lat="44.878462" lon="9.4739886"><ele>428.40000000000003</ele><time>2026-04-19T14:46:23.592Z</time></trkpt><trkpt lat="44.8784909" lon="9.47386"><ele>430.20000000000005</ele><time>2026-04-19T14:46:24.591Z</time></trkpt><trkpt lat="44.878516" lon="9.4737404"><ele>432.0</ele><time>2026-04-19T14:46:25.591Z</time></trkpt><trkpt lat="44.8785308" lon="9.4736324"><ele>433.42857142857144</ele><time>2026-04-19T14:46:26.592Z</time></trkpt><trkpt lat="44.8785351" lon="9.4735273"><ele>434.85714285714283</ele><time>2026-04-19T14:46:27.591Z</time></trkpt><trkpt lat="44.8785232" lon="9.4734252"><ele>436.28571428571433</ele><time>2026-04-19T14:46:28.591Z</time></trkpt><trkpt lat="44.8784925" lon="9.4733238"><ele>437.7142857142857</ele><time>2026-04-19T14:46:29.591Z</time></trkpt><trkpt lat="44.8784717" lon="9.4732285"><ele>439.14285714285717</ele><time>2026-04-19T14:46:30.592Z</time></trkpt><trkpt lat="44.8784679" lon="9.4731278"><ele>440.5714285714286</ele><time>2026-04-19T14:46:31.591Z</time></trkpt><trkpt lat="44.8784816" lon="9.4730326"><ele>442.0</ele><time>2026-04-19T14:46:32.591Z</time></trkpt><trkpt lat="44.8785162" lon="9.4729464"><ele>442.6666666666667</ele><time>2026-04-19T14:46:33.591Z</time></trkpt><trkpt lat="44.8785634" lon="9.4728637"><ele>443.33333333333337</ele><time>2026-04-19T14:46:34.591Z</time></trkpt><trkpt lat="44.8786244" lon="9.4727809"><ele>444.0</ele><time>2026-04-19T14:46:35.591Z</time></trkpt><trkpt lat="44.8786836" lon="9.4727101"><ele>444.66666666666663</ele><time>2026-04-19T14:46:36.591Z</time></trkpt><trkpt lat="44.8787333" lon="9.4726287"><ele>445.3333333333333</ele><time>2026-04-19T14:46:37.591Z</time></trkpt><trkpt lat="44.8787602" lon="9.4725338"><ele>446.0</ele><time>2026-04-19T14:46:38.591Z</time></trkpt><trkpt lat="44.8787718" lon="9.4724289"><ele>445.99999999999994</ele><time>2026-04-19T14:46:39.591Z</time></trkpt><trkpt lat="44.8787638" lon="9.4723189"><ele>446.0</ele><time>2026-04-19T14:46:40.591Z</time></trkpt><trkpt lat="44.8787471" lon="9.4722146"><ele>446.0</ele><time>2026-04-19T14:46:41.591Z</time></trkpt><trkpt lat="44.8787038" lon="9.4721281"><ele>446.0</ele><time>2026-04-19T14:46:42.591Z</time></trkpt><trkpt lat="44.8786522" lon="9.4720483"><ele>445.99999999999994</ele><time>2026-04-19T14:46:43.592Z</time></trkpt><trkpt lat="44.8785966" lon="9.4719716"><ele>446.0</ele><time>2026-04-19T14:46:44.591Z</time></trkpt><trkpt lat="44.8785497" lon="9.4718858"><ele>448.49999999999994</ele><time>2026-04-19T14:46:45.591Z</time></trkpt><trkpt lat="44.8785146" lon="9.4717841"><ele>451.0</ele><time>2026-04-19T14:46:46.591Z</time></trkpt><trkpt lat="44.8784867" lon="9.4716779"><ele>453.5</ele><time>2026-04-19T14:46:47.591Z</time></trkpt><trkpt lat="44.8784542" lon="9.4715738"><ele>456.0</ele><time>2026-04-19T14:46:48.591Z</time></trkpt><trkpt lat="44.8784227" lon="9.4714628"><ele>458.49999999999994</ele><time>2026-04-19T14:46:49.591Z</time></trkpt><trkpt lat="44.8783912" lon="9.4713478"><ele>461.0</ele><time>2026-04-19T14:46:50.591Z</time></trkpt><trkpt lat="44.8783649" lon="9.4712252"><ele>454.8</ele><time>2026-04-19T14:46:51.591Z</time></trkpt><trkpt lat="44.8783425" lon="9.4710959"><ele>448.6</ele><time>2026-04-19T14:46:52.592Z</time></trkpt><trkpt lat="44.8783209" lon="9.4709611"><ele>442.4</ele><time>2026-04-19T14:46:53.591Z</time></trkpt><trkpt lat="44.8782966" lon="9.4708267"><ele>436.2</ele><time>2026-04-19T14:46:54.591Z</time></trkpt><trkpt lat="44.8782744" lon="9.4706947"><ele>430.0</ele><time>2026-04-19T14:46:55.592Z</time></trkpt><trkpt lat="44.8782504" lon="9.4705569"><ele>431.1666666666667</ele><time>2026-04-19T14:46:56.592Z</time></trkpt><trkpt lat="44.8782315" lon="9.4704133"><ele>432.33333333333337</ele><time>2026-04-19T14:46:57.591Z</time></trkpt><trkpt lat="44.8782146" lon="9.4702854"><ele>433.5</ele><time>2026-04-19T14:46:58.591Z</time></trkpt><trkpt lat="44.8782" lon="9.4701749"><ele>434.66666666666663</ele><time>2026-04-19T14:46:59.591Z</time></trkpt><trkpt lat="44.8781845" lon="9.4700744"><ele>435.8333333333333</ele><time>2026-04-19T14:47:00.592Z</time></trkpt><trkpt lat="44.8781754" lon="9.4699783"><ele>437.0</ele><time>2026-04-19T14:47:01.591Z</time></trkpt><trkpt lat="44.8781792" lon="9.4698814"><ele>436.99999999999994</ele><time>2026-04-19T14:47:02.591Z</time></trkpt><trkpt lat="44.8782011" lon="9.4697935"><ele>437.0</ele><time>2026-04-19T14:47:03.591Z</time></trkpt><trkpt lat="44.8782433" lon="9.4697085"><ele>437.0</ele><time>2026-04-19T14:47:04.591Z</time></trkpt><trkpt lat="44.8783049" lon="9.4696274"><ele>437.0</ele><time>2026-04-19T14:47:05.591Z</time></trkpt><trkpt lat="44.8783789" lon="9.4695553"><ele>436.99999999999994</ele><time>2026-04-19T14:47:06.591Z</time></trkpt><trkpt lat="44.8784467" lon="9.4694933"><ele>437.0</ele><time>2026-04-19T14:47:07.591Z</time></trkpt><trkpt lat="44.8785036" lon="9.4694368"><ele>436.49999999999994</ele><time>2026-04-19T14:47:08.592Z</time></trkpt><trkpt lat="44.8785585" lon="9.4692894"><ele>436.0</ele><time>2026-04-19T14:47:10.591Z</time></trkpt><trkpt lat="44.8785508" lon="9.4691995"><ele>435.5</ele><time>2026-04-19T14:47:11.591Z</time></trkpt><trkpt lat="44.8785257" lon="9.4691035"><ele>435.0</ele><time>2026-04-19T14:47:12.591Z</time></trkpt><trkpt lat="44.8784888" lon="9.469004"><ele>434.49999999999994</ele><time>2026-04-19T14:47:13.592Z</time></trkpt><trkpt lat="44.8784481" lon="9.4688996"><ele>434.0</ele><time>2026-04-19T14:47:14.591Z</time></trkpt><trkpt lat="44.8784192" lon="9.4687895"><ele>435.16666666666663</ele><time>2026-04-19T14:47:15.591Z</time></trkpt><trkpt lat="44.8784013" lon="9.4686783"><ele>436.3333333333333</ele><time>2026-04-19T14:47:16.591Z</time></trkpt><trkpt lat="44.8783932" lon="9.4685731"><ele>437.5</ele><time>2026-04-19T14:47:17.591Z</time></trkpt><trkpt lat="44.8783829" lon="9.468409"><ele>438.66666666666663</ele><time>2026-04-19T14:47:19.591Z</time></trkpt><trkpt lat="44.8783746" lon="9.4683197"><ele>439.8333333333333</ele><time>2026-04-19T14:47:20.591Z</time></trkpt><trkpt lat="44.878362" lon="9.4682184"><ele>441.0</ele><time>2026-04-19T14:47:21.591Z</time></trkpt><trkpt lat="44.8783511" lon="9.468108"><ele>441.0</ele><time>2026-04-19T14:47:22.591Z</time></trkpt><trkpt lat="44.8783446" lon="9.4679939"><ele>441.0</ele><time>2026-04-19T14:47:23.592Z</time></trkpt><trkpt lat="44.8783526" lon="9.4679"><ele>441.0</ele><time>2026-04-19T14:47:24.591Z</time></trkpt><trkpt lat="44.878392" lon="9.4677726"><ele>441.0</ele><time>2026-04-19T14:47:26.591Z</time></trkpt><trkpt lat="44.8784564" lon="9.4676989"><ele>441.0</ele><time>2026-04-19T14:47:28.591Z</time></trkpt><trkpt lat="44.8785286" lon="9.4677061"><ele>441.0</ele><time>2026-04-19T14:47:30.591Z</time></trkpt><trkpt lat="44.8785611" lon="9.4678061"><ele>445.20000000000005</ele><time>2026-04-19T14:47:32.591Z</time></trkpt><trkpt lat="44.8785979" lon="9.4679392"><ele>449.40000000000003</ele><time>2026-04-19T14:47:34.591Z</time></trkpt><trkpt lat="44.8786739" lon="9.4680701"><ele>453.6</ele><time>2026-04-19T14:47:36.591Z</time></trkpt><trkpt lat="44.8787486" lon="9.4682064"><ele>457.8</ele><time>2026-04-19T14:47:38.591Z</time></trkpt><trkpt lat="44.8787935" lon="9.4682735"><ele>462.0</ele><time>2026-04-19T14:47:39.591Z</time></trkpt><trkpt lat="44.8788928" lon="9.4683765"><ele>462.0</ele><time>2026-04-19T14:47:41.591Z</time></trkpt><trkpt lat="44.8789504" lon="9.4684248"><ele>462.0</ele><time>2026-04-19T14:47:42.591Z</time></trkpt><trkpt lat="44.8790465" lon="9.4684992"><ele>462.0</ele><time>2026-04-19T14:47:44.591Z</time></trkpt><trkpt lat="44.8791247" lon="9.4684981"><ele>462.0</ele><time>2026-04-19T14:47:46.591Z</time></trkpt><trkpt lat="44.8791755" lon="9.46841"><ele>462.0</ele><time>2026-04-19T14:47:48.591Z</time></trkpt><trkpt lat="44.8791853" lon="9.4682793"><ele>462.0</ele><time>2026-04-19T14:47:50.591Z</time></trkpt><trkpt lat="44.87919" lon="9.4681293"><ele>462.0</ele><time>2026-04-19T14:47:52.591Z</time></trkpt><trkpt lat="44.8792124" lon="9.4679798"><ele>462.00000000000006</ele><time>2026-04-19T14:47:54.591Z</time></trkpt><trkpt lat="44.8792157" lon="9.4678449"><ele>462.00000000000006</ele><time>2026-04-19T14:47:56.591Z</time></trkpt><trkpt lat="44.8791669" lon="9.4677086"><ele>462.0</ele><time>2026-04-19T14:47:58.591Z</time></trkpt><trkpt lat="44.8791083" lon="9.4675752"><ele>462.0</ele><time>2026-04-19T14:48:00.591Z</time></trkpt><trkpt lat="44.8791058" lon="9.4674457"><ele>462.40000000000003</ele><time>2026-04-19T14:48:02.591Z</time></trkpt><trkpt lat="44.8791473" lon="9.4673269"><ele>462.80000000000007</ele><time>2026-04-19T14:48:04.591Z</time></trkpt><trkpt lat="44.8792209" lon="9.4672015"><ele>463.2</ele><time>2026-04-19T14:48:06.591Z</time></trkpt><trkpt lat="44.8792637" lon="9.467136"><ele>463.6</ele><time>2026-04-19T14:48:07.591Z</time></trkpt><trkpt lat="44.8793568" lon="9.4670318"><ele>464.0</ele><time>2026-04-19T14:48:09.591Z</time></trkpt><trkpt lat="44.8794455" lon="9.4669624"><ele>467.49999999999994</ele><time>2026-04-19T14:48:11.591Z</time></trkpt><trkpt lat="44.8795484" lon="9.4669301"><ele>471.0</ele><time>2026-04-19T14:48:13.591Z</time></trkpt><trkpt lat="44.8796116" lon="9.4669731"><ele>474.5</ele><time>2026-04-19T14:48:15.591Z</time></trkpt><trkpt lat="44.8796383" lon="9.4670746"><ele>478.0</ele><time>2026-04-19T14:48:17.592Z</time></trkpt><trkpt lat="44.8796028" lon="9.4671798"><ele>481.49999999999994</ele><time>2026-04-19T14:48:19.591Z</time></trkpt><trkpt lat="44.8795713" lon="9.4673196"><ele>485.0</ele><time>2026-04-19T14:48:21.591Z</time></trkpt><trkpt lat="44.8795969" lon="9.4674525"><ele>485.49999999999994</ele><time>2026-04-19T14:48:23.591Z</time></trkpt><trkpt lat="44.8796681" lon="9.4675921"><ele>486.0</ele><time>2026-04-19T14:48:25.591Z</time></trkpt><trkpt lat="44.8797152" lon="9.4676724"><ele>486.5</ele><time>2026-04-19T14:48:26.591Z</time></trkpt><trkpt lat="44.8797596" lon="9.4677625"><ele>487.0</ele><time>2026-04-19T14:48:27.591Z</time></trkpt><trkpt lat="44.8797975" lon="9.4678548"><ele>487.49999999999994</ele><time>2026-04-19T14:48:28.591Z</time></trkpt><trkpt lat="44.879831" lon="9.4679441"><ele>488.0</ele><time>2026-04-19T14:48:29.591Z</time></trkpt><trkpt lat="44.8798928" lon="9.4680449"><ele>487.99999999999994</ele><time>2026-04-19T14:48:31.591Z</time></trkpt><trkpt lat="44.8799614" lon="9.4680363"><ele>488.0</ele><time>2026-04-19T14:48:33.591Z</time></trkpt><trkpt lat="44.8799909" lon="9.4679489"><ele>488.0</ele><time>2026-04-19T14:48:35.591Z</time></trkpt><trkpt lat="44.8799659" lon="9.4678231"><ele>488.0</ele><time>2026-04-19T14:48:37.592Z</time></trkpt><trkpt lat="44.8799214" lon="9.4676887"><ele>487.99999999999994</ele><time>2026-04-19T14:48:39.591Z</time></trkpt><trkpt lat="44.879908" lon="9.4675798"><ele>488.0</ele><time>2026-04-19T14:48:41.591Z</time></trkpt><trkpt lat="44.8799559" lon="9.4675154"><ele>488.0</ele><time>2026-04-19T14:48:43.591Z</time></trkpt><trkpt lat="44.8800209" lon="9.4675655"><ele>487.99999999999994</ele><time>2026-04-19T14:48:45.591Z</time></trkpt><trkpt lat="44.8800593" lon="9.467677"><ele>487.99999999999994</ele><time>2026-04-19T14:48:47.591Z</time></trkpt><trkpt lat="44.8801299" lon="9.4677853"><ele>488.0</ele><time>2026-04-19T14:48:49.591Z</time></trkpt><trkpt lat="44.880228" lon="9.4678708"><ele>488.0</ele><time>2026-04-19T14:48:51.591Z</time></trkpt><trkpt lat="44.8803101" lon="9.4679752"><ele>493.3333333333333</ele><time>2026-04-19T14:48:53.591Z</time></trkpt><trkpt lat="44.880363" lon="9.4681159"><ele>498.66666666666663</ele><time>2026-04-19T14:48:55.591Z</time></trkpt><trkpt lat="44.8803819" lon="9.4682842"><ele>504.0</ele><time>2026-04-19T14:48:57.591Z</time></trkpt><trkpt lat="44.8803832" lon="9.4683761"><ele>509.33333333333337</ele><time>2026-04-19T14:48:58.591Z</time></trkpt><trkpt lat="44.8803718" lon="9.468467"><ele>514.6666666666667</ele><time>2026-04-19T14:48:59.591Z</time></trkpt><trkpt lat="44.8803496" lon="9.4685532"><ele>520.0</ele><time>2026-04-19T14:49:00.591Z</time></trkpt><trkpt lat="44.8803177" lon="9.4686393"><ele>520.0</ele><time>2026-04-19T14:49:01.591Z</time></trkpt><trkpt lat="44.8802772" lon="9.4687184"><ele>520.0</ele><time>2026-04-19T14:49:02.592Z</time></trkpt><trkpt lat="44.8802125" lon="9.4688477"><ele>520.0</ele><time>2026-04-19T14:49:04.591Z</time></trkpt><trkpt lat="44.8801877" lon="9.4689635"><ele>520.0</ele><time>2026-04-19T14:49:06.592Z</time></trkpt><trkpt lat="44.880241" lon="9.469025"><ele>520.0</ele><time>2026-04-19T14:49:08.591Z</time></trkpt><trkpt lat="44.8803081" lon="9.4689916"><ele>520.0</ele><time>2026-04-19T14:49:10.591Z</time></trkpt><trkpt lat="44.8803804" lon="9.4688932"><ele>520.0</ele><time>2026-04-19T14:49:12.591Z</time></trkpt><trkpt lat="44.8804583" lon="9.4687544"><ele>520.0</ele><time>2026-04-19T14:49:14.591Z</time></trkpt><trkpt lat="44.8804984" lon="9.4686701"><ele>520.0</ele><time>2026-04-19T14:49:15.591Z</time></trkpt><trkpt lat="44.8805327" lon="9.4685753"><ele>520.0</ele><time>2026-04-19T14:49:16.591Z</time></trkpt><trkpt lat="44.8805559" lon="9.4684771"><ele>520.0</ele><time>2026-04-19T14:49:17.591Z</time></trkpt><trkpt lat="44.8805777" lon="9.4683805"><ele>520.0</ele><time>2026-04-19T14:49:18.591Z</time></trkpt><trkpt lat="44.8806018" lon="9.4682868"><ele>520.0</ele><time>2026-04-19T14:49:19.591Z</time></trkpt><trkpt lat="44.8806247" lon="9.468193"><ele>520.0</ele><time>2026-04-19T14:49:20.591Z</time></trkpt><trkpt lat="44.8806494" lon="9.4680977"><ele>520.0</ele><time>2026-04-19T14:49:21.591Z</time></trkpt><trkpt lat="44.8806685" lon="9.4680067"><ele>520.0</ele><time>2026-04-19T14:49:22.591Z</time></trkpt><trkpt lat="44.8806805" lon="9.4679193"><ele>520.0</ele><time>2026-04-19T14:49:23.591Z</time></trkpt><trkpt lat="44.8807038" lon="9.4677582"><ele>520.0</ele><time>2026-04-19T14:49:25.591Z</time></trkpt><trkpt lat="44.8807408" lon="9.4676097"><ele>518.6</ele><time>2026-04-19T14:49:27.591Z</time></trkpt><trkpt lat="44.880802" lon="9.4674762"><ele>517.2</ele><time>2026-04-19T14:49:29.591Z</time></trkpt><trkpt lat="44.8808826" lon="9.4674157"><ele>515.8</ele><time>2026-04-19T14:49:31.591Z</time></trkpt><trkpt lat="44.880959" lon="9.4674776"><ele>514.4</ele><time>2026-04-19T14:49:33.591Z</time></trkpt><trkpt lat="44.8809463" lon="9.4675962"><ele>513.0</ele><time>2026-04-19T14:49:35.591Z</time></trkpt><trkpt lat="44.8808971" lon="9.4677413"><ele>513.0000000000001</ele><time>2026-04-19T14:49:37.591Z</time></trkpt><trkpt lat="44.8808763" lon="9.4679081"><ele>513.0</ele><time>2026-04-19T14:49:39.591Z</time></trkpt><trkpt lat="44.8808756" lon="9.4679996"><ele>513.0</ele><time>2026-04-19T14:49:40.591Z</time></trkpt><trkpt lat="44.8808906" lon="9.4680914"><ele>513.0</ele><time>2026-04-19T14:49:41.591Z</time></trkpt><trkpt lat="44.8809107" lon="9.4681809"><ele>513.0</ele><time>2026-04-19T14:49:42.591Z</time></trkpt><trkpt lat="44.8809308" lon="9.4682707"><ele>513.0000000000001</ele><time>2026-04-19T14:49:43.591Z</time></trkpt><trkpt lat="44.8809475" lon="9.4683568"><ele>513.0</ele><time>2026-04-19T14:49:44.591Z</time></trkpt><trkpt lat="44.8809663" lon="9.4684524"><ele>518.4</ele><time>2026-04-19T14:49:45.591Z</time></trkpt><trkpt lat="44.8809863" lon="9.4685513"><ele>523.8</ele><time>2026-04-19T14:49:46.591Z</time></trkpt><trkpt lat="44.8810117" lon="9.4687223"><ele>529.2</ele><time>2026-04-19T14:49:48.591Z</time></trkpt><trkpt lat="44.8810374" lon="9.4688894"><ele>534.6</ele><time>2026-04-19T14:49:50.592Z</time></trkpt><trkpt lat="44.8810962" lon="9.4690066"><ele>540.0</ele><time>2026-04-19T14:49:52.591Z</time></trkpt><trkpt lat="44.881186" lon="9.4690205"><ele>540.0</ele><time>2026-04-19T14:49:54.591Z</time></trkpt><trkpt lat="44.8812394" lon="9.4689146"><ele>540.0</ele><time>2026-04-19T14:49:56.591Z</time></trkpt><trkpt lat="44.8812597" lon="9.468746"><ele>540.0</ele><time>2026-04-19T14:49:58.591Z</time></trkpt><trkpt lat="44.8812838" lon="9.4685867"><ele>540.0</ele><time>2026-04-19T14:50:00.591Z</time></trkpt><trkpt lat="44.8813334" lon="9.4684558"><ele>540.0</ele><time>2026-04-19T14:50:02.591Z</time></trkpt><trkpt lat="44.8814071" lon="9.4683868"><ele>540.0</ele><time>2026-04-19T14:50:04.591Z</time></trkpt><trkpt lat="44.8814977" lon="9.468423"><ele>540.0</ele><time>2026-04-19T14:50:06.592Z</time></trkpt><trkpt lat="44.8815617" lon="9.4684546"><ele>540.0</ele><time>2026-04-19T14:50:07.591Z</time></trkpt><trkpt lat="44.8816336" lon="9.468485"><ele>540.0</ele><time>2026-04-19T14:50:08.591Z</time></trkpt><trkpt lat="44.8817091" lon="9.4685028"><ele>540.0</ele><time>2026-04-19T14:50:09.591Z</time></trkpt><trkpt lat="44.8818147" lon="9.4685185"><ele>540.0</ele><time>2026-04-19T14:50:11.591Z</time></trkpt><trkpt lat="44.8818567" lon="9.4684517"><ele>541.6</ele><time>2026-04-19T14:52:33.877Z</time></trkpt><trkpt lat="44.8818632" lon="9.4683022"><ele>543.2</ele><time>2026-04-19T14:52:35.903Z</time></trkpt><trkpt lat="44.8818713" lon="9.4681853"><ele>544.8</ele><time>2026-04-19T14:52:36.961Z</time></trkpt><trkpt lat="44.8818941" lon="9.4680543"><ele>546.4</ele><time>2026-04-19T14:52:37.964Z</time></trkpt><trkpt lat="44.8819385" lon="9.4679136"><ele>548.0</ele><time>2026-04-19T14:52:38.979Z</time></trkpt><trkpt lat="44.8820198" lon="9.4677623"><ele>548.0</ele><time>2026-04-19T14:52:40.116Z</time></trkpt><trkpt lat="44.8821054" lon="9.4676341"><ele>548.0</ele><time>2026-04-19T14:52:41.028Z</time></trkpt><trkpt lat="44.8821948" lon="9.4674861"><ele>548.0</ele><time>2026-04-19T14:52:42.048Z</time></trkpt><trkpt lat="44.8822623" lon="9.4673548"><ele>548.0</ele><time>2026-04-19T14:52:43.009Z</time></trkpt><trkpt lat="44.8823189" lon="9.4672388"><ele>548.0000000000001</ele><time>2026-04-19T14:52:44Z</time></trkpt><trkpt lat="44.8823706" lon="9.4671379"><ele>548.0</ele><time>2026-04-19T14:52:45.05Z</time></trkpt><trkpt lat="44.8824166" lon="9.4670701"><ele>548.0</ele><time>2026-04-19T14:52:46.027Z</time></trkpt><trkpt lat="44.8824752" lon="9.4670105"><ele>548.0</ele><time>2026-04-19T14:52:47.043Z</time></trkpt><trkpt lat="44.8825276" lon="9.4669562"><ele>548.0</ele><time>2026-04-19T14:52:47.964Z</time></trkpt><trkpt lat="44.8825856" lon="9.4669087"><ele>548.0000000000001</ele><time>2026-04-19T14:52:48.98Z</time></trkpt><trkpt lat="44.8826396" lon="9.4668573"><ele>548.0</ele><time>2026-04-19T14:52:50.012Z</time></trkpt><trkpt lat="44.8827076" lon="9.4667799"><ele>549.1666666666666</ele><time>2026-04-19T14:52:52.061Z</time></trkpt><trkpt lat="44.8827529" lon="9.4666888"><ele>550.3333333333333</ele><time>2026-04-19T14:52:55.146Z</time></trkpt><trkpt lat="44.8828081" lon="9.4665801"><ele>551.5</ele><time>2026-04-19T14:53:05.006Z</time></trkpt><trkpt lat="44.8828381" lon="9.4664996"><ele>552.6666666666666</ele><time>2026-04-19T14:53:06.983Z</time></trkpt><trkpt lat="44.882874" lon="9.4663848"><ele>553.8333333333334</ele><time>2026-04-19T14:53:09.027Z</time></trkpt><trkpt lat="44.8828934" lon="9.4662849"><ele>555.0</ele><time>2026-04-19T14:53:10.004Z</time></trkpt><trkpt lat="44.8829139" lon="9.4661485"><ele>555.0</ele><time>2026-04-19T14:53:11.035Z</time></trkpt><trkpt lat="44.8829356" lon="9.4660087"><ele>555.0</ele><time>2026-04-19T14:53:11.988Z</time></trkpt><trkpt lat="44.8829694" lon="9.4658702"><ele>555.0</ele><time>2026-04-19T14:53:13.006Z</time></trkpt><trkpt lat="44.8830113" lon="9.4657392"><ele>555.0</ele><time>2026-04-19T14:53:14.052Z</time></trkpt><trkpt lat="44.883044" lon="9.4656269"><ele>555.0</ele><time>2026-04-19T14:53:14.992Z</time></trkpt><trkpt lat="44.8830597" lon="9.4655075"><ele>554.8333333333334</ele><time>2026-04-19T14:53:16.035Z</time></trkpt><trkpt lat="44.8830549" lon="9.4653911"><ele>554.6666666666666</ele><time>2026-04-19T14:53:17.036Z</time></trkpt><trkpt lat="44.8830271" lon="9.4652731"><ele>554.5</ele><time>2026-04-19T14:53:18.002Z</time></trkpt><trkpt lat="44.882979" lon="9.465155"><ele>554.3333333333333</ele><time>2026-04-19T14:53:19.027Z</time></trkpt><trkpt lat="44.8829344" lon="9.4650489"><ele>554.1666666666666</ele><time>2026-04-19T14:53:19.982Z</time></trkpt><trkpt lat="44.8829059" lon="9.4649356"><ele>554.0</ele><time>2026-04-19T14:53:21.019Z</time></trkpt><trkpt lat="44.882893" lon="9.4648098"><ele>554.0</ele><time>2026-04-19T14:53:22.149Z</time></trkpt><trkpt lat="44.8829093" lon="9.4646196"><ele>554.0</ele><time>2026-04-19T14:53:23.943Z</time></trkpt><trkpt lat="44.8829251" lon="9.4645293"><ele>554.0</ele><time>2026-04-19T14:53:24.901Z</time></trkpt><trkpt lat="44.8829434" lon="9.4644351"><ele>554.0</ele><time>2026-04-19T14:53:25.912Z</time></trkpt><trkpt lat="44.8829668" lon="9.4643412"><ele>554.0</ele><time>2026-04-19T14:53:26.883Z</time></trkpt><trkpt lat="44.8829897" lon="9.4642158"><ele>554.0</ele><time>2026-04-19T14:53:27.862Z</time></trkpt><trkpt lat="44.8830221" lon="9.464052"><ele>554.0</ele><time>2026-04-19T14:53:28.893Z</time></trkpt><trkpt lat="44.8830581" lon="9.4638716"><ele>554.0</ele><time>2026-04-19T14:53:29.913Z</time></trkpt><trkpt lat="44.883101" lon="9.4636835"><ele>554.0</ele><time>2026-04-19T14:53:30.918Z</time></trkpt><trkpt lat="44.8831535" lon="9.4635053"><ele>554.0</ele><time>2026-04-19T14:53:31.903Z</time></trkpt><trkpt lat="44.8832035" lon="9.4633476"><ele>554.2</ele><time>2026-04-19T14:53:32.918Z</time></trkpt><trkpt lat="44.8832542" lon="9.4631964"><ele>554.4</ele><time>2026-04-19T14:53:33.93Z</time></trkpt><trkpt lat="44.8833" lon="9.463067"><ele>554.6</ele><time>2026-04-19T14:53:34.873Z</time></trkpt><trkpt lat="44.8833545" lon="9.462933"><ele>554.8</ele><time>2026-04-19T14:53:35.887Z</time></trkpt><trkpt lat="44.8834141" lon="9.4627985"><ele>555.0</ele><time>2026-04-19T14:53:36.906Z</time></trkpt><trkpt lat="44.8834682" lon="9.4626567"><ele>560.75</ele><time>2026-04-19T14:53:37.938Z</time></trkpt><trkpt lat="44.8835328" lon="9.4625224"><ele>566.5</ele><time>2026-04-19T14:53:38.977Z</time></trkpt><trkpt lat="44.8836004" lon="9.4624041"><ele>572.25</ele><time>2026-04-19T14:53:39.947Z</time></trkpt><trkpt lat="44.8836778" lon="9.4622727"><ele>578.0</ele><time>2026-04-19T14:53:41.022Z</time></trkpt><trkpt lat="44.8837967" lon="9.4620081"><ele>578.0</ele><time>2026-04-19T14:53:42.913Z</time></trkpt><trkpt lat="44.8838554" lon="9.4618387"><ele>578.0</ele><time>2026-04-19T14:53:43.959Z</time></trkpt><trkpt lat="44.8838943" lon="9.4616806"><ele>578.0</ele><time>2026-04-19T14:53:44.878Z</time></trkpt><trkpt lat="44.8839293" lon="9.4615003"><ele>578.0</ele><time>2026-04-19T14:53:46.027Z</time></trkpt><trkpt lat="44.8839662" lon="9.4612787"><ele>578.6</ele><time>2026-04-19T14:53:47.933Z</time></trkpt><trkpt lat="44.8839849" lon="9.4611725"><ele>579.1999999999999</ele><time>2026-04-19T14:53:48.966Z</time></trkpt><trkpt lat="44.8840273" lon="9.4609695"><ele>579.8</ele><time>2026-04-19T14:53:50.999Z</time></trkpt><trkpt lat="44.8840689" lon="9.4608665"><ele>580.4</ele><time>2026-04-19T14:53:52.009Z</time></trkpt><trkpt lat="44.8841294" lon="9.4607786"><ele>581.0</ele><time>2026-04-19T14:53:52.99Z</time></trkpt><trkpt lat="44.8842032" lon="9.4607167"><ele>581.0</ele><time>2026-04-19T14:53:53.958Z</time></trkpt><trkpt lat="44.88426" lon="9.4606373"><ele>581.0</ele><time>2026-04-19T14:53:54.913Z</time></trkpt><trkpt lat="44.8842912" lon="9.4605241"><ele>581.0</ele><time>2026-04-19T14:53:55.91Z</time></trkpt><trkpt lat="44.884297" lon="9.4603816"><ele>581.0</ele><time>2026-04-19T14:53:56.999Z</time></trkpt><trkpt lat="44.8842978" lon="9.4602864"><ele>581.0</ele><time>2026-04-19T14:53:57.915Z</time></trkpt><trkpt lat="44.8842997" lon="9.4601693"><ele>581.0</ele><time>2026-04-19T14:53:59.039Z</time></trkpt><trkpt lat="44.8843398" lon="9.4600491"><ele>586.25</ele><time>2026-04-19T14:54:00.89Z</time></trkpt><trkpt lat="44.8844411" lon="9.460073"><ele>591.5</ele><time>2026-04-19T14:54:03.002Z</time></trkpt><trkpt lat="44.8844717" lon="9.460286"><ele>596.75</ele><time>2026-04-19T14:54:04.929Z</time></trkpt><trkpt lat="44.8844698" lon="9.4604764"><ele>602.0</ele><time>2026-04-19T14:54:06.067Z</time></trkpt><trkpt lat="44.8844366" lon="9.4608638"><ele>603.4</ele><time>2026-04-19T14:54:07.958Z</time></trkpt><trkpt lat="44.8844096" lon="9.4610501"><ele>604.8000000000001</ele><time>2026-04-19T14:54:08.933Z</time></trkpt><trkpt lat="44.8843966" lon="9.4612132"><ele>606.2</ele><time>2026-04-19T14:54:09.932Z</time></trkpt><trkpt lat="44.8844061" lon="9.4613652"><ele>607.6</ele><time>2026-04-19T14:54:10.969Z</time></trkpt><trkpt lat="44.8844396" lon="9.4614798"><ele>609.0</ele><time>2026-04-19T14:54:11.91Z</time></trkpt><trkpt lat="44.8844938" lon="9.4615431"><ele>609.0</ele><time>2026-04-19T14:54:12.984Z</time></trkpt><trkpt lat="44.8845942" lon="9.4615205"><ele>609.0</ele><time>2026-04-19T14:54:14.926Z</time></trkpt><trkpt lat="44.8846555" lon="9.4614365"><ele>609.0</ele><time>2026-04-19T14:54:15.932Z</time></trkpt><trkpt lat="44.8847063" lon="9.4613202"><ele>609.0</ele><time>2026-04-19T14:54:16.922Z</time></trkpt><trkpt lat="44.8847756" lon="9.4611593"><ele>609.0</ele><time>2026-04-19T14:54:18.026Z</time></trkpt><trkpt lat="44.8849117" lon="9.4608655"><ele>609.0</ele><time>2026-04-19T14:54:19.947Z</time></trkpt><trkpt lat="44.8849649" lon="9.4607131"><ele>609.0</ele><time>2026-04-19T14:54:20.931Z</time></trkpt><trkpt lat="44.8850132" lon="9.4605633"><ele>609.0</ele><time>2026-04-19T14:54:21.889Z</time></trkpt><trkpt lat="44.8850685" lon="9.4604069"><ele>609.0</ele><time>2026-04-19T14:54:22.918Z</time></trkpt><trkpt lat="44.8851247" lon="9.4602665"><ele>614.25</ele><time>2026-04-19T14:54:23.927Z</time></trkpt><trkpt lat="44.8851878" lon="9.4601256"><ele>619.5</ele><time>2026-04-19T14:54:24.944Z</time></trkpt><trkpt lat="44.8852523" lon="9.4599981"><ele>624.75</ele><time>2026-04-19T14:54:25.91Z</time></trkpt><trkpt lat="44.8853302" lon="9.4598823"><ele>630.0</ele><time>2026-04-19T14:54:26.919Z</time></trkpt><trkpt lat="44.8854185" lon="9.4597892"><ele>630.0</ele><time>2026-04-19T14:54:27.94Z</time></trkpt><trkpt lat="44.8855053" lon="9.4597094"><ele>630.0</ele><time>2026-04-19T14:54:28.885Z</time></trkpt><trkpt lat="44.8856153" lon="9.4596227"><ele>630.0</ele><time>2026-04-19T14:54:30.001Z</time></trkpt><trkpt lat="44.8857125" lon="9.4595582"><ele>630.0</ele><time>2026-04-19T14:54:30.907Z</time></trkpt><trkpt lat="44.8858178" lon="9.459496"><ele>632.6</ele><time>2026-04-19T14:54:31.905Z</time></trkpt><trkpt lat="44.8859351" lon="9.4594456"><ele>635.2</ele><time>2026-04-19T14:54:32.969Z</time></trkpt><trkpt lat="44.8860343" lon="9.4594018"><ele>637.8</ele><time>2026-04-19T14:54:33.902Z</time></trkpt><trkpt lat="44.8861291" lon="9.4593271"><ele>640.4</ele><time>2026-04-19T14:54:34.967Z</time></trkpt><trkpt lat="44.8861995" lon="9.459246"><ele>643.0</ele><time>2026-04-19T14:54:35.905Z</time></trkpt><trkpt lat="44.8862632" lon="9.4591245"><ele>643.0</ele><time>2026-04-19T14:54:36.998Z</time></trkpt><trkpt lat="44.8862965" lon="9.4589908"><ele>643.0</ele><time>2026-04-19T14:54:37.97Z</time></trkpt><trkpt lat="44.8863158" lon="9.4588849"><ele>643.0</ele><time>2026-04-19T14:54:38.937Z</time></trkpt><trkpt lat="44.8863294" lon="9.4587934"><ele>643.0</ele><time>2026-04-19T14:54:40.019Z</time></trkpt><trkpt lat="44.8863216" lon="9.4586324"><ele>643.0</ele><time>2026-04-19T14:54:42.077Z</time></trkpt><trkpt lat="44.8862649" lon="9.4584506"><ele>641.25</ele><time>2026-04-19T14:54:43.928Z</time></trkpt><trkpt lat="44.886224" lon="9.4583299"><ele>639.5</ele><time>2026-04-19T14:54:44.977Z</time></trkpt><trkpt lat="44.8861384" lon="9.4580868"><ele>637.75</ele><time>2026-04-19T14:54:46.919Z</time></trkpt><trkpt lat="44.8860906" lon="9.4579689"><ele>636.0</ele><time>2026-04-19T14:54:47.895Z</time></trkpt><trkpt lat="44.8860442" lon="9.4578388"><ele>634.6</ele><time>2026-04-19T14:54:48.881Z</time></trkpt><trkpt lat="44.8859933" lon="9.4577007"><ele>633.2</ele><time>2026-04-19T14:54:49.92Z</time></trkpt><trkpt lat="44.8859593" lon="9.4575716"><ele>631.8</ele><time>2026-04-19T14:54:50.926Z</time></trkpt><trkpt lat="44.8859328" lon="9.4574428"><ele>630.4</ele><time>2026-04-19T14:54:51.928Z</time></trkpt><trkpt lat="44.8859142" lon="9.4572971"><ele>629.0</ele><time>2026-04-19T14:54:52.988Z</time></trkpt><trkpt lat="44.8859083" lon="9.4571613"><ele>626.4</ele><time>2026-04-19T14:54:53.931Z</time></trkpt><trkpt lat="44.8859067" lon="9.4570219"><ele>623.8</ele><time>2026-04-19T14:54:54.912Z</time></trkpt><trkpt lat="44.8859087" lon="9.4568884"><ele>621.2</ele><time>2026-04-19T14:54:55.904Z</time></trkpt><trkpt lat="44.8859195" lon="9.4567544"><ele>618.6</ele><time>2026-04-19T14:54:56.928Z</time></trkpt><trkpt lat="44.8859448" lon="9.4566089"><ele>616.0</ele><time>2026-04-19T14:54:58.062Z</time></trkpt><trkpt lat="44.886013" lon="9.4564126"><ele>613.4</ele><time>2026-04-19T14:54:59.949Z</time></trkpt><trkpt lat="44.8860287" lon="9.4562182"><ele>610.8</ele><time>2026-04-19T14:55:01.976Z</time></trkpt><trkpt lat="44.8860008" lon="9.4561111"><ele>608.1999999999999</ele><time>2026-04-19T14:55:02.954Z</time></trkpt><trkpt lat="44.8859608" lon="9.4560046"><ele>605.6</ele><time>2026-04-19T14:55:03.946Z</time></trkpt><trkpt lat="44.8859113" lon="9.4558698"><ele>603.0</ele><time>2026-04-19T14:55:04.966Z</time></trkpt><trkpt lat="44.8858575" lon="9.4557125"><ele>603.0</ele><time>2026-04-19T14:55:06.006Z</time></trkpt><trkpt lat="44.8858058" lon="9.4555542"><ele>603.0</ele><time>2026-04-19T14:55:06.943Z</time></trkpt><trkpt lat="44.8857392" lon="9.455369"><ele>603.0</ele><time>2026-04-19T14:55:07.966Z</time></trkpt><trkpt lat="44.8856767" lon="9.455187"><ele>603.0</ele><time>2026-04-19T14:55:08.948Z</time></trkpt><trkpt lat="44.8856073" lon="9.4549982"><ele>600.6666666666666</ele><time>2026-04-19T14:55:09.991Z</time></trkpt><trkpt lat="44.8854707" lon="9.4546395"><ele>598.3333333333333</ele><time>2026-04-19T14:55:11.963Z</time></trkpt><trkpt lat="44.8854064" lon="9.4544808"><ele>596.0</ele><time>2026-04-19T14:55:12.899Z</time></trkpt><trkpt lat="44.8853321" lon="9.4543052"><ele>594.25</ele><time>2026-04-19T14:55:13.95Z</time></trkpt><trkpt lat="44.8852613" lon="9.454139"><ele>592.5</ele><time>2026-04-19T14:55:14.949Z</time></trkpt><trkpt lat="44.8851916" lon="9.4539681"><ele>590.75</ele><time>2026-04-19T14:55:15.954Z</time></trkpt><trkpt lat="44.8851224" lon="9.4537953"><ele>589.0</ele><time>2026-04-19T14:55:16.956Z</time></trkpt><trkpt lat="44.8850616" lon="9.4536347"><ele>588.75</ele><time>2026-04-19T14:55:17.911Z</time></trkpt><trkpt lat="44.8849824" lon="9.4534226"><ele>588.5</ele><time>2026-04-19T14:55:19.167Z</time></trkpt><trkpt lat="44.8849357" lon="9.4532961"><ele>588.25</ele><time>2026-04-19T14:55:19.947Z</time></trkpt><trkpt lat="44.8848694" lon="9.4531451"><ele>588.0</ele><time>2026-04-19T14:55:20.891Z</time></trkpt><trkpt lat="44.8847894" lon="9.4529803"><ele>586.3333333333334</ele><time>2026-04-19T14:55:21.949Z</time></trkpt><trkpt lat="44.8847231" lon="9.4528116"><ele>584.6666666666667</ele><time>2026-04-19T14:55:22.959Z</time></trkpt><trkpt lat="44.8846653" lon="9.4526088"><ele>583.0</ele><time>2026-04-19T14:55:24.062Z</time></trkpt><trkpt lat="44.8845756" lon="9.4522352"><ele>582.3333333333334</ele><time>2026-04-19T14:55:25.942Z</time></trkpt><trkpt lat="44.8845262" lon="9.4520328"><ele>581.6666666666666</ele><time>2026-04-19T14:55:26.978Z</time></trkpt><trkpt lat="44.8844758" lon="9.4518456"><ele>581.0</ele><time>2026-04-19T14:55:27.946Z</time></trkpt><trkpt lat="44.8844115" lon="9.4516389"><ele>581.0</ele><time>2026-04-19T14:55:29.138Z</time></trkpt><trkpt lat="44.8843338" lon="9.4513584"><ele>581.0</ele><time>2026-04-19T14:55:30.907Z</time></trkpt><trkpt lat="44.8843035" lon="9.4512063"><ele>581.0</ele><time>2026-04-19T14:55:31.908Z</time></trkpt><trkpt lat="44.8842739" lon="9.4510649"><ele>581.0</ele><time>2026-04-19T14:55:32.936Z</time></trkpt><trkpt lat="44.8842425" lon="9.4509469"><ele>582.5714285714286</ele><time>2026-04-19T14:55:33.976Z</time></trkpt><trkpt lat="44.8842205" lon="9.4508484"><ele>584.1428571428571</ele><time>2026-04-19T14:55:34.902Z</time></trkpt><trkpt lat="44.8841985" lon="9.4507293"><ele>585.7142857142858</ele><time>2026-04-19T14:55:36.027Z</time></trkpt><trkpt lat="44.8841968" lon="9.4506252"><ele>587.2857142857142</ele><time>2026-04-19T14:55:36.931Z</time></trkpt><trkpt lat="44.8842058" lon="9.4505194"><ele>588.8571428571429</ele><time>2026-04-19T14:55:38.029Z</time></trkpt><trkpt lat="44.8842087" lon="9.4504205"><ele>590.4285714285714</ele><time>2026-04-19T14:55:38.962Z</time></trkpt><trkpt lat="44.8842074" lon="9.45033"><ele>592.0</ele><time>2026-04-19T14:55:39.891Z</time></trkpt><trkpt lat="44.8841958" lon="9.4502134"><ele>593.4</ele><time>2026-04-19T14:55:40.906Z</time></trkpt><trkpt lat="44.8841857" lon="9.4500949"><ele>594.8000000000001</ele><time>2026-04-19T14:55:41.928Z</time></trkpt><trkpt lat="44.8841836" lon="9.449954"><ele>596.2</ele><time>2026-04-19T14:55:43.116Z</time></trkpt><trkpt lat="44.88418" lon="9.4497477"><ele>597.6</ele><time>2026-04-19T14:55:45.018Z</time></trkpt><trkpt lat="44.8841692" lon="9.4496506"><ele>599.0</ele><time>2026-04-19T14:55:45.922Z</time></trkpt><trkpt lat="44.8841493" lon="9.4495347"><ele>600.1666666666666</ele><time>2026-04-19T14:55:46.962Z</time></trkpt><trkpt lat="44.8841308" lon="9.4494314"><ele>601.3333333333333</ele><time>2026-04-19T14:55:47.953Z</time></trkpt><trkpt lat="44.8841107" lon="9.4493295"><ele>602.5</ele><time>2026-04-19T14:55:48.894Z</time></trkpt><trkpt lat="44.8840887" lon="9.4492246"><ele>603.6666666666666</ele><time>2026-04-19T14:55:49.918Z</time></trkpt><trkpt lat="44.8840626" lon="9.4491219"><ele>604.8333333333334</ele><time>2026-04-19T14:55:50.902Z</time></trkpt><trkpt lat="44.8840351" lon="9.4490056"><ele>606.0</ele><time>2026-04-19T14:55:52.072Z</time></trkpt><trkpt lat="44.8840096" lon="9.4488009"><ele>608.1666666666666</ele><time>2026-04-19T14:55:53.94Z</time></trkpt><trkpt lat="44.8840147" lon="9.4486909"><ele>610.3333333333334</ele><time>2026-04-19T14:55:54.918Z</time></trkpt><trkpt lat="44.8840258" lon="9.4485959"><ele>612.5</ele><time>2026-04-19T14:55:55.883Z</time></trkpt><trkpt lat="44.8840307" lon="9.4484944"><ele>614.6666666666667</ele><time>2026-04-19T14:55:56.963Z</time></trkpt><trkpt lat="44.8840186" lon="9.4483975"><ele>616.8333333333334</ele><time>2026-04-19T14:55:57.993Z</time></trkpt><trkpt lat="44.8839981" lon="9.4482178"><ele>619.0</ele><time>2026-04-19T14:55:59.932Z</time></trkpt><trkpt lat="44.8839864" lon="9.4481224"><ele>619.0</ele><time>2026-04-19T14:56:00.941Z</time></trkpt><trkpt lat="44.883964" lon="9.4480356"><ele>619.0</ele><time>2026-04-19T14:56:01.975Z</time></trkpt><trkpt lat="44.8839424" lon="9.4479465"><ele>619.0</ele><time>2026-04-19T14:56:03.009Z</time></trkpt><trkpt lat="44.8839125" lon="9.4478636"><ele>619.0</ele><time>2026-04-19T14:56:03.928Z</time></trkpt><trkpt lat="44.8838725" lon="9.4477697"><ele>619.0</ele><time>2026-04-19T14:56:05.016Z</time></trkpt><trkpt lat="44.883815" lon="9.4476207"><ele>619.0</ele><time>2026-04-19T14:56:06.958Z</time></trkpt><trkpt lat="44.8837927" lon="9.4475364"><ele>620.6666666666667</ele><time>2026-04-19T14:56:07.893Z</time></trkpt><trkpt lat="44.8837735" lon="9.4474375"><ele>622.3333333333334</ele><time>2026-04-19T14:56:08.941Z</time></trkpt><trkpt lat="44.8837526" lon="9.4473361"><ele>624.0</ele><time>2026-04-19T14:56:09.957Z</time></trkpt><trkpt lat="44.8837325" lon="9.4472432"><ele>625.6666666666666</ele><time>2026-04-19T14:56:10.922Z</time></trkpt><trkpt lat="44.8837036" lon="9.4471212"><ele>627.3333333333333</ele><time>2026-04-19T14:56:12.021Z</time></trkpt><trkpt lat="44.883671" lon="9.4470324"><ele>629.0</ele><time>2026-04-19T14:56:12.949Z</time></trkpt><trkpt lat="44.8836236" lon="9.4469497"><ele>629.8333333333333</ele><time>2026-04-19T14:56:13.943Z</time></trkpt><trkpt lat="44.8835771" lon="9.4468728"><ele>630.6666666666666</ele><time>2026-04-19T14:56:14.93Z</time></trkpt><trkpt lat="44.8835313" lon="9.4467981"><ele>631.5</ele><time>2026-04-19T14:56:15.986Z</time></trkpt><trkpt lat="44.8834894" lon="9.4467231"><ele>632.3333333333334</ele><time>2026-04-19T14:56:17.058Z</time></trkpt><trkpt lat="44.8834305" lon="9.4465757"><ele>633.1666666666667</ele><time>2026-04-19T14:56:18.94Z</time></trkpt><trkpt lat="44.8834055" lon="9.4464929"><ele>634.0</ele><time>2026-04-19T14:56:19.874Z</time></trkpt><trkpt lat="44.8833787" lon="9.4463739"><ele>632.5</ele><time>2026-04-19T14:56:21.044Z</time></trkpt><trkpt lat="44.8833564" lon="9.4462887"><ele>631.0</ele><time>2026-04-19T14:56:21.946Z</time></trkpt><trkpt lat="44.8833208" lon="9.4462083"><ele>629.5</ele><time>2026-04-19T14:56:22.924Z</time></trkpt><trkpt lat="44.8832799" lon="9.4461245"><ele>628.0</ele><time>2026-04-19T14:56:23.965Z</time></trkpt><trkpt lat="44.8832413" lon="9.4460491"><ele>626.5</ele><time>2026-04-19T14:56:24.968Z</time></trkpt><trkpt lat="44.8832042" lon="9.4459686"><ele>625.0</ele><time>2026-04-19T14:56:25.984Z</time></trkpt><trkpt lat="44.8831633" lon="9.4458026"><ele>625.0000000000001</ele><time>2026-04-19T14:56:27.973Z</time></trkpt><trkpt lat="44.8831357" lon="9.4457148"><ele>625.0</ele><time>2026-04-19T14:56:28.942Z</time></trkpt><trkpt lat="44.8831029" lon="9.4456254"><ele>625.0</ele><time>2026-04-19T14:56:29.954Z</time></trkpt><trkpt lat="44.8830754" lon="9.4455267"><ele>625.0</ele><time>2026-04-19T14:56:30.928Z</time></trkpt><trkpt lat="44.8830468" lon="9.4454189"><ele>625.0</ele><time>2026-04-19T14:56:32.028Z</time></trkpt><trkpt lat="44.8830231" lon="9.4453243"><ele>625.0000000000001</ele><time>2026-04-19T14:56:32.974Z</time></trkpt><trkpt lat="44.8829994" lon="9.4452259"><ele>625.0</ele><time>2026-04-19T14:56:33.934Z</time></trkpt><trkpt lat="44.8829877" lon="9.4451274"><ele>625.8</ele><time>2026-04-19T14:56:34.886Z</time></trkpt><trkpt lat="44.8829905" lon="9.4450196"><ele>626.6</ele><time>2026-04-19T14:56:35.903Z</time></trkpt><trkpt lat="44.8829915" lon="9.4449284"><ele>627.4</ele><time>2026-04-19T14:56:36.946Z</time></trkpt><trkpt lat="44.8829787" lon="9.4447708"><ele>628.2</ele><time>2026-04-19T14:56:38.921Z</time></trkpt><trkpt lat="44.8829451" lon="9.4446815"><ele>629.0</ele><time>2026-04-19T14:56:40.012Z</time></trkpt><trkpt lat="44.882819" lon="9.444591"><ele>629.6666666666666</ele><time>2026-04-19T14:56:41.939Z</time></trkpt><trkpt lat="44.8827459" lon="9.4445419"><ele>630.3333333333333</ele><time>2026-04-19T14:56:42.908Z</time></trkpt><trkpt lat="44.8826812" lon="9.4445089"><ele>631.0</ele><time>2026-04-19T14:56:43.88Z</time></trkpt><trkpt lat="44.8826014" lon="9.4444849"><ele>631.6666666666666</ele><time>2026-04-19T14:56:44.948Z</time></trkpt><trkpt lat="44.8825386" lon="9.4444679"><ele>632.3333333333334</ele><time>2026-04-19T14:56:45.939Z</time></trkpt><trkpt lat="44.8824099" lon="9.4444396"><ele>633.0</ele><time>2026-04-19T14:56:47.934Z</time></trkpt><trkpt lat="44.8823426" lon="9.444424"><ele>633.5</ele><time>2026-04-19T14:56:48.944Z</time></trkpt><trkpt lat="44.8822398" lon="9.4443822"><ele>634.0</ele><time>2026-04-19T14:56:50.941Z</time></trkpt><trkpt lat="44.8821792" lon="9.4442967"><ele>634.5</ele><time>2026-04-19T14:56:52.893Z</time></trkpt><trkpt lat="44.8822444" lon="9.4443979"><ele>635.0</ele><time>2026-04-19T14:57:54.828Z</time></trkpt><trkpt lat="44.8821716" lon="9.4443998"><ele>635.5</ele><time>2026-04-19T15:00:33.969Z</time></trkpt><trkpt lat="44.8820961" lon="9.4444393"><ele>636.0</ele><time>2026-04-19T15:00:36.999Z</time></trkpt><trkpt lat="44.8820253" lon="9.4444623"><ele>636.0</ele><time>2026-04-19T15:00:56.929Z</time></trkpt><trkpt lat="44.8819607" lon="9.44449"><ele>636.0</ele><time>2026-04-19T15:02:33.89Z</time></trkpt><trkpt lat="44.8818894" lon="9.4445116"><ele>636.0</ele><time>2026-04-19T15:02:35.81Z</time></trkpt><trkpt lat="44.8818217" lon="9.4445256"><ele>636.0</ele><time>2026-04-19T15:02:39.856Z</time></trkpt><trkpt lat="44.8817498" lon="9.4445436"><ele>636.0</ele><time>2026-04-19T15:05:25.894Z</time></trkpt><trkpt lat="44.8816807" lon="9.4445623"><ele>636.0</ele><time>2026-04-19T15:05:27.9Z</time></trkpt><trkpt lat="44.8816058" lon="9.4445912"><ele>636.0</ele><time>2026-04-19T15:05:29.888Z</time></trkpt><trkpt lat="44.8815114" lon="9.444612"><ele>634.2</ele><time>2026-04-19T15:05:31.955Z</time></trkpt><trkpt lat="44.881426" lon="9.4446379"><ele>632.4000000000001</ele><time>2026-04-19T15:05:33.887Z</time></trkpt><trkpt lat="44.8813457" lon="9.4446444"><ele>630.6</ele><time>2026-04-19T15:05:35.867Z</time></trkpt><trkpt lat="44.8812028" lon="9.4445898"><ele>628.8000000000001</ele><time>2026-04-19T15:05:38.872Z</time></trkpt><trkpt lat="44.8811212" lon="9.4445411"><ele>627.0</ele><time>2026-04-19T15:05:40.864Z</time></trkpt><trkpt lat="44.8810419" lon="9.4445003"><ele>631.0</ele><time>2026-04-19T15:05:42.924Z</time></trkpt><trkpt lat="44.8809741" lon="9.4444504"><ele>635.0</ele><time>2026-04-19T15:05:44.847Z</time></trkpt><trkpt lat="44.8809077" lon="9.4443746"><ele>639.0</ele><time>2026-04-19T15:05:46.952Z</time></trkpt><trkpt lat="44.8808246" lon="9.4442795"><ele>643.0</ele><time>2026-04-19T15:05:48.978Z</time></trkpt><trkpt lat="44.8807508" lon="9.4442088"><ele>647.0</ele><time>2026-04-19T15:05:50.926Z</time></trkpt><trkpt lat="44.8806695" lon="9.4441354"><ele>647.4000000000001</ele><time>2026-04-19T15:05:52.888Z</time></trkpt><trkpt lat="44.8805819" lon="9.4440523"><ele>647.8000000000001</ele><time>2026-04-19T15:05:54.931Z</time></trkpt><trkpt lat="44.8804972" lon="9.4440216"><ele>648.2</ele><time>2026-04-19T15:05:56.954Z</time></trkpt><trkpt lat="44.8803913" lon="9.4439945"><ele>648.6</ele><time>2026-04-19T15:05:58.883Z</time></trkpt><trkpt lat="44.8802764" lon="9.4439363"><ele>649.0</ele><time>2026-04-19T15:06:00.962Z</time></trkpt><trkpt lat="44.8801839" lon="9.4438716"><ele>649.0</ele><time>2026-04-19T15:06:02.903Z</time></trkpt><trkpt lat="44.880139" lon="9.4438087"><ele>649.0</ele><time>2026-04-19T15:06:04.095Z</time></trkpt><trkpt lat="44.8800969" lon="9.4437032"><ele>649.0</ele><time>2026-04-19T15:06:05.92Z</time></trkpt><trkpt lat="44.8800579" lon="9.443588"><ele>649.0</ele><time>2026-04-19T15:06:07.88Z</time></trkpt><trkpt lat="44.8800079" lon="9.4434569"><ele>649.0</ele><time>2026-04-19T15:06:09.942Z</time></trkpt><trkpt lat="44.8799527" lon="9.4433245"><ele>650.0</ele><time>2026-04-19T15:06:11.963Z</time></trkpt><trkpt lat="44.8799076" lon="9.4431912"><ele>651.0</ele><time>2026-04-19T15:06:13.941Z</time></trkpt><trkpt lat="44.8798771" lon="9.4430377"><ele>652.0</ele><time>2026-04-19T15:06:15.948Z</time></trkpt><trkpt lat="44.8798694" lon="9.4428952"><ele>653.0</ele><time>2026-04-19T15:06:17.882Z</time></trkpt><trkpt lat="44.8798759" lon="9.4427274"><ele>654.0</ele><time>2026-04-19T15:06:19.894Z</time></trkpt><trkpt lat="44.8798912" lon="9.4425822"><ele>654.6</ele><time>2026-04-19T15:06:21.942Z</time></trkpt><trkpt lat="44.8798989" lon="9.4424486"><ele>655.2</ele><time>2026-04-19T15:06:23.933Z</time></trkpt><trkpt lat="44.8799039" lon="9.4423111"><ele>655.8000000000001</ele><time>2026-04-19T15:06:25.876Z</time></trkpt><trkpt lat="44.8799042" lon="9.4421549"><ele>656.4000000000001</ele><time>2026-04-19T15:06:27.936Z</time></trkpt><trkpt lat="44.8799217" lon="9.4419999"><ele>657.0</ele><time>2026-04-19T15:06:29.878Z</time></trkpt><trkpt lat="44.8799426" lon="9.4419123"><ele>655.0</ele><time>2026-04-19T15:06:30.98Z</time></trkpt><trkpt lat="44.8799995" lon="9.4417713"><ele>653.0</ele><time>2026-04-19T15:06:32.955Z</time></trkpt><trkpt lat="44.8800601" lon="9.441637"><ele>651.0</ele><time>2026-04-19T15:06:34.903Z</time></trkpt><trkpt lat="44.8801066" lon="9.4414751"><ele>649.0</ele><time>2026-04-19T15:06:36.869Z</time></trkpt><trkpt lat="44.8801234" lon="9.4413189"><ele>655.25</ele><time>2026-04-19T15:06:38.868Z</time></trkpt><trkpt lat="44.8801637" lon="9.4411738"><ele>661.5</ele><time>2026-04-19T15:06:40.896Z</time></trkpt><trkpt lat="44.8802214" lon="9.4409774"><ele>667.75</ele><time>2026-04-19T15:06:43.883Z</time></trkpt><trkpt lat="44.8802611" lon="9.4408164"><ele>674.0</ele><time>2026-04-19T15:06:46.001Z</time></trkpt><trkpt lat="44.8803067" lon="9.4406856"><ele>674.0</ele><time>2026-04-19T15:06:48.078Z</time></trkpt><trkpt lat="44.8803509" lon="9.4405929"><ele>674.0</ele><time>2026-04-19T15:06:49.854Z</time></trkpt><trkpt lat="44.8804243" lon="9.4404833"><ele>674.0</ele><time>2026-04-19T15:06:51.936Z</time></trkpt><trkpt lat="44.8805342" lon="9.4403231"><ele>674.0</ele><time>2026-04-19T15:06:54.942Z</time></trkpt><trkpt lat="44.8805957" lon="9.4402209"><ele>674.0</ele><time>2026-04-19T15:06:56.901Z</time></trkpt><trkpt lat="44.8806355" lon="9.4400922"><ele>672.8000000000001</ele><time>2026-04-19T15:06:58.945Z</time></trkpt><trkpt lat="44.8806474" lon="9.4399553"><ele>671.6</ele><time>2026-04-19T15:07:00.87Z</time></trkpt><trkpt lat="44.8806507" lon="9.4398028"><ele>670.4</ele><time>2026-04-19T15:07:02.92Z</time></trkpt><trkpt lat="44.880666" lon="9.4396404"><ele>669.2</ele><time>2026-04-19T15:07:04.95Z</time></trkpt><trkpt lat="44.8806693" lon="9.4394704"><ele>668.0</ele><time>2026-04-19T15:07:06.99Z</time></trkpt><trkpt lat="44.8806632" lon="9.4392962"><ele>667.5999999999999</ele><time>2026-04-19T15:07:08.912Z</time></trkpt><trkpt lat="44.8806501" lon="9.4392049"><ele>667.1999999999999</ele><time>2026-04-19T15:07:09.94Z</time></trkpt><trkpt lat="44.8806249" lon="9.439044"><ele>666.8</ele><time>2026-04-19T15:07:12.076Z</time></trkpt><trkpt lat="44.8805876" lon="9.4389034"><ele>666.4</ele><time>2026-04-19T15:07:13.968Z</time></trkpt><trkpt lat="44.8805299" lon="9.4387796"><ele>666.0</ele><time>2026-04-19T15:07:15.939Z</time></trkpt><trkpt lat="44.8804615" lon="9.4386539"><ele>667.25</ele><time>2026-04-19T15:07:18.003Z</time></trkpt><trkpt lat="44.8804035" lon="9.4385306"><ele>668.5</ele><time>2026-04-19T15:07:19.881Z</time></trkpt><trkpt lat="44.8803495" lon="9.4383823"><ele>669.75</ele><time>2026-04-19T15:07:21.877Z</time></trkpt><trkpt lat="44.8803242" lon="9.4381472"><ele>671.0</ele><time>2026-04-19T15:07:24.889Z</time></trkpt><trkpt lat="44.8803237" lon="9.4379802"><ele>671.0</ele><time>2026-04-19T15:07:26.963Z</time></trkpt><trkpt lat="44.8803012" lon="9.4378305"><ele>671.0</ele><time>2026-04-19T15:07:28.919Z</time></trkpt><trkpt lat="44.8802794" lon="9.4377463"><ele>671.0</ele><time>2026-04-19T15:07:29.934Z</time></trkpt><trkpt lat="44.880226" lon="9.4375911"><ele>671.0</ele><time>2026-04-19T15:07:31.896Z</time></trkpt><trkpt lat="44.8801656" lon="9.4374427"><ele>671.0</ele><time>2026-04-19T15:07:33.973Z</time></trkpt><trkpt lat="44.8801154" lon="9.4373422"><ele>670.5</ele><time>2026-04-19T15:07:35.867Z</time></trkpt><trkpt lat="44.8800639" lon="9.4372816"><ele>670.0</ele><time>2026-04-19T15:07:44.945Z</time></trkpt><trkpt lat="44.8799985" lon="9.4372141"><ele>669.5</ele><time>2026-04-19T15:07:47.999Z</time></trkpt><trkpt lat="44.8798103" lon="9.4372408"><ele>669.0</ele><time>2026-04-19T15:07:51.076Z</time></trkpt><trkpt lat="44.8796593" lon="9.4372046"><ele>669.0</ele><time>2026-04-19T15:07:52.951Z</time></trkpt><trkpt lat="44.8795934" lon="9.4371439"><ele>669.0</ele><time>2026-04-19T15:07:53.888Z</time></trkpt><trkpt lat="44.8795352" lon="9.4370459"><ele>669.0</ele><time>2026-04-19T15:07:54.919Z</time></trkpt><trkpt lat="44.8794883" lon="9.4369333"><ele>669.0</ele><time>2026-04-19T15:07:55.898Z</time></trkpt><trkpt lat="44.8794335" lon="9.4368329"><ele>669.0</ele><time>2026-04-19T15:07:56.934Z</time></trkpt><trkpt lat="44.8793739" lon="9.4367595"><ele>669.0</ele><time>2026-04-19T15:07:57.921Z</time></trkpt><trkpt lat="44.8793082" lon="9.4367223"><ele>669.7142857142858</ele><time>2026-04-19T15:07:58.902Z</time></trkpt><trkpt lat="44.8792361" lon="9.4366969"><ele>670.4285714285714</ele><time>2026-04-19T15:07:59.988Z</time></trkpt><trkpt lat="44.8791692" lon="9.4366949"><ele>671.1428571428571</ele><time>2026-04-19T15:08:01.024Z</time></trkpt><trkpt lat="44.8790877" lon="9.4366797"><ele>671.8571428571429</ele><time>2026-04-19T15:08:02.979Z</time></trkpt><trkpt lat="44.879025" lon="9.4366103"><ele>672.5714285714286</ele><time>2026-04-19T15:08:05.971Z</time></trkpt><trkpt lat="44.8790024" lon="9.4365159"><ele>673.2857142857143</ele><time>2026-04-19T15:08:07.937Z</time></trkpt><trkpt lat="44.8789793" lon="9.436429"><ele>674.0</ele><time>2026-04-19T15:08:09.9Z</time></trkpt><trkpt lat="44.878954" lon="9.436334"><ele>672.6666666666666</ele><time>2026-04-19T15:08:11.926Z</time></trkpt><trkpt lat="44.8789141" lon="9.4362547"><ele>671.3333333333333</ele><time>2026-04-19T15:08:13.888Z</time></trkpt><trkpt lat="44.8788733" lon="9.4361726"><ele>670.0</ele><time>2026-04-19T15:08:15.875Z</time></trkpt><trkpt lat="44.8788163" lon="9.4361037"><ele>668.6666666666666</ele><time>2026-04-19T15:08:17.924Z</time></trkpt><trkpt lat="44.8787598" lon="9.4360031"><ele>667.3333333333334</ele><time>2026-04-19T15:08:19.937Z</time></trkpt><trkpt lat="44.8786561" lon="9.4359146"><ele>666.0</ele><time>2026-04-19T15:08:22.942Z</time></trkpt><trkpt lat="44.8785854" lon="9.4358798"><ele>666.0</ele><time>2026-04-19T15:08:24.936Z</time></trkpt><trkpt lat="44.8785144" lon="9.4358727"><ele>666.0</ele><time>2026-04-19T15:08:26.924Z</time></trkpt><trkpt lat="44.8784222" lon="9.4358443"><ele>666.0</ele><time>2026-04-19T15:08:29.026Z</time></trkpt><trkpt lat="44.8783367" lon="9.4358214"><ele>666.0</ele><time>2026-04-19T15:08:31.041Z</time></trkpt><trkpt lat="44.8782584" lon="9.4357933"><ele>666.0</ele><time>2026-04-19T15:08:32.922Z</time></trkpt><trkpt lat="44.8781643" lon="9.4357755"><ele>666.0</ele><time>2026-04-19T15:08:34.931Z</time></trkpt><trkpt lat="44.8780334" lon="9.4357853"><ele>666.0</ele><time>2026-04-19T15:08:37.899Z</time></trkpt><trkpt lat="44.8779528" lon="9.4357891"><ele>666.0</ele><time>2026-04-19T15:08:39.898Z</time></trkpt><trkpt lat="44.8778715" lon="9.4357865"><ele>666.0</ele><time>2026-04-19T15:08:42.027Z</time></trkpt><trkpt lat="44.8777749" lon="9.4357813"><ele>666.0</ele><time>2026-04-19T15:08:44.932Z</time></trkpt><trkpt lat="44.877707" lon="9.4357638"><ele>666.0</ele><time>2026-04-19T15:08:46.916Z</time></trkpt><trkpt lat="44.8776301" lon="9.4357354"><ele>666.0</ele><time>2026-04-19T15:08:48.931Z</time></trkpt><trkpt lat="44.8775914" lon="9.4356586"><ele>666.5</ele><time>2026-04-19T15:08:50.937Z</time></trkpt><trkpt lat="44.8776077" lon="9.4355482"><ele>667.0</ele><time>2026-04-19T15:08:53.924Z</time></trkpt><trkpt lat="44.8776544" lon="9.435476"><ele>667.5</ele><time>2026-04-19T15:08:55.951Z</time></trkpt><trkpt lat="44.8777182" lon="9.4354131"><ele>668.0</ele><time>2026-04-19T15:08:57.926Z</time></trkpt><trkpt lat="44.8777707" lon="9.4353228"><ele>668.5</ele><time>2026-04-19T15:08:59.848Z</time></trkpt><trkpt lat="44.8777895" lon="9.4351941"><ele>669.0</ele><time>2026-04-19T15:09:01.883Z</time></trkpt><trkpt lat="44.8777859" lon="9.4350101"><ele>665.0</ele><time>2026-04-19T15:09:04.851Z</time></trkpt><trkpt lat="44.8777707" lon="9.4348871"><ele>661.0</ele><time>2026-04-19T15:09:06.876Z</time></trkpt><trkpt lat="44.8777336" lon="9.4347092"><ele>657.0</ele><time>2026-04-19T15:09:09.953Z</time></trkpt><trkpt lat="44.8777107" lon="9.4345954"><ele>653.0</ele><time>2026-04-19T15:09:11.89Z</time></trkpt><trkpt lat="44.8776965" lon="9.4344821"><ele>649.0</ele><time>2026-04-19T15:09:13.886Z</time></trkpt><trkpt lat="44.8776781" lon="9.4343589"><ele>647.1428571428571</ele><time>2026-04-19T15:09:15.858Z</time></trkpt><trkpt lat="44.8776696" lon="9.4342525"><ele>645.2857142857142</ele><time>2026-04-19T15:09:17.866Z</time></trkpt><trkpt lat="44.877665" lon="9.4341481"><ele>643.4285714285713</ele><time>2026-04-19T15:09:19.886Z</time></trkpt><trkpt lat="44.8776578" lon="9.4340352"><ele>641.5714285714286</ele><time>2026-04-19T15:09:22.885Z</time></trkpt><trkpt lat="44.8776686" lon="9.4339391"><ele>639.7142857142858</ele><time>2026-04-19T15:09:25.893Z</time></trkpt><trkpt lat="44.8776835" lon="9.4338497"><ele>637.8571428571428</ele><time>2026-04-19T15:09:27.986Z</time></trkpt><trkpt lat="44.8777097" lon="9.4337622"><ele>636.0</ele><time>2026-04-19T15:09:30.873Z</time></trkpt><trkpt lat="44.8777258" lon="9.4336669"><ele>634.6666666666666</ele><time>2026-04-19T15:09:38.933Z</time></trkpt><trkpt lat="44.8777559" lon="9.4335358"><ele>633.3333333333334</ele><time>2026-04-19T15:09:42.943Z</time></trkpt><trkpt lat="44.8777898" lon="9.4334352"><ele>632.0</ele><time>2026-04-19T15:09:47.88Z</time></trkpt><trkpt lat="44.8778133" lon="9.4333315"><ele>630.6666666666667</ele><time>2026-04-19T15:09:50.968Z</time></trkpt><trkpt lat="44.8777973" lon="9.4332358"><ele>629.3333333333334</ele><time>2026-04-19T15:14:37.863Z</time></trkpt><trkpt lat="44.877812" lon="9.4331474"><ele>628.0</ele><time>2026-04-19T15:14:48.115Z</time></trkpt><trkpt lat="44.8778197" lon="9.4330519"><ele>626.7142857142857</ele><time>2026-04-19T15:14:59.87Z</time></trkpt><trkpt lat="44.8778111" lon="9.4329626"><ele>625.4285714285714</ele><time>2026-04-19T15:15:10.979Z</time></trkpt><trkpt lat="44.8777937" lon="9.4328751"><ele>624.1428571428571</ele><time>2026-04-19T15:15:19.905Z</time></trkpt><trkpt lat="44.8777895" lon="9.4327816"><ele>622.8571428571429</ele><time>2026-04-19T15:15:27.936Z</time></trkpt><trkpt lat="44.8777692" lon="9.4326737"><ele>621.5714285714286</ele><time>2026-04-19T15:15:40.949Z</time></trkpt><trkpt lat="44.8777551" lon="9.4325807"><ele>620.2857142857142</ele><time>2026-04-19T15:15:45.984Z</time></trkpt><trkpt lat="44.8777314" lon="9.4324865"><ele>619.0</ele><time>2026-04-19T15:15:49.941Z</time></trkpt><trkpt lat="44.877708" lon="9.4323995"><ele>619.0</ele><time>2026-04-19T15:15:53.906Z</time></trkpt><trkpt lat="44.8776953" lon="9.4322831"><ele>619.0</ele><time>2026-04-19T15:16:30.919Z</time></trkpt><trkpt lat="44.8777002" lon="9.4321838"><ele>619.0</ele><time>2026-04-19T15:16:32.943Z</time></trkpt><trkpt lat="44.8776974" lon="9.4320634"><ele>619.0</ele><time>2026-04-19T15:16:35.949Z</time></trkpt><trkpt lat="44.8776839" lon="9.4319448"><ele>619.0</ele><time>2026-04-19T15:16:38.956Z</time></trkpt><trkpt lat="44.8776733" lon="9.4318515"><ele>619.0</ele><time>2026-04-19T15:16:40.938Z</time></trkpt><trkpt lat="44.8776884" lon="9.4317569"><ele>617.1666666666667</ele><time>2026-04-19T15:16:42.923Z</time></trkpt><trkpt lat="44.8777324" lon="9.4316741"><ele>615.3333333333334</ele><time>2026-04-19T15:16:44.889Z</time></trkpt><trkpt lat="44.8777828" lon="9.4315747"><ele>613.5</ele><time>2026-04-19T15:16:46.879Z</time></trkpt><trkpt lat="44.8778543" lon="9.4314824"><ele>611.6666666666666</ele><time>2026-04-19T15:16:48.946Z</time></trkpt><trkpt lat="44.8779198" lon="9.431396"><ele>609.8333333333333</ele><time>2026-04-19T15:16:50.917Z</time></trkpt><trkpt lat="44.8779649" lon="9.4312954"><ele>608.0</ele><time>2026-04-19T15:16:52.922Z</time></trkpt><trkpt lat="44.877982" lon="9.431208"><ele>606.8333333333333</ele><time>2026-04-19T15:16:54.989Z</time></trkpt><trkpt lat="44.8779424" lon="9.4311115"><ele>605.6666666666666</ele><time>2026-04-19T15:16:58.901Z</time></trkpt><trkpt lat="44.8778541" lon="9.4310774"><ele>604.5</ele><time>2026-04-19T15:17:01.921Z</time></trkpt><trkpt lat="44.8777907" lon="9.4309836"><ele>603.3333333333334</ele><time>2026-04-19T15:17:04.918Z</time></trkpt><trkpt lat="44.8777426" lon="9.4309187"><ele>602.1666666666667</ele><time>2026-04-19T15:17:06.957Z</time></trkpt><trkpt lat="44.8776876" lon="9.4308574"><ele>601.0</ele><time>2026-04-19T15:17:08.962Z</time></trkpt><trkpt lat="44.8776114" lon="9.4308047"><ele>602.0</ele><time>2026-04-19T15:17:10.92Z</time></trkpt><trkpt lat="44.8775141" lon="9.4307743"><ele>603.0</ele><time>2026-04-19T15:17:12.881Z</time></trkpt><trkpt lat="44.8774524" lon="9.4307487"><ele>604.0</ele><time>2026-04-19T15:17:13.967Z</time></trkpt><trkpt lat="44.8773525" lon="9.4307008"><ele>605.0</ele><time>2026-04-19T15:17:15.935Z</time></trkpt><trkpt lat="44.8772623" lon="9.4306559"><ele>606.0</ele><time>2026-04-19T15:17:17.927Z</time></trkpt><trkpt lat="44.8771739" lon="9.4306021"><ele>606.0</ele><time>2026-04-19T15:17:19.891Z</time></trkpt><trkpt lat="44.8771183" lon="9.4305166"><ele>606.0</ele><time>2026-04-19T15:17:21.871Z</time></trkpt><trkpt lat="44.8770793" lon="9.4303037"><ele>606.0</ele><time>2026-04-19T15:17:24.885Z</time></trkpt><trkpt lat="44.87705" lon="9.43015"><ele>606.0</ele><time>2026-04-19T15:17:26.874Z</time></trkpt><trkpt lat="44.8770293" lon="9.4300636"><ele>606.0</ele><time>2026-04-19T15:17:28.005Z</time></trkpt><trkpt lat="44.8770113" lon="9.4299175"><ele>603.2</ele><time>2026-04-19T15:17:29.958Z</time></trkpt><trkpt lat="44.8770206" lon="9.4297487"><ele>600.4000000000001</ele><time>2026-04-19T15:17:31.922Z</time></trkpt><trkpt lat="44.8770414" lon="9.4296191"><ele>597.6</ele><time>2026-04-19T15:17:33.887Z</time></trkpt><trkpt lat="44.877075" lon="9.4294797"><ele>594.8000000000001</ele><time>2026-04-19T15:17:35.892Z</time></trkpt><trkpt lat="44.8771076" lon="9.4293401"><ele>592.0</ele><time>2026-04-19T15:17:37.89Z</time></trkpt><trkpt lat="44.8771561" lon="9.4291303"><ele>590.5</ele><time>2026-04-19T15:17:40.929Z</time></trkpt><trkpt lat="44.8771606" lon="9.4290182"><ele>589.0</ele><time>2026-04-19T15:17:42.875Z</time></trkpt><trkpt lat="44.8771286" lon="9.4288978"><ele>587.5</ele><time>2026-04-19T15:17:44.917Z</time></trkpt><trkpt lat="44.8770678" lon="9.4288036"><ele>586.0</ele><time>2026-04-19T15:17:46.908Z</time></trkpt><trkpt lat="44.8769883" lon="9.4286717"><ele>584.5</ele><time>2026-04-19T15:17:48.878Z</time></trkpt><trkpt lat="44.8769514" lon="9.4285972"><ele>583.0</ele><time>2026-04-19T15:17:49.931Z</time></trkpt><trkpt lat="44.8768674" lon="9.4284619"><ele>584.5</ele><time>2026-04-19T15:17:51.941Z</time></trkpt><trkpt lat="44.8767641" lon="9.4282839"><ele>586.0</ele><time>2026-04-19T15:17:54.926Z</time></trkpt><trkpt lat="44.8767195" lon="9.4281417"><ele>587.5</ele><time>2026-04-19T15:17:57Z</time></trkpt><trkpt lat="44.8766901" lon="9.4279816"><ele>589.0</ele><time>2026-04-19T15:17:58.943Z</time></trkpt><trkpt lat="44.87666" lon="9.4278206"><ele>589.0</ele><time>2026-04-19T15:18:00.92Z</time></trkpt><trkpt lat="44.8766147" lon="9.4276582"><ele>589.0</ele><time>2026-04-19T15:18:02.915Z</time></trkpt><trkpt lat="44.8765942" lon="9.4275718"><ele>589.0</ele><time>2026-04-19T15:18:03.893Z</time></trkpt><trkpt lat="44.8765697" lon="9.4274802"><ele>589.0</ele><time>2026-04-19T15:18:05.005Z</time></trkpt><trkpt lat="44.8765346" lon="9.4273281"><ele>589.0</ele><time>2026-04-19T15:18:06.957Z</time></trkpt><trkpt lat="44.8765204" lon="9.4271634"><ele>588.8</ele><time>2026-04-19T15:18:08.878Z</time></trkpt><trkpt lat="44.8765254" lon="9.4270662"><ele>588.5999999999999</ele><time>2026-04-19T15:18:09.876Z</time></trkpt><trkpt lat="44.8765495" lon="9.4269702"><ele>588.4</ele><time>2026-04-19T15:18:10.897Z</time></trkpt><trkpt lat="44.8766045" lon="9.4268217"><ele>588.1999999999999</ele><time>2026-04-19T15:18:12.878Z</time></trkpt><trkpt lat="44.8766663" lon="9.4266937"><ele>588.0</ele><time>2026-04-19T15:18:14.901Z</time></trkpt><trkpt lat="44.8767065" lon="9.426534"><ele>588.0</ele><time>2026-04-19T15:18:16.916Z</time></trkpt><trkpt lat="44.8767071" lon="9.4264446"><ele>588.0</ele><time>2026-04-19T15:18:17.901Z</time></trkpt><trkpt lat="44.8766969" lon="9.4263552"><ele>588.0</ele><time>2026-04-19T15:18:18.883Z</time></trkpt><trkpt lat="44.8766736" lon="9.426255"><ele>588.0</ele><time>2026-04-19T15:18:20.07Z</time></trkpt><trkpt lat="44.8766325" lon="9.4261"><ele>588.0</ele><time>2026-04-19T15:18:21.914Z</time></trkpt><trkpt lat="44.8765883" lon="9.425964"><ele>588.0</ele><time>2026-04-19T15:18:23.845Z</time></trkpt><trkpt lat="44.8765096" lon="9.4258698"><ele>587.0</ele><time>2026-04-19T15:18:25.869Z</time></trkpt><trkpt lat="44.8764245" lon="9.425844"><ele>586.0</ele><time>2026-04-19T15:18:27.965Z</time></trkpt><trkpt lat="44.8763429" lon="9.4258327"><ele>585.0</ele><time>2026-04-19T15:18:29.997Z</time></trkpt><trkpt lat="44.8762598" lon="9.4257984"><ele>584.0</ele><time>2026-04-19T15:18:32.921Z</time></trkpt><trkpt lat="44.8762018" lon="9.4257562"><ele>583.0</ele><time>2026-04-19T15:18:39.913Z</time></trkpt><trkpt lat="44.87615" lon="9.4256656"><ele>582.0</ele><time>2026-04-19T15:18:41.948Z</time></trkpt><trkpt lat="44.8761043" lon="9.4255566"><ele>580.8571428571429</ele><time>2026-04-19T15:18:43.91Z</time></trkpt><trkpt lat="44.8760692" lon="9.4254428"><ele>579.7142857142857</ele><time>2026-04-19T15:18:46.016Z</time></trkpt><trkpt lat="44.876052" lon="9.4253557"><ele>578.5714285714286</ele><time>2026-04-19T15:18:49.901Z</time></trkpt><trkpt lat="44.8760226" lon="9.4252488"><ele>577.4285714285714</ele><time>2026-04-19T15:22:31.916Z</time></trkpt><trkpt lat="44.876004" lon="9.4251638"><ele>576.2857142857142</ele><time>2026-04-19T15:22:38.965Z</time></trkpt><trkpt lat="44.8759577" lon="9.4250679"><ele>575.1428571428571</ele><time>2026-04-19T15:22:49.957Z</time></trkpt><trkpt lat="44.8759155" lon="9.4249967"><ele>574.0</ele><time>2026-04-19T15:22:53.948Z</time></trkpt><trkpt lat="44.8758744" lon="9.4249272"><ele>576.6666666666667</ele><time>2026-04-19T15:22:56.918Z</time></trkpt><trkpt lat="44.875835" lon="9.4248319"><ele>579.3333333333334</ele><time>2026-04-19T15:23:00.901Z</time></trkpt><trkpt lat="44.8758208" lon="9.4247079"><ele>582.0</ele><time>2026-04-19T15:23:03.923Z</time></trkpt><trkpt lat="44.8758235" lon="9.4246148"><ele>584.6666666666666</ele><time>2026-04-19T15:23:06.906Z</time></trkpt><trkpt lat="44.8758362" lon="9.4244886"><ele>587.3333333333333</ele><time>2026-04-19T15:23:09.915Z</time></trkpt><trkpt lat="44.8758392" lon="9.4243459"><ele>590.0</ele><time>2026-04-19T15:23:12.989Z</time></trkpt><trkpt lat="44.8758405" lon="9.4242509"><ele>590.0</ele><time>2026-04-19T15:23:17.001Z</time></trkpt><trkpt lat="44.875829" lon="9.4241404"><ele>590.0</ele><time>2026-04-19T15:23:21.955Z</time></trkpt><trkpt lat="44.8758136" lon="9.4240326"><ele>590.0</ele><time>2026-04-19T15:23:23.978Z</time></trkpt><trkpt lat="44.875795" lon="9.4239093"><ele>590.0</ele><time>2026-04-19T15:23:25.961Z</time></trkpt><trkpt lat="44.8757703" lon="9.4237778"><ele>590.0</ele><time>2026-04-19T15:23:27.962Z</time></trkpt><trkpt lat="44.8757475" lon="9.4236673"><ele>590.0</ele><time>2026-04-19T15:23:30.003Z</time></trkpt><trkpt lat="44.8757489" lon="9.4235346"><ele>590.3333333333333</ele><time>2026-04-19T15:23:32.932Z</time></trkpt><trkpt lat="44.8757554" lon="9.4234256"><ele>590.6666666666666</ele><time>2026-04-19T15:23:34.978Z</time></trkpt><trkpt lat="44.8757515" lon="9.4233194"><ele>591.0</ele><time>2026-04-19T15:23:36.948Z</time></trkpt><trkpt lat="44.8757363" lon="9.4232184"><ele>591.3333333333334</ele><time>2026-04-19T15:23:38.958Z</time></trkpt><trkpt lat="44.8756892" lon="9.4231087"><ele>591.6666666666667</ele><time>2026-04-19T15:25:00.986Z</time></trkpt><trkpt lat="44.8756433" lon="9.4230009"><ele>592.0</ele><time>2026-04-19T15:25:02.981Z</time></trkpt><trkpt lat="44.8755942" lon="9.4229048"><ele>591.3333333333334</ele><time>2026-04-19T15:25:04.99Z</time></trkpt><trkpt lat="44.8755459" lon="9.4228087"><ele>590.6666666666667</ele><time>2026-04-19T15:25:07.011Z</time></trkpt><trkpt lat="44.8754656" lon="9.4226638"><ele>590.0</ele><time>2026-04-19T15:25:09.979Z</time></trkpt><trkpt lat="44.8754137" lon="9.4225738"><ele>589.3333333333334</ele><time>2026-04-19T15:25:11.98Z</time></trkpt><trkpt lat="44.8753684" lon="9.4224929"><ele>588.6666666666666</ele><time>2026-04-19T15:25:13.934Z</time></trkpt><trkpt lat="44.8753279" lon="9.4224076"><ele>588.0</ele><time>2026-04-19T15:25:16.029Z</time></trkpt><trkpt lat="44.8752764" lon="9.422315"><ele>588.0</ele><time>2026-04-19T15:25:18.082Z</time></trkpt><trkpt lat="44.8752144" lon="9.4222222"><ele>588.0</ele><time>2026-04-19T15:25:19.976Z</time></trkpt><trkpt lat="44.8751468" lon="9.4221329"><ele>588.0</ele><time>2026-04-19T15:25:21.997Z</time></trkpt><trkpt lat="44.8750842" lon="9.4220585"><ele>588.0</ele><time>2026-04-19T15:25:23.966Z</time></trkpt><trkpt lat="44.8750277" lon="9.4219804"><ele>588.0</ele><time>2026-04-19T15:25:25.954Z</time></trkpt><trkpt lat="44.8749917" lon="9.4218803"><ele>588.0</ele><time>2026-04-19T15:25:27.952Z</time></trkpt><trkpt lat="44.8749803" lon="9.4217225"><ele>588.1428571428571</ele><time>2026-04-19T15:25:30.983Z</time></trkpt><trkpt lat="44.8749701" lon="9.4215974"><ele>588.2857142857142</ele><time>2026-04-19T15:25:33.986Z</time></trkpt><trkpt lat="44.8749537" lon="9.4215079"><ele>588.4285714285714</ele><time>2026-04-19T15:25:36.984Z</time></trkpt><trkpt lat="44.8749411" lon="9.4214018"><ele>588.5714285714286</ele><time>2026-04-19T15:25:41.027Z</time></trkpt><trkpt lat="44.8749011" lon="9.4212953"><ele>588.7142857142857</ele><time>2026-04-19T15:25:48.053Z</time></trkpt><trkpt lat="44.8748675" lon="9.4212164"><ele>588.8571428571429</ele><time>2026-04-19T15:26:02.998Z</time></trkpt><trkpt lat="44.8748228" lon="9.4211498"><ele>589.0</ele><time>2026-04-19T15:26:13.903Z</time></trkpt><trkpt lat="44.8747763" lon="9.4210735"><ele>589.0</ele><time>2026-04-19T15:26:31.964Z</time></trkpt><trkpt lat="44.8747303" lon="9.4209403"><ele>589.0</ele><time>2026-04-19T15:26:34.975Z</time></trkpt><trkpt lat="44.8746968" lon="9.4208317"><ele>589.0</ele><time>2026-04-19T15:26:36.968Z</time></trkpt><trkpt lat="44.8746547" lon="9.4207005"><ele>589.0</ele><time>2026-04-19T15:26:38.967Z</time></trkpt><trkpt lat="44.8746044" lon="9.4205757"><ele>589.0</ele><time>2026-04-19T15:26:40.978Z</time></trkpt><trkpt lat="44.8745522" lon="9.4204149"><ele>589.1666666666667</ele><time>2026-04-19T15:26:43.931Z</time></trkpt><trkpt lat="44.8745357" lon="9.4202992"><ele>589.3333333333334</ele><time>2026-04-19T15:26:45.982Z</time></trkpt><trkpt lat="44.8745205" lon="9.4201189"><ele>589.5</ele><time>2026-04-19T15:26:49.075Z</time></trkpt><trkpt lat="44.8745125" lon="9.4200259"><ele>589.6666666666666</ele><time>2026-04-19T15:26:50.596Z</time></trkpt><trkpt lat="44.8744824" lon="9.4199388"><ele>589.8333333333333</ele><time>2026-04-19T15:27:00.596Z</time></trkpt><trkpt lat="44.8744565" lon="9.4198213"><ele>590.0</ele><time>2026-04-19T15:27:02.596Z</time></trkpt><trkpt lat="44.8744304" lon="9.4197131"><ele>590.0</ele><time>2026-04-19T15:27:04.596Z</time></trkpt><trkpt lat="44.8744128" lon="9.4196092"><ele>590.0</ele><time>2026-04-19T15:27:06.596Z</time></trkpt><trkpt lat="44.8743942" lon="9.4195072"><ele>590.0</ele><time>2026-04-19T15:27:08.596Z</time></trkpt><trkpt lat="44.874374" lon="9.4193889"><ele>590.0</ele><time>2026-04-19T15:27:10.596Z</time></trkpt><trkpt lat="44.8743507" lon="9.4192503"><ele>590.0</ele><time>2026-04-19T15:27:12.596Z</time></trkpt><trkpt lat="44.8743249" lon="9.4191068"><ele>590.0</ele><time>2026-04-19T15:27:14.596Z</time></trkpt><trkpt lat="44.8743001" lon="9.4189786"><ele>590.0</ele><time>2026-04-19T15:27:16.596Z</time></trkpt><trkpt lat="44.8742735" lon="9.4188551"><ele>590.0</ele><time>2026-04-19T15:27:18.596Z</time></trkpt><trkpt lat="44.8742461" lon="9.4187087"><ele>590.0</ele><time>2026-04-19T15:27:20.596Z</time></trkpt><trkpt lat="44.8742167" lon="9.4185725"><ele>590.0</ele><time>2026-04-19T15:27:22.596Z</time></trkpt><trkpt lat="44.8741838" lon="9.4184498"><ele>590.0</ele><time>2026-04-19T15:27:24.596Z</time></trkpt><trkpt lat="44.8741584" lon="9.4183286"><ele>593.6666666666666</ele><time>2026-04-19T15:27:26.596Z</time></trkpt><trkpt lat="44.8741403" lon="9.4182283"><ele>597.3333333333333</ele><time>2026-04-19T15:27:28.597Z</time></trkpt><trkpt lat="44.8741192" lon="9.4181243"><ele>601.0</ele><time>2026-04-19T15:27:30.596Z</time></trkpt><trkpt lat="44.8740833" lon="9.4179963"><ele>604.6666666666666</ele><time>2026-04-19T15:27:32.596Z</time></trkpt><trkpt lat="44.8740524" lon="9.4178686"><ele>608.3333333333334</ele><time>2026-04-19T15:27:34.596Z</time></trkpt><trkpt lat="44.8740399" lon="9.417747"><ele>612.0</ele><time>2026-04-19T15:27:36.596Z</time></trkpt><trkpt lat="44.8740161" lon="9.4176208"><ele>612.0</ele><time>2026-04-19T15:27:38.596Z</time></trkpt><trkpt lat="44.8739892" lon="9.4174948"><ele>612.0</ele><time>2026-04-19T15:27:40.596Z</time></trkpt><trkpt lat="44.8739472" lon="9.4173753"><ele>612.0</ele><time>2026-04-19T15:27:42.596Z</time></trkpt><trkpt lat="44.8739054" lon="9.4172686"><ele>612.0</ele><time>2026-04-19T15:27:44.596Z</time></trkpt><trkpt lat="44.8738599" lon="9.4171513"><ele>612.0</ele><time>2026-04-19T15:27:46.597Z</time></trkpt><trkpt lat="44.8738012" lon="9.4170346"><ele>612.4</ele><time>2026-04-19T15:27:48.596Z</time></trkpt><trkpt lat="44.8737481" lon="9.4169018"><ele>612.8000000000001</ele><time>2026-04-19T15:27:50.596Z</time></trkpt><trkpt lat="44.8737031" lon="9.4167774"><ele>613.2</ele><time>2026-04-19T15:27:52.596Z</time></trkpt><trkpt lat="44.8736689" lon="9.4166686"><ele>613.6</ele><time>2026-04-19T15:27:54.596Z</time></trkpt><trkpt lat="44.8736563" lon="9.4165478"><ele>614.0</ele><time>2026-04-19T15:27:56.596Z</time></trkpt><trkpt lat="44.8736535" lon="9.4164274"><ele>613.9999999999999</ele><time>2026-04-19T15:27:58.596Z</time></trkpt><trkpt lat="44.8736618" lon="9.4163376"><ele>614.0</ele><time>2026-04-19T15:28:09.596Z</time></trkpt><trkpt lat="44.8737046" lon="9.4162509"><ele>614.0</ele><time>2026-04-19T15:28:11.596Z</time></trkpt><trkpt lat="44.8737626" lon="9.4161769"><ele>614.0</ele><time>2026-04-19T15:28:14.596Z</time></trkpt><trkpt lat="44.8736995" lon="9.4162204"><ele>614.0</ele><time>2026-04-19T15:28:28.596Z</time></trkpt><trkpt lat="44.8736567" lon="9.4163128"><ele>613.9999999999999</ele><time>2026-04-19T15:28:30.596Z</time></trkpt><trkpt lat="44.8736151" lon="9.4164055"><ele>614.0</ele><time>2026-04-19T15:28:32.596Z</time></trkpt><trkpt lat="44.8735978" lon="9.4165115"><ele>614.0</ele><time>2026-04-19T15:28:34.596Z</time></trkpt><trkpt lat="44.8735965" lon="9.4166413"><ele>614.0</ele><time>2026-04-19T15:28:36.596Z</time></trkpt><trkpt lat="44.8736056" lon="9.4168077"><ele>614.0</ele><time>2026-04-19T15:28:38.596Z</time></trkpt><trkpt lat="44.8735994" lon="9.4169826"><ele>614.0</ele><time>2026-04-19T15:28:40.596Z</time></trkpt><trkpt lat="44.8735882" lon="9.417149"><ele>613.6</ele><time>2026-04-19T15:28:42.596Z</time></trkpt><trkpt lat="44.8735551" lon="9.4172848"><ele>613.2</ele><time>2026-04-19T15:28:44.596Z</time></trkpt><trkpt lat="44.8735114" lon="9.4174164"><ele>612.8000000000001</ele><time>2026-04-19T15:28:46.596Z</time></trkpt><trkpt lat="44.8734658" lon="9.4175549"><ele>612.4</ele><time>2026-04-19T15:28:48.596Z</time></trkpt><trkpt lat="44.8734305" lon="9.4177035"><ele>612.0</ele><time>2026-04-19T15:28:50.596Z</time></trkpt><trkpt lat="44.8733953" lon="9.417829"><ele>616.75</ele><time>2026-04-19T15:28:52.596Z</time></trkpt><trkpt lat="44.8733759" lon="9.417978"><ele>621.5</ele><time>2026-04-19T15:28:54.596Z</time></trkpt><trkpt lat="44.8733342" lon="9.4181443"><ele>626.25</ele><time>2026-04-19T15:28:56.596Z</time></trkpt><trkpt lat="44.8732728" lon="9.4182771"><ele>631.0</ele><time>2026-04-19T15:28:58.596Z</time></trkpt><trkpt lat="44.8731809" lon="9.4183842"><ele>632.25</ele><time>2026-04-19T15:29:00.596Z</time></trkpt><trkpt lat="44.8730762" lon="9.4184805"><ele>633.5</ele><time>2026-04-19T15:29:02.597Z</time></trkpt><trkpt lat="44.8729756" lon="9.4185806"><ele>634.75</ele><time>2026-04-19T15:29:04.596Z</time></trkpt><trkpt lat="44.8728884" lon="9.4186898"><ele>636.0</ele><time>2026-04-19T15:29:06.596Z</time></trkpt><trkpt lat="44.8728104" lon="9.4188013"><ele>634.6666666666666</ele><time>2026-04-19T15:29:08.596Z</time></trkpt><trkpt lat="44.8727404" lon="9.4189525"><ele>633.3333333333334</ele><time>2026-04-19T15:29:10.596Z</time></trkpt><trkpt lat="44.8727139" lon="9.4190422"><ele>632.0</ele><time>2026-04-19T15:29:11.596Z</time></trkpt><trkpt lat="44.8726864" lon="9.4191356"><ele>630.6666666666667</ele><time>2026-04-19T15:29:12.596Z</time></trkpt><trkpt lat="44.872663" lon="9.4192311"><ele>629.3333333333334</ele><time>2026-04-19T15:29:13.596Z</time></trkpt><trkpt lat="44.8726429" lon="9.4193295"><ele>628.0</ele><time>2026-04-19T15:29:14.596Z</time></trkpt><trkpt lat="44.8726201" lon="9.4194185"><ele>629.6</ele><time>2026-04-19T15:29:15.596Z</time></trkpt><trkpt lat="44.8725737" lon="9.4195792"><ele>631.1999999999999</ele><time>2026-04-19T15:29:17.596Z</time></trkpt><trkpt lat="44.8725215" lon="9.4197047"><ele>632.8</ele><time>2026-04-19T15:29:19.596Z</time></trkpt><trkpt lat="44.87246" lon="9.4198499"><ele>634.4</ele><time>2026-04-19T15:29:21.596Z</time></trkpt><trkpt lat="44.8724223" lon="9.419929"><ele>636.0</ele><time>2026-04-19T15:29:22.596Z</time></trkpt><trkpt lat="44.8723804" lon="9.4200065"><ele>636.2</ele><time>2026-04-19T15:29:23.596Z</time></trkpt><trkpt lat="44.8723041" lon="9.420127"><ele>636.4000000000001</ele><time>2026-04-19T15:29:25.596Z</time></trkpt><trkpt lat="44.872212" lon="9.4202467"><ele>636.6</ele><time>2026-04-19T15:29:27.597Z</time></trkpt><trkpt lat="44.8721668" lon="9.4203108"><ele>636.8000000000001</ele><time>2026-04-19T15:29:28.596Z</time></trkpt><trkpt lat="44.8720739" lon="9.4204204"><ele>637.0</ele><time>2026-04-19T15:29:30.596Z</time></trkpt><trkpt lat="44.8719989" lon="9.4205134"><ele>637.1666666666667</ele><time>2026-04-19T15:29:32.596Z</time></trkpt><trkpt lat="44.8719404" lon="9.4206045"><ele>637.3333333333334</ele><time>2026-04-19T15:29:34.596Z</time></trkpt><trkpt lat="44.8718957" lon="9.4207421"><ele>637.5</ele><time>2026-04-19T15:29:36.596Z</time></trkpt><trkpt lat="44.8718451" lon="9.4208567"><ele>637.6666666666666</ele><time>2026-04-19T15:29:38.596Z</time></trkpt><trkpt lat="44.8717944" lon="9.4209261"><ele>637.8333333333333</ele><time>2026-04-19T15:29:40.596Z</time></trkpt><trkpt lat="44.8717389" lon="9.4210085"><ele>638.0</ele><time>2026-04-19T15:29:43.596Z</time></trkpt><trkpt lat="44.8717043" lon="9.4210847"><ele>638.0</ele><time>2026-04-19T15:29:49.596Z</time></trkpt><trkpt lat="44.8716677" lon="9.4211773"><ele>638.0</ele><time>2026-04-19T15:29:55.596Z</time></trkpt><trkpt lat="44.8716542" lon="9.4212646"><ele>638.0</ele><time>2026-04-19T15:30:03.059Z</time></trkpt><trkpt lat="44.8716267" lon="9.4213654"><ele>638.0</ele><time>2026-04-19T15:30:05.985Z</time></trkpt><trkpt lat="44.8715999" lon="9.4214474"><ele>638.0</ele><time>2026-04-19T15:30:57.068Z</time></trkpt><trkpt lat="44.8715846" lon="9.4215601"><ele>638.0</ele><time>2026-04-19T15:31:00.982Z</time></trkpt><trkpt lat="44.8715899" lon="9.4216753"><ele>638.0</ele><time>2026-04-19T15:32:34.972Z</time></trkpt><trkpt lat="44.8716125" lon="9.4217753"><ele>638.8333333333333</ele><time>2026-04-19T15:32:37.028Z</time></trkpt><trkpt lat="44.8716444" lon="9.4218883"><ele>639.6666666666666</ele><time>2026-04-19T15:32:40.044Z</time></trkpt><trkpt lat="44.8716612" lon="9.4220111"><ele>640.5</ele><time>2026-04-19T15:32:43Z</time></trkpt><trkpt lat="44.8716421" lon="9.4220979"><ele>641.3333333333334</ele><time>2026-04-19T15:32:45.085Z</time></trkpt><trkpt lat="44.8716106" lon="9.4222045"><ele>642.1666666666667</ele><time>2026-04-19T15:32:47.206Z</time></trkpt><trkpt lat="44.8715446" lon="9.4223164"><ele>643.0</ele><time>2026-04-19T15:32:50.12Z</time></trkpt><trkpt lat="44.8715064" lon="9.422431"><ele>644.5</ele><time>2026-04-19T15:32:53.071Z</time></trkpt><trkpt lat="44.8714889" lon="9.4225306"><ele>646.0</ele><time>2026-04-19T15:32:55.083Z</time></trkpt><trkpt lat="44.8714822" lon="9.4226528"><ele>647.5</ele><time>2026-04-19T15:32:56.97Z</time></trkpt><trkpt lat="44.8714853" lon="9.4227511"><ele>649.0</ele><time>2026-04-19T15:32:59.072Z</time></trkpt><trkpt lat="44.8714952" lon="9.4228436"><ele>650.5</ele><time>2026-04-19T15:33:00.991Z</time></trkpt><trkpt lat="44.8715102" lon="9.4229717"><ele>652.0</ele><time>2026-04-19T15:33:03.124Z</time></trkpt><trkpt lat="44.8715301" lon="9.4230795"><ele>653.4285714285714</ele><time>2026-04-19T15:33:05.106Z</time></trkpt><trkpt lat="44.8715287" lon="9.4231815"><ele>654.8571428571428</ele><time>2026-04-19T15:33:06.987Z</time></trkpt><trkpt lat="44.8715064" lon="9.4232754"><ele>656.2857142857142</ele><time>2026-04-19T15:33:09.049Z</time></trkpt><trkpt lat="44.8714758" lon="9.4233734"><ele>657.7142857142858</ele><time>2026-04-19T15:33:11.053Z</time></trkpt><trkpt lat="44.8714566" lon="9.4234877"><ele>659.1428571428571</ele><time>2026-04-19T15:33:13.264Z</time></trkpt><trkpt lat="44.87144" lon="9.4235797"><ele>660.5714285714286</ele><time>2026-04-19T15:33:15.061Z</time></trkpt><trkpt lat="44.8714124" lon="9.4236718"><ele>662.0</ele><time>2026-04-19T15:33:16.976Z</time></trkpt><trkpt lat="44.8713635" lon="9.4237503"><ele>662.0</ele><time>2026-04-19T15:33:19.068Z</time></trkpt><trkpt lat="44.8712858" lon="9.4237697"><ele>662.0</ele><time>2026-04-19T15:33:21.111Z</time></trkpt><trkpt lat="44.8712098" lon="9.4237912"><ele>662.0</ele><time>2026-04-19T15:33:23.067Z</time></trkpt><trkpt lat="44.871151" lon="9.4238653"><ele>662.0</ele><time>2026-04-19T15:33:25.058Z</time></trkpt><trkpt lat="44.8711034" lon="9.4239605"><ele>662.0</ele><time>2026-04-19T15:33:27.043Z</time></trkpt><trkpt lat="44.8710289" lon="9.4241202"><ele>662.5</ele><time>2026-04-19T15:33:30.06Z</time></trkpt><trkpt lat="44.8710096" lon="9.4242296"><ele>663.0</ele><time>2026-04-19T15:33:31.988Z</time></trkpt><trkpt lat="44.8710332" lon="9.4243573"><ele>663.5</ele><time>2026-04-19T15:33:34.022Z</time></trkpt><trkpt lat="44.8710503" lon="9.4244741"><ele>664.0</ele><time>2026-04-19T15:33:35.944Z</time></trkpt><trkpt lat="44.8710529" lon="9.4245986"><ele>664.5</ele><time>2026-04-19T15:33:37.974Z</time></trkpt><trkpt lat="44.8710384" lon="9.4247163"><ele>665.0</ele><time>2026-04-19T15:33:40.154Z</time></trkpt><trkpt lat="44.870998" lon="9.4248133"><ele>666.1666666666666</ele><time>2026-04-19T15:33:41.956Z</time></trkpt><trkpt lat="44.8709525" lon="9.4249474"><ele>667.3333333333333</ele><time>2026-04-19T15:33:43.962Z</time></trkpt><trkpt lat="44.8709374" lon="9.4250409"><ele>668.5</ele><time>2026-04-19T15:33:45.954Z</time></trkpt><trkpt lat="44.8709046" lon="9.4251463"><ele>669.6666666666666</ele><time>2026-04-19T15:34:35.131Z</time></trkpt><trkpt lat="44.870897" lon="9.4253061"><ele>670.8333333333334</ele><time>2026-04-19T15:34:39.065Z</time></trkpt><trkpt lat="44.870881" lon="9.4254034"><ele>672.0</ele><time>2026-04-19T15:34:40.993Z</time></trkpt><trkpt lat="44.8708279" lon="9.4255086"><ele>675.3333333333334</ele><time>2026-04-19T15:34:43.181Z</time></trkpt><trkpt lat="44.8707632" lon="9.4256096"><ele>678.6666666666666</ele><time>2026-04-19T15:34:45.165Z</time></trkpt><trkpt lat="44.870705" lon="9.4257043"><ele>682.0</ele><time>2026-04-19T15:34:47.011Z</time></trkpt><trkpt lat="44.8706619" lon="9.4257994"><ele>685.3333333333333</ele><time>2026-04-19T15:34:48.955Z</time></trkpt><trkpt lat="44.870641" lon="9.4259017"><ele>688.6666666666666</ele><time>2026-04-19T15:34:51.049Z</time></trkpt><trkpt lat="44.8706317" lon="9.4260241"><ele>692.0</ele><time>2026-04-19T15:34:53.005Z</time></trkpt><trkpt lat="44.8706286" lon="9.4261788"><ele>692.0</ele><time>2026-04-19T15:34:55.133Z</time></trkpt><trkpt lat="44.8706429" lon="9.4263059"><ele>692.0</ele><time>2026-04-19T15:34:57.041Z</time></trkpt><trkpt lat="44.8706878" lon="9.4264143"><ele>692.0</ele><time>2026-04-19T15:34:59.032Z</time></trkpt><trkpt lat="44.870726" lon="9.4265058"><ele>692.0</ele><time>2026-04-19T15:35:00.106Z</time></trkpt><trkpt lat="44.8707688" lon="9.4265943"><ele>692.0</ele><time>2026-04-19T15:35:01.15Z</time></trkpt><trkpt lat="44.8708402" lon="9.4267648"><ele>692.3333333333333</ele><time>2026-04-19T15:35:03.091Z</time></trkpt><trkpt lat="44.8708908" lon="9.4268483"><ele>692.6666666666666</ele><time>2026-04-19T15:35:04.034Z</time></trkpt><trkpt lat="44.8709471" lon="9.4269388"><ele>693.0</ele><time>2026-04-19T15:35:05.024Z</time></trkpt><trkpt lat="44.8709977" lon="9.4270327"><ele>693.3333333333334</ele><time>2026-04-19T15:35:06.011Z</time></trkpt><trkpt lat="44.8710463" lon="9.4271315"><ele>693.6666666666667</ele><time>2026-04-19T15:35:06.974Z</time></trkpt><trkpt lat="44.8710859" lon="9.4272362"><ele>694.0</ele><time>2026-04-19T15:35:07.964Z</time></trkpt><trkpt lat="44.8711239" lon="9.4273404"><ele>692.8333333333334</ele><time>2026-04-19T15:35:08.976Z</time></trkpt><trkpt lat="44.8711577" lon="9.4274465"><ele>691.6666666666667</ele><time>2026-04-19T15:35:09.988Z</time></trkpt><trkpt lat="44.8711921" lon="9.4275619"><ele>690.5</ele><time>2026-04-19T15:35:11.131Z</time></trkpt><trkpt lat="44.8712202" lon="9.427645"><ele>689.3333333333334</ele><time>2026-04-19T15:35:12.116Z</time></trkpt><trkpt lat="44.8712659" lon="9.4278088"><ele>688.1666666666666</ele><time>2026-04-19T15:35:14.099Z</time></trkpt><trkpt lat="44.8712912" lon="9.4279095"><ele>687.0</ele><time>2026-04-19T15:35:15.158Z</time></trkpt><trkpt lat="44.8713116" lon="9.4280035"><ele>687.0</ele><time>2026-04-19T15:35:16.161Z</time></trkpt><trkpt lat="44.8713293" lon="9.4281886"><ele>687.0</ele><time>2026-04-19T15:35:18.062Z</time></trkpt><trkpt lat="44.8713325" lon="9.4282793"><ele>687.0</ele><time>2026-04-19T15:35:19.038Z</time></trkpt><trkpt lat="44.8713301" lon="9.428372"><ele>687.0</ele><time>2026-04-19T15:35:20.038Z</time></trkpt><trkpt lat="44.8713362" lon="9.4284607"><ele>687.0</ele><time>2026-04-19T15:35:21.002Z</time></trkpt><trkpt lat="44.8713874" lon="9.4286141"><ele>687.0</ele><time>2026-04-19T15:35:22.953Z</time></trkpt><trkpt lat="44.8714256" lon="9.4287008"><ele>687.0</ele><time>2026-04-19T15:35:23.994Z</time></trkpt><trkpt lat="44.8714806" lon="9.4287917"><ele>687.0</ele><time>2026-04-19T15:35:25.084Z</time></trkpt><trkpt lat="44.8715376" lon="9.4288659"><ele>687.0</ele><time>2026-04-19T15:35:26.065Z</time></trkpt><trkpt lat="44.8715858" lon="9.4289348"><ele>687.0</ele><time>2026-04-19T15:35:26.99Z</time></trkpt><trkpt lat="44.8716381" lon="9.4290093"><ele>687.0</ele><time>2026-04-19T15:35:27.944Z</time></trkpt><trkpt lat="44.8716895" lon="9.4290888"><ele>687.0</ele><time>2026-04-19T15:35:28.938Z</time></trkpt><trkpt lat="44.8717367" lon="9.429174"><ele>687.1666666666666</ele><time>2026-04-19T15:35:29.932Z</time></trkpt><trkpt lat="44.87178" lon="9.4292695"><ele>687.3333333333334</ele><time>2026-04-19T15:35:30.955Z</time></trkpt><trkpt lat="44.8718162" lon="9.4293652"><ele>687.5</ele><time>2026-04-19T15:35:31.956Z</time></trkpt><trkpt lat="44.8718519" lon="9.4294601"><ele>687.6666666666667</ele><time>2026-04-19T15:35:32.958Z</time></trkpt><trkpt lat="44.8719009" lon="9.4295638"><ele>687.8333333333334</ele><time>2026-04-19T15:35:34.046Z</time></trkpt><trkpt lat="44.8719529" lon="9.4296565"><ele>688.0</ele><time>2026-04-19T15:35:35.014Z</time></trkpt><trkpt lat="44.8720059" lon="9.4297505"><ele>689.4</ele><time>2026-04-19T15:35:35.968Z</time></trkpt><trkpt lat="44.8720711" lon="9.4298673"><ele>690.8</ele><time>2026-04-19T15:35:37.058Z</time></trkpt><trkpt lat="44.8721291" lon="9.4299734"><ele>692.2</ele><time>2026-04-19T15:35:37.962Z</time></trkpt><trkpt lat="44.8721946" lon="9.4301021"><ele>693.6</ele><time>2026-04-19T15:35:39.012Z</time></trkpt><trkpt lat="44.8722538" lon="9.4302244"><ele>695.0</ele><time>2026-04-19T15:35:39.979Z</time></trkpt><trkpt lat="44.8723171" lon="9.4303482"><ele>695.0</ele><time>2026-04-19T15:35:40.981Z</time></trkpt><trkpt lat="44.8723724" lon="9.4304624"><ele>695.0</ele><time>2026-04-19T15:35:41.936Z</time></trkpt><trkpt lat="44.8724364" lon="9.4305905"><ele>695.0</ele><time>2026-04-19T15:35:43.056Z</time></trkpt><trkpt lat="44.8724883" lon="9.4306969"><ele>695.0</ele><time>2026-04-19T15:35:44.001Z</time></trkpt><trkpt lat="44.8725443" lon="9.4308025"><ele>695.0</ele><time>2026-04-19T15:35:44.971Z</time></trkpt><trkpt lat="44.8726031" lon="9.4309098"><ele>694.4</ele><time>2026-04-19T15:35:45.962Z</time></trkpt><trkpt lat="44.8726657" lon="9.4310156"><ele>693.8</ele><time>2026-04-19T15:35:46.99Z</time></trkpt><trkpt lat="44.8727205" lon="9.4311024"><ele>693.2</ele><time>2026-04-19T15:35:47.964Z</time></trkpt><trkpt lat="44.8727784" lon="9.4311926"><ele>692.6</ele><time>2026-04-19T15:35:48.948Z</time></trkpt><trkpt lat="44.8728423" lon="9.4313006"><ele>692.0</ele><time>2026-04-19T15:35:50.09Z</time></trkpt><trkpt lat="44.8729479" lon="9.4315449"><ele>694.0</ele><time>2026-04-19T15:35:51.937Z</time></trkpt><trkpt lat="44.8730186" lon="9.4317076"><ele>696.0</ele><time>2026-04-19T15:35:53.089Z</time></trkpt><trkpt lat="44.8731333" lon="9.4318953"><ele>698.0</ele><time>2026-04-19T15:35:55.069Z</time></trkpt><trkpt lat="44.8731749" lon="9.4319756"><ele>700.0</ele><time>2026-04-19T15:35:56.006Z</time></trkpt><trkpt lat="44.8732156" lon="9.4320576"><ele>700.5</ele><time>2026-04-19T15:35:56.96Z</time></trkpt><trkpt lat="44.8732465" lon="9.4321404"><ele>701.0</ele><time>2026-04-19T15:35:57.916Z</time></trkpt><trkpt lat="44.8732696" lon="9.4322302"><ele>701.5</ele><time>2026-04-19T15:35:58.942Z</time></trkpt><trkpt lat="44.8732773" lon="9.4323331"><ele>702.0</ele><time>2026-04-19T15:35:59.983Z</time></trkpt><trkpt lat="44.8732714" lon="9.432423"><ele>702.5</ele><time>2026-04-19T15:36:00.93Z</time></trkpt><trkpt lat="44.873258" lon="9.4325219"><ele>703.0</ele><time>2026-04-19T15:36:02.047Z</time></trkpt><trkpt lat="44.8732307" lon="9.4326821"><ele>703.0</ele><time>2026-04-19T15:36:03.94Z</time></trkpt><trkpt lat="44.8732034" lon="9.4328291"><ele>703.0</ele><time>2026-04-19T15:36:05.928Z</time></trkpt><trkpt lat="44.8732084" lon="9.4329205"><ele>703.0</ele><time>2026-04-19T15:36:06.995Z</time></trkpt><trkpt lat="44.8732552" lon="9.4331091"><ele>703.0</ele><time>2026-04-19T15:36:08.945Z</time></trkpt><trkpt lat="44.8732788" lon="9.4332152"><ele>703.0</ele><time>2026-04-19T15:36:09.921Z</time></trkpt><trkpt lat="44.8733092" lon="9.4333191"><ele>703.0</ele><time>2026-04-19T15:36:10.969Z</time></trkpt><trkpt lat="44.8733558" lon="9.4334132"><ele>703.0</ele><time>2026-04-19T15:36:11.957Z</time></trkpt><trkpt lat="44.8734302" lon="9.4335096"><ele>703.0</ele><time>2026-04-19T15:36:12.98Z</time></trkpt><trkpt lat="44.8735231" lon="9.4336003"><ele>703.0</ele><time>2026-04-19T15:36:14.022Z</time></trkpt><trkpt lat="44.8736223" lon="9.4336779"><ele>703.0</ele><time>2026-04-19T15:36:14.966Z</time></trkpt><trkpt lat="44.8737137" lon="9.4337507"><ele>700.8</ele><time>2026-04-19T15:36:15.921Z</time></trkpt><trkpt lat="44.8738057" lon="9.433835"><ele>698.5999999999999</ele><time>2026-04-19T15:36:16.963Z</time></trkpt><trkpt lat="44.8738836" lon="9.4339192"><ele>696.4000000000001</ele><time>2026-04-19T15:36:18.023Z</time></trkpt><trkpt lat="44.8739468" lon="9.4340087"><ele>694.2</ele><time>2026-04-19T15:36:18.987Z</time></trkpt><trkpt lat="44.874002" lon="9.4341071"><ele>692.0</ele><time>2026-04-19T15:36:20.075Z</time></trkpt><trkpt lat="44.8740445" lon="9.4341939"><ele>692.0</ele><time>2026-04-19T15:36:21.027Z</time></trkpt><trkpt lat="44.8741114" lon="9.4343416"><ele>692.0</ele><time>2026-04-19T15:36:23.162Z</time></trkpt><trkpt lat="44.874161" lon="9.4344489"><ele>692.0</ele><time>2026-04-19T15:36:26.029Z</time></trkpt><trkpt lat="44.8741539" lon="9.4345389"><ele>692.0</ele><time>2026-04-19T15:36:30Z</time></trkpt><trkpt lat="44.87406" lon="9.4345358"><ele>692.0</ele><time>2026-04-19T15:36:33.999Z</time></trkpt><trkpt lat="44.8739442" lon="9.4344415"><ele>692.0</ele><time>2026-04-19T15:36:35.968Z</time></trkpt><trkpt lat="44.8738581" lon="9.4343875"><ele>692.0</ele><time>2026-04-19T15:36:36.94Z</time></trkpt><trkpt lat="44.8737514" lon="9.434337"><ele>692.0</ele><time>2026-04-19T15:36:37.969Z</time></trkpt><trkpt lat="44.8736386" lon="9.4343125"><ele>692.0</ele><time>2026-04-19T15:36:38.901Z</time></trkpt><trkpt lat="44.8734872" lon="9.4343174"><ele>694.6666666666666</ele><time>2026-04-19T15:36:40.04Z</time></trkpt><trkpt lat="44.8733574" lon="9.4343476"><ele>697.3333333333334</ele><time>2026-04-19T15:36:40.965Z</time></trkpt><trkpt lat="44.8732043" lon="9.4343851"><ele>700.0</ele><time>2026-04-19T15:36:42.111Z</time></trkpt><trkpt lat="44.8729726" lon="9.4344458"><ele>700.0</ele><time>2026-04-19T15:36:43.988Z</time></trkpt><trkpt lat="44.8728473" lon="9.4344864"><ele>700.0</ele><time>2026-04-19T15:36:45.117Z</time></trkpt><trkpt lat="44.8726666" lon="9.4346021"><ele>700.0</ele><time>2026-04-19T15:36:47.024Z</time></trkpt><trkpt lat="44.8725859" lon="9.4347065"><ele>700.0</ele><time>2026-04-19T15:36:47.965Z</time></trkpt><trkpt lat="44.8725116" lon="9.4348431"><ele>701.0</ele><time>2026-04-19T15:36:49.024Z</time></trkpt><trkpt lat="44.8724548" lon="9.4349712"><ele>702.0</ele><time>2026-04-19T15:36:49.944Z</time></trkpt><trkpt lat="44.8723961" lon="9.4351157"><ele>703.0</ele><time>2026-04-19T15:36:50.955Z</time></trkpt><trkpt lat="44.8723349" lon="9.4352432"><ele>704.0</ele><time>2026-04-19T15:36:51.96Z</time></trkpt><trkpt lat="44.8722583" lon="9.4353808"><ele>703.25</ele><time>2026-04-19T15:36:53.093Z</time></trkpt><trkpt lat="44.872145" lon="9.4356219"><ele>702.5</ele><time>2026-04-19T15:36:55.126Z</time></trkpt><trkpt lat="44.8720438" lon="9.4357797"><ele>701.75</ele><time>2026-04-19T15:36:56.954Z</time></trkpt><trkpt lat="44.871981" lon="9.4358328"><ele>701.0</ele><time>2026-04-19T15:36:57.938Z</time></trkpt><trkpt lat="44.8718959" lon="9.4358629"><ele>701.0</ele><time>2026-04-19T15:36:59.014Z</time></trkpt><trkpt lat="44.8718156" lon="9.435848"><ele>701.0</ele><time>2026-04-19T15:36:59.993Z</time></trkpt><trkpt lat="44.8717298" lon="9.4358045"><ele>701.0</ele><time>2026-04-19T15:37:00.993Z</time></trkpt><trkpt lat="44.8716331" lon="9.4357356"><ele>701.0</ele><time>2026-04-19T15:37:02.01Z</time></trkpt><trkpt lat="44.8715354" lon="9.4356575"><ele>701.0</ele><time>2026-04-19T15:37:02.989Z</time></trkpt><trkpt lat="44.871421" lon="9.4355611"><ele>709.5</ele><time>2026-04-19T15:37:04.066Z</time></trkpt><trkpt lat="44.8712078" lon="9.4353931"><ele>718.0</ele><time>2026-04-19T15:37:06.014Z</time></trkpt><trkpt lat="44.8710106" lon="9.4352342"><ele>717.5999999999999</ele><time>2026-04-19T15:37:07.936Z</time></trkpt><trkpt lat="44.8709083" lon="9.435152"><ele>717.1999999999999</ele><time>2026-04-19T15:37:08.999Z</time></trkpt><trkpt lat="44.870821" lon="9.4351014"><ele>716.8</ele><time>2026-04-19T15:37:09.931Z</time></trkpt><trkpt lat="44.8707244" lon="9.4350393"><ele>716.4</ele><time>2026-04-19T15:37:11.041Z</time></trkpt><trkpt lat="44.8706562" lon="9.4349804"><ele>716.0</ele><time>2026-04-19T15:37:11.987Z</time></trkpt><trkpt lat="44.8705989" lon="9.4349242"><ele>716.0</ele><time>2026-04-19T15:37:12.95Z</time></trkpt><trkpt lat="44.8705443" lon="9.4348532"><ele>716.0</ele><time>2026-04-19T15:37:13.933Z</time></trkpt><trkpt lat="44.8705042" lon="9.4347646"><ele>716.0</ele><time>2026-04-19T15:37:14.901Z</time></trkpt><trkpt lat="44.8704705" lon="9.4346548"><ele>716.0</ele><time>2026-04-19T15:37:15.886Z</time></trkpt><trkpt lat="44.8704368" lon="9.4345219"><ele>716.0</ele><time>2026-04-19T15:37:16.984Z</time></trkpt><trkpt lat="44.8703965" lon="9.4343917"><ele>716.0</ele><time>2026-04-19T15:37:18.095Z</time></trkpt><trkpt lat="44.8702632" lon="9.4342251"><ele>716.0</ele><time>2026-04-19T15:37:20.112Z</time></trkpt><trkpt lat="44.8700729" lon="9.4341966"><ele>716.0</ele><time>2026-04-19T15:37:21.956Z</time></trkpt><trkpt lat="44.8699658" lon="9.434188"><ele>716.0</ele><time>2026-04-19T15:37:22.931Z</time></trkpt><trkpt lat="44.869852" lon="9.4341617"><ele>716.0</ele><time>2026-04-19T15:37:23.93Z</time></trkpt><trkpt lat="44.8697599" lon="9.4341055"><ele>716.0</ele><time>2026-04-19T15:37:24.869Z</time></trkpt><trkpt lat="44.8696695" lon="9.4340169"><ele>716.0</ele><time>2026-04-19T15:37:25.925Z</time></trkpt><trkpt lat="44.869596" lon="9.433909"><ele>716.0</ele><time>2026-04-19T15:37:26.962Z</time></trkpt><trkpt lat="44.8695332" lon="9.4337882"><ele>716.0</ele><time>2026-04-19T15:37:27.946Z</time></trkpt><trkpt lat="44.8694648" lon="9.4336537"><ele>716.0</ele><time>2026-04-19T15:37:28.956Z</time></trkpt><trkpt lat="44.869395" lon="9.4335179"><ele>716.6666666666666</ele><time>2026-04-19T15:37:29.944Z</time></trkpt><trkpt lat="44.8693233" lon="9.4333799"><ele>717.3333333333334</ele><time>2026-04-19T15:37:30.95Z</time></trkpt><trkpt lat="44.8692469" lon="9.433213"><ele>718.0</ele><time>2026-04-19T15:37:32.037Z</time></trkpt><trkpt lat="44.8691445" lon="9.4328855"><ele>721.0</ele><time>2026-04-19T15:37:33.934Z</time></trkpt><trkpt lat="44.869083" lon="9.4327186"><ele>724.0</ele><time>2026-04-19T15:37:34.961Z</time></trkpt><trkpt lat="44.8689985" lon="9.4325721"><ele>727.0</ele><time>2026-04-19T15:37:36.031Z</time></trkpt><trkpt lat="44.8689043" lon="9.4324639"><ele>730.0</ele><time>2026-04-19T15:37:36.978Z</time></trkpt><trkpt lat="44.8687817" lon="9.432354"><ele>730.0</ele><time>2026-04-19T15:37:38.094Z</time></trkpt><trkpt lat="44.8685417" lon="9.432223"><ele>730.0</ele><time>2026-04-19T15:37:39.953Z</time></trkpt><trkpt lat="44.8684205" lon="9.4321805"><ele>730.0</ele><time>2026-04-19T15:37:40.896Z</time></trkpt><trkpt lat="44.8682912" lon="9.4321433"><ele>729.8</ele><time>2026-04-19T15:37:41.912Z</time></trkpt><trkpt lat="44.8681674" lon="9.4321117"><ele>729.6</ele><time>2026-04-19T15:37:42.955Z</time></trkpt><trkpt lat="44.8680571" lon="9.4320977"><ele>729.4000000000001</ele><time>2026-04-19T15:37:43.96Z</time></trkpt><trkpt lat="44.8679679" lon="9.4320893"><ele>729.2</ele><time>2026-04-19T15:37:44.937Z</time></trkpt><trkpt lat="44.8678861" lon="9.4320687"><ele>729.0</ele><time>2026-04-19T15:37:45.946Z</time></trkpt><trkpt lat="44.867805" lon="9.4320243"><ele>729.0</ele><time>2026-04-19T15:37:46.918Z</time></trkpt><trkpt lat="44.8677144" lon="9.4319624"><ele>729.0</ele><time>2026-04-19T15:37:47.96Z</time></trkpt><trkpt lat="44.8676327" lon="9.4318942"><ele>729.0</ele><time>2026-04-19T15:37:48.937Z</time></trkpt><trkpt lat="44.8675448" lon="9.4318182"><ele>729.0</ele><time>2026-04-19T15:37:49.969Z</time></trkpt><trkpt lat="44.86745" lon="9.431739"><ele>729.0</ele><time>2026-04-19T15:37:51.015Z</time></trkpt><trkpt lat="44.8673569" lon="9.4316549"><ele>727.8000000000001</ele><time>2026-04-19T15:37:52.066Z</time></trkpt><trkpt lat="44.867269" lon="9.4315871"><ele>726.6</ele><time>2026-04-19T15:37:52.973Z</time></trkpt><trkpt lat="44.8671645" lon="9.431514"><ele>725.4</ele><time>2026-04-19T15:37:53.993Z</time></trkpt><trkpt lat="44.8670666" lon="9.4314536"><ele>724.2</ele><time>2026-04-19T15:37:54.946Z</time></trkpt><trkpt lat="44.8669573" lon="9.4313937"><ele>723.0</ele><time>2026-04-19T15:37:56.047Z</time></trkpt><trkpt lat="44.866862" lon="9.4313591"><ele>722.25</ele><time>2026-04-19T15:37:56.947Z</time></trkpt><trkpt lat="44.8667445" lon="9.4313383"><ele>721.5</ele><time>2026-04-19T15:37:57.96Z</time></trkpt><trkpt lat="44.8666235" lon="9.4313438"><ele>720.75</ele><time>2026-04-19T15:37:58.965Z</time></trkpt><trkpt lat="44.8665019" lon="9.4313611"><ele>720.0</ele><time>2026-04-19T15:37:59.977Z</time></trkpt><trkpt lat="44.8663653" lon="9.4313962"><ele>720.0</ele><time>2026-04-19T15:38:01.052Z</time></trkpt><trkpt lat="44.8662204" lon="9.4314521"><ele>720.0</ele><time>2026-04-19T15:38:02.164Z</time></trkpt><trkpt lat="44.8659807" lon="9.431567"><ele>720.0</ele><time>2026-04-19T15:38:04.015Z</time></trkpt><trkpt lat="44.8658445" lon="9.4316385"><ele>721.75</ele><time>2026-04-19T15:38:05.084Z</time></trkpt><trkpt lat="44.8657201" lon="9.4316959"><ele>723.5</ele><time>2026-04-19T15:38:06.051Z</time></trkpt><trkpt lat="44.8655867" lon="9.4317453"><ele>725.25</ele><time>2026-04-19T15:38:07.052Z</time></trkpt><trkpt lat="44.8654632" lon="9.4317807"><ele>727.0</ele><time>2026-04-19T15:38:07.972Z</time></trkpt><trkpt lat="44.865317" lon="9.4318201"><ele>727.3333333333334</ele><time>2026-04-19T15:38:09.041Z</time></trkpt><trkpt lat="44.8650864" lon="9.431919"><ele>727.6666666666666</ele><time>2026-04-19T15:38:10.936Z</time></trkpt><trkpt lat="44.8649584" lon="9.4320128"><ele>728.0</ele><time>2026-04-19T15:38:12.05Z</time></trkpt><trkpt lat="44.8647404" lon="9.4322018"><ele>728.0</ele><time>2026-04-19T15:38:14.042Z</time></trkpt><trkpt lat="44.8646419" lon="9.4323014"><ele>728.0</ele><time>2026-04-19T15:38:14.954Z</time></trkpt><trkpt lat="44.8645339" lon="9.4324156"><ele>728.0</ele><time>2026-04-19T15:38:15.945Z</time></trkpt><trkpt lat="44.8644122" lon="9.4325612"><ele>728.0</ele><time>2026-04-19T15:38:17.085Z</time></trkpt><trkpt lat="44.864215" lon="9.4328315"><ele>730.25</ele><time>2026-04-19T15:38:19.053Z</time></trkpt><trkpt lat="44.8641326" lon="9.4329539"><ele>732.5</ele><time>2026-04-19T15:38:19.978Z</time></trkpt><trkpt lat="44.8640516" lon="9.4330712"><ele>734.75</ele><time>2026-04-19T15:38:20.946Z</time></trkpt><trkpt lat="44.8639639" lon="9.4331751"><ele>737.0</ele><time>2026-04-19T15:38:21.932Z</time></trkpt><trkpt lat="44.8638767" lon="9.4332465"><ele>737.0</ele><time>2026-04-19T15:38:22.937Z</time></trkpt><trkpt lat="44.8637786" lon="9.4332957"><ele>737.0</ele><time>2026-04-19T15:38:23.94Z</time></trkpt><trkpt lat="44.8636696" lon="9.4333139"><ele>737.0</ele><time>2026-04-19T15:38:24.923Z</time></trkpt><trkpt lat="44.863545" lon="9.4333097"><ele>737.0</ele><time>2026-04-19T15:38:26.023Z</time></trkpt><trkpt lat="44.8634413" lon="9.4332966"><ele>737.0</ele><time>2026-04-19T15:38:26.963Z</time></trkpt><trkpt lat="44.863337" lon="9.4332918"><ele>737.0</ele><time>2026-04-19T15:38:27.895Z</time></trkpt><trkpt lat="44.8632282" lon="9.4333105"><ele>737.0</ele><time>2026-04-19T15:38:28.94Z</time></trkpt><trkpt lat="44.8631385" lon="9.4333593"><ele>737.0</ele><time>2026-04-19T15:38:29.89Z</time></trkpt><trkpt lat="44.8630427" lon="9.4334496"><ele>737.0</ele><time>2026-04-19T15:38:31.001Z</time></trkpt><trkpt lat="44.8629631" lon="9.4335896"><ele>737.0</ele><time>2026-04-19T15:38:32.036Z</time></trkpt><trkpt lat="44.8628753" lon="9.433899"><ele>737.0</ele><time>2026-04-19T15:38:33.936Z</time></trkpt><trkpt lat="44.8628362" lon="9.4340535"><ele>737.0</ele><time>2026-04-19T15:38:35.125Z</time></trkpt><trkpt lat="44.8626974" lon="9.4341727"><ele>737.0</ele><time>2026-04-19T15:38:36.975Z</time></trkpt><trkpt lat="44.8625982" lon="9.4341779"><ele>737.0</ele><time>2026-04-19T15:38:37.887Z</time></trkpt><trkpt lat="44.8624848" lon="9.4341373"><ele>739.4000000000001</ele><time>2026-04-19T15:38:38.906Z</time></trkpt><trkpt lat="44.8623757" lon="9.4340901"><ele>741.8000000000001</ele><time>2026-04-19T15:38:39.9Z</time></trkpt><trkpt lat="44.8622787" lon="9.4340624"><ele>744.2</ele><time>2026-04-19T15:38:40.869Z</time></trkpt><trkpt lat="44.8621659" lon="9.4340738"><ele>746.6</ele><time>2026-04-19T15:38:41.943Z</time></trkpt><trkpt lat="44.8620723" lon="9.4341407"><ele>749.0</ele><time>2026-04-19T15:38:42.899Z</time></trkpt><trkpt lat="44.8619612" lon="9.434263"><ele>749.0</ele><time>2026-04-19T15:38:43.959Z</time></trkpt><trkpt lat="44.8618523" lon="9.4343626"><ele>749.0</ele><time>2026-04-19T15:38:44.902Z</time></trkpt><trkpt lat="44.8617263" lon="9.4344436"><ele>749.0</ele><time>2026-04-19T15:38:45.835Z</time></trkpt><trkpt lat="44.8615772" lon="9.434532"><ele>749.0</ele><time>2026-04-19T15:38:46.874Z</time></trkpt><trkpt lat="44.8614292" lon="9.4346193"><ele>746.6666666666666</ele><time>2026-04-19T15:38:47.884Z</time></trkpt><trkpt lat="44.8612823" lon="9.4347064"><ele>744.3333333333334</ele><time>2026-04-19T15:38:48.886Z</time></trkpt><trkpt lat="44.8611419" lon="9.4347714"><ele>742.0</ele><time>2026-04-19T15:38:49.847Z</time></trkpt><trkpt lat="44.8609911" lon="9.434815"><ele>744.25</ele><time>2026-04-19T15:38:50.897Z</time></trkpt><trkpt lat="44.8608639" lon="9.4348566"><ele>746.5</ele><time>2026-04-19T15:38:51.871Z</time></trkpt><trkpt lat="44.8607624" lon="9.4349172"><ele>748.75</ele><time>2026-04-19T15:38:52.831Z</time></trkpt><trkpt lat="44.8606441" lon="9.4349937"><ele>751.0</ele><time>2026-04-19T15:38:53.908Z</time></trkpt><trkpt lat="44.860544" lon="9.4350349"><ele>751.0</ele><time>2026-04-19T15:38:54.883Z</time></trkpt><trkpt lat="44.8604271" lon="9.4350316"><ele>751.0</ele><time>2026-04-19T15:38:55.955Z</time></trkpt><trkpt lat="44.86032" lon="9.4349867"><ele>751.0</ele><time>2026-04-19T15:38:56.918Z</time></trkpt><trkpt lat="44.8602154" lon="9.4349141"><ele>751.0</ele><time>2026-04-19T15:38:57.945Z</time></trkpt><trkpt lat="44.8600964" lon="9.4348398"><ele>751.25</ele><time>2026-04-19T15:38:58.905Z</time></trkpt><trkpt lat="44.8599736" lon="9.434761"><ele>751.5</ele><time>2026-04-19T15:38:59.858Z</time></trkpt><trkpt lat="44.8598453" lon="9.4346771"><ele>751.75</ele><time>2026-04-19T15:39:00.891Z</time></trkpt><trkpt lat="44.8597398" lon="9.4346266"><ele>752.0</ele><time>2026-04-19T15:39:01.825Z</time></trkpt><trkpt lat="44.8596167" lon="9.4345865"><ele>752.0</ele><time>2026-04-19T15:39:02.931Z</time></trkpt><trkpt lat="44.859513" lon="9.4345791"><ele>752.0</ele><time>2026-04-19T15:39:03.862Z</time></trkpt><trkpt lat="44.859406" lon="9.4346023"><ele>752.0</ele><time>2026-04-19T15:39:04.845Z</time></trkpt><trkpt lat="44.8592958" lon="9.4346593"><ele>752.0</ele><time>2026-04-19T15:39:05.915Z</time></trkpt><trkpt lat="44.8591957" lon="9.4347524"><ele>752.0</ele><time>2026-04-19T15:39:06.879Z</time></trkpt><trkpt lat="44.8590856" lon="9.4348963"><ele>753.6666666666666</ele><time>2026-04-19T15:39:07.951Z</time></trkpt><trkpt lat="44.8589963" lon="9.4350453"><ele>755.3333333333334</ele><time>2026-04-19T15:39:08.869Z</time></trkpt><trkpt lat="44.8588975" lon="9.4352126"><ele>757.0</ele><time>2026-04-19T15:39:09.854Z</time></trkpt><trkpt lat="44.8587844" lon="9.4353987"><ele>759.3333333333334</ele><time>2026-04-19T15:39:10.873Z</time></trkpt><trkpt lat="44.85867" lon="9.4355934"><ele>761.6666666666666</ele><time>2026-04-19T15:39:11.881Z</time></trkpt><trkpt lat="44.8585658" lon="9.435778"><ele>764.0</ele><time>2026-04-19T15:39:12.836Z</time></trkpt><trkpt lat="44.8584411" lon="9.4359961"><ele>764.0</ele><time>2026-04-19T15:39:13.969Z</time></trkpt><trkpt lat="44.8583338" lon="9.4361748"><ele>764.0</ele><time>2026-04-19T15:39:14.915Z</time></trkpt><trkpt lat="44.8582322" lon="9.4363403"><ele>764.0</ele><time>2026-04-19T15:39:15.872Z</time></trkpt><trkpt lat="44.858136" lon="9.4364966"><ele>760.75</ele><time>2026-04-19T15:39:16.844Z</time></trkpt><trkpt lat="44.8580376" lon="9.4366514"><ele>757.5</ele><time>2026-04-19T15:39:17.887Z</time></trkpt><trkpt lat="44.8579489" lon="9.4367816"><ele>754.25</ele><time>2026-04-19T15:39:18.885Z</time></trkpt><trkpt lat="44.8578799" lon="9.4368874"><ele>751.0</ele><time>2026-04-19T15:39:19.838Z</time></trkpt><trkpt lat="44.8578276" lon="9.4370062"><ele>751.0</ele><time>2026-04-19T15:39:20.928Z</time></trkpt><trkpt lat="44.8578034" lon="9.4371232"><ele>751.0</ele><time>2026-04-19T15:39:21.884Z</time></trkpt><trkpt lat="44.8578054" lon="9.437267"><ele>751.0</ele><time>2026-04-19T15:39:22.884Z</time></trkpt><trkpt lat="44.8578366" lon="9.4374359"><ele>751.0</ele><time>2026-04-19T15:39:23.885Z</time></trkpt><trkpt lat="44.8578703" lon="9.43759"><ele>751.0</ele><time>2026-04-19T15:39:24.881Z</time></trkpt><trkpt lat="44.8578994" lon="9.4377413"><ele>750.8</ele><time>2026-04-19T15:39:25.978Z</time></trkpt><trkpt lat="44.8578664" lon="9.437962"><ele>750.5999999999999</ele><time>2026-04-19T15:39:27.931Z</time></trkpt><trkpt lat="44.8578141" lon="9.4380473"><ele>750.4</ele><time>2026-04-19T15:39:28.868Z</time></trkpt><trkpt lat="44.8577306" lon="9.4381162"><ele>750.2</ele><time>2026-04-19T15:39:29.889Z</time></trkpt><trkpt lat="44.8576218" lon="9.438153"><ele>750.0</ele><time>2026-04-19T15:39:30.874Z</time></trkpt><trkpt lat="44.8574951" lon="9.4381646"><ele>751.5</ele><time>2026-04-19T15:39:31.908Z</time></trkpt><trkpt lat="44.8573557" lon="9.4381638"><ele>753.0</ele><time>2026-04-19T15:39:32.916Z</time></trkpt><trkpt lat="44.8571981" lon="9.4381784"><ele>754.5</ele><time>2026-04-19T15:39:33.983Z</time></trkpt><trkpt lat="44.8570701" lon="9.4382109"><ele>756.0</ele><time>2026-04-19T15:39:34.907Z</time></trkpt><trkpt lat="44.8569409" lon="9.4382619"><ele>756.0</ele><time>2026-04-19T15:39:35.91Z</time></trkpt><trkpt lat="44.8568219" lon="9.4383386"><ele>756.0</ele><time>2026-04-19T15:39:36.917Z</time></trkpt><trkpt lat="44.8567147" lon="9.4384557"><ele>756.0</ele><time>2026-04-19T15:39:37.973Z</time></trkpt><trkpt lat="44.8566226" lon="9.4385915"><ele>756.0</ele><time>2026-04-19T15:39:38.941Z</time></trkpt><trkpt lat="44.8565626" lon="9.4387348"><ele>756.25</ele><time>2026-04-19T15:39:39.896Z</time></trkpt><trkpt lat="44.8565103" lon="9.4389096"><ele>756.5</ele><time>2026-04-19T15:39:40.904Z</time></trkpt><trkpt lat="44.8564747" lon="9.4391017"><ele>756.75</ele><time>2026-04-19T15:39:41.877Z</time></trkpt><trkpt lat="44.8564451" lon="9.4393308"><ele>757.0</ele><time>2026-04-19T15:39:42.885Z</time></trkpt><trkpt lat="44.8564201" lon="9.4395776"><ele>754.5</ele><time>2026-04-19T15:39:43.92Z</time></trkpt><trkpt lat="44.8564012" lon="9.4397908"><ele>752.0</ele><time>2026-04-19T15:39:44.872Z</time></trkpt><trkpt lat="44.8563758" lon="9.440008"><ele>749.5</ele><time>2026-04-19T15:39:45.951Z</time></trkpt><trkpt lat="44.8563482" lon="9.4401615"><ele>747.0</ele><time>2026-04-19T15:39:46.851Z</time></trkpt><trkpt lat="44.8563128" lon="9.4403184"><ele>747.0</ele><time>2026-04-19T15:39:47.881Z</time></trkpt><trkpt lat="44.8562534" lon="9.4404504"><ele>747.0</ele><time>2026-04-19T15:39:48.938Z</time></trkpt><trkpt lat="44.8561873" lon="9.440541"><ele>747.0</ele><time>2026-04-19T15:39:49.857Z</time></trkpt><trkpt lat="44.8560822" lon="9.4406234"><ele>747.0</ele><time>2026-04-19T15:39:50.941Z</time></trkpt><trkpt lat="44.8559809" lon="9.440679"><ele>747.0</ele><time>2026-04-19T15:39:51.876Z</time></trkpt><trkpt lat="44.8558943" lon="9.4407386"><ele>748.0</ele><time>2026-04-19T15:39:52.907Z</time></trkpt><trkpt lat="44.8558244" lon="9.4408373"><ele>749.0</ele><time>2026-04-19T15:39:53.994Z</time></trkpt><trkpt lat="44.8557705" lon="9.4411111"><ele>750.0</ele><time>2026-04-19T15:39:55.894Z</time></trkpt><trkpt lat="44.855787" lon="9.4412848"><ele>751.0</ele><time>2026-04-19T15:39:56.897Z</time></trkpt><trkpt lat="44.8558523" lon="9.4414673"><ele>751.0</ele><time>2026-04-19T15:39:57.927Z</time></trkpt><trkpt lat="44.8559092" lon="9.4416328"><ele>751.0</ele><time>2026-04-19T15:39:58.89Z</time></trkpt><trkpt lat="44.8559653" lon="9.4418111"><ele>751.0</ele><time>2026-04-19T15:39:59.915Z</time></trkpt><trkpt lat="44.8559981" lon="9.441994"><ele>751.0</ele><time>2026-04-19T15:40:01Z</time></trkpt><trkpt lat="44.8559948" lon="9.4421551"><ele>751.5</ele><time>2026-04-19T15:40:01.901Z</time></trkpt><trkpt lat="44.8559822" lon="9.4423623"><ele>752.0</ele><time>2026-04-19T15:40:02.989Z</time></trkpt><trkpt lat="44.8559661" lon="9.4425347"><ele>752.5</ele><time>2026-04-19T15:40:03.901Z</time></trkpt><trkpt lat="44.8559408" lon="9.4427483"><ele>753.0</ele><time>2026-04-19T15:40:04.996Z</time></trkpt><trkpt lat="44.8559098" lon="9.4429206"><ele>751.5</ele><time>2026-04-19T15:40:05.922Z</time></trkpt><trkpt lat="44.855855" lon="9.4430897"><ele>750.0</ele><time>2026-04-19T15:40:06.906Z</time></trkpt><trkpt lat="44.8557749" lon="9.4432482"><ele>748.5</ele><time>2026-04-19T15:40:07.927Z</time></trkpt><trkpt lat="44.8556784" lon="9.4433848"><ele>747.0</ele><time>2026-04-19T15:40:08.97Z</time></trkpt><trkpt lat="44.8555798" lon="9.443471"><ele>747.0</ele><time>2026-04-19T15:40:09.89Z</time></trkpt><trkpt lat="44.8554763" lon="9.4435674"><ele>747.0</ele><time>2026-04-19T15:40:10.899Z</time></trkpt><trkpt lat="44.8553794" lon="9.443659"><ele>747.0</ele><time>2026-04-19T15:40:12.002Z</time></trkpt><trkpt lat="44.8553015" lon="9.4437191"><ele>747.0</ele><time>2026-04-19T15:40:12.961Z</time></trkpt><trkpt lat="44.8552252" lon="9.4437531"><ele>747.0</ele><time>2026-04-19T15:40:13.994Z</time></trkpt><trkpt lat="44.8551535" lon="9.4437381"><ele>747.0</ele><time>2026-04-19T15:40:14.949Z</time></trkpt><trkpt lat="44.8550798" lon="9.4436943"><ele>747.0</ele><time>2026-04-19T15:40:15.88Z</time></trkpt><trkpt lat="44.8550151" lon="9.4436051"><ele>747.0</ele><time>2026-04-19T15:40:16.892Z</time></trkpt><trkpt lat="44.8549554" lon="9.443476"><ele>747.0</ele><time>2026-04-19T15:40:17.902Z</time></trkpt><trkpt lat="44.8549155" lon="9.443317"><ele>747.0</ele><time>2026-04-19T15:40:18.918Z</time></trkpt><trkpt lat="44.8548963" lon="9.4431633"><ele>747.0</ele><time>2026-04-19T15:40:19.884Z</time></trkpt><trkpt lat="44.8548966" lon="9.4429783"><ele>747.0</ele><time>2026-04-19T15:40:20.98Z</time></trkpt><trkpt lat="44.8549159" lon="9.4428464"><ele>747.0</ele><time>2026-04-19T15:40:21.884Z</time></trkpt><trkpt lat="44.8549315" lon="9.4427092"><ele>747.0</ele><time>2026-04-19T15:40:22.903Z</time></trkpt><trkpt lat="44.854922" lon="9.4425907"><ele>747.0</ele><time>2026-04-19T15:40:23.9Z</time></trkpt><trkpt lat="44.8548743" lon="9.4424786"><ele>749.0</ele><time>2026-04-19T15:40:24.941Z</time></trkpt><trkpt lat="44.8547964" lon="9.442389"><ele>751.0</ele><time>2026-04-19T15:40:25.925Z</time></trkpt><trkpt lat="44.8546913" lon="9.4423351"><ele>753.0</ele><time>2026-04-19T15:40:26.889Z</time></trkpt><trkpt lat="44.8545572" lon="9.4423061"><ele>755.0</ele><time>2026-04-19T15:40:27.965Z</time></trkpt><trkpt lat="44.8544362" lon="9.4422943"><ele>755.0</ele><time>2026-04-19T15:40:28.898Z</time></trkpt><trkpt lat="44.8543251" lon="9.442274"><ele>755.0</ele><time>2026-04-19T15:40:29.848Z</time></trkpt><trkpt lat="44.8542183" lon="9.442209"><ele>755.0</ele><time>2026-04-19T15:40:30.933Z</time></trkpt><trkpt lat="44.8541425" lon="9.4421218"><ele>755.0</ele><time>2026-04-19T15:40:31.899Z</time></trkpt><trkpt lat="44.8540666" lon="9.4419931"><ele>755.0</ele><time>2026-04-19T15:40:32.947Z</time></trkpt><trkpt lat="44.853986" lon="9.4418609"><ele>755.0</ele><time>2026-04-19T15:40:33.923Z</time></trkpt><trkpt lat="44.8539023" lon="9.4417215"><ele>755.0</ele><time>2026-04-19T15:40:34.866Z</time></trkpt><trkpt lat="44.8538055" lon="9.4415668"><ele>755.0</ele><time>2026-04-19T15:40:35.919Z</time></trkpt><trkpt lat="44.853719" lon="9.4414312"><ele>755.0</ele><time>2026-04-19T15:40:36.888Z</time></trkpt><trkpt lat="44.8536195" lon="9.4412651"><ele>755.0</ele><time>2026-04-19T15:40:38.158Z</time></trkpt><trkpt lat="44.8535246" lon="9.4410145"><ele>755.0</ele><time>2026-04-19T15:40:39.965Z</time></trkpt><trkpt lat="44.8534849" lon="9.4408604"><ele>755.0</ele><time>2026-04-19T15:40:40.937Z</time></trkpt><trkpt lat="44.8534449" lon="9.4406998"><ele>755.0</ele><time>2026-04-19T15:40:41.909Z</time></trkpt><trkpt lat="44.853392" lon="9.4405268"><ele>751.75</ele><time>2026-04-19T15:40:42.981Z</time></trkpt><trkpt lat="44.8533447" lon="9.440383"><ele>748.5</ele><time>2026-04-19T15:40:43.931Z</time></trkpt><trkpt lat="44.8532898" lon="9.4402558"><ele>745.25</ele><time>2026-04-19T15:40:44.949Z</time></trkpt><trkpt lat="44.8532156" lon="9.4401627"><ele>742.0</ele><time>2026-04-19T15:40:45.938Z</time></trkpt><trkpt lat="44.8530931" lon="9.440081"><ele>742.0</ele><time>2026-04-19T15:40:47.07Z</time></trkpt><trkpt lat="44.852986" lon="9.4400465"><ele>742.0</ele><time>2026-04-19T15:40:47.884Z</time></trkpt><trkpt lat="44.8528589" lon="9.4399698"><ele>742.0</ele><time>2026-04-19T15:40:48.904Z</time></trkpt><trkpt lat="44.8527489" lon="9.439859"><ele>742.0</ele><time>2026-04-19T15:40:49.919Z</time></trkpt><trkpt lat="44.8526683" lon="9.4397285"><ele>743.2</ele><time>2026-04-19T15:40:50.915Z</time></trkpt><trkpt lat="44.8525806" lon="9.4396038"><ele>744.4000000000001</ele><time>2026-04-19T15:40:52.057Z</time></trkpt><trkpt lat="44.8525007" lon="9.4395472"><ele>745.5999999999999</ele><time>2026-04-19T15:40:52.96Z</time></trkpt><trkpt lat="44.8523982" lon="9.4395297"><ele>746.8</ele><time>2026-04-19T15:40:53.914Z</time></trkpt><trkpt lat="44.8522749" lon="9.4395522"><ele>748.0</ele><time>2026-04-19T15:40:54.91Z</time></trkpt><trkpt lat="44.8521456" lon="9.4396049"><ele>743.75</ele><time>2026-04-19T15:40:55.942Z</time></trkpt><trkpt lat="44.8520268" lon="9.4396543"><ele>739.5</ele><time>2026-04-19T15:40:56.862Z</time></trkpt><trkpt lat="44.8518816" lon="9.4397015"><ele>735.25</ele><time>2026-04-19T15:40:57.9Z</time></trkpt><trkpt lat="44.8517385" lon="9.4397394"><ele>731.0</ele><time>2026-04-19T15:40:58.87Z</time></trkpt><trkpt lat="44.851575" lon="9.4397889"><ele>729.5</ele><time>2026-04-19T15:40:59.969Z</time></trkpt><trkpt lat="44.8514412" lon="9.4398278"><ele>728.0</ele><time>2026-04-19T15:41:00.877Z</time></trkpt><trkpt lat="44.8513012" lon="9.4398678"><ele>726.5</ele><time>2026-04-19T15:41:01.883Z</time></trkpt><trkpt lat="44.8511578" lon="9.4399091"><ele>725.0</ele><time>2026-04-19T15:41:02.969Z</time></trkpt><trkpt lat="44.8510612" lon="9.4399468"><ele>725.0</ele><time>2026-04-19T15:41:03.904Z</time></trkpt><trkpt lat="44.8509584" lon="9.4400206"><ele>725.0</ele><time>2026-04-19T15:41:04.975Z</time></trkpt><trkpt lat="44.8508712" lon="9.4401302"><ele>725.0</ele><time>2026-04-19T15:41:05.948Z</time></trkpt><trkpt lat="44.8508057" lon="9.4402585"><ele>725.0</ele><time>2026-04-19T15:41:06.903Z</time></trkpt><trkpt lat="44.8507353" lon="9.4403608"><ele>725.0</ele><time>2026-04-19T15:41:07.904Z</time></trkpt><trkpt lat="44.850657" lon="9.4404293"><ele>725.75</ele><time>2026-04-19T15:41:08.924Z</time></trkpt><trkpt lat="44.8505661" lon="9.4404659"><ele>726.5</ele><time>2026-04-19T15:41:09.927Z</time></trkpt><trkpt lat="44.8504463" lon="9.4405073"><ele>727.25</ele><time>2026-04-19T15:41:11.271Z</time></trkpt><trkpt lat="44.8502925" lon="9.4403263"><ele>728.0</ele><time>2026-04-19T15:41:12.878Z</time></trkpt><trkpt lat="44.8502193" lon="9.4401957"><ele>728.0</ele><time>2026-04-19T15:41:13.874Z</time></trkpt><trkpt lat="44.8501615" lon="9.4400362"><ele>728.0</ele><time>2026-04-19T15:41:14.866Z</time></trkpt><trkpt lat="44.8501006" lon="9.4398492"><ele>728.0</ele><time>2026-04-19T15:41:15.91Z</time></trkpt><trkpt lat="44.8500393" lon="9.4396627"><ele>728.0</ele><time>2026-04-19T15:41:16.9Z</time></trkpt><trkpt lat="44.8499788" lon="9.4394637"><ele>725.0</ele><time>2026-04-19T15:41:18.057Z</time></trkpt><trkpt lat="44.8498668" lon="9.439184"><ele>722.0</ele><time>2026-04-19T15:41:20.003Z</time></trkpt><trkpt lat="44.8496725" lon="9.4390013"><ele>722.0</ele><time>2026-04-19T15:41:21.921Z</time></trkpt><trkpt lat="44.8495461" lon="9.4389439"><ele>722.0</ele><time>2026-04-19T15:41:22.941Z</time></trkpt><trkpt lat="44.8494127" lon="9.4389016"><ele>722.0</ele><time>2026-04-19T15:41:23.947Z</time></trkpt><trkpt lat="44.8492967" lon="9.4388654"><ele>722.0</ele><time>2026-04-19T15:41:24.94Z</time></trkpt><trkpt lat="44.8491983" lon="9.4388025"><ele>722.0</ele><time>2026-04-19T15:41:25.899Z</time></trkpt><trkpt lat="44.8491179" lon="9.4386826"><ele>722.0</ele><time>2026-04-19T15:41:26.969Z</time></trkpt><trkpt lat="44.8490547" lon="9.4385494"><ele>722.0</ele><time>2026-04-19T15:41:27.915Z</time></trkpt><trkpt lat="44.8489759" lon="9.438423"><ele>722.0</ele><time>2026-04-19T15:41:28.948Z</time></trkpt><trkpt lat="44.8488966" lon="9.4383437"><ele>722.0</ele><time>2026-04-19T15:41:29.906Z</time></trkpt><trkpt lat="44.8488044" lon="9.4383104"><ele>722.0</ele><time>2026-04-19T15:41:30.896Z</time></trkpt><trkpt lat="44.8486966" lon="9.4383436"><ele>722.0</ele><time>2026-04-19T15:41:31.877Z</time></trkpt><trkpt lat="44.848567" lon="9.4384181"><ele>722.0</ele><time>2026-04-19T15:41:32.894Z</time></trkpt><trkpt lat="44.8484141" lon="9.4385165"><ele>722.0</ele><time>2026-04-19T15:41:33.976Z</time></trkpt><trkpt lat="44.8482569" lon="9.4386212"><ele>712.5</ele><time>2026-04-19T15:41:34.992Z</time></trkpt><trkpt lat="44.8479884" lon="9.4388387"><ele>703.0</ele><time>2026-04-19T15:41:37.015Z</time></trkpt><trkpt lat="44.847795" lon="9.4389905"><ele>703.0</ele><time>2026-04-19T15:41:38.811Z</time></trkpt><trkpt lat="44.8476791" lon="9.4390432"><ele>703.0</ele><time>2026-04-19T15:41:39.91Z</time></trkpt><trkpt lat="44.8475838" lon="9.4390374"><ele>703.0</ele><time>2026-04-19T15:41:40.829Z</time></trkpt><trkpt lat="44.8474813" lon="9.4389831"><ele>703.0</ele><time>2026-04-19T15:41:41.897Z</time></trkpt><trkpt lat="44.847393" lon="9.4388929"><ele>703.0</ele><time>2026-04-19T15:41:42.888Z</time></trkpt><trkpt lat="44.8472755" lon="9.4388065"><ele>710.3333333333334</ele><time>2026-04-19T15:41:43.902Z</time></trkpt><trkpt lat="44.8471371" lon="9.4387332"><ele>717.6666666666666</ele><time>2026-04-19T15:41:44.871Z</time></trkpt><trkpt lat="44.8469757" lon="9.4386581"><ele>725.0</ele><time>2026-04-19T15:41:45.894Z</time></trkpt><trkpt lat="44.8468404" lon="9.4385692"><ele>720.6666666666666</ele><time>2026-04-19T15:41:46.857Z</time></trkpt><trkpt lat="44.8467033" lon="9.4384859"><ele>716.3333333333334</ele><time>2026-04-19T15:41:47.825Z</time></trkpt><trkpt lat="44.846535" lon="9.4384205"><ele>712.0</ele><time>2026-04-19T15:41:48.989Z</time></trkpt><trkpt lat="44.8462816" lon="9.4383824"><ele>712.0</ele><time>2026-04-19T15:41:50.826Z</time></trkpt><trkpt lat="44.8461404" lon="9.4383897"><ele>712.0</ele><time>2026-04-19T15:41:51.92Z</time></trkpt><trkpt lat="44.84604" lon="9.4384101"><ele>712.0</ele><time>2026-04-19T15:41:52.896Z</time></trkpt><trkpt lat="44.8459412" lon="9.4384228"><ele>712.0</ele><time>2026-04-19T15:41:54.052Z</time></trkpt><trkpt lat="44.8458347" lon="9.438386"><ele>712.75</ele><time>2026-04-19T15:41:55.872Z</time></trkpt><trkpt lat="44.8457696" lon="9.4382861"><ele>713.5</ele><time>2026-04-19T15:41:57.868Z</time></trkpt><trkpt lat="44.8457648" lon="9.4381345"><ele>714.25</ele><time>2026-04-19T15:41:59.93Z</time></trkpt><trkpt lat="44.8457556" lon="9.4379448"><ele>715.0</ele><time>2026-04-19T15:42:01.997Z</time></trkpt><trkpt lat="44.8456781" lon="9.4377506"><ele>715.0</ele><time>2026-04-19T15:42:03.877Z</time></trkpt><trkpt lat="44.8455891" lon="9.4376728"><ele>715.0</ele><time>2026-04-19T15:42:04.881Z</time></trkpt><trkpt lat="44.8454818" lon="9.4376295"><ele>715.0</ele><time>2026-04-19T15:42:05.861Z</time></trkpt><trkpt lat="44.8453459" lon="9.4376019"><ele>715.0</ele><time>2026-04-19T15:42:06.871Z</time></trkpt><trkpt lat="44.8452158" lon="9.4375698"><ele>711.6</ele><time>2026-04-19T15:42:07.858Z</time></trkpt><trkpt lat="44.8450877" lon="9.4375305"><ele>708.2</ele><time>2026-04-19T15:42:08.893Z</time></trkpt><trkpt lat="44.8449804" lon="9.4374917"><ele>704.8</ele><time>2026-04-19T15:42:09.902Z</time></trkpt><trkpt lat="44.8448906" lon="9.4374463"><ele>701.4</ele><time>2026-04-19T15:42:10.882Z</time></trkpt><trkpt lat="44.8448026" lon="9.4373802"><ele>698.0</ele><time>2026-04-19T15:42:11.984Z</time></trkpt><trkpt lat="44.8446672" lon="9.4372262"><ele>698.0</ele><time>2026-04-19T15:42:13.877Z</time></trkpt><trkpt lat="44.8445912" lon="9.4371487"><ele>698.0</ele><time>2026-04-19T15:42:14.881Z</time></trkpt><trkpt lat="44.8445004" lon="9.4370995"><ele>698.0</ele><time>2026-04-19T15:42:15.888Z</time></trkpt><trkpt lat="44.8443829" lon="9.4370694"><ele>698.0</ele><time>2026-04-19T15:42:16.966Z</time></trkpt><trkpt lat="44.844183" lon="9.4369425"><ele>700.2</ele><time>2026-04-19T15:42:18.911Z</time></trkpt><trkpt lat="44.8440908" lon="9.4368801"><ele>702.4</ele><time>2026-04-19T15:42:19.898Z</time></trkpt><trkpt lat="44.8439941" lon="9.4368481"><ele>704.6</ele><time>2026-04-19T15:42:20.889Z</time></trkpt><trkpt lat="44.843875" lon="9.4368705"><ele>706.8000000000001</ele><time>2026-04-19T15:42:21.941Z</time></trkpt><trkpt lat="44.8437568" lon="9.4369163"><ele>709.0</ele><time>2026-04-19T15:42:22.887Z</time></trkpt><trkpt lat="44.8436226" lon="9.4369832"><ele>710.3333333333334</ele><time>2026-04-19T15:42:23.968Z</time></trkpt><trkpt lat="44.8433622" lon="9.4371089"><ele>711.6666666666666</ele><time>2026-04-19T15:42:25.849Z</time></trkpt><trkpt lat="44.8432271" lon="9.4371853"><ele>713.0</ele><time>2026-04-19T15:42:26.823Z</time></trkpt><trkpt lat="44.8430992" lon="9.4372741"><ele>705.75</ele><time>2026-04-19T15:42:27.843Z</time></trkpt><trkpt lat="44.842983" lon="9.4373598"><ele>698.5</ele><time>2026-04-19T15:42:28.879Z</time></trkpt><trkpt lat="44.8428906" lon="9.4374462"><ele>691.25</ele><time>2026-04-19T15:42:29.867Z</time></trkpt><trkpt lat="44.8428129" lon="9.4375457"><ele>684.0</ele><time>2026-04-19T15:42:30.828Z</time></trkpt><trkpt lat="44.8427389" lon="9.4377012"><ele>684.0</ele><time>2026-04-19T15:42:31.925Z</time></trkpt><trkpt lat="44.8426935" lon="9.4378774"><ele>684.0</ele><time>2026-04-19T15:42:32.866Z</time></trkpt><trkpt lat="44.842638" lon="9.4380808"><ele>684.0</ele><time>2026-04-19T15:42:33.96Z</time></trkpt><trkpt lat="44.8425668" lon="9.4382558"><ele>684.0</ele><time>2026-04-19T15:42:34.94Z</time></trkpt><trkpt lat="44.8424244" lon="9.4385626"><ele>684.2</ele><time>2026-04-19T15:42:36.902Z</time></trkpt><trkpt lat="44.8423525" lon="9.4386699"><ele>684.4000000000001</ele><time>2026-04-19T15:42:37.834Z</time></trkpt><trkpt lat="44.8422654" lon="9.4387572"><ele>684.6</ele><time>2026-04-19T15:42:38.896Z</time></trkpt><trkpt lat="44.8421669" lon="9.4387954"><ele>684.8</ele><time>2026-04-19T15:42:39.877Z</time></trkpt><trkpt lat="44.8420524" lon="9.4387896"><ele>685.0</ele><time>2026-04-19T15:42:40.85Z</time></trkpt><trkpt lat="44.8419054" lon="9.4387787"><ele>683.3333333333334</ele><time>2026-04-19T15:42:41.885Z</time></trkpt><trkpt lat="44.8417707" lon="9.4387893"><ele>681.6666666666666</ele><time>2026-04-19T15:42:42.857Z</time></trkpt><trkpt lat="44.8416243" lon="9.438838"><ele>680.0</ele><time>2026-04-19T15:42:43.943Z</time></trkpt><trkpt lat="44.8414083" lon="9.4390373"><ele>680.0</ele><time>2026-04-19T15:42:45.871Z</time></trkpt><trkpt lat="44.8413418" lon="9.4391448"><ele>680.0</ele><time>2026-04-19T15:42:46.868Z</time></trkpt><trkpt lat="44.8412753" lon="9.4392118"><ele>680.0</ele><time>2026-04-19T15:42:47.883Z</time></trkpt><trkpt lat="44.8411882" lon="9.4392292"><ele>680.0</ele><time>2026-04-19T15:42:49.005Z</time></trkpt><trkpt lat="44.8409961" lon="9.4391262"><ele>681.25</ele><time>2026-04-19T15:42:50.835Z</time></trkpt><trkpt lat="44.8408868" lon="9.4391134"><ele>682.5</ele><time>2026-04-19T15:42:51.845Z</time></trkpt><trkpt lat="44.840774" lon="9.4391754"><ele>683.75</ele><time>2026-04-19T15:42:52.864Z</time></trkpt><trkpt lat="44.8406672" lon="9.4392831"><ele>685.0</ele><time>2026-04-19T15:42:53.841Z</time></trkpt><trkpt lat="44.8405572" lon="9.4394246"><ele>685.0</ele><time>2026-04-19T15:42:54.865Z</time></trkpt><trkpt lat="44.8404612" lon="9.4396036"><ele>685.0</ele><time>2026-04-19T15:42:55.876Z</time></trkpt><trkpt lat="44.8404022" lon="9.4398056"><ele>685.0</ele><time>2026-04-19T15:42:56.849Z</time></trkpt><trkpt lat="44.8403397" lon="9.4400064"><ele>680.5</ele><time>2026-04-19T15:42:57.937Z</time></trkpt><trkpt lat="44.8402803" lon="9.4401612"><ele>676.0</ele><time>2026-04-19T15:42:58.84Z</time></trkpt><trkpt lat="44.8402154" lon="9.4403286"><ele>671.5</ele><time>2026-04-19T15:42:59.852Z</time></trkpt><trkpt lat="44.8401542" lon="9.4404878"><ele>667.0</ele><time>2026-04-19T15:43:00.856Z</time></trkpt><trkpt lat="44.8400996" lon="9.4406374"><ele>667.0</ele><time>2026-04-19T15:43:01.863Z</time></trkpt><trkpt lat="44.8400396" lon="9.4407756"><ele>667.0</ele><time>2026-04-19T15:43:02.883Z</time></trkpt><trkpt lat="44.8399693" lon="9.4408931"><ele>667.0</ele><time>2026-04-19T15:43:03.871Z</time></trkpt><trkpt lat="44.839892" lon="9.441011"><ele>667.0</ele><time>2026-04-19T15:43:05.012Z</time></trkpt><trkpt lat="44.8397276" lon="9.4411426"><ele>667.0</ele><time>2026-04-19T15:43:06.969Z</time></trkpt><trkpt lat="44.8396322" lon="9.4411607"><ele>667.0</ele><time>2026-04-19T15:43:07.89Z</time></trkpt><trkpt lat="44.8395256" lon="9.4411805"><ele>667.0</ele><time>2026-04-19T15:43:08.883Z</time></trkpt><trkpt lat="44.839411" lon="9.4412319"><ele>667.0</ele><time>2026-04-19T15:43:09.894Z</time></trkpt><trkpt lat="44.8392958" lon="9.4413121"><ele>663.25</ele><time>2026-04-19T15:43:10.906Z</time></trkpt><trkpt lat="44.839186" lon="9.4413902"><ele>659.5</ele><time>2026-04-19T15:43:11.88Z</time></trkpt><trkpt lat="44.8390686" lon="9.4414596"><ele>655.75</ele><time>2026-04-19T15:43:12.914Z</time></trkpt><trkpt lat="44.8389642" lon="9.4414973"><ele>652.0</ele><time>2026-04-19T15:43:13.88Z</time></trkpt><trkpt lat="44.8388659" lon="9.4414952"><ele>652.0</ele><time>2026-04-19T15:43:14.855Z</time></trkpt><trkpt lat="44.8387687" lon="9.441453"><ele>652.0</ele><time>2026-04-19T15:43:15.856Z</time></trkpt><trkpt lat="44.8386635" lon="9.4413886"><ele>652.0</ele><time>2026-04-19T15:43:16.878Z</time></trkpt><trkpt lat="44.8385425" lon="9.4413499"><ele>652.0</ele><time>2026-04-19T15:43:17.967Z</time></trkpt><trkpt lat="44.838436" lon="9.4413494"><ele>652.0</ele><time>2026-04-19T15:43:18.888Z</time></trkpt><trkpt lat="44.8383" lon="9.4413673"><ele>652.0</ele><time>2026-04-19T15:43:20Z</time></trkpt><trkpt lat="44.8380463" lon="9.4414249"><ele>652.0</ele><time>2026-04-19T15:43:21.944Z</time></trkpt><trkpt lat="44.8379403" lon="9.4414965"><ele>652.0</ele><time>2026-04-19T15:43:22.883Z</time></trkpt><trkpt lat="44.8378443" lon="9.4416089"><ele>652.0</ele><time>2026-04-19T15:43:23.876Z</time></trkpt><trkpt lat="44.8377715" lon="9.4417739"><ele>652.0</ele><time>2026-04-19T15:43:24.961Z</time></trkpt><trkpt lat="44.8377356" lon="9.4419057"><ele>652.0</ele><time>2026-04-19T15:43:25.879Z</time></trkpt><trkpt lat="44.8376872" lon="9.4420167"><ele>652.0</ele><time>2026-04-19T15:43:26.88Z</time></trkpt><trkpt lat="44.8376005" lon="9.4421101"><ele>652.0</ele><time>2026-04-19T15:43:27.904Z</time></trkpt><trkpt lat="44.8374955" lon="9.4421894"><ele>649.25</ele><time>2026-04-19T15:43:28.847Z</time></trkpt><trkpt lat="44.8373857" lon="9.442273"><ele>646.5</ele><time>2026-04-19T15:43:29.901Z</time></trkpt><trkpt lat="44.8372821" lon="9.4423347"><ele>643.75</ele><time>2026-04-19T15:43:30.891Z</time></trkpt><trkpt lat="44.8371688" lon="9.442371"><ele>641.0</ele><time>2026-04-19T15:43:31.897Z</time></trkpt><trkpt lat="44.8370485" lon="9.4423631"><ele>641.0</ele><time>2026-04-19T15:43:32.865Z</time></trkpt><trkpt lat="44.8369168" lon="9.4423332"><ele>641.0</ele><time>2026-04-19T15:43:33.922Z</time></trkpt><trkpt lat="44.8368004" lon="9.4422783"><ele>641.0</ele><time>2026-04-19T15:43:34.899Z</time></trkpt><trkpt lat="44.8366848" lon="9.4421953"><ele>641.0</ele><time>2026-04-19T15:43:35.93Z</time></trkpt><trkpt lat="44.83659" lon="9.4420784"><ele>644.25</ele><time>2026-04-19T15:43:36.97Z</time></trkpt><trkpt lat="44.8365265" lon="9.4419534"><ele>647.5</ele><time>2026-04-19T15:43:37.872Z</time></trkpt><trkpt lat="44.8364716" lon="9.4417802"><ele>650.75</ele><time>2026-04-19T15:43:38.95Z</time></trkpt><trkpt lat="44.8364369" lon="9.4416099"><ele>654.0</ele><time>2026-04-19T15:43:39.89Z</time></trkpt><trkpt lat="44.8363898" lon="9.4414421"><ele>654.0</ele><time>2026-04-19T15:43:40.898Z</time></trkpt><trkpt lat="44.8363221" lon="9.4413087"><ele>654.0</ele><time>2026-04-19T15:43:41.896Z</time></trkpt><trkpt lat="44.836235" lon="9.4412107"><ele>654.0</ele><time>2026-04-19T15:43:42.925Z</time></trkpt><trkpt lat="44.8361413" lon="9.4411552"><ele>654.0</ele><time>2026-04-19T15:43:43.942Z</time></trkpt><trkpt lat="44.8360475" lon="9.4411521"><ele>654.0</ele><time>2026-04-19T15:43:44.863Z</time></trkpt><trkpt lat="44.8359502" lon="9.4411103"><ele>651.6</ele><time>2026-04-19T15:43:45.996Z</time></trkpt><trkpt lat="44.8358838" lon="9.4410462"><ele>649.2</ele><time>2026-04-19T15:43:46.91Z</time></trkpt><trkpt lat="44.8358138" lon="9.4409352"><ele>646.8000000000001</ele><time>2026-04-19T15:43:47.95Z</time></trkpt><trkpt lat="44.8357485" lon="9.440809"><ele>644.4000000000001</ele><time>2026-04-19T15:43:48.904Z</time></trkpt><trkpt lat="44.835676" lon="9.4406741"><ele>642.0</ele><time>2026-04-19T15:43:49.901Z</time></trkpt><trkpt lat="44.8355955" lon="9.4405091"><ele>645.0</ele><time>2026-04-19T15:43:51.008Z</time></trkpt><trkpt lat="44.8354938" lon="9.4401324"><ele>648.0</ele><time>2026-04-19T15:43:53.07Z</time></trkpt><trkpt lat="44.8354446" lon="9.439755"><ele>650.3333333333334</ele><time>2026-04-19T15:43:54.943Z</time></trkpt><trkpt lat="44.8353934" lon="9.4395607"><ele>652.6666666666667</ele><time>2026-04-19T15:43:55.955Z</time></trkpt><trkpt lat="44.8353005" lon="9.4393762"><ele>655.0</ele><time>2026-04-19T15:43:56.945Z</time></trkpt><trkpt lat="44.8351829" lon="9.4392013"><ele>648.6666666666667</ele><time>2026-04-19T15:43:57.919Z</time></trkpt><trkpt lat="44.8350698" lon="9.4390409"><ele>642.3333333333334</ele><time>2026-04-19T15:43:58.887Z</time></trkpt><trkpt lat="44.8349489" lon="9.4388797"><ele>636.0</ele><time>2026-04-19T15:43:59.97Z</time></trkpt><trkpt lat="44.8348421" lon="9.438746"><ele>636.0</ele><time>2026-04-19T15:44:00.92Z</time></trkpt><trkpt lat="44.8347374" lon="9.4386097"><ele>636.0</ele><time>2026-04-19T15:44:01.943Z</time></trkpt><trkpt lat="44.8346461" lon="9.438475"><ele>636.0</ele><time>2026-04-19T15:44:02.924Z</time></trkpt><trkpt lat="44.8345714" lon="9.438322"><ele>636.0</ele><time>2026-04-19T15:44:03.932Z</time></trkpt><trkpt lat="44.8345052" lon="9.438182"><ele>636.0</ele><time>2026-04-19T15:44:04.914Z</time></trkpt><trkpt lat="44.8344203" lon="9.4380626"><ele>636.0</ele><time>2026-04-19T15:44:05.934Z</time></trkpt><trkpt lat="44.8343082" lon="9.4379817"><ele>636.0</ele><time>2026-04-19T15:44:06.907Z</time></trkpt><trkpt lat="44.8341803" lon="9.4378993"><ele>636.0</ele><time>2026-04-19T15:44:07.981Z</time></trkpt><trkpt lat="44.834068" lon="9.4377884"><ele>633.0</ele><time>2026-04-19T15:44:08.959Z</time></trkpt><trkpt lat="44.8339661" lon="9.4376784"><ele>630.0</ele><time>2026-04-19T15:44:09.874Z</time></trkpt><trkpt lat="44.8338472" lon="9.4375351"><ele>627.0</ele><time>2026-04-19T15:44:10.978Z</time></trkpt><trkpt lat="44.8337536" lon="9.4374283"><ele>624.0</ele><time>2026-04-19T15:44:11.889Z</time></trkpt><trkpt lat="44.833661" lon="9.4373279"><ele>624.0</ele><time>2026-04-19T15:44:12.882Z</time></trkpt><trkpt lat="44.833582" lon="9.437224"><ele>624.0</ele><time>2026-04-19T15:44:13.965Z</time></trkpt><trkpt lat="44.8335383" lon="9.4371251"><ele>624.0</ele><time>2026-04-19T15:44:14.874Z</time></trkpt><trkpt lat="44.8335209" lon="9.4369939"><ele>624.0</ele><time>2026-04-19T15:44:15.977Z</time></trkpt><trkpt lat="44.8335388" lon="9.436855"><ele>624.0</ele><time>2026-04-19T15:44:17.025Z</time></trkpt><trkpt lat="44.833624" lon="9.436603"><ele>624.3333333333334</ele><time>2026-04-19T15:44:19.01Z</time></trkpt><trkpt lat="44.8337038" lon="9.4364937"><ele>624.6666666666667</ele><time>2026-04-19T15:44:20.064Z</time></trkpt><trkpt lat="44.8338874" lon="9.4362729"><ele>625.0</ele><time>2026-04-19T15:44:21.879Z</time></trkpt><trkpt lat="44.8340033" lon="9.4361458"><ele>623.0</ele><time>2026-04-19T15:44:22.902Z</time></trkpt><trkpt lat="44.8341112" lon="9.4360212"><ele>621.0</ele><time>2026-04-19T15:44:23.886Z</time></trkpt><trkpt lat="44.8342213" lon="9.4358631"><ele>619.0</ele><time>2026-04-19T15:44:24.962Z</time></trkpt><trkpt lat="44.8343093" lon="9.4357119"><ele>617.0</ele><time>2026-04-19T15:44:25.91Z</time></trkpt><trkpt lat="44.8343895" lon="9.4355438"><ele>618.0</ele><time>2026-04-19T15:44:26.939Z</time></trkpt><trkpt lat="44.8344582" lon="9.4353876"><ele>619.0</ele><time>2026-04-19T15:44:27.899Z</time></trkpt><trkpt lat="44.8345268" lon="9.4352299"><ele>620.0</ele><time>2026-04-19T15:44:28.941Z</time></trkpt><trkpt lat="44.8345905" lon="9.4351006"><ele>621.0</ele><time>2026-04-19T15:44:29.924Z</time></trkpt><trkpt lat="44.8346514" lon="9.4349768"><ele>621.0</ele><time>2026-04-19T15:44:30.914Z</time></trkpt><trkpt lat="44.8347018" lon="9.4348656"><ele>621.0</ele><time>2026-04-19T15:44:31.891Z</time></trkpt><trkpt lat="44.8347309" lon="9.4347708"><ele>621.0</ele><time>2026-04-19T15:44:32.903Z</time></trkpt><trkpt lat="44.8347061" lon="9.4346098"><ele>621.0</ele><time>2026-04-19T15:44:34.937Z</time></trkpt><trkpt lat="44.8345889" lon="9.4345394"><ele>621.0</ele><time>2026-04-19T15:44:36.924Z</time></trkpt><trkpt lat="44.8345146" lon="9.4345634"><ele>621.0</ele><time>2026-04-19T15:44:38.001Z</time></trkpt><trkpt lat="44.8344567" lon="9.4346202"><ele>621.0</ele><time>2026-04-19T15:44:38.942Z</time></trkpt><trkpt lat="44.8344054" lon="9.4347123"><ele>621.0</ele><time>2026-04-19T15:44:39.927Z</time></trkpt><trkpt lat="44.8343543" lon="9.4348488"><ele>621.0</ele><time>2026-04-19T15:44:40.93Z</time></trkpt><trkpt lat="44.834297" lon="9.4349972"><ele>621.0</ele><time>2026-04-19T15:44:41.92Z</time></trkpt><trkpt lat="44.8342247" lon="9.43516"><ele>620.0</ele><time>2026-04-19T15:44:42.968Z</time></trkpt><trkpt lat="44.8341397" lon="9.4353043"><ele>619.0</ele><time>2026-04-19T15:44:43.972Z</time></trkpt><trkpt lat="44.834049" lon="9.4354065"><ele>618.0</ele><time>2026-04-19T15:44:44.923Z</time></trkpt><trkpt lat="44.8339232" lon="9.4354854"><ele>617.0</ele><time>2026-04-19T15:44:45.98Z</time></trkpt><trkpt lat="44.8337656" lon="9.4355237"><ele>617.0</ele><time>2026-04-19T15:44:47.175Z</time></trkpt><trkpt lat="44.8335086" lon="9.4355311"><ele>617.0</ele><time>2026-04-19T15:44:48.998Z</time></trkpt><trkpt lat="44.8333909" lon="9.4355112"><ele>617.0</ele><time>2026-04-19T15:44:49.915Z</time></trkpt><trkpt lat="44.8332673" lon="9.4354917"><ele>614.5</ele><time>2026-04-19T15:44:50.938Z</time></trkpt><trkpt lat="44.8331457" lon="9.4355017"><ele>612.0</ele><time>2026-04-19T15:44:51.965Z</time></trkpt><trkpt lat="44.8330309" lon="9.4355376"><ele>609.5</ele><time>2026-04-19T15:44:52.912Z</time></trkpt><trkpt lat="44.8328919" lon="9.4355888"><ele>607.0</ele><time>2026-04-19T15:44:54.023Z</time></trkpt><trkpt lat="44.8327752" lon="9.4356331"><ele>607.0</ele><time>2026-04-19T15:44:54.951Z</time></trkpt><trkpt lat="44.8326485" lon="9.4356895"><ele>607.0</ele><time>2026-04-19T15:44:55.954Z</time></trkpt><trkpt lat="44.8325317" lon="9.4357505"><ele>607.0</ele><time>2026-04-19T15:44:56.936Z</time></trkpt><trkpt lat="44.8324411" lon="9.4358132"><ele>607.0</ele><time>2026-04-19T15:44:57.909Z</time></trkpt><trkpt lat="44.832368" lon="9.4358938"><ele>604.8000000000001</ele><time>2026-04-19T15:44:58.925Z</time></trkpt><trkpt lat="44.8323159" lon="9.4359988"><ele>602.6</ele><time>2026-04-19T15:44:59.958Z</time></trkpt><trkpt lat="44.8322899" lon="9.4361269"><ele>600.4000000000001</ele><time>2026-04-19T15:45:00.953Z</time></trkpt><trkpt lat="44.8322809" lon="9.4362757"><ele>598.2</ele><time>2026-04-19T15:45:01.936Z</time></trkpt><trkpt lat="44.8322826" lon="9.4364391"><ele>596.0</ele><time>2026-04-19T15:45:02.907Z</time></trkpt><trkpt lat="44.8322858" lon="9.4366307"><ele>595.75</ele><time>2026-04-19T15:45:03.953Z</time></trkpt><trkpt lat="44.832286" lon="9.4368198"><ele>595.5</ele><time>2026-04-19T15:45:04.915Z</time></trkpt><trkpt lat="44.8322851" lon="9.4370527"><ele>595.25</ele><time>2026-04-19T15:45:06.009Z</time></trkpt><trkpt lat="44.8322932" lon="9.4372618"><ele>595.0</ele><time>2026-04-19T15:45:06.947Z</time></trkpt><trkpt lat="44.8323034" lon="9.437482"><ele>593.0</ele><time>2026-04-19T15:45:07.911Z</time></trkpt><trkpt lat="44.8323191" lon="9.4377664"><ele>591.0</ele><time>2026-04-19T15:45:09.171Z</time></trkpt><trkpt lat="44.8323414" lon="9.438128"><ele>589.8</ele><time>2026-04-19T15:45:10.931Z</time></trkpt><trkpt lat="44.8323484" lon="9.4383166"><ele>588.6</ele><time>2026-04-19T15:45:11.953Z</time></trkpt><trkpt lat="44.8323566" lon="9.4384757"><ele>587.4</ele><time>2026-04-19T15:45:12.93Z</time></trkpt><trkpt lat="44.8323679" lon="9.4386317"><ele>586.2</ele><time>2026-04-19T15:45:14.037Z</time></trkpt><trkpt lat="44.8323737" lon="9.4387456"><ele>585.0</ele><time>2026-04-19T15:45:14.981Z</time></trkpt><trkpt lat="44.8323483" lon="9.4388568"><ele>585.0</ele><time>2026-04-19T15:45:16.075Z</time></trkpt><trkpt lat="44.8322305" lon="9.4389522"><ele>585.0</ele><time>2026-04-19T15:45:17.937Z</time></trkpt><trkpt lat="44.8321525" lon="9.4389531"><ele>585.0</ele><time>2026-04-19T15:45:18.907Z</time></trkpt><trkpt lat="44.8320763" lon="9.4388941"><ele>585.0</ele><time>2026-04-19T15:45:19.943Z</time></trkpt><trkpt lat="44.8320177" lon="9.4387859"><ele>585.0</ele><time>2026-04-19T15:45:20.954Z</time></trkpt><trkpt lat="44.8319762" lon="9.4386483"><ele>585.0</ele><time>2026-04-19T15:45:21.963Z</time></trkpt><trkpt lat="44.8319544" lon="9.4384732"><ele>585.0</ele><time>2026-04-19T15:45:22.987Z</time></trkpt><trkpt lat="44.8319373" lon="9.4383136"><ele>585.0</ele><time>2026-04-19T15:45:23.916Z</time></trkpt><trkpt lat="44.8318901" lon="9.4381176"><ele>585.0</ele><time>2026-04-19T15:45:25.084Z</time></trkpt><trkpt lat="44.8317409" lon="9.4378722"><ele>582.0</ele><time>2026-04-19T15:45:26.918Z</time></trkpt><trkpt lat="44.8316448" lon="9.4377537"><ele>579.0</ele><time>2026-04-19T15:45:27.887Z</time></trkpt><trkpt lat="44.831553" lon="9.4376088"><ele>576.0</ele><time>2026-04-19T15:45:28.94Z</time></trkpt><trkpt lat="44.8314926" lon="9.4374699"><ele>573.0</ele><time>2026-04-19T15:45:29.897Z</time></trkpt><trkpt lat="44.8314517" lon="9.4372917"><ele>573.75</ele><time>2026-04-19T15:45:30.952Z</time></trkpt><trkpt lat="44.8314159" lon="9.4370974"><ele>574.5</ele><time>2026-04-19T15:45:31.994Z</time></trkpt><trkpt lat="44.8313762" lon="9.4369188"><ele>575.25</ele><time>2026-04-19T15:45:32.955Z</time></trkpt><trkpt lat="44.8313103" lon="9.4367416"><ele>576.0</ele><time>2026-04-19T15:45:33.978Z</time></trkpt><trkpt lat="44.8312414" lon="9.4365776"><ele>576.0</ele><time>2026-04-19T15:45:34.948Z</time></trkpt><trkpt lat="44.8311634" lon="9.4364318"><ele>576.0</ele><time>2026-04-19T15:45:35.931Z</time></trkpt><trkpt lat="44.8310947" lon="9.4362914"><ele>576.0</ele><time>2026-04-19T15:45:36.94Z</time></trkpt><trkpt lat="44.831045" lon="9.4361658"><ele>576.0</ele><time>2026-04-19T15:45:37.956Z</time></trkpt><trkpt lat="44.8310223" lon="9.4360348"><ele>576.0</ele><time>2026-04-19T15:45:38.878Z</time></trkpt><trkpt lat="44.8310286" lon="9.4358418"><ele>576.0</ele><time>2026-04-19T15:45:39.989Z</time></trkpt><trkpt lat="44.8310452" lon="9.4356449"><ele>576.0</ele><time>2026-04-19T15:45:40.949Z</time></trkpt><trkpt lat="44.8310621" lon="9.4354337"><ele>576.0</ele><time>2026-04-19T15:45:41.957Z</time></trkpt><trkpt lat="44.8310765" lon="9.4352371"><ele>576.0</ele><time>2026-04-19T15:45:42.907Z</time></trkpt><trkpt lat="44.8310864" lon="9.4350372"><ele>575.0</ele><time>2026-04-19T15:45:43.928Z</time></trkpt><trkpt lat="44.8310809" lon="9.4348462"><ele>574.0</ele><time>2026-04-19T15:45:44.937Z</time></trkpt><trkpt lat="44.8310506" lon="9.434645"><ele>573.0</ele><time>2026-04-19T15:45:46.067Z</time></trkpt><trkpt lat="44.8310082" lon="9.4345013"><ele>572.0</ele><time>2026-04-19T15:45:46.968Z</time></trkpt><trkpt lat="44.8309419" lon="9.4343624"><ele>567.6</ele><time>2026-04-19T15:45:48.015Z</time></trkpt><trkpt lat="44.8308236" lon="9.4341922"><ele>563.2</ele><time>2026-04-19T15:45:49.95Z</time></trkpt><trkpt lat="44.8308027" lon="9.4340991"><ele>558.8</ele><time>2026-04-19T15:45:50.917Z</time></trkpt><trkpt lat="44.8308087" lon="9.4339705"><ele>554.4</ele><time>2026-04-19T15:45:51.995Z</time></trkpt><trkpt lat="44.8308621" lon="9.4338725"><ele>550.0</ele><time>2026-04-19T15:45:52.94Z</time></trkpt><trkpt lat="44.8309527" lon="9.4337758"><ele>550.25</ele><time>2026-04-19T15:45:53.957Z</time></trkpt><trkpt lat="44.8310673" lon="9.433689"><ele>550.5</ele><time>2026-04-19T15:45:54.948Z</time></trkpt><trkpt lat="44.8312046" lon="9.4336274"><ele>550.75</ele><time>2026-04-19T15:45:55.971Z</time></trkpt><trkpt lat="44.8313219" lon="9.4335855"><ele>551.0</ele><time>2026-04-19T15:45:56.93Z</time></trkpt><trkpt lat="44.8314259" lon="9.433548"><ele>551.0</ele><time>2026-04-19T15:45:57.9Z</time></trkpt><trkpt lat="44.8315222" lon="9.4334918"><ele>551.0</ele><time>2026-04-19T15:45:58.956Z</time></trkpt><trkpt lat="44.8315793" lon="9.4334101"><ele>551.0</ele><time>2026-04-19T15:45:59.924Z</time></trkpt><trkpt lat="44.8316148" lon="9.433285"><ele>551.0</ele><time>2026-04-19T15:46:00.999Z</time></trkpt><trkpt lat="44.8316126" lon="9.4331404"><ele>551.0</ele><time>2026-04-19T15:46:01.994Z</time></trkpt><trkpt lat="44.8315916" lon="9.4329871"><ele>548.3333333333333</ele><time>2026-04-19T15:46:02.903Z</time></trkpt><trkpt lat="44.8315787" lon="9.4328143"><ele>545.6666666666666</ele><time>2026-04-19T15:46:03.925Z</time></trkpt><trkpt lat="44.831599" lon="9.4326328"><ele>543.0</ele><time>2026-04-19T15:46:04.995Z</time></trkpt><trkpt lat="44.8317462" lon="9.4322333"><ele>544.3333333333334</ele><time>2026-04-19T15:46:07.006Z</time></trkpt><trkpt lat="44.8318352" lon="9.4320117"><ele>545.6666666666667</ele><time>2026-04-19T15:46:07.957Z</time></trkpt><trkpt lat="44.8319131" lon="9.4318042"><ele>547.0</ele><time>2026-04-19T15:46:08.917Z</time></trkpt><trkpt lat="44.831992" lon="9.431599"><ele>547.0</ele><time>2026-04-19T15:46:09.945Z</time></trkpt><trkpt lat="44.8320571" lon="9.431443"><ele>547.0</ele><time>2026-04-19T15:46:10.941Z</time></trkpt><trkpt lat="44.8321045" lon="9.4313318"><ele>547.0</ele><time>2026-04-19T15:46:11.94Z</time></trkpt><trkpt lat="44.8321305" lon="9.4312209"><ele>547.0</ele><time>2026-04-19T15:46:12.933Z</time></trkpt><trkpt lat="44.8321252" lon="9.4311119"><ele>547.0</ele><time>2026-04-19T15:46:13.913Z</time></trkpt><trkpt lat="44.8320821" lon="9.4309848"><ele>544.6</ele><time>2026-04-19T15:46:14.917Z</time></trkpt><trkpt lat="44.831998" lon="9.4308812"><ele>542.2</ele><time>2026-04-19T15:46:16.091Z</time></trkpt><trkpt lat="44.8319135" lon="9.4308384"><ele>539.8</ele><time>2026-04-19T15:46:17.047Z</time></trkpt><trkpt lat="44.8318243" lon="9.4308495"><ele>537.4</ele><time>2026-04-19T15:46:17.974Z</time></trkpt><trkpt lat="44.8317674" lon="9.430923"><ele>535.0</ele><time>2026-04-19T15:46:18.945Z</time></trkpt><trkpt lat="44.8317039" lon="9.4310549"><ele>534.5</ele><time>2026-04-19T15:46:19.975Z</time></trkpt><trkpt lat="44.8316467" lon="9.4312114"><ele>534.0</ele><time>2026-04-19T15:46:20.938Z</time></trkpt><trkpt lat="44.8315813" lon="9.431392"><ele>533.5</ele><time>2026-04-19T15:46:21.943Z</time></trkpt><trkpt lat="44.8315146" lon="9.431558"><ele>533.0</ele><time>2026-04-19T15:46:22.962Z</time></trkpt><trkpt lat="44.8314359" lon="9.431697"><ele>533.0</ele><time>2026-04-19T15:46:23.963Z</time></trkpt><trkpt lat="44.8313513" lon="9.4317934"><ele>533.0</ele><time>2026-04-19T15:46:24.891Z</time></trkpt><trkpt lat="44.8312425" lon="9.4318597"><ele>533.0</ele><time>2026-04-19T15:46:25.98Z</time></trkpt><trkpt lat="44.8311343" lon="9.4318825"><ele>533.0</ele><time>2026-04-19T15:46:26.929Z</time></trkpt><trkpt lat="44.8310183" lon="9.4319086"><ele>530.0</ele><time>2026-04-19T15:46:27.939Z</time></trkpt><trkpt lat="44.8309063" lon="9.4319588"><ele>527.0</ele><time>2026-04-19T15:46:28.974Z</time></trkpt><trkpt lat="44.8307886" lon="9.432064"><ele>524.0</ele><time>2026-04-19T15:46:30.105Z</time></trkpt><trkpt lat="44.83061" lon="9.4323148"><ele>524.0</ele><time>2026-04-19T15:46:31.972Z</time></trkpt><trkpt lat="44.8305065" lon="9.4324217"><ele>524.0</ele><time>2026-04-19T15:46:32.92Z</time></trkpt><trkpt lat="44.8303756" lon="9.432531"><ele>524.0</ele><time>2026-04-19T15:46:34.053Z</time></trkpt><trkpt lat="44.8302741" lon="9.4326337"><ele>524.0</ele><time>2026-04-19T15:46:34.983Z</time></trkpt><trkpt lat="44.8301738" lon="9.4327701"><ele>521.6666666666666</ele><time>2026-04-19T15:46:35.937Z</time></trkpt><trkpt lat="44.8300711" lon="9.4329417"><ele>519.3333333333334</ele><time>2026-04-19T15:46:36.929Z</time></trkpt><trkpt lat="44.8299676" lon="9.4331042"><ele>517.0</ele><time>2026-04-19T15:46:37.966Z</time></trkpt><trkpt lat="44.8298623" lon="9.4332323"><ele>517.0</ele><time>2026-04-19T15:46:38.969Z</time></trkpt><trkpt lat="44.8297696" lon="9.4333159"><ele>517.0</ele><time>2026-04-19T15:46:39.939Z</time></trkpt><trkpt lat="44.8296849" lon="9.4333837"><ele>517.0</ele><time>2026-04-19T15:46:41.01Z</time></trkpt><trkpt lat="44.8295899" lon="9.4336154"><ele>517.0</ele><time>2026-04-19T15:46:43.082Z</time></trkpt><trkpt lat="44.8295574" lon="9.4339683"><ele>518.4</ele><time>2026-04-19T15:46:44.964Z</time></trkpt><trkpt lat="44.8295261" lon="9.4341295"><ele>519.8000000000001</ele><time>2026-04-19T15:46:45.947Z</time></trkpt><trkpt lat="44.8294718" lon="9.4342688"><ele>521.2</ele><time>2026-04-19T15:46:46.977Z</time></trkpt><trkpt lat="44.8294087" lon="9.4343532"><ele>522.6</ele><time>2026-04-19T15:46:47.893Z</time></trkpt><trkpt lat="44.8293048" lon="9.434435"><ele>524.0</ele><time>2026-04-19T15:46:49.028Z</time></trkpt><trkpt lat="44.8291854" lon="9.4344634"><ele>517.3333333333333</ele><time>2026-04-19T15:46:49.904Z</time></trkpt><trkpt lat="44.8290038" lon="9.4344864"><ele>510.66666666666663</ele><time>2026-04-19T15:46:50.971Z</time></trkpt><trkpt lat="44.8288145" lon="9.4345037"><ele>504.0</ele><time>2026-04-19T15:46:51.953Z</time></trkpt><trkpt lat="44.8286245" lon="9.4345147"><ele>500.33333333333337</ele><time>2026-04-19T15:46:52.93Z</time></trkpt><trkpt lat="44.8284332" lon="9.4345222"><ele>496.6666666666667</ele><time>2026-04-19T15:46:53.995Z</time></trkpt><trkpt lat="44.828274" lon="9.4345302"><ele>493.0</ele><time>2026-04-19T15:46:54.935Z</time></trkpt><trkpt lat="44.8281146" lon="9.4345323"><ele>493.0</ele><time>2026-04-19T15:46:55.928Z</time></trkpt><trkpt lat="44.8279589" lon="9.434532"><ele>493.0</ele><time>2026-04-19T15:46:56.924Z</time></trkpt><trkpt lat="44.827805" lon="9.4345331"><ele>493.0</ele><time>2026-04-19T15:46:57.949Z</time></trkpt><trkpt lat="44.8276643" lon="9.434537"><ele>491.79999999999995</ele><time>2026-04-19T15:46:58.967Z</time></trkpt><trkpt lat="44.8275509" lon="9.4345414"><ele>490.59999999999997</ele><time>2026-04-19T15:46:59.922Z</time></trkpt><trkpt lat="44.8274461" lon="9.4345547"><ele>489.40000000000003</ele><time>2026-04-19T15:47:00.949Z</time></trkpt><trkpt lat="44.8273557" lon="9.434583"><ele>488.20000000000005</ele><time>2026-04-19T15:47:01.955Z</time></trkpt><trkpt lat="44.8272843" lon="9.4346541"><ele>487.0</ele><time>2026-04-19T15:47:02.964Z</time></trkpt><trkpt lat="44.8272264" lon="9.4347483"><ele>490.6666666666667</ele><time>2026-04-19T15:47:03.939Z</time></trkpt><trkpt lat="44.827177" lon="9.4348902"><ele>494.33333333333337</ele><time>2026-04-19T15:47:05.018Z</time></trkpt><trkpt lat="44.827167" lon="9.435183"><ele>498.0</ele><time>2026-04-19T15:47:07.019Z</time></trkpt><trkpt lat="44.8271815" lon="9.4356199"><ele>498.0</ele><time>2026-04-19T15:47:08.955Z</time></trkpt><trkpt lat="44.8271818" lon="9.4358765"><ele>498.0</ele><time>2026-04-19T15:47:09.999Z</time></trkpt><trkpt lat="44.8271858" lon="9.4360772"><ele>498.0</ele><time>2026-04-19T15:47:10.908Z</time></trkpt><trkpt lat="44.8271952" lon="9.4363244"><ele>496.0</ele><time>2026-04-19T15:47:12.085Z</time></trkpt><trkpt lat="44.8272434" lon="9.436694"><ele>494.0</ele><time>2026-04-19T15:47:13.913Z</time></trkpt><trkpt lat="44.8272955" lon="9.4369157"><ele>492.0</ele><time>2026-04-19T15:47:14.943Z</time></trkpt><trkpt lat="44.8273524" lon="9.4371381"><ele>488.66666666666663</ele><time>2026-04-19T15:47:15.966Z</time></trkpt><trkpt lat="44.8274016" lon="9.4373457"><ele>485.3333333333333</ele><time>2026-04-19T15:47:16.984Z</time></trkpt><trkpt lat="44.8274525" lon="9.4375255"><ele>482.0</ele><time>2026-04-19T15:47:17.939Z</time></trkpt><trkpt lat="44.8275059" lon="9.4377648"><ele>480.5</ele><time>2026-04-19T15:47:19.221Z</time></trkpt><trkpt lat="44.827527" lon="9.4381087"><ele>479.0</ele><time>2026-04-19T15:47:21.066Z</time></trkpt><trkpt lat="44.8274449" lon="9.4384477"><ele>479.0</ele><time>2026-04-19T15:47:23.043Z</time></trkpt><trkpt lat="44.8274075" lon="9.4385893"><ele>479.0</ele><time>2026-04-19T15:47:23.963Z</time></trkpt><trkpt lat="44.8273857" lon="9.4387484"><ele>479.0</ele><time>2026-04-19T15:47:24.89Z</time></trkpt><trkpt lat="44.8273908" lon="9.4389615"><ele>479.0</ele><time>2026-04-19T15:47:25.895Z</time></trkpt><trkpt lat="44.827427" lon="9.4392154"><ele>478.25</ele><time>2026-04-19T15:47:26.92Z</time></trkpt><trkpt lat="44.8274539" lon="9.439465"><ele>477.5</ele><time>2026-04-19T15:47:28.025Z</time></trkpt><trkpt lat="44.827481" lon="9.4396548"><ele>476.75</ele><time>2026-04-19T15:47:28.936Z</time></trkpt><trkpt lat="44.8275012" lon="9.43983"><ele>476.0</ele><time>2026-04-19T15:47:29.896Z</time></trkpt><trkpt lat="44.8275189" lon="9.4399974"><ele>474.6</ele><time>2026-04-19T15:47:30.919Z</time></trkpt><trkpt lat="44.8275389" lon="9.4401389"><ele>473.20000000000005</ele><time>2026-04-19T15:47:31.925Z</time></trkpt><trkpt lat="44.8275646" lon="9.4402783"><ele>471.79999999999995</ele><time>2026-04-19T15:47:33.033Z</time></trkpt><trkpt lat="44.8275598" lon="9.4404921"><ele>470.4</ele><time>2026-04-19T15:47:34.919Z</time></trkpt><trkpt lat="44.8275163" lon="9.4405946"><ele>469.0</ele><time>2026-04-19T15:47:35.946Z</time></trkpt><trkpt lat="44.8274441" lon="9.4406615"><ele>469.0</ele><time>2026-04-19T15:47:36.97Z</time></trkpt><trkpt lat="44.8273603" lon="9.4406613"><ele>469.0</ele><time>2026-04-19T15:47:37.953Z</time></trkpt><trkpt lat="44.8272701" lon="9.440612"><ele>469.0</ele><time>2026-04-19T15:47:39.033Z</time></trkpt><trkpt lat="44.8271715" lon="9.4403454"><ele>469.0</ele><time>2026-04-19T15:47:40.953Z</time></trkpt><trkpt lat="44.827137" lon="9.4401492"><ele>469.0</ele><time>2026-04-19T15:47:41.917Z</time></trkpt><trkpt lat="44.8270934" lon="9.4399105"><ele>469.0</ele><time>2026-04-19T15:47:42.968Z</time></trkpt><trkpt lat="44.8270395" lon="9.4396693"><ele>469.0</ele><time>2026-04-19T15:47:43.941Z</time></trkpt><trkpt lat="44.8269664" lon="9.4394189"><ele>471.33333333333337</ele><time>2026-04-19T15:47:44.938Z</time></trkpt><trkpt lat="44.8268707" lon="9.4391619"><ele>473.66666666666663</ele><time>2026-04-19T15:47:45.962Z</time></trkpt><trkpt lat="44.8267734" lon="9.4389358"><ele>476.0</ele><time>2026-04-19T15:47:46.964Z</time></trkpt><trkpt lat="44.8266839" lon="9.4387325"><ele>469.66666666666663</ele><time>2026-04-19T15:47:47.905Z</time></trkpt><trkpt lat="44.8265885" lon="9.4385267"><ele>463.33333333333337</ele><time>2026-04-19T15:47:48.921Z</time></trkpt><trkpt lat="44.8265012" lon="9.4383583"><ele>457.0</ele><time>2026-04-19T15:47:49.939Z</time></trkpt><trkpt lat="44.8264133" lon="9.4382098"><ele>457.0</ele><time>2026-04-19T15:47:50.953Z</time></trkpt><trkpt lat="44.8263073" lon="9.4381071"><ele>457.0</ele><time>2026-04-19T15:47:51.926Z</time></trkpt><trkpt lat="44.8261845" lon="9.4380367"><ele>457.0</ele><time>2026-04-19T15:47:52.93Z</time></trkpt><trkpt lat="44.8260678" lon="9.4379708"><ele>457.0</ele><time>2026-04-19T15:47:53.959Z</time></trkpt><trkpt lat="44.8259586" lon="9.4379103"><ele>455.75</ele><time>2026-04-19T15:47:54.929Z</time></trkpt><trkpt lat="44.8258541" lon="9.4378373"><ele>454.5</ele><time>2026-04-19T15:47:55.927Z</time></trkpt><trkpt lat="44.825764" lon="9.4377397"><ele>453.25</ele><time>2026-04-19T15:47:56.867Z</time></trkpt><trkpt lat="44.8256824" lon="9.4375869"><ele>452.0</ele><time>2026-04-19T15:47:57.91Z</time></trkpt><trkpt lat="44.825603" lon="9.4374434"><ele>452.0</ele><time>2026-04-19T15:47:58.922Z</time></trkpt><trkpt lat="44.8255168" lon="9.437325"><ele>452.0</ele><time>2026-04-19T15:47:59.897Z</time></trkpt><trkpt lat="44.8253979" lon="9.4372189"><ele>452.0</ele><time>2026-04-19T15:48:00.969Z</time></trkpt><trkpt lat="44.8252789" lon="9.4371597"><ele>452.0</ele><time>2026-04-19T15:48:01.921Z</time></trkpt><trkpt lat="44.8251374" lon="9.4371144"><ele>449.5</ele><time>2026-04-19T15:48:02.954Z</time></trkpt><trkpt lat="44.8250102" lon="9.437057"><ele>447.0</ele><time>2026-04-19T15:48:03.952Z</time></trkpt><trkpt lat="44.8249004" lon="9.4369805"><ele>444.5</ele><time>2026-04-19T15:48:04.917Z</time></trkpt><trkpt lat="44.8247934" lon="9.4368801"><ele>442.0</ele><time>2026-04-19T15:48:05.955Z</time></trkpt><trkpt lat="44.8247109" lon="9.4367657"><ele>442.0</ele><time>2026-04-19T15:48:06.945Z</time></trkpt><trkpt lat="44.824641" lon="9.4366351"><ele>442.0</ele><time>2026-04-19T15:48:07.926Z</time></trkpt><trkpt lat="44.8245699" lon="9.436458"><ele>442.0</ele><time>2026-04-19T15:48:09.079Z</time></trkpt><trkpt lat="44.8245258" lon="9.4363097"><ele>442.0</ele><time>2026-04-19T15:48:09.989Z</time></trkpt><trkpt lat="44.8244832" lon="9.4361483"><ele>443.25</ele><time>2026-04-19T15:48:10.926Z</time></trkpt><trkpt lat="44.8244363" lon="9.4359562"><ele>444.5</ele><time>2026-04-19T15:48:11.973Z</time></trkpt><trkpt lat="44.8243909" lon="9.4357864"><ele>445.75</ele><time>2026-04-19T15:48:12.91Z</time></trkpt><trkpt lat="44.8243365" lon="9.4355886"><ele>447.0</ele><time>2026-04-19T15:48:13.982Z</time></trkpt><trkpt lat="44.8242925" lon="9.4354171"><ele>443.0</ele><time>2026-04-19T15:48:14.934Z</time></trkpt><trkpt lat="44.8242525" lon="9.4352426"><ele>439.0</ele><time>2026-04-19T15:48:15.931Z</time></trkpt><trkpt lat="44.8242143" lon="9.4350746"><ele>435.0</ele><time>2026-04-19T15:48:16.946Z</time></trkpt><trkpt lat="44.8241798" lon="9.4349068"><ele>431.0</ele><time>2026-04-19T15:48:17.977Z</time></trkpt><trkpt lat="44.8241584" lon="9.4347668"><ele>430.75</ele><time>2026-04-19T15:48:18.898Z</time></trkpt><trkpt lat="44.824132" lon="9.4345938"><ele>430.5</ele><time>2026-04-19T15:48:20.108Z</time></trkpt><trkpt lat="44.8241054" lon="9.4343402"><ele>430.25</ele><time>2026-04-19T15:48:21.934Z</time></trkpt><trkpt lat="44.8241118" lon="9.4341974"><ele>430.0</ele><time>2026-04-19T15:48:23.018Z</time></trkpt><trkpt lat="44.8241361" lon="9.4340803"><ele>430.00000000000006</ele><time>2026-04-19T15:48:23.967Z</time></trkpt><trkpt lat="44.8241643" lon="9.4339778"><ele>430.0</ele><time>2026-04-19T15:48:24.901Z</time></trkpt><trkpt lat="44.8241982" lon="9.4338843"><ele>430.0</ele><time>2026-04-19T15:48:25.919Z</time></trkpt><trkpt lat="44.8242139" lon="9.4337975"><ele>430.0</ele><time>2026-04-19T15:48:26.947Z</time></trkpt><trkpt lat="44.8241509" lon="9.4336904"><ele>430.00000000000006</ele><time>2026-04-19T15:48:28.932Z</time></trkpt><trkpt lat="44.824049" lon="9.4337696"><ele>430.0</ele><time>2026-04-19T15:48:30.938Z</time></trkpt><trkpt lat="44.824005" lon="9.4338768"><ele>430.0</ele><time>2026-04-19T15:48:32.035Z</time></trkpt><trkpt lat="44.8239031" lon="9.4341936"><ele>430.0</ele><time>2026-04-19T15:48:33.952Z</time></trkpt><trkpt lat="44.8238441" lon="9.4343964"><ele>430.0</ele><time>2026-04-19T15:48:34.928Z</time></trkpt><trkpt lat="44.8237874" lon="9.4346211"><ele>430.33333333333337</ele><time>2026-04-19T15:48:35.957Z</time></trkpt><trkpt lat="44.8237443" lon="9.4348185"><ele>430.66666666666663</ele><time>2026-04-19T15:48:36.876Z</time></trkpt><trkpt lat="44.8236882" lon="9.4350544"><ele>431.0</ele><time>2026-04-19T15:48:38.024Z</time></trkpt><trkpt lat="44.8236542" lon="9.4352333"><ele>431.0</ele><time>2026-04-19T15:48:38.928Z</time></trkpt><trkpt lat="44.8236289" lon="9.4354327"><ele>431.0</ele><time>2026-04-19T15:48:39.91Z</time></trkpt><trkpt lat="44.823618" lon="9.4356464"><ele>431.0</ele><time>2026-04-19T15:48:40.934Z</time></trkpt><trkpt lat="44.8236121" lon="9.4358539"><ele>431.0</ele><time>2026-04-19T15:48:41.949Z</time></trkpt><trkpt lat="44.8235946" lon="9.4360514"><ele>431.3333333333333</ele><time>2026-04-19T15:48:42.934Z</time></trkpt><trkpt lat="44.8235644" lon="9.4362565"><ele>431.66666666666663</ele><time>2026-04-19T15:48:44.015Z</time></trkpt><trkpt lat="44.8234692" lon="9.4365746"><ele>432.0</ele><time>2026-04-19T15:48:45.934Z</time></trkpt><trkpt lat="44.8234067" lon="9.4367305"><ele>426.0</ele><time>2026-04-19T15:48:46.905Z</time></trkpt><trkpt lat="44.8233378" lon="9.4368857"><ele>420.0</ele><time>2026-04-19T15:48:47.902Z</time></trkpt><trkpt lat="44.8232718" lon="9.4370457"><ele>414.0</ele><time>2026-04-19T15:48:48.908Z</time></trkpt><trkpt lat="44.8232279" lon="9.4372067"><ele>408.0</ele><time>2026-04-19T15:48:49.93Z</time></trkpt><trkpt lat="44.8232077" lon="9.4373609"><ele>407.66666666666663</ele><time>2026-04-19T15:48:50.902Z</time></trkpt><trkpt lat="44.8232129" lon="9.4375543"><ele>407.3333333333333</ele><time>2026-04-19T15:48:52.165Z</time></trkpt><trkpt lat="44.8233164" lon="9.4377973"><ele>407.0</ele><time>2026-04-19T15:48:53.958Z</time></trkpt><trkpt lat="44.8234372" lon="9.4379513"><ele>407.3333333333333</ele><time>2026-04-19T15:48:54.935Z</time></trkpt><trkpt lat="44.8235836" lon="9.4381285"><ele>407.66666666666663</ele><time>2026-04-19T15:48:55.946Z</time></trkpt><trkpt lat="44.8237141" lon="9.4383"><ele>408.0</ele><time>2026-04-19T15:48:56.97Z</time></trkpt><trkpt lat="44.8238135" lon="9.4384313"><ele>408.0</ele><time>2026-04-19T15:48:57.927Z</time></trkpt><trkpt lat="44.823917" lon="9.4385759"><ele>408.0</ele><time>2026-04-19T15:48:59.08Z</time></trkpt><trkpt lat="44.8240111" lon="9.4387974"><ele>408.0</ele><time>2026-04-19T15:49:00.904Z</time></trkpt><trkpt lat="44.8240175" lon="9.4389283"><ele>408.0</ele><time>2026-04-19T15:49:01.878Z</time></trkpt><trkpt lat="44.8239893" lon="9.4390588"><ele>407.2</ele><time>2026-04-19T15:49:02.888Z</time></trkpt><trkpt lat="44.8239313" lon="9.4391662"><ele>406.4</ele><time>2026-04-19T15:49:03.976Z</time></trkpt><trkpt lat="44.8238472" lon="9.4392317"><ele>405.59999999999997</ele><time>2026-04-19T15:49:04.954Z</time></trkpt><trkpt lat="44.8237617" lon="9.4393136"><ele>404.79999999999995</ele><time>2026-04-19T15:49:05.956Z</time></trkpt><trkpt lat="44.8236875" lon="9.4394224"><ele>404.0</ele><time>2026-04-19T15:49:06.999Z</time></trkpt><trkpt lat="44.823643" lon="9.4395478"><ele>404.3333333333333</ele><time>2026-04-19T15:49:07.945Z</time></trkpt><trkpt lat="44.823611" lon="9.4397243"><ele>404.66666666666663</ele><time>2026-04-19T15:49:09.055Z</time></trkpt><trkpt lat="44.8236176" lon="9.4401048"><ele>405.0</ele><time>2026-04-19T15:49:10.935Z</time></trkpt><trkpt lat="44.8236311" lon="9.4403191"><ele>404.25</ele><time>2026-04-19T15:49:11.938Z</time></trkpt><trkpt lat="44.8236445" lon="9.4405206"><ele>403.5</ele><time>2026-04-19T15:49:12.91Z</time></trkpt><trkpt lat="44.8236569" lon="9.4407087"><ele>402.75</ele><time>2026-04-19T15:49:13.899Z</time></trkpt><trkpt lat="44.823669" lon="9.4408962"><ele>402.0</ele><time>2026-04-19T15:49:14.886Z</time></trkpt><trkpt lat="44.8236824" lon="9.4410927"><ele>402.0</ele><time>2026-04-19T15:49:15.988Z</time></trkpt><trkpt lat="44.8236885" lon="9.4412285"><ele>402.0</ele><time>2026-04-19T15:49:16.889Z</time></trkpt><trkpt lat="44.823672" lon="9.4413972"><ele>402.0</ele><time>2026-04-19T15:49:17.989Z</time></trkpt><trkpt lat="44.823635" lon="9.4415368"><ele>402.0</ele><time>2026-04-19T15:49:18.9Z</time></trkpt><trkpt lat="44.8235705" lon="9.4416878"><ele>402.0</ele><time>2026-04-19T15:49:19.948Z</time></trkpt><trkpt lat="44.8234904" lon="9.4418107"><ele>397.40000000000003</ele><time>2026-04-19T15:49:20.881Z</time></trkpt><trkpt lat="44.8233954" lon="9.4419367"><ele>392.8</ele><time>2026-04-19T15:49:21.915Z</time></trkpt><trkpt lat="44.8233057" lon="9.4420555"><ele>388.2</ele><time>2026-04-19T15:49:22.941Z</time></trkpt><trkpt lat="44.8232366" lon="9.4421604"><ele>383.6</ele><time>2026-04-19T15:49:23.937Z</time></trkpt><trkpt lat="44.8231946" lon="9.4422592"><ele>379.0</ele><time>2026-04-19T15:49:24.886Z</time></trkpt><trkpt lat="44.8231797" lon="9.4423888"><ele>379.0</ele><time>2026-04-19T15:49:26.022Z</time></trkpt><trkpt lat="44.8232873" lon="9.4426574"><ele>379.0</ele><time>2026-04-19T15:49:27.96Z</time></trkpt><trkpt lat="44.8233993" lon="9.4427773"><ele>379.0</ele><time>2026-04-19T15:49:28.921Z</time></trkpt><trkpt lat="44.8235125" lon="9.4429001"><ele>381.75</ele><time>2026-04-19T15:49:29.933Z</time></trkpt><trkpt lat="44.8235916" lon="9.4430179"><ele>384.5</ele><time>2026-04-19T15:49:30.894Z</time></trkpt><trkpt lat="44.8236584" lon="9.4431714"><ele>387.25</ele><time>2026-04-19T15:49:31.991Z</time></trkpt><trkpt lat="44.8236806" lon="9.4433113"><ele>390.0</ele><time>2026-04-19T15:49:32.894Z</time></trkpt><trkpt lat="44.8236698" lon="9.44347"><ele>390.0</ele><time>2026-04-19T15:49:33.936Z</time></trkpt><trkpt lat="44.8236268" lon="9.443591"><ele>390.0</ele><time>2026-04-19T15:49:34.902Z</time></trkpt><trkpt lat="44.8235493" lon="9.4436971"><ele>390.0</ele><time>2026-04-19T15:49:35.901Z</time></trkpt><trkpt lat="44.8234434" lon="9.4437934"><ele>390.0</ele><time>2026-04-19T15:49:36.934Z</time></trkpt><trkpt lat="44.8233229" lon="9.4438665"><ele>385.25</ele><time>2026-04-19T15:49:37.972Z</time></trkpt><trkpt lat="44.8232159" lon="9.4439212"><ele>380.5</ele><time>2026-04-19T15:49:38.894Z</time></trkpt><trkpt lat="44.8231021" lon="9.4439955"><ele>375.75</ele><time>2026-04-19T15:49:39.955Z</time></trkpt><trkpt lat="44.8230122" lon="9.444087"><ele>371.0</ele><time>2026-04-19T15:49:40.921Z</time></trkpt><trkpt lat="44.8229253" lon="9.4442079"><ele>371.0</ele><time>2026-04-19T15:49:41.948Z</time></trkpt><trkpt lat="44.8228595" lon="9.4443383"><ele>371.0</ele><time>2026-04-19T15:49:42.886Z</time></trkpt><trkpt lat="44.8227918" lon="9.4444879"><ele>371.0</ele><time>2026-04-19T15:49:43.898Z</time></trkpt><trkpt lat="44.8227226" lon="9.444634"><ele>371.0</ele><time>2026-04-19T15:49:44.926Z</time></trkpt><trkpt lat="44.8226423" lon="9.4447551"><ele>370.0</ele><time>2026-04-19T15:49:45.953Z</time></trkpt><trkpt lat="44.8225538" lon="9.444836"><ele>369.0</ele><time>2026-04-19T15:49:46.944Z</time></trkpt><trkpt lat="44.822449" lon="9.4448707"><ele>368.0</ele><time>2026-04-19T15:49:47.885Z</time></trkpt><trkpt lat="44.8223391" lon="9.4448519"><ele>367.0</ele><time>2026-04-19T15:49:48.863Z</time></trkpt><trkpt lat="44.8222135" lon="9.4447773"><ele>367.0</ele><time>2026-04-19T15:49:49.92Z</time></trkpt><trkpt lat="44.8220954" lon="9.4447011"><ele>367.0</ele><time>2026-04-19T15:49:51.019Z</time></trkpt><trkpt lat="44.8219101" lon="9.4446912"><ele>367.0</ele><time>2026-04-19T15:49:52.931Z</time></trkpt><trkpt lat="44.8218188" lon="9.4447549"><ele>367.0</ele><time>2026-04-19T15:49:53.892Z</time></trkpt><trkpt lat="44.8217475" lon="9.4448682"><ele>365.0</ele><time>2026-04-19T15:49:54.915Z</time></trkpt><trkpt lat="44.8217036" lon="9.445023"><ele>363.0</ele><time>2026-04-19T15:49:55.902Z</time></trkpt><trkpt lat="44.8216675" lon="9.4451967"><ele>361.0</ele><time>2026-04-19T15:49:56.923Z</time></trkpt><trkpt lat="44.8216452" lon="9.4453688"><ele>359.0</ele><time>2026-04-19T15:49:57.897Z</time></trkpt><trkpt lat="44.8216186" lon="9.4455225"><ele>359.0</ele><time>2026-04-19T15:49:58.959Z</time></trkpt><trkpt lat="44.821585" lon="9.4456212"><ele>359.0</ele><time>2026-04-19T15:49:59.914Z</time></trkpt><trkpt lat="44.8215346" lon="9.445695"><ele>359.0</ele><time>2026-04-19T15:50:00.89Z</time></trkpt><trkpt lat="44.8214544" lon="9.4457193"><ele>359.0</ele><time>2026-04-19T15:50:01.921Z</time></trkpt><trkpt lat="44.8213645" lon="9.445687"><ele>359.0</ele><time>2026-04-19T15:50:02.954Z</time></trkpt><trkpt lat="44.8213094" lon="9.4456124"><ele>359.0</ele><time>2026-04-19T15:50:03.902Z</time></trkpt><trkpt lat="44.8212822" lon="9.4454774"><ele>358.0</ele><time>2026-04-19T15:50:05.136Z</time></trkpt><trkpt lat="44.8213285" lon="9.4451601"><ele>357.0</ele><time>2026-04-19T15:50:06.904Z</time></trkpt><trkpt lat="44.8213648" lon="9.4449446"><ele>356.0</ele><time>2026-04-19T15:50:07.935Z</time></trkpt><trkpt lat="44.8213974" lon="9.4447402"><ele>353.25</ele><time>2026-04-19T15:50:08.935Z</time></trkpt><trkpt lat="44.8214317" lon="9.4445425"><ele>350.5</ele><time>2026-04-19T15:50:09.939Z</time></trkpt><trkpt lat="44.8214844" lon="9.4443519"><ele>347.75</ele><time>2026-04-19T15:50:11.02Z</time></trkpt><trkpt lat="44.8215451" lon="9.4442233"><ele>345.0</ele><time>2026-04-19T15:50:11.929Z</time></trkpt><trkpt lat="44.8216387" lon="9.4440914"><ele>345.0</ele><time>2026-04-19T15:50:13.029Z</time></trkpt><trkpt lat="44.8217542" lon="9.4440022"><ele>345.0</ele><time>2026-04-19T15:50:14.017Z</time></trkpt><trkpt lat="44.8219557" lon="9.4438104"><ele>345.0</ele><time>2026-04-19T15:50:15.981Z</time></trkpt><trkpt lat="44.8220237" lon="9.4436687"><ele>346.75</ele><time>2026-04-19T15:50:17.054Z</time></trkpt><trkpt lat="44.8221105" lon="9.4433391"><ele>348.5</ele><time>2026-04-19T15:50:19.02Z</time></trkpt><trkpt lat="44.8221379" lon="9.4432045"><ele>350.25</ele><time>2026-04-19T15:50:19.929Z</time></trkpt><trkpt lat="44.8221444" lon="9.4430721"><ele>352.0</ele><time>2026-04-19T15:50:20.908Z</time></trkpt><trkpt lat="44.8221109" lon="9.4429464"><ele>353.3333333333333</ele><time>2026-04-19T15:50:21.892Z</time></trkpt><trkpt lat="44.8220283" lon="9.4427973"><ele>354.6666666666667</ele><time>2026-04-19T15:50:23.103Z</time></trkpt><trkpt lat="44.8218418" lon="9.4426045"><ele>356.0</ele><time>2026-04-19T15:50:24.941Z</time></trkpt><trkpt lat="44.8217622" lon="9.442501"><ele>350.75</ele><time>2026-04-19T15:50:25.902Z</time></trkpt><trkpt lat="44.8216959" lon="9.442375"><ele>345.5</ele><time>2026-04-19T15:50:26.895Z</time></trkpt><trkpt lat="44.8216556" lon="9.4422308"><ele>340.25</ele><time>2026-04-19T15:50:27.927Z</time></trkpt><trkpt lat="44.8216426" lon="9.4420456"><ele>335.0</ele><time>2026-04-19T15:50:28.944Z</time></trkpt><trkpt lat="44.8216445" lon="9.4418621"><ele>335.0</ele><time>2026-04-19T15:50:29.941Z</time></trkpt><trkpt lat="44.8216452" lon="9.4416779"><ele>335.0</ele><time>2026-04-19T15:50:30.951Z</time></trkpt><trkpt lat="44.8216472" lon="9.4415164"><ele>335.0</ele><time>2026-04-19T15:50:31.911Z</time></trkpt><trkpt lat="44.8216341" lon="9.4413614"><ele>335.0</ele><time>2026-04-19T15:50:32.9Z</time></trkpt><trkpt lat="44.821593" lon="9.4412042"><ele>335.4</ele><time>2026-04-19T15:50:33.977Z</time></trkpt><trkpt lat="44.8215265" lon="9.4410784"><ele>335.8</ele><time>2026-04-19T15:50:34.994Z</time></trkpt><trkpt lat="44.8214529" lon="9.4409869"><ele>336.20000000000005</ele><time>2026-04-19T15:50:35.949Z</time></trkpt><trkpt lat="44.8213492" lon="9.4409431"><ele>336.6</ele><time>2026-04-19T15:50:36.972Z</time></trkpt><trkpt lat="44.8212407" lon="9.4409421"><ele>337.0</ele><time>2026-04-19T15:50:37.904Z</time></trkpt><trkpt lat="44.8211196" lon="9.4409768"><ele>337.0</ele><time>2026-04-19T15:50:38.896Z</time></trkpt><trkpt lat="44.8209887" lon="9.4410478"><ele>337.0</ele><time>2026-04-19T15:50:39.926Z</time></trkpt><trkpt lat="44.8208568" lon="9.4411008"><ele>337.0</ele><time>2026-04-19T15:50:40.915Z</time></trkpt><trkpt lat="44.8207201" lon="9.4411136"><ele>337.0</ele><time>2026-04-19T15:50:41.891Z</time></trkpt><trkpt lat="44.8205668" lon="9.4411117"><ele>334.25</ele><time>2026-04-19T15:50:42.929Z</time></trkpt><trkpt lat="44.8204365" lon="9.4411204"><ele>331.5</ele><time>2026-04-19T15:50:43.914Z</time></trkpt><trkpt lat="44.820309" lon="9.4411162"><ele>328.75</ele><time>2026-04-19T15:50:44.945Z</time></trkpt><trkpt lat="44.8202101" lon="9.4411063"><ele>326.0</ele><time>2026-04-19T15:50:45.9Z</time></trkpt><trkpt lat="44.8201132" lon="9.4410639"><ele>323.0</ele><time>2026-04-19T15:50:46.915Z</time></trkpt><trkpt lat="44.8200374" lon="9.440982"><ele>320.0</ele><time>2026-04-19T15:50:47.901Z</time></trkpt><trkpt lat="44.8199597" lon="9.4408547"><ele>317.0</ele><time>2026-04-19T15:50:48.861Z</time></trkpt><trkpt lat="44.8198557" lon="9.440679"><ele>314.0</ele><time>2026-04-19T15:50:50.003Z</time></trkpt><trkpt lat="44.8197469" lon="9.4405471"><ele>312.6666666666667</ele><time>2026-04-19T15:50:50.925Z</time></trkpt><trkpt lat="44.8196146" lon="9.440432"><ele>311.3333333333333</ele><time>2026-04-19T15:50:51.869Z</time></trkpt><trkpt lat="44.819454" lon="9.4403275"><ele>310.0</ele><time>2026-04-19T15:50:52.984Z</time></trkpt><trkpt lat="44.8192127" lon="9.4401228"><ele>310.0</ele><time>2026-04-19T15:50:54.886Z</time></trkpt><trkpt lat="44.8191032" lon="9.4399717"><ele>310.0</ele><time>2026-04-19T15:50:55.918Z</time></trkpt><trkpt lat="44.8190078" lon="9.4398046"><ele>310.0</ele><time>2026-04-19T15:50:56.984Z</time></trkpt><trkpt lat="44.8189591" lon="9.4396419"><ele>310.0</ele><time>2026-04-19T15:50:57.923Z</time></trkpt><trkpt lat="44.8189293" lon="9.4395025"><ele>310.0</ele><time>2026-04-19T15:50:58.86Z</time></trkpt><trkpt lat="44.8189274" lon="9.4393079"><ele>310.0</ele><time>2026-04-19T15:50:59.947Z</time></trkpt><trkpt lat="44.8189299" lon="9.4391435"><ele>310.0</ele><time>2026-04-19T15:51:00.887Z</time></trkpt><trkpt lat="44.8188997" lon="9.4389523"><ele>310.0</ele><time>2026-04-19T15:51:02.07Z</time></trkpt><trkpt lat="44.8187242" lon="9.4386726"><ele>311.25</ele><time>2026-04-19T15:51:04.045Z</time></trkpt><trkpt lat="44.8186139" lon="9.4385832"><ele>312.5</ele><time>2026-04-19T15:51:04.948Z</time></trkpt><trkpt lat="44.8185133" lon="9.4384836"><ele>313.75</ele><time>2026-04-19T15:51:05.936Z</time></trkpt><trkpt lat="44.8184176" lon="9.4383829"><ele>315.0</ele><time>2026-04-19T15:51:06.934Z</time></trkpt><trkpt lat="44.8183425" lon="9.4382476"><ele>307.6666666666667</ele><time>2026-04-19T15:51:07.954Z</time></trkpt><trkpt lat="44.8182909" lon="9.4381071"><ele>300.33333333333337</ele><time>2026-04-19T15:51:08.942Z</time></trkpt><trkpt lat="44.8182659" lon="9.4379055"><ele>293.0</ele><time>2026-04-19T15:51:10.099Z</time></trkpt><trkpt lat="44.8182659" lon="9.4375395"><ele>293.0</ele><time>2026-04-19T15:51:11.922Z</time></trkpt><trkpt lat="44.8182582" lon="9.4373285"><ele>293.0</ele><time>2026-04-19T15:51:12.91Z</time></trkpt><trkpt lat="44.8182479" lon="9.437098"><ele>293.0</ele><time>2026-04-19T15:51:13.968Z</time></trkpt><trkpt lat="44.8182503" lon="9.4368999"><ele>292.6</ele><time>2026-04-19T15:51:14.955Z</time></trkpt><trkpt lat="44.8182526" lon="9.4367032"><ele>292.20000000000005</ele><time>2026-04-19T15:51:16.001Z</time></trkpt><trkpt lat="44.8182526" lon="9.4365482"><ele>291.8</ele><time>2026-04-19T15:51:16.956Z</time></trkpt><trkpt lat="44.8182442" lon="9.4364065"><ele>291.40000000000003</ele><time>2026-04-19T15:51:17.96Z</time></trkpt><trkpt lat="44.8182099" lon="9.4363015"><ele>291.0</ele><time>2026-04-19T15:51:18.884Z</time></trkpt><trkpt lat="44.8181317" lon="9.4362064"><ele>291.0</ele><time>2026-04-19T15:51:19.956Z</time></trkpt><trkpt lat="44.8180311" lon="9.4361365"><ele>291.0</ele><time>2026-04-19T15:51:20.934Z</time></trkpt><trkpt lat="44.817911" lon="9.4360669"><ele>291.0</ele><time>2026-04-19T15:51:21.943Z</time></trkpt><trkpt lat="44.8177992" lon="9.4359827"><ele>291.0</ele><time>2026-04-19T15:51:22.939Z</time></trkpt><trkpt lat="44.8176928" lon="9.4358548"><ele>290.25</ele><time>2026-04-19T15:51:23.971Z</time></trkpt><trkpt lat="44.8176076" lon="9.4357137"><ele>289.5</ele><time>2026-04-19T15:51:24.94Z</time></trkpt><trkpt lat="44.8175118" lon="9.4355527"><ele>288.75</ele><time>2026-04-19T15:51:25.969Z</time></trkpt><trkpt lat="44.817412" lon="9.4353916"><ele>288.0</ele><time>2026-04-19T15:51:27.068Z</time></trkpt><trkpt lat="44.8172546" lon="9.435123"><ele>288.0</ele><time>2026-04-19T15:51:29.064Z</time></trkpt><trkpt lat="44.8171016" lon="9.4348928"><ele>288.0</ele><time>2026-04-19T15:51:30.94Z</time></trkpt><trkpt lat="44.8170205" lon="9.4347778"><ele>288.0</ele><time>2026-04-19T15:51:31.948Z</time></trkpt><trkpt lat="44.8169384" lon="9.4346539"><ele>287.6</ele><time>2026-04-19T15:51:33.041Z</time></trkpt><trkpt lat="44.8168914" lon="9.4345389"><ele>287.20000000000005</ele><time>2026-04-19T15:51:33.977Z</time></trkpt><trkpt lat="44.8168714" lon="9.4344052"><ele>286.8</ele><time>2026-04-19T15:51:34.985Z</time></trkpt><trkpt lat="44.8168811" lon="9.4342903"><ele>286.40000000000003</ele><time>2026-04-19T15:51:35.944Z</time></trkpt><trkpt lat="44.8169269" lon="9.4341662"><ele>286.0</ele><time>2026-04-19T15:51:36.941Z</time></trkpt><trkpt lat="44.8170222" lon="9.4340571"><ele>286.0</ele><time>2026-04-19T15:51:37.921Z</time></trkpt><trkpt lat="44.817141" lon="9.4339349"><ele>286.0</ele><time>2026-04-19T15:51:38.932Z</time></trkpt><trkpt lat="44.8172547" lon="9.4337786"><ele>286.0</ele><time>2026-04-19T15:51:39.987Z</time></trkpt><trkpt lat="44.8173267" lon="9.4336167"><ele>286.0</ele><time>2026-04-19T15:51:40.903Z</time></trkpt><trkpt lat="44.8173942" lon="9.4334048"><ele>283.3333333333333</ele><time>2026-04-19T15:51:41.958Z</time></trkpt><trkpt lat="44.8174377" lon="9.4331703"><ele>280.6666666666667</ele><time>2026-04-19T15:51:42.999Z</time></trkpt><trkpt lat="44.8174538" lon="9.4329647"><ele>278.0</ele><time>2026-04-19T15:51:43.975Z</time></trkpt><trkpt lat="44.8174403" lon="9.432733"><ele>277.0</ele><time>2026-04-19T15:51:45.043Z</time></trkpt><trkpt lat="44.8173821" lon="9.4322978"><ele>276.0</ele><time>2026-04-19T15:51:46.982Z</time></trkpt><trkpt lat="44.8173616" lon="9.4321048"><ele>274.75</ele><time>2026-04-19T15:51:47.918Z</time></trkpt><trkpt lat="44.8173386" lon="9.431906"><ele>273.5</ele><time>2026-04-19T15:51:48.941Z</time></trkpt><trkpt lat="44.8173168" lon="9.4317205"><ele>272.25</ele><time>2026-04-19T15:51:49.945Z</time></trkpt><trkpt lat="44.817293" lon="9.4315377"><ele>271.0</ele><time>2026-04-19T15:51:50.99Z</time></trkpt><trkpt lat="44.8172723" lon="9.431377"><ele>268.66666666666663</ele><time>2026-04-19T15:51:51.918Z</time></trkpt><trkpt lat="44.8172481" lon="9.4311975"><ele>266.3333333333333</ele><time>2026-04-19T15:51:52.999Z</time></trkpt><trkpt lat="44.8172257" lon="9.4310201"><ele>264.0</ele><time>2026-04-19T15:51:54.071Z</time></trkpt><trkpt lat="44.8171602" lon="9.4306869"><ele>262.3333333333333</ele><time>2026-04-19T15:51:56.16Z</time></trkpt><trkpt lat="44.8170321" lon="9.4304357"><ele>260.66666666666663</ele><time>2026-04-19T15:51:57.949Z</time></trkpt><trkpt lat="44.8169297" lon="9.4303208"><ele>259.0</ele><time>2026-04-19T15:51:58.958Z</time></trkpt><trkpt lat="44.8168223" lon="9.4302372"><ele>257.0</ele><time>2026-04-19T15:51:59.893Z</time></trkpt><trkpt lat="44.8166874" lon="9.4301593"><ele>255.0</ele><time>2026-04-19T15:52:00.98Z</time></trkpt><trkpt lat="44.8165634" lon="9.4301059"><ele>253.0</ele><time>2026-04-19T15:52:01.94Z</time></trkpt><trkpt lat="44.8164203" lon="9.4300439"><ele>251.0</ele><time>2026-04-19T15:52:02.998Z</time></trkpt><trkpt lat="44.8162851" lon="9.4299842"><ele>251.0</ele><time>2026-04-19T15:52:03.948Z</time></trkpt><trkpt lat="44.8161485" lon="9.4299249"><ele>251.0</ele><time>2026-04-19T15:52:04.922Z</time></trkpt><trkpt lat="44.8160171" lon="9.4298681"><ele>251.0</ele><time>2026-04-19T15:52:05.938Z</time></trkpt><trkpt lat="44.815897" lon="9.4298169"><ele>251.0</ele><time>2026-04-19T15:52:06.939Z</time></trkpt><trkpt lat="44.8157827" lon="9.4297845"><ele>250.5</ele><time>2026-04-19T15:52:08.14Z</time></trkpt><trkpt lat="44.8156327" lon="9.4298203"><ele>250.0</ele><time>2026-04-19T15:52:09.945Z</time></trkpt><trkpt lat="44.8155549" lon="9.4298976"><ele>249.5</ele><time>2026-04-19T15:52:10.903Z</time></trkpt><trkpt lat="44.8154526" lon="9.4300329"><ele>249.0</ele><time>2026-04-19T15:52:12.011Z</time></trkpt><trkpt lat="44.8153475" lon="9.4301701"><ele>249.0</ele><time>2026-04-19T15:52:12.921Z</time></trkpt><trkpt lat="44.8152222" lon="9.4303196"><ele>249.0</ele><time>2026-04-19T15:52:13.933Z</time></trkpt><trkpt lat="44.8150961" lon="9.4304775"><ele>249.0</ele><time>2026-04-19T15:52:14.879Z</time></trkpt><trkpt lat="44.8149522" lon="9.4306546"><ele>250.0</ele><time>2026-04-19T15:52:15.907Z</time></trkpt><trkpt lat="44.8148231" lon="9.4308234"><ele>251.0</ele><time>2026-04-19T15:52:16.888Z</time></trkpt><trkpt lat="44.8146951" lon="9.4309903"><ele>252.0</ele><time>2026-04-19T15:52:17.904Z</time></trkpt><trkpt lat="44.8145718" lon="9.4311443"><ele>252.0</ele><time>2026-04-19T15:52:18.872Z</time></trkpt><trkpt lat="44.8144482" lon="9.4313005"><ele>252.0</ele><time>2026-04-19T15:52:19.868Z</time></trkpt><trkpt lat="44.8143151" lon="9.431452"><ele>252.0</ele><time>2026-04-19T15:52:20.961Z</time></trkpt><trkpt lat="44.8141907" lon="9.4315586"><ele>251.5</ele><time>2026-04-19T15:52:21.895Z</time></trkpt><trkpt lat="44.8140528" lon="9.4316472"><ele>251.0</ele><time>2026-04-19T15:52:22.948Z</time></trkpt><trkpt lat="44.8139183" lon="9.4317116"><ele>250.5</ele><time>2026-04-19T15:52:23.918Z</time></trkpt><trkpt lat="44.8137698" lon="9.4317569"><ele>250.0</ele><time>2026-04-19T15:52:24.9Z</time></trkpt><trkpt lat="44.8136119" lon="9.4317865"><ele>251.0</ele><time>2026-04-19T15:52:25.913Z</time></trkpt><trkpt lat="44.8134436" lon="9.4317975"><ele>252.0</ele><time>2026-04-19T15:52:26.977Z</time></trkpt><trkpt lat="44.8132879" lon="9.4317797"><ele>253.0</ele><time>2026-04-19T15:52:27.977Z</time></trkpt><trkpt lat="44.81314" lon="9.4317356"><ele>253.0</ele><time>2026-04-19T15:52:28.938Z</time></trkpt><trkpt lat="44.8129849" lon="9.4316606"><ele>253.0</ele><time>2026-04-19T15:52:29.953Z</time></trkpt><trkpt lat="44.8128306" lon="9.4315676"><ele>253.0</ele><time>2026-04-19T15:52:30.979Z</time></trkpt><trkpt lat="44.8126877" lon="9.4314832"><ele>252.75</ele><time>2026-04-19T15:52:31.958Z</time></trkpt><trkpt lat="44.8125506" lon="9.4314065"><ele>252.5</ele><time>2026-04-19T15:52:32.958Z</time></trkpt><trkpt lat="44.812411" lon="9.4313285"><ele>252.25</ele><time>2026-04-19T15:52:34.043Z</time></trkpt><trkpt lat="44.8123019" lon="9.4312782"><ele>252.0</ele><time>2026-04-19T15:52:34.961Z</time></trkpt><trkpt lat="44.8121727" lon="9.4312637"><ele>252.0</ele><time>2026-04-19T15:52:35.977Z</time></trkpt><trkpt lat="44.8120321" lon="9.4312987"><ele>252.0</ele><time>2026-04-19T15:52:37.013Z</time></trkpt><trkpt lat="44.8118953" lon="9.4313727"><ele>252.0</ele><time>2026-04-19T15:52:37.94Z</time></trkpt><trkpt lat="44.8117369" lon="9.4314745"><ele>251.0</ele><time>2026-04-19T15:52:38.976Z</time></trkpt><trkpt lat="44.8115916" lon="9.4315659"><ele>250.0</ele><time>2026-04-19T15:52:39.906Z</time></trkpt><trkpt lat="44.8114324" lon="9.4316622"><ele>249.0</ele><time>2026-04-19T15:52:40.962Z</time></trkpt><trkpt lat="44.811283" lon="9.4317506"><ele>249.0</ele><time>2026-04-19T15:52:41.973Z</time></trkpt><trkpt lat="44.8111511" lon="9.4318138"><ele>249.0</ele><time>2026-04-19T15:52:42.887Z</time></trkpt><trkpt lat="44.8109813" lon="9.4318739"><ele>249.0</ele><time>2026-04-19T15:52:43.983Z</time></trkpt><trkpt lat="44.810836" lon="9.4318973"><ele>248.0</ele><time>2026-04-19T15:52:44.908Z</time></trkpt><trkpt lat="44.8106862" lon="9.4318915"><ele>247.0</ele><time>2026-04-19T15:52:45.91Z</time></trkpt><trkpt lat="44.8105315" lon="9.4318638"><ele>246.0</ele><time>2026-04-19T15:52:46.956Z</time></trkpt><trkpt lat="44.8103868" lon="9.4318133"><ele>246.0</ele><time>2026-04-19T15:52:47.935Z</time></trkpt><trkpt lat="44.8102218" lon="9.4317309"><ele>246.0</ele><time>2026-04-19T15:52:49.043Z</time></trkpt><trkpt lat="44.8099246" lon="9.4315672"><ele>245.0</ele><time>2026-04-19T15:52:50.968Z</time></trkpt><trkpt lat="44.8097671" lon="9.4314868"><ele>244.0</ele><time>2026-04-19T15:52:51.932Z</time></trkpt><trkpt lat="44.8096105" lon="9.4314075"><ele>243.0</ele><time>2026-04-19T15:52:52.874Z</time></trkpt><trkpt lat="44.8094326" lon="9.4313186"><ele>245.66666666666669</ele><time>2026-04-19T15:52:53.889Z</time></trkpt><trkpt lat="44.8092516" lon="9.4312188"><ele>248.33333333333334</ele><time>2026-04-19T15:52:54.925Z</time></trkpt><trkpt lat="44.8090716" lon="9.4311221"><ele>251.0</ele><time>2026-04-19T15:52:55.948Z</time></trkpt><trkpt lat="44.8089092" lon="9.4310377"><ele>251.0</ele><time>2026-04-19T15:52:56.893Z</time></trkpt><trkpt lat="44.8087204" lon="9.4309379"><ele>251.0</ele><time>2026-04-19T15:52:57.999Z</time></trkpt><trkpt lat="44.8085646" lon="9.4308574"><ele>251.0</ele><time>2026-04-19T15:52:58.927Z</time></trkpt><trkpt lat="44.8084069" lon="9.4307757"><ele>250.0</ele><time>2026-04-19T15:52:59.914Z</time></trkpt><trkpt lat="44.8082537" lon="9.4306935"><ele>249.0</ele><time>2026-04-19T15:53:00.935Z</time></trkpt><trkpt lat="44.8081257" lon="9.4306315"><ele>248.0</ele><time>2026-04-19T15:53:01.916Z</time></trkpt><trkpt lat="44.8080091" lon="9.4305924"><ele>247.0</ele><time>2026-04-19T15:53:02.945Z</time></trkpt><trkpt lat="44.8078936" lon="9.4305797"><ele>247.0</ele><time>2026-04-19T15:53:03.991Z</time></trkpt><trkpt lat="44.807707" lon="9.4306735"><ele>247.0</ele><time>2026-04-19T15:53:05.957Z</time></trkpt><trkpt lat="44.8076275" lon="9.4307665"><ele>247.0</ele><time>2026-04-19T15:53:06.885Z</time></trkpt><trkpt lat="44.807566" lon="9.4309075"><ele>247.0</ele><time>2026-04-19T15:53:07.905Z</time></trkpt><trkpt lat="44.8075298" lon="9.4310875"><ele>243.0</ele><time>2026-04-19T15:53:09.007Z</time></trkpt><trkpt lat="44.8075801" lon="9.4314075"><ele>239.0</ele><time>2026-04-19T15:53:10.995Z</time></trkpt><trkpt lat="44.8077513" lon="9.4316599"><ele>239.0</ele><time>2026-04-19T15:53:12.91Z</time></trkpt><trkpt lat="44.8078717" lon="9.4317516"><ele>239.0</ele><time>2026-04-19T15:53:13.922Z</time></trkpt><trkpt lat="44.808023" lon="9.4318622"><ele>239.0</ele><time>2026-04-19T15:53:15.142Z</time></trkpt><trkpt lat="44.8082271" lon="9.4320222"><ele>239.0</ele><time>2026-04-19T15:53:16.864Z</time></trkpt><trkpt lat="44.8083403" lon="9.4321178"><ele>238.99999999999997</ele><time>2026-04-19T15:53:17.93Z</time></trkpt><trkpt lat="44.808418" lon="9.4321958"><ele>238.99999999999997</ele><time>2026-04-19T15:53:18.889Z</time></trkpt><trkpt lat="44.808478" lon="9.432283"><ele>239.0</ele><time>2026-04-19T15:53:19.935Z</time></trkpt><trkpt lat="44.8084939" lon="9.4324316"><ele>239.0</ele><time>2026-04-19T15:53:21.88Z</time></trkpt><trkpt lat="44.808391" lon="9.432521"><ele>236.0</ele><time>2026-04-19T15:53:23.901Z</time></trkpt><trkpt lat="44.8083134" lon="9.432513"><ele>233.0</ele><time>2026-04-19T15:53:24.9Z</time></trkpt><trkpt lat="44.808206" lon="9.4324625"><ele>230.0</ele><time>2026-04-19T15:53:25.9Z</time></trkpt><trkpt lat="44.8080805" lon="9.4323695"><ele>227.0</ele><time>2026-04-19T15:53:26.863Z</time></trkpt><trkpt lat="44.8079518" lon="9.4322701"><ele>227.0</ele><time>2026-04-19T15:53:27.851Z</time></trkpt><trkpt lat="44.8078214" lon="9.4321757"><ele>227.0</ele><time>2026-04-19T15:53:28.883Z</time></trkpt><trkpt lat="44.8076907" lon="9.4320828"><ele>227.0</ele><time>2026-04-19T15:53:29.92Z</time></trkpt><trkpt lat="44.8075689" lon="9.4319978"><ele>227.0</ele><time>2026-04-19T15:53:30.892Z</time></trkpt><trkpt lat="44.8074392" lon="9.4319101"><ele>228.16666666666669</ele><time>2026-04-19T15:53:31.973Z</time></trkpt><trkpt lat="44.8073468" lon="9.4318396"><ele>229.33333333333334</ele><time>2026-04-19T15:53:32.879Z</time></trkpt><trkpt lat="44.8072748" lon="9.4317643"><ele>230.5</ele><time>2026-04-19T15:53:33.87Z</time></trkpt><trkpt lat="44.8072159" lon="9.4316927"><ele>231.66666666666669</ele><time>2026-04-19T15:53:34.894Z</time></trkpt><trkpt lat="44.8071747" lon="9.4316193"><ele>232.83333333333334</ele><time>2026-04-19T15:53:35.86Z</time></trkpt><trkpt lat="44.8071169" lon="9.4315182"><ele>234.0</ele><time>2026-04-19T15:53:36.901Z</time></trkpt><trkpt lat="44.807055" lon="9.4314016"><ele>232.75</ele><time>2026-04-19T15:53:37.882Z</time></trkpt><trkpt lat="44.8069781" lon="9.4312643"><ele>231.5</ele><time>2026-04-19T15:53:38.948Z</time></trkpt><trkpt lat="44.8069055" lon="9.4311356"><ele>230.25</ele><time>2026-04-19T15:53:39.916Z</time></trkpt><trkpt lat="44.8068182" lon="9.4309826"><ele>229.0</ele><time>2026-04-19T15:53:40.881Z</time></trkpt><trkpt lat="44.8067185" lon="9.4308111"><ele>229.0</ele><time>2026-04-19T15:53:41.9Z</time></trkpt><trkpt lat="44.8066186" lon="9.4306247"><ele>229.0</ele><time>2026-04-19T15:53:42.905Z</time></trkpt><trkpt lat="44.8065072" lon="9.4304218"><ele>229.0</ele><time>2026-04-19T15:53:43.955Z</time></trkpt><trkpt lat="44.806405" lon="9.4302416"><ele>229.0</ele><time>2026-04-19T15:53:44.924Z</time></trkpt><trkpt lat="44.8062953" lon="9.4300712"><ele>229.0</ele><time>2026-04-19T15:53:45.907Z</time></trkpt><trkpt lat="44.8061869" lon="9.4299064"><ele>229.0</ele><time>2026-04-19T15:53:46.914Z</time></trkpt><trkpt lat="44.8060773" lon="9.4297412"><ele>228.0</ele><time>2026-04-19T15:53:47.949Z</time></trkpt><trkpt lat="44.8059735" lon="9.4295924"><ele>227.0</ele><time>2026-04-19T15:53:48.908Z</time></trkpt><trkpt lat="44.8058482" lon="9.4294223"><ele>226.0</ele><time>2026-04-19T15:53:50.029Z</time></trkpt><trkpt lat="44.8056318" lon="9.4291388"><ele>226.0</ele><time>2026-04-19T15:53:51.924Z</time></trkpt><trkpt lat="44.8055138" lon="9.4289858"><ele>226.0</ele><time>2026-04-19T15:53:52.933Z</time></trkpt><trkpt lat="44.8054046" lon="9.428845"><ele>226.0</ele><time>2026-04-19T15:53:53.862Z</time></trkpt><trkpt lat="44.8052755" lon="9.4286735"><ele>226.0</ele><time>2026-04-19T15:53:54.978Z</time></trkpt><trkpt lat="44.8051635" lon="9.42853"><ele>226.0</ele><time>2026-04-19T15:53:55.933Z</time></trkpt><trkpt lat="44.8050526" lon="9.4283803"><ele>226.0</ele><time>2026-04-19T15:53:56.904Z</time></trkpt><trkpt lat="44.804938" lon="9.4282275"><ele>226.0</ele><time>2026-04-19T15:53:57.928Z</time></trkpt><trkpt lat="44.8048306" lon="9.4280873"><ele>226.0</ele><time>2026-04-19T15:53:58.894Z</time></trkpt><trkpt lat="44.8047088" lon="9.4279295"><ele>226.0</ele><time>2026-04-19T15:54:00.008Z</time></trkpt><trkpt lat="44.8046071" lon="9.4278005"><ele>226.0</ele><time>2026-04-19T15:54:00.927Z</time></trkpt><trkpt lat="44.8044984" lon="9.4276581"><ele>226.0</ele><time>2026-04-19T15:54:01.925Z</time></trkpt><trkpt lat="44.8043928" lon="9.4275209"><ele>226.0</ele><time>2026-04-19T15:54:02.905Z</time></trkpt><trkpt lat="44.8042828" lon="9.4273745"><ele>226.0</ele><time>2026-04-19T15:54:03.937Z</time></trkpt><trkpt lat="44.8041689" lon="9.4272273"><ele>226.0</ele><time>2026-04-19T15:54:04.983Z</time></trkpt><trkpt lat="44.8040622" lon="9.4270928"><ele>228.0</ele><time>2026-04-19T15:54:05.948Z</time></trkpt><trkpt lat="44.8039219" lon="9.4269244"><ele>230.0</ele><time>2026-04-19T15:54:07.183Z</time></trkpt><trkpt lat="44.8037151" lon="9.4266505"><ele>230.0</ele><time>2026-04-19T15:54:09.053Z</time></trkpt><trkpt lat="44.8035068" lon="9.4263846"><ele>230.0</ele><time>2026-04-19T15:54:10.878Z</time></trkpt><trkpt lat="44.8033756" lon="9.4262201"><ele>229.0</ele><time>2026-04-19T15:54:11.956Z</time></trkpt><trkpt lat="44.80325" lon="9.426073"><ele>228.0</ele><time>2026-04-19T15:54:12.899Z</time></trkpt><trkpt lat="44.8030899" lon="9.4259051"><ele>227.0</ele><time>2026-04-19T15:54:14.02Z</time></trkpt><trkpt lat="44.8028091" lon="9.4256425"><ele>226.66666666666669</ele><time>2026-04-19T15:54:15.912Z</time></trkpt><trkpt lat="44.8026601" lon="9.4255155"><ele>226.33333333333331</ele><time>2026-04-19T15:54:16.878Z</time></trkpt><trkpt lat="44.8024984" lon="9.4253872"><ele>226.0</ele><time>2026-04-19T15:54:17.925Z</time></trkpt><trkpt lat="44.8023458" lon="9.4252732"><ele>227.66666666666666</ele><time>2026-04-19T15:54:18.93Z</time></trkpt><trkpt lat="44.8022034" lon="9.4251704"><ele>229.33333333333331</ele><time>2026-04-19T15:54:19.868Z</time></trkpt><trkpt lat="44.8020477" lon="9.4250561"><ele>231.0</ele><time>2026-04-19T15:54:20.91Z</time></trkpt><trkpt lat="44.801898" lon="9.424948"><ele>229.66666666666669</ele><time>2026-04-19T15:54:21.907Z</time></trkpt><trkpt lat="44.8017431" lon="9.4248376"><ele>228.33333333333334</ele><time>2026-04-19T15:54:22.937Z</time></trkpt><trkpt lat="44.8015997" lon="9.4247366"><ele>227.0</ele><time>2026-04-19T15:54:23.875Z</time></trkpt><trkpt lat="44.8014415" lon="9.4246239"><ele>227.0</ele><time>2026-04-19T15:54:24.895Z</time></trkpt><trkpt lat="44.8012825" lon="9.4245101"><ele>227.0</ele><time>2026-04-19T15:54:25.913Z</time></trkpt><trkpt lat="44.8011266" lon="9.4244014"><ele>227.0</ele><time>2026-04-19T15:54:26.9Z</time></trkpt><trkpt lat="44.8009439" lon="9.4242689"><ele>227.66666666666669</ele><time>2026-04-19T15:54:28.05Z</time></trkpt><trkpt lat="44.8008008" lon="9.4241642"><ele>228.33333333333331</ele><time>2026-04-19T15:54:28.954Z</time></trkpt><trkpt lat="44.8006397" lon="9.4240506"><ele>229.0</ele><time>2026-04-19T15:54:29.958Z</time></trkpt><trkpt lat="44.8004863" lon="9.4239451"><ele>229.0</ele><time>2026-04-19T15:54:30.911Z</time></trkpt><trkpt lat="44.8003145" lon="9.4238262"><ele>229.0</ele><time>2026-04-19T15:54:31.989Z</time></trkpt><trkpt lat="44.8001588" lon="9.4237203"><ele>229.0</ele><time>2026-04-19T15:54:32.98Z</time></trkpt><trkpt lat="44.8000077" lon="9.4236236"><ele>230.66666666666666</ele><time>2026-04-19T15:54:33.945Z</time></trkpt><trkpt lat="44.7998357" lon="9.4235296"><ele>232.33333333333331</ele><time>2026-04-19T15:54:34.997Z</time></trkpt><trkpt lat="44.7996583" lon="9.423452"><ele>234.0</ele><time>2026-04-19T15:54:35.957Z</time></trkpt><trkpt lat="44.7994366" lon="9.4233831"><ele>236.0</ele><time>2026-04-19T15:54:37.008Z</time></trkpt><trkpt lat="44.7989554" lon="9.4232969"><ele>236.0</ele><time>2026-04-19T15:54:38.968Z</time></trkpt><trkpt lat="44.7986859" lon="9.4232485"><ele>236.0</ele><time>2026-04-19T15:54:39.973Z</time></trkpt><trkpt lat="44.798429" lon="9.423201"><ele>238.5</ele><time>2026-04-19T15:54:40.897Z</time></trkpt><trkpt lat="44.7981306" lon="9.4231474"><ele>241.0</ele><time>2026-04-19T15:54:42.022Z</time></trkpt><trkpt lat="44.7978887" lon="9.4230976"><ele>241.0</ele><time>2026-04-19T15:54:43.006Z</time></trkpt><trkpt lat="44.7976786" lon="9.4230546"><ele>241.0</ele><time>2026-04-19T15:54:43.91Z</time></trkpt><trkpt lat="44.7974381" lon="9.4229931"><ele>240.66666666666666</ele><time>2026-04-19T15:54:45.031Z</time></trkpt><trkpt lat="44.7972487" lon="9.4229351"><ele>240.33333333333331</ele><time>2026-04-19T15:54:45.996Z</time></trkpt><trkpt lat="44.7970635" lon="9.4228548"><ele>240.0</ele><time>2026-04-19T15:54:47.014Z</time></trkpt><trkpt lat="44.7967572" lon="9.4226651"><ele>240.0</ele><time>2026-04-19T15:54:48.954Z</time></trkpt><trkpt lat="44.7966147" lon="9.4225574"><ele>240.0</ele><time>2026-04-19T15:54:50.001Z</time></trkpt><trkpt lat="44.7964876" lon="9.422451"><ele>240.0</ele><time>2026-04-19T15:54:50.929Z</time></trkpt><trkpt lat="44.79635" lon="9.4223296"><ele>240.0</ele><time>2026-04-19T15:54:51.928Z</time></trkpt><trkpt lat="44.7962071" lon="9.4221858"><ele>240.0</ele><time>2026-04-19T15:54:52.982Z</time></trkpt><trkpt lat="44.7960772" lon="9.4220323"><ele>240.0</ele><time>2026-04-19T15:54:53.962Z</time></trkpt><trkpt lat="44.7959589" lon="9.421879"><ele>242.33333333333331</ele><time>2026-04-19T15:54:54.894Z</time></trkpt><trkpt lat="44.7958239" lon="9.4217012"><ele>244.66666666666666</ele><time>2026-04-19T15:54:55.945Z</time></trkpt><trkpt lat="44.7956992" lon="9.421537"><ele>247.0</ele><time>2026-04-19T15:54:56.899Z</time></trkpt><trkpt lat="44.7955582" lon="9.4213504"><ele>245.33333333333331</ele><time>2026-04-19T15:54:57.994Z</time></trkpt><trkpt lat="44.7954426" lon="9.4211899"><ele>243.66666666666669</ele><time>2026-04-19T15:54:58.901Z</time></trkpt><trkpt lat="44.7953138" lon="9.4210238"><ele>242.0</ele><time>2026-04-19T15:54:59.881Z</time></trkpt><trkpt lat="44.7951459" lon="9.4208191"><ele>240.0</ele><time>2026-04-19T15:55:00.821Z</time></trkpt><trkpt lat="44.7949774" lon="9.420619"><ele>238.0</ele><time>2026-04-19T15:55:01.793Z</time></trkpt><trkpt lat="44.7948043" lon="9.4204135"><ele>236.0</ele><time>2026-04-19T15:55:02.792Z</time></trkpt><trkpt lat="44.7897768" lon="9.4137715"><ele>236.0</ele><time>2026-04-19T15:55:36.601Z</time></trkpt><trkpt lat="44.7896288" lon="9.4135851"><ele>236.0</ele><time>2026-04-19T15:55:37.601Z</time></trkpt><trkpt lat="44.7894774" lon="9.4133877"><ele>236.0</ele><time>2026-04-19T15:55:38.601Z</time></trkpt><trkpt lat="44.7893339" lon="9.4131873"><ele>236.33333333333334</ele><time>2026-04-19T15:55:39.601Z</time></trkpt><trkpt lat="44.7891753" lon="9.4129706"><ele>236.66666666666669</ele><time>2026-04-19T15:55:40.884Z</time></trkpt><trkpt lat="44.7890212" lon="9.4127601"><ele>237.0</ele><time>2026-04-19T15:55:41.891Z</time></trkpt><trkpt lat="44.7888713" lon="9.4125579"><ele>237.0</ele><time>2026-04-19T15:55:42.884Z</time></trkpt><trkpt lat="44.7887152" lon="9.4123519"><ele>237.0</ele><time>2026-04-19T15:55:43.944Z</time></trkpt><trkpt lat="44.7885842" lon="9.4121788"><ele>237.0</ele><time>2026-04-19T15:55:44.886Z</time></trkpt><trkpt lat="44.78843" lon="9.4119781"><ele>237.33333333333331</ele><time>2026-04-19T15:55:45.998Z</time></trkpt><trkpt lat="44.7883009" lon="9.4118116"><ele>237.66666666666666</ele><time>2026-04-19T15:55:46.921Z</time></trkpt><trkpt lat="44.7881622" lon="9.4116264"><ele>238.0</ele><time>2026-04-19T15:55:47.95Z</time></trkpt><trkpt lat="44.7880322" lon="9.4114516"><ele>237.66666666666666</ele><time>2026-04-19T15:55:48.901Z</time></trkpt><trkpt lat="44.7878934" lon="9.4112672"><ele>237.33333333333331</ele><time>2026-04-19T15:55:49.882Z</time></trkpt><trkpt lat="44.7877436" lon="9.4110708"><ele>237.0</ele><time>2026-04-19T15:55:50.898Z</time></trkpt><trkpt lat="44.7875963" lon="9.4108746"><ele>237.0</ele><time>2026-04-19T15:55:51.894Z</time></trkpt><trkpt lat="44.7874271" lon="9.410651"><ele>237.0</ele><time>2026-04-19T15:55:53.044Z</time></trkpt><trkpt lat="44.7871574" lon="9.4103077"><ele>237.0</ele><time>2026-04-19T15:55:54.895Z</time></trkpt><trkpt lat="44.7870092" lon="9.4101146"><ele>237.0</ele><time>2026-04-19T15:55:55.958Z</time></trkpt><trkpt lat="44.7868723" lon="9.4099351"><ele>237.0</ele><time>2026-04-19T15:55:56.967Z</time></trkpt><trkpt lat="44.7867508" lon="9.409776"><ele>240.0</ele><time>2026-04-19T15:55:57.871Z</time></trkpt><trkpt lat="44.7866105" lon="9.4095881"><ele>243.0</ele><time>2026-04-19T15:55:58.946Z</time></trkpt><trkpt lat="44.7864797" lon="9.4094222"><ele>246.0</ele><time>2026-04-19T15:55:59.911Z</time></trkpt><trkpt lat="44.7863434" lon="9.4092498"><ele>246.0</ele><time>2026-04-19T15:56:00.918Z</time></trkpt><trkpt lat="44.7862169" lon="9.4090834"><ele>246.0</ele><time>2026-04-19T15:56:01.872Z</time></trkpt><trkpt lat="44.7860714" lon="9.408895"><ele>246.0</ele><time>2026-04-19T15:56:02.961Z</time></trkpt><trkpt lat="44.7859511" lon="9.4087354"><ele>246.0</ele><time>2026-04-19T15:56:03.871Z</time></trkpt><trkpt lat="44.7858124" lon="9.4085524"><ele>246.0</ele><time>2026-04-19T15:56:04.92Z</time></trkpt><trkpt lat="44.7856751" lon="9.4083734"><ele>246.0</ele><time>2026-04-19T15:56:05.906Z</time></trkpt><trkpt lat="44.785535" lon="9.4081903"><ele>246.66666666666669</ele><time>2026-04-19T15:56:06.884Z</time></trkpt><trkpt lat="44.7853737" lon="9.4079804"><ele>247.33333333333334</ele><time>2026-04-19T15:56:07.989Z</time></trkpt><trkpt lat="44.7852397" lon="9.4078003"><ele>248.0</ele><time>2026-04-19T15:56:08.898Z</time></trkpt><trkpt lat="44.7850757" lon="9.4075747"><ele>248.0</ele><time>2026-04-19T15:56:09.993Z</time></trkpt><trkpt lat="44.7849389" lon="9.4073774"><ele>248.0</ele><time>2026-04-19T15:56:10.904Z</time></trkpt><trkpt lat="44.7847823" lon="9.4071514"><ele>248.0</ele><time>2026-04-19T15:56:11.924Z</time></trkpt><trkpt lat="44.7846274" lon="9.4069238"><ele>247.33333333333334</ele><time>2026-04-19T15:56:12.947Z</time></trkpt><trkpt lat="44.7844753" lon="9.4067016"><ele>246.66666666666669</ele><time>2026-04-19T15:56:13.947Z</time></trkpt><trkpt lat="44.7843158" lon="9.4064769"><ele>246.0</ele><time>2026-04-19T15:56:14.983Z</time></trkpt><trkpt lat="44.784165" lon="9.4062627"><ele>245.33333333333331</ele><time>2026-04-19T15:56:15.97Z</time></trkpt><trkpt lat="44.7840182" lon="9.4060487"><ele>244.66666666666666</ele><time>2026-04-19T15:56:16.942Z</time></trkpt><trkpt lat="44.7838672" lon="9.4058291"><ele>244.0</ele><time>2026-04-19T15:56:17.948Z</time></trkpt><trkpt lat="44.7837166" lon="9.405614"><ele>243.0</ele><time>2026-04-19T15:56:18.917Z</time></trkpt><trkpt lat="44.7835589" lon="9.4053906"><ele>242.0</ele><time>2026-04-19T15:56:19.949Z</time></trkpt><trkpt lat="44.7834121" lon="9.4051839"><ele>241.0</ele><time>2026-04-19T15:56:20.905Z</time></trkpt><trkpt lat="44.7832395" lon="9.4049362"><ele>241.0</ele><time>2026-04-19T15:56:22.042Z</time></trkpt><trkpt lat="44.7830941" lon="9.4047303"><ele>241.0</ele><time>2026-04-19T15:56:22.998Z</time></trkpt><trkpt lat="44.7829473" lon="9.4045215"><ele>241.0</ele><time>2026-04-19T15:56:23.964Z</time></trkpt><trkpt lat="44.782805" lon="9.4043162"><ele>241.66666666666666</ele><time>2026-04-19T15:56:24.904Z</time></trkpt><trkpt lat="44.7826561" lon="9.4041015"><ele>242.33333333333331</ele><time>2026-04-19T15:56:25.889Z</time></trkpt><trkpt lat="44.7824963" lon="9.4038678"><ele>243.0</ele><time>2026-04-19T15:56:26.957Z</time></trkpt><trkpt lat="44.782343" lon="9.4036435"><ele>243.33333333333331</ele><time>2026-04-19T15:56:27.984Z</time></trkpt><trkpt lat="44.7821811" lon="9.4034119"><ele>243.66666666666666</ele><time>2026-04-19T15:56:29.037Z</time></trkpt><trkpt lat="44.7820379" lon="9.4032021"><ele>244.0</ele><time>2026-04-19T15:56:29.947Z</time></trkpt><trkpt lat="44.7818771" lon="9.4029679"><ele>245.5</ele><time>2026-04-19T15:56:30.939Z</time></trkpt><trkpt lat="44.7817103" lon="9.4027229"><ele>247.0</ele><time>2026-04-19T15:56:31.99Z</time></trkpt><trkpt lat="44.7815575" lon="9.4025063"><ele>247.0</ele><time>2026-04-19T15:56:32.957Z</time></trkpt><trkpt lat="44.7813911" lon="9.4022695"><ele>247.0</ele><time>2026-04-19T15:56:34.045Z</time></trkpt><trkpt lat="44.781248" lon="9.4020642"><ele>247.0</ele><time>2026-04-19T15:56:35.021Z</time></trkpt><trkpt lat="44.7811094" lon="9.4018655"><ele>247.33333333333331</ele><time>2026-04-19T15:56:35.981Z</time></trkpt><trkpt lat="44.7809634" lon="9.4016542"><ele>247.66666666666669</ele><time>2026-04-19T15:56:37.029Z</time></trkpt><trkpt lat="44.7808376" lon="9.4014694"><ele>248.0</ele><time>2026-04-19T15:56:37.942Z</time></trkpt><trkpt lat="44.780695" lon="9.4012477"><ele>250.33333333333334</ele><time>2026-04-19T15:56:39.006Z</time></trkpt><trkpt lat="44.7805733" lon="9.4010343"><ele>252.66666666666669</ele><time>2026-04-19T15:56:39.973Z</time></trkpt><trkpt lat="44.7804608" lon="9.400812"><ele>255.0</ele><time>2026-04-19T15:56:40.939Z</time></trkpt><trkpt lat="44.7803539" lon="9.4005729"><ele>254.0</ele><time>2026-04-19T15:56:41.933Z</time></trkpt><trkpt lat="44.7802499" lon="9.4003131"><ele>253.0</ele><time>2026-04-19T15:56:42.978Z</time></trkpt><trkpt lat="44.7801598" lon="9.400048"><ele>252.0</ele><time>2026-04-19T15:56:44.009Z</time></trkpt><trkpt lat="44.7800852" lon="9.3997912"><ele>253.66666666666669</ele><time>2026-04-19T15:56:44.977Z</time></trkpt><trkpt lat="44.780021" lon="9.3995278"><ele>255.33333333333334</ele><time>2026-04-19T15:56:45.955Z</time></trkpt><trkpt lat="44.7799582" lon="9.3992252"><ele>257.0</ele><time>2026-04-19T15:56:47.059Z</time></trkpt><trkpt lat="44.7798836" lon="9.3987124"><ele>258.0</ele><time>2026-04-19T15:56:48.894Z</time></trkpt><trkpt lat="44.7798597" lon="9.398425"><ele>259.0</ele><time>2026-04-19T15:56:49.923Z</time></trkpt><trkpt lat="44.7798445" lon="9.3981452"><ele>260.0</ele><time>2026-04-19T15:56:50.942Z</time></trkpt><trkpt lat="44.7798304" lon="9.3978851"><ele>260.5</ele><time>2026-04-19T15:56:51.886Z</time></trkpt><trkpt lat="44.7798099" lon="9.3975544"><ele>261.0</ele><time>2026-04-19T15:56:53.102Z</time></trkpt><trkpt lat="44.7797654" lon="9.3970417"><ele>263.0</ele><time>2026-04-19T15:56:54.966Z</time></trkpt><trkpt lat="44.7797342" lon="9.396767"><ele>265.0</ele><time>2026-04-19T15:56:55.947Z</time></trkpt><trkpt lat="44.7796946" lon="9.3964763"><ele>267.0</ele><time>2026-04-19T15:56:56.994Z</time></trkpt><trkpt lat="44.7796467" lon="9.396196"><ele>271.0</ele><time>2026-04-19T15:56:58.043Z</time></trkpt><trkpt lat="44.7795436" lon="9.3956583"><ele>275.0</ele><time>2026-04-19T15:57:00.06Z</time></trkpt><trkpt lat="44.7794212" lon="9.3951346"><ele>267.6666666666667</ele><time>2026-04-19T15:57:01.971Z</time></trkpt><trkpt lat="44.7793499" lon="9.394872"><ele>260.3333333333333</ele><time>2026-04-19T15:57:02.942Z</time></trkpt><trkpt lat="44.7792695" lon="9.3946074"><ele>253.0</ele><time>2026-04-19T15:57:03.92Z</time></trkpt><trkpt lat="44.7791797" lon="9.394336"><ele>253.0</ele><time>2026-04-19T15:57:04.936Z</time></trkpt><trkpt lat="44.7790857" lon="9.3940695"><ele>253.0</ele><time>2026-04-19T15:57:05.931Z</time></trkpt><trkpt lat="44.7789863" lon="9.3938209"><ele>253.0</ele><time>2026-04-19T15:57:06.91Z</time></trkpt><trkpt lat="44.7788764" lon="9.3935592"><ele>256.66666666666663</ele><time>2026-04-19T15:57:07.958Z</time></trkpt><trkpt lat="44.7787731" lon="9.3933363"><ele>260.3333333333333</ele><time>2026-04-19T15:57:08.883Z</time></trkpt><trkpt lat="44.778649" lon="9.3930802"><ele>264.0</ele><time>2026-04-19T15:57:09.973Z</time></trkpt><trkpt lat="44.7785297" lon="9.3928575"><ele>259.5</ele><time>2026-04-19T15:57:11.031Z</time></trkpt><trkpt lat="44.778316" lon="9.392494"><ele>255.0</ele><time>2026-04-19T15:57:12.956Z</time></trkpt><trkpt lat="44.7782041" lon="9.3923249"><ele>263.3333333333333</ele><time>2026-04-19T15:57:13.912Z</time></trkpt><trkpt lat="44.7780816" lon="9.3921498"><ele>271.66666666666663</ele><time>2026-04-19T15:57:14.929Z</time></trkpt><trkpt lat="44.7779623" lon="9.3919914"><ele>280.0</ele><time>2026-04-19T15:57:15.897Z</time></trkpt><trkpt lat="44.7778361" lon="9.3918335"><ele>280.0</ele><time>2026-04-19T15:57:16.899Z</time></trkpt><trkpt lat="44.7777016" lon="9.3916769"><ele>280.0</ele><time>2026-04-19T15:57:17.941Z</time></trkpt><trkpt lat="44.7775744" lon="9.3915384"><ele>280.0</ele><time>2026-04-19T15:57:18.898Z</time></trkpt><trkpt lat="44.7774362" lon="9.3913969"><ele>278.66666666666663</ele><time>2026-04-19T15:57:19.906Z</time></trkpt><trkpt lat="44.7772961" lon="9.3912578"><ele>277.3333333333333</ele><time>2026-04-19T15:57:20.891Z</time></trkpt><trkpt lat="44.777142" lon="9.3911105"><ele>276.0</ele><time>2026-04-19T15:57:21.906Z</time></trkpt><trkpt lat="44.7769881" lon="9.3909672"><ele>267.5</ele><time>2026-04-19T15:57:22.89Z</time></trkpt><trkpt lat="44.7768147" lon="9.3908044"><ele>259.0</ele><time>2026-04-19T15:57:23.999Z</time></trkpt><trkpt lat="44.7765246" lon="9.3905388"><ele>262.66666666666663</ele><time>2026-04-19T15:57:25.898Z</time></trkpt><trkpt lat="44.7763688" lon="9.3903956"><ele>266.3333333333333</ele><time>2026-04-19T15:57:26.935Z</time></trkpt><trkpt lat="44.7762224" lon="9.3902605"><ele>270.0</ele><time>2026-04-19T15:57:27.942Z</time></trkpt><trkpt lat="44.7760899" lon="9.3901371"><ele>264.6666666666667</ele><time>2026-04-19T15:57:28.895Z</time></trkpt><trkpt lat="44.7759523" lon="9.3900096"><ele>259.33333333333337</ele><time>2026-04-19T15:57:29.901Z</time></trkpt><trkpt lat="44.7758014" lon="9.3898862"><ele>254.0</ele><time>2026-04-19T15:57:30.953Z</time></trkpt><trkpt lat="44.775652" lon="9.3897797"><ele>254.5</ele><time>2026-04-19T15:57:31.922Z</time></trkpt><trkpt lat="44.7754732" lon="9.3896719"><ele>255.0</ele><time>2026-04-19T15:57:33.017Z</time></trkpt><trkpt lat="44.7751287" lon="9.3895281"><ele>255.0</ele><time>2026-04-19T15:57:34.957Z</time></trkpt><trkpt lat="44.7749471" lon="9.3894799"><ele>255.0</ele><time>2026-04-19T15:57:35.914Z</time></trkpt><trkpt lat="44.774747" lon="9.3894459"><ele>255.0</ele><time>2026-04-19T15:57:36.928Z</time></trkpt><trkpt lat="44.7745357" lon="9.3894288"><ele>255.0</ele><time>2026-04-19T15:57:37.939Z</time></trkpt><trkpt lat="44.7743121" lon="9.3894284"><ele>255.0</ele><time>2026-04-19T15:57:38.992Z</time></trkpt><trkpt lat="44.7741111" lon="9.3894406"><ele>255.0</ele><time>2026-04-19T15:57:39.954Z</time></trkpt><trkpt lat="44.7739112" lon="9.3894543"><ele>255.0</ele><time>2026-04-19T15:57:40.968Z</time></trkpt><trkpt lat="44.7737126" lon="9.3894655"><ele>255.0</ele><time>2026-04-19T15:57:42.044Z</time></trkpt><trkpt lat="44.773545" lon="9.3894694"><ele>255.0</ele><time>2026-04-19T15:57:43.041Z</time></trkpt><trkpt lat="44.7732805" lon="9.3894672"><ele>255.83333333333334</ele><time>2026-04-19T15:57:45.011Z</time></trkpt><trkpt lat="44.7731824" lon="9.3894519"><ele>256.6666666666667</ele><time>2026-04-19T15:57:45.949Z</time></trkpt><trkpt lat="44.7731101" lon="9.3894115"><ele>257.5</ele><time>2026-04-19T15:57:46.883Z</time></trkpt><trkpt lat="44.7730494" lon="9.389338"><ele>258.33333333333337</ele><time>2026-04-19T15:57:47.95Z</time></trkpt><trkpt lat="44.7730088" lon="9.3892446"><ele>259.1666666666667</ele><time>2026-04-19T15:57:48.918Z</time></trkpt><trkpt lat="44.7729842" lon="9.3891472"><ele>260.0</ele><time>2026-04-19T15:57:49.906Z</time></trkpt><trkpt lat="44.7729673" lon="9.3890397"><ele>260.0</ele><time>2026-04-19T15:57:50.943Z</time></trkpt><trkpt lat="44.7729608" lon="9.3889367"><ele>260.0</ele><time>2026-04-19T15:57:51.959Z</time></trkpt><trkpt lat="44.7729606" lon="9.3888451"><ele>260.0</ele><time>2026-04-19T15:57:52.881Z</time></trkpt><trkpt lat="44.7729669" lon="9.3887472"><ele>260.0</ele><time>2026-04-19T15:57:53.905Z</time></trkpt><trkpt lat="44.7729711" lon="9.3886347"><ele>260.0</ele><time>2026-04-19T15:57:55.893Z</time></trkpt><trkpt lat="44.772984" lon="9.3885239"><ele>260.0</ele><time>2026-04-19T15:57:58.934Z</time></trkpt><trkpt lat="44.7729982" lon="9.3883862"><ele>260.6</ele><time>2026-04-19T15:58:00.973Z</time></trkpt><trkpt lat="44.7730093" lon="9.3882306"><ele>261.2</ele><time>2026-04-19T15:58:02.884Z</time></trkpt><trkpt lat="44.7730306" lon="9.3881019"><ele>261.8</ele><time>2026-04-19T15:58:04.943Z</time></trkpt><trkpt lat="44.7730475" lon="9.387971"><ele>262.4</ele><time>2026-04-19T15:58:06.971Z</time></trkpt><trkpt lat="44.7730513" lon="9.3878355"><ele>263.0</ele><time>2026-04-19T15:58:09.925Z</time></trkpt><trkpt lat="44.7730077" lon="9.3877474"><ele>264.0</ele><time>2026-04-19T15:58:13.167Z</time></trkpt><trkpt lat="44.7729457" lon="9.3877038"><ele>264.0</ele><time>2026-04-19T15:58:15.981Z</time></trkpt><trkpt lat="44.7728626" lon="9.3876925"><ele>264.0</ele><time>2026-04-19T15:58:18.896Z</time></trkpt><trkpt lat="44.7728026" lon="9.3877425"><ele>264.0</ele><time>2026-04-19T15:58:21.972Z</time></trkpt></trkseg></trk></gpx>